<?xml version='1.0' encoding='UTF-8'?><gpx version="1.1" creator="JPX - https://github.com/jenetics/jpx" xmlns="http://www.topografix.com/GPX/1/1"><trk><trkseg><trkpt lat="45.6779394" lon="13.7589484"><ele>25.999999999999996</ele><time>2026-03-28T12:06:25.079Z</time></trkpt><trkpt lat="45.6779773" lon="13.7588671"><ele>26.0</ele><time>2026-03-28T12:06:29.077Z</time></trkpt><trkpt lat="45.6780189" lon="13.7587966"><ele>26.0</ele><time>2026-03-28T12:06:31.1Z</time></trkpt><trkpt lat="45.6780674" lon="13.7587304"><ele>26.0</ele><time>2026-03-28T12:06:32.115Z</time></trkpt><trkpt lat="45.6781056" lon="13.7586305"><ele>25.999999999999996</ele><time>2026-03-28T12:06:33.107Z</time></trkpt><trkpt lat="45.6781005" lon="13.7585015"><ele>26.0</ele><time>2026-03-28T12:06:34.076Z</time></trkpt><trkpt lat="45.6780739" lon="13.7583431"><ele>24.8</ele><time>2026-03-28T12:06:35.083Z</time></trkpt><trkpt lat="45.678037" lon="13.7581932"><ele>23.6</ele><time>2026-03-28T12:06:36.079Z</time></trkpt><trkpt lat="45.678026" lon="13.7580675"><ele>22.4</ele><time>2026-03-28T12:06:37.096Z</time></trkpt><trkpt lat="45.6780493" lon="13.7579438"><ele>21.2</ele><time>2026-03-28T12:06:38.074Z</time></trkpt><trkpt lat="45.6780937" lon="13.7578299"><ele>20.0</ele><time>2026-03-28T12:06:39.079Z</time></trkpt><trkpt lat="45.6781438" lon="13.7577117"><ele>19.0</ele><time>2026-03-28T12:06:40.081Z</time></trkpt><trkpt lat="45.6782042" lon="13.7576061"><ele>18.0</ele><time>2026-03-28T12:06:41.081Z</time></trkpt><trkpt lat="45.6782685" lon="13.7575122"><ele>17.0</ele><time>2026-03-28T12:06:42.095Z</time></trkpt><trkpt lat="45.6783545" lon="13.7574386"><ele>16.0</ele><time>2026-03-28T12:06:43.081Z</time></trkpt><trkpt lat="45.6784406" lon="13.7573717"><ele>15.0</ele><time>2026-03-28T12:06:44.119Z</time></trkpt><trkpt lat="45.6785042" lon="13.7572792"><ele>15.0</ele><time>2026-03-28T12:06:45.094Z</time></trkpt><trkpt lat="45.6785395" lon="13.7571703"><ele>15.0</ele><time>2026-03-28T12:06:46.08Z</time></trkpt><trkpt lat="45.678564" lon="13.7570503"><ele>15.0</ele><time>2026-03-28T12:06:47.087Z</time></trkpt><trkpt lat="45.6785748" lon="13.7569376"><ele>15.0</ele><time>2026-03-28T12:06:48.116Z</time></trkpt><trkpt lat="45.678546" lon="13.7568198"><ele>15.0</ele><time>2026-03-28T12:06:49.099Z</time></trkpt><trkpt lat="45.6784806" lon="13.7566869"><ele>14.0</ele><time>2026-03-28T12:06:50.094Z</time></trkpt><trkpt lat="45.678417" lon="13.756546"><ele>13.0</ele><time>2026-03-28T12:06:51.078Z</time></trkpt><trkpt lat="45.6783659" lon="13.7563878"><ele>12.0</ele><time>2026-03-28T12:06:52.088Z</time></trkpt><trkpt lat="45.6783416" lon="13.75623"><ele>11.0</ele><time>2026-03-28T12:06:53.086Z</time></trkpt><trkpt lat="45.678345" lon="13.7560592"><ele>10.0</ele><time>2026-03-28T12:06:54.084Z</time></trkpt><trkpt lat="45.6783484" lon="13.7558808"><ele>9.0</ele><time>2026-03-28T12:06:55.097Z</time></trkpt><trkpt lat="45.6783397" lon="13.755703"><ele>8.0</ele><time>2026-03-28T12:06:56.089Z</time></trkpt><trkpt lat="45.6783211" lon="13.7555288"><ele>7.0</ele><time>2026-03-28T12:06:57.085Z</time></trkpt><trkpt lat="45.6783077" lon="13.7553597"><ele>7.0</ele><time>2026-03-28T12:06:58.097Z</time></trkpt><trkpt lat="45.678297" lon="13.7552131"><ele>6.999999999999999</ele><time>2026-03-28T12:06:59.089Z</time></trkpt><trkpt lat="45.6782877" lon="13.7550758"><ele>6.999999999999999</ele><time>2026-03-28T12:07:00.097Z</time></trkpt><trkpt lat="45.6782821" lon="13.7549505"><ele>7.0</ele><time>2026-03-28T12:07:01.095Z</time></trkpt><trkpt lat="45.6782813" lon="13.7548388"><ele>7.0</ele><time>2026-03-28T12:07:02.095Z</time></trkpt><trkpt lat="45.6782822" lon="13.7547169"><ele>6.8</ele><time>2026-03-28T12:07:04.094Z</time></trkpt><trkpt lat="45.6782999" lon="13.7546076"><ele>6.6</ele><time>2026-03-28T12:08:17.097Z</time></trkpt><trkpt lat="45.6784269" lon="13.7545326"><ele>6.3999999999999995</ele><time>2026-03-28T12:08:19.093Z</time></trkpt><trkpt lat="45.6785214" lon="13.7545192"><ele>6.199999999999999</ele><time>2026-03-28T12:08:20.093Z</time></trkpt><trkpt lat="45.6786252" lon="13.7545165"><ele>6.0</ele><time>2026-03-28T12:08:21.093Z</time></trkpt><trkpt lat="45.6787425" lon="13.7545264"><ele>5.75</ele><time>2026-03-28T12:08:22.095Z</time></trkpt><trkpt lat="45.6788692" lon="13.754537"><ele>5.5</ele><time>2026-03-28T12:08:23.097Z</time></trkpt><trkpt lat="45.6790026" lon="13.7545409"><ele>5.25</ele><time>2026-03-28T12:08:24.1Z</time></trkpt><trkpt lat="45.6791397" lon="13.7545525"><ele>5.0</ele><time>2026-03-28T12:08:25.1Z</time></trkpt><trkpt lat="45.6792846" lon="13.7545647"><ele>5.0</ele><time>2026-03-28T12:08:26.101Z</time></trkpt><trkpt lat="45.6794383" lon="13.7545653"><ele>5.0</ele><time>2026-03-28T12:08:27.102Z</time></trkpt><trkpt lat="45.6795934" lon="13.7545288"><ele>5.0</ele><time>2026-03-28T12:08:28.11Z</time></trkpt><trkpt lat="45.6797395" lon="13.754447"><ele>4.333333333333334</ele><time>2026-03-28T12:08:29.101Z</time></trkpt><trkpt lat="45.6798819" lon="13.7543431"><ele>3.666666666666667</ele><time>2026-03-28T12:08:30.116Z</time></trkpt><trkpt lat="45.6800127" lon="13.7542364"><ele>3.0</ele><time>2026-03-28T12:08:31.103Z</time></trkpt><trkpt lat="45.6801374" lon="13.7541316"><ele>3.0</ele><time>2026-03-28T12:08:32.098Z</time></trkpt><trkpt lat="45.680258" lon="13.7540325"><ele>3.0</ele><time>2026-03-28T12:08:33.104Z</time></trkpt><trkpt lat="45.6803782" lon="13.7539274"><ele>3.0</ele><time>2026-03-28T12:08:34.105Z</time></trkpt><trkpt lat="45.6805008" lon="13.7538279"><ele>3.0</ele><time>2026-03-28T12:08:35.104Z</time></trkpt><trkpt lat="45.6806237" lon="13.7537207"><ele>3.333333333333333</ele><time>2026-03-28T12:08:36.106Z</time></trkpt><trkpt lat="45.6807503" lon="13.7536156"><ele>3.6666666666666665</ele><time>2026-03-28T12:08:37.11Z</time></trkpt><trkpt lat="45.6808787" lon="13.7535063"><ele>4.0</ele><time>2026-03-28T12:08:38.118Z</time></trkpt><trkpt lat="45.6810134" lon="13.7533851"><ele>6.0</ele><time>2026-03-28T12:08:39.108Z</time></trkpt><trkpt lat="45.6811475" lon="13.753263"><ele>8.0</ele><time>2026-03-28T12:08:40.102Z</time></trkpt><trkpt lat="45.6812791" lon="13.7531431"><ele>10.0</ele><time>2026-03-28T12:08:41.116Z</time></trkpt><trkpt lat="45.6814102" lon="13.75302"><ele>10.0</ele><time>2026-03-28T12:08:42.101Z</time></trkpt><trkpt lat="45.6815418" lon="13.7528945"><ele>10.0</ele><time>2026-03-28T12:08:43.117Z</time></trkpt><trkpt lat="45.681669" lon="13.7527681"><ele>10.0</ele><time>2026-03-28T12:08:44.115Z</time></trkpt><trkpt lat="45.6817919" lon="13.7526384"><ele>10.25</ele><time>2026-03-28T12:08:45.108Z</time></trkpt><trkpt lat="45.6819136" lon="13.7525127"><ele>10.5</ele><time>2026-03-28T12:08:46.114Z</time></trkpt><trkpt lat="45.6820311" lon="13.752391"><ele>10.75</ele><time>2026-03-28T12:08:47.116Z</time></trkpt><trkpt lat="45.6821417" lon="13.7522798"><ele>11.0</ele><time>2026-03-28T12:08:48.108Z</time></trkpt><trkpt lat="45.6822478" lon="13.7521763"><ele>11.0</ele><time>2026-03-28T12:08:49.102Z</time></trkpt><trkpt lat="45.6823486" lon="13.7520761"><ele>11.0</ele><time>2026-03-28T12:08:50.11Z</time></trkpt><trkpt lat="45.6824454" lon="13.7519844"><ele>11.0</ele><time>2026-03-28T12:08:51.101Z</time></trkpt><trkpt lat="45.6825331" lon="13.7518981"><ele>11.0</ele><time>2026-03-28T12:08:52.103Z</time></trkpt><trkpt lat="45.6826169" lon="13.7518196"><ele>11.0</ele><time>2026-03-28T12:08:53.105Z</time></trkpt><trkpt lat="45.6826944" lon="13.7517452"><ele>11.0</ele><time>2026-03-28T12:08:54.108Z</time></trkpt><trkpt lat="45.6827713" lon="13.7516694"><ele>11.0</ele><time>2026-03-28T12:08:55.111Z</time></trkpt><trkpt lat="45.6828396" lon="13.7516007"><ele>11.0</ele><time>2026-03-28T12:08:56.104Z</time></trkpt><trkpt lat="45.682905" lon="13.7515308"><ele>11.0</ele><time>2026-03-28T12:08:57.1Z</time></trkpt><trkpt lat="45.6829664" lon="13.7514685"><ele>11.0</ele><time>2026-03-28T12:08:58.113Z</time></trkpt><trkpt lat="45.6830239" lon="13.7514129"><ele>11.0</ele><time>2026-03-28T12:08:59.121Z</time></trkpt><trkpt lat="45.6831273" lon="13.7513015"><ele>11.0</ele><time>2026-03-28T12:09:01.113Z</time></trkpt><trkpt lat="45.683181" lon="13.7512357"><ele>11.0</ele><time>2026-03-28T12:09:02.119Z</time></trkpt><trkpt lat="45.6832319" lon="13.7511737"><ele>11.0</ele><time>2026-03-28T12:09:03.111Z</time></trkpt><trkpt lat="45.683286" lon="13.7511097"><ele>11.0</ele><time>2026-03-28T12:09:04.103Z</time></trkpt><trkpt lat="45.6833463" lon="13.7510475"><ele>11.0</ele><time>2026-03-28T12:09:05.101Z</time></trkpt><trkpt lat="45.683403" lon="13.7509904"><ele>11.0</ele><time>2026-03-28T12:09:06.109Z</time></trkpt><trkpt lat="45.683461" lon="13.7509299"><ele>11.0</ele><time>2026-03-28T12:09:07.114Z</time></trkpt><trkpt lat="45.6835222" lon="13.7508706"><ele>10.333333333333332</ele><time>2026-03-28T12:09:08.101Z</time></trkpt><trkpt lat="45.6835804" lon="13.7508145"><ele>9.666666666666666</ele><time>2026-03-28T12:09:09.103Z</time></trkpt><trkpt lat="45.6836818" lon="13.7507086"><ele>9.0</ele><time>2026-03-28T12:09:11.107Z</time></trkpt><trkpt lat="45.6837343" lon="13.7506512"><ele>8.333333333333334</ele><time>2026-03-28T12:09:12.109Z</time></trkpt><trkpt lat="45.6838246" lon="13.7505702"><ele>7.666666666666667</ele><time>2026-03-28T12:09:14.111Z</time></trkpt><trkpt lat="45.6838801" lon="13.7505059"><ele>7.0</ele><time>2026-03-28T12:09:16.098Z</time></trkpt><trkpt lat="45.6839402" lon="13.7504426"><ele>7.199999999999999</ele><time>2026-03-28T12:09:18.107Z</time></trkpt><trkpt lat="45.6840278" lon="13.7503446"><ele>7.3999999999999995</ele><time>2026-03-28T12:09:20.101Z</time></trkpt><trkpt lat="45.6841086" lon="13.7502573"><ele>7.6000000000000005</ele><time>2026-03-28T12:09:22.102Z</time></trkpt><trkpt lat="45.6841902" lon="13.7501687"><ele>7.800000000000001</ele><time>2026-03-28T12:09:24.098Z</time></trkpt><trkpt lat="45.684293" lon="13.7500612"><ele>8.0</ele><time>2026-03-28T12:09:26.101Z</time></trkpt><trkpt lat="45.6843462" lon="13.7500006"><ele>8.0</ele><time>2026-03-28T12:09:34.1Z</time></trkpt><trkpt lat="45.6844096" lon="13.7499401"><ele>8.0</ele><time>2026-03-28T12:09:36.103Z</time></trkpt><trkpt lat="45.6845121" lon="13.7498578"><ele>8.0</ele><time>2026-03-28T12:09:38.098Z</time></trkpt><trkpt lat="45.6845847" lon="13.7497786"><ele>8.0</ele><time>2026-03-28T12:09:40.098Z</time></trkpt><trkpt lat="45.6846607" lon="13.7496945"><ele>8.0</ele><time>2026-03-28T12:09:42.097Z</time></trkpt><trkpt lat="45.6847456" lon="13.7495997"><ele>8.200000000000001</ele><time>2026-03-28T12:09:44.096Z</time></trkpt><trkpt lat="45.6848459" lon="13.7494988"><ele>8.4</ele><time>2026-03-28T12:09:46.086Z</time></trkpt><trkpt lat="45.684904" lon="13.7494416"><ele>8.600000000000001</ele><time>2026-03-28T12:09:47.11Z</time></trkpt><trkpt lat="45.6849631" lon="13.7493804"><ele>8.8</ele><time>2026-03-28T12:09:48.109Z</time></trkpt><trkpt lat="45.6850189" lon="13.7493142"><ele>9.0</ele><time>2026-03-28T12:09:49.127Z</time></trkpt><trkpt lat="45.6851145" lon="13.7492107"><ele>9.0</ele><time>2026-03-28T12:09:51.088Z</time></trkpt><trkpt lat="45.6851688" lon="13.7491542"><ele>9.0</ele><time>2026-03-28T12:09:52.087Z</time></trkpt><trkpt lat="45.685222" lon="13.7490809"><ele>9.0</ele><time>2026-03-28T12:09:53.101Z</time></trkpt><trkpt lat="45.6852748" lon="13.7490026"><ele>9.0</ele><time>2026-03-28T12:09:54.098Z</time></trkpt><trkpt lat="45.6853271" lon="13.748922"><ele>9.0</ele><time>2026-03-28T12:09:55.085Z</time></trkpt><trkpt lat="45.6853924" lon="13.7488315"><ele>9.0</ele><time>2026-03-28T12:09:56.105Z</time></trkpt><trkpt lat="45.6854636" lon="13.7487392"><ele>9.333333333333334</ele><time>2026-03-28T12:09:57.094Z</time></trkpt><trkpt lat="45.6855261" lon="13.7486435"><ele>9.666666666666666</ele><time>2026-03-28T12:09:58.103Z</time></trkpt><trkpt lat="45.6855811" lon="13.7485573"><ele>10.0</ele><time>2026-03-28T12:09:59.094Z</time></trkpt><trkpt lat="45.685632" lon="13.7484825"><ele>10.333333333333332</ele><time>2026-03-28T12:10:00.098Z</time></trkpt><trkpt lat="45.6857008" lon="13.7483774"><ele>10.666666666666666</ele><time>2026-03-28T12:10:02.097Z</time></trkpt><trkpt lat="45.6857542" lon="13.7482717"><ele>11.0</ele><time>2026-03-28T12:10:05.102Z</time></trkpt><trkpt lat="45.6858054" lon="13.7481961"><ele>11.0</ele><time>2026-03-28T12:10:06.115Z</time></trkpt><trkpt lat="45.685889" lon="13.7480845"><ele>11.0</ele><time>2026-03-28T12:10:07.112Z</time></trkpt><trkpt lat="45.6859725" lon="13.7479768"><ele>11.0</ele><time>2026-03-28T12:10:08.097Z</time></trkpt><trkpt lat="45.6860602" lon="13.74786"><ele>11.0</ele><time>2026-03-28T12:10:09.096Z</time></trkpt><trkpt lat="45.6861395" lon="13.7477505"><ele>11.25</ele><time>2026-03-28T12:10:10.097Z</time></trkpt><trkpt lat="45.6862167" lon="13.7476316"><ele>11.5</ele><time>2026-03-28T12:10:11.099Z</time></trkpt><trkpt lat="45.6862986" lon="13.7475062"><ele>11.75</ele><time>2026-03-28T12:10:12.095Z</time></trkpt><trkpt lat="45.6863872" lon="13.7473713"><ele>12.0</ele><time>2026-03-28T12:10:13.101Z</time></trkpt><trkpt lat="45.6864824" lon="13.7472362"><ele>12.0</ele><time>2026-03-28T12:10:14.093Z</time></trkpt><trkpt lat="45.6865814" lon="13.7470965"><ele>12.0</ele><time>2026-03-28T12:10:15.099Z</time></trkpt><trkpt lat="45.6866831" lon="13.7469485"><ele>12.0</ele><time>2026-03-28T12:10:16.101Z</time></trkpt><trkpt lat="45.6867826" lon="13.7468122"><ele>12.0</ele><time>2026-03-28T12:10:17.097Z</time></trkpt><trkpt lat="45.6868755" lon="13.746688"><ele>14.0</ele><time>2026-03-28T12:10:18.092Z</time></trkpt><trkpt lat="45.6869609" lon="13.7465667"><ele>16.0</ele><time>2026-03-28T12:10:19.101Z</time></trkpt><trkpt lat="45.6870445" lon="13.74645"><ele>18.0</ele><time>2026-03-28T12:10:20.091Z</time></trkpt><trkpt lat="45.68712" lon="13.7463456"><ele>20.0</ele><time>2026-03-28T12:10:21.092Z</time></trkpt><trkpt lat="45.6871889" lon="13.7462517"><ele>22.0</ele><time>2026-03-28T12:10:22.097Z</time></trkpt><trkpt lat="45.6872508" lon="13.7461617"><ele>22.0</ele><time>2026-03-28T12:10:23.095Z</time></trkpt><trkpt lat="45.6873066" lon="13.7460725"><ele>22.0</ele><time>2026-03-28T12:10:24.111Z</time></trkpt><trkpt lat="45.6873632" lon="13.7459856"><ele>22.0</ele><time>2026-03-28T12:10:25.098Z</time></trkpt><trkpt lat="45.687421" lon="13.7459034"><ele>22.0</ele><time>2026-03-28T12:10:26.099Z</time></trkpt><trkpt lat="45.687483" lon="13.7458245"><ele>22.0</ele><time>2026-03-28T12:10:27.094Z</time></trkpt><trkpt lat="45.6875517" lon="13.7457356"><ele>22.0</ele><time>2026-03-28T12:10:28.096Z</time></trkpt><trkpt lat="45.6876231" lon="13.7456382"><ele>21.5</ele><time>2026-03-28T12:10:29.112Z</time></trkpt><trkpt lat="45.6876989" lon="13.7455273"><ele>21.0</ele><time>2026-03-28T12:10:30.096Z</time></trkpt><trkpt lat="45.6877826" lon="13.7453953"><ele>20.5</ele><time>2026-03-28T12:10:31.101Z</time></trkpt><trkpt lat="45.6878756" lon="13.7452639"><ele>20.0</ele><time>2026-03-28T12:10:32.096Z</time></trkpt><trkpt lat="45.6879684" lon="13.7451407"><ele>20.0</ele><time>2026-03-28T12:10:33.097Z</time></trkpt><trkpt lat="45.6880472" lon="13.745027"><ele>20.0</ele><time>2026-03-28T12:10:34.094Z</time></trkpt><trkpt lat="45.6881178" lon="13.7449151"><ele>20.0</ele><time>2026-03-28T12:10:35.095Z</time></trkpt><trkpt lat="45.6881845" lon="13.7448176"><ele>20.0</ele><time>2026-03-28T12:10:36.093Z</time></trkpt><trkpt lat="45.6882583" lon="13.7447106"><ele>20.0</ele><time>2026-03-28T12:10:37.091Z</time></trkpt><trkpt lat="45.6883387" lon="13.7445951"><ele>20.0</ele><time>2026-03-28T12:10:38.097Z</time></trkpt><trkpt lat="45.6884226" lon="13.7444761"><ele>20.0</ele><time>2026-03-28T12:10:39.087Z</time></trkpt><trkpt lat="45.6885054" lon="13.7443555"><ele>20.0</ele><time>2026-03-28T12:10:40.095Z</time></trkpt><trkpt lat="45.688586" lon="13.7442415"><ele>20.0</ele><time>2026-03-28T12:10:41.091Z</time></trkpt><trkpt lat="45.6886656" lon="13.7441362"><ele>22.0</ele><time>2026-03-28T12:10:42.092Z</time></trkpt><trkpt lat="45.688746" lon="13.7440232"><ele>24.0</ele><time>2026-03-28T12:10:43.096Z</time></trkpt><trkpt lat="45.6888317" lon="13.743906"><ele>26.0</ele><time>2026-03-28T12:10:44.093Z</time></trkpt><trkpt lat="45.688915" lon="13.7437937"><ele>28.0</ele><time>2026-03-28T12:10:45.097Z</time></trkpt><trkpt lat="45.6889986" lon="13.7436775"><ele>28.0</ele><time>2026-03-28T12:10:46.108Z</time></trkpt><trkpt lat="45.6890869" lon="13.743551"><ele>28.0</ele><time>2026-03-28T12:10:47.091Z</time></trkpt><trkpt lat="45.6891858" lon="13.7434056"><ele>28.0</ele><time>2026-03-28T12:10:48.093Z</time></trkpt><trkpt lat="45.6892882" lon="13.743257"><ele>28.0</ele><time>2026-03-28T12:10:49.098Z</time></trkpt><trkpt lat="45.6893823" lon="13.7431226"><ele>25.0</ele><time>2026-03-28T12:10:50.088Z</time></trkpt><trkpt lat="45.6894762" lon="13.742986"><ele>22.0</ele><time>2026-03-28T12:10:51.091Z</time></trkpt><trkpt lat="45.6895646" lon="13.7428573"><ele>19.0</ele><time>2026-03-28T12:10:52.091Z</time></trkpt><trkpt lat="45.6896513" lon="13.7427411"><ele>16.0</ele><time>2026-03-28T12:10:53.086Z</time></trkpt><trkpt lat="45.6897417" lon="13.7426225"><ele>16.0</ele><time>2026-03-28T12:10:54.087Z</time></trkpt><trkpt lat="45.6898338" lon="13.7424966"><ele>16.0</ele><time>2026-03-28T12:10:55.083Z</time></trkpt><trkpt lat="45.6899191" lon="13.7423769"><ele>16.0</ele><time>2026-03-28T12:10:56.092Z</time></trkpt><trkpt lat="45.6900053" lon="13.7422623"><ele>16.0</ele><time>2026-03-28T12:10:57.095Z</time></trkpt><trkpt lat="45.6900949" lon="13.7421448"><ele>16.0</ele><time>2026-03-28T12:10:58.083Z</time></trkpt><trkpt lat="45.6901952" lon="13.7420206"><ele>16.0</ele><time>2026-03-28T12:10:59.089Z</time></trkpt><trkpt lat="45.6902977" lon="13.7418945"><ele>16.0</ele><time>2026-03-28T12:11:00.091Z</time></trkpt><trkpt lat="45.6904019" lon="13.7417728"><ele>16.0</ele><time>2026-03-28T12:11:01.089Z</time></trkpt><trkpt lat="45.6904928" lon="13.7416661"><ele>17.200000000000003</ele><time>2026-03-28T12:11:02.089Z</time></trkpt><trkpt lat="45.6905732" lon="13.7415604"><ele>18.400000000000002</ele><time>2026-03-28T12:11:03.095Z</time></trkpt><trkpt lat="45.6906511" lon="13.7414666"><ele>19.6</ele><time>2026-03-28T12:11:04.092Z</time></trkpt><trkpt lat="45.6907274" lon="13.7413795"><ele>20.8</ele><time>2026-03-28T12:11:05.088Z</time></trkpt><trkpt lat="45.6908075" lon="13.7412852"><ele>22.0</ele><time>2026-03-28T12:11:06.094Z</time></trkpt><trkpt lat="45.6908888" lon="13.7411843"><ele>22.0</ele><time>2026-03-28T12:11:07.09Z</time></trkpt><trkpt lat="45.6909733" lon="13.7410745"><ele>22.0</ele><time>2026-03-28T12:11:08.086Z</time></trkpt><trkpt lat="45.6910627" lon="13.740961"><ele>22.0</ele><time>2026-03-28T12:11:09.095Z</time></trkpt><trkpt lat="45.6911542" lon="13.7408401"><ele>22.0</ele><time>2026-03-28T12:11:10.087Z</time></trkpt><trkpt lat="45.6912444" lon="13.7407238"><ele>22.8</ele><time>2026-03-28T12:11:11.083Z</time></trkpt><trkpt lat="45.6913285" lon="13.7406118"><ele>23.6</ele><time>2026-03-28T12:11:12.086Z</time></trkpt><trkpt lat="45.6914105" lon="13.7405037"><ele>24.400000000000002</ele><time>2026-03-28T12:11:13.089Z</time></trkpt><trkpt lat="45.6914883" lon="13.7404031"><ele>25.200000000000003</ele><time>2026-03-28T12:11:14.09Z</time></trkpt><trkpt lat="45.6915663" lon="13.7402996"><ele>26.0</ele><time>2026-03-28T12:11:15.089Z</time></trkpt><trkpt lat="45.6916467" lon="13.7401997"><ele>25.499999999999996</ele><time>2026-03-28T12:11:16.092Z</time></trkpt><trkpt lat="45.6917259" lon="13.7401007"><ele>25.0</ele><time>2026-03-28T12:11:17.093Z</time></trkpt><trkpt lat="45.6917934" lon="13.7400198"><ele>24.5</ele><time>2026-03-28T12:11:18.096Z</time></trkpt><trkpt lat="45.691841" lon="13.7399577"><ele>24.0</ele><time>2026-03-28T12:11:19.092Z</time></trkpt><trkpt lat="45.6919267" lon="13.7398548"><ele>23.5</ele><time>2026-03-28T12:11:21.1Z</time></trkpt><trkpt lat="45.6919761" lon="13.73979"><ele>23.0</ele><time>2026-03-28T12:11:22.095Z</time></trkpt><trkpt lat="45.6920374" lon="13.7397062"><ele>23.0</ele><time>2026-03-28T12:11:23.108Z</time></trkpt><trkpt lat="45.692121" lon="13.7395911"><ele>23.0</ele><time>2026-03-28T12:11:24.095Z</time></trkpt><trkpt lat="45.6922155" lon="13.7394669"><ele>23.0</ele><time>2026-03-28T12:11:25.092Z</time></trkpt><trkpt lat="45.6923198" lon="13.7393333"><ele>23.0</ele><time>2026-03-28T12:11:26.096Z</time></trkpt><trkpt lat="45.6924265" lon="13.7391927"><ele>25.0</ele><time>2026-03-28T12:11:27.098Z</time></trkpt><trkpt lat="45.6925402" lon="13.7390508"><ele>27.0</ele><time>2026-03-28T12:11:28.084Z</time></trkpt><trkpt lat="45.6926547" lon="13.7388953"><ele>29.0</ele><time>2026-03-28T12:11:29.093Z</time></trkpt><trkpt lat="45.6927684" lon="13.7387474"><ele>29.0</ele><time>2026-03-28T12:11:30.095Z</time></trkpt><trkpt lat="45.6928826" lon="13.7386035"><ele>29.0</ele><time>2026-03-28T12:11:31.089Z</time></trkpt><trkpt lat="45.6929973" lon="13.73845"><ele>29.0</ele><time>2026-03-28T12:11:32.103Z</time></trkpt><trkpt lat="45.6931098" lon="13.7383048"><ele>25.0</ele><time>2026-03-28T12:11:33.088Z</time></trkpt><trkpt lat="45.6932134" lon="13.7381706"><ele>21.0</ele><time>2026-03-28T12:11:34.092Z</time></trkpt><trkpt lat="45.6933142" lon="13.7380304"><ele>17.0</ele><time>2026-03-28T12:11:35.089Z</time></trkpt><trkpt lat="45.6934152" lon="13.7378929"><ele>13.0</ele><time>2026-03-28T12:11:36.093Z</time></trkpt><trkpt lat="45.6935213" lon="13.7377523"><ele>13.25</ele><time>2026-03-28T12:11:37.09Z</time></trkpt><trkpt lat="45.6936301" lon="13.7376094"><ele>13.5</ele><time>2026-03-28T12:11:38.084Z</time></trkpt><trkpt lat="45.6937413" lon="13.7374672"><ele>13.75</ele><time>2026-03-28T12:11:39.097Z</time></trkpt><trkpt lat="45.6938462" lon="13.7373239"><ele>14.0</ele><time>2026-03-28T12:11:40.103Z</time></trkpt><trkpt lat="45.6939526" lon="13.7371767"><ele>14.0</ele><time>2026-03-28T12:11:41.098Z</time></trkpt><trkpt lat="45.6940656" lon="13.7370232"><ele>14.0</ele><time>2026-03-28T12:11:42.092Z</time></trkpt><trkpt lat="45.6941864" lon="13.7368655"><ele>14.0</ele><time>2026-03-28T12:11:43.102Z</time></trkpt><trkpt lat="45.6943108" lon="13.7367012"><ele>16.0</ele><time>2026-03-28T12:11:44.096Z</time></trkpt><trkpt lat="45.6944409" lon="13.7365373"><ele>18.0</ele><time>2026-03-28T12:11:45.085Z</time></trkpt><trkpt lat="45.6945696" lon="13.7363767"><ele>20.0</ele><time>2026-03-28T12:11:46.091Z</time></trkpt><trkpt lat="45.6946989" lon="13.7362078"><ele>15.666666666666668</ele><time>2026-03-28T12:11:47.096Z</time></trkpt><trkpt lat="45.6948268" lon="13.7360369"><ele>11.333333333333334</ele><time>2026-03-28T12:11:48.1Z</time></trkpt><trkpt lat="45.6949588" lon="13.7358614"><ele>7.0</ele><time>2026-03-28T12:11:49.092Z</time></trkpt><trkpt lat="45.6950876" lon="13.7356908"><ele>7.0</ele><time>2026-03-28T12:11:50.093Z</time></trkpt><trkpt lat="45.6952162" lon="13.7355146"><ele>7.0</ele><time>2026-03-28T12:11:51.089Z</time></trkpt><trkpt lat="45.6953354" lon="13.7353344"><ele>7.0</ele><time>2026-03-28T12:11:52.087Z</time></trkpt><trkpt lat="45.6954564" lon="13.7351548"><ele>9.666666666666668</ele><time>2026-03-28T12:11:53.095Z</time></trkpt><trkpt lat="45.6955754" lon="13.7349743"><ele>12.333333333333334</ele><time>2026-03-28T12:11:54.097Z</time></trkpt><trkpt lat="45.6956924" lon="13.7347963"><ele>15.0</ele><time>2026-03-28T12:11:55.099Z</time></trkpt><trkpt lat="45.6958092" lon="13.7346167"><ele>15.0</ele><time>2026-03-28T12:11:56.094Z</time></trkpt><trkpt lat="45.6959256" lon="13.7344368"><ele>15.0</ele><time>2026-03-28T12:11:57.093Z</time></trkpt><trkpt lat="45.6960398" lon="13.7342549"><ele>15.0</ele><time>2026-03-28T12:11:58.102Z</time></trkpt><trkpt lat="45.6961542" lon="13.7340719"><ele>15.0</ele><time>2026-03-28T12:11:59.091Z</time></trkpt><trkpt lat="45.696268" lon="13.7338815"><ele>15.0</ele><time>2026-03-28T12:12:00.094Z</time></trkpt><trkpt lat="45.6963829" lon="13.7336981"><ele>15.0</ele><time>2026-03-28T12:12:01.093Z</time></trkpt><trkpt lat="45.6964917" lon="13.7335079"><ele>15.0</ele><time>2026-03-28T12:12:02.094Z</time></trkpt><trkpt lat="45.6965893" lon="13.7333077"><ele>15.0</ele><time>2026-03-28T12:12:03.095Z</time></trkpt><trkpt lat="45.6966742" lon="13.733104"><ele>15.0</ele><time>2026-03-28T12:12:04.107Z</time></trkpt><trkpt lat="45.6967504" lon="13.7328986"><ele>12.0</ele><time>2026-03-28T12:12:05.092Z</time></trkpt><trkpt lat="45.6968169" lon="13.7326833"><ele>9.0</ele><time>2026-03-28T12:12:06.095Z</time></trkpt><trkpt lat="45.6968765" lon="13.7324586"><ele>6.0</ele><time>2026-03-28T12:12:07.094Z</time></trkpt><trkpt lat="45.6969287" lon="13.7322394"><ele>14.666666666666666</ele><time>2026-03-28T12:12:08.093Z</time></trkpt><trkpt lat="45.6969744" lon="13.7320309"><ele>23.333333333333332</ele><time>2026-03-28T12:12:09.096Z</time></trkpt><trkpt lat="45.6970206" lon="13.7318288"><ele>32.0</ele><time>2026-03-28T12:12:10.094Z</time></trkpt><trkpt lat="45.6970821" lon="13.7316258"><ele>32.0</ele><time>2026-03-28T12:12:11.099Z</time></trkpt><trkpt lat="45.6971584" lon="13.7314251"><ele>32.0</ele><time>2026-03-28T12:12:12.092Z</time></trkpt><trkpt lat="45.6972418" lon="13.7312213"><ele>32.0</ele><time>2026-03-28T12:12:13.09Z</time></trkpt><trkpt lat="45.697331" lon="13.7310153"><ele>28.0</ele><time>2026-03-28T12:12:14.095Z</time></trkpt><trkpt lat="45.6974262" lon="13.7308089"><ele>24.0</ele><time>2026-03-28T12:12:15.088Z</time></trkpt><trkpt lat="45.6975259" lon="13.7306034"><ele>20.0</ele><time>2026-03-28T12:12:16.089Z</time></trkpt><trkpt lat="45.6976255" lon="13.7303929"><ele>16.0</ele><time>2026-03-28T12:12:17.09Z</time></trkpt><trkpt lat="45.6977248" lon="13.7301819"><ele>12.0</ele><time>2026-03-28T12:12:18.085Z</time></trkpt><trkpt lat="45.6978265" lon="13.7299726"><ele>8.0</ele><time>2026-03-28T12:12:19.091Z</time></trkpt><trkpt lat="45.6979263" lon="13.7297579"><ele>11.0</ele><time>2026-03-28T12:12:20.089Z</time></trkpt><trkpt lat="45.6980277" lon="13.729542"><ele>14.0</ele><time>2026-03-28T12:12:21.089Z</time></trkpt><trkpt lat="45.6981295" lon="13.7293188"><ele>17.0</ele><time>2026-03-28T12:12:22.086Z</time></trkpt><trkpt lat="45.6982276" lon="13.7290946"><ele>17.0</ele><time>2026-03-28T12:12:23.09Z</time></trkpt><trkpt lat="45.6983234" lon="13.7288688"><ele>17.0</ele><time>2026-03-28T12:12:24.097Z</time></trkpt><trkpt lat="45.6984182" lon="13.7286355"><ele>17.0</ele><time>2026-03-28T12:12:25.087Z</time></trkpt><trkpt lat="45.6985174" lon="13.7284001"><ele>19.666666666666668</ele><time>2026-03-28T12:12:26.09Z</time></trkpt><trkpt lat="45.6986174" lon="13.7281627"><ele>22.333333333333336</ele><time>2026-03-28T12:12:27.089Z</time></trkpt><trkpt lat="45.6987168" lon="13.7279226"><ele>25.0</ele><time>2026-03-28T12:12:28.087Z</time></trkpt><trkpt lat="45.6988176" lon="13.7276808"><ele>25.0</ele><time>2026-03-28T12:12:29.089Z</time></trkpt><trkpt lat="45.6989182" lon="13.7274385"><ele>25.0</ele><time>2026-03-28T12:12:30.092Z</time></trkpt><trkpt lat="45.69902" lon="13.7271939"><ele>25.0</ele><time>2026-03-28T12:12:31.104Z</time></trkpt><trkpt lat="45.6991212" lon="13.7269497"><ele>20.333333333333336</ele><time>2026-03-28T12:12:32.082Z</time></trkpt><trkpt lat="45.6992243" lon="13.7267138"><ele>15.666666666666668</ele><time>2026-03-28T12:12:33.085Z</time></trkpt><trkpt lat="45.6993268" lon="13.7264784"><ele>11.0</ele><time>2026-03-28T12:12:34.089Z</time></trkpt><trkpt lat="45.6994331" lon="13.7262445"><ele>17.333333333333332</ele><time>2026-03-28T12:12:35.084Z</time></trkpt><trkpt lat="45.6995412" lon="13.7260115"><ele>23.666666666666668</ele><time>2026-03-28T12:12:36.087Z</time></trkpt><trkpt lat="45.6996533" lon="13.725768"><ele>30.0</ele><time>2026-03-28T12:12:37.086Z</time></trkpt><trkpt lat="45.6997623" lon="13.7255231"><ele>30.0</ele><time>2026-03-28T12:12:38.083Z</time></trkpt><trkpt lat="45.6998729" lon="13.7252795"><ele>30.0</ele><time>2026-03-28T12:12:39.091Z</time></trkpt><trkpt lat="45.6999836" lon="13.7250361"><ele>30.0</ele><time>2026-03-28T12:12:40.087Z</time></trkpt><trkpt lat="45.7000964" lon="13.7247944"><ele>31.333333333333336</ele><time>2026-03-28T12:12:41.088Z</time></trkpt><trkpt lat="45.7002064" lon="13.724548"><ele>32.66666666666667</ele><time>2026-03-28T12:12:42.086Z</time></trkpt><trkpt lat="45.7003179" lon="13.7242996"><ele>34.0</ele><time>2026-03-28T12:12:43.084Z</time></trkpt><trkpt lat="45.7004288" lon="13.7240517"><ele>34.0</ele><time>2026-03-28T12:12:44.089Z</time></trkpt><trkpt lat="45.7005396" lon="13.7238085"><ele>34.0</ele><time>2026-03-28T12:12:45.087Z</time></trkpt><trkpt lat="45.7006501" lon="13.7235622"><ele>34.0</ele><time>2026-03-28T12:12:46.083Z</time></trkpt><trkpt lat="45.7007548" lon="13.7233265"><ele>29.333333333333336</ele><time>2026-03-28T12:12:47.091Z</time></trkpt><trkpt lat="45.7008494" lon="13.7231003"><ele>24.666666666666668</ele><time>2026-03-28T12:12:48.085Z</time></trkpt><trkpt lat="45.7009439" lon="13.7228804"><ele>20.0</ele><time>2026-03-28T12:12:49.091Z</time></trkpt><trkpt lat="45.7010395" lon="13.7226731"><ele>29.0</ele><time>2026-03-28T12:12:50.087Z</time></trkpt><trkpt lat="45.7011326" lon="13.7224758"><ele>38.0</ele><time>2026-03-28T12:12:51.09Z</time></trkpt><trkpt lat="45.7012269" lon="13.7222704"><ele>47.0</ele><time>2026-03-28T12:12:52.079Z</time></trkpt><trkpt lat="45.7013193" lon="13.7220555"><ele>41.666666666666664</ele><time>2026-03-28T12:12:53.077Z</time></trkpt><trkpt lat="45.7014091" lon="13.7218381"><ele>36.333333333333336</ele><time>2026-03-28T12:12:54.093Z</time></trkpt><trkpt lat="45.7015015" lon="13.7216142"><ele>31.0</ele><time>2026-03-28T12:12:55.086Z</time></trkpt><trkpt lat="45.7015913" lon="13.7213869"><ele>31.0</ele><time>2026-03-28T12:12:56.091Z</time></trkpt><trkpt lat="45.7016731" lon="13.7211467"><ele>31.0</ele><time>2026-03-28T12:12:57.083Z</time></trkpt><trkpt lat="45.7017513" lon="13.7209021"><ele>31.0</ele><time>2026-03-28T12:12:58.083Z</time></trkpt><trkpt lat="45.7018232" lon="13.7206538"><ele>32.66666666666667</ele><time>2026-03-28T12:12:59.085Z</time></trkpt><trkpt lat="45.7018879" lon="13.7203958"><ele>34.333333333333336</ele><time>2026-03-28T12:13:00.089Z</time></trkpt><trkpt lat="45.7019472" lon="13.7201283"><ele>36.0</ele><time>2026-03-28T12:13:01.091Z</time></trkpt><trkpt lat="45.7020122" lon="13.7198623"><ele>36.0</ele><time>2026-03-28T12:13:02.088Z</time></trkpt><trkpt lat="45.7020794" lon="13.7196066"><ele>36.0</ele><time>2026-03-28T12:13:03.091Z</time></trkpt><trkpt lat="45.7021553" lon="13.7193544"><ele>36.0</ele><time>2026-03-28T12:13:04.102Z</time></trkpt><trkpt lat="45.7022413" lon="13.7191091"><ele>34.666666666666664</ele><time>2026-03-28T12:13:05.097Z</time></trkpt><trkpt lat="45.7023375" lon="13.7188691"><ele>33.33333333333333</ele><time>2026-03-28T12:13:06.098Z</time></trkpt><trkpt lat="45.7024529" lon="13.7186436"><ele>32.0</ele><time>2026-03-28T12:13:07.093Z</time></trkpt><trkpt lat="45.7025864" lon="13.7184303"><ele>31.333333333333332</ele><time>2026-03-28T12:13:08.09Z</time></trkpt><trkpt lat="45.7027307" lon="13.7182315"><ele>30.666666666666664</ele><time>2026-03-28T12:13:09.093Z</time></trkpt><trkpt lat="45.7028854" lon="13.7180565"><ele>30.0</ele><time>2026-03-28T12:13:10.09Z</time></trkpt><trkpt lat="45.7030421" lon="13.7178979"><ele>31.666666666666664</ele><time>2026-03-28T12:13:11.094Z</time></trkpt><trkpt lat="45.7031982" lon="13.7177527"><ele>33.33333333333333</ele><time>2026-03-28T12:13:12.106Z</time></trkpt><trkpt lat="45.7033524" lon="13.7176253"><ele>35.0</ele><time>2026-03-28T12:13:13.097Z</time></trkpt><trkpt lat="45.7035122" lon="13.7175098"><ele>39.0</ele><time>2026-03-28T12:13:14.09Z</time></trkpt><trkpt lat="45.7036759" lon="13.7174124"><ele>43.0</ele><time>2026-03-28T12:13:15.102Z</time></trkpt><trkpt lat="45.7038398" lon="13.7173157"><ele>47.0</ele><time>2026-03-28T12:13:16.093Z</time></trkpt><trkpt lat="45.7040028" lon="13.7172264"><ele>47.0</ele><time>2026-03-28T12:13:17.085Z</time></trkpt><trkpt lat="45.7041652" lon="13.7171263"><ele>47.0</ele><time>2026-03-28T12:13:18.076Z</time></trkpt><trkpt lat="45.7043289" lon="13.7170314"><ele>47.0</ele><time>2026-03-28T12:13:19.076Z</time></trkpt><trkpt lat="45.7045037" lon="13.716942"><ele>49.33333333333333</ele><time>2026-03-28T12:13:20.077Z</time></trkpt><trkpt lat="45.7046771" lon="13.7168359"><ele>51.666666666666664</ele><time>2026-03-28T12:13:21.077Z</time></trkpt><trkpt lat="45.7048526" lon="13.7167619"><ele>54.0</ele><time>2026-03-28T12:13:22.085Z</time></trkpt><trkpt lat="45.7050317" lon="13.716691"><ele>54.0</ele><time>2026-03-28T12:13:23.085Z</time></trkpt><trkpt lat="45.705193" lon="13.7165937"><ele>54.0</ele><time>2026-03-28T12:13:24.087Z</time></trkpt><trkpt lat="45.7053685" lon="13.7165231"><ele>54.0</ele><time>2026-03-28T12:13:25.078Z</time></trkpt><trkpt lat="45.7055411" lon="13.7164603"><ele>52.5</ele><time>2026-03-28T12:13:26.072Z</time></trkpt><trkpt lat="45.7057078" lon="13.7163965"><ele>51.0</ele><time>2026-03-28T12:13:27.071Z</time></trkpt><trkpt lat="45.7062206" lon="13.7162417"><ele>51.0</ele><time>2026-03-28T12:13:30.076Z</time></trkpt><trkpt lat="45.7063786" lon="13.7161863"><ele>51.0</ele><time>2026-03-28T12:13:31.072Z</time></trkpt><trkpt lat="45.7065611" lon="13.7161421"><ele>51.0</ele><time>2026-03-28T12:13:32.081Z</time></trkpt><trkpt lat="45.7067327" lon="13.7160991"><ele>48.0</ele><time>2026-03-28T12:13:33.088Z</time></trkpt><trkpt lat="45.7069056" lon="13.7160517"><ele>45.0</ele><time>2026-03-28T12:13:34.081Z</time></trkpt><trkpt lat="45.7070779" lon="13.7159953"><ele>42.0</ele><time>2026-03-28T12:13:35.093Z</time></trkpt><trkpt lat="45.7072549" lon="13.715942"><ele>42.333333333333336</ele><time>2026-03-28T12:13:36.086Z</time></trkpt><trkpt lat="45.7074307" lon="13.7158822"><ele>42.66666666666667</ele><time>2026-03-28T12:13:37.087Z</time></trkpt><trkpt lat="45.7076027" lon="13.7158146"><ele>43.0</ele><time>2026-03-28T12:13:38.091Z</time></trkpt><trkpt lat="45.7077821" lon="13.7157548"><ele>43.0</ele><time>2026-03-28T12:13:39.091Z</time></trkpt><trkpt lat="45.7079623" lon="13.7156976"><ele>43.0</ele><time>2026-03-28T12:13:40.09Z</time></trkpt><trkpt lat="45.7081436" lon="13.7156381"><ele>43.0</ele><time>2026-03-28T12:13:41.081Z</time></trkpt><trkpt lat="45.708326" lon="13.715581"><ele>43.0</ele><time>2026-03-28T12:13:42.083Z</time></trkpt><trkpt lat="45.7085082" lon="13.7155247"><ele>43.0</ele><time>2026-03-28T12:13:43.082Z</time></trkpt><trkpt lat="45.7086902" lon="13.715466"><ele>43.0</ele><time>2026-03-28T12:13:44.086Z</time></trkpt><trkpt lat="45.7088729" lon="13.7154044"><ele>47.0</ele><time>2026-03-28T12:13:45.087Z</time></trkpt><trkpt lat="45.709055" lon="13.7153383"><ele>51.0</ele><time>2026-03-28T12:13:46.093Z</time></trkpt><trkpt lat="45.7092365" lon="13.7152678"><ele>55.0</ele><time>2026-03-28T12:13:47.083Z</time></trkpt><trkpt lat="45.7094121" lon="13.7151797"><ele>55.33333333333333</ele><time>2026-03-28T12:13:48.086Z</time></trkpt><trkpt lat="45.7095861" lon="13.7150792"><ele>55.66666666666667</ele><time>2026-03-28T12:13:49.085Z</time></trkpt><trkpt lat="45.7097492" lon="13.7149513"><ele>56.0</ele><time>2026-03-28T12:13:50.084Z</time></trkpt><trkpt lat="45.7099167" lon="13.7148136"><ele>56.0</ele><time>2026-03-28T12:13:51.079Z</time></trkpt><trkpt lat="45.7100787" lon="13.7146642"><ele>56.0</ele><time>2026-03-28T12:13:52.088Z</time></trkpt><trkpt lat="45.7102323" lon="13.7144929"><ele>56.0</ele><time>2026-03-28T12:13:53.08Z</time></trkpt><trkpt lat="45.710375" lon="13.714303"><ele>59.66666666666667</ele><time>2026-03-28T12:13:54.087Z</time></trkpt><trkpt lat="45.7105106" lon="13.7141077"><ele>63.33333333333333</ele><time>2026-03-28T12:13:55.086Z</time></trkpt><trkpt lat="45.7106411" lon="13.713903"><ele>67.0</ele><time>2026-03-28T12:13:56.086Z</time></trkpt><trkpt lat="45.7107672" lon="13.7136939"><ele>69.66666666666666</ele><time>2026-03-28T12:13:57.08Z</time></trkpt><trkpt lat="45.7108881" lon="13.7134739"><ele>72.33333333333333</ele><time>2026-03-28T12:13:58.093Z</time></trkpt><trkpt lat="45.711002" lon="13.7132533"><ele>75.0</ele><time>2026-03-28T12:13:59.074Z</time></trkpt><trkpt lat="45.7111188" lon="13.7130348"><ele>75.0</ele><time>2026-03-28T12:14:00.079Z</time></trkpt><trkpt lat="45.7112402" lon="13.7128161"><ele>75.0</ele><time>2026-03-28T12:14:01.078Z</time></trkpt><trkpt lat="45.7113606" lon="13.7125976"><ele>75.0</ele><time>2026-03-28T12:14:02.081Z</time></trkpt><trkpt lat="45.7114879" lon="13.7123851"><ele>71.33333333333333</ele><time>2026-03-28T12:14:03.085Z</time></trkpt><trkpt lat="45.71161" lon="13.7121737"><ele>67.66666666666666</ele><time>2026-03-28T12:14:04.077Z</time></trkpt><trkpt lat="45.7117304" lon="13.711964"><ele>64.0</ele><time>2026-03-28T12:14:05.077Z</time></trkpt><trkpt lat="45.7118496" lon="13.7117484"><ele>67.66666666666666</ele><time>2026-03-28T12:14:06.08Z</time></trkpt><trkpt lat="45.7119679" lon="13.7115381"><ele>71.33333333333333</ele><time>2026-03-28T12:14:07.079Z</time></trkpt><trkpt lat="45.7120895" lon="13.7113318"><ele>75.0</ele><time>2026-03-28T12:14:08.082Z</time></trkpt><trkpt lat="45.7122113" lon="13.7111243"><ele>70.0</ele><time>2026-03-28T12:14:09.076Z</time></trkpt><trkpt lat="45.7123246" lon="13.710911"><ele>65.0</ele><time>2026-03-28T12:14:10.078Z</time></trkpt><trkpt lat="45.7124401" lon="13.710699"><ele>60.0</ele><time>2026-03-28T12:14:11.078Z</time></trkpt><trkpt lat="45.7125548" lon="13.7104846"><ele>60.0</ele><time>2026-03-28T12:14:12.074Z</time></trkpt><trkpt lat="45.7126727" lon="13.71027"><ele>60.0</ele><time>2026-03-28T12:14:13.077Z</time></trkpt><trkpt lat="45.7127958" lon="13.7100598"><ele>60.0</ele><time>2026-03-28T12:14:14.079Z</time></trkpt><trkpt lat="45.7129241" lon="13.709862"><ele>57.0</ele><time>2026-03-28T12:14:15.079Z</time></trkpt><trkpt lat="45.7130591" lon="13.7096682"><ele>54.0</ele><time>2026-03-28T12:14:16.077Z</time></trkpt><trkpt lat="45.7131972" lon="13.7094788"><ele>51.0</ele><time>2026-03-28T12:14:17.077Z</time></trkpt><trkpt lat="45.7133345" lon="13.7092891"><ele>51.0</ele><time>2026-03-28T12:14:18.081Z</time></trkpt><trkpt lat="45.7134737" lon="13.7091024"><ele>51.0</ele><time>2026-03-28T12:14:19.079Z</time></trkpt><trkpt lat="45.7136055" lon="13.7089183"><ele>51.0</ele><time>2026-03-28T12:14:20.075Z</time></trkpt><trkpt lat="45.7137405" lon="13.7087324"><ele>55.66666666666667</ele><time>2026-03-28T12:14:21.084Z</time></trkpt><trkpt lat="45.7138758" lon="13.70854"><ele>60.333333333333336</ele><time>2026-03-28T12:14:22.08Z</time></trkpt><trkpt lat="45.7140113" lon="13.7083461"><ele>65.0</ele><time>2026-03-28T12:14:23.074Z</time></trkpt><trkpt lat="45.7141513" lon="13.7081497"><ele>65.0</ele><time>2026-03-28T12:14:24.08Z</time></trkpt><trkpt lat="45.7142883" lon="13.7079523"><ele>65.0</ele><time>2026-03-28T12:14:25.077Z</time></trkpt><trkpt lat="45.7144291" lon="13.7077546"><ele>65.0</ele><time>2026-03-28T12:14:26.077Z</time></trkpt><trkpt lat="45.7145704" lon="13.707551"><ele>67.66666666666667</ele><time>2026-03-28T12:14:27.075Z</time></trkpt><trkpt lat="45.7147091" lon="13.7073436"><ele>70.33333333333333</ele><time>2026-03-28T12:14:28.077Z</time></trkpt><trkpt lat="45.7148489" lon="13.7071452"><ele>73.0</ele><time>2026-03-28T12:14:29.081Z</time></trkpt><trkpt lat="45.7149919" lon="13.7069451"><ele>76.33333333333333</ele><time>2026-03-28T12:14:30.076Z</time></trkpt><trkpt lat="45.7151344" lon="13.7067414"><ele>79.66666666666667</ele><time>2026-03-28T12:14:31.078Z</time></trkpt><trkpt lat="45.7152795" lon="13.7065488"><ele>83.0</ele><time>2026-03-28T12:14:32.077Z</time></trkpt><trkpt lat="45.7154251" lon="13.7063684"><ele>83.0</ele><time>2026-03-28T12:14:33.079Z</time></trkpt><trkpt lat="45.7155781" lon="13.706201"><ele>83.0</ele><time>2026-03-28T12:14:34.079Z</time></trkpt><trkpt lat="45.715743" lon="13.706055"><ele>83.0</ele><time>2026-03-28T12:14:35.08Z</time></trkpt><trkpt lat="45.7159045" lon="13.7059082"><ele>85.33333333333334</ele><time>2026-03-28T12:14:36.088Z</time></trkpt><trkpt lat="45.7160552" lon="13.7057402"><ele>87.66666666666667</ele><time>2026-03-28T12:14:37.081Z</time></trkpt><trkpt lat="45.7161828" lon="13.7055405"><ele>90.0</ele><time>2026-03-28T12:14:38.08Z</time></trkpt><trkpt lat="45.7163003" lon="13.7053164"><ele>84.33333333333333</ele><time>2026-03-28T12:14:39.088Z</time></trkpt><trkpt lat="45.7164092" lon="13.7050791"><ele>78.66666666666666</ele><time>2026-03-28T12:14:40.084Z</time></trkpt><trkpt lat="45.716515" lon="13.7048356"><ele>73.0</ele><time>2026-03-28T12:14:41.084Z</time></trkpt><trkpt lat="45.7166254" lon="13.7045906"><ele>78.66666666666666</ele><time>2026-03-28T12:14:42.086Z</time></trkpt><trkpt lat="45.7167408" lon="13.704349"><ele>84.33333333333333</ele><time>2026-03-28T12:14:43.082Z</time></trkpt><trkpt lat="45.7168681" lon="13.7041205"><ele>90.0</ele><time>2026-03-28T12:14:44.084Z</time></trkpt><trkpt lat="45.7170036" lon="13.7038976"><ele>90.0</ele><time>2026-03-28T12:14:45.082Z</time></trkpt><trkpt lat="45.7171417" lon="13.703679"><ele>90.0</ele><time>2026-03-28T12:14:46.082Z</time></trkpt><trkpt lat="45.7172783" lon="13.7034628"><ele>90.0</ele><time>2026-03-28T12:14:47.087Z</time></trkpt><trkpt lat="45.7174158" lon="13.7032481"><ele>86.0</ele><time>2026-03-28T12:14:48.08Z</time></trkpt><trkpt lat="45.7175554" lon="13.7030368"><ele>82.0</ele><time>2026-03-28T12:14:49.083Z</time></trkpt><trkpt lat="45.7176989" lon="13.7028281"><ele>78.0</ele><time>2026-03-28T12:14:50.083Z</time></trkpt><trkpt lat="45.717841" lon="13.7026221"><ele>78.0</ele><time>2026-03-28T12:14:51.082Z</time></trkpt><trkpt lat="45.717989" lon="13.7024287"><ele>78.0</ele><time>2026-03-28T12:14:52.085Z</time></trkpt><trkpt lat="45.7181447" lon="13.7022536"><ele>78.0</ele><time>2026-03-28T12:14:53.093Z</time></trkpt><trkpt lat="45.7183025" lon="13.7020803"><ele>79.0</ele><time>2026-03-28T12:14:54.08Z</time></trkpt><trkpt lat="45.7184571" lon="13.7019023"><ele>80.0</ele><time>2026-03-28T12:14:55.082Z</time></trkpt><trkpt lat="45.7186058" lon="13.7017084"><ele>81.0</ele><time>2026-03-28T12:14:56.074Z</time></trkpt><trkpt lat="45.7187451" lon="13.7014972"><ele>81.0</ele><time>2026-03-28T12:14:57.081Z</time></trkpt><trkpt lat="45.7188787" lon="13.7012765"><ele>81.0</ele><time>2026-03-28T12:14:58.092Z</time></trkpt><trkpt lat="45.7190081" lon="13.7010472"><ele>81.0</ele><time>2026-03-28T12:14:59.092Z</time></trkpt><trkpt lat="45.7191323" lon="13.7008083"><ele>77.66666666666667</ele><time>2026-03-28T12:15:00.102Z</time></trkpt><trkpt lat="45.7192544" lon="13.7005713"><ele>74.33333333333334</ele><time>2026-03-28T12:15:01.085Z</time></trkpt><trkpt lat="45.7193813" lon="13.7003476"><ele>71.0</ele><time>2026-03-28T12:15:02.099Z</time></trkpt><trkpt lat="45.7195201" lon="13.7001405"><ele>71.0</ele><time>2026-03-28T12:15:03.092Z</time></trkpt><trkpt lat="45.7196661" lon="13.6999472"><ele>71.0</ele><time>2026-03-28T12:15:04.089Z</time></trkpt><trkpt lat="45.7198159" lon="13.6997618"><ele>71.0</ele><time>2026-03-28T12:15:05.094Z</time></trkpt><trkpt lat="45.7199645" lon="13.6995737"><ele>72.66666666666667</ele><time>2026-03-28T12:15:06.086Z</time></trkpt><trkpt lat="45.7201124" lon="13.6993844"><ele>74.33333333333333</ele><time>2026-03-28T12:15:07.093Z</time></trkpt><trkpt lat="45.7202622" lon="13.6991945"><ele>76.0</ele><time>2026-03-28T12:15:08.087Z</time></trkpt><trkpt lat="45.7204062" lon="13.699003"><ele>76.0</ele><time>2026-03-28T12:15:09.085Z</time></trkpt><trkpt lat="45.7205502" lon="13.6988113"><ele>76.0</ele><time>2026-03-28T12:15:10.088Z</time></trkpt><trkpt lat="45.720694" lon="13.698618"><ele>76.0</ele><time>2026-03-28T12:15:11.095Z</time></trkpt><trkpt lat="45.7208395" lon="13.6984294"><ele>81.0</ele><time>2026-03-28T12:15:12.083Z</time></trkpt><trkpt lat="45.7209876" lon="13.6982372"><ele>86.0</ele><time>2026-03-28T12:15:13.098Z</time></trkpt><trkpt lat="45.7211333" lon="13.6980482"><ele>91.0</ele><time>2026-03-28T12:15:14.09Z</time></trkpt><trkpt lat="45.7212818" lon="13.6978582"><ele>83.0</ele><time>2026-03-28T12:15:15.086Z</time></trkpt><trkpt lat="45.7214286" lon="13.697672"><ele>75.0</ele><time>2026-03-28T12:15:16.085Z</time></trkpt><trkpt lat="45.7215737" lon="13.6974876"><ele>67.0</ele><time>2026-03-28T12:15:17.084Z</time></trkpt><trkpt lat="45.7217207" lon="13.6973017"><ele>67.0</ele><time>2026-03-28T12:15:18.102Z</time></trkpt><trkpt lat="45.7218674" lon="13.6971164"><ele>67.0</ele><time>2026-03-28T12:15:19.075Z</time></trkpt><trkpt lat="45.7220142" lon="13.6969301"><ele>67.0</ele><time>2026-03-28T12:15:20.08Z</time></trkpt><trkpt lat="45.7221601" lon="13.6967427"><ele>70.0</ele><time>2026-03-28T12:15:21.087Z</time></trkpt><trkpt lat="45.7223086" lon="13.6965557"><ele>73.0</ele><time>2026-03-28T12:15:22.088Z</time></trkpt><trkpt lat="45.7224575" lon="13.6963713"><ele>76.0</ele><time>2026-03-28T12:15:23.093Z</time></trkpt><trkpt lat="45.7226021" lon="13.6961816"><ele>76.0</ele><time>2026-03-28T12:15:24.088Z</time></trkpt><trkpt lat="45.7227478" lon="13.6959901"><ele>76.0</ele><time>2026-03-28T12:15:25.089Z</time></trkpt><trkpt lat="45.7228922" lon="13.6957945"><ele>76.0</ele><time>2026-03-28T12:15:26.086Z</time></trkpt><trkpt lat="45.7230377" lon="13.6955974"><ele>76.0</ele><time>2026-03-28T12:15:27.085Z</time></trkpt><trkpt lat="45.72318" lon="13.6953963"><ele>76.0</ele><time>2026-03-28T12:15:28.083Z</time></trkpt><trkpt lat="45.7233255" lon="13.6951987"><ele>76.0</ele><time>2026-03-28T12:15:29.09Z</time></trkpt><trkpt lat="45.7234704" lon="13.6950137"><ele>77.66666666666666</ele><time>2026-03-28T12:15:30.094Z</time></trkpt><trkpt lat="45.7236163" lon="13.6948539"><ele>79.33333333333333</ele><time>2026-03-28T12:15:31.091Z</time></trkpt><trkpt lat="45.7237579" lon="13.6947201"><ele>81.0</ele><time>2026-03-28T12:15:32.092Z</time></trkpt><trkpt lat="45.723909" lon="13.6946065"><ele>81.0</ele><time>2026-03-28T12:15:33.089Z</time></trkpt><trkpt lat="45.7240612" lon="13.6945043"><ele>81.0</ele><time>2026-03-28T12:15:34.097Z</time></trkpt><trkpt lat="45.7242145" lon="13.6943994"><ele>81.0</ele><time>2026-03-28T12:15:35.093Z</time></trkpt><trkpt lat="45.7243706" lon="13.6942986"><ele>77.0</ele><time>2026-03-28T12:15:36.088Z</time></trkpt><trkpt lat="45.724526" lon="13.6942049"><ele>73.0</ele><time>2026-03-28T12:15:37.089Z</time></trkpt><trkpt lat="45.7246838" lon="13.6941251"><ele>69.0</ele><time>2026-03-28T12:15:38.089Z</time></trkpt><trkpt lat="45.7248418" lon="13.6940506"><ele>69.0</ele><time>2026-03-28T12:15:39.085Z</time></trkpt><trkpt lat="45.7250046" lon="13.693986"><ele>69.0</ele><time>2026-03-28T12:15:40.087Z</time></trkpt><trkpt lat="45.7251727" lon="13.6939313"><ele>69.0</ele><time>2026-03-28T12:15:41.089Z</time></trkpt><trkpt lat="45.7253403" lon="13.693862"><ele>66.66666666666667</ele><time>2026-03-28T12:15:42.087Z</time></trkpt><trkpt lat="45.7254966" lon="13.6937686"><ele>64.33333333333334</ele><time>2026-03-28T12:15:43.102Z</time></trkpt><trkpt lat="45.7256349" lon="13.6936411"><ele>62.0</ele><time>2026-03-28T12:15:44.085Z</time></trkpt><trkpt lat="45.7257664" lon="13.6934919"><ele>62.0</ele><time>2026-03-28T12:15:45.083Z</time></trkpt><trkpt lat="45.7258924" lon="13.6933312"><ele>62.0</ele><time>2026-03-28T12:15:46.084Z</time></trkpt><trkpt lat="45.7260134" lon="13.6931598"><ele>62.0</ele><time>2026-03-28T12:15:47.084Z</time></trkpt><trkpt lat="45.7261306" lon="13.6929794"><ele>64.66666666666667</ele><time>2026-03-28T12:15:48.089Z</time></trkpt><trkpt lat="45.7262497" lon="13.6928027"><ele>67.33333333333333</ele><time>2026-03-28T12:15:49.082Z</time></trkpt><trkpt lat="45.7263647" lon="13.6926185"><ele>70.0</ele><time>2026-03-28T12:15:50.085Z</time></trkpt><trkpt lat="45.7264832" lon="13.6924384"><ele>70.0</ele><time>2026-03-28T12:15:51.088Z</time></trkpt><trkpt lat="45.7266074" lon="13.6922708"><ele>70.0</ele><time>2026-03-28T12:15:52.086Z</time></trkpt><trkpt lat="45.7267413" lon="13.6921145"><ele>70.0</ele><time>2026-03-28T12:15:53.085Z</time></trkpt><trkpt lat="45.7268834" lon="13.6919793"><ele>70.33333333333333</ele><time>2026-03-28T12:15:54.084Z</time></trkpt><trkpt lat="45.7270261" lon="13.6918522"><ele>70.66666666666667</ele><time>2026-03-28T12:15:55.087Z</time></trkpt><trkpt lat="45.7271707" lon="13.6917305"><ele>71.0</ele><time>2026-03-28T12:15:56.097Z</time></trkpt><trkpt lat="45.7273163" lon="13.6916056"><ele>71.0</ele><time>2026-03-28T12:15:57.085Z</time></trkpt><trkpt lat="45.7274581" lon="13.6914689"><ele>71.0</ele><time>2026-03-28T12:15:58.081Z</time></trkpt><trkpt lat="45.7275908" lon="13.6913199"><ele>71.0</ele><time>2026-03-28T12:15:59.09Z</time></trkpt><trkpt lat="45.7277192" lon="13.6911614"><ele>73.66666666666667</ele><time>2026-03-28T12:16:00.088Z</time></trkpt><trkpt lat="45.7278444" lon="13.6909846"><ele>76.33333333333333</ele><time>2026-03-28T12:16:01.095Z</time></trkpt><trkpt lat="45.7279656" lon="13.6908067"><ele>79.0</ele><time>2026-03-28T12:16:02.085Z</time></trkpt><trkpt lat="45.7280886" lon="13.6906327"><ele>79.0</ele><time>2026-03-28T12:16:03.082Z</time></trkpt><trkpt lat="45.7282128" lon="13.690456"><ele>79.0</ele><time>2026-03-28T12:16:04.082Z</time></trkpt><trkpt lat="45.7283369" lon="13.6902894"><ele>79.0</ele><time>2026-03-28T12:16:05.088Z</time></trkpt><trkpt lat="45.7284624" lon="13.6901272"><ele>82.0</ele><time>2026-03-28T12:16:06.077Z</time></trkpt><trkpt lat="45.7285857" lon="13.6899653"><ele>85.0</ele><time>2026-03-28T12:16:07.08Z</time></trkpt><trkpt lat="45.7287136" lon="13.6898071"><ele>88.0</ele><time>2026-03-28T12:16:08.084Z</time></trkpt><trkpt lat="45.7288431" lon="13.6896558"><ele>88.0</ele><time>2026-03-28T12:16:09.081Z</time></trkpt><trkpt lat="45.7289742" lon="13.6895067"><ele>88.0</ele><time>2026-03-28T12:16:10.085Z</time></trkpt><trkpt lat="45.7291099" lon="13.6893585"><ele>88.0</ele><time>2026-03-28T12:16:11.082Z</time></trkpt><trkpt lat="45.7292365" lon="13.6891905"><ele>89.33333333333333</ele><time>2026-03-28T12:16:12.091Z</time></trkpt><trkpt lat="45.7293513" lon="13.6890149"><ele>90.66666666666667</ele><time>2026-03-28T12:16:13.09Z</time></trkpt><trkpt lat="45.7294524" lon="13.6888191"><ele>92.0</ele><time>2026-03-28T12:16:14.084Z</time></trkpt><trkpt lat="45.7295496" lon="13.6886105"><ele>84.66666666666667</ele><time>2026-03-28T12:16:15.088Z</time></trkpt><trkpt lat="45.7296454" lon="13.6884074"><ele>77.33333333333333</ele><time>2026-03-28T12:16:16.087Z</time></trkpt><trkpt lat="45.7297514" lon="13.6882108"><ele>70.0</ele><time>2026-03-28T12:16:17.104Z</time></trkpt><trkpt lat="45.7298658" lon="13.688029"><ele>70.0</ele><time>2026-03-28T12:16:18.08Z</time></trkpt><trkpt lat="45.7299883" lon="13.6878629"><ele>70.0</ele><time>2026-03-28T12:16:19.084Z</time></trkpt><trkpt lat="45.730116" lon="13.6877051"><ele>70.0</ele><time>2026-03-28T12:16:20.08Z</time></trkpt><trkpt lat="45.7302516" lon="13.687568"><ele>72.0</ele><time>2026-03-28T12:16:21.086Z</time></trkpt><trkpt lat="45.7303965" lon="13.6874353"><ele>74.0</ele><time>2026-03-28T12:16:22.092Z</time></trkpt><trkpt lat="45.7305405" lon="13.6873126"><ele>76.0</ele><time>2026-03-28T12:16:23.091Z</time></trkpt><trkpt lat="45.7306808" lon="13.6871774"><ele>76.0</ele><time>2026-03-28T12:16:24.086Z</time></trkpt><trkpt lat="45.7308106" lon="13.6870251"><ele>76.0</ele><time>2026-03-28T12:16:25.085Z</time></trkpt><trkpt lat="45.7309294" lon="13.6868495"><ele>76.0</ele><time>2026-03-28T12:16:26.085Z</time></trkpt><trkpt lat="45.7310369" lon="13.6866586"><ele>74.33333333333333</ele><time>2026-03-28T12:16:27.084Z</time></trkpt><trkpt lat="45.7311417" lon="13.6864614"><ele>72.66666666666667</ele><time>2026-03-28T12:16:28.096Z</time></trkpt><trkpt lat="45.73124" lon="13.6862577"><ele>71.0</ele><time>2026-03-28T12:16:29.087Z</time></trkpt><trkpt lat="45.7313407" lon="13.6860568"><ele>71.0</ele><time>2026-03-28T12:16:30.093Z</time></trkpt><trkpt lat="45.7314492" lon="13.6858681"><ele>71.0</ele><time>2026-03-28T12:16:31.098Z</time></trkpt><trkpt lat="45.7315671" lon="13.6856953"><ele>71.0</ele><time>2026-03-28T12:16:32.089Z</time></trkpt><trkpt lat="45.7316869" lon="13.6855257"><ele>71.0</ele><time>2026-03-28T12:16:33.087Z</time></trkpt><trkpt lat="45.7318085" lon="13.6853534"><ele>71.0</ele><time>2026-03-28T12:16:34.089Z</time></trkpt><trkpt lat="45.7319315" lon="13.6851837"><ele>71.0</ele><time>2026-03-28T12:16:35.092Z</time></trkpt><trkpt lat="45.7320523" lon="13.6850137"><ele>73.66666666666667</ele><time>2026-03-28T12:16:36.09Z</time></trkpt><trkpt lat="45.7321717" lon="13.6848405"><ele>76.33333333333333</ele><time>2026-03-28T12:16:37.089Z</time></trkpt><trkpt lat="45.732291" lon="13.6846674"><ele>79.0</ele><time>2026-03-28T12:16:38.086Z</time></trkpt><trkpt lat="45.7324123" lon="13.6844924"><ele>83.33333333333333</ele><time>2026-03-28T12:16:39.09Z</time></trkpt><trkpt lat="45.7325304" lon="13.6843172"><ele>87.66666666666667</ele><time>2026-03-28T12:16:40.099Z</time></trkpt><trkpt lat="45.7326551" lon="13.684144"><ele>92.0</ele><time>2026-03-28T12:16:41.086Z</time></trkpt><trkpt lat="45.7327783" lon="13.6839753"><ele>92.0</ele><time>2026-03-28T12:16:42.09Z</time></trkpt><trkpt lat="45.7329022" lon="13.683805"><ele>92.0</ele><time>2026-03-28T12:16:43.087Z</time></trkpt><trkpt lat="45.733028" lon="13.6836369"><ele>92.0</ele><time>2026-03-28T12:16:44.088Z</time></trkpt><trkpt lat="45.7331577" lon="13.6834711"><ele>93.66666666666667</ele><time>2026-03-28T12:16:45.089Z</time></trkpt><trkpt lat="45.7332926" lon="13.6833171"><ele>95.33333333333334</ele><time>2026-03-28T12:16:46.093Z</time></trkpt><trkpt lat="45.7334316" lon="13.6831721"><ele>97.0</ele><time>2026-03-28T12:16:47.096Z</time></trkpt><trkpt lat="45.7335739" lon="13.6830348"><ele>97.0</ele><time>2026-03-28T12:16:48.09Z</time></trkpt><trkpt lat="45.7337163" lon="13.6828993"><ele>97.0</ele><time>2026-03-28T12:16:49.087Z</time></trkpt><trkpt lat="45.733858" lon="13.6827704"><ele>97.0</ele><time>2026-03-28T12:16:50.084Z</time></trkpt><trkpt lat="45.7340022" lon="13.6826413"><ele>100.0</ele><time>2026-03-28T12:16:51.087Z</time></trkpt><trkpt lat="45.7341458" lon="13.6825103"><ele>103.0</ele><time>2026-03-28T12:16:52.091Z</time></trkpt><trkpt lat="45.7342885" lon="13.6823747"><ele>106.0</ele><time>2026-03-28T12:16:53.084Z</time></trkpt><trkpt lat="45.7344299" lon="13.6822392"><ele>106.0</ele><time>2026-03-28T12:16:54.094Z</time></trkpt><trkpt lat="45.734571" lon="13.6821007"><ele>106.0</ele><time>2026-03-28T12:16:55.085Z</time></trkpt><trkpt lat="45.7347132" lon="13.6819657"><ele>106.0</ele><time>2026-03-28T12:16:56.083Z</time></trkpt><trkpt lat="45.7348554" lon="13.6818283"><ele>109.33333333333334</ele><time>2026-03-28T12:16:57.087Z</time></trkpt><trkpt lat="45.7349932" lon="13.6816825"><ele>112.66666666666666</ele><time>2026-03-28T12:16:58.084Z</time></trkpt><trkpt lat="45.7351232" lon="13.6815261"><ele>116.0</ele><time>2026-03-28T12:16:59.08Z</time></trkpt><trkpt lat="45.7352502" lon="13.6813655"><ele>116.0</ele><time>2026-03-28T12:17:00.081Z</time></trkpt><trkpt lat="45.7353741" lon="13.6811974"><ele>116.0</ele><time>2026-03-28T12:17:01.075Z</time></trkpt><trkpt lat="45.7354913" lon="13.6810253"><ele>116.0</ele><time>2026-03-28T12:17:02.083Z</time></trkpt><trkpt lat="45.7356104" lon="13.6808495"><ele>106.66666666666666</ele><time>2026-03-28T12:17:03.081Z</time></trkpt><trkpt lat="45.7357298" lon="13.6806798"><ele>97.33333333333333</ele><time>2026-03-28T12:17:04.092Z</time></trkpt><trkpt lat="45.7358491" lon="13.6805117"><ele>88.0</ele><time>2026-03-28T12:17:05.083Z</time></trkpt><trkpt lat="45.7359714" lon="13.6803482"><ele>90.66666666666666</ele><time>2026-03-28T12:17:06.089Z</time></trkpt><trkpt lat="45.7360961" lon="13.6801936"><ele>93.33333333333333</ele><time>2026-03-28T12:17:07.081Z</time></trkpt><trkpt lat="45.7362258" lon="13.6800483"><ele>96.0</ele><time>2026-03-28T12:17:08.08Z</time></trkpt><trkpt lat="45.736362" lon="13.6799147"><ele>96.0</ele><time>2026-03-28T12:17:09.079Z</time></trkpt><trkpt lat="45.7364981" lon="13.679778"><ele>96.0</ele><time>2026-03-28T12:17:10.084Z</time></trkpt><trkpt lat="45.736633" lon="13.6796402"><ele>96.0</ele><time>2026-03-28T12:17:11.078Z</time></trkpt><trkpt lat="45.7367624" lon="13.6794915"><ele>99.66666666666666</ele><time>2026-03-28T12:17:12.098Z</time></trkpt><trkpt lat="45.7368814" lon="13.679323"><ele>103.33333333333333</ele><time>2026-03-28T12:17:13.082Z</time></trkpt><trkpt lat="45.7369904" lon="13.679139"><ele>107.0</ele><time>2026-03-28T12:17:14.078Z</time></trkpt><trkpt lat="45.737095" lon="13.6789481"><ele>107.0</ele><time>2026-03-28T12:17:15.076Z</time></trkpt><trkpt lat="45.7371984" lon="13.6787533"><ele>107.0</ele><time>2026-03-28T12:17:16.083Z</time></trkpt><trkpt lat="45.7373001" lon="13.6785553"><ele>107.0</ele><time>2026-03-28T12:17:17.083Z</time></trkpt><trkpt lat="45.7374075" lon="13.6783617"><ele>110.0</ele><time>2026-03-28T12:17:18.083Z</time></trkpt><trkpt lat="45.7375214" lon="13.678178"><ele>113.0</ele><time>2026-03-28T12:17:19.099Z</time></trkpt><trkpt lat="45.7376472" lon="13.6780052"><ele>116.0</ele><time>2026-03-28T12:17:20.083Z</time></trkpt><trkpt lat="45.7377801" lon="13.6778493"><ele>105.66666666666666</ele><time>2026-03-28T12:17:21.082Z</time></trkpt><trkpt lat="45.7379149" lon="13.6777043"><ele>95.33333333333333</ele><time>2026-03-28T12:17:22.086Z</time></trkpt><trkpt lat="45.738053" lon="13.6775638"><ele>85.0</ele><time>2026-03-28T12:17:23.089Z</time></trkpt><trkpt lat="45.7381868" lon="13.677422"><ele>85.0</ele><time>2026-03-28T12:17:24.085Z</time></trkpt><trkpt lat="45.7383252" lon="13.677278"><ele>85.0</ele><time>2026-03-28T12:17:25.075Z</time></trkpt><trkpt lat="45.7384603" lon="13.6771319"><ele>85.0</ele><time>2026-03-28T12:17:26.098Z</time></trkpt><trkpt lat="45.7385934" lon="13.6769793"><ele>88.0</ele><time>2026-03-28T12:17:27.087Z</time></trkpt><trkpt lat="45.7387258" lon="13.6768254"><ele>91.0</ele><time>2026-03-28T12:17:28.081Z</time></trkpt><trkpt lat="45.738852" lon="13.6766609"><ele>94.0</ele><time>2026-03-28T12:17:29.074Z</time></trkpt><trkpt lat="45.7389762" lon="13.67649"><ele>94.0</ele><time>2026-03-28T12:17:30.079Z</time></trkpt><trkpt lat="45.7390974" lon="13.6763155"><ele>94.0</ele><time>2026-03-28T12:17:31.076Z</time></trkpt><trkpt lat="45.7392169" lon="13.676133"><ele>94.0</ele><time>2026-03-28T12:17:32.079Z</time></trkpt><trkpt lat="45.7393316" lon="13.6759466"><ele>99.66666666666666</ele><time>2026-03-28T12:17:33.083Z</time></trkpt><trkpt lat="45.7394462" lon="13.6757626"><ele>105.33333333333333</ele><time>2026-03-28T12:17:34.083Z</time></trkpt><trkpt lat="45.7395639" lon="13.6755755"><ele>111.0</ele><time>2026-03-28T12:17:35.087Z</time></trkpt><trkpt lat="45.7396826" lon="13.6753886"><ele>103.0</ele><time>2026-03-28T12:17:36.078Z</time></trkpt><trkpt lat="45.7398017" lon="13.6752077"><ele>95.0</ele><time>2026-03-28T12:17:37.081Z</time></trkpt><trkpt lat="45.7399202" lon="13.6750227"><ele>87.0</ele><time>2026-03-28T12:17:38.086Z</time></trkpt><trkpt lat="45.740039" lon="13.6748385"><ele>87.0</ele><time>2026-03-28T12:17:39.087Z</time></trkpt><trkpt lat="45.7401558" lon="13.6746507"><ele>87.0</ele><time>2026-03-28T12:17:40.087Z</time></trkpt><trkpt lat="45.7402644" lon="13.6744512"><ele>87.0</ele><time>2026-03-28T12:17:41.09Z</time></trkpt><trkpt lat="45.7403642" lon="13.6742387"><ele>85.0</ele><time>2026-03-28T12:17:42.104Z</time></trkpt><trkpt lat="45.7404616" lon="13.6740217"><ele>83.0</ele><time>2026-03-28T12:17:43.086Z</time></trkpt><trkpt lat="45.7405602" lon="13.6737981"><ele>81.0</ele><time>2026-03-28T12:17:44.091Z</time></trkpt><trkpt lat="45.7406561" lon="13.6735802"><ele>81.0</ele><time>2026-03-28T12:17:45.087Z</time></trkpt><trkpt lat="45.7407524" lon="13.673366"><ele>81.0</ele><time>2026-03-28T12:17:46.09Z</time></trkpt><trkpt lat="45.7408482" lon="13.67315"><ele>81.0</ele><time>2026-03-28T12:17:47.093Z</time></trkpt><trkpt lat="45.7409439" lon="13.672934"><ele>74.0</ele><time>2026-03-28T12:17:48.092Z</time></trkpt><trkpt lat="45.7410373" lon="13.6727147"><ele>67.0</ele><time>2026-03-28T12:17:49.093Z</time></trkpt><trkpt lat="45.7411286" lon="13.6725002"><ele>60.0</ele><time>2026-03-28T12:17:50.095Z</time></trkpt><trkpt lat="45.7412201" lon="13.6722822"><ele>71.0</ele><time>2026-03-28T12:17:51.093Z</time></trkpt><trkpt lat="45.7413115" lon="13.6720639"><ele>82.0</ele><time>2026-03-28T12:17:52.095Z</time></trkpt><trkpt lat="45.7413969" lon="13.6718401"><ele>93.0</ele><time>2026-03-28T12:17:53.094Z</time></trkpt><trkpt lat="45.7414803" lon="13.6716197"><ele>93.0</ele><time>2026-03-28T12:17:54.092Z</time></trkpt><trkpt lat="45.7415586" lon="13.6713956"><ele>93.0</ele><time>2026-03-28T12:17:55.082Z</time></trkpt><trkpt lat="45.741641" lon="13.6711727"><ele>93.0</ele><time>2026-03-28T12:17:56.092Z</time></trkpt><trkpt lat="45.7417231" lon="13.6709506"><ele>86.66666666666667</ele><time>2026-03-28T12:17:57.096Z</time></trkpt><trkpt lat="45.7418053" lon="13.6707306"><ele>80.33333333333334</ele><time>2026-03-28T12:17:58.095Z</time></trkpt><trkpt lat="45.7418896" lon="13.6705119"><ele>74.0</ele><time>2026-03-28T12:17:59.09Z</time></trkpt><trkpt lat="45.741972" lon="13.6702943"><ele>83.33333333333334</ele><time>2026-03-28T12:18:00.088Z</time></trkpt><trkpt lat="45.7420571" lon="13.6700802"><ele>92.66666666666667</ele><time>2026-03-28T12:18:01.088Z</time></trkpt><trkpt lat="45.7421413" lon="13.6698645"><ele>102.0</ele><time>2026-03-28T12:18:02.085Z</time></trkpt><trkpt lat="45.7422307" lon="13.6696489"><ele>95.33333333333333</ele><time>2026-03-28T12:18:03.083Z</time></trkpt><trkpt lat="45.7423242" lon="13.66944"><ele>88.66666666666666</ele><time>2026-03-28T12:18:04.098Z</time></trkpt><trkpt lat="45.74242" lon="13.6692315"><ele>82.0</ele><time>2026-03-28T12:18:05.087Z</time></trkpt><trkpt lat="45.742519" lon="13.669024"><ele>82.0</ele><time>2026-03-28T12:18:06.104Z</time></trkpt><trkpt lat="45.742619" lon="13.6688157"><ele>82.0</ele><time>2026-03-28T12:18:07.088Z</time></trkpt><trkpt lat="45.7427177" lon="13.6686064"><ele>82.0</ele><time>2026-03-28T12:18:08.09Z</time></trkpt><trkpt lat="45.7428147" lon="13.6683923"><ele>84.66666666666666</ele><time>2026-03-28T12:18:09.093Z</time></trkpt><trkpt lat="45.7429121" lon="13.66818"><ele>87.33333333333333</ele><time>2026-03-28T12:18:10.092Z</time></trkpt><trkpt lat="45.7430092" lon="13.6679666"><ele>90.0</ele><time>2026-03-28T12:18:11.094Z</time></trkpt><trkpt lat="45.7431043" lon="13.6677523"><ele>90.0</ele><time>2026-03-28T12:18:12.089Z</time></trkpt><trkpt lat="45.7431968" lon="13.6675371"><ele>90.0</ele><time>2026-03-28T12:18:13.087Z</time></trkpt><trkpt lat="45.7432821" lon="13.6673227"><ele>90.0</ele><time>2026-03-28T12:18:14.084Z</time></trkpt><trkpt lat="45.743364" lon="13.6671027"><ele>82.0</ele><time>2026-03-28T12:18:15.092Z</time></trkpt><trkpt lat="45.7434444" lon="13.6668832"><ele>74.0</ele><time>2026-03-28T12:18:16.09Z</time></trkpt><trkpt lat="45.7435293" lon="13.6666639"><ele>66.0</ele><time>2026-03-28T12:18:17.086Z</time></trkpt><trkpt lat="45.7436202" lon="13.6664534"><ele>76.66666666666666</ele><time>2026-03-28T12:18:18.088Z</time></trkpt><trkpt lat="45.7437227" lon="13.6662563"><ele>87.33333333333333</ele><time>2026-03-28T12:18:19.082Z</time></trkpt><trkpt lat="45.7438318" lon="13.6660618"><ele>98.0</ele><time>2026-03-28T12:18:20.096Z</time></trkpt><trkpt lat="45.7439442" lon="13.6658715"><ele>98.0</ele><time>2026-03-28T12:18:21.083Z</time></trkpt><trkpt lat="45.7440633" lon="13.665688"><ele>98.0</ele><time>2026-03-28T12:18:22.084Z</time></trkpt><trkpt lat="45.7441818" lon="13.6655024"><ele>98.0</ele><time>2026-03-28T12:18:23.084Z</time></trkpt><trkpt lat="45.7443013" lon="13.6653178"><ele>108.66666666666666</ele><time>2026-03-28T12:18:24.074Z</time></trkpt><trkpt lat="45.744414" lon="13.6651417"><ele>119.33333333333334</ele><time>2026-03-28T12:18:25.071Z</time></trkpt><trkpt lat="45.7445243" lon="13.6649773"><ele>130.0</ele><time>2026-03-28T12:18:26.083Z</time></trkpt><trkpt lat="45.7446611" lon="13.6648431"><ele>130.0</ele><time>2026-03-28T12:18:27.063Z</time></trkpt><trkpt lat="45.7447956" lon="13.6646914"><ele>130.0</ele><time>2026-03-28T12:18:28.071Z</time></trkpt><trkpt lat="45.744916" lon="13.6645238"><ele>130.0</ele><time>2026-03-28T12:18:29.071Z</time></trkpt><trkpt lat="45.7450356" lon="13.6643512"><ele>134.66666666666669</ele><time>2026-03-28T12:18:30.073Z</time></trkpt><trkpt lat="45.7451631" lon="13.6641824"><ele>139.33333333333334</ele><time>2026-03-28T12:18:31.072Z</time></trkpt><trkpt lat="45.7452945" lon="13.664019"><ele>144.0</ele><time>2026-03-28T12:18:32.065Z</time></trkpt><trkpt lat="45.7454243" lon="13.663851"><ele>144.0</ele><time>2026-03-28T12:18:33.072Z</time></trkpt><trkpt lat="45.7455539" lon="13.663689"><ele>144.0</ele><time>2026-03-28T12:18:34.08Z</time></trkpt><trkpt lat="45.745678" lon="13.6635189"><ele>144.0</ele><time>2026-03-28T12:18:35.067Z</time></trkpt><trkpt lat="45.7457992" lon="13.6633392"><ele>148.0</ele><time>2026-03-28T12:18:36.066Z</time></trkpt><trkpt lat="45.7459211" lon="13.663155"><ele>152.0</ele><time>2026-03-28T12:18:37.069Z</time></trkpt><trkpt lat="45.7460452" lon="13.6629734"><ele>156.0</ele><time>2026-03-28T12:18:38.064Z</time></trkpt><trkpt lat="45.7461689" lon="13.6627889"><ele>143.66666666666666</ele><time>2026-03-28T12:18:39.077Z</time></trkpt><trkpt lat="45.7462939" lon="13.6626121"><ele>131.33333333333331</ele><time>2026-03-28T12:18:40.076Z</time></trkpt><trkpt lat="45.7464231" lon="13.6624379"><ele>119.0</ele><time>2026-03-28T12:18:41.071Z</time></trkpt><trkpt lat="45.7465527" lon="13.6622666"><ele>119.0</ele><time>2026-03-28T12:18:42.078Z</time></trkpt><trkpt lat="45.7466856" lon="13.6621042"><ele>119.0</ele><time>2026-03-28T12:18:43.073Z</time></trkpt><trkpt lat="45.7468252" lon="13.6619561"><ele>119.0</ele><time>2026-03-28T12:18:44.07Z</time></trkpt><trkpt lat="45.7469687" lon="13.6618144"><ele>117.66666666666666</ele><time>2026-03-28T12:18:45.072Z</time></trkpt><trkpt lat="45.7471189" lon="13.6616783"><ele>116.33333333333334</ele><time>2026-03-28T12:18:46.072Z</time></trkpt><trkpt lat="45.7472673" lon="13.6615423"><ele>115.0</ele><time>2026-03-28T12:18:47.07Z</time></trkpt><trkpt lat="45.7474169" lon="13.6614044"><ele>115.0</ele><time>2026-03-28T12:18:48.081Z</time></trkpt><trkpt lat="45.7475685" lon="13.661269"><ele>115.0</ele><time>2026-03-28T12:18:49.072Z</time></trkpt><trkpt lat="45.74772" lon="13.6611283"><ele>115.0</ele><time>2026-03-28T12:18:50.08Z</time></trkpt><trkpt lat="45.7478675" lon="13.6609834"><ele>111.66666666666667</ele><time>2026-03-28T12:18:51.078Z</time></trkpt><trkpt lat="45.7480127" lon="13.6608358"><ele>108.33333333333334</ele><time>2026-03-28T12:18:52.083Z</time></trkpt><trkpt lat="45.7481598" lon="13.660689"><ele>105.0</ele><time>2026-03-28T12:18:53.072Z</time></trkpt><trkpt lat="45.7483048" lon="13.6605383"><ele>105.0</ele><time>2026-03-28T12:18:54.077Z</time></trkpt><trkpt lat="45.7484509" lon="13.6603872"><ele>105.0</ele><time>2026-03-28T12:18:55.078Z</time></trkpt><trkpt lat="45.7485975" lon="13.6602365"><ele>105.0</ele><time>2026-03-28T12:18:56.078Z</time></trkpt><trkpt lat="45.7487423" lon="13.6600847"><ele>104.66666666666666</ele><time>2026-03-28T12:18:57.082Z</time></trkpt><trkpt lat="45.7488901" lon="13.659935"><ele>104.33333333333333</ele><time>2026-03-28T12:18:58.076Z</time></trkpt><trkpt lat="45.7490369" lon="13.6597822"><ele>104.0</ele><time>2026-03-28T12:18:59.084Z</time></trkpt><trkpt lat="45.7491792" lon="13.6596245"><ele>104.0</ele><time>2026-03-28T12:19:00.083Z</time></trkpt><trkpt lat="45.7493206" lon="13.6594614"><ele>104.0</ele><time>2026-03-28T12:19:01.08Z</time></trkpt><trkpt lat="45.7494577" lon="13.6592931"><ele>104.0</ele><time>2026-03-28T12:19:02.09Z</time></trkpt><trkpt lat="45.7495875" lon="13.659124"><ele>107.66666666666666</ele><time>2026-03-28T12:19:03.072Z</time></trkpt><trkpt lat="45.7497116" lon="13.6589564"><ele>111.33333333333334</ele><time>2026-03-28T12:19:04.078Z</time></trkpt><trkpt lat="45.7498353" lon="13.6587875"><ele>115.0</ele><time>2026-03-28T12:19:05.08Z</time></trkpt><trkpt lat="45.7499613" lon="13.6586245"><ele>117.66666666666667</ele><time>2026-03-28T12:19:06.075Z</time></trkpt><trkpt lat="45.7500857" lon="13.6584629"><ele>120.33333333333334</ele><time>2026-03-28T12:19:07.078Z</time></trkpt><trkpt lat="45.7502125" lon="13.6583049"><ele>123.0</ele><time>2026-03-28T12:19:08.075Z</time></trkpt><trkpt lat="45.7503386" lon="13.6581405"><ele>123.0</ele><time>2026-03-28T12:19:09.087Z</time></trkpt><trkpt lat="45.7504623" lon="13.6579744"><ele>123.0</ele><time>2026-03-28T12:19:10.079Z</time></trkpt><trkpt lat="45.7505803" lon="13.6577924"><ele>123.0</ele><time>2026-03-28T12:19:11.08Z</time></trkpt><trkpt lat="45.7506905" lon="13.6575959"><ele>113.66666666666667</ele><time>2026-03-28T12:19:12.078Z</time></trkpt><trkpt lat="45.7507978" lon="13.6573975"><ele>104.33333333333334</ele><time>2026-03-28T12:19:13.077Z</time></trkpt><trkpt lat="45.7509022" lon="13.6571938"><ele>95.0</ele><time>2026-03-28T12:19:14.08Z</time></trkpt><trkpt lat="45.7510058" lon="13.656987"><ele>102.33333333333334</ele><time>2026-03-28T12:19:15.076Z</time></trkpt><trkpt lat="45.7511107" lon="13.6567845"><ele>109.66666666666667</ele><time>2026-03-28T12:19:16.102Z</time></trkpt><trkpt lat="45.7512135" lon="13.6565817"><ele>117.0</ele><time>2026-03-28T12:19:17.082Z</time></trkpt><trkpt lat="45.7513121" lon="13.6563794"><ele>117.0</ele><time>2026-03-28T12:19:18.083Z</time></trkpt><trkpt lat="45.7514084" lon="13.656175"><ele>117.0</ele><time>2026-03-28T12:19:19.077Z</time></trkpt><trkpt lat="45.7515022" lon="13.6559621"><ele>117.0</ele><time>2026-03-28T12:19:20.079Z</time></trkpt><trkpt lat="45.7515932" lon="13.6557473"><ele>108.33333333333333</ele><time>2026-03-28T12:19:21.075Z</time></trkpt><trkpt lat="45.7516801" lon="13.6555261"><ele>99.66666666666666</ele><time>2026-03-28T12:19:22.091Z</time></trkpt><trkpt lat="45.7517638" lon="13.6553044"><ele>91.0</ele><time>2026-03-28T12:19:23.084Z</time></trkpt><trkpt lat="45.7518498" lon="13.6550858"><ele>95.33333333333333</ele><time>2026-03-28T12:19:24.081Z</time></trkpt><trkpt lat="45.7519355" lon="13.6548627"><ele>99.66666666666666</ele><time>2026-03-28T12:19:25.089Z</time></trkpt><trkpt lat="45.7520245" lon="13.6546457"><ele>104.0</ele><time>2026-03-28T12:19:26.088Z</time></trkpt><trkpt lat="45.7521194" lon="13.6544367"><ele>104.0</ele><time>2026-03-28T12:19:27.082Z</time></trkpt><trkpt lat="45.7522184" lon="13.6542326"><ele>104.0</ele><time>2026-03-28T12:19:28.101Z</time></trkpt><trkpt lat="45.7523193" lon="13.6540295"><ele>104.0</ele><time>2026-03-28T12:19:29.087Z</time></trkpt><trkpt lat="45.7524234" lon="13.6538277"><ele>104.0</ele><time>2026-03-28T12:19:30.091Z</time></trkpt><trkpt lat="45.752531" lon="13.653632"><ele>104.0</ele><time>2026-03-28T12:19:31.084Z</time></trkpt><trkpt lat="45.7526457" lon="13.6534444"><ele>104.0</ele><time>2026-03-28T12:19:32.088Z</time></trkpt><trkpt lat="45.752764" lon="13.653262"><ele>100.0</ele><time>2026-03-28T12:19:33.086Z</time></trkpt><trkpt lat="45.7528851" lon="13.6530827"><ele>96.0</ele><time>2026-03-28T12:19:34.096Z</time></trkpt><trkpt lat="45.7530038" lon="13.6529087"><ele>92.0</ele><time>2026-03-28T12:19:35.075Z</time></trkpt><trkpt lat="45.7531175" lon="13.6527371"><ele>92.0</ele><time>2026-03-28T12:19:36.079Z</time></trkpt><trkpt lat="45.7532341" lon="13.6525649"><ele>92.0</ele><time>2026-03-28T12:19:37.082Z</time></trkpt><trkpt lat="45.7533505" lon="13.6523831"><ele>92.0</ele><time>2026-03-28T12:19:38.078Z</time></trkpt><trkpt lat="45.7534704" lon="13.652207"><ele>96.33333333333334</ele><time>2026-03-28T12:19:39.07Z</time></trkpt><trkpt lat="45.7535934" lon="13.6520297"><ele>100.66666666666667</ele><time>2026-03-28T12:19:40.081Z</time></trkpt><trkpt lat="45.753713" lon="13.6518479"><ele>105.0</ele><time>2026-03-28T12:19:41.08Z</time></trkpt><trkpt lat="45.7538338" lon="13.6516658"><ele>105.0</ele><time>2026-03-28T12:19:42.081Z</time></trkpt><trkpt lat="45.7539546" lon="13.6514817"><ele>105.0</ele><time>2026-03-28T12:19:43.082Z</time></trkpt><trkpt lat="45.7540754" lon="13.6512963"><ele>105.0</ele><time>2026-03-28T12:19:44.08Z</time></trkpt><trkpt lat="45.7541935" lon="13.6511143"><ele>109.33333333333334</ele><time>2026-03-28T12:19:45.078Z</time></trkpt><trkpt lat="45.7543119" lon="13.6509314"><ele>113.66666666666667</ele><time>2026-03-28T12:19:46.084Z</time></trkpt><trkpt lat="45.7544277" lon="13.6507541"><ele>118.0</ele><time>2026-03-28T12:19:47.076Z</time></trkpt><trkpt lat="45.7545414" lon="13.6505766"><ele>118.0</ele><time>2026-03-28T12:19:48.079Z</time></trkpt><trkpt lat="45.754654" lon="13.6504008"><ele>118.0</ele><time>2026-03-28T12:19:49.078Z</time></trkpt><trkpt lat="45.7547667" lon="13.6502271"><ele>118.0</ele><time>2026-03-28T12:19:50.086Z</time></trkpt><trkpt lat="45.7548822" lon="13.6500491"><ele>119.66666666666667</ele><time>2026-03-28T12:19:51.081Z</time></trkpt><trkpt lat="45.7549996" lon="13.6498725"><ele>121.33333333333334</ele><time>2026-03-28T12:19:52.081Z</time></trkpt><trkpt lat="45.7551158" lon="13.6496948"><ele>123.0</ele><time>2026-03-28T12:19:53.083Z</time></trkpt><trkpt lat="45.7552314" lon="13.6495164"><ele>117.33333333333334</ele><time>2026-03-28T12:19:54.078Z</time></trkpt><trkpt lat="45.7553441" lon="13.6493313"><ele>111.66666666666667</ele><time>2026-03-28T12:19:55.081Z</time></trkpt><trkpt lat="45.7554547" lon="13.6491398"><ele>106.0</ele><time>2026-03-28T12:19:56.083Z</time></trkpt><trkpt lat="45.7555606" lon="13.6489458"><ele>106.0</ele><time>2026-03-28T12:19:57.095Z</time></trkpt><trkpt lat="45.7556577" lon="13.6487386"><ele>106.0</ele><time>2026-03-28T12:19:58.088Z</time></trkpt><trkpt lat="45.7557501" lon="13.6485225"><ele>106.0</ele><time>2026-03-28T12:19:59.083Z</time></trkpt><trkpt lat="45.7558385" lon="13.6483019"><ele>110.33333333333334</ele><time>2026-03-28T12:20:00.083Z</time></trkpt><trkpt lat="45.7559231" lon="13.6480737"><ele>114.66666666666666</ele><time>2026-03-28T12:20:01.084Z</time></trkpt><trkpt lat="45.7560048" lon="13.6478402"><ele>119.0</ele><time>2026-03-28T12:20:02.092Z</time></trkpt><trkpt lat="45.7560849" lon="13.6476079"><ele>119.0</ele><time>2026-03-28T12:20:03.088Z</time></trkpt><trkpt lat="45.7561652" lon="13.6473728"><ele>119.0</ele><time>2026-03-28T12:20:04.088Z</time></trkpt><trkpt lat="45.7562487" lon="13.6471402"><ele>119.0</ele><time>2026-03-28T12:20:05.098Z</time></trkpt><trkpt lat="45.7563295" lon="13.6469148"><ele>115.33333333333333</ele><time>2026-03-28T12:20:06.08Z</time></trkpt><trkpt lat="45.7564034" lon="13.6466933"><ele>111.66666666666666</ele><time>2026-03-28T12:20:07.091Z</time></trkpt><trkpt lat="45.7564749" lon="13.6464771"><ele>108.0</ele><time>2026-03-28T12:20:08.083Z</time></trkpt><trkpt lat="45.7565474" lon="13.6462564"><ele>101.66666666666667</ele><time>2026-03-28T12:20:09.083Z</time></trkpt><trkpt lat="45.7566256" lon="13.6460336"><ele>95.33333333333334</ele><time>2026-03-28T12:20:10.09Z</time></trkpt><trkpt lat="45.7567047" lon="13.6458082"><ele>89.0</ele><time>2026-03-28T12:20:11.088Z</time></trkpt><trkpt lat="45.7567904" lon="13.6455878"><ele>96.0</ele><time>2026-03-28T12:20:12.091Z</time></trkpt><trkpt lat="45.7568823" lon="13.645372"><ele>103.0</ele><time>2026-03-28T12:20:13.087Z</time></trkpt><trkpt lat="45.756978" lon="13.6451619"><ele>110.0</ele><time>2026-03-28T12:20:14.089Z</time></trkpt><trkpt lat="45.7570785" lon="13.6449649"><ele>110.0</ele><time>2026-03-28T12:20:15.084Z</time></trkpt><trkpt lat="45.7571825" lon="13.6447719"><ele>110.0</ele><time>2026-03-28T12:20:16.083Z</time></trkpt><trkpt lat="45.7572895" lon="13.6445815"><ele>110.0</ele><time>2026-03-28T12:20:17.083Z</time></trkpt><trkpt lat="45.7574023" lon="13.6443947"><ele>113.0</ele><time>2026-03-28T12:20:18.085Z</time></trkpt><trkpt lat="45.7575179" lon="13.6442122"><ele>116.0</ele><time>2026-03-28T12:20:19.084Z</time></trkpt><trkpt lat="45.7576323" lon="13.6440247"><ele>119.0</ele><time>2026-03-28T12:20:20.086Z</time></trkpt><trkpt lat="45.7577486" lon="13.6438368"><ele>119.0</ele><time>2026-03-28T12:20:21.085Z</time></trkpt><trkpt lat="45.757867" lon="13.6436513"><ele>119.0</ele><time>2026-03-28T12:20:22.087Z</time></trkpt><trkpt lat="45.7579843" lon="13.6434659"><ele>119.0</ele><time>2026-03-28T12:20:23.09Z</time></trkpt><trkpt lat="45.758103" lon="13.6432809"><ele>113.66666666666666</ele><time>2026-03-28T12:20:24.088Z</time></trkpt><trkpt lat="45.7582202" lon="13.6430984"><ele>108.33333333333334</ele><time>2026-03-28T12:20:25.086Z</time></trkpt><trkpt lat="45.7583397" lon="13.6429254"><ele>103.0</ele><time>2026-03-28T12:20:26.094Z</time></trkpt><trkpt lat="45.758469" lon="13.6427652"><ele>104.33333333333334</ele><time>2026-03-28T12:20:27.088Z</time></trkpt><trkpt lat="45.758609" lon="13.6426232"><ele>105.66666666666666</ele><time>2026-03-28T12:20:28.088Z</time></trkpt><trkpt lat="45.7587542" lon="13.6424893"><ele>107.0</ele><time>2026-03-28T12:20:29.085Z</time></trkpt><trkpt lat="45.7589029" lon="13.6423635"><ele>107.0</ele><time>2026-03-28T12:20:30.08Z</time></trkpt><trkpt lat="45.7590549" lon="13.6422433"><ele>107.0</ele><time>2026-03-28T12:20:31.08Z</time></trkpt><trkpt lat="45.759212" lon="13.6421253"><ele>107.0</ele><time>2026-03-28T12:20:32.08Z</time></trkpt><trkpt lat="45.7593665" lon="13.6420122"><ele>103.66666666666666</ele><time>2026-03-28T12:20:33.08Z</time></trkpt><trkpt lat="45.7595189" lon="13.641899"><ele>100.33333333333334</ele><time>2026-03-28T12:20:34.082Z</time></trkpt><trkpt lat="45.7596699" lon="13.6417842"><ele>97.0</ele><time>2026-03-28T12:20:35.089Z</time></trkpt><trkpt lat="45.7598199" lon="13.6416658"><ele>97.0</ele><time>2026-03-28T12:20:36.087Z</time></trkpt><trkpt lat="45.7599728" lon="13.6415456"><ele>97.0</ele><time>2026-03-28T12:20:37.078Z</time></trkpt><trkpt lat="45.7601272" lon="13.6414218"><ele>97.0</ele><time>2026-03-28T12:20:38.084Z</time></trkpt><trkpt lat="45.760284" lon="13.6412959"><ele>99.33333333333334</ele><time>2026-03-28T12:20:39.079Z</time></trkpt><trkpt lat="45.7604361" lon="13.6411691"><ele>101.66666666666666</ele><time>2026-03-28T12:20:40.085Z</time></trkpt><trkpt lat="45.7605921" lon="13.6410412"><ele>104.0</ele><time>2026-03-28T12:20:41.088Z</time></trkpt><trkpt lat="45.7607483" lon="13.6409137"><ele>102.33333333333333</ele><time>2026-03-28T12:20:42.081Z</time></trkpt><trkpt lat="45.7609055" lon="13.6407821"><ele>100.66666666666666</ele><time>2026-03-28T12:20:43.089Z</time></trkpt><trkpt lat="45.7610607" lon="13.6406498"><ele>99.0</ele><time>2026-03-28T12:20:44.093Z</time></trkpt><trkpt lat="45.7612169" lon="13.6405202"><ele>99.0</ele><time>2026-03-28T12:20:45.093Z</time></trkpt><trkpt lat="45.7613746" lon="13.6403962"><ele>99.0</ele><time>2026-03-28T12:20:46.096Z</time></trkpt><trkpt lat="45.7615324" lon="13.6402735"><ele>99.0</ele><time>2026-03-28T12:20:47.093Z</time></trkpt><trkpt lat="45.7616908" lon="13.6401594"><ele>98.0</ele><time>2026-03-28T12:20:48.096Z</time></trkpt><trkpt lat="45.7618489" lon="13.6400511"><ele>97.0</ele><time>2026-03-28T12:20:49.099Z</time></trkpt><trkpt lat="45.7620101" lon="13.6399517"><ele>96.0</ele><time>2026-03-28T12:20:50.093Z</time></trkpt><trkpt lat="45.7621658" lon="13.6398528"><ele>96.0</ele><time>2026-03-28T12:20:51.097Z</time></trkpt><trkpt lat="45.7623317" lon="13.6397676"><ele>96.0</ele><time>2026-03-28T12:20:52.123Z</time></trkpt><trkpt lat="45.7624962" lon="13.6396859"><ele>96.0</ele><time>2026-03-28T12:20:53.096Z</time></trkpt><trkpt lat="45.7626656" lon="13.6396109"><ele>95.33333333333333</ele><time>2026-03-28T12:20:54.104Z</time></trkpt><trkpt lat="45.762835" lon="13.6395462"><ele>94.66666666666666</ele><time>2026-03-28T12:20:55.101Z</time></trkpt><trkpt lat="45.7630067" lon="13.639493"><ele>94.0</ele><time>2026-03-28T12:20:56.106Z</time></trkpt><trkpt lat="45.7631781" lon="13.6394448"><ele>90.66666666666666</ele><time>2026-03-28T12:20:57.101Z</time></trkpt><trkpt lat="45.7633479" lon="13.6393996"><ele>87.33333333333333</ele><time>2026-03-28T12:20:58.11Z</time></trkpt><trkpt lat="45.7635213" lon="13.639367"><ele>84.0</ele><time>2026-03-28T12:20:59.109Z</time></trkpt><trkpt lat="45.7636958" lon="13.639346"><ele>84.0</ele><time>2026-03-28T12:21:00.115Z</time></trkpt><trkpt lat="45.7638694" lon="13.6393284"><ele>84.0</ele><time>2026-03-28T12:21:01.105Z</time></trkpt><trkpt lat="45.7640423" lon="13.6393104"><ele>84.0</ele><time>2026-03-28T12:21:02.111Z</time></trkpt><trkpt lat="45.7642129" lon="13.6393006"><ele>83.66666666666667</ele><time>2026-03-28T12:21:03.117Z</time></trkpt><trkpt lat="45.7643828" lon="13.6392973"><ele>83.33333333333334</ele><time>2026-03-28T12:21:04.114Z</time></trkpt><trkpt lat="45.764552" lon="13.6392973"><ele>83.0</ele><time>2026-03-28T12:21:05.103Z</time></trkpt><trkpt lat="45.7647228" lon="13.6392971"><ele>83.0</ele><time>2026-03-28T12:21:06.106Z</time></trkpt><trkpt lat="45.7648955" lon="13.6392993"><ele>83.0</ele><time>2026-03-28T12:21:07.102Z</time></trkpt><trkpt lat="45.7650719" lon="13.639302"><ele>83.0</ele><time>2026-03-28T12:21:08.1Z</time></trkpt><trkpt lat="45.7652477" lon="13.6393043"><ele>82.33333333333334</ele><time>2026-03-28T12:21:09.096Z</time></trkpt><trkpt lat="45.7654207" lon="13.6393086"><ele>81.66666666666667</ele><time>2026-03-28T12:21:10.105Z</time></trkpt><trkpt lat="45.7655885" lon="13.6393068"><ele>81.0</ele><time>2026-03-28T12:21:11.108Z</time></trkpt><trkpt lat="45.7657457" lon="13.6393016"><ele>81.0</ele><time>2026-03-28T12:21:12.103Z</time></trkpt><trkpt lat="45.7659029" lon="13.639297"><ele>81.0</ele><time>2026-03-28T12:21:13.103Z</time></trkpt><trkpt lat="45.7660608" lon="13.6392976"><ele>81.0</ele><time>2026-03-28T12:21:14.109Z</time></trkpt><trkpt lat="45.7662178" lon="13.6392974"><ele>81.66666666666667</ele><time>2026-03-28T12:21:15.11Z</time></trkpt><trkpt lat="45.7663734" lon="13.6392992"><ele>82.33333333333334</ele><time>2026-03-28T12:21:16.113Z</time></trkpt><trkpt lat="45.76653" lon="13.6392982"><ele>83.0</ele><time>2026-03-28T12:21:17.106Z</time></trkpt><trkpt lat="45.7666892" lon="13.6392959"><ele>83.0</ele><time>2026-03-28T12:21:18.132Z</time></trkpt><trkpt lat="45.7668517" lon="13.639293"><ele>83.0</ele><time>2026-03-28T12:21:19.112Z</time></trkpt><trkpt lat="45.7670151" lon="13.6392866"><ele>83.0</ele><time>2026-03-28T12:21:20.12Z</time></trkpt><trkpt lat="45.7671803" lon="13.6392812"><ele>83.0</ele><time>2026-03-28T12:21:21.11Z</time></trkpt><trkpt lat="45.7673507" lon="13.6392778"><ele>83.0</ele><time>2026-03-28T12:21:22.116Z</time></trkpt><trkpt lat="45.7675183" lon="13.6392825"><ele>83.0</ele><time>2026-03-28T12:21:23.107Z</time></trkpt><trkpt lat="45.7676882" lon="13.6392871"><ele>83.0</ele><time>2026-03-28T12:21:24.111Z</time></trkpt><trkpt lat="45.7678547" lon="13.6392864"><ele>83.0</ele><time>2026-03-28T12:21:25.107Z</time></trkpt><trkpt lat="45.7680227" lon="13.6392842"><ele>83.0</ele><time>2026-03-28T12:21:26.115Z</time></trkpt><trkpt lat="45.7681927" lon="13.6392839"><ele>83.0</ele><time>2026-03-28T12:21:27.118Z</time></trkpt><trkpt lat="45.7683624" lon="13.6392802"><ele>83.0</ele><time>2026-03-28T12:21:28.123Z</time></trkpt><trkpt lat="45.7685308" lon="13.6392786"><ele>83.0</ele><time>2026-03-28T12:21:29.111Z</time></trkpt><trkpt lat="45.7686977" lon="13.6392753"><ele>82.33333333333334</ele><time>2026-03-28T12:21:30.115Z</time></trkpt><trkpt lat="45.768862" lon="13.6392709"><ele>81.66666666666667</ele><time>2026-03-28T12:21:31.117Z</time></trkpt><trkpt lat="45.76902" lon="13.6392607"><ele>81.0</ele><time>2026-03-28T12:21:32.119Z</time></trkpt><trkpt lat="45.769169" lon="13.6392486"><ele>81.0</ele><time>2026-03-28T12:21:33.112Z</time></trkpt><trkpt lat="45.7693089" lon="13.6392325"><ele>81.0</ele><time>2026-03-28T12:21:34.124Z</time></trkpt><trkpt lat="45.7694429" lon="13.6392167"><ele>81.0</ele><time>2026-03-28T12:21:35.113Z</time></trkpt><trkpt lat="45.7695681" lon="13.6391918"><ele>81.0</ele><time>2026-03-28T12:21:36.117Z</time></trkpt><trkpt lat="45.7696844" lon="13.6391477"><ele>80.8</ele><time>2026-03-28T12:21:37.11Z</time></trkpt><trkpt lat="45.7697909" lon="13.6390752"><ele>80.6</ele><time>2026-03-28T12:21:38.115Z</time></trkpt><trkpt lat="45.769889" lon="13.6390026"><ele>80.4</ele><time>2026-03-28T12:21:39.113Z</time></trkpt><trkpt lat="45.7699805" lon="13.6389556"><ele>80.2</ele><time>2026-03-28T12:21:40.109Z</time></trkpt><trkpt lat="45.7700653" lon="13.6389538"><ele>80.0</ele><time>2026-03-28T12:21:41.116Z</time></trkpt><trkpt lat="45.7701289" lon="13.6389756"><ele>80.0</ele><time>2026-03-28T12:21:42.111Z</time></trkpt><trkpt lat="45.7701884" lon="13.6390169"><ele>80.0</ele><time>2026-03-28T12:21:43.12Z</time></trkpt><trkpt lat="45.7702572" lon="13.6390726"><ele>80.0</ele><time>2026-03-28T12:21:44.111Z</time></trkpt><trkpt lat="45.7703438" lon="13.6391062"><ele>80.0</ele><time>2026-03-28T12:21:45.12Z</time></trkpt><trkpt lat="45.7704367" lon="13.6390711"><ele>80.0</ele><time>2026-03-28T12:21:46.121Z</time></trkpt><trkpt lat="45.7705221" lon="13.6389915"><ele>80.0</ele><time>2026-03-28T12:21:47.124Z</time></trkpt><trkpt lat="45.7705945" lon="13.6388665"><ele>79.75</ele><time>2026-03-28T12:21:48.138Z</time></trkpt><trkpt lat="45.7706658" lon="13.6387194"><ele>79.5</ele><time>2026-03-28T12:21:49.115Z</time></trkpt><trkpt lat="45.7707517" lon="13.6385669"><ele>79.25</ele><time>2026-03-28T12:21:50.125Z</time></trkpt><trkpt lat="45.7708398" lon="13.6384142"><ele>79.0</ele><time>2026-03-28T12:21:51.118Z</time></trkpt><trkpt lat="45.7709332" lon="13.6382547"><ele>77.66666666666666</ele><time>2026-03-28T12:21:52.131Z</time></trkpt><trkpt lat="45.7710291" lon="13.6381018"><ele>76.33333333333333</ele><time>2026-03-28T12:21:53.121Z</time></trkpt><trkpt lat="45.771133" lon="13.6379398"><ele>75.0</ele><time>2026-03-28T12:21:54.111Z</time></trkpt><trkpt lat="45.7712398" lon="13.6377797"><ele>75.0</ele><time>2026-03-28T12:21:55.101Z</time></trkpt><trkpt lat="45.7713412" lon="13.6376194"><ele>75.0</ele><time>2026-03-28T12:21:56.125Z</time></trkpt><trkpt lat="45.771443" lon="13.6374583"><ele>75.0</ele><time>2026-03-28T12:21:57.112Z</time></trkpt><trkpt lat="45.7715489" lon="13.637291"><ele>75.0</ele><time>2026-03-28T12:21:58.133Z</time></trkpt><trkpt lat="45.771651" lon="13.6371214"><ele>75.0</ele><time>2026-03-28T12:21:59.114Z</time></trkpt><trkpt lat="45.7717538" lon="13.6369563"><ele>75.0</ele><time>2026-03-28T12:22:00.112Z</time></trkpt><trkpt lat="45.7718517" lon="13.636795"><ele>75.66666666666667</ele><time>2026-03-28T12:22:01.111Z</time></trkpt><trkpt lat="45.7719522" lon="13.6366305"><ele>76.33333333333334</ele><time>2026-03-28T12:22:02.109Z</time></trkpt><trkpt lat="45.772053" lon="13.636461"><ele>77.0</ele><time>2026-03-28T12:22:03.112Z</time></trkpt><trkpt lat="45.7721519" lon="13.636284"><ele>76.0</ele><time>2026-03-28T12:22:04.116Z</time></trkpt><trkpt lat="45.7722428" lon="13.6360941"><ele>75.0</ele><time>2026-03-28T12:22:05.104Z</time></trkpt><trkpt lat="45.7723271" lon="13.6358985"><ele>74.0</ele><time>2026-03-28T12:22:06.114Z</time></trkpt><trkpt lat="45.7724173" lon="13.6356996"><ele>74.0</ele><time>2026-03-28T12:22:07.123Z</time></trkpt><trkpt lat="45.772513" lon="13.6355001"><ele>74.0</ele><time>2026-03-28T12:22:08.108Z</time></trkpt><trkpt lat="45.7726225" lon="13.6353171"><ele>74.0</ele><time>2026-03-28T12:22:09.117Z</time></trkpt><trkpt lat="45.7727507" lon="13.6351604"><ele>75.33333333333334</ele><time>2026-03-28T12:22:10.114Z</time></trkpt><trkpt lat="45.7728888" lon="13.6350235"><ele>76.66666666666667</ele><time>2026-03-28T12:22:11.105Z</time></trkpt><trkpt lat="45.7730188" lon="13.6348958"><ele>78.0</ele><time>2026-03-28T12:22:12.099Z</time></trkpt><trkpt lat="45.7731399" lon="13.6347737"><ele>78.0</ele><time>2026-03-28T12:22:13.102Z</time></trkpt><trkpt lat="45.7732596" lon="13.6346461"><ele>78.0</ele><time>2026-03-28T12:22:14.102Z</time></trkpt><trkpt lat="45.7733672" lon="13.6345167"><ele>78.0</ele><time>2026-03-28T12:22:15.099Z</time></trkpt><trkpt lat="45.7734684" lon="13.6343914"><ele>78.0</ele><time>2026-03-28T12:22:16.146Z</time></trkpt><trkpt lat="45.7735606" lon="13.6342526"><ele>77.25</ele><time>2026-03-28T12:22:17.116Z</time></trkpt><trkpt lat="45.773637" lon="13.6340873"><ele>76.5</ele><time>2026-03-28T12:22:18.124Z</time></trkpt><trkpt lat="45.7736893" lon="13.6338961"><ele>75.75</ele><time>2026-03-28T12:22:19.114Z</time></trkpt><trkpt lat="45.773724" lon="13.633698"><ele>75.0</ele><time>2026-03-28T12:22:20.112Z</time></trkpt><trkpt lat="45.7737451" lon="13.6334977"><ele>74.75</ele><time>2026-03-28T12:22:21.109Z</time></trkpt><trkpt lat="45.773731" lon="13.6333056"><ele>74.5</ele><time>2026-03-28T12:22:22.126Z</time></trkpt><trkpt lat="45.7737033" lon="13.6331222"><ele>74.25</ele><time>2026-03-28T12:22:23.109Z</time></trkpt><trkpt lat="45.7736755" lon="13.6329446"><ele>74.0</ele><time>2026-03-28T12:22:24.119Z</time></trkpt><trkpt lat="45.7736442" lon="13.6327683"><ele>73.5</ele><time>2026-03-28T12:22:25.124Z</time></trkpt><trkpt lat="45.7736148" lon="13.6325825"><ele>73.0</ele><time>2026-03-28T12:22:26.114Z</time></trkpt><trkpt lat="45.7735838" lon="13.6323936"><ele>72.5</ele><time>2026-03-28T12:22:27.119Z</time></trkpt><trkpt lat="45.773552" lon="13.6322025"><ele>72.0</ele><time>2026-03-28T12:22:28.122Z</time></trkpt><trkpt lat="45.7735211" lon="13.6320112"><ele>70.75</ele><time>2026-03-28T12:22:29.115Z</time></trkpt><trkpt lat="45.7734916" lon="13.6318239"><ele>69.5</ele><time>2026-03-28T12:22:30.122Z</time></trkpt><trkpt lat="45.773464" lon="13.6316322"><ele>68.25</ele><time>2026-03-28T12:22:31.115Z</time></trkpt><trkpt lat="45.7734384" lon="13.6314406"><ele>67.0</ele><time>2026-03-28T12:22:32.128Z</time></trkpt><trkpt lat="45.7734117" lon="13.6312439"><ele>67.0</ele><time>2026-03-28T12:22:33.117Z</time></trkpt><trkpt lat="45.7733801" lon="13.6310493"><ele>67.0</ele><time>2026-03-28T12:22:34.127Z</time></trkpt><trkpt lat="45.7733513" lon="13.6308574"><ele>67.0</ele><time>2026-03-28T12:22:35.115Z</time></trkpt><trkpt lat="45.7733208" lon="13.6306751"><ele>67.0</ele><time>2026-03-28T12:22:36.105Z</time></trkpt><trkpt lat="45.7732944" lon="13.6304983"><ele>67.0</ele><time>2026-03-28T12:22:37.112Z</time></trkpt><trkpt lat="45.7732668" lon="13.630324"><ele>67.0</ele><time>2026-03-28T12:22:38.107Z</time></trkpt><trkpt lat="45.7732408" lon="13.630146"><ele>67.0</ele><time>2026-03-28T12:22:39.107Z</time></trkpt><trkpt lat="45.7732173" lon="13.6299657"><ele>67.0</ele><time>2026-03-28T12:22:40.114Z</time></trkpt><trkpt lat="45.7731937" lon="13.6297848"><ele>66.5</ele><time>2026-03-28T12:22:41.108Z</time></trkpt><trkpt lat="45.7731679" lon="13.6296097"><ele>66.0</ele><time>2026-03-28T12:22:42.113Z</time></trkpt><trkpt lat="45.7731456" lon="13.629441"><ele>65.5</ele><time>2026-03-28T12:22:43.109Z</time></trkpt><trkpt lat="45.7731191" lon="13.6292774"><ele>65.0</ele><time>2026-03-28T12:22:44.129Z</time></trkpt><trkpt lat="45.7730957" lon="13.6291113"><ele>64.5</ele><time>2026-03-28T12:22:45.107Z</time></trkpt><trkpt lat="45.7730676" lon="13.6289325"><ele>64.0</ele><time>2026-03-28T12:22:46.116Z</time></trkpt><trkpt lat="45.7730425" lon="13.6287422"><ele>63.5</ele><time>2026-03-28T12:22:47.104Z</time></trkpt><trkpt lat="45.7730135" lon="13.6285442"><ele>63.0</ele><time>2026-03-28T12:22:48.122Z</time></trkpt><trkpt lat="45.7729855" lon="13.6283502"><ele>62.0</ele><time>2026-03-28T12:22:49.11Z</time></trkpt><trkpt lat="45.772959" lon="13.6281534"><ele>61.0</ele><time>2026-03-28T12:22:50.114Z</time></trkpt><trkpt lat="45.7729337" lon="13.6279475"><ele>60.0</ele><time>2026-03-28T12:22:51.118Z</time></trkpt><trkpt lat="45.7729055" lon="13.627737"><ele>59.0</ele><time>2026-03-28T12:22:52.12Z</time></trkpt><trkpt lat="45.7728746" lon="13.6275231"><ele>58.333333333333336</ele><time>2026-03-28T12:22:53.113Z</time></trkpt><trkpt lat="45.7728506" lon="13.6273036"><ele>57.66666666666667</ele><time>2026-03-28T12:22:54.114Z</time></trkpt><trkpt lat="45.7728266" lon="13.6270823"><ele>57.0</ele><time>2026-03-28T12:22:55.123Z</time></trkpt><trkpt lat="45.7728116" lon="13.6268596"><ele>57.0</ele><time>2026-03-28T12:22:56.123Z</time></trkpt><trkpt lat="45.7728046" lon="13.6266418"><ele>57.0</ele><time>2026-03-28T12:22:57.13Z</time></trkpt><trkpt lat="45.7728085" lon="13.6264218"><ele>57.0</ele><time>2026-03-28T12:22:58.116Z</time></trkpt><trkpt lat="45.7728216" lon="13.6262006"><ele>58.33333333333333</ele><time>2026-03-28T12:22:59.119Z</time></trkpt><trkpt lat="45.7728461" lon="13.6259835"><ele>59.666666666666664</ele><time>2026-03-28T12:23:00.124Z</time></trkpt><trkpt lat="45.7728716" lon="13.6257698"><ele>61.0</ele><time>2026-03-28T12:23:01.108Z</time></trkpt><trkpt lat="45.7728984" lon="13.6255588"><ele>61.0</ele><time>2026-03-28T12:23:02.106Z</time></trkpt><trkpt lat="45.772925" lon="13.6253492"><ele>61.0</ele><time>2026-03-28T12:23:03.108Z</time></trkpt><trkpt lat="45.7729512" lon="13.6251364"><ele>61.0</ele><time>2026-03-28T12:23:04.107Z</time></trkpt><trkpt lat="45.7729789" lon="13.6249209"><ele>61.33333333333333</ele><time>2026-03-28T12:23:05.104Z</time></trkpt><trkpt lat="45.7730047" lon="13.6247043"><ele>61.66666666666667</ele><time>2026-03-28T12:23:06.12Z</time></trkpt><trkpt lat="45.7730308" lon="13.6244926"><ele>62.0</ele><time>2026-03-28T12:23:07.11Z</time></trkpt><trkpt lat="45.7730542" lon="13.6242778"><ele>62.0</ele><time>2026-03-28T12:23:08.116Z</time></trkpt><trkpt lat="45.7730778" lon="13.6240567"><ele>62.0</ele><time>2026-03-28T12:23:09.118Z</time></trkpt><trkpt lat="45.773102" lon="13.6238351"><ele>62.0</ele><time>2026-03-28T12:23:10.129Z</time></trkpt><trkpt lat="45.773125" lon="13.6236131"><ele>61.66666666666667</ele><time>2026-03-28T12:23:11.108Z</time></trkpt><trkpt lat="45.7731436" lon="13.6233884"><ele>61.33333333333333</ele><time>2026-03-28T12:23:12.113Z</time></trkpt><trkpt lat="45.7731581" lon="13.6231621"><ele>61.0</ele><time>2026-03-28T12:23:13.112Z</time></trkpt><trkpt lat="45.7731728" lon="13.6229319"><ele>60.33333333333333</ele><time>2026-03-28T12:23:14.116Z</time></trkpt><trkpt lat="45.773188" lon="13.6227055"><ele>59.66666666666667</ele><time>2026-03-28T12:23:15.105Z</time></trkpt><trkpt lat="45.7732016" lon="13.6224825"><ele>59.0</ele><time>2026-03-28T12:23:16.119Z</time></trkpt><trkpt lat="45.7732178" lon="13.6222631"><ele>59.0</ele><time>2026-03-28T12:23:17.112Z</time></trkpt><trkpt lat="45.7732421" lon="13.6220407"><ele>59.0</ele><time>2026-03-28T12:23:18.117Z</time></trkpt><trkpt lat="45.7732678" lon="13.6218256"><ele>59.0</ele><time>2026-03-28T12:23:19.114Z</time></trkpt><trkpt lat="45.7732899" lon="13.6216143"><ele>59.66666666666667</ele><time>2026-03-28T12:23:20.12Z</time></trkpt><trkpt lat="45.7733091" lon="13.6214002"><ele>60.33333333333333</ele><time>2026-03-28T12:23:21.114Z</time></trkpt><trkpt lat="45.7733279" lon="13.621184"><ele>61.0</ele><time>2026-03-28T12:23:22.112Z</time></trkpt><trkpt lat="45.7733474" lon="13.620966"><ele>61.0</ele><time>2026-03-28T12:23:23.103Z</time></trkpt><trkpt lat="45.7733654" lon="13.6207435"><ele>61.0</ele><time>2026-03-28T12:23:24.127Z</time></trkpt><trkpt lat="45.7733822" lon="13.620524"><ele>61.0</ele><time>2026-03-28T12:23:25.104Z</time></trkpt><trkpt lat="45.7733997" lon="13.6202944"><ele>61.33333333333333</ele><time>2026-03-28T12:23:26.114Z</time></trkpt><trkpt lat="45.7734151" lon="13.6200639"><ele>61.66666666666667</ele><time>2026-03-28T12:23:27.113Z</time></trkpt><trkpt lat="45.773431" lon="13.6198381"><ele>62.0</ele><time>2026-03-28T12:23:28.111Z</time></trkpt><trkpt lat="45.7734445" lon="13.6196148"><ele>60.333333333333336</ele><time>2026-03-28T12:23:29.107Z</time></trkpt><trkpt lat="45.7734577" lon="13.6193908"><ele>58.66666666666667</ele><time>2026-03-28T12:23:30.111Z</time></trkpt><trkpt lat="45.7734734" lon="13.619167"><ele>57.0</ele><time>2026-03-28T12:23:31.117Z</time></trkpt><trkpt lat="45.77349" lon="13.6189439"><ele>57.0</ele><time>2026-03-28T12:23:32.11Z</time></trkpt><trkpt lat="45.7735084" lon="13.6187213"><ele>57.0</ele><time>2026-03-28T12:23:33.099Z</time></trkpt><trkpt lat="45.773525" lon="13.6184992"><ele>57.0</ele><time>2026-03-28T12:23:34.096Z</time></trkpt><trkpt lat="45.7735384" lon="13.6182788"><ele>57.0</ele><time>2026-03-28T12:23:35.097Z</time></trkpt><trkpt lat="45.7735514" lon="13.6180575"><ele>57.0</ele><time>2026-03-28T12:23:36.1Z</time></trkpt><trkpt lat="45.7735622" lon="13.6178352"><ele>57.0</ele><time>2026-03-28T12:23:37.109Z</time></trkpt><trkpt lat="45.7735762" lon="13.6176127"><ele>57.0</ele><time>2026-03-28T12:23:38.116Z</time></trkpt><trkpt lat="45.7735971" lon="13.6173916"><ele>57.0</ele><time>2026-03-28T12:23:39.106Z</time></trkpt><trkpt lat="45.7736341" lon="13.6171729"><ele>57.0</ele><time>2026-03-28T12:23:40.106Z</time></trkpt><trkpt lat="45.7736892" lon="13.6169613"><ele>58.0</ele><time>2026-03-28T12:23:41.108Z</time></trkpt><trkpt lat="45.7737568" lon="13.6167573"><ele>59.0</ele><time>2026-03-28T12:23:42.112Z</time></trkpt><trkpt lat="45.7738301" lon="13.6165615"><ele>60.0</ele><time>2026-03-28T12:23:43.117Z</time></trkpt><trkpt lat="45.773912" lon="13.6163734"><ele>60.0</ele><time>2026-03-28T12:23:44.108Z</time></trkpt><trkpt lat="45.7739944" lon="13.6161801"><ele>60.0</ele><time>2026-03-28T12:23:45.107Z</time></trkpt><trkpt lat="45.7740744" lon="13.6159837"><ele>60.0</ele><time>2026-03-28T12:23:46.126Z</time></trkpt><trkpt lat="45.7741529" lon="13.6157885"><ele>60.0</ele><time>2026-03-28T12:23:47.103Z</time></trkpt><trkpt lat="45.7742315" lon="13.6155867"><ele>60.0</ele><time>2026-03-28T12:23:48.119Z</time></trkpt><trkpt lat="45.7743069" lon="13.6153821"><ele>60.0</ele><time>2026-03-28T12:23:49.115Z</time></trkpt><trkpt lat="45.7743792" lon="13.6151744"><ele>60.0</ele><time>2026-03-28T12:23:50.112Z</time></trkpt><trkpt lat="45.774448" lon="13.6149682"><ele>60.0</ele><time>2026-03-28T12:23:51.107Z</time></trkpt><trkpt lat="45.7745156" lon="13.614762"><ele>60.0</ele><time>2026-03-28T12:23:52.117Z</time></trkpt><trkpt lat="45.7745752" lon="13.6145612"><ele>60.0</ele><time>2026-03-28T12:23:53.109Z</time></trkpt><trkpt lat="45.7746255" lon="13.6143675"><ele>60.0</ele><time>2026-03-28T12:23:54.131Z</time></trkpt><trkpt lat="45.7746641" lon="13.6141849"><ele>60.0</ele><time>2026-03-28T12:23:55.11Z</time></trkpt><trkpt lat="45.7746913" lon="13.6139925"><ele>60.0</ele><time>2026-03-28T12:23:56.108Z</time></trkpt><trkpt lat="45.7747093" lon="13.6137915"><ele>59.5</ele><time>2026-03-28T12:23:57.112Z</time></trkpt><trkpt lat="45.7747203" lon="13.6135873"><ele>59.0</ele><time>2026-03-28T12:23:58.109Z</time></trkpt><trkpt lat="45.7747332" lon="13.6133761"><ele>58.5</ele><time>2026-03-28T12:23:59.111Z</time></trkpt><trkpt lat="45.7747493" lon="13.6131631"><ele>58.0</ele><time>2026-03-28T12:24:00.107Z</time></trkpt><trkpt lat="45.7747686" lon="13.6129481"><ele>57.666666666666664</ele><time>2026-03-28T12:24:01.104Z</time></trkpt><trkpt lat="45.774787" lon="13.6127291"><ele>57.33333333333333</ele><time>2026-03-28T12:24:02.135Z</time></trkpt><trkpt lat="45.7748054" lon="13.6125138"><ele>57.0</ele><time>2026-03-28T12:24:03.109Z</time></trkpt><trkpt lat="45.7748228" lon="13.6122966"><ele>57.0</ele><time>2026-03-28T12:24:04.11Z</time></trkpt><trkpt lat="45.7748403" lon="13.6120801"><ele>57.0</ele><time>2026-03-28T12:24:05.095Z</time></trkpt><trkpt lat="45.7748534" lon="13.6118559"><ele>57.0</ele><time>2026-03-28T12:24:06.107Z</time></trkpt><trkpt lat="45.7748622" lon="13.6116276"><ele>57.0</ele><time>2026-03-28T12:24:07.117Z</time></trkpt><trkpt lat="45.7748555" lon="13.6113996"><ele>57.0</ele><time>2026-03-28T12:24:08.109Z</time></trkpt><trkpt lat="45.7748242" lon="13.6111676"><ele>57.0</ele><time>2026-03-28T12:24:09.122Z</time></trkpt><trkpt lat="45.7747823" lon="13.6109324"><ele>57.0</ele><time>2026-03-28T12:24:10.113Z</time></trkpt><trkpt lat="45.7747398" lon="13.6106951"><ele>57.0</ele><time>2026-03-28T12:24:11.119Z</time></trkpt><trkpt lat="45.7746983" lon="13.6104649"><ele>57.0</ele><time>2026-03-28T12:24:12.109Z</time></trkpt><trkpt lat="45.7746584" lon="13.6102307"><ele>55.33333333333333</ele><time>2026-03-28T12:24:13.109Z</time></trkpt><trkpt lat="45.7746194" lon="13.6099976"><ele>53.666666666666664</ele><time>2026-03-28T12:24:14.106Z</time></trkpt><trkpt lat="45.7745843" lon="13.6097639"><ele>52.0</ele><time>2026-03-28T12:24:15.111Z</time></trkpt><trkpt lat="45.7745574" lon="13.6095318"><ele>51.33333333333333</ele><time>2026-03-28T12:24:16.105Z</time></trkpt><trkpt lat="45.7745519" lon="13.6092872"><ele>50.66666666666667</ele><time>2026-03-28T12:24:17.109Z</time></trkpt><trkpt lat="45.7745672" lon="13.6090399"><ele>50.0</ele><time>2026-03-28T12:24:18.122Z</time></trkpt><trkpt lat="45.774598" lon="13.608799"><ele>49.333333333333336</ele><time>2026-03-28T12:24:19.108Z</time></trkpt><trkpt lat="45.7746414" lon="13.6085574"><ele>48.66666666666667</ele><time>2026-03-28T12:24:20.124Z</time></trkpt><trkpt lat="45.7746959" lon="13.6083231"><ele>48.0</ele><time>2026-03-28T12:24:21.1Z</time></trkpt><trkpt lat="45.774764" lon="13.6080904"><ele>48.0</ele><time>2026-03-28T12:24:22.098Z</time></trkpt><trkpt lat="45.7748458" lon="13.6078596"><ele>48.0</ele><time>2026-03-28T12:24:23.101Z</time></trkpt><trkpt lat="45.7749261" lon="13.607625"><ele>48.0</ele><time>2026-03-28T12:24:24.107Z</time></trkpt><trkpt lat="45.7750033" lon="13.6073883"><ele>48.0</ele><time>2026-03-28T12:24:25.108Z</time></trkpt><trkpt lat="45.7750784" lon="13.6071573"><ele>48.0</ele><time>2026-03-28T12:24:26.115Z</time></trkpt><trkpt lat="45.7751526" lon="13.6069262"><ele>48.0</ele><time>2026-03-28T12:24:27.097Z</time></trkpt><trkpt lat="45.7752284" lon="13.6066913"><ele>48.0</ele><time>2026-03-28T12:24:28.097Z</time></trkpt><trkpt lat="45.775303" lon="13.6064603"><ele>48.0</ele><time>2026-03-28T12:24:29.097Z</time></trkpt><trkpt lat="45.7753754" lon="13.6062268"><ele>48.0</ele><time>2026-03-28T12:24:30.103Z</time></trkpt><trkpt lat="45.7754504" lon="13.6059915"><ele>46.666666666666664</ele><time>2026-03-28T12:24:31.103Z</time></trkpt><trkpt lat="45.7755257" lon="13.6057513"><ele>45.33333333333333</ele><time>2026-03-28T12:24:32.104Z</time></trkpt><trkpt lat="45.7756013" lon="13.6055215"><ele>44.0</ele><time>2026-03-28T12:24:33.129Z</time></trkpt><trkpt lat="45.7756787" lon="13.6052923"><ele>43.0</ele><time>2026-03-28T12:24:34.111Z</time></trkpt><trkpt lat="45.775757" lon="13.6050601"><ele>42.0</ele><time>2026-03-28T12:24:35.111Z</time></trkpt><trkpt lat="45.7758341" lon="13.6048251"><ele>41.0</ele><time>2026-03-28T12:24:36.111Z</time></trkpt><trkpt lat="45.7759117" lon="13.6045841"><ele>40.666666666666664</ele><time>2026-03-28T12:24:37.11Z</time></trkpt><trkpt lat="45.7759904" lon="13.6043413"><ele>40.333333333333336</ele><time>2026-03-28T12:24:38.122Z</time></trkpt><trkpt lat="45.7760691" lon="13.6040995"><ele>40.0</ele><time>2026-03-28T12:24:39.107Z</time></trkpt><trkpt lat="45.7761427" lon="13.6038589"><ele>39.333333333333336</ele><time>2026-03-28T12:24:40.099Z</time></trkpt><trkpt lat="45.7762167" lon="13.6036208"><ele>38.666666666666664</ele><time>2026-03-28T12:24:41.117Z</time></trkpt><trkpt lat="45.7762889" lon="13.6033859"><ele>38.0</ele><time>2026-03-28T12:24:42.109Z</time></trkpt><trkpt lat="45.7763633" lon="13.6031538"><ele>38.0</ele><time>2026-03-28T12:24:43.124Z</time></trkpt><trkpt lat="45.776437" lon="13.6029227"><ele>38.0</ele><time>2026-03-28T12:24:44.111Z</time></trkpt><trkpt lat="45.7765141" lon="13.6026865"><ele>38.0</ele><time>2026-03-28T12:24:45.104Z</time></trkpt><trkpt lat="45.7765863" lon="13.6024542"><ele>36.666666666666664</ele><time>2026-03-28T12:24:46.105Z</time></trkpt><trkpt lat="45.7766556" lon="13.602231"><ele>35.333333333333336</ele><time>2026-03-28T12:24:47.104Z</time></trkpt><trkpt lat="45.7767205" lon="13.6020202"><ele>34.0</ele><time>2026-03-28T12:24:48.119Z</time></trkpt><trkpt lat="45.7767865" lon="13.60182"><ele>34.25</ele><time>2026-03-28T12:24:49.108Z</time></trkpt><trkpt lat="45.7768493" lon="13.6016347"><ele>34.5</ele><time>2026-03-28T12:24:50.112Z</time></trkpt><trkpt lat="45.7769089" lon="13.6014667"><ele>34.75</ele><time>2026-03-28T12:24:51.116Z</time></trkpt><trkpt lat="45.7769691" lon="13.6013104"><ele>35.0</ele><time>2026-03-28T12:24:52.117Z</time></trkpt><trkpt lat="45.7770312" lon="13.6011675"><ele>35.8</ele><time>2026-03-28T12:24:53.113Z</time></trkpt><trkpt lat="45.7770799" lon="13.6010582"><ele>36.6</ele><time>2026-03-28T12:24:54.11Z</time></trkpt><trkpt lat="45.7771324" lon="13.6009584"><ele>37.4</ele><time>2026-03-28T12:24:56.111Z</time></trkpt><trkpt lat="45.7771555" lon="13.6008716"><ele>38.2</ele><time>2026-03-28T12:24:58.117Z</time></trkpt><trkpt lat="45.7770608" lon="13.6007498"><ele>39.0</ele><time>2026-03-28T12:25:00.095Z</time></trkpt><trkpt lat="45.7769861" lon="13.6006873"><ele>39.0</ele><time>2026-03-28T12:25:01.094Z</time></trkpt><trkpt lat="45.7769035" lon="13.6006301"><ele>39.0</ele><time>2026-03-28T12:25:02.12Z</time></trkpt><trkpt lat="45.7768339" lon="13.6005796"><ele>39.0</ele><time>2026-03-28T12:25:03.112Z</time></trkpt><trkpt lat="45.776777" lon="13.6005171"><ele>39.0</ele><time>2026-03-28T12:25:04.095Z</time></trkpt><trkpt lat="45.7767307" lon="13.6004445"><ele>39.0</ele><time>2026-03-28T12:25:05.114Z</time></trkpt><trkpt lat="45.7767079" lon="13.6003465"><ele>39.0</ele><time>2026-03-28T12:25:06.122Z</time></trkpt><trkpt lat="45.776708" lon="13.6002127"><ele>38.6</ele><time>2026-03-28T12:25:07.094Z</time></trkpt><trkpt lat="45.7767197" lon="13.6000559"><ele>38.2</ele><time>2026-03-28T12:25:08.117Z</time></trkpt><trkpt lat="45.776746" lon="13.5999013"><ele>37.800000000000004</ele><time>2026-03-28T12:25:09.086Z</time></trkpt><trkpt lat="45.7767666" lon="13.5997653"><ele>37.4</ele><time>2026-03-28T12:25:10.117Z</time></trkpt><trkpt lat="45.7767859" lon="13.5996609"><ele>37.0</ele><time>2026-03-28T12:25:11.098Z</time></trkpt><trkpt lat="45.776818" lon="13.5994974"><ele>37.0</ele><time>2026-03-28T12:25:13.107Z</time></trkpt><trkpt lat="45.7768433" lon="13.5993692"><ele>37.0</ele><time>2026-03-28T12:25:15.12Z</time></trkpt><trkpt lat="45.7767741" lon="13.5993584"><ele>37.0</ele><time>2026-03-28T12:25:18.102Z</time></trkpt><trkpt lat="45.7767896" lon="13.5994699"><ele>37.0</ele><time>2026-03-28T12:48:03.112Z</time></trkpt><trkpt lat="45.7767758" lon="13.5995808"><ele>37.0</ele><time>2026-03-28T12:48:05.107Z</time></trkpt><trkpt lat="45.7767622" lon="13.5996734"><ele>37.0</ele><time>2026-03-28T12:48:07.11Z</time></trkpt><trkpt lat="45.7767368" lon="13.5998032"><ele>36.6</ele><time>2026-03-28T12:48:10.114Z</time></trkpt><trkpt lat="45.776726" lon="13.5999382"><ele>36.2</ele><time>2026-03-28T12:48:12.119Z</time></trkpt><trkpt lat="45.7767192" lon="13.6001023"><ele>35.8</ele><time>2026-03-28T12:48:14.118Z</time></trkpt><trkpt lat="45.7767187" lon="13.6002684"><ele>35.4</ele><time>2026-03-28T12:48:16.116Z</time></trkpt><trkpt lat="45.7767155" lon="13.6003971"><ele>35.0</ele><time>2026-03-28T12:48:18.114Z</time></trkpt><trkpt lat="45.776753" lon="13.6005063"><ele>34.666666666666664</ele><time>2026-03-28T12:48:20.104Z</time></trkpt><trkpt lat="45.7768422" lon="13.6005958"><ele>34.33333333333333</ele><time>2026-03-28T12:48:22.101Z</time></trkpt><trkpt lat="45.7768948" lon="13.6006483"><ele>34.0</ele><time>2026-03-28T12:48:23.126Z</time></trkpt><trkpt lat="45.7769756" lon="13.6007109"><ele>33.666666666666664</ele><time>2026-03-28T12:48:25.123Z</time></trkpt><trkpt lat="45.7770441" lon="13.6007699"><ele>33.333333333333336</ele><time>2026-03-28T12:48:27.119Z</time></trkpt><trkpt lat="45.7770889" lon="13.600842"><ele>33.0</ele><time>2026-03-28T12:48:29.121Z</time></trkpt><trkpt lat="45.7771797" lon="13.6008529"><ele>34.0</ele><time>2026-03-28T12:48:42.112Z</time></trkpt><trkpt lat="45.7772767" lon="13.6007586"><ele>35.0</ele><time>2026-03-28T12:48:44.106Z</time></trkpt><trkpt lat="45.7773265" lon="13.6006905"><ele>36.0</ele><time>2026-03-28T12:48:45.111Z</time></trkpt><trkpt lat="45.7773801" lon="13.600617"><ele>37.0</ele><time>2026-03-28T12:48:46.111Z</time></trkpt><trkpt lat="45.7774415" lon="13.6005384"><ele>38.0</ele><time>2026-03-28T12:48:47.113Z</time></trkpt><trkpt lat="45.7775134" lon="13.6004576"><ele>39.0</ele><time>2026-03-28T12:48:48.114Z</time></trkpt><trkpt lat="45.7775878" lon="13.6003723"><ele>39.0</ele><time>2026-03-28T12:48:49.104Z</time></trkpt><trkpt lat="45.7776591" lon="13.6002919"><ele>39.0</ele><time>2026-03-28T12:48:50.123Z</time></trkpt><trkpt lat="45.7777268" lon="13.6002116"><ele>39.0</ele><time>2026-03-28T12:48:51.117Z</time></trkpt><trkpt lat="45.7777977" lon="13.6001299"><ele>39.0</ele><time>2026-03-28T12:48:52.112Z</time></trkpt><trkpt lat="45.7778684" lon="13.6000481"><ele>39.0</ele><time>2026-03-28T12:48:53.108Z</time></trkpt><trkpt lat="45.7779391" lon="13.5999625"><ele>39.0</ele><time>2026-03-28T12:48:54.118Z</time></trkpt><trkpt lat="45.7780119" lon="13.5998773"><ele>39.0</ele><time>2026-03-28T12:48:55.102Z</time></trkpt><trkpt lat="45.7780823" lon="13.5997893"><ele>39.0</ele><time>2026-03-28T12:48:56.11Z</time></trkpt><trkpt lat="45.7781559" lon="13.5997015"><ele>39.0</ele><time>2026-03-28T12:48:57.109Z</time></trkpt><trkpt lat="45.7782297" lon="13.5996138"><ele>39.0</ele><time>2026-03-28T12:48:58.105Z</time></trkpt><trkpt lat="45.7783037" lon="13.5995307"><ele>38.8</ele><time>2026-03-28T12:48:59.105Z</time></trkpt><trkpt lat="45.7783786" lon="13.5994491"><ele>38.599999999999994</ele><time>2026-03-28T12:49:00.113Z</time></trkpt><trkpt lat="45.7784528" lon="13.5993682"><ele>38.4</ele><time>2026-03-28T12:49:01.104Z</time></trkpt><trkpt lat="45.778526" lon="13.5992848"><ele>38.199999999999996</ele><time>2026-03-28T12:49:02.101Z</time></trkpt><trkpt lat="45.7785972" lon="13.5992011"><ele>38.0</ele><time>2026-03-28T12:49:03.11Z</time></trkpt><trkpt lat="45.7786674" lon="13.5991233"><ele>37.199999999999996</ele><time>2026-03-28T12:49:04.106Z</time></trkpt><trkpt lat="45.7787395" lon="13.5990486"><ele>36.4</ele><time>2026-03-28T12:49:05.105Z</time></trkpt><trkpt lat="45.7788101" lon="13.5989727"><ele>35.599999999999994</ele><time>2026-03-28T12:49:06.109Z</time></trkpt><trkpt lat="45.7788808" lon="13.5988927"><ele>34.8</ele><time>2026-03-28T12:49:07.103Z</time></trkpt><trkpt lat="45.7789525" lon="13.5988059"><ele>34.0</ele><time>2026-03-28T12:49:08.105Z</time></trkpt><trkpt lat="45.7790252" lon="13.5987149"><ele>33.8</ele><time>2026-03-28T12:49:09.098Z</time></trkpt><trkpt lat="45.7791036" lon="13.598628"><ele>33.599999999999994</ele><time>2026-03-28T12:49:10.111Z</time></trkpt><trkpt lat="45.779188" lon="13.5985396"><ele>33.4</ele><time>2026-03-28T12:49:11.104Z</time></trkpt><trkpt lat="45.7792696" lon="13.5984405"><ele>33.199999999999996</ele><time>2026-03-28T12:49:12.1Z</time></trkpt><trkpt lat="45.7793425" lon="13.5983551"><ele>33.0</ele><time>2026-03-28T12:49:13.104Z</time></trkpt><trkpt lat="45.7794007" lon="13.5982905"><ele>33.0</ele><time>2026-03-28T12:49:14.116Z</time></trkpt><trkpt lat="45.7794956" lon="13.5981822"><ele>33.0</ele><time>2026-03-28T12:49:16.128Z</time></trkpt><trkpt lat="45.7795573" lon="13.5981007"><ele>33.0</ele><time>2026-03-28T12:49:17.116Z</time></trkpt><trkpt lat="45.7796325" lon="13.5980074"><ele>33.0</ele><time>2026-03-28T12:49:18.12Z</time></trkpt><trkpt lat="45.7797104" lon="13.5979194"><ele>33.0</ele><time>2026-03-28T12:49:19.112Z</time></trkpt><trkpt lat="45.7797937" lon="13.5978211"><ele>32.8</ele><time>2026-03-28T12:49:20.122Z</time></trkpt><trkpt lat="45.7798824" lon="13.5977214"><ele>32.599999999999994</ele><time>2026-03-28T12:49:21.105Z</time></trkpt><trkpt lat="45.7799696" lon="13.5976272"><ele>32.400000000000006</ele><time>2026-03-28T12:49:22.112Z</time></trkpt><trkpt lat="45.7800582" lon="13.5975291"><ele>32.2</ele><time>2026-03-28T12:49:23.112Z</time></trkpt><trkpt lat="45.7801512" lon="13.5974363"><ele>32.0</ele><time>2026-03-28T12:49:24.111Z</time></trkpt><trkpt lat="45.7802492" lon="13.5973473"><ele>32.0</ele><time>2026-03-28T12:49:25.129Z</time></trkpt><trkpt lat="45.7803537" lon="13.5972652"><ele>32.0</ele><time>2026-03-28T12:49:26.115Z</time></trkpt><trkpt lat="45.7804718" lon="13.5971984"><ele>32.0</ele><time>2026-03-28T12:49:27.116Z</time></trkpt><trkpt lat="45.7806035" lon="13.5971407"><ele>32.0</ele><time>2026-03-28T12:49:28.117Z</time></trkpt><trkpt lat="45.7807425" lon="13.5970963"><ele>32.0</ele><time>2026-03-28T12:49:29.118Z</time></trkpt><trkpt lat="45.780882" lon="13.597061"><ele>32.0</ele><time>2026-03-28T12:49:30.12Z</time></trkpt><trkpt lat="45.7810292" lon="13.5970482"><ele>32.0</ele><time>2026-03-28T12:49:31.104Z</time></trkpt><trkpt lat="45.7811718" lon="13.5970405"><ele>32.0</ele><time>2026-03-28T12:49:32.113Z</time></trkpt><trkpt lat="45.7813093" lon="13.5970377"><ele>31.0</ele><time>2026-03-28T12:49:33.113Z</time></trkpt><trkpt lat="45.7814457" lon="13.59703"><ele>30.0</ele><time>2026-03-28T12:49:34.113Z</time></trkpt><trkpt lat="45.7815845" lon="13.597024"><ele>29.0</ele><time>2026-03-28T12:49:35.111Z</time></trkpt><trkpt lat="45.7817116" lon="13.5970145"><ele>28.0</ele><time>2026-03-28T12:49:36.12Z</time></trkpt><trkpt lat="45.781837" lon="13.597003"><ele>26.25</ele><time>2026-03-28T12:49:37.11Z</time></trkpt><trkpt lat="45.7819652" lon="13.5969935"><ele>24.5</ele><time>2026-03-28T12:49:38.117Z</time></trkpt><trkpt lat="45.7820992" lon="13.5969839"><ele>22.75</ele><time>2026-03-28T12:49:39.11Z</time></trkpt><trkpt lat="45.7822337" lon="13.5969763"><ele>21.0</ele><time>2026-03-28T12:49:40.104Z</time></trkpt><trkpt lat="45.7823695" lon="13.5969756"><ele>21.0</ele><time>2026-03-28T12:49:41.118Z</time></trkpt><trkpt lat="45.7825072" lon="13.5969693"><ele>21.0</ele><time>2026-03-28T12:49:42.12Z</time></trkpt><trkpt lat="45.7826487" lon="13.5969719"><ele>21.0</ele><time>2026-03-28T12:49:43.121Z</time></trkpt><trkpt lat="45.7827844" lon="13.5969639"><ele>21.0</ele><time>2026-03-28T12:49:44.112Z</time></trkpt><trkpt lat="45.7829155" lon="13.5969567"><ele>21.5</ele><time>2026-03-28T12:49:45.111Z</time></trkpt><trkpt lat="45.7830415" lon="13.5969449"><ele>22.0</ele><time>2026-03-28T12:49:46.118Z</time></trkpt><trkpt lat="45.7831691" lon="13.5969333"><ele>22.5</ele><time>2026-03-28T12:49:47.119Z</time></trkpt><trkpt lat="45.7832966" lon="13.5969125"><ele>23.0</ele><time>2026-03-28T12:49:48.121Z</time></trkpt><trkpt lat="45.7834248" lon="13.5968724"><ele>23.0</ele><time>2026-03-28T12:49:49.111Z</time></trkpt><trkpt lat="45.7835518" lon="13.5968186"><ele>23.0</ele><time>2026-03-28T12:49:50.117Z</time></trkpt><trkpt lat="45.7836818" lon="13.596757"><ele>23.0</ele><time>2026-03-28T12:49:51.111Z</time></trkpt><trkpt lat="45.7838059" lon="13.5966762"><ele>23.0</ele><time>2026-03-28T12:49:52.109Z</time></trkpt><trkpt lat="45.7839184" lon="13.5965762"><ele>23.0</ele><time>2026-03-28T12:49:53.113Z</time></trkpt><trkpt lat="45.7840252" lon="13.5964634"><ele>23.0</ele><time>2026-03-28T12:49:54.1Z</time></trkpt><trkpt lat="45.7841323" lon="13.5963376"><ele>23.0</ele><time>2026-03-28T12:49:55.105Z</time></trkpt><trkpt lat="45.7842328" lon="13.5962043"><ele>23.0</ele><time>2026-03-28T12:49:56.104Z</time></trkpt><trkpt lat="45.7843225" lon="13.5960613"><ele>23.25</ele><time>2026-03-28T12:49:57.101Z</time></trkpt><trkpt lat="45.784399" lon="13.5959028"><ele>23.5</ele><time>2026-03-28T12:49:58.107Z</time></trkpt><trkpt lat="45.7844663" lon="13.5957269"><ele>23.75</ele><time>2026-03-28T12:49:59.112Z</time></trkpt><trkpt lat="45.7845324" lon="13.5955389"><ele>24.0</ele><time>2026-03-28T12:50:00.124Z</time></trkpt><trkpt lat="45.7846044" lon="13.5953517"><ele>23.25</ele><time>2026-03-28T12:50:01.106Z</time></trkpt><trkpt lat="45.7846775" lon="13.5951703"><ele>22.5</ele><time>2026-03-28T12:50:02.115Z</time></trkpt><trkpt lat="45.7847496" lon="13.5949952"><ele>21.75</ele><time>2026-03-28T12:50:03.115Z</time></trkpt><trkpt lat="45.7848246" lon="13.5948181"><ele>21.0</ele><time>2026-03-28T12:50:04.119Z</time></trkpt><trkpt lat="45.7849012" lon="13.5946413"><ele>20.5</ele><time>2026-03-28T12:50:05.111Z</time></trkpt><trkpt lat="45.7849789" lon="13.5944762"><ele>20.0</ele><time>2026-03-28T12:50:06.12Z</time></trkpt><trkpt lat="45.7850618" lon="13.5943342"><ele>19.5</ele><time>2026-03-28T12:50:07.116Z</time></trkpt><trkpt lat="45.7851542" lon="13.5942117"><ele>19.0</ele><time>2026-03-28T12:50:08.116Z</time></trkpt><trkpt lat="45.7852525" lon="13.5941104"><ele>19.0</ele><time>2026-03-28T12:50:09.114Z</time></trkpt><trkpt lat="45.7853524" lon="13.5940267"><ele>19.0</ele><time>2026-03-28T12:50:10.107Z</time></trkpt><trkpt lat="45.7854574" lon="13.5939633"><ele>19.0</ele><time>2026-03-28T12:50:11.114Z</time></trkpt><trkpt lat="45.785569" lon="13.5939142"><ele>19.0</ele><time>2026-03-28T12:50:12.116Z</time></trkpt><trkpt lat="45.785695" lon="13.5938952"><ele>19.0</ele><time>2026-03-28T12:50:13.11Z</time></trkpt><trkpt lat="45.7858239" lon="13.5938826"><ele>19.0</ele><time>2026-03-28T12:50:14.123Z</time></trkpt><trkpt lat="45.7859534" lon="13.5938748"><ele>19.0</ele><time>2026-03-28T12:50:15.109Z</time></trkpt><trkpt lat="45.7860794" lon="13.5938563"><ele>19.0</ele><time>2026-03-28T12:50:16.115Z</time></trkpt><trkpt lat="45.7861956" lon="13.5938086"><ele>19.25</ele><time>2026-03-28T12:50:17.107Z</time></trkpt><trkpt lat="45.7863072" lon="13.5937516"><ele>19.5</ele><time>2026-03-28T12:50:18.118Z</time></trkpt><trkpt lat="45.7864191" lon="13.5936819"><ele>19.75</ele><time>2026-03-28T12:50:19.116Z</time></trkpt><trkpt lat="45.7865376" lon="13.5936056"><ele>20.0</ele><time>2026-03-28T12:50:20.116Z</time></trkpt><trkpt lat="45.7866606" lon="13.5935184"><ele>19.0</ele><time>2026-03-28T12:50:21.114Z</time></trkpt><trkpt lat="45.786773" lon="13.5934065"><ele>18.0</ele><time>2026-03-28T12:50:22.112Z</time></trkpt><trkpt lat="45.7868776" lon="13.5932755"><ele>17.0</ele><time>2026-03-28T12:50:23.112Z</time></trkpt><trkpt lat="45.7869787" lon="13.5931452"><ele>16.0</ele><time>2026-03-28T12:50:24.118Z</time></trkpt><trkpt lat="45.7870823" lon="13.5930138"><ele>16.0</ele><time>2026-03-28T12:50:25.121Z</time></trkpt><trkpt lat="45.7871815" lon="13.5928854"><ele>16.0</ele><time>2026-03-28T12:50:26.113Z</time></trkpt><trkpt lat="45.7872788" lon="13.5927584"><ele>16.0</ele><time>2026-03-28T12:50:27.105Z</time></trkpt><trkpt lat="45.7873779" lon="13.5926362"><ele>16.0</ele><time>2026-03-28T12:50:28.113Z</time></trkpt><trkpt lat="45.7874761" lon="13.5925143"><ele>16.25</ele><time>2026-03-28T12:50:29.11Z</time></trkpt><trkpt lat="45.7875745" lon="13.5923949"><ele>16.5</ele><time>2026-03-28T12:50:30.119Z</time></trkpt><trkpt lat="45.7876686" lon="13.5922837"><ele>16.75</ele><time>2026-03-28T12:50:31.102Z</time></trkpt><trkpt lat="45.7877595" lon="13.5921786"><ele>17.0</ele><time>2026-03-28T12:50:32.1Z</time></trkpt><trkpt lat="45.787848" lon="13.5920798"><ele>14.25</ele><time>2026-03-28T12:50:33.103Z</time></trkpt><trkpt lat="45.7879491" lon="13.5919948"><ele>11.5</ele><time>2026-03-28T12:50:34.099Z</time></trkpt><trkpt lat="45.788072" lon="13.5919283"><ele>8.75</ele><time>2026-03-28T12:50:35.104Z</time></trkpt><trkpt lat="45.7882037" lon="13.5918725"><ele>6.0</ele><time>2026-03-28T12:50:36.108Z</time></trkpt><trkpt lat="45.788341" lon="13.5918266"><ele>6.0</ele><time>2026-03-28T12:50:37.119Z</time></trkpt><trkpt lat="45.7884724" lon="13.5917883"><ele>6.0</ele><time>2026-03-28T12:50:38.109Z</time></trkpt><trkpt lat="45.7886057" lon="13.5917467"><ele>6.0</ele><time>2026-03-28T12:50:39.114Z</time></trkpt><trkpt lat="45.7887409" lon="13.5917045"><ele>6.0</ele><time>2026-03-28T12:50:40.12Z</time></trkpt><trkpt lat="45.7888772" lon="13.5916571"><ele>8.25</ele><time>2026-03-28T12:50:41.104Z</time></trkpt><trkpt lat="45.789011" lon="13.5916043"><ele>10.5</ele><time>2026-03-28T12:50:42.119Z</time></trkpt><trkpt lat="45.7891449" lon="13.5915536"><ele>12.75</ele><time>2026-03-28T12:50:43.106Z</time></trkpt><trkpt lat="45.789279" lon="13.5915034"><ele>15.0</ele><time>2026-03-28T12:50:44.11Z</time></trkpt><trkpt lat="45.7894069" lon="13.5914582"><ele>16.0</ele><time>2026-03-28T12:50:45.127Z</time></trkpt><trkpt lat="45.7895307" lon="13.5914124"><ele>17.0</ele><time>2026-03-28T12:50:46.111Z</time></trkpt><trkpt lat="45.78965" lon="13.5913722"><ele>18.0</ele><time>2026-03-28T12:50:47.108Z</time></trkpt><trkpt lat="45.7897702" lon="13.5913351"><ele>19.0</ele><time>2026-03-28T12:50:48.115Z</time></trkpt><trkpt lat="45.7898948" lon="13.5912954"><ele>19.0</ele><time>2026-03-28T12:50:49.126Z</time></trkpt><trkpt lat="45.7900195" lon="13.5912568"><ele>19.0</ele><time>2026-03-28T12:50:50.118Z</time></trkpt><trkpt lat="45.7901409" lon="13.591212"><ele>19.0</ele><time>2026-03-28T12:50:51.118Z</time></trkpt><trkpt lat="45.7902618" lon="13.5911747"><ele>19.0</ele><time>2026-03-28T12:50:52.126Z</time></trkpt><trkpt lat="45.7903915" lon="13.5911395"><ele>18.5</ele><time>2026-03-28T12:50:53.113Z</time></trkpt><trkpt lat="45.7905205" lon="13.5911052"><ele>18.0</ele><time>2026-03-28T12:50:54.112Z</time></trkpt><trkpt lat="45.7906425" lon="13.5910659"><ele>17.5</ele><time>2026-03-28T12:50:55.113Z</time></trkpt><trkpt lat="45.7907604" lon="13.5910293"><ele>17.0</ele><time>2026-03-28T12:50:56.105Z</time></trkpt><trkpt lat="45.7908796" lon="13.5909915"><ele>17.0</ele><time>2026-03-28T12:50:57.107Z</time></trkpt><trkpt lat="45.7910035" lon="13.5909549"><ele>17.0</ele><time>2026-03-28T12:50:58.117Z</time></trkpt><trkpt lat="45.7911373" lon="13.5909112"><ele>17.0</ele><time>2026-03-28T12:50:59.119Z</time></trkpt><trkpt lat="45.7912822" lon="13.5908687"><ele>17.0</ele><time>2026-03-28T12:51:00.122Z</time></trkpt><trkpt lat="45.7914304" lon="13.5908248"><ele>18.5</ele><time>2026-03-28T12:51:01.112Z</time></trkpt><trkpt lat="45.7915754" lon="13.590784"><ele>20.0</ele><time>2026-03-28T12:51:02.11Z</time></trkpt><trkpt lat="45.7917167" lon="13.5907405"><ele>21.5</ele><time>2026-03-28T12:51:03.118Z</time></trkpt><trkpt lat="45.7918527" lon="13.5906959"><ele>23.0</ele><time>2026-03-28T12:51:04.108Z</time></trkpt><trkpt lat="45.7919864" lon="13.5906517"><ele>23.75</ele><time>2026-03-28T12:51:05.109Z</time></trkpt><trkpt lat="45.7921139" lon="13.5906069"><ele>24.5</ele><time>2026-03-28T12:51:06.112Z</time></trkpt><trkpt lat="45.7922366" lon="13.5905682"><ele>25.25</ele><time>2026-03-28T12:51:07.11Z</time></trkpt><trkpt lat="45.7923487" lon="13.5905304"><ele>26.0</ele><time>2026-03-28T12:51:08.126Z</time></trkpt><trkpt lat="45.7924555" lon="13.5904917"><ele>25.999999999999996</ele><time>2026-03-28T12:51:09.118Z</time></trkpt><trkpt lat="45.7925516" lon="13.5904664"><ele>26.0</ele><time>2026-03-28T12:51:10.117Z</time></trkpt><trkpt lat="45.7926396" lon="13.59044"><ele>26.0</ele><time>2026-03-28T12:51:11.123Z</time></trkpt><trkpt lat="45.7927161" lon="13.5904049"><ele>26.0</ele><time>2026-03-28T12:51:12.121Z</time></trkpt><trkpt lat="45.7927825" lon="13.5903647"><ele>25.999999999999996</ele><time>2026-03-28T12:51:13.107Z</time></trkpt><trkpt lat="45.792868" lon="13.5903246"><ele>26.0</ele><time>2026-03-28T12:51:15.113Z</time></trkpt><trkpt lat="45.7929326" lon="13.5904447"><ele>26.57142857142857</ele><time>2026-03-28T12:51:18.11Z</time></trkpt><trkpt lat="45.7929559" lon="13.5905604"><ele>27.142857142857146</ele><time>2026-03-28T12:51:19.107Z</time></trkpt><trkpt lat="45.7929814" lon="13.5906637"><ele>27.714285714285715</ele><time>2026-03-28T12:51:20.108Z</time></trkpt><trkpt lat="45.7930081" lon="13.5907648"><ele>28.285714285714285</ele><time>2026-03-28T12:51:21.112Z</time></trkpt><trkpt lat="45.793031" lon="13.5908556"><ele>28.857142857142854</ele><time>2026-03-28T12:51:22.117Z</time></trkpt><trkpt lat="45.7930568" lon="13.5909451"><ele>29.42857142857143</ele><time>2026-03-28T12:51:23.104Z</time></trkpt><trkpt lat="45.7930899" lon="13.5910242"><ele>30.0</ele><time>2026-03-28T12:51:24.12Z</time></trkpt><trkpt lat="45.7931792" lon="13.5910723"><ele>30.0</ele><time>2026-03-28T12:51:26.115Z</time></trkpt><trkpt lat="45.7933014" lon="13.5909961"><ele>30.0</ele><time>2026-03-28T12:51:28.115Z</time></trkpt><trkpt lat="45.7933702" lon="13.59094"><ele>30.0</ele><time>2026-03-28T12:51:29.103Z</time></trkpt><trkpt lat="45.7934506" lon="13.5909009"><ele>30.0</ele><time>2026-03-28T12:51:30.115Z</time></trkpt><trkpt lat="45.7935359" lon="13.5908941"><ele>30.0</ele><time>2026-03-28T12:51:31.103Z</time></trkpt><trkpt lat="45.7936203" lon="13.5908962"><ele>32.0</ele><time>2026-03-28T12:51:32.11Z</time></trkpt><trkpt lat="45.7937086" lon="13.5908728"><ele>34.0</ele><time>2026-03-28T12:51:33.111Z</time></trkpt><trkpt lat="45.7938085" lon="13.5908453"><ele>36.0</ele><time>2026-03-28T12:51:34.109Z</time></trkpt><trkpt lat="45.7939006" lon="13.5908222"><ele>38.0</ele><time>2026-03-28T12:51:35.117Z</time></trkpt><trkpt lat="45.7939744" lon="13.5907805"><ele>40.0</ele><time>2026-03-28T12:51:36.117Z</time></trkpt><trkpt lat="45.7940316" lon="13.5907075"><ele>42.0</ele><time>2026-03-28T12:51:37.12Z</time></trkpt><trkpt lat="45.7940811" lon="13.5906014"><ele>42.0</ele><time>2026-03-28T12:51:38.103Z</time></trkpt><trkpt lat="45.7941495" lon="13.590504"><ele>42.0</ele><time>2026-03-28T12:51:39.106Z</time></trkpt><trkpt lat="45.79423" lon="13.5904397"><ele>42.0</ele><time>2026-03-28T12:51:40.115Z</time></trkpt><trkpt lat="45.794314" lon="13.5903831"><ele>42.0</ele><time>2026-03-28T12:51:41.112Z</time></trkpt><trkpt lat="45.7943875" lon="13.5903089"><ele>42.0</ele><time>2026-03-28T12:51:42.124Z</time></trkpt><trkpt lat="45.7944495" lon="13.5902203"><ele>43.666666666666664</ele><time>2026-03-28T12:51:43.107Z</time></trkpt><trkpt lat="45.7945131" lon="13.5901257"><ele>45.33333333333333</ele><time>2026-03-28T12:51:44.112Z</time></trkpt><trkpt lat="45.7945817" lon="13.5900375"><ele>47.0</ele><time>2026-03-28T12:51:45.107Z</time></trkpt><trkpt lat="45.7946431" lon="13.5899519"><ele>48.666666666666664</ele><time>2026-03-28T12:51:46.12Z</time></trkpt><trkpt lat="45.7947012" lon="13.5898694"><ele>50.33333333333333</ele><time>2026-03-28T12:51:47.106Z</time></trkpt><trkpt lat="45.7947753" lon="13.5898122"><ele>52.0</ele><time>2026-03-28T12:51:48.117Z</time></trkpt><trkpt lat="45.7948599" lon="13.5897773"><ele>52.0</ele><time>2026-03-28T12:51:49.112Z</time></trkpt><trkpt lat="45.794943" lon="13.5897566"><ele>52.0</ele><time>2026-03-28T12:51:50.106Z</time></trkpt><trkpt lat="45.7950245" lon="13.5897415"><ele>52.0</ele><time>2026-03-28T12:51:51.119Z</time></trkpt><trkpt lat="45.7951016" lon="13.5897435"><ele>52.0</ele><time>2026-03-28T12:51:52.12Z</time></trkpt><trkpt lat="45.7951677" lon="13.5897683"><ele>52.0</ele><time>2026-03-28T12:51:53.114Z</time></trkpt><trkpt lat="45.7952293" lon="13.589788"><ele>52.0</ele><time>2026-03-28T12:51:54.119Z</time></trkpt><trkpt lat="45.7952927" lon="13.5897891"><ele>52.0</ele><time>2026-03-28T12:51:55.121Z</time></trkpt><trkpt lat="45.7953643" lon="13.5897675"><ele>53.83333333333333</ele><time>2026-03-28T12:51:56.114Z</time></trkpt><trkpt lat="45.7954377" lon="13.5897492"><ele>55.666666666666664</ele><time>2026-03-28T12:51:57.111Z</time></trkpt><trkpt lat="45.7955158" lon="13.5897257"><ele>57.5</ele><time>2026-03-28T12:51:58.126Z</time></trkpt><trkpt lat="45.7956051" lon="13.589685"><ele>59.33333333333333</ele><time>2026-03-28T12:51:59.117Z</time></trkpt><trkpt lat="45.7956918" lon="13.5896238"><ele>61.166666666666664</ele><time>2026-03-28T12:52:00.111Z</time></trkpt><trkpt lat="45.7957646" lon="13.5895675"><ele>63.0</ele><time>2026-03-28T12:52:01.106Z</time></trkpt><trkpt lat="45.7958779" lon="13.5895626"><ele>63.0</ele><time>2026-03-28T12:52:03.116Z</time></trkpt><trkpt lat="45.7959826" lon="13.5896722"><ele>63.0</ele><time>2026-03-28T12:52:05.114Z</time></trkpt><trkpt lat="45.7960436" lon="13.5897637"><ele>63.0</ele><time>2026-03-28T12:52:06.113Z</time></trkpt><trkpt lat="45.7961059" lon="13.5898532"><ele>63.0</ele><time>2026-03-28T12:52:07.115Z</time></trkpt><trkpt lat="45.7961899" lon="13.5899114"><ele>63.0</ele><time>2026-03-28T12:52:08.116Z</time></trkpt><trkpt lat="45.7962901" lon="13.5899688"><ele>62.25</ele><time>2026-03-28T12:52:09.098Z</time></trkpt><trkpt lat="45.7963859" lon="13.5900627"><ele>61.5</ele><time>2026-03-28T12:52:10.121Z</time></trkpt><trkpt lat="45.7964751" lon="13.5901766"><ele>60.75</ele><time>2026-03-28T12:52:11.115Z</time></trkpt><trkpt lat="45.7965695" lon="13.5902761"><ele>60.0</ele><time>2026-03-28T12:52:12.119Z</time></trkpt><trkpt lat="45.7966751" lon="13.5903527"><ele>62.5</ele><time>2026-03-28T12:52:13.113Z</time></trkpt><trkpt lat="45.796793" lon="13.5904226"><ele>65.0</ele><time>2026-03-28T12:52:14.106Z</time></trkpt><trkpt lat="45.7969178" lon="13.5904947"><ele>67.5</ele><time>2026-03-28T12:52:15.105Z</time></trkpt><trkpt lat="45.7970362" lon="13.5905618"><ele>70.0</ele><time>2026-03-28T12:52:16.105Z</time></trkpt><trkpt lat="45.7971408" lon="13.5906399"><ele>70.0</ele><time>2026-03-28T12:52:17.117Z</time></trkpt><trkpt lat="45.7972307" lon="13.5907383"><ele>70.0</ele><time>2026-03-28T12:52:18.114Z</time></trkpt><trkpt lat="45.7973259" lon="13.5908235"><ele>70.0</ele><time>2026-03-28T12:52:19.121Z</time></trkpt><trkpt lat="45.7974254" lon="13.5909018"><ele>70.0</ele><time>2026-03-28T12:52:20.112Z</time></trkpt><trkpt lat="45.797532" lon="13.5909811"><ele>70.0</ele><time>2026-03-28T12:52:21.107Z</time></trkpt><trkpt lat="45.7976351" lon="13.5910682"><ele>70.0</ele><time>2026-03-28T12:52:22.118Z</time></trkpt><trkpt lat="45.7977267" lon="13.5911715"><ele>70.0</ele><time>2026-03-28T12:52:23.113Z</time></trkpt><trkpt lat="45.7978092" lon="13.5912879"><ele>70.0</ele><time>2026-03-28T12:52:24.109Z</time></trkpt><trkpt lat="45.7978768" lon="13.5913985"><ele>71.71428571428571</ele><time>2026-03-28T12:52:25.108Z</time></trkpt><trkpt lat="45.7979313" lon="13.5915028"><ele>73.42857142857143</ele><time>2026-03-28T12:52:26.114Z</time></trkpt><trkpt lat="45.797965" lon="13.5915983"><ele>75.14285714285714</ele><time>2026-03-28T12:52:27.118Z</time></trkpt><trkpt lat="45.7979908" lon="13.5916907"><ele>76.85714285714286</ele><time>2026-03-28T12:52:28.109Z</time></trkpt><trkpt lat="45.7980203" lon="13.5917799"><ele>78.57142857142857</ele><time>2026-03-28T12:52:29.104Z</time></trkpt><trkpt lat="45.7980515" lon="13.5918724"><ele>80.28571428571428</ele><time>2026-03-28T12:52:30.111Z</time></trkpt><trkpt lat="45.798079" lon="13.591971"><ele>82.0</ele><time>2026-03-28T12:52:31.11Z</time></trkpt><trkpt lat="45.7980964" lon="13.5920778"><ele>83.8</ele><time>2026-03-28T12:52:32.116Z</time></trkpt><trkpt lat="45.7981" lon="13.5921964"><ele>85.6</ele><time>2026-03-28T12:52:33.118Z</time></trkpt><trkpt lat="45.798102" lon="13.5923202"><ele>87.39999999999999</ele><time>2026-03-28T12:52:34.12Z</time></trkpt><trkpt lat="45.7980985" lon="13.5924526"><ele>89.19999999999999</ele><time>2026-03-28T12:52:35.123Z</time></trkpt><trkpt lat="45.798092" lon="13.5925951"><ele>91.0</ele><time>2026-03-28T12:52:36.108Z</time></trkpt><trkpt lat="45.7980877" lon="13.5927377"><ele>92.83333333333333</ele><time>2026-03-28T12:52:37.107Z</time></trkpt><trkpt lat="45.7980918" lon="13.5928644"><ele>94.66666666666666</ele><time>2026-03-28T12:52:38.123Z</time></trkpt><trkpt lat="45.7981025" lon="13.5929821"><ele>96.5</ele><time>2026-03-28T12:52:39.111Z</time></trkpt><trkpt lat="45.798132" lon="13.5930987"><ele>98.33333333333333</ele><time>2026-03-28T12:52:40.114Z</time></trkpt><trkpt lat="45.798169" lon="13.5932117"><ele>100.16666666666667</ele><time>2026-03-28T12:52:41.102Z</time></trkpt><trkpt lat="45.7982077" lon="13.5933279"><ele>102.0</ele><time>2026-03-28T12:52:42.112Z</time></trkpt><trkpt lat="45.7982294" lon="13.5934518"><ele>102.0</ele><time>2026-03-28T12:52:43.113Z</time></trkpt><trkpt lat="45.7982449" lon="13.5935772"><ele>102.0</ele><time>2026-03-28T12:52:44.11Z</time></trkpt><trkpt lat="45.7982687" lon="13.593697"><ele>102.0</ele><time>2026-03-28T12:52:45.123Z</time></trkpt><trkpt lat="45.7983009" lon="13.5938188"><ele>102.0</ele><time>2026-03-28T12:52:46.11Z</time></trkpt><trkpt lat="45.7983363" lon="13.5939406"><ele>102.0</ele><time>2026-03-28T12:52:47.108Z</time></trkpt><trkpt lat="45.7983734" lon="13.5940653"><ele>104.39999999999999</ele><time>2026-03-28T12:52:48.125Z</time></trkpt><trkpt lat="45.79841" lon="13.5941923"><ele>106.8</ele><time>2026-03-28T12:52:49.11Z</time></trkpt><trkpt lat="45.7984445" lon="13.5943231"><ele>109.2</ele><time>2026-03-28T12:52:50.135Z</time></trkpt><trkpt lat="45.7984733" lon="13.5944466"><ele>111.6</ele><time>2026-03-28T12:52:51.115Z</time></trkpt><trkpt lat="45.7985028" lon="13.59456"><ele>114.0</ele><time>2026-03-28T12:52:52.125Z</time></trkpt><trkpt lat="45.7985406" lon="13.5946699"><ele>117.16666666666667</ele><time>2026-03-28T12:52:53.111Z</time></trkpt><trkpt lat="45.7985776" lon="13.5947787"><ele>120.33333333333334</ele><time>2026-03-28T12:52:54.123Z</time></trkpt><trkpt lat="45.7986137" lon="13.5948818"><ele>123.5</ele><time>2026-03-28T12:52:55.126Z</time></trkpt><trkpt lat="45.7986595" lon="13.5949734"><ele>126.66666666666667</ele><time>2026-03-28T12:52:56.123Z</time></trkpt><trkpt lat="45.7987018" lon="13.5950718"><ele>129.83333333333334</ele><time>2026-03-28T12:52:57.121Z</time></trkpt><trkpt lat="45.7987315" lon="13.5951839"><ele>133.0</ele><time>2026-03-28T12:52:58.12Z</time></trkpt><trkpt lat="45.7987539" lon="13.5953075"><ele>134.20000000000002</ele><time>2026-03-28T12:52:59.118Z</time></trkpt><trkpt lat="45.7987813" lon="13.5954403"><ele>135.4</ele><time>2026-03-28T12:53:00.116Z</time></trkpt><trkpt lat="45.7988212" lon="13.5955657"><ele>136.60000000000002</ele><time>2026-03-28T12:53:01.115Z</time></trkpt><trkpt lat="45.7988641" lon="13.5956775"><ele>137.8</ele><time>2026-03-28T12:53:02.12Z</time></trkpt><trkpt lat="45.7989007" lon="13.5957888"><ele>139.0</ele><time>2026-03-28T12:53:03.118Z</time></trkpt><trkpt lat="45.7989463" lon="13.5958962"><ele>139.0</ele><time>2026-03-28T12:53:04.125Z</time></trkpt><trkpt lat="45.799006" lon="13.596001"><ele>139.0</ele><time>2026-03-28T12:53:05.115Z</time></trkpt><trkpt lat="45.7990759" lon="13.5960897"><ele>139.0</ele><time>2026-03-28T12:53:06.116Z</time></trkpt><trkpt lat="45.799155" lon="13.5961763"><ele>139.0</ele><time>2026-03-28T12:53:07.118Z</time></trkpt><trkpt lat="45.7992393" lon="13.596258"><ele>139.0</ele><time>2026-03-28T12:53:08.12Z</time></trkpt><trkpt lat="45.7993235" lon="13.5963423"><ele>139.4</ele><time>2026-03-28T12:53:09.116Z</time></trkpt><trkpt lat="45.7994038" lon="13.596426"><ele>139.8</ele><time>2026-03-28T12:53:10.119Z</time></trkpt><trkpt lat="45.7994842" lon="13.5965122"><ele>140.2</ele><time>2026-03-28T12:53:11.116Z</time></trkpt><trkpt lat="45.7995639" lon="13.5966005"><ele>140.6</ele><time>2026-03-28T12:53:12.123Z</time></trkpt><trkpt lat="45.7996455" lon="13.5966811"><ele>141.0</ele><time>2026-03-28T12:53:13.147Z</time></trkpt><trkpt lat="45.799725" lon="13.596754"><ele>141.0</ele><time>2026-03-28T12:53:14.125Z</time></trkpt><trkpt lat="45.7997972" lon="13.5968127"><ele>141.0</ele><time>2026-03-28T12:53:15.121Z</time></trkpt><trkpt lat="45.7998637" lon="13.5968636"><ele>141.0</ele><time>2026-03-28T12:53:16.126Z</time></trkpt><trkpt lat="45.7999398" lon="13.5969256"><ele>141.0</ele><time>2026-03-28T12:53:17.118Z</time></trkpt><trkpt lat="45.8000211" lon="13.5969892"><ele>141.0</ele><time>2026-03-28T12:53:18.129Z</time></trkpt><trkpt lat="45.8001016" lon="13.5970744"><ele>141.0</ele><time>2026-03-28T12:53:19.132Z</time></trkpt><trkpt lat="45.8001774" lon="13.5971786"><ele>141.0</ele><time>2026-03-28T12:53:20.114Z</time></trkpt><trkpt lat="45.8002592" lon="13.5972889"><ele>141.0</ele><time>2026-03-28T12:53:21.111Z</time></trkpt><trkpt lat="45.8003443" lon="13.5973972"><ele>141.0</ele><time>2026-03-28T12:53:22.109Z</time></trkpt><trkpt lat="45.8004259" lon="13.5975151"><ele>141.0</ele><time>2026-03-28T12:53:23.133Z</time></trkpt><trkpt lat="45.800509" lon="13.5976309"><ele>141.0</ele><time>2026-03-28T12:53:24.12Z</time></trkpt><trkpt lat="45.8005876" lon="13.5977473"><ele>141.0</ele><time>2026-03-28T12:53:25.115Z</time></trkpt><trkpt lat="45.800662" lon="13.5978627"><ele>141.0</ele><time>2026-03-28T12:53:26.12Z</time></trkpt><trkpt lat="45.8007364" lon="13.5979791"><ele>141.0</ele><time>2026-03-28T12:53:27.118Z</time></trkpt><trkpt lat="45.8008077" lon="13.5980965"><ele>141.0</ele><time>2026-03-28T12:53:28.108Z</time></trkpt><trkpt lat="45.8008755" lon="13.5982122"><ele>141.2</ele><time>2026-03-28T12:53:29.111Z</time></trkpt><trkpt lat="45.8009479" lon="13.5983312"><ele>141.39999999999998</ele><time>2026-03-28T12:53:30.122Z</time></trkpt><trkpt lat="45.8010234" lon="13.5984511"><ele>141.6</ele><time>2026-03-28T12:53:31.116Z</time></trkpt><trkpt lat="45.8010948" lon="13.5985614"><ele>141.79999999999998</ele><time>2026-03-28T12:53:32.134Z</time></trkpt><trkpt lat="45.8011608" lon="13.5986584"><ele>142.0</ele><time>2026-03-28T12:53:33.12Z</time></trkpt><trkpt lat="45.8012221" lon="13.5987352"><ele>142.0</ele><time>2026-03-28T12:53:34.112Z</time></trkpt><trkpt lat="45.801292" lon="13.5987948"><ele>142.0</ele><time>2026-03-28T12:53:35.111Z</time></trkpt><trkpt lat="45.8013732" lon="13.5988436"><ele>142.0</ele><time>2026-03-28T12:53:36.117Z</time></trkpt><trkpt lat="45.8014516" lon="13.5988913"><ele>142.0</ele><time>2026-03-28T12:53:37.126Z</time></trkpt><trkpt lat="45.8015328" lon="13.5989395"><ele>142.0</ele><time>2026-03-28T12:53:38.112Z</time></trkpt><trkpt lat="45.8016122" lon="13.5989911"><ele>142.0</ele><time>2026-03-28T12:53:39.134Z</time></trkpt><trkpt lat="45.8016807" lon="13.5990611"><ele>142.0</ele><time>2026-03-28T12:53:40.12Z</time></trkpt><trkpt lat="45.801728" lon="13.5991343"><ele>142.0</ele><time>2026-03-28T12:53:41.126Z</time></trkpt><trkpt lat="45.801749" lon="13.5992547"><ele>142.0</ele><time>2026-03-28T12:53:43.105Z</time></trkpt><trkpt lat="45.8017243" lon="13.5994283"><ele>142.0</ele><time>2026-03-28T12:53:45.105Z</time></trkpt><trkpt lat="45.8017065" lon="13.5995402"><ele>142.0</ele><time>2026-03-28T12:53:46.135Z</time></trkpt><trkpt lat="45.8016942" lon="13.599661"><ele>142.0</ele><time>2026-03-28T12:53:47.119Z</time></trkpt><trkpt lat="45.8016835" lon="13.5997784"><ele>142.5</ele><time>2026-03-28T12:53:48.124Z</time></trkpt><trkpt lat="45.8016772" lon="13.5998991"><ele>143.0</ele><time>2026-03-28T12:53:49.117Z</time></trkpt><trkpt lat="45.8016779" lon="13.6000152"><ele>143.5</ele><time>2026-03-28T12:53:50.123Z</time></trkpt><trkpt lat="45.8016829" lon="13.6001292"><ele>144.0</ele><time>2026-03-28T12:53:51.122Z</time></trkpt><trkpt lat="45.8016896" lon="13.6002421"><ele>144.5</ele><time>2026-03-28T12:53:52.114Z</time></trkpt><trkpt lat="45.8016889" lon="13.6003485"><ele>145.0</ele><time>2026-03-28T12:53:53.119Z</time></trkpt><trkpt lat="45.8016797" lon="13.6004434"><ele>146.0</ele><time>2026-03-28T12:53:54.125Z</time></trkpt><trkpt lat="45.8016518" lon="13.6005296"><ele>147.0</ele><time>2026-03-28T12:53:55.116Z</time></trkpt><trkpt lat="45.8016001" lon="13.600608"><ele>148.0</ele><time>2026-03-28T12:53:56.11Z</time></trkpt><trkpt lat="45.8015338" lon="13.6006863"><ele>149.0</ele><time>2026-03-28T12:53:57.109Z</time></trkpt><trkpt lat="45.8014664" lon="13.6007641"><ele>150.0</ele><time>2026-03-28T12:53:58.123Z</time></trkpt><trkpt lat="45.8013968" lon="13.6008431"><ele>151.0</ele><time>2026-03-28T12:53:59.11Z</time></trkpt><trkpt lat="45.8013128" lon="13.6009336"><ele>151.0</ele><time>2026-03-28T12:54:00.115Z</time></trkpt><trkpt lat="45.8012198" lon="13.6010337"><ele>151.0</ele><time>2026-03-28T12:54:01.114Z</time></trkpt><trkpt lat="45.8011223" lon="13.6011321"><ele>151.0</ele><time>2026-03-28T12:54:02.116Z</time></trkpt><trkpt lat="45.8010224" lon="13.6012309"><ele>151.0</ele><time>2026-03-28T12:54:03.108Z</time></trkpt><trkpt lat="45.8009261" lon="13.6013414"><ele>154.25</ele><time>2026-03-28T12:54:04.123Z</time></trkpt><trkpt lat="45.800831" lon="13.6014543"><ele>157.5</ele><time>2026-03-28T12:54:05.106Z</time></trkpt><trkpt lat="45.8007435" lon="13.6015663"><ele>160.75</ele><time>2026-03-28T12:54:06.115Z</time></trkpt><trkpt lat="45.8006627" lon="13.6016815"><ele>164.0</ele><time>2026-03-28T12:54:07.118Z</time></trkpt><trkpt lat="45.8005842" lon="13.6018029"><ele>164.0</ele><time>2026-03-28T12:54:08.125Z</time></trkpt><trkpt lat="45.8005113" lon="13.6019227"><ele>164.0</ele><time>2026-03-28T12:54:09.126Z</time></trkpt><trkpt lat="45.8004427" lon="13.6020404"><ele>164.0</ele><time>2026-03-28T12:54:10.123Z</time></trkpt><trkpt lat="45.8003869" lon="13.6021462"><ele>164.0</ele><time>2026-03-28T12:54:11.126Z</time></trkpt><trkpt lat="45.8003342" lon="13.6022421"><ele>164.0</ele><time>2026-03-28T12:54:12.125Z</time></trkpt><trkpt lat="45.8002817" lon="13.6023455"><ele>164.16666666666666</ele><time>2026-03-28T12:54:13.114Z</time></trkpt><trkpt lat="45.8002294" lon="13.6024611"><ele>164.33333333333331</ele><time>2026-03-28T12:54:14.126Z</time></trkpt><trkpt lat="45.8001886" lon="13.6025777"><ele>164.5</ele><time>2026-03-28T12:54:15.114Z</time></trkpt><trkpt lat="45.8001594" lon="13.6026978"><ele>164.66666666666666</ele><time>2026-03-28T12:54:16.129Z</time></trkpt><trkpt lat="45.8001361" lon="13.6028122"><ele>164.83333333333334</ele><time>2026-03-28T12:54:17.123Z</time></trkpt><trkpt lat="45.8001074" lon="13.6029327"><ele>165.0</ele><time>2026-03-28T12:54:18.125Z</time></trkpt><trkpt lat="45.8000817" lon="13.6030647"><ele>165.16666666666666</ele><time>2026-03-28T12:54:19.125Z</time></trkpt><trkpt lat="45.8000583" lon="13.6031886"><ele>165.33333333333334</ele><time>2026-03-28T12:54:20.12Z</time></trkpt><trkpt lat="45.8000403" lon="13.6033077"><ele>165.5</ele><time>2026-03-28T12:54:21.108Z</time></trkpt><trkpt lat="45.8000222" lon="13.6034243"><ele>165.66666666666669</ele><time>2026-03-28T12:54:22.122Z</time></trkpt><trkpt lat="45.8000032" lon="13.6035365"><ele>165.83333333333334</ele><time>2026-03-28T12:54:23.119Z</time></trkpt><trkpt lat="45.7999808" lon="13.6036413"><ele>166.0</ele><time>2026-03-28T12:54:24.119Z</time></trkpt><trkpt lat="45.7999638" lon="13.6037496"><ele>165.7142857142857</ele><time>2026-03-28T12:54:25.12Z</time></trkpt><trkpt lat="45.7999446" lon="13.6038558"><ele>165.42857142857144</ele><time>2026-03-28T12:54:26.121Z</time></trkpt><trkpt lat="45.7999245" lon="13.6039634"><ele>165.14285714285714</ele><time>2026-03-28T12:54:27.11Z</time></trkpt><trkpt lat="45.7999037" lon="13.6040693"><ele>164.85714285714283</ele><time>2026-03-28T12:54:28.113Z</time></trkpt><trkpt lat="45.7998817" lon="13.6041677"><ele>164.57142857142856</ele><time>2026-03-28T12:54:29.109Z</time></trkpt><trkpt lat="45.7998502" lon="13.6042565"><ele>164.28571428571428</ele><time>2026-03-28T12:54:30.111Z</time></trkpt><trkpt lat="45.7998107" lon="13.6043392"><ele>164.0</ele><time>2026-03-28T12:54:31.121Z</time></trkpt><trkpt lat="45.7997655" lon="13.6044251"><ele>163.57142857142856</ele><time>2026-03-28T12:54:32.107Z</time></trkpt><trkpt lat="45.7997174" lon="13.6045097"><ele>163.14285714285714</ele><time>2026-03-28T12:54:33.117Z</time></trkpt><trkpt lat="45.7996674" lon="13.6045907"><ele>162.71428571428572</ele><time>2026-03-28T12:54:34.115Z</time></trkpt><trkpt lat="45.7996115" lon="13.6046717"><ele>162.28571428571428</ele><time>2026-03-28T12:54:35.112Z</time></trkpt><trkpt lat="45.7995614" lon="13.6047486"><ele>161.85714285714286</ele><time>2026-03-28T12:54:36.105Z</time></trkpt><trkpt lat="45.7995141" lon="13.6048244"><ele>161.42857142857142</ele><time>2026-03-28T12:54:37.105Z</time></trkpt><trkpt lat="45.7994714" lon="13.6048945"><ele>161.0</ele><time>2026-03-28T12:54:38.128Z</time></trkpt><trkpt lat="45.7994303" lon="13.6049688"><ele>161.0</ele><time>2026-03-28T12:54:39.113Z</time></trkpt><trkpt lat="45.7993864" lon="13.6050412"><ele>161.0</ele><time>2026-03-28T12:54:40.119Z</time></trkpt><trkpt lat="45.799336" lon="13.6051243"><ele>161.0</ele><time>2026-03-28T12:54:41.121Z</time></trkpt><trkpt lat="45.7992823" lon="13.6052097"><ele>161.0</ele><time>2026-03-28T12:54:42.119Z</time></trkpt><trkpt lat="45.7992313" lon="13.6052942"><ele>161.0</ele><time>2026-03-28T12:54:43.114Z</time></trkpt><trkpt lat="45.799186" lon="13.6053641"><ele>161.0</ele><time>2026-03-28T12:54:44.104Z</time></trkpt><trkpt lat="45.7991413" lon="13.6054282"><ele>161.0</ele><time>2026-03-28T12:54:45.094Z</time></trkpt><trkpt lat="45.799093" lon="13.6054971"><ele>160.83333333333331</ele><time>2026-03-28T12:54:46.13Z</time></trkpt><trkpt lat="45.7990384" lon="13.6055749"><ele>160.66666666666666</ele><time>2026-03-28T12:54:47.104Z</time></trkpt><trkpt lat="45.7989829" lon="13.6056586"><ele>160.5</ele><time>2026-03-28T12:54:48.106Z</time></trkpt><trkpt lat="45.7989188" lon="13.6057467"><ele>160.33333333333334</ele><time>2026-03-28T12:54:49.104Z</time></trkpt><trkpt lat="45.7988493" lon="13.6058301"><ele>160.16666666666669</ele><time>2026-03-28T12:54:50.109Z</time></trkpt><trkpt lat="45.7987769" lon="13.6059196"><ele>160.0</ele><time>2026-03-28T12:54:51.115Z</time></trkpt><trkpt lat="45.798694" lon="13.606009"><ele>160.0</ele><time>2026-03-28T12:54:52.102Z</time></trkpt><trkpt lat="45.798604" lon="13.6061057"><ele>160.0</ele><time>2026-03-28T12:54:53.11Z</time></trkpt><trkpt lat="45.7985116" lon="13.6062039"><ele>160.0</ele><time>2026-03-28T12:54:54.113Z</time></trkpt><trkpt lat="45.7984232" lon="13.6063034"><ele>160.0</ele><time>2026-03-28T12:54:55.116Z</time></trkpt><trkpt lat="45.7983325" lon="13.6064058"><ele>161.2</ele><time>2026-03-28T12:54:56.106Z</time></trkpt><trkpt lat="45.7982437" lon="13.606498"><ele>162.4</ele><time>2026-03-28T12:54:57.112Z</time></trkpt><trkpt lat="45.7981556" lon="13.6065859"><ele>163.60000000000002</ele><time>2026-03-28T12:54:58.112Z</time></trkpt><trkpt lat="45.7980648" lon="13.6066581"><ele>164.8</ele><time>2026-03-28T12:54:59.117Z</time></trkpt><trkpt lat="45.7979701" lon="13.606724"><ele>166.0</ele><time>2026-03-28T12:55:00.1Z</time></trkpt><trkpt lat="45.7978693" lon="13.6067893"><ele>166.0</ele><time>2026-03-28T12:55:01.106Z</time></trkpt><trkpt lat="45.7977755" lon="13.6068525"><ele>166.0</ele><time>2026-03-28T12:55:02.118Z</time></trkpt><trkpt lat="45.7976913" lon="13.606922"><ele>166.0</ele><time>2026-03-28T12:55:03.109Z</time></trkpt><trkpt lat="45.7976091" lon="13.6070022"><ele>166.0</ele><time>2026-03-28T12:55:04.114Z</time></trkpt><trkpt lat="45.7975252" lon="13.6070947"><ele>166.0</ele><time>2026-03-28T12:55:05.111Z</time></trkpt><trkpt lat="45.7974421" lon="13.6071967"><ele>166.0</ele><time>2026-03-28T12:55:06.117Z</time></trkpt><trkpt lat="45.797366" lon="13.6072985"><ele>166.0</ele><time>2026-03-28T12:55:07.118Z</time></trkpt><trkpt lat="45.7973" lon="13.6074005"><ele>166.0</ele><time>2026-03-28T12:55:08.105Z</time></trkpt><trkpt lat="45.7972386" lon="13.6075056"><ele>166.0</ele><time>2026-03-28T12:55:09.119Z</time></trkpt><trkpt lat="45.7971826" lon="13.6076067"><ele>166.0</ele><time>2026-03-28T12:55:10.121Z</time></trkpt><trkpt lat="45.7971308" lon="13.6077045"><ele>166.0</ele><time>2026-03-28T12:55:11.112Z</time></trkpt><trkpt lat="45.7970769" lon="13.6077996"><ele>166.0</ele><time>2026-03-28T12:55:12.12Z</time></trkpt><trkpt lat="45.7970184" lon="13.6079042"><ele>166.0</ele><time>2026-03-28T12:55:13.119Z</time></trkpt><trkpt lat="45.7969566" lon="13.6080194"><ele>166.0</ele><time>2026-03-28T12:55:14.117Z</time></trkpt><trkpt lat="45.7968915" lon="13.6081516"><ele>166.0</ele><time>2026-03-28T12:55:15.114Z</time></trkpt><trkpt lat="45.7968328" lon="13.6082784"><ele>165.66666666666669</ele><time>2026-03-28T12:55:16.132Z</time></trkpt><trkpt lat="45.7967788" lon="13.6083933"><ele>165.33333333333334</ele><time>2026-03-28T12:55:17.123Z</time></trkpt><trkpt lat="45.7967245" lon="13.6084982"><ele>165.0</ele><time>2026-03-28T12:55:18.122Z</time></trkpt><trkpt lat="45.7966655" lon="13.6085951"><ele>164.66666666666666</ele><time>2026-03-28T12:55:19.112Z</time></trkpt><trkpt lat="45.7966086" lon="13.6086862"><ele>164.33333333333331</ele><time>2026-03-28T12:55:20.115Z</time></trkpt><trkpt lat="45.7965598" lon="13.6087655"><ele>164.0</ele><time>2026-03-28T12:55:21.113Z</time></trkpt><trkpt lat="45.7965013" lon="13.6089071"><ele>163.25</ele><time>2026-03-28T12:55:23.121Z</time></trkpt><trkpt lat="45.7964727" lon="13.6091029"><ele>162.5</ele><time>2026-03-28T12:55:25.106Z</time></trkpt><trkpt lat="45.7964677" lon="13.6092446"><ele>161.75</ele><time>2026-03-28T12:55:26.118Z</time></trkpt><trkpt lat="45.7964693" lon="13.6094086"><ele>161.0</ele><time>2026-03-28T12:55:27.112Z</time></trkpt><trkpt lat="45.7964726" lon="13.6095907"><ele>161.0</ele><time>2026-03-28T12:55:28.113Z</time></trkpt><trkpt lat="45.7964738" lon="13.6097878"><ele>161.0</ele><time>2026-03-28T12:55:29.115Z</time></trkpt><trkpt lat="45.7964759" lon="13.6100016"><ele>161.0</ele><time>2026-03-28T12:55:30.113Z</time></trkpt><trkpt lat="45.7964731" lon="13.6102311"><ele>161.0</ele><time>2026-03-28T12:55:31.108Z</time></trkpt><trkpt lat="45.7964678" lon="13.6104458"><ele>160.5</ele><time>2026-03-28T12:55:32.107Z</time></trkpt><trkpt lat="45.7964663" lon="13.6106548"><ele>160.0</ele><time>2026-03-28T12:55:33.136Z</time></trkpt><trkpt lat="45.7964654" lon="13.6108505"><ele>159.5</ele><time>2026-03-28T12:55:34.116Z</time></trkpt><trkpt lat="45.7964726" lon="13.6110392"><ele>159.0</ele><time>2026-03-28T12:55:35.109Z</time></trkpt><trkpt lat="45.796502" lon="13.6112454"><ele>158.33333333333334</ele><time>2026-03-28T12:55:36.11Z</time></trkpt><trkpt lat="45.7965602" lon="13.6114568"><ele>157.66666666666669</ele><time>2026-03-28T12:55:37.109Z</time></trkpt><trkpt lat="45.7966334" lon="13.6116702"><ele>157.0</ele><time>2026-03-28T12:55:38.118Z</time></trkpt><trkpt lat="45.7967187" lon="13.6119015"><ele>157.33333333333334</ele><time>2026-03-28T12:55:39.106Z</time></trkpt><trkpt lat="45.7968093" lon="13.6121443"><ele>157.66666666666666</ele><time>2026-03-28T12:55:40.112Z</time></trkpt><trkpt lat="45.7968983" lon="13.6123895"><ele>158.0</ele><time>2026-03-28T12:55:41.109Z</time></trkpt><trkpt lat="45.7969844" lon="13.6126193"><ele>159.0</ele><time>2026-03-28T12:55:42.117Z</time></trkpt><trkpt lat="45.7970634" lon="13.6128444"><ele>160.0</ele><time>2026-03-28T12:55:43.116Z</time></trkpt><trkpt lat="45.7971398" lon="13.6130611"><ele>161.0</ele><time>2026-03-28T12:55:44.108Z</time></trkpt><trkpt lat="45.7972177" lon="13.613271"><ele>161.0</ele><time>2026-03-28T12:55:45.1Z</time></trkpt><trkpt lat="45.7972949" lon="13.6134799"><ele>161.0</ele><time>2026-03-28T12:55:46.101Z</time></trkpt><trkpt lat="45.7973645" lon="13.6136835"><ele>161.0</ele><time>2026-03-28T12:55:47.091Z</time></trkpt><trkpt lat="45.7974234" lon="13.6138767"><ele>160.5</ele><time>2026-03-28T12:55:48.113Z</time></trkpt><trkpt lat="45.7974686" lon="13.6140494"><ele>160.0</ele><time>2026-03-28T12:55:49.102Z</time></trkpt><trkpt lat="45.7974998" lon="13.6142102"><ele>159.5</ele><time>2026-03-28T12:55:50.116Z</time></trkpt><trkpt lat="45.7975142" lon="13.6143758"><ele>159.0</ele><time>2026-03-28T12:55:51.103Z</time></trkpt><trkpt lat="45.7975116" lon="13.6145628"><ele>158.33333333333334</ele><time>2026-03-28T12:55:52.106Z</time></trkpt><trkpt lat="45.7974799" lon="13.6147642"><ele>157.66666666666669</ele><time>2026-03-28T12:55:53.095Z</time></trkpt><trkpt lat="45.7974432" lon="13.61499"><ele>157.0</ele><time>2026-03-28T12:55:54.111Z</time></trkpt><trkpt lat="45.7974039" lon="13.6152156"><ele>157.0</ele><time>2026-03-28T12:55:55.115Z</time></trkpt><trkpt lat="45.7973685" lon="13.6154196"><ele>157.0</ele><time>2026-03-28T12:55:56.105Z</time></trkpt><trkpt lat="45.7973414" lon="13.6156141"><ele>157.0</ele><time>2026-03-28T12:55:57.103Z</time></trkpt><trkpt lat="45.7973118" lon="13.6158108"><ele>157.0</ele><time>2026-03-28T12:55:58.12Z</time></trkpt><trkpt lat="45.7972785" lon="13.6160047"><ele>157.0</ele><time>2026-03-28T12:55:59.102Z</time></trkpt><trkpt lat="45.7972443" lon="13.6162031"><ele>157.0</ele><time>2026-03-28T12:56:00.104Z</time></trkpt><trkpt lat="45.7972104" lon="13.6164084"><ele>157.0</ele><time>2026-03-28T12:56:01.109Z</time></trkpt><trkpt lat="45.7971723" lon="13.6166152"><ele>157.0</ele><time>2026-03-28T12:56:02.102Z</time></trkpt><trkpt lat="45.7971397" lon="13.6168127"><ele>156.75</ele><time>2026-03-28T12:56:03.112Z</time></trkpt><trkpt lat="45.7971108" lon="13.6170086"><ele>156.5</ele><time>2026-03-28T12:56:04.103Z</time></trkpt><trkpt lat="45.7970897" lon="13.6171912"><ele>156.25</ele><time>2026-03-28T12:56:05.124Z</time></trkpt><trkpt lat="45.797091" lon="13.6173701"><ele>156.0</ele><time>2026-03-28T12:56:06.114Z</time></trkpt><trkpt lat="45.7971183" lon="13.6175472"><ele>156.0</ele><time>2026-03-28T12:56:07.117Z</time></trkpt><trkpt lat="45.7971675" lon="13.6177144"><ele>156.0</ele><time>2026-03-28T12:56:08.11Z</time></trkpt><trkpt lat="45.797233" lon="13.6178793"><ele>156.0</ele><time>2026-03-28T12:56:09.111Z</time></trkpt><trkpt lat="45.7973116" lon="13.6180495"><ele>156.0</ele><time>2026-03-28T12:56:10.113Z</time></trkpt><trkpt lat="45.7974026" lon="13.6182182"><ele>158.0</ele><time>2026-03-28T12:56:11.124Z</time></trkpt><trkpt lat="45.797492" lon="13.6183984"><ele>160.0</ele><time>2026-03-28T12:56:12.117Z</time></trkpt><trkpt lat="45.7975817" lon="13.6185845"><ele>162.0</ele><time>2026-03-28T12:56:13.128Z</time></trkpt><trkpt lat="45.797668" lon="13.6187704"><ele>163.66666666666666</ele><time>2026-03-28T12:56:14.109Z</time></trkpt><trkpt lat="45.7977535" lon="13.6189555"><ele>165.33333333333331</ele><time>2026-03-28T12:56:15.113Z</time></trkpt><trkpt lat="45.7978421" lon="13.6191272"><ele>167.0</ele><time>2026-03-28T12:56:16.109Z</time></trkpt><trkpt lat="45.7979311" lon="13.6193017"><ele>167.0</ele><time>2026-03-28T12:56:17.109Z</time></trkpt><trkpt lat="45.7980189" lon="13.6194758"><ele>167.0</ele><time>2026-03-28T12:56:18.123Z</time></trkpt><trkpt lat="45.7981027" lon="13.6196527"><ele>167.0</ele><time>2026-03-28T12:56:19.102Z</time></trkpt><trkpt lat="45.7981938" lon="13.6198291"><ele>168.0</ele><time>2026-03-28T12:56:20.113Z</time></trkpt><trkpt lat="45.7982887" lon="13.6200059"><ele>169.0</ele><time>2026-03-28T12:56:21.101Z</time></trkpt><trkpt lat="45.7983886" lon="13.6201915"><ele>170.0</ele><time>2026-03-28T12:56:22.112Z</time></trkpt><trkpt lat="45.7984896" lon="13.6203833"><ele>170.33333333333331</ele><time>2026-03-28T12:56:23.104Z</time></trkpt><trkpt lat="45.7985958" lon="13.6205787"><ele>170.66666666666666</ele><time>2026-03-28T12:56:24.105Z</time></trkpt><trkpt lat="45.7987032" lon="13.6207588"><ele>171.0</ele><time>2026-03-28T12:56:25.117Z</time></trkpt><trkpt lat="45.7988085" lon="13.6209357"><ele>171.0</ele><time>2026-03-28T12:56:26.107Z</time></trkpt><trkpt lat="45.798911" lon="13.6211143"><ele>171.0</ele><time>2026-03-28T12:56:27.114Z</time></trkpt><trkpt lat="45.7990162" lon="13.6212941"><ele>171.0</ele><time>2026-03-28T12:56:28.102Z</time></trkpt><trkpt lat="45.7991199" lon="13.6214781"><ele>173.33333333333334</ele><time>2026-03-28T12:56:29.105Z</time></trkpt><trkpt lat="45.7992257" lon="13.6216655"><ele>175.66666666666669</ele><time>2026-03-28T12:56:30.104Z</time></trkpt><trkpt lat="45.7993303" lon="13.6218515"><ele>178.0</ele><time>2026-03-28T12:56:31.106Z</time></trkpt><trkpt lat="45.7994328" lon="13.6220428"><ele>180.33333333333334</ele><time>2026-03-28T12:56:32.114Z</time></trkpt><trkpt lat="45.7995368" lon="13.6222332"><ele>182.66666666666666</ele><time>2026-03-28T12:56:33.103Z</time></trkpt><trkpt lat="45.7996442" lon="13.6224245"><ele>185.0</ele><time>2026-03-28T12:56:34.108Z</time></trkpt><trkpt lat="45.7997504" lon="13.6226127"><ele>185.0</ele><time>2026-03-28T12:56:35.104Z</time></trkpt><trkpt lat="45.7998539" lon="13.6227941"><ele>185.0</ele><time>2026-03-28T12:56:36.102Z</time></trkpt><trkpt lat="45.7999473" lon="13.6229616"><ele>185.0</ele><time>2026-03-28T12:56:37.108Z</time></trkpt><trkpt lat="45.8000305" lon="13.6231134"><ele>185.0</ele><time>2026-03-28T12:56:38.106Z</time></trkpt><trkpt lat="45.8000936" lon="13.6232477"><ele>185.83333333333331</ele><time>2026-03-28T12:56:39.128Z</time></trkpt><trkpt lat="45.8001336" lon="13.6233744"><ele>186.66666666666666</ele><time>2026-03-28T12:56:40.099Z</time></trkpt><trkpt lat="45.8001511" lon="13.6234935"><ele>187.5</ele><time>2026-03-28T12:56:41.105Z</time></trkpt><trkpt lat="45.8001679" lon="13.6235949"><ele>188.33333333333334</ele><time>2026-03-28T12:56:42.115Z</time></trkpt><trkpt lat="45.8001955" lon="13.6236845"><ele>189.16666666666669</ele><time>2026-03-28T12:56:43.102Z</time></trkpt><trkpt lat="45.8002025" lon="13.6238122"><ele>190.0</ele><time>2026-03-28T12:56:45.104Z</time></trkpt><trkpt lat="45.8001458" lon="13.6238929"><ele>191.4</ele><time>2026-03-28T12:56:47.096Z</time></trkpt><trkpt lat="45.8000626" lon="13.623964"><ele>192.8</ele><time>2026-03-28T12:56:49.102Z</time></trkpt><trkpt lat="45.8000106" lon="13.6240972"><ele>194.2</ele><time>2026-03-28T12:56:51.107Z</time></trkpt><trkpt lat="45.799983" lon="13.6242576"><ele>195.6</ele><time>2026-03-28T12:56:53.11Z</time></trkpt><trkpt lat="45.7999903" lon="13.6244388"><ele>197.0</ele><time>2026-03-28T12:56:55.118Z</time></trkpt><trkpt lat="45.8000229" lon="13.6245355"><ele>195.8</ele><time>2026-03-28T12:56:56.101Z</time></trkpt><trkpt lat="45.8000724" lon="13.6246434"><ele>194.6</ele><time>2026-03-28T12:56:57.098Z</time></trkpt><trkpt lat="45.8001274" lon="13.6247475"><ele>193.4</ele><time>2026-03-28T12:56:58.09Z</time></trkpt><trkpt lat="45.8001802" lon="13.6248559"><ele>192.20000000000002</ele><time>2026-03-28T12:56:59.111Z</time></trkpt><trkpt lat="45.8002165" lon="13.6249704"><ele>191.0</ele><time>2026-03-28T12:57:00.117Z</time></trkpt><trkpt lat="45.8002285" lon="13.6251076"><ele>191.0</ele><time>2026-03-28T12:57:01.108Z</time></trkpt><trkpt lat="45.8002272" lon="13.6252411"><ele>191.0</ele><time>2026-03-28T12:57:02.114Z</time></trkpt><trkpt lat="45.800212" lon="13.6253787"><ele>191.0</ele><time>2026-03-28T12:57:03.113Z</time></trkpt><trkpt lat="45.8001827" lon="13.6255198"><ele>191.0</ele><time>2026-03-28T12:57:04.117Z</time></trkpt><trkpt lat="45.800146" lon="13.6256642"><ele>191.0</ele><time>2026-03-28T12:57:05.104Z</time></trkpt><trkpt lat="45.8001106" lon="13.6258101"><ele>195.5</ele><time>2026-03-28T12:57:06.112Z</time></trkpt><trkpt lat="45.8000643" lon="13.6259639"><ele>200.0</ele><time>2026-03-28T12:57:07.113Z</time></trkpt><trkpt lat="45.8000169" lon="13.6261157"><ele>204.5</ele><time>2026-03-28T12:57:08.104Z</time></trkpt><trkpt lat="45.7999663" lon="13.6262659"><ele>209.0</ele><time>2026-03-28T12:57:09.106Z</time></trkpt><trkpt lat="45.7999172" lon="13.6264167"><ele>209.0</ele><time>2026-03-28T12:57:10.106Z</time></trkpt><trkpt lat="45.7998692" lon="13.6265693"><ele>209.0</ele><time>2026-03-28T12:57:11.107Z</time></trkpt><trkpt lat="45.7998201" lon="13.6267188"><ele>209.0</ele><time>2026-03-28T12:57:12.118Z</time></trkpt><trkpt lat="45.7997805" lon="13.626862"><ele>209.0</ele><time>2026-03-28T12:57:13.11Z</time></trkpt><trkpt lat="45.7997513" lon="13.6269988"><ele>209.0</ele><time>2026-03-28T12:57:14.112Z</time></trkpt><trkpt lat="45.799744" lon="13.6271388"><ele>210.6</ele><time>2026-03-28T12:57:15.117Z</time></trkpt><trkpt lat="45.7997562" lon="13.6272791"><ele>212.2</ele><time>2026-03-28T12:57:16.115Z</time></trkpt><trkpt lat="45.7997794" lon="13.6274295"><ele>213.79999999999998</ele><time>2026-03-28T12:57:17.103Z</time></trkpt><trkpt lat="45.7998254" lon="13.6275772"><ele>215.39999999999998</ele><time>2026-03-28T12:57:18.12Z</time></trkpt><trkpt lat="45.7998783" lon="13.6277235"><ele>217.0</ele><time>2026-03-28T12:57:19.119Z</time></trkpt><trkpt lat="45.7999433" lon="13.6278619"><ele>214.75</ele><time>2026-03-28T12:57:20.117Z</time></trkpt><trkpt lat="45.8000193" lon="13.6279906"><ele>212.5</ele><time>2026-03-28T12:57:21.113Z</time></trkpt><trkpt lat="45.8001071" lon="13.6281071"><ele>210.25</ele><time>2026-03-28T12:57:22.119Z</time></trkpt><trkpt lat="45.800196" lon="13.6282219"><ele>208.0</ele><time>2026-03-28T12:57:23.102Z</time></trkpt><trkpt lat="45.8002899" lon="13.6283258"><ele>208.0</ele><time>2026-03-28T12:57:24.113Z</time></trkpt><trkpt lat="45.8003704" lon="13.6284259"><ele>208.0</ele><time>2026-03-28T12:57:25.111Z</time></trkpt><trkpt lat="45.8004263" lon="13.6285444"><ele>208.0</ele><time>2026-03-28T12:57:26.107Z</time></trkpt><trkpt lat="45.8004698" lon="13.628684"><ele>208.0</ele><time>2026-03-28T12:57:27.098Z</time></trkpt><trkpt lat="45.8004993" lon="13.6288409"><ele>208.0</ele><time>2026-03-28T12:57:28.118Z</time></trkpt><trkpt lat="45.8005226" lon="13.6290172"><ele>208.8</ele><time>2026-03-28T12:57:29.117Z</time></trkpt><trkpt lat="45.8005397" lon="13.6291885"><ele>209.60000000000002</ele><time>2026-03-28T12:57:30.117Z</time></trkpt><trkpt lat="45.8005516" lon="13.6293445"><ele>210.39999999999998</ele><time>2026-03-28T12:57:31.116Z</time></trkpt><trkpt lat="45.8005596" lon="13.6294887"><ele>211.2</ele><time>2026-03-28T12:57:32.116Z</time></trkpt><trkpt lat="45.8005559" lon="13.6296017"><ele>212.0</ele><time>2026-03-28T12:57:33.095Z</time></trkpt><trkpt lat="45.8005396" lon="13.6297008"><ele>212.00000000000003</ele><time>2026-03-28T12:57:34.116Z</time></trkpt><trkpt lat="45.8005034" lon="13.6297975"><ele>212.0</ele><time>2026-03-28T12:57:35.093Z</time></trkpt><trkpt lat="45.800457" lon="13.6298993"><ele>212.0</ele><time>2026-03-28T12:57:36.105Z</time></trkpt><trkpt lat="45.8004066" lon="13.6300004"><ele>212.0</ele><time>2026-03-28T12:57:37.103Z</time></trkpt><trkpt lat="45.8003614" lon="13.6300977"><ele>212.00000000000003</ele><time>2026-03-28T12:57:38.109Z</time></trkpt><trkpt lat="45.8003248" lon="13.6301915"><ele>212.0</ele><time>2026-03-28T12:57:39.106Z</time></trkpt><trkpt lat="45.8002928" lon="13.6302874"><ele>212.00000000000003</ele><time>2026-03-28T12:57:40.116Z</time></trkpt><trkpt lat="45.8002695" lon="13.6303913"><ele>212.0</ele><time>2026-03-28T12:57:41.112Z</time></trkpt><trkpt lat="45.8002718" lon="13.630505"><ele>212.0</ele><time>2026-03-28T12:57:42.111Z</time></trkpt><trkpt lat="45.8003026" lon="13.6306281"><ele>212.0</ele><time>2026-03-28T12:57:43.091Z</time></trkpt><trkpt lat="45.8003511" lon="13.6307547"><ele>212.00000000000003</ele><time>2026-03-28T12:57:44.091Z</time></trkpt><trkpt lat="45.8003954" lon="13.6308686"><ele>212.0</ele><time>2026-03-28T12:57:45.109Z</time></trkpt><trkpt lat="45.8004363" lon="13.630972"><ele>212.00000000000003</ele><time>2026-03-28T12:57:46.115Z</time></trkpt><trkpt lat="45.8004759" lon="13.6310626"><ele>212.0</ele><time>2026-03-28T12:57:47.104Z</time></trkpt><trkpt lat="45.8005129" lon="13.6311435"><ele>212.0</ele><time>2026-03-28T12:57:48.113Z</time></trkpt><trkpt lat="45.8005723" lon="13.6312813"><ele>212.0</ele><time>2026-03-28T12:57:50.104Z</time></trkpt><trkpt lat="45.8005932" lon="13.6313919"><ele>212.00000000000003</ele><time>2026-03-28T12:57:52.108Z</time></trkpt><trkpt lat="45.8005933" lon="13.6315148"><ele>212.0</ele><time>2026-03-28T12:57:54.111Z</time></trkpt><trkpt lat="45.8006159" lon="13.6316351"><ele>210.6</ele><time>2026-03-28T12:57:56.112Z</time></trkpt><trkpt lat="45.8006354" lon="13.6317876"><ele>209.2</ele><time>2026-03-28T12:57:58.121Z</time></trkpt><trkpt lat="45.8006026" lon="13.631934"><ele>207.8</ele><time>2026-03-28T12:58:00.107Z</time></trkpt><trkpt lat="45.8005252" lon="13.6320642"><ele>206.4</ele><time>2026-03-28T12:58:02.103Z</time></trkpt><trkpt lat="45.8004635" lon="13.6321231"><ele>205.0</ele><time>2026-03-28T12:58:03.103Z</time></trkpt><trkpt lat="45.8003957" lon="13.6321749"><ele>204.66666666666666</ele><time>2026-03-28T12:58:04.102Z</time></trkpt><trkpt lat="45.8003267" lon="13.6322317"><ele>204.33333333333331</ele><time>2026-03-28T12:58:05.111Z</time></trkpt><trkpt lat="45.800262" lon="13.6322971"><ele>204.0</ele><time>2026-03-28T12:58:06.117Z</time></trkpt><trkpt lat="45.8001969" lon="13.6323512"><ele>203.66666666666669</ele><time>2026-03-28T12:58:07.119Z</time></trkpt><trkpt lat="45.8000836" lon="13.632366"><ele>203.33333333333334</ele><time>2026-03-28T12:58:09.104Z</time></trkpt><trkpt lat="45.8000162" lon="13.6324106"><ele>203.0</ele><time>2026-03-28T12:58:11.112Z</time></trkpt><trkpt lat="45.8000416" lon="13.632524"><ele>203.00000000000003</ele><time>2026-03-28T12:58:13.099Z</time></trkpt><trkpt lat="45.8001529" lon="13.63263"><ele>203.0</ele><time>2026-03-28T12:58:15.093Z</time></trkpt><trkpt lat="45.800216" lon="13.632692"><ele>203.0</ele><time>2026-03-28T12:58:16.094Z</time></trkpt><trkpt lat="45.8002735" lon="13.6327591"><ele>203.0</ele><time>2026-03-28T12:58:17.117Z</time></trkpt><trkpt lat="45.8003366" lon="13.6328262"><ele>203.00000000000003</ele><time>2026-03-28T12:58:18.102Z</time></trkpt><trkpt lat="45.8003973" lon="13.6328804"><ele>203.0</ele><time>2026-03-28T12:58:19.091Z</time></trkpt><trkpt lat="45.800464" lon="13.6329128"><ele>200.71428571428572</ele><time>2026-03-28T12:58:20.102Z</time></trkpt><trkpt lat="45.8005423" lon="13.6329263"><ele>198.42857142857144</ele><time>2026-03-28T12:58:21.084Z</time></trkpt><trkpt lat="45.8006187" lon="13.6329225"><ele>196.14285714285714</ele><time>2026-03-28T12:58:22.106Z</time></trkpt><trkpt lat="45.8006862" lon="13.632908"><ele>193.85714285714286</ele><time>2026-03-28T12:58:23.096Z</time></trkpt><trkpt lat="45.8007492" lon="13.6328895"><ele>191.57142857142858</ele><time>2026-03-28T12:58:24.112Z</time></trkpt><trkpt lat="45.8008134" lon="13.6328823"><ele>189.28571428571428</ele><time>2026-03-28T12:58:25.108Z</time></trkpt><trkpt lat="45.8008815" lon="13.632876"><ele>187.0</ele><time>2026-03-28T12:58:26.106Z</time></trkpt><trkpt lat="45.8009471" lon="13.6328705"><ele>184.66666666666669</ele><time>2026-03-28T12:58:27.11Z</time></trkpt><trkpt lat="45.801036" lon="13.6329241"><ele>182.33333333333334</ele><time>2026-03-28T12:58:29.107Z</time></trkpt><trkpt lat="45.8010697" lon="13.6330539"><ele>180.0</ele><time>2026-03-28T12:58:31.103Z</time></trkpt><trkpt lat="45.8010717" lon="13.6332294"><ele>177.66666666666666</ele><time>2026-03-28T12:58:33.102Z</time></trkpt><trkpt lat="45.8010768" lon="13.633322"><ele>175.33333333333331</ele><time>2026-03-28T12:58:34.114Z</time></trkpt><trkpt lat="45.8010794" lon="13.6334212"><ele>173.0</ele><time>2026-03-28T12:58:35.104Z</time></trkpt><trkpt lat="45.8010753" lon="13.6335222"><ele>173.0</ele><time>2026-03-28T12:58:36.107Z</time></trkpt><trkpt lat="45.8010527" lon="13.6336178"><ele>173.0</ele><time>2026-03-28T12:58:37.1Z</time></trkpt><trkpt lat="45.8010118" lon="13.6337051"><ele>173.0</ele><time>2026-03-28T12:58:38.101Z</time></trkpt><trkpt lat="45.8009655" lon="13.6337797"><ele>173.0</ele><time>2026-03-28T12:58:39.1Z</time></trkpt><trkpt lat="45.80091" lon="13.6338514"><ele>173.0</ele><time>2026-03-28T12:58:40.119Z</time></trkpt><trkpt lat="45.8008346" lon="13.633907"><ele>173.0</ele><time>2026-03-28T12:58:41.11Z</time></trkpt><trkpt lat="45.8007536" lon="13.6339506"><ele>173.33333333333331</ele><time>2026-03-28T12:58:42.113Z</time></trkpt><trkpt lat="45.8006737" lon="13.6340112"><ele>173.66666666666666</ele><time>2026-03-28T12:58:43.109Z</time></trkpt><trkpt lat="45.8005918" lon="13.6340667"><ele>174.0</ele><time>2026-03-28T12:58:44.12Z</time></trkpt><trkpt lat="45.8005064" lon="13.6341075"><ele>174.33333333333334</ele><time>2026-03-28T12:58:45.112Z</time></trkpt><trkpt lat="45.8004202" lon="13.6341257"><ele>174.66666666666669</ele><time>2026-03-28T12:58:46.121Z</time></trkpt><trkpt lat="45.8003467" lon="13.6341396"><ele>175.0</ele><time>2026-03-28T12:58:47.121Z</time></trkpt><trkpt lat="45.8002714" lon="13.6342199"><ele>175.0</ele><time>2026-03-28T12:58:49.116Z</time></trkpt><trkpt lat="45.8002898" lon="13.634333"><ele>175.0</ele><time>2026-03-28T12:58:51.107Z</time></trkpt><trkpt lat="45.8003408" lon="13.6344149"><ele>175.0</ele><time>2026-03-28T12:58:52.102Z</time></trkpt><trkpt lat="45.8003967" lon="13.6345032"><ele>175.0</ele><time>2026-03-28T12:58:53.102Z</time></trkpt><trkpt lat="45.8004525" lon="13.6345973"><ele>175.0</ele><time>2026-03-28T12:58:54.125Z</time></trkpt><trkpt lat="45.8005135" lon="13.6346766"><ele>175.0</ele><time>2026-03-28T12:58:55.104Z</time></trkpt><trkpt lat="45.8005787" lon="13.6347515"><ele>172.66666666666669</ele><time>2026-03-28T12:58:56.112Z</time></trkpt><trkpt lat="45.8006341" lon="13.6348323"><ele>170.33333333333334</ele><time>2026-03-28T12:58:57.106Z</time></trkpt><trkpt lat="45.8006781" lon="13.63493"><ele>168.0</ele><time>2026-03-28T12:58:58.112Z</time></trkpt><trkpt lat="45.8007201" lon="13.6350265"><ele>165.66666666666666</ele><time>2026-03-28T12:58:59.104Z</time></trkpt><trkpt lat="45.8007838" lon="13.6351051"><ele>163.33333333333331</ele><time>2026-03-28T12:59:00.11Z</time></trkpt><trkpt lat="45.8008642" lon="13.6351693"><ele>161.0</ele><time>2026-03-28T12:59:01.108Z</time></trkpt><trkpt lat="45.8009527" lon="13.635231"><ele>161.0</ele><time>2026-03-28T12:59:02.092Z</time></trkpt><trkpt lat="45.8010385" lon="13.6352959"><ele>161.0</ele><time>2026-03-28T12:59:03.108Z</time></trkpt><trkpt lat="45.8011244" lon="13.635352"><ele>161.0</ele><time>2026-03-28T12:59:04.1Z</time></trkpt><trkpt lat="45.8012043" lon="13.6354077"><ele>161.0</ele><time>2026-03-28T12:59:05.113Z</time></trkpt><trkpt lat="45.8012769" lon="13.6355076"><ele>161.0</ele><time>2026-03-28T12:59:06.112Z</time></trkpt><trkpt lat="45.8013475" lon="13.6356319"><ele>160.4</ele><time>2026-03-28T12:59:07.1Z</time></trkpt><trkpt lat="45.8014011" lon="13.6357664"><ele>159.8</ele><time>2026-03-28T12:59:08.107Z</time></trkpt><trkpt lat="45.8014381" lon="13.635905"><ele>159.20000000000002</ele><time>2026-03-28T12:59:09.094Z</time></trkpt><trkpt lat="45.8014759" lon="13.6360305"><ele>158.60000000000002</ele><time>2026-03-28T12:59:10.096Z</time></trkpt><trkpt lat="45.8015053" lon="13.6361581"><ele>158.0</ele><time>2026-03-28T12:59:11.097Z</time></trkpt><trkpt lat="45.8015087" lon="13.6363019"><ele>157.4</ele><time>2026-03-28T12:59:12.115Z</time></trkpt><trkpt lat="45.8014925" lon="13.6364641"><ele>156.8</ele><time>2026-03-28T12:59:13.114Z</time></trkpt><trkpt lat="45.8014652" lon="13.6366107"><ele>156.2</ele><time>2026-03-28T12:59:14.119Z</time></trkpt><trkpt lat="45.8014276" lon="13.6367534"><ele>155.6</ele><time>2026-03-28T12:59:15.105Z</time></trkpt><trkpt lat="45.801393" lon="13.6369055"><ele>155.0</ele><time>2026-03-28T12:59:16.118Z</time></trkpt><trkpt lat="45.8013861" lon="13.6370549"><ele>155.0</ele><time>2026-03-28T12:59:17.109Z</time></trkpt><trkpt lat="45.8014009" lon="13.6371804"><ele>155.0</ele><time>2026-03-28T12:59:18.105Z</time></trkpt><trkpt lat="45.801413" lon="13.6372956"><ele>155.0</ele><time>2026-03-28T12:59:19.123Z</time></trkpt><trkpt lat="45.8014191" lon="13.6374043"><ele>155.0</ele><time>2026-03-28T12:59:20.112Z</time></trkpt><trkpt lat="45.801413" lon="13.6375196"><ele>155.0</ele><time>2026-03-28T12:59:21.102Z</time></trkpt><trkpt lat="45.801394" lon="13.6376289"><ele>155.0</ele><time>2026-03-28T12:59:22.094Z</time></trkpt><trkpt lat="45.8013585" lon="13.6377251"><ele>154.2</ele><time>2026-03-28T12:59:23.103Z</time></trkpt><trkpt lat="45.8013055" lon="13.6378309"><ele>153.4</ele><time>2026-03-28T12:59:24.112Z</time></trkpt><trkpt lat="45.8012375" lon="13.637936"><ele>152.6</ele><time>2026-03-28T12:59:25.107Z</time></trkpt><trkpt lat="45.8011605" lon="13.6380486"><ele>151.8</ele><time>2026-03-28T12:59:26.119Z</time></trkpt><trkpt lat="45.8010791" lon="13.6381614"><ele>151.0</ele><time>2026-03-28T12:59:27.126Z</time></trkpt><trkpt lat="45.8010081" lon="13.6382561"><ele>150.83333333333334</ele><time>2026-03-28T12:59:28.108Z</time></trkpt><trkpt lat="45.8009551" lon="13.6383517"><ele>150.66666666666669</ele><time>2026-03-28T12:59:29.123Z</time></trkpt><trkpt lat="45.8009384" lon="13.6384614"><ele>150.5</ele><time>2026-03-28T12:59:30.12Z</time></trkpt><trkpt lat="45.8009429" lon="13.6385751"><ele>150.33333333333334</ele><time>2026-03-28T12:59:31.105Z</time></trkpt><trkpt lat="45.8009637" lon="13.6386821"><ele>150.16666666666666</ele><time>2026-03-28T12:59:32.104Z</time></trkpt><trkpt lat="45.801012" lon="13.6387826"><ele>150.0</ele><time>2026-03-28T12:59:33.103Z</time></trkpt><trkpt lat="45.8010711" lon="13.638899"><ele>150.0</ele><time>2026-03-28T12:59:34.111Z</time></trkpt><trkpt lat="45.8011168" lon="13.6390217"><ele>150.0</ele><time>2026-03-28T12:59:35.112Z</time></trkpt><trkpt lat="45.8011531" lon="13.6391474"><ele>150.0</ele><time>2026-03-28T12:59:36.119Z</time></trkpt><trkpt lat="45.8012077" lon="13.6392658"><ele>150.0</ele><time>2026-03-28T12:59:37.118Z</time></trkpt><trkpt lat="45.8012788" lon="13.6393311"><ele>150.0</ele><time>2026-03-28T12:59:38.133Z</time></trkpt><trkpt lat="45.8013564" lon="13.6393626"><ele>149.99999999999997</ele><time>2026-03-28T12:59:39.106Z</time></trkpt><trkpt lat="45.8014288" lon="13.6393954"><ele>150.0</ele><time>2026-03-28T12:59:40.105Z</time></trkpt><trkpt lat="45.801491" lon="13.6394264"><ele>150.0</ele><time>2026-03-28T12:59:41.12Z</time></trkpt><trkpt lat="45.8015486" lon="13.6394702"><ele>150.0</ele><time>2026-03-28T12:59:42.119Z</time></trkpt><trkpt lat="45.8015968" lon="13.6395316"><ele>150.0</ele><time>2026-03-28T12:59:43.123Z</time></trkpt><trkpt lat="45.8016382" lon="13.6396014"><ele>149.99999999999997</ele><time>2026-03-28T12:59:44.123Z</time></trkpt><trkpt lat="45.8016814" lon="13.6396842"><ele>150.0</ele><time>2026-03-28T12:59:45.118Z</time></trkpt><trkpt lat="45.8017255" lon="13.639773"><ele>150.0</ele><time>2026-03-28T12:59:46.123Z</time></trkpt><trkpt lat="45.8017709" lon="13.6398547"><ele>150.0</ele><time>2026-03-28T12:59:47.128Z</time></trkpt><trkpt lat="45.8018047" lon="13.639974"><ele>150.0</ele><time>2026-03-28T12:59:48.127Z</time></trkpt><trkpt lat="45.8018287" lon="13.6401056"><ele>150.0</ele><time>2026-03-28T12:59:49.117Z</time></trkpt><trkpt lat="45.8018393" lon="13.6402308"><ele>150.0</ele><time>2026-03-28T12:59:50.113Z</time></trkpt><trkpt lat="45.8018468" lon="13.6403533"><ele>150.0</ele><time>2026-03-28T12:59:51.113Z</time></trkpt><trkpt lat="45.8018698" lon="13.6404641"><ele>148.66666666666666</ele><time>2026-03-28T12:59:52.126Z</time></trkpt><trkpt lat="45.8019123" lon="13.6405749"><ele>147.33333333333334</ele><time>2026-03-28T12:59:53.119Z</time></trkpt><trkpt lat="45.8019683" lon="13.6406796"><ele>146.0</ele><time>2026-03-28T12:59:54.108Z</time></trkpt><trkpt lat="45.8020368" lon="13.6407718"><ele>144.66666666666669</ele><time>2026-03-28T12:59:55.12Z</time></trkpt><trkpt lat="45.8021021" lon="13.6408528"><ele>143.33333333333334</ele><time>2026-03-28T12:59:56.117Z</time></trkpt><trkpt lat="45.8021532" lon="13.6409488"><ele>142.0</ele><time>2026-03-28T12:59:57.113Z</time></trkpt><trkpt lat="45.8021859" lon="13.6410513"><ele>142.33333333333334</ele><time>2026-03-28T12:59:58.132Z</time></trkpt><trkpt lat="45.802211" lon="13.6411659"><ele>142.66666666666669</ele><time>2026-03-28T12:59:59.106Z</time></trkpt><trkpt lat="45.8022441" lon="13.6412633"><ele>143.0</ele><time>2026-03-28T13:00:00.131Z</time></trkpt><trkpt lat="45.8023029" lon="13.6413362"><ele>143.33333333333334</ele><time>2026-03-28T13:00:01.121Z</time></trkpt><trkpt lat="45.8023865" lon="13.6413638"><ele>143.66666666666666</ele><time>2026-03-28T13:00:02.114Z</time></trkpt><trkpt lat="45.8024769" lon="13.6413807"><ele>144.0</ele><time>2026-03-28T13:00:03.105Z</time></trkpt><trkpt lat="45.8025623" lon="13.6414083"><ele>144.0</ele><time>2026-03-28T13:00:04.124Z</time></trkpt><trkpt lat="45.8026453" lon="13.6414572"><ele>144.0</ele><time>2026-03-28T13:00:05.121Z</time></trkpt><trkpt lat="45.8027258" lon="13.641523"><ele>144.0</ele><time>2026-03-28T13:00:06.12Z</time></trkpt><trkpt lat="45.8027994" lon="13.6415989"><ele>144.0</ele><time>2026-03-28T13:00:07.116Z</time></trkpt><trkpt lat="45.8028608" lon="13.6416735"><ele>144.0</ele><time>2026-03-28T13:00:08.117Z</time></trkpt><trkpt lat="45.8029321" lon="13.6417454"><ele>144.0</ele><time>2026-03-28T13:00:09.104Z</time></trkpt><trkpt lat="45.8030113" lon="13.6418105"><ele>142.66666666666666</ele><time>2026-03-28T13:00:10.122Z</time></trkpt><trkpt lat="45.8030872" lon="13.6418736"><ele>141.33333333333334</ele><time>2026-03-28T13:00:11.118Z</time></trkpt><trkpt lat="45.8031516" lon="13.6419447"><ele>140.0</ele><time>2026-03-28T13:00:12.117Z</time></trkpt><trkpt lat="45.8031986" lon="13.6420305"><ele>138.66666666666669</ele><time>2026-03-28T13:00:13.117Z</time></trkpt><trkpt lat="45.8032312" lon="13.6421282"><ele>137.33333333333334</ele><time>2026-03-28T13:00:14.104Z</time></trkpt><trkpt lat="45.8032687" lon="13.6422262"><ele>136.0</ele><time>2026-03-28T13:00:15.111Z</time></trkpt><trkpt lat="45.8033237" lon="13.6423101"><ele>136.0</ele><time>2026-03-28T13:00:16.112Z</time></trkpt><trkpt lat="45.8033962" lon="13.6423593"><ele>136.0</ele><time>2026-03-28T13:00:17.112Z</time></trkpt><trkpt lat="45.8034672" lon="13.6424074"><ele>136.0</ele><time>2026-03-28T13:00:18.115Z</time></trkpt><trkpt lat="45.8035171" lon="13.6424675"><ele>136.0</ele><time>2026-03-28T13:00:19.12Z</time></trkpt><trkpt lat="45.8035734" lon="13.6425521"><ele>136.0</ele><time>2026-03-28T13:00:20.119Z</time></trkpt><trkpt lat="45.8036217" lon="13.6426723"><ele>136.0</ele><time>2026-03-28T13:00:21.123Z</time></trkpt><trkpt lat="45.8036617" lon="13.6428179"><ele>136.0</ele><time>2026-03-28T13:00:22.103Z</time></trkpt><trkpt lat="45.8036923" lon="13.6429575"><ele>136.0</ele><time>2026-03-28T13:00:23.118Z</time></trkpt><trkpt lat="45.8037067" lon="13.6430873"><ele>136.0</ele><time>2026-03-28T13:00:24.115Z</time></trkpt><trkpt lat="45.8037212" lon="13.6432068"><ele>136.0</ele><time>2026-03-28T13:00:25.106Z</time></trkpt><trkpt lat="45.8037582" lon="13.6433089"><ele>136.0</ele><time>2026-03-28T13:00:26.122Z</time></trkpt><trkpt lat="45.8038102" lon="13.6434063"><ele>136.0</ele><time>2026-03-28T13:00:27.098Z</time></trkpt><trkpt lat="45.803858" lon="13.643499"><ele>136.0</ele><time>2026-03-28T13:00:28.12Z</time></trkpt><trkpt lat="45.8038869" lon="13.6435997"><ele>136.0</ele><time>2026-03-28T13:00:29.113Z</time></trkpt><trkpt lat="45.8038918" lon="13.6437123"><ele>136.0</ele><time>2026-03-28T13:00:30.104Z</time></trkpt><trkpt lat="45.8038728" lon="13.6438249"><ele>136.0</ele><time>2026-03-28T13:00:31.104Z</time></trkpt><trkpt lat="45.8038432" lon="13.6439429"><ele>136.0</ele><time>2026-03-28T13:00:32.105Z</time></trkpt><trkpt lat="45.803801" lon="13.6440533"><ele>136.0</ele><time>2026-03-28T13:00:33.127Z</time></trkpt><trkpt lat="45.8037442" lon="13.6441465"><ele>137.0</ele><time>2026-03-28T13:00:34.12Z</time></trkpt><trkpt lat="45.8036804" lon="13.6442208"><ele>138.0</ele><time>2026-03-28T13:00:35.101Z</time></trkpt><trkpt lat="45.8036084" lon="13.6442787"><ele>139.0</ele><time>2026-03-28T13:00:36.106Z</time></trkpt><trkpt lat="45.803536" lon="13.64434"><ele>140.0</ele><time>2026-03-28T13:00:37.115Z</time></trkpt><trkpt lat="45.8034663" lon="13.6444269"><ele>141.0</ele><time>2026-03-28T13:00:38.112Z</time></trkpt><trkpt lat="45.803388" lon="13.6445319"><ele>142.0</ele><time>2026-03-28T13:00:39.113Z</time></trkpt><trkpt lat="45.8033098" lon="13.6446286"><ele>143.6</ele><time>2026-03-28T13:00:40.127Z</time></trkpt><trkpt lat="45.803226" lon="13.6447076"><ele>145.2</ele><time>2026-03-28T13:00:41.103Z</time></trkpt><trkpt lat="45.8031412" lon="13.6447727"><ele>146.8</ele><time>2026-03-28T13:00:42.117Z</time></trkpt><trkpt lat="45.8030578" lon="13.64482"><ele>148.4</ele><time>2026-03-28T13:00:43.104Z</time></trkpt><trkpt lat="45.8029784" lon="13.6448692"><ele>150.0</ele><time>2026-03-28T13:00:44.114Z</time></trkpt><trkpt lat="45.8029082" lon="13.6449413"><ele>150.0</ele><time>2026-03-28T13:00:45.105Z</time></trkpt><trkpt lat="45.8028522" lon="13.6450332"><ele>150.0</ele><time>2026-03-28T13:00:46.114Z</time></trkpt><trkpt lat="45.8028116" lon="13.6451313"><ele>150.0</ele><time>2026-03-28T13:00:47.099Z</time></trkpt><trkpt lat="45.8028042" lon="13.6452307"><ele>150.0</ele><time>2026-03-28T13:00:48.102Z</time></trkpt><trkpt lat="45.8028144" lon="13.645326"><ele>150.0</ele><time>2026-03-28T13:00:49.092Z</time></trkpt><trkpt lat="45.8028289" lon="13.6454339"><ele>150.0</ele><time>2026-03-28T13:00:50.102Z</time></trkpt><trkpt lat="45.8028475" lon="13.6455542"><ele>149.83333333333334</ele><time>2026-03-28T13:00:51.113Z</time></trkpt><trkpt lat="45.8028541" lon="13.6456791"><ele>149.66666666666666</ele><time>2026-03-28T13:00:52.108Z</time></trkpt><trkpt lat="45.8028513" lon="13.6458054"><ele>149.5</ele><time>2026-03-28T13:00:53.114Z</time></trkpt><trkpt lat="45.8028443" lon="13.6459304"><ele>149.33333333333331</ele><time>2026-03-28T13:00:54.11Z</time></trkpt><trkpt lat="45.8028501" lon="13.6460563"><ele>149.16666666666666</ele><time>2026-03-28T13:00:55.108Z</time></trkpt><trkpt lat="45.80287" lon="13.6461896"><ele>149.0</ele><time>2026-03-28T13:00:56.117Z</time></trkpt><trkpt lat="45.8028944" lon="13.646316"><ele>148.83333333333331</ele><time>2026-03-28T13:00:57.113Z</time></trkpt><trkpt lat="45.8029185" lon="13.6464385"><ele>148.66666666666666</ele><time>2026-03-28T13:00:58.15Z</time></trkpt><trkpt lat="45.8029331" lon="13.6465583"><ele>148.5</ele><time>2026-03-28T13:00:59.108Z</time></trkpt><trkpt lat="45.8029166" lon="13.6466667"><ele>148.33333333333334</ele><time>2026-03-28T13:01:00.104Z</time></trkpt><trkpt lat="45.8028756" lon="13.6467655"><ele>148.16666666666669</ele><time>2026-03-28T13:01:01.095Z</time></trkpt><trkpt lat="45.8028356" lon="13.6468683"><ele>148.0</ele><time>2026-03-28T13:01:02.09Z</time></trkpt><trkpt lat="45.8028017" lon="13.6469697"><ele>147.83333333333334</ele><time>2026-03-28T13:01:03.114Z</time></trkpt><trkpt lat="45.8027773" lon="13.6470785"><ele>147.66666666666669</ele><time>2026-03-28T13:01:04.116Z</time></trkpt><trkpt lat="45.8027549" lon="13.6471966"><ele>147.5</ele><time>2026-03-28T13:01:05.131Z</time></trkpt><trkpt lat="45.8027284" lon="13.6473185"><ele>147.33333333333334</ele><time>2026-03-28T13:01:06.107Z</time></trkpt><trkpt lat="45.8027062" lon="13.6474519"><ele>147.16666666666666</ele><time>2026-03-28T13:01:07.113Z</time></trkpt><trkpt lat="45.8026845" lon="13.6475866"><ele>147.0</ele><time>2026-03-28T13:01:08.115Z</time></trkpt><trkpt lat="45.8026699" lon="13.6477232"><ele>146.66666666666666</ele><time>2026-03-28T13:01:09.12Z</time></trkpt><trkpt lat="45.8026625" lon="13.6478528"><ele>146.33333333333334</ele><time>2026-03-28T13:01:10.104Z</time></trkpt><trkpt lat="45.8026782" lon="13.6479864"><ele>146.0</ele><time>2026-03-28T13:01:11.103Z</time></trkpt><trkpt lat="45.802693" lon="13.6481052"><ele>145.66666666666669</ele><time>2026-03-28T13:01:12.117Z</time></trkpt><trkpt lat="45.8026918" lon="13.6482279"><ele>145.33333333333334</ele><time>2026-03-28T13:01:13.111Z</time></trkpt><trkpt lat="45.8026695" lon="13.648358"><ele>145.0</ele><time>2026-03-28T13:01:14.115Z</time></trkpt><trkpt lat="45.8026417" lon="13.6485015"><ele>148.0</ele><time>2026-03-28T13:01:15.109Z</time></trkpt><trkpt lat="45.8026148" lon="13.6486408"><ele>151.0</ele><time>2026-03-28T13:01:16.132Z</time></trkpt><trkpt lat="45.8025844" lon="13.6487813"><ele>154.0</ele><time>2026-03-28T13:01:17.118Z</time></trkpt><trkpt lat="45.8025359" lon="13.6489169"><ele>157.0</ele><time>2026-03-28T13:01:18.113Z</time></trkpt><trkpt lat="45.8024827" lon="13.6490463"><ele>160.0</ele><time>2026-03-28T13:01:19.118Z</time></trkpt><trkpt lat="45.8024462" lon="13.6491651"><ele>160.0</ele><time>2026-03-28T13:01:20.116Z</time></trkpt><trkpt lat="45.8024355" lon="13.6492713"><ele>160.0</ele><time>2026-03-28T13:01:21.113Z</time></trkpt><trkpt lat="45.8024532" lon="13.6493764"><ele>160.0</ele><time>2026-03-28T13:01:22.115Z</time></trkpt><trkpt lat="45.8024941" lon="13.6494868"><ele>160.0</ele><time>2026-03-28T13:01:23.106Z</time></trkpt><trkpt lat="45.8025344" lon="13.6495981"><ele>160.0</ele><time>2026-03-28T13:01:24.107Z</time></trkpt><trkpt lat="45.8025618" lon="13.6497229"><ele>160.0</ele><time>2026-03-28T13:01:25.11Z</time></trkpt><trkpt lat="45.8025713" lon="13.6498567"><ele>160.0</ele><time>2026-03-28T13:01:26.12Z</time></trkpt><trkpt lat="45.8025864" lon="13.6499894"><ele>160.0</ele><time>2026-03-28T13:01:27.107Z</time></trkpt><trkpt lat="45.8025943" lon="13.650134"><ele>160.0</ele><time>2026-03-28T13:01:28.114Z</time></trkpt><trkpt lat="45.802598" lon="13.6502683"><ele>160.0</ele><time>2026-03-28T13:01:29.101Z</time></trkpt><trkpt lat="45.802586" lon="13.6504036"><ele>160.0</ele><time>2026-03-28T13:01:30.118Z</time></trkpt><trkpt lat="45.8025716" lon="13.6505387"><ele>160.4</ele><time>2026-03-28T13:01:31.103Z</time></trkpt><trkpt lat="45.802567" lon="13.6506847"><ele>160.8</ele><time>2026-03-28T13:01:32.107Z</time></trkpt><trkpt lat="45.8025646" lon="13.6508319"><ele>161.2</ele><time>2026-03-28T13:01:33.1Z</time></trkpt><trkpt lat="45.8025709" lon="13.6509836"><ele>161.6</ele><time>2026-03-28T13:01:34.11Z</time></trkpt><trkpt lat="45.8025853" lon="13.6511351"><ele>162.0</ele><time>2026-03-28T13:01:35.104Z</time></trkpt><trkpt lat="45.8026018" lon="13.651277"><ele>162.2</ele><time>2026-03-28T13:01:36.115Z</time></trkpt><trkpt lat="45.8026192" lon="13.6514262"><ele>162.39999999999998</ele><time>2026-03-28T13:01:37.113Z</time></trkpt><trkpt lat="45.8026355" lon="13.65157"><ele>162.60000000000002</ele><time>2026-03-28T13:01:38.108Z</time></trkpt><trkpt lat="45.8026449" lon="13.6517266"><ele>162.8</ele><time>2026-03-28T13:01:39.121Z</time></trkpt><trkpt lat="45.8026492" lon="13.6518853"><ele>163.0</ele><time>2026-03-28T13:01:40.109Z</time></trkpt><trkpt lat="45.8026492" lon="13.6520403"><ele>163.4</ele><time>2026-03-28T13:01:41.107Z</time></trkpt><trkpt lat="45.8026486" lon="13.6521938"><ele>163.8</ele><time>2026-03-28T13:01:42.107Z</time></trkpt><trkpt lat="45.8026388" lon="13.6523482"><ele>164.2</ele><time>2026-03-28T13:01:43.109Z</time></trkpt><trkpt lat="45.8026212" lon="13.6524941"><ele>164.6</ele><time>2026-03-28T13:01:44.112Z</time></trkpt><trkpt lat="45.8025934" lon="13.6526298"><ele>165.0</ele><time>2026-03-28T13:01:45.107Z</time></trkpt><trkpt lat="45.8025565" lon="13.6527754"><ele>165.8</ele><time>2026-03-28T13:01:46.113Z</time></trkpt><trkpt lat="45.8025305" lon="13.6529124"><ele>166.6</ele><time>2026-03-28T13:01:47.11Z</time></trkpt><trkpt lat="45.8025118" lon="13.6530547"><ele>167.39999999999998</ele><time>2026-03-28T13:01:48.102Z</time></trkpt><trkpt lat="45.8025159" lon="13.653184"><ele>168.2</ele><time>2026-03-28T13:01:49.121Z</time></trkpt><trkpt lat="45.8025365" lon="13.6533005"><ele>169.0</ele><time>2026-03-28T13:01:50.111Z</time></trkpt><trkpt lat="45.8025401" lon="13.6534088"><ele>169.0</ele><time>2026-03-28T13:01:51.108Z</time></trkpt><trkpt lat="45.8025233" lon="13.6535039"><ele>169.0</ele><time>2026-03-28T13:01:52.101Z</time></trkpt><trkpt lat="45.8024871" lon="13.6535998"><ele>169.0</ele><time>2026-03-28T13:01:53.093Z</time></trkpt><trkpt lat="45.8024407" lon="13.653691"><ele>169.0</ele><time>2026-03-28T13:01:54.108Z</time></trkpt><trkpt lat="45.8024026" lon="13.6537893"><ele>169.0</ele><time>2026-03-28T13:01:55.113Z</time></trkpt><trkpt lat="45.8023853" lon="13.6539006"><ele>169.0</ele><time>2026-03-28T13:01:56.106Z</time></trkpt><trkpt lat="45.8023731" lon="13.6540319"><ele>168.6</ele><time>2026-03-28T13:01:57.121Z</time></trkpt><trkpt lat="45.8023618" lon="13.6541602"><ele>168.2</ele><time>2026-03-28T13:01:58.109Z</time></trkpt><trkpt lat="45.8023526" lon="13.6542972"><ele>167.79999999999998</ele><time>2026-03-28T13:01:59.093Z</time></trkpt><trkpt lat="45.8023498" lon="13.6544368"><ele>167.39999999999998</ele><time>2026-03-28T13:02:00.103Z</time></trkpt><trkpt lat="45.8023384" lon="13.6545819"><ele>167.0</ele><time>2026-03-28T13:02:01.115Z</time></trkpt><trkpt lat="45.802322" lon="13.6547346"><ele>167.0</ele><time>2026-03-28T13:02:02.1Z</time></trkpt><trkpt lat="45.8023062" lon="13.6548864"><ele>167.0</ele><time>2026-03-28T13:02:03.131Z</time></trkpt><trkpt lat="45.8023029" lon="13.6550479"><ele>167.0</ele><time>2026-03-28T13:02:04.104Z</time></trkpt><trkpt lat="45.8023081" lon="13.6552201"><ele>167.0</ele><time>2026-03-28T13:02:05.098Z</time></trkpt><trkpt lat="45.8023105" lon="13.6553929"><ele>166.5</ele><time>2026-03-28T13:02:06.101Z</time></trkpt><trkpt lat="45.8023113" lon="13.6555622"><ele>166.0</ele><time>2026-03-28T13:02:07.103Z</time></trkpt><trkpt lat="45.802318" lon="13.6557334"><ele>165.5</ele><time>2026-03-28T13:02:08.108Z</time></trkpt><trkpt lat="45.8023277" lon="13.6558925"><ele>165.0</ele><time>2026-03-28T13:02:09.106Z</time></trkpt><trkpt lat="45.8023348" lon="13.6560463"><ele>164.4</ele><time>2026-03-28T13:02:10.126Z</time></trkpt><trkpt lat="45.8023308" lon="13.656196"><ele>163.8</ele><time>2026-03-28T13:02:11.101Z</time></trkpt><trkpt lat="45.802319" lon="13.6563473"><ele>163.2</ele><time>2026-03-28T13:02:12.108Z</time></trkpt><trkpt lat="45.8023001" lon="13.6565091"><ele>162.6</ele><time>2026-03-28T13:02:13.106Z</time></trkpt><trkpt lat="45.8022986" lon="13.6566674"><ele>162.0</ele><time>2026-03-28T13:02:14.11Z</time></trkpt><trkpt lat="45.8023038" lon="13.6568288"><ele>162.0</ele><time>2026-03-28T13:02:15.117Z</time></trkpt><trkpt lat="45.8023034" lon="13.6569749"><ele>162.0</ele><time>2026-03-28T13:02:16.11Z</time></trkpt><trkpt lat="45.8022962" lon="13.6571163"><ele>162.0</ele><time>2026-03-28T13:02:17.107Z</time></trkpt><trkpt lat="45.8022804" lon="13.6572651"><ele>162.0</ele><time>2026-03-28T13:02:18.116Z</time></trkpt><trkpt lat="45.8022658" lon="13.6574087"><ele>162.0</ele><time>2026-03-28T13:02:19.122Z</time></trkpt><trkpt lat="45.8022486" lon="13.6575504"><ele>162.0</ele><time>2026-03-28T13:02:20.12Z</time></trkpt><trkpt lat="45.8022233" lon="13.6576888"><ele>162.0</ele><time>2026-03-28T13:02:21.104Z</time></trkpt><trkpt lat="45.8021833" lon="13.6578134"><ele>162.0</ele><time>2026-03-28T13:02:22.117Z</time></trkpt><trkpt lat="45.8021391" lon="13.657939"><ele>162.0</ele><time>2026-03-28T13:02:23.11Z</time></trkpt><trkpt lat="45.8020996" lon="13.6580748"><ele>162.0</ele><time>2026-03-28T13:02:24.132Z</time></trkpt><trkpt lat="45.8020719" lon="13.6581997"><ele>162.16666666666666</ele><time>2026-03-28T13:02:25.103Z</time></trkpt><trkpt lat="45.8020422" lon="13.6583125"><ele>162.33333333333334</ele><time>2026-03-28T13:02:26.127Z</time></trkpt><trkpt lat="45.8020239" lon="13.6584122"><ele>162.5</ele><time>2026-03-28T13:02:27.117Z</time></trkpt><trkpt lat="45.8020358" lon="13.6585192"><ele>162.66666666666669</ele><time>2026-03-28T13:02:28.114Z</time></trkpt><trkpt lat="45.8020709" lon="13.6586226"><ele>162.83333333333334</ele><time>2026-03-28T13:02:29.101Z</time></trkpt><trkpt lat="45.8021185" lon="13.6587089"><ele>163.0</ele><time>2026-03-28T13:02:30.091Z</time></trkpt><trkpt lat="45.8021741" lon="13.6587893"><ele>163.0</ele><time>2026-03-28T13:02:31.102Z</time></trkpt><trkpt lat="45.8022192" lon="13.6588797"><ele>163.0</ele><time>2026-03-28T13:02:32.116Z</time></trkpt><trkpt lat="45.8022628" lon="13.6589816"><ele>163.0</ele><time>2026-03-28T13:02:33.113Z</time></trkpt><trkpt lat="45.8023054" lon="13.659096"><ele>163.0</ele><time>2026-03-28T13:02:34.11Z</time></trkpt><trkpt lat="45.8023444" lon="13.6592211"><ele>163.0</ele><time>2026-03-28T13:02:35.121Z</time></trkpt><trkpt lat="45.8023718" lon="13.6593604"><ele>163.0</ele><time>2026-03-28T13:02:36.105Z</time></trkpt><trkpt lat="45.8023879" lon="13.6595013"><ele>162.20000000000002</ele><time>2026-03-28T13:02:37.105Z</time></trkpt><trkpt lat="45.8023957" lon="13.6596538"><ele>161.4</ele><time>2026-03-28T13:02:38.115Z</time></trkpt><trkpt lat="45.8024047" lon="13.6597994"><ele>160.60000000000002</ele><time>2026-03-28T13:02:39.1Z</time></trkpt><trkpt lat="45.8024169" lon="13.6599422"><ele>159.8</ele><time>2026-03-28T13:02:40.128Z</time></trkpt><trkpt lat="45.8024319" lon="13.6600552"><ele>159.0</ele><time>2026-03-28T13:02:41.098Z</time></trkpt><trkpt lat="45.8024614" lon="13.660135"><ele>159.0</ele><time>2026-03-28T13:02:42.102Z</time></trkpt><trkpt lat="45.8025094" lon="13.6601973"><ele>159.0</ele><time>2026-03-28T13:02:43.106Z</time></trkpt><trkpt lat="45.8025613" lon="13.6602588"><ele>159.0</ele><time>2026-03-28T13:02:44.094Z</time></trkpt><trkpt lat="45.8026227" lon="13.6603277"><ele>159.0</ele><time>2026-03-28T13:02:45.108Z</time></trkpt><trkpt lat="45.8026955" lon="13.6603745"><ele>159.0</ele><time>2026-03-28T13:02:46.103Z</time></trkpt><trkpt lat="45.802771" lon="13.6604211"><ele>159.0</ele><time>2026-03-28T13:02:47.111Z</time></trkpt><trkpt lat="45.8028401" lon="13.6604846"><ele>157.83333333333334</ele><time>2026-03-28T13:02:48.115Z</time></trkpt><trkpt lat="45.8028965" lon="13.6605784"><ele>156.66666666666666</ele><time>2026-03-28T13:02:49.112Z</time></trkpt><trkpt lat="45.8029351" lon="13.6606775"><ele>155.5</ele><time>2026-03-28T13:02:50.113Z</time></trkpt><trkpt lat="45.8029575" lon="13.6607767"><ele>154.33333333333331</ele><time>2026-03-28T13:02:51.101Z</time></trkpt><trkpt lat="45.8029551" lon="13.6608969"><ele>153.16666666666666</ele><time>2026-03-28T13:02:52.104Z</time></trkpt><trkpt lat="45.8029399" lon="13.6610413"><ele>152.0</ele><time>2026-03-28T13:02:53.105Z</time></trkpt><trkpt lat="45.8029367" lon="13.6611899"><ele>151.83333333333331</ele><time>2026-03-28T13:02:54.107Z</time></trkpt><trkpt lat="45.8029351" lon="13.6613209"><ele>151.66666666666666</ele><time>2026-03-28T13:02:55.099Z</time></trkpt><trkpt lat="45.8029169" lon="13.6614407"><ele>151.5</ele><time>2026-03-28T13:02:56.116Z</time></trkpt><trkpt lat="45.8028815" lon="13.6615563"><ele>151.33333333333334</ele><time>2026-03-28T13:02:57.104Z</time></trkpt><trkpt lat="45.8028442" lon="13.6616746"><ele>151.16666666666669</ele><time>2026-03-28T13:02:58.088Z</time></trkpt><trkpt lat="45.8028135" lon="13.6618009"><ele>151.0</ele><time>2026-03-28T13:02:59.117Z</time></trkpt><trkpt lat="45.8027953" lon="13.6619337"><ele>151.0</ele><time>2026-03-28T13:03:00.102Z</time></trkpt><trkpt lat="45.8027812" lon="13.6620606"><ele>151.0</ele><time>2026-03-28T13:03:01.121Z</time></trkpt><trkpt lat="45.8027515" lon="13.6621472"><ele>151.0</ele><time>2026-03-28T13:03:02.11Z</time></trkpt><trkpt lat="45.8026977" lon="13.6622104"><ele>151.0</ele><time>2026-03-28T13:03:03.097Z</time></trkpt><trkpt lat="45.8026355" lon="13.6622677"><ele>151.0</ele><time>2026-03-28T13:03:04.092Z</time></trkpt><trkpt lat="45.8025634" lon="13.6623107"><ele>151.0</ele><time>2026-03-28T13:03:05.11Z</time></trkpt><trkpt lat="45.8024872" lon="13.6623559"><ele>152.4</ele><time>2026-03-28T13:03:06.119Z</time></trkpt><trkpt lat="45.8024078" lon="13.6624037"><ele>153.8</ele><time>2026-03-28T13:03:07.115Z</time></trkpt><trkpt lat="45.8023433" lon="13.6624821"><ele>155.20000000000002</ele><time>2026-03-28T13:03:08.125Z</time></trkpt><trkpt lat="45.8022916" lon="13.6626039"><ele>156.6</ele><time>2026-03-28T13:03:09.114Z</time></trkpt><trkpt lat="45.8022437" lon="13.6627266"><ele>158.0</ele><time>2026-03-28T13:03:10.105Z</time></trkpt><trkpt lat="45.8021962" lon="13.662826"><ele>158.0</ele><time>2026-03-28T13:03:11.12Z</time></trkpt><trkpt lat="45.802155" lon="13.6629255"><ele>158.0</ele><time>2026-03-28T13:03:12.12Z</time></trkpt><trkpt lat="45.8021307" lon="13.6630575"><ele>158.0</ele><time>2026-03-28T13:03:13.111Z</time></trkpt><trkpt lat="45.8021107" lon="13.6632132"><ele>158.0</ele><time>2026-03-28T13:03:14.095Z</time></trkpt><trkpt lat="45.8020881" lon="13.663365"><ele>158.0</ele><time>2026-03-28T13:03:15.11Z</time></trkpt><trkpt lat="45.8020668" lon="13.6635179"><ele>158.0</ele><time>2026-03-28T13:03:16.094Z</time></trkpt><trkpt lat="45.8020495" lon="13.6636735"><ele>158.0</ele><time>2026-03-28T13:03:17.115Z</time></trkpt><trkpt lat="45.8020267" lon="13.6638322"><ele>158.0</ele><time>2026-03-28T13:03:18.116Z</time></trkpt><trkpt lat="45.8020005" lon="13.6639798"><ele>158.0</ele><time>2026-03-28T13:03:19.111Z</time></trkpt><trkpt lat="45.8019834" lon="13.6641324"><ele>158.0</ele><time>2026-03-28T13:03:20.105Z</time></trkpt><trkpt lat="45.8019888" lon="13.6642658"><ele>158.0</ele><time>2026-03-28T13:03:21.106Z</time></trkpt><trkpt lat="45.8020167" lon="13.6643902"><ele>158.0</ele><time>2026-03-28T13:03:22.109Z</time></trkpt><trkpt lat="45.8020517" lon="13.6645178"><ele>158.0</ele><time>2026-03-28T13:03:23.12Z</time></trkpt><trkpt lat="45.8020677" lon="13.6646496"><ele>158.0</ele><time>2026-03-28T13:03:24.118Z</time></trkpt><trkpt lat="45.8020722" lon="13.6647885"><ele>158.0</ele><time>2026-03-28T13:03:25.124Z</time></trkpt><trkpt lat="45.8020817" lon="13.6649372"><ele>157.6</ele><time>2026-03-28T13:03:26.109Z</time></trkpt><trkpt lat="45.8020922" lon="13.6650934"><ele>157.20000000000002</ele><time>2026-03-28T13:03:27.122Z</time></trkpt><trkpt lat="45.8020964" lon="13.6652464"><ele>156.8</ele><time>2026-03-28T13:03:28.104Z</time></trkpt><trkpt lat="45.8020946" lon="13.6654026"><ele>156.4</ele><time>2026-03-28T13:03:29.109Z</time></trkpt><trkpt lat="45.802096" lon="13.6655699"><ele>156.0</ele><time>2026-03-28T13:03:30.104Z</time></trkpt><trkpt lat="45.8021009" lon="13.6657339"><ele>155.75</ele><time>2026-03-28T13:03:31.113Z</time></trkpt><trkpt lat="45.8020986" lon="13.6658925"><ele>155.5</ele><time>2026-03-28T13:03:32.101Z</time></trkpt><trkpt lat="45.8020848" lon="13.6660551"><ele>155.25</ele><time>2026-03-28T13:03:33.112Z</time></trkpt><trkpt lat="45.8020714" lon="13.6662174"><ele>155.0</ele><time>2026-03-28T13:03:34.108Z</time></trkpt><trkpt lat="45.8020676" lon="13.6663811"><ele>154.5</ele><time>2026-03-28T13:03:35.11Z</time></trkpt><trkpt lat="45.802068" lon="13.6665505"><ele>154.0</ele><time>2026-03-28T13:03:36.117Z</time></trkpt><trkpt lat="45.8020756" lon="13.6667205"><ele>153.5</ele><time>2026-03-28T13:03:37.11Z</time></trkpt><trkpt lat="45.8020793" lon="13.6668922"><ele>153.0</ele><time>2026-03-28T13:03:38.098Z</time></trkpt><trkpt lat="45.8020851" lon="13.6670591"><ele>152.4</ele><time>2026-03-28T13:03:39.114Z</time></trkpt><trkpt lat="45.8020909" lon="13.6672146"><ele>151.8</ele><time>2026-03-28T13:03:40.109Z</time></trkpt><trkpt lat="45.8020981" lon="13.6673579"><ele>151.2</ele><time>2026-03-28T13:03:41.107Z</time></trkpt><trkpt lat="45.8020973" lon="13.6674982"><ele>150.6</ele><time>2026-03-28T13:03:42.114Z</time></trkpt><trkpt lat="45.8020835" lon="13.6676356"><ele>150.0</ele><time>2026-03-28T13:03:43.114Z</time></trkpt><trkpt lat="45.8020719" lon="13.6677658"><ele>149.2</ele><time>2026-03-28T13:03:44.116Z</time></trkpt><trkpt lat="45.802054" lon="13.6678936"><ele>148.4</ele><time>2026-03-28T13:03:45.115Z</time></trkpt><trkpt lat="45.8020127" lon="13.668024"><ele>147.6</ele><time>2026-03-28T13:03:46.108Z</time></trkpt><trkpt lat="45.801977" lon="13.6681567"><ele>146.8</ele><time>2026-03-28T13:03:47.109Z</time></trkpt><trkpt lat="45.8019585" lon="13.6682984"><ele>146.0</ele><time>2026-03-28T13:03:48.113Z</time></trkpt><trkpt lat="45.8019484" lon="13.6684392"><ele>146.0</ele><time>2026-03-28T13:03:49.106Z</time></trkpt><trkpt lat="45.8019319" lon="13.6685657"><ele>146.0</ele><time>2026-03-28T13:03:50.106Z</time></trkpt><trkpt lat="45.801892" lon="13.6686526"><ele>146.0</ele><time>2026-03-28T13:03:51.103Z</time></trkpt><trkpt lat="45.8017829" lon="13.668743"><ele>146.0</ele><time>2026-03-28T13:03:53.091Z</time></trkpt><trkpt lat="45.8017126" lon="13.6687812"><ele>146.0</ele><time>2026-03-28T13:03:54.113Z</time></trkpt><trkpt lat="45.8016274" lon="13.6688191"><ele>148.2</ele><time>2026-03-28T13:03:55.123Z</time></trkpt><trkpt lat="45.80153" lon="13.6688565"><ele>150.39999999999998</ele><time>2026-03-28T13:03:56.128Z</time></trkpt><trkpt lat="45.8014339" lon="13.6688962"><ele>152.6</ele><time>2026-03-28T13:03:57.129Z</time></trkpt><trkpt lat="45.8013324" lon="13.668937"><ele>154.79999999999998</ele><time>2026-03-28T13:03:58.119Z</time></trkpt><trkpt lat="45.8012307" lon="13.6689851"><ele>157.0</ele><time>2026-03-28T13:03:59.113Z</time></trkpt><trkpt lat="45.801135" lon="13.6690433"><ele>157.0</ele><time>2026-03-28T13:04:00.114Z</time></trkpt><trkpt lat="45.8010436" lon="13.6691135"><ele>157.0</ele><time>2026-03-28T13:04:01.116Z</time></trkpt><trkpt lat="45.8009516" lon="13.6691762"><ele>157.0</ele><time>2026-03-28T13:04:02.111Z</time></trkpt><trkpt lat="45.8008667" lon="13.6692314"><ele>157.0</ele><time>2026-03-28T13:04:03.114Z</time></trkpt><trkpt lat="45.8007855" lon="13.66926"><ele>157.0</ele><time>2026-03-28T13:04:04.115Z</time></trkpt><trkpt lat="45.8006946" lon="13.6692663"><ele>157.6</ele><time>2026-03-28T13:04:05.101Z</time></trkpt><trkpt lat="45.8005997" lon="13.6692487"><ele>158.2</ele><time>2026-03-28T13:04:06.125Z</time></trkpt><trkpt lat="45.8004951" lon="13.6692349"><ele>158.8</ele><time>2026-03-28T13:04:07.113Z</time></trkpt><trkpt lat="45.8003955" lon="13.6692618"><ele>159.4</ele><time>2026-03-28T13:04:08.115Z</time></trkpt><trkpt lat="45.8002923" lon="13.6693035"><ele>160.0</ele><time>2026-03-28T13:04:09.093Z</time></trkpt><trkpt lat="45.8001918" lon="13.6693283"><ele>161.2</ele><time>2026-03-28T13:04:10.112Z</time></trkpt><trkpt lat="45.8000961" lon="13.6693422"><ele>162.4</ele><time>2026-03-28T13:04:11.113Z</time></trkpt><trkpt lat="45.7999994" lon="13.6693569"><ele>163.60000000000002</ele><time>2026-03-28T13:04:12.108Z</time></trkpt><trkpt lat="45.7999055" lon="13.6693654"><ele>164.8</ele><time>2026-03-28T13:04:13.137Z</time></trkpt><trkpt lat="45.7998129" lon="13.6693806"><ele>166.0</ele><time>2026-03-28T13:04:14.127Z</time></trkpt><trkpt lat="45.7997267" lon="13.6694272"><ele>165.4</ele><time>2026-03-28T13:04:15.118Z</time></trkpt><trkpt lat="45.7996464" lon="13.6694955"><ele>164.8</ele><time>2026-03-28T13:04:16.105Z</time></trkpt><trkpt lat="45.7995663" lon="13.6695801"><ele>164.20000000000002</ele><time>2026-03-28T13:04:17.113Z</time></trkpt><trkpt lat="45.7994903" lon="13.6696748"><ele>163.60000000000002</ele><time>2026-03-28T13:04:18.115Z</time></trkpt><trkpt lat="45.7994119" lon="13.6697682"><ele>163.0</ele><time>2026-03-28T13:04:19.118Z</time></trkpt><trkpt lat="45.7993308" lon="13.6698534"><ele>165.60000000000002</ele><time>2026-03-28T13:04:20.115Z</time></trkpt><trkpt lat="45.7992581" lon="13.6699507"><ele>168.20000000000002</ele><time>2026-03-28T13:04:21.107Z</time></trkpt><trkpt lat="45.7991794" lon="13.6700505"><ele>170.8</ele><time>2026-03-28T13:04:22.116Z</time></trkpt><trkpt lat="45.7990965" lon="13.6701416"><ele>173.4</ele><time>2026-03-28T13:04:23.118Z</time></trkpt><trkpt lat="45.7990078" lon="13.6702165"><ele>176.0</ele><time>2026-03-28T13:04:24.113Z</time></trkpt><trkpt lat="45.7989183" lon="13.670277"><ele>176.0</ele><time>2026-03-28T13:04:25.116Z</time></trkpt><trkpt lat="45.7988235" lon="13.6703373"><ele>176.0</ele><time>2026-03-28T13:04:26.118Z</time></trkpt><trkpt lat="45.7987229" lon="13.6704009"><ele>176.0</ele><time>2026-03-28T13:04:27.11Z</time></trkpt><trkpt lat="45.798617" lon="13.670464"><ele>176.0</ele><time>2026-03-28T13:04:28.12Z</time></trkpt><trkpt lat="45.7985038" lon="13.6705309"><ele>176.25</ele><time>2026-03-28T13:04:29.113Z</time></trkpt><trkpt lat="45.7983847" lon="13.6705939"><ele>176.5</ele><time>2026-03-28T13:04:30.133Z</time></trkpt><trkpt lat="45.7982645" lon="13.6706494"><ele>176.75</ele><time>2026-03-28T13:04:31.116Z</time></trkpt><trkpt lat="45.798157" lon="13.6707026"><ele>177.0</ele><time>2026-03-28T13:04:32.119Z</time></trkpt><trkpt lat="45.7980665" lon="13.6707581"><ele>177.0</ele><time>2026-03-28T13:04:33.113Z</time></trkpt><trkpt lat="45.7979816" lon="13.6708076"><ele>177.0</ele><time>2026-03-28T13:04:34.116Z</time></trkpt><trkpt lat="45.7978993" lon="13.6708541"><ele>177.0</ele><time>2026-03-28T13:04:35.117Z</time></trkpt><trkpt lat="45.7978167" lon="13.6708942"><ele>177.0</ele><time>2026-03-28T13:04:36.122Z</time></trkpt><trkpt lat="45.7977372" lon="13.6709309"><ele>177.0</ele><time>2026-03-28T13:04:37.14Z</time></trkpt><trkpt lat="45.7976691" lon="13.6709921"><ele>177.0</ele><time>2026-03-28T13:04:38.124Z</time></trkpt><trkpt lat="45.797624" lon="13.6710678"><ele>178.5</ele><time>2026-03-28T13:04:39.122Z</time></trkpt><trkpt lat="45.7976003" lon="13.6711561"><ele>180.0</ele><time>2026-03-28T13:04:40.116Z</time></trkpt><trkpt lat="45.7975746" lon="13.6712484"><ele>181.5</ele><time>2026-03-28T13:04:41.104Z</time></trkpt><trkpt lat="45.797534" lon="13.6713363"><ele>183.0</ele><time>2026-03-28T13:04:42.125Z</time></trkpt><trkpt lat="45.7974758" lon="13.67143"><ele>184.5</ele><time>2026-03-28T13:04:43.113Z</time></trkpt><trkpt lat="45.7974234" lon="13.6715295"><ele>186.0</ele><time>2026-03-28T13:04:44.109Z</time></trkpt><trkpt lat="45.7973854" lon="13.6716353"><ele>186.0</ele><time>2026-03-28T13:04:45.117Z</time></trkpt><trkpt lat="45.7973404" lon="13.6717371"><ele>186.0</ele><time>2026-03-28T13:04:46.121Z</time></trkpt><trkpt lat="45.7972892" lon="13.6718352"><ele>186.0</ele><time>2026-03-28T13:04:47.112Z</time></trkpt><trkpt lat="45.7972428" lon="13.6719279"><ele>186.0</ele><time>2026-03-28T13:04:48.114Z</time></trkpt><trkpt lat="45.7971946" lon="13.6720066"><ele>186.0</ele><time>2026-03-28T13:04:49.12Z</time></trkpt><trkpt lat="45.7971397" lon="13.6720728"><ele>186.0</ele><time>2026-03-28T13:04:50.12Z</time></trkpt><trkpt lat="45.797083" lon="13.6721308"><ele>186.5</ele><time>2026-03-28T13:04:51.118Z</time></trkpt><trkpt lat="45.7969659" lon="13.6721666"><ele>187.0</ele><time>2026-03-28T13:04:53.114Z</time></trkpt><trkpt lat="45.7969042" lon="13.6721145"><ele>187.5</ele><time>2026-03-28T13:04:54.102Z</time></trkpt><trkpt lat="45.79684" lon="13.6720382"><ele>188.0</ele><time>2026-03-28T13:04:55.103Z</time></trkpt><trkpt lat="45.7967807" lon="13.6719649"><ele>188.5</ele><time>2026-03-28T13:04:56.106Z</time></trkpt><trkpt lat="45.7967056" lon="13.6719305"><ele>189.0</ele><time>2026-03-28T13:04:57.112Z</time></trkpt><trkpt lat="45.7966302" lon="13.6719249"><ele>190.0</ele><time>2026-03-28T13:04:58.093Z</time></trkpt><trkpt lat="45.796556" lon="13.6719394"><ele>191.0</ele><time>2026-03-28T13:04:59.109Z</time></trkpt><trkpt lat="45.7964754" lon="13.6719865"><ele>192.0</ele><time>2026-03-28T13:05:00.104Z</time></trkpt><trkpt lat="45.7963889" lon="13.6720523"><ele>193.0</ele><time>2026-03-28T13:05:01.1Z</time></trkpt><trkpt lat="45.7963004" lon="13.6721248"><ele>194.0</ele><time>2026-03-28T13:05:02.115Z</time></trkpt><trkpt lat="45.7962184" lon="13.6721964"><ele>194.00000000000003</ele><time>2026-03-28T13:05:03.111Z</time></trkpt><trkpt lat="45.7961437" lon="13.6722684"><ele>194.0</ele><time>2026-03-28T13:05:04.116Z</time></trkpt><trkpt lat="45.7960783" lon="13.6723571"><ele>194.0</ele><time>2026-03-28T13:05:05.117Z</time></trkpt><trkpt lat="45.79603" lon="13.6724647"><ele>194.0</ele><time>2026-03-28T13:05:06.115Z</time></trkpt><trkpt lat="45.7959952" lon="13.6725716"><ele>194.00000000000003</ele><time>2026-03-28T13:05:07.111Z</time></trkpt><trkpt lat="45.7959738" lon="13.6726797"><ele>194.0</ele><time>2026-03-28T13:05:08.115Z</time></trkpt><trkpt lat="45.7959731" lon="13.6728008"><ele>194.39999999999998</ele><time>2026-03-28T13:05:09.1Z</time></trkpt><trkpt lat="45.7959869" lon="13.6729264"><ele>194.8</ele><time>2026-03-28T13:05:10.108Z</time></trkpt><trkpt lat="45.7960133" lon="13.6730567"><ele>195.2</ele><time>2026-03-28T13:05:11.112Z</time></trkpt><trkpt lat="45.7960475" lon="13.6731893"><ele>195.60000000000002</ele><time>2026-03-28T13:05:12.121Z</time></trkpt><trkpt lat="45.7960881" lon="13.6733074"><ele>196.0</ele><time>2026-03-28T13:05:13.121Z</time></trkpt><trkpt lat="45.7961249" lon="13.6734148"><ele>196.0</ele><time>2026-03-28T13:05:14.134Z</time></trkpt><trkpt lat="45.7961376" lon="13.6735439"><ele>196.0</ele><time>2026-03-28T13:05:15.146Z</time></trkpt><trkpt lat="45.7961266" lon="13.673687"><ele>196.0</ele><time>2026-03-28T13:05:16.107Z</time></trkpt><trkpt lat="45.7961011" lon="13.6738454"><ele>196.0</ele><time>2026-03-28T13:05:17.117Z</time></trkpt><trkpt lat="45.7960772" lon="13.6740169"><ele>196.0</ele><time>2026-03-28T13:05:18.121Z</time></trkpt><trkpt lat="45.796057" lon="13.6741803"><ele>197.33333333333331</ele><time>2026-03-28T13:05:19.129Z</time></trkpt><trkpt lat="45.7960389" lon="13.6743218"><ele>198.66666666666666</ele><time>2026-03-28T13:05:20.131Z</time></trkpt><trkpt lat="45.7960231" lon="13.6744283"><ele>200.0</ele><time>2026-03-28T13:05:21.128Z</time></trkpt><trkpt lat="45.7960025" lon="13.6745187"><ele>201.33333333333331</ele><time>2026-03-28T13:05:22.137Z</time></trkpt><trkpt lat="45.7959921" lon="13.6746469"><ele>202.66666666666666</ele><time>2026-03-28T13:05:24.127Z</time></trkpt><trkpt lat="45.7959311" lon="13.6746927"><ele>204.0</ele><time>2026-03-28T13:05:46.123Z</time></trkpt><trkpt lat="45.7958517" lon="13.6747257"><ele>204.5</ele><time>2026-03-28T13:05:48.125Z</time></trkpt><trkpt lat="45.7957888" lon="13.6747351"><ele>205.0</ele><time>2026-03-28T13:05:49.132Z</time></trkpt><trkpt lat="45.7956628" lon="13.6747782"><ele>205.5</ele><time>2026-03-28T13:05:51.112Z</time></trkpt><trkpt lat="45.7955933" lon="13.6748233"><ele>206.0</ele><time>2026-03-28T13:05:52.13Z</time></trkpt><trkpt lat="45.7955254" lon="13.6748923"><ele>206.5</ele><time>2026-03-28T13:05:53.109Z</time></trkpt><trkpt lat="45.7954671" lon="13.6749858"><ele>207.0</ele><time>2026-03-28T13:05:54.107Z</time></trkpt><trkpt lat="45.7954111" lon="13.6750697"><ele>207.0</ele><time>2026-03-28T13:05:55.108Z</time></trkpt><trkpt lat="45.7953417" lon="13.6751165"><ele>207.0</ele><time>2026-03-28T13:05:56.126Z</time></trkpt><trkpt lat="45.7952586" lon="13.6751464"><ele>207.0</ele><time>2026-03-28T13:05:57.105Z</time></trkpt><trkpt lat="45.7951803" lon="13.6751932"><ele>207.0</ele><time>2026-03-28T13:05:58.115Z</time></trkpt><trkpt lat="45.7951052" lon="13.6752596"><ele>207.0</ele><time>2026-03-28T13:05:59.122Z</time></trkpt><trkpt lat="45.7950449" lon="13.6753329"><ele>207.0</ele><time>2026-03-28T13:06:00.115Z</time></trkpt><trkpt lat="45.7950168" lon="13.6754709"><ele>206.5</ele><time>2026-03-28T13:06:02.115Z</time></trkpt><trkpt lat="45.7950435" lon="13.6756559"><ele>206.0</ele><time>2026-03-28T13:06:04.105Z</time></trkpt><trkpt lat="45.7950502" lon="13.6757576"><ele>205.5</ele><time>2026-03-28T13:06:05.109Z</time></trkpt><trkpt lat="45.7950579" lon="13.6758531"><ele>205.0</ele><time>2026-03-28T13:06:06.116Z</time></trkpt><trkpt lat="45.7950747" lon="13.6759448"><ele>204.5</ele><time>2026-03-28T13:06:07.119Z</time></trkpt><trkpt lat="45.7951147" lon="13.6760293"><ele>204.0</ele><time>2026-03-28T13:06:08.119Z</time></trkpt><trkpt lat="45.7951712" lon="13.6760933"><ele>202.66666666666666</ele><time>2026-03-28T13:06:09.106Z</time></trkpt><trkpt lat="45.795236" lon="13.6761442"><ele>201.33333333333331</ele><time>2026-03-28T13:06:10.115Z</time></trkpt><trkpt lat="45.7952984" lon="13.6762154"><ele>200.0</ele><time>2026-03-28T13:06:11.114Z</time></trkpt><trkpt lat="45.7953404" lon="13.6763011"><ele>198.66666666666666</ele><time>2026-03-28T13:06:12.124Z</time></trkpt><trkpt lat="45.7953619" lon="13.6763996"><ele>197.33333333333331</ele><time>2026-03-28T13:06:13.109Z</time></trkpt><trkpt lat="45.7953677" lon="13.6764981"><ele>196.0</ele><time>2026-03-28T13:06:14.106Z</time></trkpt><trkpt lat="45.7953544" lon="13.6766198"><ele>196.0</ele><time>2026-03-28T13:06:15.114Z</time></trkpt><trkpt lat="45.7953251" lon="13.676761"><ele>196.0</ele><time>2026-03-28T13:06:16.107Z</time></trkpt><trkpt lat="45.7953019" lon="13.6769068"><ele>196.0</ele><time>2026-03-28T13:06:17.112Z</time></trkpt><trkpt lat="45.7952857" lon="13.6770497"><ele>196.0</ele><time>2026-03-28T13:06:18.119Z</time></trkpt><trkpt lat="45.7952665" lon="13.6771759"><ele>196.0</ele><time>2026-03-28T13:06:19.118Z</time></trkpt><trkpt lat="45.7952164" lon="13.6772592"><ele>195.4</ele><time>2026-03-28T13:06:20.128Z</time></trkpt><trkpt lat="45.7951415" lon="13.6773308"><ele>194.8</ele><time>2026-03-28T13:06:21.111Z</time></trkpt><trkpt lat="45.7950576" lon="13.6774136"><ele>194.20000000000002</ele><time>2026-03-28T13:06:22.107Z</time></trkpt><trkpt lat="45.7949731" lon="13.6775149"><ele>193.60000000000002</ele><time>2026-03-28T13:06:23.126Z</time></trkpt><trkpt lat="45.7949022" lon="13.6776115"><ele>193.0</ele><time>2026-03-28T13:06:24.13Z</time></trkpt><trkpt lat="45.7948545" lon="13.6777108"><ele>192.99999999999997</ele><time>2026-03-28T13:06:25.119Z</time></trkpt><trkpt lat="45.7948276" lon="13.6778225"><ele>193.0</ele><time>2026-03-28T13:06:26.105Z</time></trkpt><trkpt lat="45.7948122" lon="13.6779347"><ele>193.0</ele><time>2026-03-28T13:06:27.109Z</time></trkpt><trkpt lat="45.794809" lon="13.6780465"><ele>193.0</ele><time>2026-03-28T13:06:28.119Z</time></trkpt><trkpt lat="45.7948298" lon="13.678168"><ele>192.99999999999997</ele><time>2026-03-28T13:06:29.112Z</time></trkpt><trkpt lat="45.7948723" lon="13.6782963"><ele>193.0</ele><time>2026-03-28T13:06:30.117Z</time></trkpt><trkpt lat="45.7949191" lon="13.6784126"><ele>192.99999999999997</ele><time>2026-03-28T13:06:31.115Z</time></trkpt><trkpt lat="45.7949524" lon="13.6785266"><ele>193.0</ele><time>2026-03-28T13:06:32.121Z</time></trkpt><trkpt lat="45.7949622" lon="13.6786314"><ele>193.0</ele><time>2026-03-28T13:06:33.128Z</time></trkpt><trkpt lat="45.7949437" lon="13.678724"><ele>193.0</ele><time>2026-03-28T13:06:34.117Z</time></trkpt><trkpt lat="45.7949041" lon="13.6788263"><ele>192.99999999999997</ele><time>2026-03-28T13:06:35.119Z</time></trkpt><trkpt lat="45.7948536" lon="13.6789398"><ele>193.0</ele><time>2026-03-28T13:06:36.114Z</time></trkpt><trkpt lat="45.7947975" lon="13.6790502"><ele>193.33333333333331</ele><time>2026-03-28T13:06:37.118Z</time></trkpt><trkpt lat="45.7947439" lon="13.6791385"><ele>193.66666666666666</ele><time>2026-03-28T13:06:38.127Z</time></trkpt><trkpt lat="45.7946831" lon="13.6791959"><ele>194.0</ele><time>2026-03-28T13:06:39.119Z</time></trkpt><trkpt lat="45.7946086" lon="13.6792354"><ele>194.33333333333331</ele><time>2026-03-28T13:06:40.123Z</time></trkpt><trkpt lat="45.7945204" lon="13.6792864"><ele>194.66666666666666</ele><time>2026-03-28T13:06:41.11Z</time></trkpt><trkpt lat="45.7944423" lon="13.6793581"><ele>195.0</ele><time>2026-03-28T13:06:42.126Z</time></trkpt><trkpt lat="45.7943953" lon="13.6794343"><ele>195.0</ele><time>2026-03-28T13:06:43.113Z</time></trkpt><trkpt lat="45.794334" lon="13.6794728"><ele>195.0</ele><time>2026-03-28T13:06:46.118Z</time></trkpt><trkpt lat="45.7942352" lon="13.6793241"><ele>195.0</ele><time>2026-03-28T13:06:48.109Z</time></trkpt><trkpt lat="45.794158" lon="13.6792061"><ele>195.0</ele><time>2026-03-28T13:06:49.11Z</time></trkpt><trkpt lat="45.7940659" lon="13.6790808"><ele>194.75</ele><time>2026-03-28T13:06:50.113Z</time></trkpt><trkpt lat="45.7939692" lon="13.6789451"><ele>194.5</ele><time>2026-03-28T13:06:51.111Z</time></trkpt><trkpt lat="45.7938745" lon="13.6787965"><ele>194.25</ele><time>2026-03-28T13:06:52.137Z</time></trkpt><trkpt lat="45.7937882" lon="13.678636"><ele>194.0</ele><time>2026-03-28T13:06:53.102Z</time></trkpt><trkpt lat="45.7937029" lon="13.6784655"><ele>194.0</ele><time>2026-03-28T13:06:54.123Z</time></trkpt><trkpt lat="45.7936245" lon="13.6783086"><ele>194.0</ele><time>2026-03-28T13:06:55.12Z</time></trkpt><trkpt lat="45.7935524" lon="13.678175"><ele>194.0</ele><time>2026-03-28T13:06:56.112Z</time></trkpt><trkpt lat="45.7934967" lon="13.6780675"><ele>194.0</ele><time>2026-03-28T13:06:57.112Z</time></trkpt><trkpt lat="45.7934655" lon="13.6779774"><ele>194.0</ele><time>2026-03-28T13:06:59.108Z</time></trkpt><trkpt lat="45.7934154" lon="13.6780618"><ele>194.0</ele><time>2026-03-28T13:07:05.102Z</time></trkpt><trkpt lat="45.7934711" lon="13.6782083"><ele>194.0</ele><time>2026-03-28T13:07:07.088Z</time></trkpt><trkpt lat="45.7935249" lon="13.6783178"><ele>194.0</ele><time>2026-03-28T13:07:09.116Z</time></trkpt><trkpt lat="45.7934399" lon="13.6784059"><ele>194.0</ele><time>2026-03-28T13:07:12.104Z</time></trkpt><trkpt lat="45.7933763" lon="13.6784378"><ele>194.0</ele><time>2026-03-28T13:07:13.098Z</time></trkpt><trkpt lat="45.7933181" lon="13.6785061"><ele>194.00000000000003</ele><time>2026-03-28T13:07:14.104Z</time></trkpt><trkpt lat="45.7932668" lon="13.6785788"><ele>194.0</ele><time>2026-03-28T13:07:15.097Z</time></trkpt><trkpt lat="45.7932016" lon="13.6786352"><ele>194.0</ele><time>2026-03-28T13:07:16.112Z</time></trkpt><trkpt lat="45.7931302" lon="13.6786798"><ele>194.0</ele><time>2026-03-28T13:07:17.1Z</time></trkpt><trkpt lat="45.7930484" lon="13.6787477"><ele>194.00000000000003</ele><time>2026-03-28T13:07:18.12Z</time></trkpt><trkpt lat="45.7929612" lon="13.6788298"><ele>194.0</ele><time>2026-03-28T13:07:19.106Z</time></trkpt><trkpt lat="45.7928759" lon="13.6789113"><ele>193.79999999999998</ele><time>2026-03-28T13:07:20.104Z</time></trkpt><trkpt lat="45.7927877" lon="13.6789971"><ele>193.6</ele><time>2026-03-28T13:07:21.109Z</time></trkpt><trkpt lat="45.7927102" lon="13.6790812"><ele>193.4</ele><time>2026-03-28T13:07:22.108Z</time></trkpt><trkpt lat="45.792645" lon="13.6791629"><ele>193.2</ele><time>2026-03-28T13:07:23.117Z</time></trkpt><trkpt lat="45.7925994" lon="13.6792355"><ele>193.0</ele><time>2026-03-28T13:07:24.11Z</time></trkpt><trkpt lat="45.7925922" lon="13.6794238"><ele>194.57142857142858</ele><time>2026-03-28T13:07:26.088Z</time></trkpt><trkpt lat="45.7925879" lon="13.6795153"><ele>196.14285714285714</ele><time>2026-03-28T13:07:27.101Z</time></trkpt><trkpt lat="45.7925428" lon="13.6795987"><ele>197.71428571428572</ele><time>2026-03-28T13:07:28.107Z</time></trkpt><trkpt lat="45.7924861" lon="13.6796741"><ele>199.28571428571428</ele><time>2026-03-28T13:07:29.088Z</time></trkpt><trkpt lat="45.7924365" lon="13.6797549"><ele>200.85714285714286</ele><time>2026-03-28T13:07:30.109Z</time></trkpt><trkpt lat="45.7923855" lon="13.6798205"><ele>202.42857142857144</ele><time>2026-03-28T13:07:31.112Z</time></trkpt><trkpt lat="45.792327" lon="13.6798643"><ele>204.0</ele><time>2026-03-28T13:07:32.104Z</time></trkpt><trkpt lat="45.7922583" lon="13.6798801"><ele>204.0</ele><time>2026-03-28T13:07:33.083Z</time></trkpt><trkpt lat="45.7921941" lon="13.6798728"><ele>204.0</ele><time>2026-03-28T13:07:34.103Z</time></trkpt><trkpt lat="45.7921141" lon="13.6798846"><ele>204.0</ele><time>2026-03-28T13:07:35.095Z</time></trkpt><trkpt lat="45.79203" lon="13.6798993"><ele>204.0</ele><time>2026-03-28T13:07:36.122Z</time></trkpt><trkpt lat="45.7919399" lon="13.6798945"><ele>204.0</ele><time>2026-03-28T13:07:37.105Z</time></trkpt><trkpt lat="45.7918412" lon="13.6798661"><ele>204.0</ele><time>2026-03-28T13:07:38.098Z</time></trkpt><trkpt lat="45.791751" lon="13.6798346"><ele>204.83333333333334</ele><time>2026-03-28T13:07:39.114Z</time></trkpt><trkpt lat="45.7916754" lon="13.6798105"><ele>205.66666666666669</ele><time>2026-03-28T13:07:40.11Z</time></trkpt><trkpt lat="45.7915694" lon="13.679742"><ele>206.5</ele><time>2026-03-28T13:07:42.102Z</time></trkpt><trkpt lat="45.7915378" lon="13.6796547"><ele>207.33333333333334</ele><time>2026-03-28T13:07:43.087Z</time></trkpt><trkpt lat="45.7915029" lon="13.6795391"><ele>208.16666666666669</ele><time>2026-03-28T13:07:44.093Z</time></trkpt><trkpt lat="45.7914615" lon="13.6794215"><ele>209.0</ele><time>2026-03-28T13:07:45.093Z</time></trkpt><trkpt lat="45.7913997" lon="13.6792858"><ele>209.2</ele><time>2026-03-28T13:07:46.107Z</time></trkpt><trkpt lat="45.7913401" lon="13.6791538"><ele>209.39999999999998</ele><time>2026-03-28T13:07:47.103Z</time></trkpt><trkpt lat="45.7912783" lon="13.6790506"><ele>209.6</ele><time>2026-03-28T13:07:48.116Z</time></trkpt><trkpt lat="45.7911985" lon="13.6789703"><ele>209.8</ele><time>2026-03-28T13:07:49.113Z</time></trkpt><trkpt lat="45.7911185" lon="13.6788914"><ele>210.0</ele><time>2026-03-28T13:07:50.107Z</time></trkpt><trkpt lat="45.7910673" lon="13.6788166"><ele>210.0</ele><time>2026-03-28T13:07:51.114Z</time></trkpt><trkpt lat="45.7910351" lon="13.6787138"><ele>210.0</ele><time>2026-03-28T13:07:52.111Z</time></trkpt><trkpt lat="45.7909938" lon="13.6785834"><ele>210.0</ele><time>2026-03-28T13:07:53.103Z</time></trkpt><trkpt lat="45.7909181" lon="13.6784451"><ele>210.0</ele><time>2026-03-28T13:07:54.104Z</time></trkpt><trkpt lat="45.7908353" lon="13.6783139"><ele>210.0</ele><time>2026-03-28T13:07:55.1Z</time></trkpt><trkpt lat="45.7907734" lon="13.6782109"><ele>210.16666666666666</ele><time>2026-03-28T13:07:56.113Z</time></trkpt><trkpt lat="45.7907096" lon="13.6781363"><ele>210.33333333333331</ele><time>2026-03-28T13:07:57.117Z</time></trkpt><trkpt lat="45.7906437" lon="13.6780972"><ele>210.5</ele><time>2026-03-28T13:07:58.117Z</time></trkpt><trkpt lat="45.7905525" lon="13.6780725"><ele>210.66666666666666</ele><time>2026-03-28T13:07:59.098Z</time></trkpt><trkpt lat="45.7904572" lon="13.6780512"><ele>210.83333333333331</ele><time>2026-03-28T13:08:00.102Z</time></trkpt><trkpt lat="45.7903771" lon="13.6780287"><ele>211.0</ele><time>2026-03-28T13:08:01.119Z</time></trkpt><trkpt lat="45.7903079" lon="13.6780234"><ele>211.0</ele><time>2026-03-28T13:08:02.129Z</time></trkpt><trkpt lat="45.7902323" lon="13.6780499"><ele>211.0</ele><time>2026-03-28T13:08:03.102Z</time></trkpt><trkpt lat="45.7901325" lon="13.6780683"><ele>211.0</ele><time>2026-03-28T13:08:04.134Z</time></trkpt><trkpt lat="45.7900269" lon="13.6780669"><ele>211.0</ele><time>2026-03-28T13:08:05.111Z</time></trkpt><trkpt lat="45.7899171" lon="13.6780528"><ele>211.0</ele><time>2026-03-28T13:08:06.11Z</time></trkpt><trkpt lat="45.7898277" lon="13.6780374"><ele>210.4</ele><time>2026-03-28T13:08:07.111Z</time></trkpt><trkpt lat="45.7897492" lon="13.6780412"><ele>209.8</ele><time>2026-03-28T13:08:08.111Z</time></trkpt><trkpt lat="45.7896474" lon="13.6781389"><ele>209.20000000000002</ele><time>2026-03-28T13:08:10.104Z</time></trkpt><trkpt lat="45.7895965" lon="13.6782362"><ele>208.60000000000002</ele><time>2026-03-28T13:08:11.099Z</time></trkpt><trkpt lat="45.7895395" lon="13.6783698"><ele>208.0</ele><time>2026-03-28T13:08:12.1Z</time></trkpt><trkpt lat="45.7894754" lon="13.6785051"><ele>207.49999999999997</ele><time>2026-03-28T13:08:13.113Z</time></trkpt><trkpt lat="45.7894182" lon="13.6786108"><ele>207.0</ele><time>2026-03-28T13:08:14.112Z</time></trkpt><trkpt lat="45.7893285" lon="13.6786688"><ele>206.5</ele><time>2026-03-28T13:08:16.131Z</time></trkpt><trkpt lat="45.7892671" lon="13.6786255"><ele>206.0</ele><time>2026-03-28T13:08:17.103Z</time></trkpt><trkpt lat="45.789218" lon="13.6785491"><ele>205.49999999999997</ele><time>2026-03-28T13:08:18.131Z</time></trkpt><trkpt lat="45.7891719" lon="13.6784669"><ele>205.0</ele><time>2026-03-28T13:08:19.101Z</time></trkpt><trkpt lat="45.7891213" lon="13.6784057"><ele>205.0</ele><time>2026-03-28T13:08:20.092Z</time></trkpt><trkpt lat="45.7890525" lon="13.6783775"><ele>205.0</ele><time>2026-03-28T13:08:21.115Z</time></trkpt><trkpt lat="45.7889628" lon="13.6783581"><ele>205.0</ele><time>2026-03-28T13:08:22.102Z</time></trkpt><trkpt lat="45.7888569" lon="13.6783509"><ele>205.0</ele><time>2026-03-28T13:08:23.137Z</time></trkpt><trkpt lat="45.7887625" lon="13.6783553"><ele>205.0</ele><time>2026-03-28T13:08:24.106Z</time></trkpt><trkpt lat="45.7886777" lon="13.6783922"><ele>205.0</ele><time>2026-03-28T13:08:25.113Z</time></trkpt><trkpt lat="45.7885982" lon="13.6784439"><ele>205.0</ele><time>2026-03-28T13:08:26.099Z</time></trkpt><trkpt lat="45.788538" lon="13.678504"><ele>205.0</ele><time>2026-03-28T13:08:27.112Z</time></trkpt><trkpt lat="45.7884752" lon="13.678636"><ele>205.0</ele><time>2026-03-28T13:08:29.097Z</time></trkpt><trkpt lat="45.7884099" lon="13.6787057"><ele>205.0</ele><time>2026-03-28T13:08:31.111Z</time></trkpt><trkpt lat="45.788314" lon="13.6786696"><ele>204.8</ele><time>2026-03-28T13:08:33.108Z</time></trkpt><trkpt lat="45.7882031" lon="13.678583"><ele>204.6</ele><time>2026-03-28T13:08:35.091Z</time></trkpt><trkpt lat="45.7880935" lon="13.6785998"><ele>204.39999999999998</ele><time>2026-03-28T13:08:37.086Z</time></trkpt><trkpt lat="45.788038" lon="13.6786621"><ele>204.2</ele><time>2026-03-28T13:08:38.085Z</time></trkpt><trkpt lat="45.7879737" lon="13.6787361"><ele>204.0</ele><time>2026-03-28T13:08:39.082Z</time></trkpt><trkpt lat="45.7878907" lon="13.6788351"><ele>204.79999999999998</ele><time>2026-03-28T13:08:40.101Z</time></trkpt><trkpt lat="45.787806" lon="13.6789465"><ele>205.6</ele><time>2026-03-28T13:08:41.109Z</time></trkpt><trkpt lat="45.7877161" lon="13.6790493"><ele>206.4</ele><time>2026-03-28T13:08:42.103Z</time></trkpt><trkpt lat="45.7876425" lon="13.6791449"><ele>207.2</ele><time>2026-03-28T13:08:43.101Z</time></trkpt><trkpt lat="45.7875941" lon="13.6792535"><ele>208.0</ele><time>2026-03-28T13:08:44.102Z</time></trkpt><trkpt lat="45.7875539" lon="13.679366"><ele>208.0</ele><time>2026-03-28T13:08:45.108Z</time></trkpt><trkpt lat="45.7875078" lon="13.6794749"><ele>208.0</ele><time>2026-03-28T13:08:46.116Z</time></trkpt><trkpt lat="45.7874588" lon="13.6795821"><ele>208.0</ele><time>2026-03-28T13:08:47.121Z</time></trkpt><trkpt lat="45.7873992" lon="13.6796778"><ele>208.0</ele><time>2026-03-28T13:08:48.109Z</time></trkpt><trkpt lat="45.7873392" lon="13.6797883"><ele>208.0</ele><time>2026-03-28T13:08:49.117Z</time></trkpt><trkpt lat="45.7872876" lon="13.6799147"><ele>208.0</ele><time>2026-03-28T13:08:50.119Z</time></trkpt><trkpt lat="45.7872336" lon="13.6800362"><ele>208.0</ele><time>2026-03-28T13:08:51.115Z</time></trkpt><trkpt lat="45.7871758" lon="13.6801467"><ele>208.0</ele><time>2026-03-28T13:08:52.126Z</time></trkpt><trkpt lat="45.7871191" lon="13.6802612"><ele>208.0</ele><time>2026-03-28T13:08:53.111Z</time></trkpt><trkpt lat="45.7870686" lon="13.6803662"><ele>208.0</ele><time>2026-03-28T13:08:54.113Z</time></trkpt><trkpt lat="45.7870082" lon="13.6804393"><ele>208.16666666666666</ele><time>2026-03-28T13:08:55.117Z</time></trkpt><trkpt lat="45.7869349" lon="13.6805101"><ele>208.33333333333331</ele><time>2026-03-28T13:08:56.09Z</time></trkpt><trkpt lat="45.7868625" lon="13.6805901"><ele>208.5</ele><time>2026-03-28T13:08:57.115Z</time></trkpt><trkpt lat="45.7867949" lon="13.6806389"><ele>208.66666666666669</ele><time>2026-03-28T13:08:58.124Z</time></trkpt><trkpt lat="45.7867221" lon="13.6806681"><ele>208.83333333333334</ele><time>2026-03-28T13:08:59.099Z</time></trkpt><trkpt lat="45.7866304" lon="13.6807111"><ele>209.0</ele><time>2026-03-28T13:09:00.116Z</time></trkpt><trkpt lat="45.786547" lon="13.6807742"><ele>207.79999999999998</ele><time>2026-03-28T13:09:01.103Z</time></trkpt><trkpt lat="45.7864757" lon="13.680821"><ele>206.6</ele><time>2026-03-28T13:09:02.118Z</time></trkpt><trkpt lat="45.7864017" lon="13.6808362"><ele>205.4</ele><time>2026-03-28T13:09:03.121Z</time></trkpt><trkpt lat="45.7862928" lon="13.6808618"><ele>204.2</ele><time>2026-03-28T13:09:04.102Z</time></trkpt><trkpt lat="45.7861668" lon="13.6808994"><ele>203.0</ele><time>2026-03-28T13:09:05.128Z</time></trkpt><trkpt lat="45.7860422" lon="13.6809391"><ele>202.5</ele><time>2026-03-28T13:09:06.117Z</time></trkpt><trkpt lat="45.7859226" lon="13.6809808"><ele>202.0</ele><time>2026-03-28T13:09:07.113Z</time></trkpt><trkpt lat="45.7858012" lon="13.6810248"><ele>201.5</ele><time>2026-03-28T13:09:08.102Z</time></trkpt><trkpt lat="45.7856876" lon="13.6810671"><ele>201.0</ele><time>2026-03-28T13:09:09.1Z</time></trkpt><trkpt lat="45.7855917" lon="13.6811214"><ele>201.0</ele><time>2026-03-28T13:09:10.112Z</time></trkpt><trkpt lat="45.7855174" lon="13.681199"><ele>201.0</ele><time>2026-03-28T13:09:11.113Z</time></trkpt><trkpt lat="45.7854409" lon="13.6812815"><ele>201.0</ele><time>2026-03-28T13:09:12.116Z</time></trkpt><trkpt lat="45.7853682" lon="13.6813406"><ele>201.0</ele><time>2026-03-28T13:09:13.11Z</time></trkpt><trkpt lat="45.7852817" lon="13.6813791"><ele>201.0</ele><time>2026-03-28T13:09:14.111Z</time></trkpt><trkpt lat="45.7851813" lon="13.6814097"><ele>201.0</ele><time>2026-03-28T13:09:15.103Z</time></trkpt><trkpt lat="45.785087" lon="13.6814331"><ele>201.0</ele><time>2026-03-28T13:09:16.116Z</time></trkpt><trkpt lat="45.7850097" lon="13.6814102"><ele>201.0</ele><time>2026-03-28T13:09:17.106Z</time></trkpt><trkpt lat="45.7849328" lon="13.6813378"><ele>201.0</ele><time>2026-03-28T13:09:18.093Z</time></trkpt><trkpt lat="45.7848315" lon="13.6812621"><ele>201.0</ele><time>2026-03-28T13:09:19.091Z</time></trkpt><trkpt lat="45.7847191" lon="13.6811833"><ele>201.0</ele><time>2026-03-28T13:09:20.108Z</time></trkpt><trkpt lat="45.7846122" lon="13.6811169"><ele>201.0</ele><time>2026-03-28T13:09:21.111Z</time></trkpt><trkpt lat="45.7845059" lon="13.6810532"><ele>201.0</ele><time>2026-03-28T13:09:22.111Z</time></trkpt><trkpt lat="45.7844142" lon="13.6809904"><ele>201.0</ele><time>2026-03-28T13:09:23.119Z</time></trkpt><trkpt lat="45.7843351" lon="13.6809305"><ele>201.0</ele><time>2026-03-28T13:09:24.115Z</time></trkpt><trkpt lat="45.7842753" lon="13.6808871"><ele>200.7142857142857</ele><time>2026-03-28T13:09:25.108Z</time></trkpt><trkpt lat="45.7842112" lon="13.6808742"><ele>200.42857142857144</ele><time>2026-03-28T13:09:26.121Z</time></trkpt><trkpt lat="45.7841415" lon="13.6808763"><ele>200.14285714285714</ele><time>2026-03-28T13:09:27.102Z</time></trkpt><trkpt lat="45.7840665" lon="13.6808721"><ele>199.85714285714283</ele><time>2026-03-28T13:09:28.126Z</time></trkpt><trkpt lat="45.7839911" lon="13.6808619"><ele>199.57142857142856</ele><time>2026-03-28T13:09:29.108Z</time></trkpt><trkpt lat="45.7839147" lon="13.6808502"><ele>199.28571428571428</ele><time>2026-03-28T13:09:30.114Z</time></trkpt><trkpt lat="45.7838418" lon="13.6808377"><ele>199.0</ele><time>2026-03-28T13:09:31.116Z</time></trkpt><trkpt lat="45.7837724" lon="13.6808259"><ele>199.0</ele><time>2026-03-28T13:09:32.116Z</time></trkpt><trkpt lat="45.7837076" lon="13.6808207"><ele>199.0</ele><time>2026-03-28T13:09:33.106Z</time></trkpt><trkpt lat="45.7835924" lon="13.6808217"><ele>199.0</ele><time>2026-03-28T13:09:35.117Z</time></trkpt><trkpt lat="45.783492" lon="13.6808394"><ele>199.0</ele><time>2026-03-28T13:09:37.108Z</time></trkpt><trkpt lat="45.7834418" lon="13.6809817"><ele>199.0</ele><time>2026-03-28T13:09:39.093Z</time></trkpt><trkpt lat="45.7834467" lon="13.6811079"><ele>198.39999999999998</ele><time>2026-03-28T13:09:40.106Z</time></trkpt><trkpt lat="45.7834587" lon="13.6812532"><ele>197.8</ele><time>2026-03-28T13:09:41.1Z</time></trkpt><trkpt lat="45.7834686" lon="13.681403"><ele>197.2</ele><time>2026-03-28T13:09:42.122Z</time></trkpt><trkpt lat="45.7834783" lon="13.6815465"><ele>196.60000000000002</ele><time>2026-03-28T13:09:43.123Z</time></trkpt><trkpt lat="45.7834847" lon="13.6816881"><ele>196.0</ele><time>2026-03-28T13:09:44.106Z</time></trkpt><trkpt lat="45.7834858" lon="13.6818257"><ele>196.66666666666666</ele><time>2026-03-28T13:09:45.106Z</time></trkpt><trkpt lat="45.7834798" lon="13.681955"><ele>197.33333333333331</ele><time>2026-03-28T13:09:46.103Z</time></trkpt><trkpt lat="45.783476" lon="13.6820671"><ele>198.0</ele><time>2026-03-28T13:09:47.122Z</time></trkpt><trkpt lat="45.7834668" lon="13.6821708"><ele>198.66666666666669</ele><time>2026-03-28T13:09:48.11Z</time></trkpt><trkpt lat="45.7834398" lon="13.682263"><ele>199.33333333333334</ele><time>2026-03-28T13:09:49.119Z</time></trkpt><trkpt lat="45.7834055" lon="13.6823725"><ele>200.0</ele><time>2026-03-28T13:09:50.093Z</time></trkpt><trkpt lat="45.7833629" lon="13.6824955"><ele>200.0</ele><time>2026-03-28T13:09:51.105Z</time></trkpt><trkpt lat="45.7833181" lon="13.6826306"><ele>200.0</ele><time>2026-03-28T13:09:52.107Z</time></trkpt><trkpt lat="45.7832758" lon="13.6827699"><ele>200.0</ele><time>2026-03-28T13:09:53.103Z</time></trkpt><trkpt lat="45.7832334" lon="13.6829078"><ele>200.0</ele><time>2026-03-28T13:09:54.127Z</time></trkpt><trkpt lat="45.7831823" lon="13.6830447"><ele>200.0</ele><time>2026-03-28T13:09:55.11Z</time></trkpt><trkpt lat="45.7831293" lon="13.683153"><ele>200.00000000000003</ele><time>2026-03-28T13:09:56.103Z</time></trkpt><trkpt lat="45.7830807" lon="13.683239"><ele>200.0</ele><time>2026-03-28T13:09:57.106Z</time></trkpt><trkpt lat="45.7830573" lon="13.683334"><ele>200.0</ele><time>2026-03-28T13:09:58.126Z</time></trkpt><trkpt lat="45.7830409" lon="13.6834446"><ele>200.0</ele><time>2026-03-28T13:09:59.092Z</time></trkpt><trkpt lat="45.7830019" lon="13.6835705"><ele>200.00000000000003</ele><time>2026-03-28T13:10:00.117Z</time></trkpt><trkpt lat="45.782947" lon="13.6837125"><ele>200.0</ele><time>2026-03-28T13:10:01.11Z</time></trkpt><trkpt lat="45.7828873" lon="13.6838447"><ele>200.0</ele><time>2026-03-28T13:10:02.116Z</time></trkpt><trkpt lat="45.7828218" lon="13.68396"><ele>200.0</ele><time>2026-03-28T13:10:03.108Z</time></trkpt><trkpt lat="45.7827523" lon="13.6840593"><ele>200.0</ele><time>2026-03-28T13:10:04.128Z</time></trkpt><trkpt lat="45.782692" lon="13.684138"><ele>200.0</ele><time>2026-03-28T13:10:05.121Z</time></trkpt><trkpt lat="45.7826475" lon="13.6842452"><ele>200.0</ele><time>2026-03-28T13:10:06.116Z</time></trkpt><trkpt lat="45.7826473" lon="13.6843771"><ele>199.66666666666669</ele><time>2026-03-28T13:10:07.11Z</time></trkpt><trkpt lat="45.7826694" lon="13.6845025"><ele>199.33333333333334</ele><time>2026-03-28T13:10:08.094Z</time></trkpt><trkpt lat="45.7826767" lon="13.6846298"><ele>199.0</ele><time>2026-03-28T13:10:09.095Z</time></trkpt><trkpt lat="45.7826605" lon="13.6847503"><ele>198.66666666666669</ele><time>2026-03-28T13:10:10.111Z</time></trkpt><trkpt lat="45.782625" lon="13.6848571"><ele>198.33333333333334</ele><time>2026-03-28T13:10:11.11Z</time></trkpt><trkpt lat="45.7825809" lon="13.6849619"><ele>198.0</ele><time>2026-03-28T13:10:12.115Z</time></trkpt><trkpt lat="45.7825237" lon="13.6850619"><ele>198.0</ele><time>2026-03-28T13:10:13.09Z</time></trkpt><trkpt lat="45.7824829" lon="13.6851988"><ele>198.0</ele><time>2026-03-28T13:10:14.118Z</time></trkpt><trkpt lat="45.7824448" lon="13.6853679"><ele>198.0</ele><time>2026-03-28T13:10:15.109Z</time></trkpt><trkpt lat="45.7824108" lon="13.6855308"><ele>198.0</ele><time>2026-03-28T13:10:16.11Z</time></trkpt><trkpt lat="45.7823743" lon="13.6856752"><ele>198.8</ele><time>2026-03-28T13:10:17.108Z</time></trkpt><trkpt lat="45.7823488" lon="13.6858176"><ele>199.60000000000002</ele><time>2026-03-28T13:10:18.119Z</time></trkpt><trkpt lat="45.7823277" lon="13.6859467"><ele>200.39999999999998</ele><time>2026-03-28T13:10:19.114Z</time></trkpt><trkpt lat="45.7822934" lon="13.6860556"><ele>201.2</ele><time>2026-03-28T13:10:20.122Z</time></trkpt><trkpt lat="45.7822231" lon="13.6861172"><ele>202.0</ele><time>2026-03-28T13:10:21.111Z</time></trkpt><trkpt lat="45.782137" lon="13.6861655"><ele>203.39999999999998</ele><time>2026-03-28T13:10:22.102Z</time></trkpt><trkpt lat="45.7820651" lon="13.686237"><ele>204.79999999999998</ele><time>2026-03-28T13:10:23.099Z</time></trkpt><trkpt lat="45.7820176" lon="13.686345"><ele>206.2</ele><time>2026-03-28T13:10:24.117Z</time></trkpt><trkpt lat="45.7819884" lon="13.6864693"><ele>207.6</ele><time>2026-03-28T13:10:25.095Z</time></trkpt><trkpt lat="45.7819571" lon="13.6865916"><ele>209.0</ele><time>2026-03-28T13:10:26.097Z</time></trkpt><trkpt lat="45.7819143" lon="13.6867093"><ele>209.0</ele><time>2026-03-28T13:10:27.115Z</time></trkpt><trkpt lat="45.7818893" lon="13.6868202"><ele>209.0</ele><time>2026-03-28T13:10:28.116Z</time></trkpt><trkpt lat="45.781901" lon="13.686946"><ele>209.0</ele><time>2026-03-28T13:10:29.131Z</time></trkpt><trkpt lat="45.7819201" lon="13.6870841"><ele>209.0</ele><time>2026-03-28T13:10:30.095Z</time></trkpt><trkpt lat="45.7819306" lon="13.6872345"><ele>209.0</ele><time>2026-03-28T13:10:31.117Z</time></trkpt><trkpt lat="45.78194" lon="13.6873898"><ele>209.25</ele><time>2026-03-28T13:10:32.116Z</time></trkpt><trkpt lat="45.7819501" lon="13.6875513"><ele>209.5</ele><time>2026-03-28T13:10:33.114Z</time></trkpt><trkpt lat="45.7819627" lon="13.6877124"><ele>209.75</ele><time>2026-03-28T13:10:34.099Z</time></trkpt><trkpt lat="45.7819735" lon="13.6878733"><ele>210.0</ele><time>2026-03-28T13:10:35.107Z</time></trkpt><trkpt lat="45.7819755" lon="13.6880418"><ele>210.0</ele><time>2026-03-28T13:10:36.114Z</time></trkpt><trkpt lat="45.7819685" lon="13.6882013"><ele>210.0</ele><time>2026-03-28T13:10:37.114Z</time></trkpt><trkpt lat="45.7819631" lon="13.688361"><ele>210.0</ele><time>2026-03-28T13:10:38.116Z</time></trkpt><trkpt lat="45.7819586" lon="13.6885229"><ele>210.0</ele><time>2026-03-28T13:10:39.11Z</time></trkpt><trkpt lat="45.7819532" lon="13.6886815"><ele>210.0</ele><time>2026-03-28T13:10:40.106Z</time></trkpt><trkpt lat="45.7819427" lon="13.6888322"><ele>209.4</ele><time>2026-03-28T13:10:41.119Z</time></trkpt><trkpt lat="45.7819283" lon="13.6889702"><ele>208.8</ele><time>2026-03-28T13:10:42.101Z</time></trkpt><trkpt lat="45.7819015" lon="13.6891037"><ele>208.2</ele><time>2026-03-28T13:10:43.112Z</time></trkpt><trkpt lat="45.7818498" lon="13.6892143"><ele>207.6</ele><time>2026-03-28T13:10:44.116Z</time></trkpt><trkpt lat="45.7817875" lon="13.6893054"><ele>207.0</ele><time>2026-03-28T13:10:45.082Z</time></trkpt><trkpt lat="45.7817304" lon="13.6893774"><ele>207.39999999999998</ele><time>2026-03-28T13:10:46.118Z</time></trkpt><trkpt lat="45.7816892" lon="13.6895111"><ele>207.79999999999998</ele><time>2026-03-28T13:10:48.114Z</time></trkpt><trkpt lat="45.7817424" lon="13.689682"><ele>208.2</ele><time>2026-03-28T13:10:50.098Z</time></trkpt><trkpt lat="45.7817567" lon="13.6898429"><ele>208.6</ele><time>2026-03-28T13:10:52.11Z</time></trkpt><trkpt lat="45.7817789" lon="13.6899701"><ele>209.0</ele><time>2026-03-28T13:10:54.101Z</time></trkpt><trkpt lat="45.7818503" lon="13.6900696"><ele>208.0</ele><time>2026-03-28T13:10:56.099Z</time></trkpt><trkpt lat="45.7819591" lon="13.6901475"><ele>207.0</ele><time>2026-03-28T13:10:58.114Z</time></trkpt><trkpt lat="45.7820218" lon="13.6901792"><ele>206.0</ele><time>2026-03-28T13:10:59.105Z</time></trkpt><trkpt lat="45.7821488" lon="13.6902104"><ele>205.0</ele><time>2026-03-28T13:11:01.117Z</time></trkpt><trkpt lat="45.782228" lon="13.6902261"><ele>204.0</ele><time>2026-03-28T13:11:02.111Z</time></trkpt><trkpt lat="45.7823055" lon="13.6902509"><ele>204.66666666666666</ele><time>2026-03-28T13:11:03.113Z</time></trkpt><trkpt lat="45.7823867" lon="13.6902837"><ele>205.33333333333331</ele><time>2026-03-28T13:11:04.12Z</time></trkpt><trkpt lat="45.7824643" lon="13.6903293"><ele>206.0</ele><time>2026-03-28T13:11:05.12Z</time></trkpt><trkpt lat="45.7825316" lon="13.690372"><ele>206.66666666666666</ele><time>2026-03-28T13:11:06.111Z</time></trkpt><trkpt lat="45.7825918" lon="13.6904183"><ele>207.33333333333331</ele><time>2026-03-28T13:11:07.115Z</time></trkpt><trkpt lat="45.7826513" lon="13.6904759"><ele>208.0</ele><time>2026-03-28T13:11:08.115Z</time></trkpt><trkpt lat="45.7827084" lon="13.6905349"><ele>208.7142857142857</ele><time>2026-03-28T13:11:09.113Z</time></trkpt><trkpt lat="45.7827537" lon="13.6906131"><ele>209.42857142857144</ele><time>2026-03-28T13:11:10.117Z</time></trkpt><trkpt lat="45.7827834" lon="13.6907031"><ele>210.14285714285714</ele><time>2026-03-28T13:11:11.093Z</time></trkpt><trkpt lat="45.7828001" lon="13.6908034"><ele>210.85714285714283</ele><time>2026-03-28T13:11:12.101Z</time></trkpt><trkpt lat="45.7828022" lon="13.6908996"><ele>211.57142857142856</ele><time>2026-03-28T13:11:13.101Z</time></trkpt><trkpt lat="45.7827926" lon="13.6909963"><ele>212.28571428571428</ele><time>2026-03-28T13:11:14.102Z</time></trkpt><trkpt lat="45.782781" lon="13.6911079"><ele>213.0</ele><time>2026-03-28T13:11:15.115Z</time></trkpt><trkpt lat="45.782766" lon="13.6912203"><ele>213.66666666666666</ele><time>2026-03-28T13:11:16.114Z</time></trkpt><trkpt lat="45.7827618" lon="13.6913228"><ele>214.33333333333331</ele><time>2026-03-28T13:11:17.11Z</time></trkpt><trkpt lat="45.7827741" lon="13.6914257"><ele>215.0</ele><time>2026-03-28T13:11:18.11Z</time></trkpt><trkpt lat="45.7827798" lon="13.6915218"><ele>215.66666666666666</ele><time>2026-03-28T13:11:19.117Z</time></trkpt><trkpt lat="45.7827799" lon="13.6916167"><ele>216.33333333333331</ele><time>2026-03-28T13:11:20.117Z</time></trkpt><trkpt lat="45.7827627" lon="13.6918032"><ele>217.0</ele><time>2026-03-28T13:11:22.124Z</time></trkpt><trkpt lat="45.7827604" lon="13.6919781"><ele>216.99999999999997</ele><time>2026-03-28T13:11:24.121Z</time></trkpt><trkpt lat="45.7827434" lon="13.6921273"><ele>217.0</ele><time>2026-03-28T13:11:26.126Z</time></trkpt><trkpt lat="45.7827203" lon="13.6922956"><ele>217.0</ele><time>2026-03-28T13:11:28.112Z</time></trkpt><trkpt lat="45.7826997" lon="13.6923871"><ele>217.0</ele><time>2026-03-28T13:11:29.111Z</time></trkpt><trkpt lat="45.7826701" lon="13.6924718"><ele>216.99999999999997</ele><time>2026-03-28T13:11:30.116Z</time></trkpt><trkpt lat="45.782636" lon="13.6925534"><ele>217.0</ele><time>2026-03-28T13:11:31.111Z</time></trkpt><trkpt lat="45.7825675" lon="13.6926634"><ele>214.8</ele><time>2026-03-28T13:11:33.112Z</time></trkpt><trkpt lat="45.7825428" lon="13.6928071"><ele>212.6</ele><time>2026-03-28T13:11:35.111Z</time></trkpt><trkpt lat="45.7825276" lon="13.6929583"><ele>210.4</ele><time>2026-03-28T13:11:37.11Z</time></trkpt><trkpt lat="45.7825004" lon="13.6931377"><ele>208.20000000000002</ele><time>2026-03-28T13:11:39.113Z</time></trkpt><trkpt lat="45.7824677" lon="13.6932379"><ele>206.0</ele><time>2026-03-28T13:11:40.111Z</time></trkpt><trkpt lat="45.7824547" lon="13.6933321"><ele>206.0</ele><time>2026-03-28T13:11:41.11Z</time></trkpt><trkpt lat="45.7824676" lon="13.693424"><ele>206.0</ele><time>2026-03-28T13:11:42.119Z</time></trkpt><trkpt lat="45.782495" lon="13.6935909"><ele>206.0</ele><time>2026-03-28T13:11:44.104Z</time></trkpt><trkpt lat="45.7824986" lon="13.6937435"><ele>206.0</ele><time>2026-03-28T13:11:46.122Z</time></trkpt><trkpt lat="45.7824827" lon="13.6938991"><ele>206.0</ele><time>2026-03-28T13:11:48.131Z</time></trkpt><trkpt lat="45.782403" lon="13.6940083"><ele>205.16666666666669</ele><time>2026-03-28T13:11:50.093Z</time></trkpt><trkpt lat="45.7823046" lon="13.6941158"><ele>204.33333333333334</ele><time>2026-03-28T13:11:52.115Z</time></trkpt><trkpt lat="45.7822614" lon="13.6941902"><ele>203.5</ele><time>2026-03-28T13:11:53.112Z</time></trkpt><trkpt lat="45.7822201" lon="13.6942857"><ele>202.66666666666669</ele><time>2026-03-28T13:11:54.107Z</time></trkpt><trkpt lat="45.782188" lon="13.6943842"><ele>201.83333333333334</ele><time>2026-03-28T13:11:55.123Z</time></trkpt><trkpt lat="45.7821568" lon="13.6944781"><ele>201.0</ele><time>2026-03-28T13:11:56.127Z</time></trkpt><trkpt lat="45.7821243" lon="13.694564"><ele>200.66666666666666</ele><time>2026-03-28T13:11:57.121Z</time></trkpt><trkpt lat="45.7820296" lon="13.6946499"><ele>200.33333333333331</ele><time>2026-03-28T13:11:59.108Z</time></trkpt><trkpt lat="45.7819672" lon="13.6946987"><ele>200.0</ele><time>2026-03-28T13:12:00.106Z</time></trkpt><trkpt lat="45.7819085" lon="13.6947748"><ele>199.66666666666666</ele><time>2026-03-28T13:12:01.107Z</time></trkpt><trkpt lat="45.7818634" lon="13.6948556"><ele>199.33333333333331</ele><time>2026-03-28T13:12:02.111Z</time></trkpt><trkpt lat="45.7818138" lon="13.6949248"><ele>199.0</ele><time>2026-03-28T13:12:03.103Z</time></trkpt><trkpt lat="45.7817496" lon="13.6949714"><ele>198.49999999999997</ele><time>2026-03-28T13:12:04.105Z</time></trkpt><trkpt lat="45.7816779" lon="13.6950267"><ele>198.0</ele><time>2026-03-28T13:12:05.096Z</time></trkpt><trkpt lat="45.7816291" lon="13.6951284"><ele>197.5</ele><time>2026-03-28T13:12:06.121Z</time></trkpt><trkpt lat="45.7815834" lon="13.6952331"><ele>197.0</ele><time>2026-03-28T13:12:07.102Z</time></trkpt><trkpt lat="45.7815423" lon="13.6953365"><ele>196.49999999999997</ele><time>2026-03-28T13:12:08.12Z</time></trkpt><trkpt lat="45.7815236" lon="13.6954544"><ele>196.0</ele><time>2026-03-28T13:12:09.107Z</time></trkpt><trkpt lat="45.7815093" lon="13.6955771"><ele>195.60000000000002</ele><time>2026-03-28T13:12:10.105Z</time></trkpt><trkpt lat="45.7814977" lon="13.6956913"><ele>195.2</ele><time>2026-03-28T13:12:11.108Z</time></trkpt><trkpt lat="45.7814643" lon="13.6958357"><ele>194.8</ele><time>2026-03-28T13:12:13.115Z</time></trkpt><trkpt lat="45.7814638" lon="13.6959647"><ele>194.39999999999998</ele><time>2026-03-28T13:12:14.118Z</time></trkpt><trkpt lat="45.7814613" lon="13.6961128"><ele>194.0</ele><time>2026-03-28T13:12:15.106Z</time></trkpt><trkpt lat="45.7814538" lon="13.6962514"><ele>193.79999999999998</ele><time>2026-03-28T13:12:16.109Z</time></trkpt><trkpt lat="45.7814357" lon="13.6963853"><ele>193.6</ele><time>2026-03-28T13:12:17.113Z</time></trkpt><trkpt lat="45.781395" lon="13.6965198"><ele>193.4</ele><time>2026-03-28T13:12:18.106Z</time></trkpt><trkpt lat="45.7813457" lon="13.69666"><ele>193.2</ele><time>2026-03-28T13:12:19.113Z</time></trkpt><trkpt lat="45.781292" lon="13.6968002"><ele>193.0</ele><time>2026-03-28T13:12:20.105Z</time></trkpt><trkpt lat="45.7812345" lon="13.6969374"><ele>193.60000000000002</ele><time>2026-03-28T13:12:21.118Z</time></trkpt><trkpt lat="45.7811806" lon="13.6970616"><ele>194.20000000000002</ele><time>2026-03-28T13:12:22.123Z</time></trkpt><trkpt lat="45.7811148" lon="13.6971732"><ele>194.8</ele><time>2026-03-28T13:12:23.122Z</time></trkpt><trkpt lat="45.7810351" lon="13.6972598"><ele>195.4</ele><time>2026-03-28T13:12:24.124Z</time></trkpt><trkpt lat="45.7809421" lon="13.6973328"><ele>196.0</ele><time>2026-03-28T13:12:25.109Z</time></trkpt><trkpt lat="45.78085" lon="13.6973864"><ele>196.0</ele><time>2026-03-28T13:12:26.115Z</time></trkpt><trkpt lat="45.78077" lon="13.6974472"><ele>196.0</ele><time>2026-03-28T13:12:27.11Z</time></trkpt><trkpt lat="45.7806916" lon="13.6974949"><ele>196.0</ele><time>2026-03-28T13:12:28.112Z</time></trkpt><trkpt lat="45.7806208" lon="13.6975495"><ele>196.0</ele><time>2026-03-28T13:12:29.116Z</time></trkpt><trkpt lat="45.7805537" lon="13.6976446"><ele>196.0</ele><time>2026-03-28T13:12:30.11Z</time></trkpt><trkpt lat="45.7804806" lon="13.6977876"><ele>194.0</ele><time>2026-03-28T13:12:31.101Z</time></trkpt><trkpt lat="45.7804086" lon="13.6979187"><ele>192.0</ele><time>2026-03-28T13:12:32.119Z</time></trkpt><trkpt lat="45.7803315" lon="13.6980407"><ele>190.0</ele><time>2026-03-28T13:12:33.115Z</time></trkpt><trkpt lat="45.780257" lon="13.698164"><ele>188.0</ele><time>2026-03-28T13:12:34.121Z</time></trkpt><trkpt lat="45.780185" lon="13.6982895"><ele>188.0</ele><time>2026-03-28T13:12:35.12Z</time></trkpt><trkpt lat="45.7801149" lon="13.698411"><ele>188.0</ele><time>2026-03-28T13:12:36.115Z</time></trkpt><trkpt lat="45.7800475" lon="13.698533"><ele>188.0</ele><time>2026-03-28T13:12:37.118Z</time></trkpt><trkpt lat="45.7799917" lon="13.6986532"><ele>188.0</ele><time>2026-03-28T13:12:38.123Z</time></trkpt><trkpt lat="45.7799332" lon="13.6987731"><ele>188.0</ele><time>2026-03-28T13:12:39.108Z</time></trkpt><trkpt lat="45.7798858" lon="13.6989085"><ele>188.0</ele><time>2026-03-28T13:12:40.121Z</time></trkpt><trkpt lat="45.7798416" lon="13.6990499"><ele>188.0</ele><time>2026-03-28T13:12:41.117Z</time></trkpt><trkpt lat="45.7798047" lon="13.6991968"><ele>188.0</ele><time>2026-03-28T13:12:42.11Z</time></trkpt><trkpt lat="45.7797721" lon="13.6993461"><ele>188.0</ele><time>2026-03-28T13:12:43.118Z</time></trkpt><trkpt lat="45.7797383" lon="13.6994917"><ele>188.0</ele><time>2026-03-28T13:12:44.109Z</time></trkpt><trkpt lat="45.7797083" lon="13.6996444"><ele>187.60000000000002</ele><time>2026-03-28T13:12:45.102Z</time></trkpt><trkpt lat="45.7796773" lon="13.6997868"><ele>187.20000000000002</ele><time>2026-03-28T13:12:46.1Z</time></trkpt><trkpt lat="45.7796426" lon="13.699929"><ele>186.8</ele><time>2026-03-28T13:12:47.087Z</time></trkpt><trkpt lat="45.7796081" lon="13.7000642"><ele>186.4</ele><time>2026-03-28T13:12:48.123Z</time></trkpt><trkpt lat="45.7795632" lon="13.7001954"><ele>186.0</ele><time>2026-03-28T13:12:49.107Z</time></trkpt><trkpt lat="45.7794987" lon="13.7002969"><ele>186.16666666666666</ele><time>2026-03-28T13:12:50.105Z</time></trkpt><trkpt lat="45.7794346" lon="13.7003848"><ele>186.33333333333334</ele><time>2026-03-28T13:12:51.104Z</time></trkpt><trkpt lat="45.7793792" lon="13.7004462"><ele>186.5</ele><time>2026-03-28T13:12:52.107Z</time></trkpt><trkpt lat="45.7792977" lon="13.7005315"><ele>186.66666666666669</ele><time>2026-03-28T13:12:54.125Z</time></trkpt><trkpt lat="45.7792205" lon="13.7006037"><ele>186.83333333333334</ele><time>2026-03-28T13:12:56.111Z</time></trkpt><trkpt lat="45.77916" lon="13.7006781"><ele>187.0</ele><time>2026-03-28T13:12:58.103Z</time></trkpt><trkpt lat="45.7790946" lon="13.7007439"><ele>187.0</ele><time>2026-03-28T13:13:00.107Z</time></trkpt><trkpt lat="45.7791205" lon="13.7008407"><ele>187.0</ele><time>2026-03-28T13:13:04.102Z</time></trkpt><trkpt lat="45.7791981" lon="13.7008278"><ele>187.0</ele><time>2026-03-28T13:13:05.113Z</time></trkpt><trkpt lat="45.7792895" lon="13.7007837"><ele>187.0</ele><time>2026-03-28T13:13:06.108Z</time></trkpt><trkpt lat="45.7793929" lon="13.7007437"><ele>187.0</ele><time>2026-03-28T13:13:07.101Z</time></trkpt><trkpt lat="45.7795056" lon="13.7007043"><ele>185.5</ele><time>2026-03-28T13:13:08.108Z</time></trkpt><trkpt lat="45.7796263" lon="13.7006656"><ele>184.0</ele><time>2026-03-28T13:13:09.104Z</time></trkpt><trkpt lat="45.7797595" lon="13.7006219"><ele>182.5</ele><time>2026-03-28T13:13:10.107Z</time></trkpt><trkpt lat="45.7798951" lon="13.7005755"><ele>181.0</ele><time>2026-03-28T13:13:11.108Z</time></trkpt><trkpt lat="45.7800281" lon="13.7005278"><ele>181.0</ele><time>2026-03-28T13:13:12.116Z</time></trkpt><trkpt lat="45.7801517" lon="13.7004813"><ele>181.0</ele><time>2026-03-28T13:13:13.105Z</time></trkpt><trkpt lat="45.7802634" lon="13.700446"><ele>181.0</ele><time>2026-03-28T13:13:14.115Z</time></trkpt><trkpt lat="45.7803649" lon="13.7004143"><ele>181.0</ele><time>2026-03-28T13:13:15.104Z</time></trkpt><trkpt lat="45.7804626" lon="13.7003811"><ele>181.0</ele><time>2026-03-28T13:13:16.113Z</time></trkpt><trkpt lat="45.7805591" lon="13.7003467"><ele>179.75</ele><time>2026-03-28T13:13:17.109Z</time></trkpt><trkpt lat="45.7806574" lon="13.7003082"><ele>178.5</ele><time>2026-03-28T13:13:18.11Z</time></trkpt><trkpt lat="45.7807697" lon="13.7002683"><ele>177.25</ele><time>2026-03-28T13:13:19.104Z</time></trkpt><trkpt lat="45.7808916" lon="13.7002154"><ele>176.0</ele><time>2026-03-28T13:13:20.112Z</time></trkpt><trkpt lat="45.7810109" lon="13.70016"><ele>174.0</ele><time>2026-03-28T13:13:21.098Z</time></trkpt><trkpt lat="45.7811236" lon="13.7001056"><ele>172.0</ele><time>2026-03-28T13:13:22.108Z</time></trkpt><trkpt lat="45.7812331" lon="13.7000539"><ele>170.0</ele><time>2026-03-28T13:13:23.099Z</time></trkpt><trkpt lat="45.7813444" lon="13.7000082"><ele>168.0</ele><time>2026-03-28T13:13:24.124Z</time></trkpt><trkpt lat="45.7814502" lon="13.6999622"><ele>168.0</ele><time>2026-03-28T13:13:25.099Z</time></trkpt><trkpt lat="45.7815466" lon="13.6999187"><ele>168.0</ele><time>2026-03-28T13:13:26.104Z</time></trkpt><trkpt lat="45.781627" lon="13.6998834"><ele>168.0</ele><time>2026-03-28T13:13:27.106Z</time></trkpt><trkpt lat="45.781723" lon="13.6998618"><ele>168.0</ele><time>2026-03-28T13:13:29.099Z</time></trkpt><trkpt lat="45.781735" lon="13.6999862"><ele>168.0</ele><time>2026-03-28T13:13:32.105Z</time></trkpt><trkpt lat="45.7817098" lon="13.7000801"><ele>168.0</ele><time>2026-03-28T13:13:33.099Z</time></trkpt><trkpt lat="45.7816855" lon="13.7001743"><ele>168.2</ele><time>2026-03-28T13:13:34.114Z</time></trkpt><trkpt lat="45.7816894" lon="13.7003266"><ele>168.4</ele><time>2026-03-28T13:13:36.11Z</time></trkpt><trkpt lat="45.781715" lon="13.7004418"><ele>168.6</ele><time>2026-03-28T13:13:39.118Z</time></trkpt><trkpt lat="45.7817394" lon="13.7005685"><ele>168.79999999999998</ele><time>2026-03-28T13:13:42.118Z</time></trkpt><trkpt lat="45.781748" lon="13.700726"><ele>169.0</ele><time>2026-03-28T13:13:44.126Z</time></trkpt><trkpt lat="45.7817395" lon="13.700828"><ele>169.0</ele><time>2026-03-28T13:13:45.103Z</time></trkpt><trkpt lat="45.7817314" lon="13.7009516"><ele>169.0</ele><time>2026-03-28T13:13:46.121Z</time></trkpt><trkpt lat="45.7817186" lon="13.7010832"><ele>169.0</ele><time>2026-03-28T13:13:47.11Z</time></trkpt><trkpt lat="45.7816943" lon="13.7012284"><ele>169.0</ele><time>2026-03-28T13:13:48.12Z</time></trkpt><trkpt lat="45.7816522" lon="13.7013706"><ele>169.0</ele><time>2026-03-28T13:13:49.115Z</time></trkpt><trkpt lat="45.7815968" lon="13.7014964"><ele>168.2</ele><time>2026-03-28T13:13:50.113Z</time></trkpt><trkpt lat="45.7815274" lon="13.701608"><ele>167.39999999999998</ele><time>2026-03-28T13:13:51.108Z</time></trkpt><trkpt lat="45.781459" lon="13.7017373"><ele>166.6</ele><time>2026-03-28T13:13:52.108Z</time></trkpt><trkpt lat="45.7814075" lon="13.7018847"><ele>165.8</ele><time>2026-03-28T13:13:53.094Z</time></trkpt><trkpt lat="45.7813681" lon="13.7020394"><ele>165.0</ele><time>2026-03-28T13:13:54.115Z</time></trkpt><trkpt lat="45.7813309" lon="13.7021966"><ele>164.2</ele><time>2026-03-28T13:13:55.109Z</time></trkpt><trkpt lat="45.781292" lon="13.7023476"><ele>163.4</ele><time>2026-03-28T13:13:56.117Z</time></trkpt><trkpt lat="45.7812456" lon="13.702496"><ele>162.60000000000002</ele><time>2026-03-28T13:13:57.105Z</time></trkpt><trkpt lat="45.7811951" lon="13.7026335"><ele>161.8</ele><time>2026-03-28T13:13:58.115Z</time></trkpt><trkpt lat="45.7811517" lon="13.7027603"><ele>161.0</ele><time>2026-03-28T13:13:59.108Z</time></trkpt><trkpt lat="45.7811145" lon="13.7028833"><ele>160.83333333333331</ele><time>2026-03-28T13:14:00.112Z</time></trkpt><trkpt lat="45.7810894" lon="13.7030003"><ele>160.66666666666666</ele><time>2026-03-28T13:14:01.115Z</time></trkpt><trkpt lat="45.7810628" lon="13.7031114"><ele>160.5</ele><time>2026-03-28T13:14:02.119Z</time></trkpt><trkpt lat="45.7810337" lon="13.7032227"><ele>160.33333333333334</ele><time>2026-03-28T13:14:03.106Z</time></trkpt><trkpt lat="45.7810138" lon="13.7033349"><ele>160.16666666666669</ele><time>2026-03-28T13:14:04.127Z</time></trkpt><trkpt lat="45.7809974" lon="13.7034521"><ele>160.0</ele><time>2026-03-28T13:14:05.116Z</time></trkpt><trkpt lat="45.7809995" lon="13.7035675"><ele>159.83333333333334</ele><time>2026-03-28T13:14:06.123Z</time></trkpt><trkpt lat="45.781021" lon="13.7036787"><ele>159.66666666666669</ele><time>2026-03-28T13:14:07.117Z</time></trkpt><trkpt lat="45.7810486" lon="13.7037861"><ele>159.5</ele><time>2026-03-28T13:14:08.103Z</time></trkpt><trkpt lat="45.7810904" lon="13.7038987"><ele>159.33333333333334</ele><time>2026-03-28T13:14:09.114Z</time></trkpt><trkpt lat="45.7811342" lon="13.7039922"><ele>159.16666666666666</ele><time>2026-03-28T13:14:10.117Z</time></trkpt><trkpt lat="45.7811857" lon="13.7040771"><ele>159.0</ele><time>2026-03-28T13:14:11.12Z</time></trkpt><trkpt lat="45.7812493" lon="13.7041557"><ele>159.0</ele><time>2026-03-28T13:14:12.129Z</time></trkpt><trkpt lat="45.7813113" lon="13.7042443"><ele>159.0</ele><time>2026-03-28T13:14:13.117Z</time></trkpt><trkpt lat="45.7813819" lon="13.7043305"><ele>159.0</ele><time>2026-03-28T13:14:14.112Z</time></trkpt><trkpt lat="45.7814569" lon="13.7044139"><ele>159.0</ele><time>2026-03-28T13:14:15.109Z</time></trkpt><trkpt lat="45.7815278" lon="13.7044951"><ele>159.0</ele><time>2026-03-28T13:14:16.108Z</time></trkpt><trkpt lat="45.7815957" lon="13.7045763"><ele>159.0</ele><time>2026-03-28T13:14:17.106Z</time></trkpt><trkpt lat="45.7816437" lon="13.7046622"><ele>159.0</ele><time>2026-03-28T13:14:18.125Z</time></trkpt><trkpt lat="45.7816738" lon="13.7047645"><ele>159.0</ele><time>2026-03-28T13:14:19.108Z</time></trkpt><trkpt lat="45.7816823" lon="13.7048724"><ele>159.0</ele><time>2026-03-28T13:14:20.125Z</time></trkpt><trkpt lat="45.7816672" lon="13.7049823"><ele>159.0</ele><time>2026-03-28T13:14:21.092Z</time></trkpt><trkpt lat="45.7816433" lon="13.7050941"><ele>159.0</ele><time>2026-03-28T13:14:22.1Z</time></trkpt><trkpt lat="45.7816126" lon="13.7052101"><ele>159.4</ele><time>2026-03-28T13:14:23.114Z</time></trkpt><trkpt lat="45.7815698" lon="13.7053268"><ele>159.8</ele><time>2026-03-28T13:14:24.108Z</time></trkpt><trkpt lat="45.7815221" lon="13.7054427"><ele>160.20000000000002</ele><time>2026-03-28T13:14:25.113Z</time></trkpt><trkpt lat="45.7814814" lon="13.7055667"><ele>160.60000000000002</ele><time>2026-03-28T13:14:26.114Z</time></trkpt><trkpt lat="45.7814572" lon="13.7057083"><ele>161.0</ele><time>2026-03-28T13:14:27.107Z</time></trkpt><trkpt lat="45.7814398" lon="13.7058457"><ele>161.0</ele><time>2026-03-28T13:14:28.107Z</time></trkpt><trkpt lat="45.7814061" lon="13.7059772"><ele>161.0</ele><time>2026-03-28T13:14:29.114Z</time></trkpt><trkpt lat="45.7813587" lon="13.7060916"><ele>161.0</ele><time>2026-03-28T13:14:30.117Z</time></trkpt><trkpt lat="45.7812976" lon="13.7061848"><ele>161.0</ele><time>2026-03-28T13:14:31.125Z</time></trkpt><trkpt lat="45.7812324" lon="13.706264"><ele>161.0</ele><time>2026-03-28T13:14:32.1Z</time></trkpt><trkpt lat="45.7811871" lon="13.7063503"><ele>161.0</ele><time>2026-03-28T13:14:33.111Z</time></trkpt><trkpt lat="45.7811893" lon="13.7064428"><ele>161.0</ele><time>2026-03-28T13:14:34.114Z</time></trkpt><trkpt lat="45.781228" lon="13.7065165"><ele>161.0</ele><time>2026-03-28T13:14:35.102Z</time></trkpt><trkpt lat="45.7812766" lon="13.7065765"><ele>161.0</ele><time>2026-03-28T13:14:36.116Z</time></trkpt><trkpt lat="45.7813261" lon="13.7066456"><ele>161.0</ele><time>2026-03-28T13:14:37.1Z</time></trkpt><trkpt lat="45.781374" lon="13.7067296"><ele>161.0</ele><time>2026-03-28T13:14:38.111Z</time></trkpt><trkpt lat="45.7814234" lon="13.7068286"><ele>161.0</ele><time>2026-03-28T13:14:39.11Z</time></trkpt><trkpt lat="45.7814763" lon="13.7069176"><ele>161.0</ele><time>2026-03-28T13:14:40.109Z</time></trkpt><trkpt lat="45.7815648" lon="13.7069434"><ele>161.0</ele><time>2026-03-28T13:14:42.117Z</time></trkpt><trkpt lat="45.7816749" lon="13.7069903"><ele>161.0</ele><time>2026-03-28T13:14:44.125Z</time></trkpt><trkpt lat="45.7817504" lon="13.7070546"><ele>161.0</ele><time>2026-03-28T13:14:45.102Z</time></trkpt><trkpt lat="45.7818301" lon="13.7071326"><ele>161.0</ele><time>2026-03-28T13:14:46.089Z</time></trkpt><trkpt lat="45.7819112" lon="13.7072133"><ele>161.0</ele><time>2026-03-28T13:14:47.1Z</time></trkpt><trkpt lat="45.7819871" lon="13.7072908"><ele>160.83333333333331</ele><time>2026-03-28T13:14:48.108Z</time></trkpt><trkpt lat="45.7820575" lon="13.7073574"><ele>160.66666666666666</ele><time>2026-03-28T13:14:49.103Z</time></trkpt><trkpt lat="45.7821278" lon="13.707411"><ele>160.5</ele><time>2026-03-28T13:14:50.131Z</time></trkpt><trkpt lat="45.7821937" lon="13.7074667"><ele>160.33333333333334</ele><time>2026-03-28T13:14:51.104Z</time></trkpt><trkpt lat="45.7822547" lon="13.7075266"><ele>160.16666666666669</ele><time>2026-03-28T13:14:52.104Z</time></trkpt><trkpt lat="45.7822652" lon="13.7077152"><ele>160.0</ele><time>2026-03-28T13:14:54.1Z</time></trkpt><trkpt lat="45.7822377" lon="13.7078527"><ele>160.5</ele><time>2026-03-28T13:14:55.102Z</time></trkpt><trkpt lat="45.7822052" lon="13.707987"><ele>161.0</ele><time>2026-03-28T13:14:56.103Z</time></trkpt><trkpt lat="45.7821984" lon="13.7081079"><ele>161.5</ele><time>2026-03-28T13:14:57.098Z</time></trkpt><trkpt lat="45.7822219" lon="13.708211"><ele>162.0</ele><time>2026-03-28T13:14:58.106Z</time></trkpt><trkpt lat="45.7822515" lon="13.7083165"><ele>162.5</ele><time>2026-03-28T13:14:59.096Z</time></trkpt><trkpt lat="45.7822732" lon="13.708428"><ele>163.0</ele><time>2026-03-28T13:15:00.109Z</time></trkpt><trkpt lat="45.7822773" lon="13.7085364"><ele>162.8</ele><time>2026-03-28T13:15:01.12Z</time></trkpt><trkpt lat="45.7822712" lon="13.7086942"><ele>162.60000000000002</ele><time>2026-03-28T13:15:03.12Z</time></trkpt><trkpt lat="45.7822835" lon="13.7087924"><ele>162.39999999999998</ele><time>2026-03-28T13:15:04.117Z</time></trkpt><trkpt lat="45.7823119" lon="13.7088883"><ele>162.2</ele><time>2026-03-28T13:15:05.111Z</time></trkpt><trkpt lat="45.7824121" lon="13.709015"><ele>162.0</ele><time>2026-03-28T13:15:07.103Z</time></trkpt><trkpt lat="45.7824718" lon="13.7090835"><ele>162.0</ele><time>2026-03-28T13:15:08.109Z</time></trkpt><trkpt lat="45.7825377" lon="13.7091625"><ele>162.0</ele><time>2026-03-28T13:15:09.115Z</time></trkpt><trkpt lat="45.7826034" lon="13.7092608"><ele>162.0</ele><time>2026-03-28T13:15:10.123Z</time></trkpt><trkpt lat="45.7826716" lon="13.7093738"><ele>162.0</ele><time>2026-03-28T13:15:11.115Z</time></trkpt><trkpt lat="45.7827328" lon="13.709483"><ele>162.0</ele><time>2026-03-28T13:15:12.121Z</time></trkpt><trkpt lat="45.7827956" lon="13.7095927"><ele>161.4</ele><time>2026-03-28T13:15:13.112Z</time></trkpt><trkpt lat="45.7828589" lon="13.7096964"><ele>160.79999999999998</ele><time>2026-03-28T13:15:14.116Z</time></trkpt><trkpt lat="45.7829289" lon="13.7097955"><ele>160.2</ele><time>2026-03-28T13:15:15.104Z</time></trkpt><trkpt lat="45.7830063" lon="13.7098799"><ele>159.6</ele><time>2026-03-28T13:15:16.119Z</time></trkpt><trkpt lat="45.7830789" lon="13.7099467"><ele>159.0</ele><time>2026-03-28T13:15:17.12Z</time></trkpt><trkpt lat="45.7831259" lon="13.7100293"><ele>159.0</ele><time>2026-03-28T13:15:18.118Z</time></trkpt><trkpt lat="45.7831626" lon="13.7101296"><ele>159.0</ele><time>2026-03-28T13:15:19.104Z</time></trkpt><trkpt lat="45.7831995" lon="13.7102325"><ele>159.0</ele><time>2026-03-28T13:15:20.117Z</time></trkpt><trkpt lat="45.7832519" lon="13.7103244"><ele>159.0</ele><time>2026-03-28T13:15:21.105Z</time></trkpt><trkpt lat="45.7833461" lon="13.7103695"><ele>159.0</ele><time>2026-03-28T13:15:23.113Z</time></trkpt><trkpt lat="45.7834474" lon="13.7103402"><ele>159.0</ele><time>2026-03-28T13:15:25.109Z</time></trkpt><trkpt lat="45.783531" lon="13.7103521"><ele>158.83333333333334</ele><time>2026-03-28T13:15:26.13Z</time></trkpt><trkpt lat="45.7836191" lon="13.710374"><ele>158.66666666666666</ele><time>2026-03-28T13:15:27.111Z</time></trkpt><trkpt lat="45.7836999" lon="13.7104073"><ele>158.5</ele><time>2026-03-28T13:15:28.122Z</time></trkpt><trkpt lat="45.7837626" lon="13.7104689"><ele>158.33333333333331</ele><time>2026-03-28T13:15:29.116Z</time></trkpt><trkpt lat="45.7837914" lon="13.7105665"><ele>158.16666666666666</ele><time>2026-03-28T13:15:30.108Z</time></trkpt><trkpt lat="45.7838112" lon="13.7106817"><ele>158.0</ele><time>2026-03-28T13:15:31.105Z</time></trkpt><trkpt lat="45.7838005" lon="13.7108062"><ele>158.0</ele><time>2026-03-28T13:15:32.108Z</time></trkpt><trkpt lat="45.783778" lon="13.710945"><ele>158.0</ele><time>2026-03-28T13:15:33.108Z</time></trkpt><trkpt lat="45.7837677" lon="13.7110933"><ele>158.0</ele><time>2026-03-28T13:15:34.119Z</time></trkpt><trkpt lat="45.7837698" lon="13.7112469"><ele>158.0</ele><time>2026-03-28T13:15:35.112Z</time></trkpt><trkpt lat="45.7837782" lon="13.7113921"><ele>158.0</ele><time>2026-03-28T13:15:36.111Z</time></trkpt><trkpt lat="45.783788" lon="13.7115259"><ele>158.33333333333331</ele><time>2026-03-28T13:15:37.105Z</time></trkpt><trkpt lat="45.7837829" lon="13.711652"><ele>158.66666666666666</ele><time>2026-03-28T13:15:38.099Z</time></trkpt><trkpt lat="45.7837618" lon="13.7117679"><ele>159.0</ele><time>2026-03-28T13:15:39.091Z</time></trkpt><trkpt lat="45.7837218" lon="13.7118613"><ele>159.33333333333334</ele><time>2026-03-28T13:15:40.102Z</time></trkpt><trkpt lat="45.7836815" lon="13.7119495"><ele>159.66666666666669</ele><time>2026-03-28T13:15:41.101Z</time></trkpt><trkpt lat="45.7836721" lon="13.7120601"><ele>160.0</ele><time>2026-03-28T13:15:42.114Z</time></trkpt><trkpt lat="45.783688" lon="13.7121822"><ele>160.8</ele><time>2026-03-28T13:15:43.113Z</time></trkpt><trkpt lat="45.7837027" lon="13.7123281"><ele>161.6</ele><time>2026-03-28T13:15:44.102Z</time></trkpt><trkpt lat="45.7837131" lon="13.7124825"><ele>162.39999999999998</ele><time>2026-03-28T13:15:45.093Z</time></trkpt><trkpt lat="45.7837235" lon="13.7126223"><ele>163.2</ele><time>2026-03-28T13:15:46.092Z</time></trkpt><trkpt lat="45.7837375" lon="13.7127376"><ele>164.0</ele><time>2026-03-28T13:15:47.104Z</time></trkpt><trkpt lat="45.7837698" lon="13.7128357"><ele>164.42857142857142</ele><time>2026-03-28T13:15:48.106Z</time></trkpt><trkpt lat="45.7838156" lon="13.7129103"><ele>164.85714285714286</ele><time>2026-03-28T13:15:49.101Z</time></trkpt><trkpt lat="45.7838657" lon="13.7129673"><ele>165.28571428571428</ele><time>2026-03-28T13:15:50.08Z</time></trkpt><trkpt lat="45.7839285" lon="13.713007"><ele>165.71428571428572</ele><time>2026-03-28T13:15:51.102Z</time></trkpt><trkpt lat="45.7839994" lon="13.7130461"><ele>166.14285714285714</ele><time>2026-03-28T13:15:52.102Z</time></trkpt><trkpt lat="45.7840579" lon="13.713087"><ele>166.57142857142856</ele><time>2026-03-28T13:15:53.113Z</time></trkpt><trkpt lat="45.784111" lon="13.7131415"><ele>167.0</ele><time>2026-03-28T13:15:54.115Z</time></trkpt><trkpt lat="45.7841682" lon="13.7131947"><ele>167.0</ele><time>2026-03-28T13:15:55.106Z</time></trkpt><trkpt lat="45.7842223" lon="13.713247"><ele>167.0</ele><time>2026-03-28T13:15:56.104Z</time></trkpt><trkpt lat="45.7842769" lon="13.713304"><ele>167.0</ele><time>2026-03-28T13:15:57.104Z</time></trkpt><trkpt lat="45.7843363" lon="13.7133653"><ele>167.0</ele><time>2026-03-28T13:15:58.111Z</time></trkpt><trkpt lat="45.7844019" lon="13.7134301"><ele>167.0</ele><time>2026-03-28T13:15:59.103Z</time></trkpt><trkpt lat="45.7844655" lon="13.7135035"><ele>167.0</ele><time>2026-03-28T13:16:00.118Z</time></trkpt><trkpt lat="45.7845321" lon="13.7135837"><ele>168.5</ele><time>2026-03-28T13:16:01.101Z</time></trkpt><trkpt lat="45.7846041" lon="13.7136646"><ele>170.0</ele><time>2026-03-28T13:16:02.11Z</time></trkpt><trkpt lat="45.7846694" lon="13.7137366"><ele>171.5</ele><time>2026-03-28T13:16:03.107Z</time></trkpt><trkpt lat="45.7847136" lon="13.7138028"><ele>173.0</ele><time>2026-03-28T13:16:04.112Z</time></trkpt><trkpt lat="45.7847234" lon="13.7139436"><ele>174.5</ele><time>2026-03-28T13:16:06.101Z</time></trkpt><trkpt lat="45.784713" lon="13.7140473"><ele>176.0</ele><time>2026-03-28T13:16:07.109Z</time></trkpt><trkpt lat="45.7847045" lon="13.7141619"><ele>176.0</ele><time>2026-03-28T13:16:08.102Z</time></trkpt><trkpt lat="45.7847022" lon="13.7142835"><ele>176.0</ele><time>2026-03-28T13:16:09.112Z</time></trkpt><trkpt lat="45.7847092" lon="13.7144071"><ele>176.0</ele><time>2026-03-28T13:16:10.108Z</time></trkpt><trkpt lat="45.7847192" lon="13.7145163"><ele>176.0</ele><time>2026-03-28T13:16:11.12Z</time></trkpt><trkpt lat="45.7847265" lon="13.7146226"><ele>176.0</ele><time>2026-03-28T13:16:12.112Z</time></trkpt><trkpt lat="45.7847254" lon="13.7147143"><ele>176.0</ele><time>2026-03-28T13:16:13.108Z</time></trkpt><trkpt lat="45.7846861" lon="13.714857"><ele>176.83333333333331</ele><time>2026-03-28T13:16:15.113Z</time></trkpt><trkpt lat="45.7845853" lon="13.7149765"><ele>177.66666666666666</ele><time>2026-03-28T13:16:17.108Z</time></trkpt><trkpt lat="45.7845336" lon="13.7150436"><ele>178.5</ele><time>2026-03-28T13:16:18.113Z</time></trkpt><trkpt lat="45.7844891" lon="13.7151264"><ele>179.33333333333334</ele><time>2026-03-28T13:16:19.1Z</time></trkpt><trkpt lat="45.7844552" lon="13.7152196"><ele>180.16666666666669</ele><time>2026-03-28T13:16:20.126Z</time></trkpt><trkpt lat="45.7844258" lon="13.7153174"><ele>181.0</ele><time>2026-03-28T13:16:21.096Z</time></trkpt><trkpt lat="45.7843912" lon="13.7154126"><ele>181.16666666666669</ele><time>2026-03-28T13:16:22.121Z</time></trkpt><trkpt lat="45.784351" lon="13.7154999"><ele>181.33333333333334</ele><time>2026-03-28T13:16:23.119Z</time></trkpt><trkpt lat="45.7843132" lon="13.7155836"><ele>181.5</ele><time>2026-03-28T13:16:24.116Z</time></trkpt><trkpt lat="45.7842792" lon="13.7156679"><ele>181.66666666666666</ele><time>2026-03-28T13:16:25.12Z</time></trkpt><trkpt lat="45.7842661" lon="13.7157878"><ele>181.83333333333331</ele><time>2026-03-28T13:16:26.12Z</time></trkpt><trkpt lat="45.7842575" lon="13.7159219"><ele>182.0</ele><time>2026-03-28T13:16:27.101Z</time></trkpt><trkpt lat="45.7842602" lon="13.7160525"><ele>181.83333333333331</ele><time>2026-03-28T13:16:28.107Z</time></trkpt><trkpt lat="45.7842543" lon="13.7161645"><ele>181.66666666666666</ele><time>2026-03-28T13:16:29.102Z</time></trkpt><trkpt lat="45.7842329" lon="13.7162522"><ele>181.5</ele><time>2026-03-28T13:16:30.107Z</time></trkpt><trkpt lat="45.7841984" lon="13.7163776"><ele>181.33333333333334</ele><time>2026-03-28T13:16:32.11Z</time></trkpt><trkpt lat="45.784228" lon="13.7165316"><ele>181.16666666666669</ele><time>2026-03-28T13:16:34.108Z</time></trkpt><trkpt lat="45.7842598" lon="13.7166245"><ele>181.0</ele><time>2026-03-28T13:16:35.104Z</time></trkpt><trkpt lat="45.7842892" lon="13.7167108"><ele>181.0</ele><time>2026-03-28T13:16:36.128Z</time></trkpt><trkpt lat="45.7843402" lon="13.7168665"><ele>181.0</ele><time>2026-03-28T13:16:38.12Z</time></trkpt><trkpt lat="45.7843982" lon="13.7169456"><ele>181.0</ele><time>2026-03-28T13:16:39.116Z</time></trkpt><trkpt lat="45.7844623" lon="13.7169994"><ele>181.0</ele><time>2026-03-28T13:16:40.112Z</time></trkpt><trkpt lat="45.7845319" lon="13.717133"><ele>181.0</ele><time>2026-03-28T13:16:42.113Z</time></trkpt><trkpt lat="45.7845596" lon="13.7173144"><ele>182.20000000000002</ele><time>2026-03-28T13:16:44.113Z</time></trkpt><trkpt lat="45.7845875" lon="13.717487"><ele>183.4</ele><time>2026-03-28T13:16:46.124Z</time></trkpt><trkpt lat="45.7846257" lon="13.7176152"><ele>184.6</ele><time>2026-03-28T13:16:48.111Z</time></trkpt><trkpt lat="45.7846247" lon="13.7177347"><ele>185.8</ele><time>2026-03-28T13:16:51.099Z</time></trkpt><trkpt lat="45.7846333" lon="13.7178905"><ele>187.0</ele><time>2026-03-28T13:16:53.111Z</time></trkpt><trkpt lat="45.7846309" lon="13.7180459"><ele>187.33333333333334</ele><time>2026-03-28T13:16:55.111Z</time></trkpt><trkpt lat="45.7846211" lon="13.7182257"><ele>187.66666666666669</ele><time>2026-03-28T13:16:57.11Z</time></trkpt><trkpt lat="45.7846122" lon="13.7183305"><ele>188.0</ele><time>2026-03-28T13:16:58.102Z</time></trkpt><trkpt lat="45.7845911" lon="13.7184292"><ele>188.33333333333334</ele><time>2026-03-28T13:16:59.104Z</time></trkpt><trkpt lat="45.7845681" lon="13.7185298"><ele>188.66666666666666</ele><time>2026-03-28T13:17:00.109Z</time></trkpt><trkpt lat="45.7845333" lon="13.7186276"><ele>189.0</ele><time>2026-03-28T13:17:01.103Z</time></trkpt><trkpt lat="45.7844857" lon="13.7187221"><ele>188.33333333333334</ele><time>2026-03-28T13:17:02.108Z</time></trkpt><trkpt lat="45.7844287" lon="13.7188012"><ele>187.66666666666666</ele><time>2026-03-28T13:17:03.116Z</time></trkpt><trkpt lat="45.7843668" lon="13.7188741"><ele>187.0</ele><time>2026-03-28T13:17:04.098Z</time></trkpt><trkpt lat="45.7843057" lon="13.7189492"><ele>186.33333333333331</ele><time>2026-03-28T13:17:05.104Z</time></trkpt><trkpt lat="45.7842489" lon="13.7190152"><ele>185.66666666666666</ele><time>2026-03-28T13:17:06.1Z</time></trkpt><trkpt lat="45.7841902" lon="13.7190856"><ele>185.0</ele><time>2026-03-28T13:17:07.095Z</time></trkpt><trkpt lat="45.7841336" lon="13.7191408"><ele>185.0</ele><time>2026-03-28T13:17:08.104Z</time></trkpt><trkpt lat="45.7840776" lon="13.7191938"><ele>185.0</ele><time>2026-03-28T13:17:09.109Z</time></trkpt><trkpt lat="45.7840298" lon="13.7192721"><ele>185.0</ele><time>2026-03-28T13:17:10.104Z</time></trkpt><trkpt lat="45.7840012" lon="13.7193806"><ele>185.0</ele><time>2026-03-28T13:17:11.087Z</time></trkpt><trkpt lat="45.7839873" lon="13.719486"><ele>185.0</ele><time>2026-03-28T13:17:12.092Z</time></trkpt><trkpt lat="45.783977" lon="13.7195925"><ele>185.0</ele><time>2026-03-28T13:17:13.101Z</time></trkpt><trkpt lat="45.7839636" lon="13.719721"><ele>183.6</ele><time>2026-03-28T13:17:14.109Z</time></trkpt><trkpt lat="45.7839545" lon="13.7198557"><ele>182.2</ele><time>2026-03-28T13:17:15.1Z</time></trkpt><trkpt lat="45.783963" lon="13.7199975"><ele>180.8</ele><time>2026-03-28T13:17:16.113Z</time></trkpt><trkpt lat="45.7839789" lon="13.7201264"><ele>179.4</ele><time>2026-03-28T13:17:17.104Z</time></trkpt><trkpt lat="45.783992" lon="13.7202583"><ele>178.0</ele><time>2026-03-28T13:17:18.111Z</time></trkpt><trkpt lat="45.7839958" lon="13.7203852"><ele>177.33333333333334</ele><time>2026-03-28T13:17:19.105Z</time></trkpt><trkpt lat="45.7839876" lon="13.720505"><ele>176.66666666666669</ele><time>2026-03-28T13:17:20.102Z</time></trkpt><trkpt lat="45.7839713" lon="13.7206137"><ele>176.0</ele><time>2026-03-28T13:17:21.104Z</time></trkpt><trkpt lat="45.7839359" lon="13.7207226"><ele>175.33333333333334</ele><time>2026-03-28T13:17:22.106Z</time></trkpt><trkpt lat="45.7839003" lon="13.720836"><ele>174.66666666666666</ele><time>2026-03-28T13:17:23.102Z</time></trkpt><trkpt lat="45.7838665" lon="13.7209514"><ele>174.0</ele><time>2026-03-28T13:17:24.103Z</time></trkpt><trkpt lat="45.7838537" lon="13.7210771"><ele>173.39999999999998</ele><time>2026-03-28T13:17:25.091Z</time></trkpt><trkpt lat="45.7838508" lon="13.7212077"><ele>172.8</ele><time>2026-03-28T13:17:26.099Z</time></trkpt><trkpt lat="45.7838556" lon="13.7213283"><ele>172.2</ele><time>2026-03-28T13:17:27.104Z</time></trkpt><trkpt lat="45.7838804" lon="13.7214299"><ele>171.60000000000002</ele><time>2026-03-28T13:17:28.113Z</time></trkpt><trkpt lat="45.783978" lon="13.7215583"><ele>171.0</ele><time>2026-03-28T13:17:30.096Z</time></trkpt><trkpt lat="45.7840496" lon="13.7216513"><ele>171.0</ele><time>2026-03-28T13:17:31.097Z</time></trkpt><trkpt lat="45.7841202" lon="13.7217575"><ele>171.0</ele><time>2026-03-28T13:17:32.103Z</time></trkpt><trkpt lat="45.7841822" lon="13.7218564"><ele>171.0</ele><time>2026-03-28T13:17:33.1Z</time></trkpt><trkpt lat="45.7842313" lon="13.7219549"><ele>171.0</ele><time>2026-03-28T13:17:34.108Z</time></trkpt><trkpt lat="45.7842782" lon="13.7220517"><ele>171.0</ele><time>2026-03-28T13:17:35.108Z</time></trkpt><trkpt lat="45.7843248" lon="13.7221474"><ele>171.0</ele><time>2026-03-28T13:17:36.103Z</time></trkpt><trkpt lat="45.7843702" lon="13.7222479"><ele>168.0</ele><time>2026-03-28T13:17:37.099Z</time></trkpt><trkpt lat="45.784402" lon="13.7223557"><ele>165.0</ele><time>2026-03-28T13:17:38.102Z</time></trkpt><trkpt lat="45.7844221" lon="13.7224758"><ele>162.0</ele><time>2026-03-28T13:17:39.103Z</time></trkpt><trkpt lat="45.7844326" lon="13.7226013"><ele>159.0</ele><time>2026-03-28T13:17:40.099Z</time></trkpt><trkpt lat="45.7844429" lon="13.7227224"><ele>156.0</ele><time>2026-03-28T13:17:41.087Z</time></trkpt><trkpt lat="45.7844479" lon="13.7228407"><ele>153.0</ele><time>2026-03-28T13:17:42.107Z</time></trkpt><trkpt lat="45.7844403" lon="13.722955"><ele>152.33333333333334</ele><time>2026-03-28T13:17:43.109Z</time></trkpt><trkpt lat="45.7844252" lon="13.7230622"><ele>151.66666666666666</ele><time>2026-03-28T13:17:44.103Z</time></trkpt><trkpt lat="45.7844337" lon="13.7231969"><ele>151.0</ele><time>2026-03-28T13:17:46.113Z</time></trkpt><trkpt lat="45.7845197" lon="13.7232891"><ele>150.33333333333331</ele><time>2026-03-28T13:17:48.089Z</time></trkpt><trkpt lat="45.7845759" lon="13.7233402"><ele>149.66666666666666</ele><time>2026-03-28T13:17:49.092Z</time></trkpt><trkpt lat="45.7846339" lon="13.7234236"><ele>149.0</ele><time>2026-03-28T13:17:50.099Z</time></trkpt><trkpt lat="45.7846991" lon="13.7235152"><ele>151.5</ele><time>2026-03-28T13:17:51.09Z</time></trkpt><trkpt lat="45.7847577" lon="13.7236239"><ele>154.0</ele><time>2026-03-28T13:17:52.085Z</time></trkpt><trkpt lat="45.7848106" lon="13.7237154"><ele>156.5</ele><time>2026-03-28T13:17:53.081Z</time></trkpt><trkpt lat="45.7848624" lon="13.7237882"><ele>159.0</ele><time>2026-03-28T13:17:54.084Z</time></trkpt><trkpt lat="45.7849224" lon="13.7238427"><ele>161.5</ele><time>2026-03-28T13:17:55.091Z</time></trkpt><trkpt lat="45.7849888" lon="13.7238704"><ele>164.0</ele><time>2026-03-28T13:17:56.09Z</time></trkpt><trkpt lat="45.7850618" lon="13.7238875"><ele>164.0</ele><time>2026-03-28T13:17:57.08Z</time></trkpt><trkpt lat="45.7851296" lon="13.7239046"><ele>164.0</ele><time>2026-03-28T13:17:58.08Z</time></trkpt><trkpt lat="45.7852522" lon="13.7239246"><ele>164.0</ele><time>2026-03-28T13:18:00.078Z</time></trkpt><trkpt lat="45.7853645" lon="13.7239655"><ele>164.0</ele><time>2026-03-28T13:18:02.089Z</time></trkpt><trkpt lat="45.7854741" lon="13.7240341"><ele>164.0</ele><time>2026-03-28T13:18:04.087Z</time></trkpt><trkpt lat="45.7855831" lon="13.7240734"><ele>163.79999999999998</ele><time>2026-03-28T13:18:06.092Z</time></trkpt><trkpt lat="45.7856855" lon="13.7240393"><ele>163.6</ele><time>2026-03-28T13:18:08.097Z</time></trkpt><trkpt lat="45.7857578" lon="13.7239193"><ele>163.4</ele><time>2026-03-28T13:18:10.085Z</time></trkpt><trkpt lat="45.7857963" lon="13.7238452"><ele>163.2</ele><time>2026-03-28T13:18:11.079Z</time></trkpt><trkpt lat="45.7858707" lon="13.7236977"><ele>163.0</ele><time>2026-03-28T13:18:13.094Z</time></trkpt><trkpt lat="45.7859392" lon="13.7235595"><ele>167.4</ele><time>2026-03-28T13:18:15.092Z</time></trkpt><trkpt lat="45.7860215" lon="13.7234304"><ele>171.8</ele><time>2026-03-28T13:18:17.091Z</time></trkpt><trkpt lat="45.7860722" lon="13.723376"><ele>176.2</ele><time>2026-03-28T13:18:18.093Z</time></trkpt><trkpt lat="45.7861266" lon="13.7233225"><ele>180.6</ele><time>2026-03-28T13:18:19.091Z</time></trkpt><trkpt lat="45.786238" lon="13.723227"><ele>185.0</ele><time>2026-03-28T13:18:21.084Z</time></trkpt><trkpt lat="45.7863519" lon="13.7231791"><ele>185.0</ele><time>2026-03-28T13:18:23.087Z</time></trkpt><trkpt lat="45.7864772" lon="13.7231969"><ele>185.0</ele><time>2026-03-28T13:18:25.085Z</time></trkpt><trkpt lat="45.7865429" lon="13.7232272"><ele>185.0</ele><time>2026-03-28T13:18:26.091Z</time></trkpt><trkpt lat="45.7866021" lon="13.7232725"><ele>185.0</ele><time>2026-03-28T13:18:27.082Z</time></trkpt><trkpt lat="45.7866528" lon="13.723338"><ele>185.0</ele><time>2026-03-28T13:18:28.081Z</time></trkpt><trkpt lat="45.7866976" lon="13.7234133"><ele>185.0</ele><time>2026-03-28T13:18:29.086Z</time></trkpt><trkpt lat="45.7867327" lon="13.7234905"><ele>185.66666666666666</ele><time>2026-03-28T13:18:30.088Z</time></trkpt><trkpt lat="45.7867613" lon="13.7235753"><ele>186.33333333333331</ele><time>2026-03-28T13:18:31.088Z</time></trkpt><trkpt lat="45.7867892" lon="13.7236565"><ele>187.0</ele><time>2026-03-28T13:18:32.098Z</time></trkpt><trkpt lat="45.7868174" lon="13.7237432"><ele>187.66666666666666</ele><time>2026-03-28T13:18:33.102Z</time></trkpt><trkpt lat="45.7868569" lon="13.723814"><ele>188.33333333333334</ele><time>2026-03-28T13:18:34.09Z</time></trkpt><trkpt lat="45.786908" lon="13.7238754"><ele>189.0</ele><time>2026-03-28T13:18:35.108Z</time></trkpt><trkpt lat="45.7870097" lon="13.7239787"><ele>191.0</ele><time>2026-03-28T13:18:37.1Z</time></trkpt><trkpt lat="45.7870749" lon="13.7240098"><ele>193.0</ele><time>2026-03-28T13:18:38.104Z</time></trkpt><trkpt lat="45.7871534" lon="13.7240152"><ele>195.0</ele><time>2026-03-28T13:18:39.084Z</time></trkpt><trkpt lat="45.7872407" lon="13.7240065"><ele>197.0</ele><time>2026-03-28T13:18:40.096Z</time></trkpt><trkpt lat="45.78732" lon="13.7239867"><ele>199.0</ele><time>2026-03-28T13:18:41.103Z</time></trkpt><trkpt lat="45.7873967" lon="13.7239661"><ele>201.0</ele><time>2026-03-28T13:18:42.102Z</time></trkpt><trkpt lat="45.7874694" lon="13.723944"><ele>201.0</ele><time>2026-03-28T13:18:43.112Z</time></trkpt><trkpt lat="45.7875386" lon="13.7239287"><ele>201.0</ele><time>2026-03-28T13:18:44.095Z</time></trkpt><trkpt lat="45.7876368" lon="13.7239823"><ele>201.0</ele><time>2026-03-28T13:18:46.11Z</time></trkpt><trkpt lat="45.7876901" lon="13.724045"><ele>201.0</ele><time>2026-03-28T13:18:47.088Z</time></trkpt><trkpt lat="45.7877424" lon="13.7241293"><ele>201.0</ele><time>2026-03-28T13:18:48.099Z</time></trkpt><trkpt lat="45.7877854" lon="13.7241999"><ele>201.0</ele><time>2026-03-28T13:18:49.105Z</time></trkpt><trkpt lat="45.7878349" lon="13.7242852"><ele>202.0</ele><time>2026-03-28T13:18:50.108Z</time></trkpt><trkpt lat="45.78788" lon="13.7243726"><ele>203.0</ele><time>2026-03-28T13:18:51.105Z</time></trkpt><trkpt lat="45.7879208" lon="13.7244879"><ele>204.0</ele><time>2026-03-28T13:18:52.099Z</time></trkpt><trkpt lat="45.7879596" lon="13.7245896"><ele>205.0</ele><time>2026-03-28T13:18:53.102Z</time></trkpt><trkpt lat="45.7879971" lon="13.724694"><ele>206.0</ele><time>2026-03-28T13:18:54.109Z</time></trkpt><trkpt lat="45.788038" lon="13.7247939"><ele>207.0</ele><time>2026-03-28T13:18:55.097Z</time></trkpt><trkpt lat="45.7880808" lon="13.7248863"><ele>207.6</ele><time>2026-03-28T13:18:56.14Z</time></trkpt><trkpt lat="45.788133" lon="13.7249909"><ele>208.2</ele><time>2026-03-28T13:18:57.103Z</time></trkpt><trkpt lat="45.7881848" lon="13.7251009"><ele>208.8</ele><time>2026-03-28T13:18:58.105Z</time></trkpt><trkpt lat="45.7882434" lon="13.7252157"><ele>209.4</ele><time>2026-03-28T13:18:59.111Z</time></trkpt><trkpt lat="45.7883084" lon="13.7253205"><ele>210.0</ele><time>2026-03-28T13:19:00.109Z</time></trkpt><trkpt lat="45.788382" lon="13.7254176"><ele>210.14285714285714</ele><time>2026-03-28T13:19:01.097Z</time></trkpt><trkpt lat="45.7884462" lon="13.7255046"><ele>210.28571428571428</ele><time>2026-03-28T13:19:02.105Z</time></trkpt><trkpt lat="45.7885027" lon="13.7255928"><ele>210.42857142857144</ele><time>2026-03-28T13:19:03.1Z</time></trkpt><trkpt lat="45.7885383" lon="13.7256789"><ele>210.57142857142856</ele><time>2026-03-28T13:19:04.107Z</time></trkpt><trkpt lat="45.7885706" lon="13.7257575"><ele>210.71428571428572</ele><time>2026-03-28T13:19:05.11Z</time></trkpt><trkpt lat="45.7886035" lon="13.7258373"><ele>210.85714285714286</ele><time>2026-03-28T13:19:06.116Z</time></trkpt><trkpt lat="45.7886453" lon="13.7259105"><ele>211.0</ele><time>2026-03-28T13:19:07.118Z</time></trkpt><trkpt lat="45.788695" lon="13.7259829"><ele>211.60000000000002</ele><time>2026-03-28T13:19:08.115Z</time></trkpt><trkpt lat="45.788759" lon="13.7260521"><ele>212.2</ele><time>2026-03-28T13:19:09.104Z</time></trkpt><trkpt lat="45.7888429" lon="13.7261323"><ele>212.79999999999998</ele><time>2026-03-28T13:19:10.11Z</time></trkpt><trkpt lat="45.7889271" lon="13.72622"><ele>213.39999999999998</ele><time>2026-03-28T13:19:11.11Z</time></trkpt><trkpt lat="45.7890104" lon="13.7262993"><ele>214.0</ele><time>2026-03-28T13:19:12.114Z</time></trkpt><trkpt lat="45.7890937" lon="13.7263765"><ele>213.99999999999997</ele><time>2026-03-28T13:19:13.108Z</time></trkpt><trkpt lat="45.7891728" lon="13.7264561"><ele>214.0</ele><time>2026-03-28T13:19:14.119Z</time></trkpt><trkpt lat="45.7892551" lon="13.7265409"><ele>214.0</ele><time>2026-03-28T13:19:15.109Z</time></trkpt><trkpt lat="45.7893292" lon="13.7266165"><ele>214.0</ele><time>2026-03-28T13:19:16.118Z</time></trkpt><trkpt lat="45.7894004" lon="13.7266568"><ele>213.99999999999997</ele><time>2026-03-28T13:19:17.109Z</time></trkpt><trkpt lat="45.7894659" lon="13.7266685"><ele>214.0</ele><time>2026-03-28T13:19:18.104Z</time></trkpt><trkpt lat="45.789566" lon="13.7266859"><ele>215.39999999999998</ele><time>2026-03-28T13:19:20.11Z</time></trkpt><trkpt lat="45.7896345" lon="13.7267682"><ele>216.79999999999998</ele><time>2026-03-28T13:19:24.108Z</time></trkpt><trkpt lat="45.7897042" lon="13.7268386"><ele>218.20000000000002</ele><time>2026-03-28T13:19:26.12Z</time></trkpt><trkpt lat="45.7897539" lon="13.7269153"><ele>219.60000000000002</ele><time>2026-03-28T13:19:29.112Z</time></trkpt><trkpt lat="45.7898259" lon="13.7269876"><ele>221.0</ele><time>2026-03-28T13:23:15.122Z</time></trkpt><trkpt lat="45.7899461" lon="13.7270384"><ele>221.0</ele><time>2026-03-28T13:23:17.102Z</time></trkpt><trkpt lat="45.7900152" lon="13.7270616"><ele>221.00000000000003</ele><time>2026-03-28T13:23:18.116Z</time></trkpt><trkpt lat="45.7900931" lon="13.7271053"><ele>221.00000000000003</ele><time>2026-03-28T13:23:19.11Z</time></trkpt><trkpt lat="45.7901837" lon="13.7271713"><ele>221.0</ele><time>2026-03-28T13:23:20.124Z</time></trkpt><trkpt lat="45.7902914" lon="13.7272603"><ele>221.0</ele><time>2026-03-28T13:23:21.118Z</time></trkpt><trkpt lat="45.7903955" lon="13.7273571"><ele>222.25</ele><time>2026-03-28T13:23:22.118Z</time></trkpt><trkpt lat="45.7905042" lon="13.7274678"><ele>223.5</ele><time>2026-03-28T13:23:23.122Z</time></trkpt><trkpt lat="45.7906035" lon="13.7275738"><ele>224.75</ele><time>2026-03-28T13:23:24.122Z</time></trkpt><trkpt lat="45.7906793" lon="13.7276943"><ele>226.0</ele><time>2026-03-28T13:23:25.118Z</time></trkpt><trkpt lat="45.7907352" lon="13.7278015"><ele>225.99999999999997</ele><time>2026-03-28T13:23:26.121Z</time></trkpt><trkpt lat="45.7907928" lon="13.7279108"><ele>226.0</ele><time>2026-03-28T13:23:27.122Z</time></trkpt><trkpt lat="45.7908541" lon="13.7280083"><ele>226.0</ele><time>2026-03-28T13:23:28.126Z</time></trkpt><trkpt lat="45.7909138" lon="13.7281039"><ele>226.0</ele><time>2026-03-28T13:23:29.112Z</time></trkpt><trkpt lat="45.7909721" lon="13.7281849"><ele>225.99999999999997</ele><time>2026-03-28T13:23:30.122Z</time></trkpt><trkpt lat="45.7910297" lon="13.7282357"><ele>226.0</ele><time>2026-03-28T13:23:31.123Z</time></trkpt><trkpt lat="45.7910894" lon="13.7282693"><ele>227.33333333333331</ele><time>2026-03-28T13:23:32.107Z</time></trkpt><trkpt lat="45.7911532" lon="13.7282977"><ele>228.66666666666666</ele><time>2026-03-28T13:23:33.123Z</time></trkpt><trkpt lat="45.7912235" lon="13.7283237"><ele>230.0</ele><time>2026-03-28T13:23:34.125Z</time></trkpt><trkpt lat="45.7912989" lon="13.7283411"><ele>231.33333333333331</ele><time>2026-03-28T13:23:35.107Z</time></trkpt><trkpt lat="45.7913769" lon="13.7283591"><ele>232.66666666666666</ele><time>2026-03-28T13:23:36.138Z</time></trkpt><trkpt lat="45.7914558" lon="13.728377"><ele>234.0</ele><time>2026-03-28T13:23:37.119Z</time></trkpt><trkpt lat="45.7915343" lon="13.7284004"><ele>234.0</ele><time>2026-03-28T13:23:38.123Z</time></trkpt><trkpt lat="45.7916135" lon="13.7284408"><ele>233.99999999999997</ele><time>2026-03-28T13:23:39.118Z</time></trkpt><trkpt lat="45.7916978" lon="13.728499"><ele>233.99999999999997</ele><time>2026-03-28T13:23:40.12Z</time></trkpt><trkpt lat="45.7917868" lon="13.7285713"><ele>234.0</ele><time>2026-03-28T13:23:41.122Z</time></trkpt><trkpt lat="45.7918691" lon="13.7286404"><ele>234.0</ele><time>2026-03-28T13:23:42.135Z</time></trkpt><trkpt lat="45.791948" lon="13.7287138"><ele>235.39999999999998</ele><time>2026-03-28T13:23:43.129Z</time></trkpt><trkpt lat="45.7920276" lon="13.7287927"><ele>236.79999999999998</ele><time>2026-03-28T13:23:44.138Z</time></trkpt><trkpt lat="45.7921157" lon="13.7288692"><ele>238.20000000000002</ele><time>2026-03-28T13:23:45.111Z</time></trkpt><trkpt lat="45.7922082" lon="13.7289508"><ele>239.60000000000002</ele><time>2026-03-28T13:23:46.121Z</time></trkpt><trkpt lat="45.7922958" lon="13.7290274"><ele>241.0</ele><time>2026-03-28T13:23:47.12Z</time></trkpt><trkpt lat="45.7923725" lon="13.7290992"><ele>240.99999999999997</ele><time>2026-03-28T13:23:48.126Z</time></trkpt><trkpt lat="45.7924381" lon="13.7291727"><ele>241.0</ele><time>2026-03-28T13:23:49.122Z</time></trkpt><trkpt lat="45.7924848" lon="13.7292551"><ele>241.0</ele><time>2026-03-28T13:23:50.125Z</time></trkpt><trkpt lat="45.7925087" lon="13.729345"><ele>241.0</ele><time>2026-03-28T13:23:51.128Z</time></trkpt><trkpt lat="45.792519" lon="13.7294496"><ele>240.99999999999997</ele><time>2026-03-28T13:23:52.114Z</time></trkpt><trkpt lat="45.7925301" lon="13.7295683"><ele>241.0</ele><time>2026-03-28T13:23:53.111Z</time></trkpt><trkpt lat="45.7925461" lon="13.7296888"><ele>241.16666666666666</ele><time>2026-03-28T13:23:54.124Z</time></trkpt><trkpt lat="45.7925615" lon="13.7298081"><ele>241.33333333333331</ele><time>2026-03-28T13:23:55.116Z</time></trkpt><trkpt lat="45.7925756" lon="13.7299171"><ele>241.5</ele><time>2026-03-28T13:23:56.114Z</time></trkpt><trkpt lat="45.7925936" lon="13.7300194"><ele>241.66666666666669</ele><time>2026-03-28T13:23:57.11Z</time></trkpt><trkpt lat="45.7926311" lon="13.7301075"><ele>241.83333333333334</ele><time>2026-03-28T13:23:58.112Z</time></trkpt><trkpt lat="45.7926859" lon="13.7301886"><ele>242.0</ele><time>2026-03-28T13:23:59.102Z</time></trkpt><trkpt lat="45.7927454" lon="13.7302609"><ele>243.0</ele><time>2026-03-28T13:24:00.102Z</time></trkpt><trkpt lat="45.7928142" lon="13.7303367"><ele>244.0</ele><time>2026-03-28T13:24:01.116Z</time></trkpt><trkpt lat="45.792892" lon="13.730406"><ele>245.0</ele><time>2026-03-28T13:24:02.114Z</time></trkpt><trkpt lat="45.7929666" lon="13.7304886"><ele>246.0</ele><time>2026-03-28T13:24:03.104Z</time></trkpt><trkpt lat="45.7930378" lon="13.730573"><ele>247.0</ele><time>2026-03-28T13:24:04.116Z</time></trkpt><trkpt lat="45.7931002" lon="13.7306714"><ele>246.99999999999997</ele><time>2026-03-28T13:24:05.116Z</time></trkpt><trkpt lat="45.793151" lon="13.7307796"><ele>247.0</ele><time>2026-03-28T13:24:06.118Z</time></trkpt><trkpt lat="45.7931979" lon="13.730883"><ele>247.0</ele><time>2026-03-28T13:24:07.126Z</time></trkpt><trkpt lat="45.7932545" lon="13.7309758"><ele>247.0</ele><time>2026-03-28T13:24:08.121Z</time></trkpt><trkpt lat="45.7933242" lon="13.7310576"><ele>246.99999999999997</ele><time>2026-03-28T13:24:09.114Z</time></trkpt><trkpt lat="45.7934027" lon="13.7311311"><ele>247.0</ele><time>2026-03-28T13:24:10.113Z</time></trkpt><trkpt lat="45.7934703" lon="13.7311898"><ele>249.0</ele><time>2026-03-28T13:24:11.118Z</time></trkpt><trkpt lat="45.7935325" lon="13.7312529"><ele>251.0</ele><time>2026-03-28T13:24:12.136Z</time></trkpt><trkpt lat="45.7935997" lon="13.7313332"><ele>253.0</ele><time>2026-03-28T13:24:13.129Z</time></trkpt><trkpt lat="45.7936688" lon="13.7314517"><ele>255.0</ele><time>2026-03-28T13:24:14.119Z</time></trkpt><trkpt lat="45.7937359" lon="13.7315746"><ele>257.0</ele><time>2026-03-28T13:24:15.115Z</time></trkpt><trkpt lat="45.7938089" lon="13.7316991"><ele>257.0</ele><time>2026-03-28T13:24:16.115Z</time></trkpt><trkpt lat="45.7938899" lon="13.7318254"><ele>257.0</ele><time>2026-03-28T13:24:17.112Z</time></trkpt><trkpt lat="45.7939764" lon="13.731952"><ele>257.0</ele><time>2026-03-28T13:24:18.115Z</time></trkpt><trkpt lat="45.7940592" lon="13.7320722"><ele>257.0</ele><time>2026-03-28T13:24:19.112Z</time></trkpt><trkpt lat="45.7941302" lon="13.732187"><ele>256.8</ele><time>2026-03-28T13:24:20.141Z</time></trkpt><trkpt lat="45.7941893" lon="13.7322947"><ele>256.6</ele><time>2026-03-28T13:24:21.113Z</time></trkpt><trkpt lat="45.7942505" lon="13.7324035"><ele>256.40000000000003</ele><time>2026-03-28T13:24:22.125Z</time></trkpt><trkpt lat="45.7943237" lon="13.7325112"><ele>256.2</ele><time>2026-03-28T13:24:23.12Z</time></trkpt><trkpt lat="45.7944041" lon="13.732613"><ele>256.0</ele><time>2026-03-28T13:24:24.127Z</time></trkpt><trkpt lat="45.7944833" lon="13.7327046"><ele>256.6</ele><time>2026-03-28T13:24:25.123Z</time></trkpt><trkpt lat="45.7945634" lon="13.7327864"><ele>257.20000000000005</ele><time>2026-03-28T13:24:26.125Z</time></trkpt><trkpt lat="45.7946527" lon="13.7328655"><ele>257.79999999999995</ele><time>2026-03-28T13:24:27.128Z</time></trkpt><trkpt lat="45.7947421" lon="13.7329456"><ele>258.4</ele><time>2026-03-28T13:24:28.13Z</time></trkpt><trkpt lat="45.7948295" lon="13.7330435"><ele>259.0</ele><time>2026-03-28T13:24:29.127Z</time></trkpt><trkpt lat="45.7949137" lon="13.7331605"><ele>259.0</ele><time>2026-03-28T13:24:30.124Z</time></trkpt><trkpt lat="45.7949912" lon="13.7332789"><ele>259.0</ele><time>2026-03-28T13:24:31.119Z</time></trkpt><trkpt lat="45.7950874" lon="13.7333866"><ele>259.0</ele><time>2026-03-28T13:24:32.124Z</time></trkpt><trkpt lat="45.7951955" lon="13.733484"><ele>259.0</ele><time>2026-03-28T13:24:33.121Z</time></trkpt><trkpt lat="45.7952959" lon="13.733575"><ele>258.0</ele><time>2026-03-28T13:24:34.138Z</time></trkpt><trkpt lat="45.7953859" lon="13.7336624"><ele>257.0</ele><time>2026-03-28T13:24:35.114Z</time></trkpt><trkpt lat="45.7954719" lon="13.733739"><ele>255.99999999999997</ele><time>2026-03-28T13:24:36.128Z</time></trkpt><trkpt lat="45.7955443" lon="13.7338244"><ele>255.0</ele><time>2026-03-28T13:24:37.119Z</time></trkpt><trkpt lat="45.7955983" lon="13.73394"><ele>254.0</ele><time>2026-03-28T13:24:38.125Z</time></trkpt><trkpt lat="45.7956336" lon="13.7340647"><ele>254.0</ele><time>2026-03-28T13:24:39.111Z</time></trkpt><trkpt lat="45.7956323" lon="13.7341968"><ele>253.99999999999997</ele><time>2026-03-28T13:24:40.101Z</time></trkpt><trkpt lat="45.7956023" lon="13.7343147"><ele>253.99999999999997</ele><time>2026-03-28T13:24:41.112Z</time></trkpt><trkpt lat="45.7955653" lon="13.7344293"><ele>254.0</ele><time>2026-03-28T13:24:42.107Z</time></trkpt><trkpt lat="45.7955473" lon="13.7345618"><ele>254.0</ele><time>2026-03-28T13:24:43.132Z</time></trkpt><trkpt lat="45.7955473" lon="13.7347026"><ele>253.6</ele><time>2026-03-28T13:24:44.117Z</time></trkpt><trkpt lat="45.7955555" lon="13.7348387"><ele>253.2</ele><time>2026-03-28T13:24:45.119Z</time></trkpt><trkpt lat="45.7955567" lon="13.7349796"><ele>252.79999999999998</ele><time>2026-03-28T13:24:46.116Z</time></trkpt><trkpt lat="45.7955507" lon="13.7351115"><ele>252.39999999999998</ele><time>2026-03-28T13:24:47.113Z</time></trkpt><trkpt lat="45.7955334" lon="13.7352439"><ele>252.0</ele><time>2026-03-28T13:24:48.116Z</time></trkpt><trkpt lat="45.795522" lon="13.7353726"><ele>252.0</ele><time>2026-03-28T13:24:49.105Z</time></trkpt><trkpt lat="45.7955265" lon="13.7354995"><ele>252.0</ele><time>2026-03-28T13:24:50.133Z</time></trkpt><trkpt lat="45.79556" lon="13.7356391"><ele>252.0</ele><time>2026-03-28T13:24:51.112Z</time></trkpt><trkpt lat="45.7956164" lon="13.7357776"><ele>252.0</ele><time>2026-03-28T13:24:52.105Z</time></trkpt><trkpt lat="45.7956738" lon="13.7359308"><ele>252.0</ele><time>2026-03-28T13:24:53.116Z</time></trkpt><trkpt lat="45.7957374" lon="13.7360934"><ele>251.75</ele><time>2026-03-28T13:24:54.117Z</time></trkpt><trkpt lat="45.7958007" lon="13.7362633"><ele>251.5</ele><time>2026-03-28T13:24:55.116Z</time></trkpt><trkpt lat="45.7958576" lon="13.7364345"><ele>251.25</ele><time>2026-03-28T13:24:56.122Z</time></trkpt><trkpt lat="45.7959143" lon="13.7366063"><ele>251.0</ele><time>2026-03-28T13:24:57.117Z</time></trkpt><trkpt lat="45.7959751" lon="13.7367759"><ele>251.75</ele><time>2026-03-28T13:24:58.127Z</time></trkpt><trkpt lat="45.7960299" lon="13.7369519"><ele>252.5</ele><time>2026-03-28T13:24:59.112Z</time></trkpt><trkpt lat="45.7960759" lon="13.7371201"><ele>253.25</ele><time>2026-03-28T13:25:00.122Z</time></trkpt><trkpt lat="45.7961259" lon="13.7372867"><ele>254.0</ele><time>2026-03-28T13:25:01.116Z</time></trkpt><trkpt lat="45.7961858" lon="13.7374568"><ele>254.0</ele><time>2026-03-28T13:25:02.116Z</time></trkpt><trkpt lat="45.7962466" lon="13.7376351"><ele>254.0</ele><time>2026-03-28T13:25:03.121Z</time></trkpt><trkpt lat="45.7963024" lon="13.7378117"><ele>254.0</ele><time>2026-03-28T13:25:04.122Z</time></trkpt><trkpt lat="45.7963562" lon="13.7379846"><ele>254.0</ele><time>2026-03-28T13:25:05.117Z</time></trkpt><trkpt lat="45.7964067" lon="13.7381498"><ele>253.6</ele><time>2026-03-28T13:25:06.118Z</time></trkpt><trkpt lat="45.7964527" lon="13.7383039"><ele>253.2</ele><time>2026-03-28T13:25:07.119Z</time></trkpt><trkpt lat="45.7964925" lon="13.7384485"><ele>252.79999999999998</ele><time>2026-03-28T13:25:08.12Z</time></trkpt><trkpt lat="45.7965194" lon="13.7385835"><ele>252.39999999999998</ele><time>2026-03-28T13:25:09.123Z</time></trkpt><trkpt lat="45.7965535" lon="13.738713"><ele>252.0</ele><time>2026-03-28T13:25:10.12Z</time></trkpt><trkpt lat="45.796605" lon="13.7388286"><ele>251.6</ele><time>2026-03-28T13:25:11.123Z</time></trkpt><trkpt lat="45.7966726" lon="13.7389238"><ele>251.2</ele><time>2026-03-28T13:25:12.129Z</time></trkpt><trkpt lat="45.7967487" lon="13.7390027"><ele>250.8</ele><time>2026-03-28T13:25:13.105Z</time></trkpt><trkpt lat="45.7968315" lon="13.7390804"><ele>250.4</ele><time>2026-03-28T13:25:14.115Z</time></trkpt><trkpt lat="45.796912" lon="13.73915"><ele>250.0</ele><time>2026-03-28T13:25:15.116Z</time></trkpt><trkpt lat="45.7969873" lon="13.7392194"><ele>250.2</ele><time>2026-03-28T13:25:16.131Z</time></trkpt><trkpt lat="45.7970614" lon="13.7392947"><ele>250.4</ele><time>2026-03-28T13:25:17.118Z</time></trkpt><trkpt lat="45.797134" lon="13.7393961"><ele>250.60000000000002</ele><time>2026-03-28T13:25:18.123Z</time></trkpt><trkpt lat="45.7971949" lon="13.7395328"><ele>250.8</ele><time>2026-03-28T13:25:19.119Z</time></trkpt><trkpt lat="45.7972522" lon="13.7396942"><ele>251.0</ele><time>2026-03-28T13:25:20.1Z</time></trkpt><trkpt lat="45.7973183" lon="13.7398614"><ele>251.0</ele><time>2026-03-28T13:25:21.124Z</time></trkpt><trkpt lat="45.7973821" lon="13.7400504"><ele>251.0</ele><time>2026-03-28T13:25:22.125Z</time></trkpt><trkpt lat="45.7974405" lon="13.7402597"><ele>251.0</ele><time>2026-03-28T13:25:23.115Z</time></trkpt><trkpt lat="45.7974881" lon="13.740464"><ele>250.25</ele><time>2026-03-28T13:25:24.108Z</time></trkpt><trkpt lat="45.7975276" lon="13.7406589"><ele>249.5</ele><time>2026-03-28T13:25:25.112Z</time></trkpt><trkpt lat="45.7975731" lon="13.7408393"><ele>248.75</ele><time>2026-03-28T13:25:26.116Z</time></trkpt><trkpt lat="45.7976277" lon="13.7410071"><ele>248.0</ele><time>2026-03-28T13:25:27.104Z</time></trkpt><trkpt lat="45.7976869" lon="13.7411753"><ele>248.0</ele><time>2026-03-28T13:25:28.118Z</time></trkpt><trkpt lat="45.7977372" lon="13.7413545"><ele>248.0</ele><time>2026-03-28T13:25:29.119Z</time></trkpt><trkpt lat="45.7977806" lon="13.7415273"><ele>248.0</ele><time>2026-03-28T13:25:30.114Z</time></trkpt><trkpt lat="45.7978109" lon="13.7416796"><ele>248.0</ele><time>2026-03-28T13:25:31.125Z</time></trkpt><trkpt lat="45.797833" lon="13.7418005"><ele>248.16666666666669</ele><time>2026-03-28T13:25:32.12Z</time></trkpt><trkpt lat="45.7978518" lon="13.7418939"><ele>248.33333333333334</ele><time>2026-03-28T13:25:33.118Z</time></trkpt><trkpt lat="45.7978758" lon="13.7419819"><ele>248.5</ele><time>2026-03-28T13:25:34.131Z</time></trkpt><trkpt lat="45.7979089" lon="13.7421061"><ele>248.66666666666669</ele><time>2026-03-28T13:25:36.132Z</time></trkpt><trkpt lat="45.7979474" lon="13.7422265"><ele>248.83333333333334</ele><time>2026-03-28T13:25:38.129Z</time></trkpt><trkpt lat="45.7979823" lon="13.7423494"><ele>249.0</ele><time>2026-03-28T13:25:40.123Z</time></trkpt><trkpt lat="45.7980102" lon="13.7424664"><ele>249.0</ele><time>2026-03-28T13:25:42.134Z</time></trkpt><trkpt lat="45.7980513" lon="13.7425962"><ele>248.99999999999997</ele><time>2026-03-28T13:25:44.119Z</time></trkpt><trkpt lat="45.7980898" lon="13.742735"><ele>248.99999999999997</ele><time>2026-03-28T13:25:46.131Z</time></trkpt><trkpt lat="45.798115" lon="13.7428622"><ele>249.0</ele><time>2026-03-28T13:25:48.112Z</time></trkpt><trkpt lat="45.7981308" lon="13.7429819"><ele>249.0</ele><time>2026-03-28T13:25:50.116Z</time></trkpt><trkpt lat="45.7981516" lon="13.7431115"><ele>248.5</ele><time>2026-03-28T13:25:52.122Z</time></trkpt><trkpt lat="45.7981757" lon="13.7432435"><ele>248.0</ele><time>2026-03-28T13:25:54.136Z</time></trkpt><trkpt lat="45.7982115" lon="13.7433865"><ele>247.5</ele><time>2026-03-28T13:25:56.118Z</time></trkpt><trkpt lat="45.7982477" lon="13.7434703"><ele>247.0</ele><time>2026-03-28T13:25:57.113Z</time></trkpt><trkpt lat="45.7982963" lon="13.7435598"><ele>246.5</ele><time>2026-03-28T13:25:58.119Z</time></trkpt><trkpt lat="45.7983401" lon="13.7436432"><ele>246.0</ele><time>2026-03-28T13:25:59.114Z</time></trkpt><trkpt lat="45.7983785" lon="13.7437256"><ele>245.8</ele><time>2026-03-28T13:26:00.121Z</time></trkpt><trkpt lat="45.7984324" lon="13.7438813"><ele>245.60000000000002</ele><time>2026-03-28T13:26:02.118Z</time></trkpt><trkpt lat="45.7984797" lon="13.744047"><ele>245.4</ele><time>2026-03-28T13:26:04.111Z</time></trkpt><trkpt lat="45.798519" lon="13.7441318"><ele>245.2</ele><time>2026-03-28T13:26:05.139Z</time></trkpt><trkpt lat="45.7985754" lon="13.7442214"><ele>245.0</ele><time>2026-03-28T13:26:06.119Z</time></trkpt><trkpt lat="45.7986363" lon="13.744324"><ele>244.4</ele><time>2026-03-28T13:26:07.115Z</time></trkpt><trkpt lat="45.7986931" lon="13.744432"><ele>243.8</ele><time>2026-03-28T13:26:08.121Z</time></trkpt><trkpt lat="45.7987536" lon="13.7445313"><ele>243.2</ele><time>2026-03-28T13:26:09.11Z</time></trkpt><trkpt lat="45.7988205" lon="13.7446195"><ele>242.6</ele><time>2026-03-28T13:26:10.124Z</time></trkpt><trkpt lat="45.7989184" lon="13.7447203"><ele>242.0</ele><time>2026-03-28T13:26:11.121Z</time></trkpt><trkpt lat="45.799027" lon="13.7448236"><ele>242.0</ele><time>2026-03-28T13:26:12.133Z</time></trkpt><trkpt lat="45.7991221" lon="13.744932"><ele>242.0</ele><time>2026-03-28T13:26:13.112Z</time></trkpt><trkpt lat="45.7991995" lon="13.745042"><ele>242.0</ele><time>2026-03-28T13:26:14.12Z</time></trkpt><trkpt lat="45.7992706" lon="13.7451517"><ele>242.0</ele><time>2026-03-28T13:26:15.125Z</time></trkpt><trkpt lat="45.7993341" lon="13.7452558"><ele>242.0</ele><time>2026-03-28T13:26:16.12Z</time></trkpt><trkpt lat="45.7993957" lon="13.7453518"><ele>242.2</ele><time>2026-03-28T13:26:17.113Z</time></trkpt><trkpt lat="45.7994554" lon="13.7454383"><ele>242.39999999999998</ele><time>2026-03-28T13:26:18.115Z</time></trkpt><trkpt lat="45.7995151" lon="13.7455144"><ele>242.60000000000002</ele><time>2026-03-28T13:26:19.124Z</time></trkpt><trkpt lat="45.7995692" lon="13.745571"><ele>242.8</ele><time>2026-03-28T13:26:20.121Z</time></trkpt><trkpt lat="45.7996559" lon="13.7456806"><ele>243.0</ele><time>2026-03-28T13:26:22.122Z</time></trkpt><trkpt lat="45.7997421" lon="13.7457601"><ele>243.0</ele><time>2026-03-28T13:26:24.124Z</time></trkpt><trkpt lat="45.7998421" lon="13.7457429"><ele>243.0</ele><time>2026-03-28T13:26:26.119Z</time></trkpt><trkpt lat="45.7999009" lon="13.7457034"><ele>243.0</ele><time>2026-03-28T13:26:27.11Z</time></trkpt><trkpt lat="45.7999672" lon="13.7456387"><ele>243.0</ele><time>2026-03-28T13:26:28.112Z</time></trkpt><trkpt lat="45.8000404" lon="13.7455808"><ele>243.0</ele><time>2026-03-28T13:26:29.127Z</time></trkpt><trkpt lat="45.8001142" lon="13.7455355"><ele>243.0</ele><time>2026-03-28T13:26:30.131Z</time></trkpt><trkpt lat="45.8001819" lon="13.7455049"><ele>243.5</ele><time>2026-03-28T13:26:31.127Z</time></trkpt><trkpt lat="45.8002435" lon="13.7454692"><ele>244.0</ele><time>2026-03-28T13:26:32.133Z</time></trkpt><trkpt lat="45.8002921" lon="13.7453269"><ele>244.5</ele><time>2026-03-28T13:26:34.11Z</time></trkpt><trkpt lat="45.8002871" lon="13.7452308"><ele>245.0</ele><time>2026-03-28T13:26:35.116Z</time></trkpt><trkpt lat="45.8002814" lon="13.7451203"><ele>245.5</ele><time>2026-03-28T13:26:36.105Z</time></trkpt><trkpt lat="45.8002826" lon="13.7450125"><ele>246.0</ele><time>2026-03-28T13:26:37.123Z</time></trkpt><trkpt lat="45.8002918" lon="13.7449069"><ele>246.20000000000002</ele><time>2026-03-28T13:26:38.119Z</time></trkpt><trkpt lat="45.8003107" lon="13.7447949"><ele>246.40000000000003</ele><time>2026-03-28T13:26:39.116Z</time></trkpt><trkpt lat="45.800335" lon="13.7446764"><ele>246.6</ele><time>2026-03-28T13:26:40.121Z</time></trkpt><trkpt lat="45.8003648" lon="13.7445384"><ele>246.8</ele><time>2026-03-28T13:26:41.108Z</time></trkpt><trkpt lat="45.8004102" lon="13.7443988"><ele>247.0</ele><time>2026-03-28T13:26:42.134Z</time></trkpt><trkpt lat="45.8004725" lon="13.7442597"><ele>247.0</ele><time>2026-03-28T13:26:43.11Z</time></trkpt><trkpt lat="45.8005433" lon="13.7441324"><ele>247.0</ele><time>2026-03-28T13:26:44.114Z</time></trkpt><trkpt lat="45.8006196" lon="13.7440127"><ele>247.0</ele><time>2026-03-28T13:26:45.111Z</time></trkpt><trkpt lat="45.80069" lon="13.7438868"><ele>247.0</ele><time>2026-03-28T13:26:46.123Z</time></trkpt><trkpt lat="45.8007554" lon="13.7437376"><ele>247.0</ele><time>2026-03-28T13:26:47.12Z</time></trkpt><trkpt lat="45.8008051" lon="13.7435708"><ele>247.0</ele><time>2026-03-28T13:26:48.11Z</time></trkpt><trkpt lat="45.8008463" lon="13.7433885"><ele>247.0</ele><time>2026-03-28T13:26:49.112Z</time></trkpt><trkpt lat="45.8008864" lon="13.7432068"><ele>247.0</ele><time>2026-03-28T13:26:50.108Z</time></trkpt><trkpt lat="45.8009123" lon="13.7430265"><ele>247.39999999999998</ele><time>2026-03-28T13:26:51.109Z</time></trkpt><trkpt lat="45.800927" lon="13.742864"><ele>247.79999999999998</ele><time>2026-03-28T13:26:52.118Z</time></trkpt><trkpt lat="45.8009413" lon="13.7427186"><ele>248.2</ele><time>2026-03-28T13:26:53.113Z</time></trkpt><trkpt lat="45.8009776" lon="13.7425883"><ele>248.6</ele><time>2026-03-28T13:26:54.135Z</time></trkpt><trkpt lat="45.8010331" lon="13.7424563"><ele>249.0</ele><time>2026-03-28T13:26:55.121Z</time></trkpt><trkpt lat="45.8011081" lon="13.7423065"><ele>249.0</ele><time>2026-03-28T13:26:56.112Z</time></trkpt><trkpt lat="45.8011999" lon="13.7421357"><ele>249.0</ele><time>2026-03-28T13:26:57.111Z</time></trkpt><trkpt lat="45.8012887" lon="13.7419534"><ele>249.0</ele><time>2026-03-28T13:26:58.11Z</time></trkpt><trkpt lat="45.8013695" lon="13.7417892"><ele>249.0</ele><time>2026-03-28T13:26:59.115Z</time></trkpt><trkpt lat="45.8014274" lon="13.7416549"><ele>248.79999999999998</ele><time>2026-03-28T13:27:00.12Z</time></trkpt><trkpt lat="45.8014612" lon="13.7415203"><ele>248.59999999999997</ele><time>2026-03-28T13:27:01.108Z</time></trkpt><trkpt lat="45.8014874" lon="13.741366"><ele>248.4</ele><time>2026-03-28T13:27:02.107Z</time></trkpt><trkpt lat="45.8015218" lon="13.7411992"><ele>248.2</ele><time>2026-03-28T13:27:03.114Z</time></trkpt><trkpt lat="45.801556" lon="13.7410383"><ele>248.0</ele><time>2026-03-28T13:27:04.103Z</time></trkpt><trkpt lat="45.8015892" lon="13.7408859"><ele>248.8</ele><time>2026-03-28T13:27:05.096Z</time></trkpt><trkpt lat="45.8016304" lon="13.7407394"><ele>249.60000000000002</ele><time>2026-03-28T13:27:06.113Z</time></trkpt><trkpt lat="45.8016827" lon="13.7406041"><ele>250.39999999999998</ele><time>2026-03-28T13:27:07.113Z</time></trkpt><trkpt lat="45.8017332" lon="13.7404598"><ele>251.2</ele><time>2026-03-28T13:27:08.123Z</time></trkpt><trkpt lat="45.8017759" lon="13.7403062"><ele>252.0</ele><time>2026-03-28T13:27:09.11Z</time></trkpt><trkpt lat="45.8018033" lon="13.7401424"><ele>251.8</ele><time>2026-03-28T13:27:10.116Z</time></trkpt><trkpt lat="45.8018103" lon="13.7399676"><ele>251.6</ele><time>2026-03-28T13:27:11.109Z</time></trkpt><trkpt lat="45.8018037" lon="13.7398002"><ele>251.40000000000003</ele><time>2026-03-28T13:27:12.104Z</time></trkpt><trkpt lat="45.8018097" lon="13.739664"><ele>251.20000000000002</ele><time>2026-03-28T13:27:13.119Z</time></trkpt><trkpt lat="45.8018367" lon="13.7395397"><ele>251.0</ele><time>2026-03-28T13:27:14.12Z</time></trkpt><trkpt lat="45.8018686" lon="13.7394154"><ele>250.8</ele><time>2026-03-28T13:27:15.094Z</time></trkpt><trkpt lat="45.8019102" lon="13.7392867"><ele>250.60000000000002</ele><time>2026-03-28T13:27:16.122Z</time></trkpt><trkpt lat="45.8019389" lon="13.739158"><ele>250.4</ele><time>2026-03-28T13:27:17.111Z</time></trkpt><trkpt lat="45.801952" lon="13.7390344"><ele>250.2</ele><time>2026-03-28T13:27:18.114Z</time></trkpt><trkpt lat="45.8019465" lon="13.7389039"><ele>250.0</ele><time>2026-03-28T13:27:19.117Z</time></trkpt><trkpt lat="45.8019372" lon="13.7387818"><ele>249.99999999999997</ele><time>2026-03-28T13:27:20.106Z</time></trkpt><trkpt lat="45.801938" lon="13.7386629"><ele>250.0</ele><time>2026-03-28T13:27:21.123Z</time></trkpt><trkpt lat="45.8019524" lon="13.7385461"><ele>250.0</ele><time>2026-03-28T13:27:22.117Z</time></trkpt><trkpt lat="45.801969" lon="13.7384266"><ele>250.0</ele><time>2026-03-28T13:27:23.106Z</time></trkpt><trkpt lat="45.8020003" lon="13.7383016"><ele>249.99999999999997</ele><time>2026-03-28T13:27:24.117Z</time></trkpt><trkpt lat="45.8020432" lon="13.7381699"><ele>250.0</ele><time>2026-03-28T13:27:25.112Z</time></trkpt><trkpt lat="45.8021004" lon="13.7380271"><ele>250.75</ele><time>2026-03-28T13:27:26.131Z</time></trkpt><trkpt lat="45.8021696" lon="13.7378796"><ele>251.5</ele><time>2026-03-28T13:27:27.106Z</time></trkpt><trkpt lat="45.8022422" lon="13.7377272"><ele>252.25</ele><time>2026-03-28T13:27:28.107Z</time></trkpt><trkpt lat="45.8023174" lon="13.7375712"><ele>253.0</ele><time>2026-03-28T13:27:29.107Z</time></trkpt><trkpt lat="45.8023898" lon="13.7374099"><ele>254.5</ele><time>2026-03-28T13:27:30.119Z</time></trkpt><trkpt lat="45.8024635" lon="13.7372507"><ele>256.0</ele><time>2026-03-28T13:27:31.102Z</time></trkpt><trkpt lat="45.8025309" lon="13.7370987"><ele>257.5</ele><time>2026-03-28T13:27:32.115Z</time></trkpt><trkpt lat="45.8026049" lon="13.7369683"><ele>259.0</ele><time>2026-03-28T13:27:33.118Z</time></trkpt><trkpt lat="45.8027034" lon="13.7368394"><ele>259.0</ele><time>2026-03-28T13:27:34.117Z</time></trkpt><trkpt lat="45.8028232" lon="13.7367124"><ele>259.0</ele><time>2026-03-28T13:27:35.118Z</time></trkpt><trkpt lat="45.8029424" lon="13.7365719"><ele>259.0</ele><time>2026-03-28T13:27:36.121Z</time></trkpt><trkpt lat="45.8030516" lon="13.7364285"><ele>259.0</ele><time>2026-03-28T13:27:37.127Z</time></trkpt><trkpt lat="45.8031504" lon="13.7362807"><ele>259.0</ele><time>2026-03-28T13:27:38.131Z</time></trkpt><trkpt lat="45.8032511" lon="13.7361291"><ele>259.0</ele><time>2026-03-28T13:27:39.106Z</time></trkpt><trkpt lat="45.8033598" lon="13.7359799"><ele>259.0</ele><time>2026-03-28T13:27:40.111Z</time></trkpt><trkpt lat="45.8034776" lon="13.7358428"><ele>259.0</ele><time>2026-03-28T13:27:41.112Z</time></trkpt><trkpt lat="45.8035955" lon="13.7356845"><ele>259.0</ele><time>2026-03-28T13:27:42.111Z</time></trkpt><trkpt lat="45.8037044" lon="13.7355293"><ele>259.0</ele><time>2026-03-28T13:27:43.114Z</time></trkpt><trkpt lat="45.8038111" lon="13.7353836"><ele>259.0</ele><time>2026-03-28T13:27:44.119Z</time></trkpt><trkpt lat="45.8039059" lon="13.7352457"><ele>259.0</ele><time>2026-03-28T13:27:45.105Z</time></trkpt><trkpt lat="45.8039859" lon="13.7350784"><ele>259.0</ele><time>2026-03-28T13:27:46.117Z</time></trkpt><trkpt lat="45.8040544" lon="13.734888"><ele>259.0</ele><time>2026-03-28T13:27:47.105Z</time></trkpt><trkpt lat="45.8041255" lon="13.7346927"><ele>257.66666666666663</ele><time>2026-03-28T13:27:48.111Z</time></trkpt><trkpt lat="45.8042036" lon="13.7344919"><ele>256.3333333333333</ele><time>2026-03-28T13:27:49.1Z</time></trkpt><trkpt lat="45.804283" lon="13.7342881"><ele>255.0</ele><time>2026-03-28T13:27:50.112Z</time></trkpt><trkpt lat="45.8043586" lon="13.7340794"><ele>254.75</ele><time>2026-03-28T13:27:51.102Z</time></trkpt><trkpt lat="45.8044296" lon="13.7338778"><ele>254.5</ele><time>2026-03-28T13:27:52.107Z</time></trkpt><trkpt lat="45.8045013" lon="13.7336892"><ele>254.25</ele><time>2026-03-28T13:27:53.107Z</time></trkpt><trkpt lat="45.8045713" lon="13.733516"><ele>254.0</ele><time>2026-03-28T13:27:54.116Z</time></trkpt><trkpt lat="45.8046467" lon="13.7333621"><ele>254.0</ele><time>2026-03-28T13:27:55.107Z</time></trkpt><trkpt lat="45.8047406" lon="13.7332297"><ele>254.0</ele><time>2026-03-28T13:27:56.111Z</time></trkpt><trkpt lat="45.8048448" lon="13.7331048"><ele>254.0</ele><time>2026-03-28T13:27:57.11Z</time></trkpt><trkpt lat="45.8049484" lon="13.7329843"><ele>254.0</ele><time>2026-03-28T13:27:58.112Z</time></trkpt><trkpt lat="45.8050522" lon="13.7328858"><ele>254.0</ele><time>2026-03-28T13:27:59.101Z</time></trkpt><trkpt lat="45.8051582" lon="13.7327871"><ele>254.0</ele><time>2026-03-28T13:28:00.112Z</time></trkpt><trkpt lat="45.8052671" lon="13.7327066"><ele>254.0</ele><time>2026-03-28T13:28:01.106Z</time></trkpt><trkpt lat="45.8053893" lon="13.7326385"><ele>254.0</ele><time>2026-03-28T13:28:02.111Z</time></trkpt><trkpt lat="45.8055197" lon="13.7325748"><ele>252.75</ele><time>2026-03-28T13:28:03.107Z</time></trkpt><trkpt lat="45.8056506" lon="13.73252"><ele>251.5</ele><time>2026-03-28T13:28:04.113Z</time></trkpt><trkpt lat="45.8057883" lon="13.7324815"><ele>250.25</ele><time>2026-03-28T13:28:05.12Z</time></trkpt><trkpt lat="45.8059186" lon="13.7324444"><ele>249.0</ele><time>2026-03-28T13:28:06.122Z</time></trkpt><trkpt lat="45.8060453" lon="13.7323862"><ele>248.5</ele><time>2026-03-28T13:28:07.123Z</time></trkpt><trkpt lat="45.8061516" lon="13.7322944"><ele>248.0</ele><time>2026-03-28T13:28:08.124Z</time></trkpt><trkpt lat="45.8062459" lon="13.732191"><ele>247.5</ele><time>2026-03-28T13:28:09.107Z</time></trkpt><trkpt lat="45.8063402" lon="13.7320707"><ele>247.0</ele><time>2026-03-28T13:28:10.129Z</time></trkpt><trkpt lat="45.806441" lon="13.7319621"><ele>247.0</ele><time>2026-03-28T13:28:11.109Z</time></trkpt><trkpt lat="45.806555" lon="13.7318779"><ele>247.0</ele><time>2026-03-28T13:28:12.123Z</time></trkpt><trkpt lat="45.8066753" lon="13.7318198"><ele>247.0</ele><time>2026-03-28T13:28:13.098Z</time></trkpt><trkpt lat="45.8067949" lon="13.7317651"><ele>247.0</ele><time>2026-03-28T13:28:14.124Z</time></trkpt><trkpt lat="45.806918" lon="13.7317154"><ele>246.0</ele><time>2026-03-28T13:28:15.112Z</time></trkpt><trkpt lat="45.8070444" lon="13.7316701"><ele>245.0</ele><time>2026-03-28T13:28:16.116Z</time></trkpt><trkpt lat="45.8071651" lon="13.7316392"><ele>244.0</ele><time>2026-03-28T13:28:17.117Z</time></trkpt><trkpt lat="45.8072816" lon="13.7315955"><ele>243.0</ele><time>2026-03-28T13:28:18.123Z</time></trkpt><trkpt lat="45.8073763" lon="13.7315245"><ele>243.0</ele><time>2026-03-28T13:28:19.112Z</time></trkpt><trkpt lat="45.8074674" lon="13.7314125"><ele>243.0</ele><time>2026-03-28T13:28:20.116Z</time></trkpt><trkpt lat="45.8075556" lon="13.7312897"><ele>243.0</ele><time>2026-03-28T13:28:21.106Z</time></trkpt><trkpt lat="45.807644" lon="13.731148"><ele>243.0</ele><time>2026-03-28T13:28:22.114Z</time></trkpt><trkpt lat="45.8077482" lon="13.73103"><ele>242.75</ele><time>2026-03-28T13:28:23.113Z</time></trkpt><trkpt lat="45.8078669" lon="13.7309359"><ele>242.5</ele><time>2026-03-28T13:28:24.106Z</time></trkpt><trkpt lat="45.8079882" lon="13.7308572"><ele>242.25</ele><time>2026-03-28T13:28:25.108Z</time></trkpt><trkpt lat="45.8080996" lon="13.7307729"><ele>242.0</ele><time>2026-03-28T13:28:26.112Z</time></trkpt><trkpt lat="45.8082024" lon="13.7306707"><ele>242.0</ele><time>2026-03-28T13:28:27.105Z</time></trkpt><trkpt lat="45.808287" lon="13.7305369"><ele>242.0</ele><time>2026-03-28T13:28:28.114Z</time></trkpt><trkpt lat="45.8083582" lon="13.7303794"><ele>242.0</ele><time>2026-03-28T13:28:29.1Z</time></trkpt><trkpt lat="45.8084506" lon="13.7302313"><ele>242.0</ele><time>2026-03-28T13:28:30.12Z</time></trkpt><trkpt lat="45.8085522" lon="13.7300984"><ele>242.25</ele><time>2026-03-28T13:28:31.11Z</time></trkpt><trkpt lat="45.8086581" lon="13.7299667"><ele>242.5</ele><time>2026-03-28T13:28:32.119Z</time></trkpt><trkpt lat="45.808762" lon="13.7298243"><ele>242.75</ele><time>2026-03-28T13:28:33.115Z</time></trkpt><trkpt lat="45.8088602" lon="13.7296719"><ele>243.0</ele><time>2026-03-28T13:28:34.105Z</time></trkpt><trkpt lat="45.8089441" lon="13.729516"><ele>243.0</ele><time>2026-03-28T13:28:35.105Z</time></trkpt><trkpt lat="45.8090228" lon="13.7293678"><ele>243.0</ele><time>2026-03-28T13:28:36.119Z</time></trkpt><trkpt lat="45.8091065" lon="13.7292637"><ele>243.0</ele><time>2026-03-28T13:28:37.116Z</time></trkpt><trkpt lat="45.8091921" lon="13.7291779"><ele>243.0</ele><time>2026-03-28T13:28:38.108Z</time></trkpt><trkpt lat="45.8092951" lon="13.7291092"><ele>243.5</ele><time>2026-03-28T13:28:39.114Z</time></trkpt><trkpt lat="45.80941" lon="13.7290578"><ele>244.0</ele><time>2026-03-28T13:28:40.122Z</time></trkpt><trkpt lat="45.8095262" lon="13.7290132"><ele>244.5</ele><time>2026-03-28T13:28:41.121Z</time></trkpt><trkpt lat="45.8096542" lon="13.7289645"><ele>245.0</ele><time>2026-03-28T13:28:42.135Z</time></trkpt><trkpt lat="45.8097882" lon="13.7289008"><ele>245.0</ele><time>2026-03-28T13:28:43.111Z</time></trkpt><trkpt lat="45.8099244" lon="13.7288293"><ele>245.0</ele><time>2026-03-28T13:28:44.115Z</time></trkpt><trkpt lat="45.8100576" lon="13.7287615"><ele>245.0</ele><time>2026-03-28T13:28:45.099Z</time></trkpt><trkpt lat="45.8101772" lon="13.7287074"><ele>245.0</ele><time>2026-03-28T13:28:46.102Z</time></trkpt><trkpt lat="45.8102746" lon="13.7286828"><ele>245.83333333333334</ele><time>2026-03-28T13:28:47.107Z</time></trkpt><trkpt lat="45.8103434" lon="13.7286998"><ele>246.66666666666669</ele><time>2026-03-28T13:28:48.112Z</time></trkpt><trkpt lat="45.8104186" lon="13.728748"><ele>247.5</ele><time>2026-03-28T13:28:49.089Z</time></trkpt><trkpt lat="45.8104835" lon="13.7288024"><ele>248.33333333333331</ele><time>2026-03-28T13:28:50.09Z</time></trkpt><trkpt lat="45.8105427" lon="13.7288524"><ele>249.16666666666666</ele><time>2026-03-28T13:28:51.114Z</time></trkpt><trkpt lat="45.8106014" lon="13.7289303"><ele>250.0</ele><time>2026-03-28T13:28:52.108Z</time></trkpt><trkpt lat="45.8106668" lon="13.7290396"><ele>249.99999999999997</ele><time>2026-03-28T13:28:53.116Z</time></trkpt><trkpt lat="45.8107405" lon="13.7291323"><ele>250.0</ele><time>2026-03-28T13:28:54.102Z</time></trkpt><trkpt lat="45.8108119" lon="13.7291854"><ele>250.0</ele><time>2026-03-28T13:28:55.106Z</time></trkpt><trkpt lat="45.8109283" lon="13.7292021"><ele>250.0</ele><time>2026-03-28T13:28:57.092Z</time></trkpt><trkpt lat="45.8109919" lon="13.7291764"><ele>249.99999999999997</ele><time>2026-03-28T13:28:58.099Z</time></trkpt><trkpt lat="45.8110688" lon="13.7291478"><ele>250.0</ele><time>2026-03-28T13:28:59.12Z</time></trkpt><trkpt lat="45.8111767" lon="13.7291016"><ele>252.0</ele><time>2026-03-28T13:29:00.11Z</time></trkpt><trkpt lat="45.8113058" lon="13.7290703"><ele>254.0</ele><time>2026-03-28T13:29:01.122Z</time></trkpt><trkpt lat="45.8114292" lon="13.7290301"><ele>256.0</ele><time>2026-03-28T13:29:02.109Z</time></trkpt><trkpt lat="45.8115311" lon="13.7289764"><ele>258.0</ele><time>2026-03-28T13:29:03.114Z</time></trkpt><trkpt lat="45.8116114" lon="13.7288829"><ele>258.0</ele><time>2026-03-28T13:29:04.108Z</time></trkpt><trkpt lat="45.8116741" lon="13.7287296"><ele>258.0</ele><time>2026-03-28T13:29:05.086Z</time></trkpt><trkpt lat="45.8117451" lon="13.7285904"><ele>258.0</ele><time>2026-03-28T13:29:06.088Z</time></trkpt><trkpt lat="45.811831" lon="13.728455"><ele>258.0</ele><time>2026-03-28T13:29:07.105Z</time></trkpt><trkpt lat="45.8119167" lon="13.7283103"><ele>258.25</ele><time>2026-03-28T13:29:08.099Z</time></trkpt><trkpt lat="45.811995" lon="13.7281563"><ele>258.5</ele><time>2026-03-28T13:29:09.115Z</time></trkpt><trkpt lat="45.8120709" lon="13.7279984"><ele>258.75</ele><time>2026-03-28T13:29:10.101Z</time></trkpt><trkpt lat="45.8121626" lon="13.7278539"><ele>259.0</ele><time>2026-03-28T13:29:11.103Z</time></trkpt><trkpt lat="45.8122649" lon="13.7277157"><ele>259.0</ele><time>2026-03-28T13:29:12.134Z</time></trkpt><trkpt lat="45.812366" lon="13.7275714"><ele>259.0</ele><time>2026-03-28T13:29:13.107Z</time></trkpt><trkpt lat="45.812462" lon="13.7274285"><ele>259.0</ele><time>2026-03-28T13:29:14.098Z</time></trkpt><trkpt lat="45.8125546" lon="13.7272881"><ele>259.0</ele><time>2026-03-28T13:29:15.115Z</time></trkpt><trkpt lat="45.8126469" lon="13.7271567"><ele>257.25</ele><time>2026-03-28T13:29:16.119Z</time></trkpt><trkpt lat="45.8127468" lon="13.7270339"><ele>255.5</ele><time>2026-03-28T13:29:17.113Z</time></trkpt><trkpt lat="45.8128476" lon="13.7269195"><ele>253.75</ele><time>2026-03-28T13:29:18.136Z</time></trkpt><trkpt lat="45.8129559" lon="13.7268209"><ele>252.0</ele><time>2026-03-28T13:29:19.112Z</time></trkpt><trkpt lat="45.8130636" lon="13.7267311"><ele>251.75</ele><time>2026-03-28T13:29:20.119Z</time></trkpt><trkpt lat="45.8131783" lon="13.7266298"><ele>251.5</ele><time>2026-03-28T13:29:21.117Z</time></trkpt><trkpt lat="45.8132938" lon="13.7265216"><ele>251.25</ele><time>2026-03-28T13:29:22.117Z</time></trkpt><trkpt lat="45.81341" lon="13.7264217"><ele>251.0</ele><time>2026-03-28T13:29:23.122Z</time></trkpt><trkpt lat="45.8135305" lon="13.7263313"><ele>251.75</ele><time>2026-03-28T13:29:24.112Z</time></trkpt><trkpt lat="45.8136487" lon="13.7262584"><ele>252.5</ele><time>2026-03-28T13:29:25.113Z</time></trkpt><trkpt lat="45.8137599" lon="13.7261924"><ele>253.25</ele><time>2026-03-28T13:29:26.114Z</time></trkpt><trkpt lat="45.8138722" lon="13.7261288"><ele>254.0</ele><time>2026-03-28T13:29:27.112Z</time></trkpt><trkpt lat="45.813986" lon="13.7260827"><ele>254.25</ele><time>2026-03-28T13:29:28.117Z</time></trkpt><trkpt lat="45.8141048" lon="13.7260587"><ele>254.5</ele><time>2026-03-28T13:29:29.098Z</time></trkpt><trkpt lat="45.8142221" lon="13.7260456"><ele>254.75</ele><time>2026-03-28T13:29:30.112Z</time></trkpt><trkpt lat="45.8143429" lon="13.7260292"><ele>255.0</ele><time>2026-03-28T13:29:31.111Z</time></trkpt><trkpt lat="45.8144632" lon="13.7259977"><ele>255.75</ele><time>2026-03-28T13:29:32.109Z</time></trkpt><trkpt lat="45.8145853" lon="13.7259604"><ele>256.5</ele><time>2026-03-28T13:29:33.105Z</time></trkpt><trkpt lat="45.814702" lon="13.725924"><ele>257.25</ele><time>2026-03-28T13:29:34.106Z</time></trkpt><trkpt lat="45.8148131" lon="13.7259095"><ele>258.0</ele><time>2026-03-28T13:29:35.105Z</time></trkpt><trkpt lat="45.8149209" lon="13.7258998"><ele>258.0</ele><time>2026-03-28T13:29:36.117Z</time></trkpt><trkpt lat="45.8150183" lon="13.725855"><ele>258.0</ele><time>2026-03-28T13:29:37.109Z</time></trkpt><trkpt lat="45.8151111" lon="13.7257624"><ele>258.0</ele><time>2026-03-28T13:29:38.089Z</time></trkpt><trkpt lat="45.8152026" lon="13.725657"><ele>258.0</ele><time>2026-03-28T13:29:39.086Z</time></trkpt><trkpt lat="45.815301" lon="13.7255461"><ele>259.25</ele><time>2026-03-28T13:29:40.105Z</time></trkpt><trkpt lat="45.8153954" lon="13.7254353"><ele>260.5</ele><time>2026-03-28T13:29:41.102Z</time></trkpt><trkpt lat="45.8154959" lon="13.7253207"><ele>261.75</ele><time>2026-03-28T13:29:42.106Z</time></trkpt><trkpt lat="45.8155938" lon="13.7252157"><ele>263.0</ele><time>2026-03-28T13:29:43.123Z</time></trkpt><trkpt lat="45.8156895" lon="13.7251416"><ele>263.0</ele><time>2026-03-28T13:29:44.098Z</time></trkpt><trkpt lat="45.8157848" lon="13.7251005"><ele>263.0</ele><time>2026-03-28T13:29:45.101Z</time></trkpt><trkpt lat="45.8158957" lon="13.7250829"><ele>263.0</ele><time>2026-03-28T13:29:46.105Z</time></trkpt><trkpt lat="45.8160122" lon="13.72507"><ele>263.0</ele><time>2026-03-28T13:29:47.108Z</time></trkpt><trkpt lat="45.8161357" lon="13.7250533"><ele>264.2</ele><time>2026-03-28T13:29:48.116Z</time></trkpt><trkpt lat="45.8162594" lon="13.7250342"><ele>265.4</ele><time>2026-03-28T13:29:49.114Z</time></trkpt><trkpt lat="45.8163772" lon="13.7250223"><ele>266.59999999999997</ele><time>2026-03-28T13:29:50.113Z</time></trkpt><trkpt lat="45.8164803" lon="13.7250183"><ele>267.8</ele><time>2026-03-28T13:29:51.114Z</time></trkpt><trkpt lat="45.816574" lon="13.7250101"><ele>269.0</ele><time>2026-03-28T13:29:52.11Z</time></trkpt><trkpt lat="45.8166525" lon="13.7250073"><ele>269.0</ele><time>2026-03-28T13:29:53.127Z</time></trkpt><trkpt lat="45.8167578" lon="13.7250679"><ele>269.0</ele><time>2026-03-28T13:29:55.086Z</time></trkpt><trkpt lat="45.8167945" lon="13.725156"><ele>269.0</ele><time>2026-03-28T13:29:56.087Z</time></trkpt><trkpt lat="45.8168211" lon="13.7252733"><ele>269.0</ele><time>2026-03-28T13:29:57.087Z</time></trkpt><trkpt lat="45.8168559" lon="13.7253976"><ele>269.0</ele><time>2026-03-28T13:29:58.098Z</time></trkpt><trkpt lat="45.8169062" lon="13.7255257"><ele>269.0</ele><time>2026-03-28T13:29:59.095Z</time></trkpt><trkpt lat="45.8169622" lon="13.7256717"><ele>269.0</ele><time>2026-03-28T13:30:00.102Z</time></trkpt><trkpt lat="45.8170195" lon="13.7258297"><ele>269.0</ele><time>2026-03-28T13:30:01.095Z</time></trkpt><trkpt lat="45.817082" lon="13.7259993"><ele>269.0</ele><time>2026-03-28T13:30:02.1Z</time></trkpt><trkpt lat="45.8171431" lon="13.7261788"><ele>269.0</ele><time>2026-03-28T13:30:03.09Z</time></trkpt><trkpt lat="45.8172063" lon="13.7263671"><ele>269.0</ele><time>2026-03-28T13:30:04.094Z</time></trkpt><trkpt lat="45.8172753" lon="13.726555"><ele>269.0</ele><time>2026-03-28T13:30:05.087Z</time></trkpt><trkpt lat="45.8173532" lon="13.7267394"><ele>269.0</ele><time>2026-03-28T13:30:06.097Z</time></trkpt><trkpt lat="45.8174423" lon="13.7269157"><ele>268.6666666666667</ele><time>2026-03-28T13:30:07.099Z</time></trkpt><trkpt lat="45.8175478" lon="13.7270877"><ele>268.3333333333333</ele><time>2026-03-28T13:30:08.101Z</time></trkpt><trkpt lat="45.8176572" lon="13.7272564"><ele>268.0</ele><time>2026-03-28T13:30:09.096Z</time></trkpt><trkpt lat="45.8177491" lon="13.7274313"><ele>268.0</ele><time>2026-03-28T13:30:10.098Z</time></trkpt><trkpt lat="45.8178086" lon="13.7276287"><ele>268.0</ele><time>2026-03-28T13:30:11.099Z</time></trkpt><trkpt lat="45.8178469" lon="13.727841"><ele>268.0</ele><time>2026-03-28T13:30:12.094Z</time></trkpt><trkpt lat="45.8178989" lon="13.7280503"><ele>268.0</ele><time>2026-03-28T13:30:13.125Z</time></trkpt><trkpt lat="45.8179716" lon="13.728245"><ele>268.0</ele><time>2026-03-28T13:30:14.1Z</time></trkpt><trkpt lat="45.8180435" lon="13.7284359"><ele>268.0</ele><time>2026-03-28T13:30:15.101Z</time></trkpt><trkpt lat="45.8180894" lon="13.7286152"><ele>268.0</ele><time>2026-03-28T13:30:16.106Z</time></trkpt><trkpt lat="45.8181085" lon="13.7287958"><ele>268.25</ele><time>2026-03-28T13:30:17.106Z</time></trkpt><trkpt lat="45.8180914" lon="13.7289728"><ele>268.5</ele><time>2026-03-28T13:30:18.099Z</time></trkpt><trkpt lat="45.8180839" lon="13.7291523"><ele>268.75</ele><time>2026-03-28T13:30:19.084Z</time></trkpt><trkpt lat="45.8181073" lon="13.7293171"><ele>269.0</ele><time>2026-03-28T13:30:20.1Z</time></trkpt><trkpt lat="45.8181268" lon="13.7294829"><ele>269.8</ele><time>2026-03-28T13:30:21.111Z</time></trkpt><trkpt lat="45.8180959" lon="13.7296129"><ele>270.59999999999997</ele><time>2026-03-28T13:30:22.101Z</time></trkpt><trkpt lat="45.8180421" lon="13.7297315"><ele>271.4</ele><time>2026-03-28T13:30:23.077Z</time></trkpt><trkpt lat="45.8179644" lon="13.7298296"><ele>272.2</ele><time>2026-03-28T13:30:24.085Z</time></trkpt><trkpt lat="45.8178935" lon="13.7299415"><ele>273.0</ele><time>2026-03-28T13:30:25.083Z</time></trkpt><trkpt lat="45.8178525" lon="13.7300994"><ele>273.25</ele><time>2026-03-28T13:30:26.102Z</time></trkpt><trkpt lat="45.8178224" lon="13.7302892"><ele>273.5</ele><time>2026-03-28T13:30:27.081Z</time></trkpt><trkpt lat="45.8177846" lon="13.7304812"><ele>273.75</ele><time>2026-03-28T13:30:28.094Z</time></trkpt><trkpt lat="45.81773" lon="13.7306728"><ele>274.0</ele><time>2026-03-28T13:30:29.097Z</time></trkpt><trkpt lat="45.8176619" lon="13.7308692"><ele>274.25</ele><time>2026-03-28T13:30:30.103Z</time></trkpt><trkpt lat="45.8175952" lon="13.7310566"><ele>274.5</ele><time>2026-03-28T13:30:31.087Z</time></trkpt><trkpt lat="45.8175228" lon="13.7312432"><ele>274.75</ele><time>2026-03-28T13:30:32.117Z</time></trkpt><trkpt lat="45.8174491" lon="13.731435"><ele>275.0</ele><time>2026-03-28T13:30:33.102Z</time></trkpt><trkpt lat="45.8173802" lon="13.73163"><ele>275.0</ele><time>2026-03-28T13:30:34.097Z</time></trkpt><trkpt lat="45.8173437" lon="13.7318509"><ele>275.0</ele><time>2026-03-28T13:30:35.1Z</time></trkpt><trkpt lat="45.817333" lon="13.7320809"><ele>275.0</ele><time>2026-03-28T13:30:36.1Z</time></trkpt><trkpt lat="45.8173436" lon="13.7323107"><ele>275.6666666666667</ele><time>2026-03-28T13:30:37.094Z</time></trkpt><trkpt lat="45.8173594" lon="13.7325464"><ele>276.3333333333333</ele><time>2026-03-28T13:30:38.104Z</time></trkpt><trkpt lat="45.8173812" lon="13.7327765"><ele>277.0</ele><time>2026-03-28T13:30:39.097Z</time></trkpt><trkpt lat="45.8174079" lon="13.733007"><ele>277.66666666666663</ele><time>2026-03-28T13:30:40.128Z</time></trkpt><trkpt lat="45.8174439" lon="13.7332344"><ele>278.3333333333333</ele><time>2026-03-28T13:30:41.104Z</time></trkpt><trkpt lat="45.8174745" lon="13.7334677"><ele>279.0</ele><time>2026-03-28T13:30:42.11Z</time></trkpt><trkpt lat="45.8175051" lon="13.733701"><ele>279.0</ele><time>2026-03-28T13:30:43.098Z</time></trkpt><trkpt lat="45.8175293" lon="13.7339341"><ele>279.0</ele><time>2026-03-28T13:30:44.097Z</time></trkpt><trkpt lat="45.8175564" lon="13.7341663"><ele>279.0</ele><time>2026-03-28T13:30:45.094Z</time></trkpt><trkpt lat="45.8175795" lon="13.7343871"><ele>280.0</ele><time>2026-03-28T13:30:46.095Z</time></trkpt><trkpt lat="45.8176002" lon="13.7345958"><ele>281.0</ele><time>2026-03-28T13:30:47.096Z</time></trkpt><trkpt lat="45.8176284" lon="13.7347903"><ele>282.0</ele><time>2026-03-28T13:30:48.099Z</time></trkpt><trkpt lat="45.8176679" lon="13.7349734"><ele>283.0</ele><time>2026-03-28T13:30:49.101Z</time></trkpt><trkpt lat="45.8177122" lon="13.7351568"><ele>284.25</ele><time>2026-03-28T13:30:50.1Z</time></trkpt><trkpt lat="45.8177526" lon="13.7353418"><ele>285.5</ele><time>2026-03-28T13:30:51.097Z</time></trkpt><trkpt lat="45.8177849" lon="13.7355298"><ele>286.75</ele><time>2026-03-28T13:30:52.084Z</time></trkpt><trkpt lat="45.8178053" lon="13.7357231"><ele>288.0</ele><time>2026-03-28T13:30:53.084Z</time></trkpt><trkpt lat="45.8178123" lon="13.7359245"><ele>288.25</ele><time>2026-03-28T13:30:54.084Z</time></trkpt><trkpt lat="45.8178007" lon="13.7361301"><ele>288.5</ele><time>2026-03-28T13:30:55.093Z</time></trkpt><trkpt lat="45.8177745" lon="13.7363423"><ele>288.75</ele><time>2026-03-28T13:30:56.092Z</time></trkpt><trkpt lat="45.8177534" lon="13.736543"><ele>289.0</ele><time>2026-03-28T13:30:57.091Z</time></trkpt><trkpt lat="45.8177473" lon="13.7367514"><ele>288.25</ele><time>2026-03-28T13:30:58.111Z</time></trkpt><trkpt lat="45.8177514" lon="13.736968"><ele>287.5</ele><time>2026-03-28T13:30:59.101Z</time></trkpt><trkpt lat="45.8177695" lon="13.7371753"><ele>286.75</ele><time>2026-03-28T13:31:00.116Z</time></trkpt><trkpt lat="45.8177896" lon="13.7373614"><ele>286.0</ele><time>2026-03-28T13:31:01.109Z</time></trkpt><trkpt lat="45.8177976" lon="13.7375416"><ele>286.0</ele><time>2026-03-28T13:31:02.107Z</time></trkpt><trkpt lat="45.8177903" lon="13.7377156"><ele>286.0</ele><time>2026-03-28T13:31:03.109Z</time></trkpt><trkpt lat="45.8177527" lon="13.7378932"><ele>286.0</ele><time>2026-03-28T13:31:04.111Z</time></trkpt><trkpt lat="45.8176871" lon="13.7380533"><ele>286.0</ele><time>2026-03-28T13:31:05.085Z</time></trkpt><trkpt lat="45.817599" lon="13.7381903"><ele>285.0</ele><time>2026-03-28T13:31:06.099Z</time></trkpt><trkpt lat="45.8175127" lon="13.7383202"><ele>284.0</ele><time>2026-03-28T13:31:07.109Z</time></trkpt><trkpt lat="45.817447" lon="13.7384601"><ele>283.0</ele><time>2026-03-28T13:31:08.102Z</time></trkpt><trkpt lat="45.8174163" lon="13.7386154"><ele>282.0</ele><time>2026-03-28T13:31:09.132Z</time></trkpt><trkpt lat="45.8174112" lon="13.7388054"><ele>282.0</ele><time>2026-03-28T13:31:10.09Z</time></trkpt><trkpt lat="45.8174255" lon="13.7390024"><ele>282.0</ele><time>2026-03-28T13:31:11.1Z</time></trkpt><trkpt lat="45.8174476" lon="13.7392127"><ele>282.0</ele><time>2026-03-28T13:31:12.106Z</time></trkpt><trkpt lat="45.8174826" lon="13.7394314"><ele>282.0</ele><time>2026-03-28T13:31:13.105Z</time></trkpt><trkpt lat="45.8175295" lon="13.7396535"><ele>282.3333333333333</ele><time>2026-03-28T13:31:14.114Z</time></trkpt><trkpt lat="45.8175844" lon="13.7398971"><ele>282.66666666666663</ele><time>2026-03-28T13:31:15.099Z</time></trkpt><trkpt lat="45.8176555" lon="13.7401556"><ele>283.0</ele><time>2026-03-28T13:31:16.103Z</time></trkpt><trkpt lat="45.817723" lon="13.740411"><ele>285.0</ele><time>2026-03-28T13:31:17.097Z</time></trkpt><trkpt lat="45.8177837" lon="13.7406431"><ele>287.0</ele><time>2026-03-28T13:31:18.103Z</time></trkpt><trkpt lat="45.817838" lon="13.7408601"><ele>289.0</ele><time>2026-03-28T13:31:19.096Z</time></trkpt><trkpt lat="45.817877" lon="13.7410628"><ele>289.66666666666663</ele><time>2026-03-28T13:31:20.11Z</time></trkpt><trkpt lat="45.8178808" lon="13.741274"><ele>290.3333333333333</ele><time>2026-03-28T13:31:21.11Z</time></trkpt><trkpt lat="45.8178504" lon="13.7414999"><ele>291.0</ele><time>2026-03-28T13:31:22.096Z</time></trkpt><trkpt lat="45.8178236" lon="13.741714"><ele>291.25</ele><time>2026-03-28T13:31:23.116Z</time></trkpt><trkpt lat="45.8178184" lon="13.7419167"><ele>291.5</ele><time>2026-03-28T13:31:24.103Z</time></trkpt><trkpt lat="45.8178438" lon="13.7421101"><ele>291.75</ele><time>2026-03-28T13:31:25.1Z</time></trkpt><trkpt lat="45.8178836" lon="13.7422887"><ele>292.0</ele><time>2026-03-28T13:31:26.088Z</time></trkpt><trkpt lat="45.8179061" lon="13.7424533"><ele>292.0</ele><time>2026-03-28T13:31:27.101Z</time></trkpt><trkpt lat="45.8178966" lon="13.7426109"><ele>292.0</ele><time>2026-03-28T13:31:28.099Z</time></trkpt><trkpt lat="45.8178484" lon="13.7427568"><ele>292.0</ele><time>2026-03-28T13:31:29.091Z</time></trkpt><trkpt lat="45.8177865" lon="13.7429235"><ele>292.0</ele><time>2026-03-28T13:31:30.083Z</time></trkpt><trkpt lat="45.8177347" lon="13.7430986"><ele>292.5</ele><time>2026-03-28T13:31:31.102Z</time></trkpt><trkpt lat="45.8176894" lon="13.7432747"><ele>293.0</ele><time>2026-03-28T13:31:32.094Z</time></trkpt><trkpt lat="45.8176462" lon="13.7434387"><ele>293.5</ele><time>2026-03-28T13:31:33.093Z</time></trkpt><trkpt lat="45.8176045" lon="13.7436029"><ele>294.0</ele><time>2026-03-28T13:31:34.094Z</time></trkpt><trkpt lat="45.8175652" lon="13.7437609"><ele>293.2</ele><time>2026-03-28T13:31:35.095Z</time></trkpt><trkpt lat="45.8175344" lon="13.7439075"><ele>292.4</ele><time>2026-03-28T13:31:36.115Z</time></trkpt><trkpt lat="45.8175079" lon="13.7440311"><ele>291.6</ele><time>2026-03-28T13:31:37.105Z</time></trkpt><trkpt lat="45.8174865" lon="13.7441512"><ele>290.8</ele><time>2026-03-28T13:31:38.107Z</time></trkpt><trkpt lat="45.817462" lon="13.7442723"><ele>290.0</ele><time>2026-03-28T13:31:39.109Z</time></trkpt><trkpt lat="45.8174315" lon="13.7443883"><ele>290.0</ele><time>2026-03-28T13:31:40.098Z</time></trkpt><trkpt lat="45.8173793" lon="13.7444838"><ele>290.0</ele><time>2026-03-28T13:31:41.108Z</time></trkpt><trkpt lat="45.8173084" lon="13.7445597"><ele>290.0</ele><time>2026-03-28T13:31:42.098Z</time></trkpt><trkpt lat="45.8172239" lon="13.7446048"><ele>290.0</ele><time>2026-03-28T13:31:43.086Z</time></trkpt><trkpt lat="45.8171421" lon="13.7446344"><ele>290.0</ele><time>2026-03-28T13:31:44.098Z</time></trkpt><trkpt lat="45.8170696" lon="13.7446627"><ele>290.0</ele><time>2026-03-28T13:31:45.1Z</time></trkpt><trkpt lat="45.8169987" lon="13.7447051"><ele>290.0</ele><time>2026-03-28T13:31:46.126Z</time></trkpt><trkpt lat="45.8169341" lon="13.7447543"><ele>290.0</ele><time>2026-03-28T13:31:47.097Z</time></trkpt><trkpt lat="45.8168731" lon="13.7448032"><ele>290.0</ele><time>2026-03-28T13:31:48.103Z</time></trkpt><trkpt lat="45.8167847" lon="13.7449389"><ele>290.0</ele><time>2026-03-28T13:31:50.099Z</time></trkpt><trkpt lat="45.8167535" lon="13.7450984"><ele>290.0</ele><time>2026-03-28T13:31:52.105Z</time></trkpt><trkpt lat="45.8167361" lon="13.7452461"><ele>289.8</ele><time>2026-03-28T13:31:54.104Z</time></trkpt><trkpt lat="45.8167485" lon="13.7454074"><ele>289.6</ele><time>2026-03-28T13:31:56.107Z</time></trkpt><trkpt lat="45.8168253" lon="13.7455141"><ele>289.4</ele><time>2026-03-28T13:31:58.094Z</time></trkpt><trkpt lat="45.8169" lon="13.7454837"><ele>289.2</ele><time>2026-03-28T13:32:00.097Z</time></trkpt><trkpt lat="45.816915" lon="13.7453351"><ele>289.0</ele><time>2026-03-28T13:32:03.093Z</time></trkpt><trkpt lat="45.8168803" lon="13.7452545"><ele>289.0</ele><time>2026-03-28T13:36:33.112Z</time></trkpt><trkpt lat="45.8168286" lon="13.7451927"><ele>289.0</ele><time>2026-03-28T13:36:35.097Z</time></trkpt><trkpt lat="45.8167578" lon="13.7452009"><ele>289.0</ele><time>2026-03-28T13:36:39.092Z</time></trkpt><trkpt lat="45.8167627" lon="13.7453512"><ele>289.0</ele><time>2026-03-28T13:36:42.112Z</time></trkpt><trkpt lat="45.8167868" lon="13.7454413"><ele>289.0</ele><time>2026-03-28T13:36:43.101Z</time></trkpt><trkpt lat="45.8168245" lon="13.7455382"><ele>289.0</ele><time>2026-03-28T13:36:44.081Z</time></trkpt><trkpt lat="45.8168653" lon="13.7456433"><ele>289.0</ele><time>2026-03-28T13:36:45.1Z</time></trkpt><trkpt lat="45.816909" lon="13.7457636"><ele>289.0</ele><time>2026-03-28T13:36:46.098Z</time></trkpt><trkpt lat="45.8169597" lon="13.7458894"><ele>289.0</ele><time>2026-03-28T13:36:47.101Z</time></trkpt><trkpt lat="45.817017" lon="13.746026"><ele>289.0</ele><time>2026-03-28T13:36:48.119Z</time></trkpt><trkpt lat="45.817078" lon="13.7461788"><ele>289.0</ele><time>2026-03-28T13:36:49.104Z</time></trkpt><trkpt lat="45.8171452" lon="13.7463375"><ele>288.0</ele><time>2026-03-28T13:36:50.109Z</time></trkpt><trkpt lat="45.8172155" lon="13.7464994"><ele>287.0</ele><time>2026-03-28T13:36:51.113Z</time></trkpt><trkpt lat="45.8172881" lon="13.7466754"><ele>286.0</ele><time>2026-03-28T13:36:52.102Z</time></trkpt><trkpt lat="45.8173543" lon="13.7468424"><ele>285.0</ele><time>2026-03-28T13:36:53.108Z</time></trkpt><trkpt lat="45.8174133" lon="13.746992"><ele>285.0</ele><time>2026-03-28T13:36:54.077Z</time></trkpt><trkpt lat="45.817466" lon="13.7471256"><ele>285.0</ele><time>2026-03-28T13:36:55.084Z</time></trkpt><trkpt lat="45.8175093" lon="13.747257"><ele>285.0</ele><time>2026-03-28T13:36:56.097Z</time></trkpt><trkpt lat="45.8175462" lon="13.7473985"><ele>285.0</ele><time>2026-03-28T13:36:57.104Z</time></trkpt><trkpt lat="45.8175707" lon="13.747559"><ele>285.0</ele><time>2026-03-28T13:36:58.109Z</time></trkpt><trkpt lat="45.8175864" lon="13.7477378"><ele>285.25</ele><time>2026-03-28T13:36:59.095Z</time></trkpt><trkpt lat="45.8175839" lon="13.7479314"><ele>285.5</ele><time>2026-03-28T13:37:00.086Z</time></trkpt><trkpt lat="45.8175695" lon="13.7481159"><ele>285.75</ele><time>2026-03-28T13:37:01.098Z</time></trkpt><trkpt lat="45.8175482" lon="13.7482754"><ele>286.0</ele><time>2026-03-28T13:37:02.099Z</time></trkpt><trkpt lat="45.8175458" lon="13.7484315"><ele>286.2</ele><time>2026-03-28T13:37:03.096Z</time></trkpt><trkpt lat="45.8175684" lon="13.7485741"><ele>286.40000000000003</ele><time>2026-03-28T13:37:04.107Z</time></trkpt><trkpt lat="45.8176179" lon="13.7487003"><ele>286.6</ele><time>2026-03-28T13:37:05.082Z</time></trkpt><trkpt lat="45.8176899" lon="13.7488151"><ele>286.8</ele><time>2026-03-28T13:37:06.085Z</time></trkpt><trkpt lat="45.817778" lon="13.7489134"><ele>287.0</ele><time>2026-03-28T13:37:07.087Z</time></trkpt><trkpt lat="45.8178625" lon="13.7489965"><ele>288.2</ele><time>2026-03-28T13:37:08.087Z</time></trkpt><trkpt lat="45.8179227" lon="13.7490545"><ele>289.4</ele><time>2026-03-28T13:37:09.105Z</time></trkpt><trkpt lat="45.8179938" lon="13.7491562"><ele>290.6</ele><time>2026-03-28T13:37:11.11Z</time></trkpt><trkpt lat="45.8181336" lon="13.7492179"><ele>291.8</ele><time>2026-03-28T13:37:13.084Z</time></trkpt><trkpt lat="45.8182458" lon="13.7492605"><ele>293.0</ele><time>2026-03-28T13:37:14.111Z</time></trkpt><trkpt lat="45.8183929" lon="13.7493245"><ele>293.0</ele><time>2026-03-28T13:37:15.096Z</time></trkpt><trkpt lat="45.8185512" lon="13.749374"><ele>293.0</ele><time>2026-03-28T13:37:16.092Z</time></trkpt><trkpt lat="45.8187261" lon="13.7494105"><ele>293.0</ele><time>2026-03-28T13:37:17.099Z</time></trkpt><trkpt lat="45.8189102" lon="13.7494489"><ele>289.33333333333337</ele><time>2026-03-28T13:37:18.09Z</time></trkpt><trkpt lat="45.8190875" lon="13.7494696"><ele>285.6666666666667</ele><time>2026-03-28T13:37:19.081Z</time></trkpt><trkpt lat="45.8192659" lon="13.7494861"><ele>282.0</ele><time>2026-03-28T13:37:20.088Z</time></trkpt><trkpt lat="45.8194476" lon="13.7495013"><ele>280.6666666666667</ele><time>2026-03-28T13:37:21.102Z</time></trkpt><trkpt lat="45.8196262" lon="13.7495182"><ele>279.33333333333337</ele><time>2026-03-28T13:37:22.107Z</time></trkpt><trkpt lat="45.8198063" lon="13.7495581"><ele>278.0</ele><time>2026-03-28T13:37:23.12Z</time></trkpt><trkpt lat="45.8199743" lon="13.7496826"><ele>278.0</ele><time>2026-03-28T13:37:24.1Z</time></trkpt><trkpt lat="45.8201112" lon="13.7498396"><ele>278.0</ele><time>2026-03-28T13:37:25.074Z</time></trkpt><trkpt lat="45.820224" lon="13.7500166"><ele>278.0</ele><time>2026-03-28T13:37:26.085Z</time></trkpt><trkpt lat="45.8203034" lon="13.7501974"><ele>277.33333333333337</ele><time>2026-03-28T13:37:27.104Z</time></trkpt><trkpt lat="45.8203721" lon="13.750385"><ele>276.6666666666667</ele><time>2026-03-28T13:37:28.085Z</time></trkpt><trkpt lat="45.8204504" lon="13.7505902"><ele>276.0</ele><time>2026-03-28T13:37:29.091Z</time></trkpt><trkpt lat="45.8205477" lon="13.7507857"><ele>276.0</ele><time>2026-03-28T13:37:30.082Z</time></trkpt><trkpt lat="45.8206595" lon="13.7509701"><ele>276.0</ele><time>2026-03-28T13:37:31.083Z</time></trkpt><trkpt lat="45.8207945" lon="13.7511594"><ele>276.0</ele><time>2026-03-28T13:37:32.086Z</time></trkpt><trkpt lat="45.8209264" lon="13.7513348"><ele>275.25</ele><time>2026-03-28T13:37:33.075Z</time></trkpt><trkpt lat="45.8210395" lon="13.7515073"><ele>274.5</ele><time>2026-03-28T13:37:34.089Z</time></trkpt><trkpt lat="45.8211354" lon="13.7516745"><ele>273.75</ele><time>2026-03-28T13:37:35.089Z</time></trkpt><trkpt lat="45.8212049" lon="13.7518305"><ele>273.0</ele><time>2026-03-28T13:37:36.086Z</time></trkpt><trkpt lat="45.8212233" lon="13.7519791"><ele>272.5</ele><time>2026-03-28T13:37:37.089Z</time></trkpt><trkpt lat="45.8212205" lon="13.7521134"><ele>272.0</ele><time>2026-03-28T13:37:38.085Z</time></trkpt><trkpt lat="45.8212378" lon="13.7522258"><ele>271.5</ele><time>2026-03-28T13:37:39.081Z</time></trkpt><trkpt lat="45.8212888" lon="13.7522896"><ele>271.0</ele><time>2026-03-28T13:37:40.088Z</time></trkpt><trkpt lat="45.8213618" lon="13.7523104"><ele>270.5</ele><time>2026-03-28T13:37:41.078Z</time></trkpt><trkpt lat="45.8214497" lon="13.7522968"><ele>270.0</ele><time>2026-03-28T13:37:42.085Z</time></trkpt><trkpt lat="45.8215568" lon="13.7523159"><ele>270.0</ele><time>2026-03-28T13:37:43.093Z</time></trkpt><trkpt lat="45.8216507" lon="13.7523901"><ele>270.0</ele><time>2026-03-28T13:37:44.089Z</time></trkpt><trkpt lat="45.8217558" lon="13.7524997"><ele>270.0</ele><time>2026-03-28T13:37:45.109Z</time></trkpt><trkpt lat="45.8218692" lon="13.7526191"><ele>270.0</ele><time>2026-03-28T13:37:46.086Z</time></trkpt><trkpt lat="45.8219869" lon="13.7527492"><ele>267.6666666666667</ele><time>2026-03-28T13:37:47.103Z</time></trkpt><trkpt lat="45.8221162" lon="13.752885"><ele>265.33333333333337</ele><time>2026-03-28T13:37:48.1Z</time></trkpt><trkpt lat="45.822256" lon="13.7530139"><ele>263.0</ele><time>2026-03-28T13:37:49.097Z</time></trkpt><trkpt lat="45.8224034" lon="13.7531421"><ele>263.0</ele><time>2026-03-28T13:37:50.106Z</time></trkpt><trkpt lat="45.822552" lon="13.7532721"><ele>263.0</ele><time>2026-03-28T13:37:51.096Z</time></trkpt><trkpt lat="45.8227008" lon="13.7534073"><ele>263.0</ele><time>2026-03-28T13:37:52.117Z</time></trkpt><trkpt lat="45.8228495" lon="13.7535467"><ele>263.0</ele><time>2026-03-28T13:37:53.106Z</time></trkpt><trkpt lat="45.8230012" lon="13.7536902"><ele>263.0</ele><time>2026-03-28T13:37:54.11Z</time></trkpt><trkpt lat="45.823148" lon="13.7538591"><ele>263.0</ele><time>2026-03-28T13:37:55.105Z</time></trkpt><trkpt lat="45.8232932" lon="13.7540376"><ele>263.0</ele><time>2026-03-28T13:37:56.092Z</time></trkpt><trkpt lat="45.8234455" lon="13.754215"><ele>263.0</ele><time>2026-03-28T13:37:57.091Z</time></trkpt><trkpt lat="45.8235936" lon="13.7543969"><ele>263.0</ele><time>2026-03-28T13:37:58.102Z</time></trkpt><trkpt lat="45.8237358" lon="13.7545827"><ele>263.6666666666667</ele><time>2026-03-28T13:37:59.092Z</time></trkpt><trkpt lat="45.8238778" lon="13.7547598"><ele>264.3333333333333</ele><time>2026-03-28T13:38:00.098Z</time></trkpt><trkpt lat="45.8240184" lon="13.7549251"><ele>265.0</ele><time>2026-03-28T13:38:01.09Z</time></trkpt><trkpt lat="45.8241612" lon="13.7550854"><ele>264.66666666666663</ele><time>2026-03-28T13:38:02.093Z</time></trkpt><trkpt lat="45.824306" lon="13.755242"><ele>264.3333333333333</ele><time>2026-03-28T13:38:03.094Z</time></trkpt><trkpt lat="45.8244529" lon="13.7554067"><ele>264.0</ele><time>2026-03-28T13:38:04.096Z</time></trkpt><trkpt lat="45.8246013" lon="13.7555788"><ele>265.3333333333333</ele><time>2026-03-28T13:38:05.094Z</time></trkpt><trkpt lat="45.8247456" lon="13.7557473"><ele>266.66666666666663</ele><time>2026-03-28T13:38:06.098Z</time></trkpt><trkpt lat="45.8248908" lon="13.7559177"><ele>268.0</ele><time>2026-03-28T13:38:07.087Z</time></trkpt><trkpt lat="45.8250301" lon="13.7560838"><ele>269.3333333333333</ele><time>2026-03-28T13:38:08.092Z</time></trkpt><trkpt lat="45.8251615" lon="13.7562528"><ele>270.6666666666667</ele><time>2026-03-28T13:38:09.085Z</time></trkpt><trkpt lat="45.8252902" lon="13.7564232"><ele>272.0</ele><time>2026-03-28T13:38:10.084Z</time></trkpt><trkpt lat="45.8254217" lon="13.7566001"><ele>272.0</ele><time>2026-03-28T13:38:11.1Z</time></trkpt><trkpt lat="45.8255585" lon="13.7567861"><ele>272.0</ele><time>2026-03-28T13:38:12.093Z</time></trkpt><trkpt lat="45.8256904" lon="13.7569766"><ele>272.0</ele><time>2026-03-28T13:38:13.093Z</time></trkpt><trkpt lat="45.8258176" lon="13.7571696"><ele>271.33333333333337</ele><time>2026-03-28T13:38:14.097Z</time></trkpt><trkpt lat="45.8259487" lon="13.7573647"><ele>270.6666666666667</ele><time>2026-03-28T13:38:15.097Z</time></trkpt><trkpt lat="45.8260814" lon="13.757555"><ele>270.0</ele><time>2026-03-28T13:38:16.118Z</time></trkpt><trkpt lat="45.826217" lon="13.7577492"><ele>269.3333333333333</ele><time>2026-03-28T13:38:17.106Z</time></trkpt><trkpt lat="45.8263512" lon="13.7579395"><ele>268.66666666666663</ele><time>2026-03-28T13:38:18.104Z</time></trkpt><trkpt lat="45.8264852" lon="13.758116"><ele>268.0</ele><time>2026-03-28T13:38:19.097Z</time></trkpt><trkpt lat="45.8266191" lon="13.7582933"><ele>268.0</ele><time>2026-03-28T13:38:20.098Z</time></trkpt><trkpt lat="45.8267522" lon="13.7584698"><ele>268.0</ele><time>2026-03-28T13:38:21.106Z</time></trkpt><trkpt lat="45.8268869" lon="13.7586537"><ele>268.0</ele><time>2026-03-28T13:38:22.106Z</time></trkpt><trkpt lat="45.8270226" lon="13.7588356"><ele>268.0</ele><time>2026-03-28T13:38:23.102Z</time></trkpt><trkpt lat="45.8271594" lon="13.7590206"><ele>268.0</ele><time>2026-03-28T13:38:24.117Z</time></trkpt><trkpt lat="45.8272994" lon="13.759207"><ele>268.0</ele><time>2026-03-28T13:38:25.106Z</time></trkpt><trkpt lat="45.827441" lon="13.759395"><ele>268.0</ele><time>2026-03-28T13:38:26.101Z</time></trkpt><trkpt lat="45.8275747" lon="13.7595767"><ele>268.0</ele><time>2026-03-28T13:38:27.104Z</time></trkpt><trkpt lat="45.8277074" lon="13.7597589"><ele>268.0</ele><time>2026-03-28T13:38:28.103Z</time></trkpt><trkpt lat="45.8278315" lon="13.7599347"><ele>268.0</ele><time>2026-03-28T13:38:29.096Z</time></trkpt><trkpt lat="45.8279546" lon="13.7601083"><ele>268.0</ele><time>2026-03-28T13:38:30.106Z</time></trkpt><trkpt lat="45.8280764" lon="13.7602865"><ele>268.0</ele><time>2026-03-28T13:38:31.105Z</time></trkpt><trkpt lat="45.8282015" lon="13.7604611"><ele>269.3333333333333</ele><time>2026-03-28T13:38:32.105Z</time></trkpt><trkpt lat="45.8283316" lon="13.760629"><ele>270.6666666666667</ele><time>2026-03-28T13:38:33.092Z</time></trkpt><trkpt lat="45.8284594" lon="13.7607983"><ele>272.0</ele><time>2026-03-28T13:38:34.1Z</time></trkpt><trkpt lat="45.8285859" lon="13.7609563"><ele>272.0</ele><time>2026-03-28T13:38:35.102Z</time></trkpt><trkpt lat="45.828714" lon="13.7611065"><ele>272.0</ele><time>2026-03-28T13:38:36.107Z</time></trkpt><trkpt lat="45.8288471" lon="13.761242"><ele>272.0</ele><time>2026-03-28T13:38:37.101Z</time></trkpt><trkpt lat="45.8289818" lon="13.7613697"><ele>272.0</ele><time>2026-03-28T13:38:38.104Z</time></trkpt><trkpt lat="45.8291162" lon="13.7614888"><ele>272.0</ele><time>2026-03-28T13:38:39.103Z</time></trkpt><trkpt lat="45.829249" lon="13.7616051"><ele>272.0</ele><time>2026-03-28T13:38:40.098Z</time></trkpt><trkpt lat="45.8293806" lon="13.7617215"><ele>272.0</ele><time>2026-03-28T13:38:41.093Z</time></trkpt><trkpt lat="45.8295101" lon="13.7618374"><ele>272.0</ele><time>2026-03-28T13:38:42.087Z</time></trkpt><trkpt lat="45.8296464" lon="13.7619597"><ele>272.0</ele><time>2026-03-28T13:38:43.091Z</time></trkpt><trkpt lat="45.8297887" lon="13.7620809"><ele>272.33333333333337</ele><time>2026-03-28T13:38:44.091Z</time></trkpt><trkpt lat="45.8299357" lon="13.7622084"><ele>272.6666666666667</ele><time>2026-03-28T13:38:45.09Z</time></trkpt><trkpt lat="45.8300884" lon="13.762345"><ele>273.0</ele><time>2026-03-28T13:38:46.096Z</time></trkpt><trkpt lat="45.8302422" lon="13.7624824"><ele>273.6666666666667</ele><time>2026-03-28T13:38:47.092Z</time></trkpt><trkpt lat="45.8303955" lon="13.7626222"><ele>274.33333333333337</ele><time>2026-03-28T13:38:48.093Z</time></trkpt><trkpt lat="45.8305456" lon="13.7627657"><ele>275.0</ele><time>2026-03-28T13:38:49.097Z</time></trkpt><trkpt lat="45.8306882" lon="13.7628966"><ele>275.0</ele><time>2026-03-28T13:38:50.099Z</time></trkpt><trkpt lat="45.8308263" lon="13.7630184"><ele>275.0</ele><time>2026-03-28T13:38:51.095Z</time></trkpt><trkpt lat="45.8309667" lon="13.7631387"><ele>275.0</ele><time>2026-03-28T13:38:52.103Z</time></trkpt><trkpt lat="45.8311034" lon="13.763261"><ele>275.0</ele><time>2026-03-28T13:38:53.099Z</time></trkpt><trkpt lat="45.8312382" lon="13.7633842"><ele>275.0</ele><time>2026-03-28T13:38:54.096Z</time></trkpt><trkpt lat="45.831375" lon="13.7635064"><ele>275.0</ele><time>2026-03-28T13:38:55.096Z</time></trkpt><trkpt lat="45.8315106" lon="13.7636272"><ele>275.0</ele><time>2026-03-28T13:38:56.093Z</time></trkpt><trkpt lat="45.8316461" lon="13.7637557"><ele>275.0</ele><time>2026-03-28T13:38:57.092Z</time></trkpt><trkpt lat="45.8317821" lon="13.7638851"><ele>275.0</ele><time>2026-03-28T13:38:58.097Z</time></trkpt><trkpt lat="45.8319159" lon="13.7640114"><ele>275.6666666666667</ele><time>2026-03-28T13:38:59.098Z</time></trkpt><trkpt lat="45.832045" lon="13.7641315"><ele>276.3333333333333</ele><time>2026-03-28T13:39:00.107Z</time></trkpt><trkpt lat="45.8321735" lon="13.7642443"><ele>277.0</ele><time>2026-03-28T13:39:01.104Z</time></trkpt><trkpt lat="45.8323099" lon="13.7643461"><ele>277.0</ele><time>2026-03-28T13:39:02.104Z</time></trkpt><trkpt lat="45.8324536" lon="13.7644367"><ele>277.0</ele><time>2026-03-28T13:39:03.098Z</time></trkpt><trkpt lat="45.8326057" lon="13.7645223"><ele>277.0</ele><time>2026-03-28T13:39:04.099Z</time></trkpt><trkpt lat="45.832757" lon="13.7645868"><ele>277.0</ele><time>2026-03-28T13:39:05.085Z</time></trkpt><trkpt lat="45.8328989" lon="13.7646396"><ele>277.0</ele><time>2026-03-28T13:39:06.099Z</time></trkpt><trkpt lat="45.8330295" lon="13.7646869"><ele>277.0</ele><time>2026-03-28T13:39:07.099Z</time></trkpt><trkpt lat="45.8331372" lon="13.7647345"><ele>277.0</ele><time>2026-03-28T13:39:08.101Z</time></trkpt><trkpt lat="45.8332116" lon="13.7647802"><ele>277.0</ele><time>2026-03-28T13:39:09.093Z</time></trkpt><trkpt lat="45.8332901" lon="13.7648327"><ele>277.0</ele><time>2026-03-28T13:39:11.088Z</time></trkpt><trkpt lat="45.833361" lon="13.7648652"><ele>277.0</ele><time>2026-03-28T13:39:15.102Z</time></trkpt><trkpt lat="45.8334861" lon="13.7649193"><ele>277.0</ele><time>2026-03-28T13:39:17.098Z</time></trkpt><trkpt lat="45.8335722" lon="13.7649512"><ele>277.0</ele><time>2026-03-28T13:39:18.104Z</time></trkpt><trkpt lat="45.8336601" lon="13.7649927"><ele>276.8333333333333</ele><time>2026-03-28T13:39:19.098Z</time></trkpt><trkpt lat="45.8337379" lon="13.7650427"><ele>276.66666666666663</ele><time>2026-03-28T13:39:20.1Z</time></trkpt><trkpt lat="45.8338046" lon="13.7650779"><ele>276.5</ele><time>2026-03-28T13:39:21.097Z</time></trkpt><trkpt lat="45.8338679" lon="13.7651152"><ele>276.3333333333333</ele><time>2026-03-28T13:39:22.102Z</time></trkpt><trkpt lat="45.8339866" lon="13.765173"><ele>276.1666666666667</ele><time>2026-03-28T13:39:24.101Z</time></trkpt><trkpt lat="45.834047" lon="13.765205"><ele>276.0</ele><time>2026-03-28T13:39:25.103Z</time></trkpt><trkpt lat="45.8341121" lon="13.7652312"><ele>274.6666666666667</ele><time>2026-03-28T13:39:26.102Z</time></trkpt><trkpt lat="45.8341757" lon="13.7652497"><ele>273.3333333333333</ele><time>2026-03-28T13:39:27.097Z</time></trkpt><trkpt lat="45.8342842" lon="13.7652817"><ele>272.0</ele><time>2026-03-28T13:39:29.104Z</time></trkpt><trkpt lat="45.8343553" lon="13.7653262"><ele>270.66666666666663</ele><time>2026-03-28T13:39:32.105Z</time></trkpt><trkpt lat="45.8344201" lon="13.7653411"><ele>269.3333333333333</ele><time>2026-03-28T13:39:42.086Z</time></trkpt><trkpt lat="45.8344856" lon="13.7653868"><ele>268.0</ele><time>2026-03-28T13:39:49.098Z</time></trkpt><trkpt lat="45.8345537" lon="13.7654219"><ele>268.0</ele><time>2026-03-28T13:39:51.099Z</time></trkpt><trkpt lat="45.8346271" lon="13.7654425"><ele>268.0</ele><time>2026-03-28T13:39:53.096Z</time></trkpt><trkpt lat="45.8346954" lon="13.7654594"><ele>268.0</ele><time>2026-03-28T13:39:55.086Z</time></trkpt><trkpt lat="45.8347607" lon="13.765492"><ele>268.0</ele><time>2026-03-28T13:39:57.083Z</time></trkpt><trkpt lat="45.8348239" lon="13.7655307"><ele>268.0</ele><time>2026-03-28T13:39:59.09Z</time></trkpt><trkpt lat="45.8348949" lon="13.7655559"><ele>268.0</ele><time>2026-03-28T13:40:01.095Z</time></trkpt><trkpt lat="45.8349563" lon="13.7655895"><ele>268.0</ele><time>2026-03-28T13:40:03.097Z</time></trkpt><trkpt lat="45.8350348" lon="13.7656239"><ele>268.0</ele><time>2026-03-28T13:40:06.098Z</time></trkpt><trkpt lat="45.8350997" lon="13.7656505"><ele>268.0</ele><time>2026-03-28T13:40:09.099Z</time></trkpt><trkpt lat="45.8351697" lon="13.7656938"><ele>268.0</ele><time>2026-03-28T13:40:12.095Z</time></trkpt><trkpt lat="45.8352541" lon="13.7657102"><ele>268.0</ele><time>2026-03-28T13:40:15.086Z</time></trkpt><trkpt lat="45.8353182" lon="13.7657417"><ele>268.0</ele><time>2026-03-28T13:40:17.086Z</time></trkpt><trkpt lat="45.8353833" lon="13.7657691"><ele>268.0</ele><time>2026-03-28T13:40:19.099Z</time></trkpt><trkpt lat="45.8354514" lon="13.7658021"><ele>268.0</ele><time>2026-03-28T13:40:21.097Z</time></trkpt><trkpt lat="45.8355234" lon="13.7658364"><ele>269.0</ele><time>2026-03-28T13:40:23.093Z</time></trkpt><trkpt lat="45.8355999" lon="13.7658786"><ele>270.0</ele><time>2026-03-28T13:40:25.09Z</time></trkpt><trkpt lat="45.8356656" lon="13.7659195"><ele>271.0</ele><time>2026-03-28T13:40:27.087Z</time></trkpt><trkpt lat="45.835759" lon="13.7659483"><ele>272.0</ele><time>2026-03-28T13:40:30.092Z</time></trkpt><trkpt lat="45.83584" lon="13.7659772"><ele>273.0</ele><time>2026-03-28T13:40:33.102Z</time></trkpt><trkpt lat="45.8359124" lon="13.7660185"><ele>274.0</ele><time>2026-03-28T13:40:36.096Z</time></trkpt><trkpt lat="45.8359903" lon="13.7660271"><ele>273.3333333333333</ele><time>2026-03-28T13:40:45.08Z</time></trkpt><trkpt lat="45.8360568" lon="13.7660773"><ele>272.66666666666663</ele><time>2026-03-28T13:40:51.095Z</time></trkpt><trkpt lat="45.8361387" lon="13.7661188"><ele>272.0</ele><time>2026-03-28T13:40:54.105Z</time></trkpt><trkpt lat="45.836209" lon="13.7661559"><ele>271.3333333333333</ele><time>2026-03-28T13:40:57.09Z</time></trkpt><trkpt lat="45.8362721" lon="13.766189"><ele>270.6666666666667</ele><time>2026-03-28T13:41:01.092Z</time></trkpt><trkpt lat="45.8363504" lon="13.7662243"><ele>270.0</ele><time>2026-03-28T13:41:05.094Z</time></trkpt><trkpt lat="45.8364338" lon="13.7662654"><ele>270.0</ele><time>2026-03-28T13:41:08.085Z</time></trkpt><trkpt lat="45.8365176" lon="13.7663213"><ele>270.0</ele><time>2026-03-28T13:41:11.085Z</time></trkpt><trkpt lat="45.8365826" lon="13.766361"><ele>270.0</ele><time>2026-03-28T13:41:13.091Z</time></trkpt><trkpt lat="45.8366547" lon="13.7664023"><ele>270.0</ele><time>2026-03-28T13:41:15.097Z</time></trkpt><trkpt lat="45.8367249" lon="13.7664487"><ele>270.0</ele><time>2026-03-28T13:41:17.091Z</time></trkpt><trkpt lat="45.836808" lon="13.7665019"><ele>270.0</ele><time>2026-03-28T13:41:20.088Z</time></trkpt><trkpt lat="45.8368792" lon="13.766542"><ele>269.7142857142857</ele><time>2026-03-28T13:41:23.093Z</time></trkpt><trkpt lat="45.8369439" lon="13.7665921"><ele>269.4285714285714</ele><time>2026-03-28T13:41:28.098Z</time></trkpt><trkpt lat="45.8370071" lon="13.7666254"><ele>269.1428571428571</ele><time>2026-03-28T13:41:32.093Z</time></trkpt><trkpt lat="45.8370614" lon="13.7666867"><ele>268.85714285714283</ele><time>2026-03-28T13:41:36.099Z</time></trkpt><trkpt lat="45.8371296" lon="13.766745"><ele>268.57142857142856</ele><time>2026-03-28T13:41:40.1Z</time></trkpt><trkpt lat="45.8371885" lon="13.7667942"><ele>268.2857142857143</ele><time>2026-03-28T13:41:43.1Z</time></trkpt><trkpt lat="45.8372546" lon="13.7668528"><ele>268.0</ele><time>2026-03-28T13:41:47.092Z</time></trkpt><trkpt lat="45.8373153" lon="13.7669429"><ele>268.0</ele><time>2026-03-28T13:41:50.075Z</time></trkpt><trkpt lat="45.8373744" lon="13.7670092"><ele>268.0</ele><time>2026-03-28T13:41:52.099Z</time></trkpt><trkpt lat="45.8374351" lon="13.767094"><ele>268.0</ele><time>2026-03-28T13:41:54.099Z</time></trkpt><trkpt lat="45.8375182" lon="13.7671738"><ele>268.0</ele><time>2026-03-28T13:41:56.113Z</time></trkpt><trkpt lat="45.8376158" lon="13.7672744"><ele>268.0</ele><time>2026-03-28T13:41:58.097Z</time></trkpt><trkpt lat="45.8376951" lon="13.7673724"><ele>268.4</ele><time>2026-03-28T13:42:00.085Z</time></trkpt><trkpt lat="45.8377779" lon="13.7674806"><ele>268.8</ele><time>2026-03-28T13:42:02.097Z</time></trkpt><trkpt lat="45.8378699" lon="13.7675922"><ele>269.2</ele><time>2026-03-28T13:42:04.112Z</time></trkpt><trkpt lat="45.8379274" lon="13.7676598"><ele>269.6</ele><time>2026-03-28T13:42:05.102Z</time></trkpt><trkpt lat="45.838007" lon="13.7677536"><ele>270.0</ele><time>2026-03-28T13:42:06.109Z</time></trkpt><trkpt lat="45.8380978" lon="13.7678563"><ele>270.0</ele><time>2026-03-28T13:42:07.098Z</time></trkpt><trkpt lat="45.838185" lon="13.7679566"><ele>270.0</ele><time>2026-03-28T13:42:08.101Z</time></trkpt><trkpt lat="45.8382687" lon="13.7680637"><ele>270.0</ele><time>2026-03-28T13:42:09.102Z</time></trkpt><trkpt lat="45.8383455" lon="13.7681634"><ele>270.0</ele><time>2026-03-28T13:42:10.095Z</time></trkpt><trkpt lat="45.8384266" lon="13.7682512"><ele>270.0</ele><time>2026-03-28T13:42:11.102Z</time></trkpt><trkpt lat="45.8385139" lon="13.7683476"><ele>271.0</ele><time>2026-03-28T13:42:12.102Z</time></trkpt><trkpt lat="45.8386052" lon="13.7684455"><ele>272.0</ele><time>2026-03-28T13:42:13.103Z</time></trkpt><trkpt lat="45.838694" lon="13.7685518"><ele>273.0</ele><time>2026-03-28T13:42:14.106Z</time></trkpt><trkpt lat="45.8387818" lon="13.7686746"><ele>274.0</ele><time>2026-03-28T13:42:15.094Z</time></trkpt><trkpt lat="45.8388537" lon="13.7687976"><ele>274.0</ele><time>2026-03-28T13:42:16.101Z</time></trkpt><trkpt lat="45.8389145" lon="13.768909"><ele>274.0</ele><time>2026-03-28T13:42:17.097Z</time></trkpt><trkpt lat="45.838962" lon="13.7690319"><ele>274.0</ele><time>2026-03-28T13:42:18.111Z</time></trkpt><trkpt lat="45.8389892" lon="13.7691672"><ele>274.0</ele><time>2026-03-28T13:42:19.101Z</time></trkpt><trkpt lat="45.8390011" lon="13.769324"><ele>274.0</ele><time>2026-03-28T13:42:20.105Z</time></trkpt><trkpt lat="45.8390082" lon="13.769481"><ele>274.0</ele><time>2026-03-28T13:42:21.079Z</time></trkpt><trkpt lat="45.8390205" lon="13.7696584"><ele>274.0</ele><time>2026-03-28T13:42:22.099Z</time></trkpt><trkpt lat="45.839039" lon="13.7698387"><ele>274.0</ele><time>2026-03-28T13:42:23.098Z</time></trkpt><trkpt lat="45.8390654" lon="13.7700072"><ele>274.0</ele><time>2026-03-28T13:42:24.092Z</time></trkpt><trkpt lat="45.8391024" lon="13.7701546"><ele>275.4</ele><time>2026-03-28T13:42:25.083Z</time></trkpt><trkpt lat="45.8391329" lon="13.7702839"><ele>276.79999999999995</ele><time>2026-03-28T13:42:26.084Z</time></trkpt><trkpt lat="45.839139" lon="13.7703894"><ele>278.20000000000005</ele><time>2026-03-28T13:42:27.081Z</time></trkpt><trkpt lat="45.83912" lon="13.7705184"><ele>279.6</ele><time>2026-03-28T13:42:29.077Z</time></trkpt><trkpt lat="45.8390013" lon="13.7705138"><ele>281.0</ele><time>2026-03-28T13:42:32.071Z</time></trkpt><trkpt lat="45.8389361" lon="13.7705606"><ele>281.0</ele><time>2026-03-28T13:42:33.076Z</time></trkpt><trkpt lat="45.8388719" lon="13.7706358"><ele>281.0</ele><time>2026-03-28T13:42:34.076Z</time></trkpt><trkpt lat="45.8388078" lon="13.7707415"><ele>281.0</ele><time>2026-03-28T13:42:35.075Z</time></trkpt><trkpt lat="45.8387393" lon="13.7708578"><ele>281.0</ele><time>2026-03-28T13:42:36.074Z</time></trkpt><trkpt lat="45.8386783" lon="13.7709673"><ele>281.0</ele><time>2026-03-28T13:42:37.078Z</time></trkpt><trkpt lat="45.8386087" lon="13.7710453"><ele>283.8</ele><time>2026-03-28T13:42:38.075Z</time></trkpt><trkpt lat="45.8385338" lon="13.7710895"><ele>286.6</ele><time>2026-03-28T13:42:39.074Z</time></trkpt><trkpt lat="45.8384397" lon="13.7711308"><ele>289.4</ele><time>2026-03-28T13:42:40.07Z</time></trkpt><trkpt lat="45.8383372" lon="13.7711906"><ele>292.2</ele><time>2026-03-28T13:42:41.077Z</time></trkpt><trkpt lat="45.8382295" lon="13.7712506"><ele>295.0</ele><time>2026-03-28T13:42:42.079Z</time></trkpt><trkpt lat="45.838128" lon="13.771311"><ele>295.0</ele><time>2026-03-28T13:42:43.068Z</time></trkpt><trkpt lat="45.838049" lon="13.7713719"><ele>295.0</ele><time>2026-03-28T13:42:44.087Z</time></trkpt><trkpt lat="45.8379734" lon="13.7714568"><ele>295.0</ele><time>2026-03-28T13:42:45.077Z</time></trkpt><trkpt lat="45.8378982" lon="13.7715488"><ele>295.0</ele><time>2026-03-28T13:42:46.085Z</time></trkpt><trkpt lat="45.8378205" lon="13.7716333"><ele>295.0</ele><time>2026-03-28T13:42:47.077Z</time></trkpt><trkpt lat="45.8377234" lon="13.7716928"><ele>294.4</ele><time>2026-03-28T13:42:48.072Z</time></trkpt><trkpt lat="45.8376075" lon="13.7717347"><ele>293.8</ele><time>2026-03-28T13:42:49.064Z</time></trkpt><trkpt lat="45.8374884" lon="13.7717678"><ele>293.2</ele><time>2026-03-28T13:42:50.07Z</time></trkpt><trkpt lat="45.8373829" lon="13.7717925"><ele>292.6</ele><time>2026-03-28T13:42:51.071Z</time></trkpt><trkpt lat="45.8372879" lon="13.7717913"><ele>292.0</ele><time>2026-03-28T13:42:52.074Z</time></trkpt><trkpt lat="45.8371881" lon="13.771762"><ele>292.0</ele><time>2026-03-28T13:42:53.072Z</time></trkpt><trkpt lat="45.8370829" lon="13.7717354"><ele>292.0</ele><time>2026-03-28T13:42:54.077Z</time></trkpt><trkpt lat="45.8369928" lon="13.7717352"><ele>292.0</ele><time>2026-03-28T13:42:55.079Z</time></trkpt><trkpt lat="45.8369208" lon="13.7717721"><ele>292.0</ele><time>2026-03-28T13:42:56.071Z</time></trkpt><trkpt lat="45.8368482" lon="13.7718316"><ele>292.0</ele><time>2026-03-28T13:42:57.075Z</time></trkpt><trkpt lat="45.8367693" lon="13.7719111"><ele>292.6</ele><time>2026-03-28T13:42:58.071Z</time></trkpt><trkpt lat="45.8366894" lon="13.7719905"><ele>293.2</ele><time>2026-03-28T13:42:59.079Z</time></trkpt><trkpt lat="45.8366068" lon="13.7720612"><ele>293.8</ele><time>2026-03-28T13:43:00.076Z</time></trkpt><trkpt lat="45.8365105" lon="13.7721163"><ele>294.4</ele><time>2026-03-28T13:43:01.071Z</time></trkpt><trkpt lat="45.83641" lon="13.7721707"><ele>295.0</ele><time>2026-03-28T13:43:02.078Z</time></trkpt><trkpt lat="45.8363188" lon="13.7722168"><ele>295.0</ele><time>2026-03-28T13:43:03.079Z</time></trkpt><trkpt lat="45.8362306" lon="13.7722548"><ele>295.0</ele><time>2026-03-28T13:43:04.087Z</time></trkpt><trkpt lat="45.8361449" lon="13.7722808"><ele>295.0</ele><time>2026-03-28T13:43:05.08Z</time></trkpt><trkpt lat="45.8360672" lon="13.7723101"><ele>295.0</ele><time>2026-03-28T13:43:06.071Z</time></trkpt><trkpt lat="45.8359997" lon="13.7723761"><ele>295.0</ele><time>2026-03-28T13:43:07.087Z</time></trkpt><trkpt lat="45.8359475" lon="13.7724766"><ele>295.0</ele><time>2026-03-28T13:43:08.07Z</time></trkpt><trkpt lat="45.8359168" lon="13.7725949"><ele>296.66666666666663</ele><time>2026-03-28T13:43:09.088Z</time></trkpt><trkpt lat="45.8358933" lon="13.7727151"><ele>298.3333333333333</ele><time>2026-03-28T13:43:10.068Z</time></trkpt><trkpt lat="45.835866" lon="13.772831"><ele>300.0</ele><time>2026-03-28T13:43:11.082Z</time></trkpt><trkpt lat="45.8358252" lon="13.7729325"><ele>301.6666666666667</ele><time>2026-03-28T13:43:12.08Z</time></trkpt><trkpt lat="45.8357811" lon="13.7730214"><ele>303.33333333333337</ele><time>2026-03-28T13:43:13.081Z</time></trkpt><trkpt lat="45.8357356" lon="13.7730944"><ele>305.0</ele><time>2026-03-28T13:43:14.084Z</time></trkpt><trkpt lat="45.8356744" lon="13.773146"><ele>305.0</ele><time>2026-03-28T13:43:15.083Z</time></trkpt><trkpt lat="45.8355987" lon="13.7731854"><ele>305.0</ele><time>2026-03-28T13:43:16.079Z</time></trkpt><trkpt lat="45.8355108" lon="13.7732352"><ele>305.0</ele><time>2026-03-28T13:43:17.075Z</time></trkpt><trkpt lat="45.8354242" lon="13.7733032"><ele>305.0</ele><time>2026-03-28T13:43:18.082Z</time></trkpt><trkpt lat="45.8353271" lon="13.7733634"><ele>305.0</ele><time>2026-03-28T13:43:19.091Z</time></trkpt><trkpt lat="45.8352313" lon="13.7734291"><ele>305.0</ele><time>2026-03-28T13:43:20.083Z</time></trkpt><trkpt lat="45.8351298" lon="13.773494"><ele>305.0</ele><time>2026-03-28T13:43:21.079Z</time></trkpt><trkpt lat="45.8350292" lon="13.7735577"><ele>305.0</ele><time>2026-03-28T13:43:22.083Z</time></trkpt><trkpt lat="45.8349285" lon="13.7736221"><ele>305.0</ele><time>2026-03-28T13:43:23.081Z</time></trkpt><trkpt lat="45.8348249" lon="13.7736917"><ele>305.0</ele><time>2026-03-28T13:43:24.08Z</time></trkpt><trkpt lat="45.8347233" lon="13.7737615"><ele>305.0</ele><time>2026-03-28T13:43:25.084Z</time></trkpt><trkpt lat="45.8346259" lon="13.7738346"><ele>305.0</ele><time>2026-03-28T13:43:26.086Z</time></trkpt><trkpt lat="45.8345352" lon="13.7739023"><ele>305.0</ele><time>2026-03-28T13:43:27.083Z</time></trkpt><trkpt lat="45.8344556" lon="13.7739554"><ele>305.0</ele><time>2026-03-28T13:43:28.089Z</time></trkpt><trkpt lat="45.834376" lon="13.7739812"><ele>305.0</ele><time>2026-03-28T13:43:29.079Z</time></trkpt><trkpt lat="45.8342919" lon="13.7739915"><ele>304.0</ele><time>2026-03-28T13:43:30.083Z</time></trkpt><trkpt lat="45.8341966" lon="13.7739971"><ele>303.0</ele><time>2026-03-28T13:43:31.083Z</time></trkpt><trkpt lat="45.8340969" lon="13.7740071"><ele>302.0</ele><time>2026-03-28T13:43:32.083Z</time></trkpt><trkpt lat="45.8339977" lon="13.7740174"><ele>301.0</ele><time>2026-03-28T13:43:33.091Z</time></trkpt><trkpt lat="45.8338971" lon="13.7740298"><ele>300.0</ele><time>2026-03-28T13:43:34.117Z</time></trkpt><trkpt lat="45.8337865" lon="13.7740479"><ele>300.0</ele><time>2026-03-28T13:43:35.08Z</time></trkpt><trkpt lat="45.8336653" lon="13.7740666"><ele>300.0</ele><time>2026-03-28T13:43:36.079Z</time></trkpt><trkpt lat="45.8335447" lon="13.7740862"><ele>300.0</ele><time>2026-03-28T13:43:37.084Z</time></trkpt><trkpt lat="45.83343" lon="13.7741018"><ele>300.0</ele><time>2026-03-28T13:43:38.08Z</time></trkpt><trkpt lat="45.8333118" lon="13.7741212"><ele>299.25</ele><time>2026-03-28T13:43:39.08Z</time></trkpt><trkpt lat="45.8331934" lon="13.7741396"><ele>298.5</ele><time>2026-03-28T13:43:40.078Z</time></trkpt><trkpt lat="45.8330739" lon="13.7741609"><ele>297.75</ele><time>2026-03-28T13:43:41.075Z</time></trkpt><trkpt lat="45.8329553" lon="13.7741734"><ele>297.0</ele><time>2026-03-28T13:43:42.07Z</time></trkpt><trkpt lat="45.8328344" lon="13.7741929"><ele>297.0</ele><time>2026-03-28T13:43:43.081Z</time></trkpt><trkpt lat="45.832722" lon="13.7742127"><ele>297.0</ele><time>2026-03-28T13:43:44.071Z</time></trkpt><trkpt lat="45.8326049" lon="13.7742338"><ele>297.0</ele><time>2026-03-28T13:43:45.08Z</time></trkpt><trkpt lat="45.8324819" lon="13.7742568"><ele>297.0</ele><time>2026-03-28T13:43:46.089Z</time></trkpt><trkpt lat="45.8323546" lon="13.7742784"><ele>295.5</ele><time>2026-03-28T13:43:47.098Z</time></trkpt><trkpt lat="45.8322269" lon="13.7742985"><ele>294.0</ele><time>2026-03-28T13:43:48.094Z</time></trkpt><trkpt lat="45.8320993" lon="13.7743154"><ele>292.5</ele><time>2026-03-28T13:43:49.095Z</time></trkpt><trkpt lat="45.8319747" lon="13.7743339"><ele>291.0</ele><time>2026-03-28T13:43:50.099Z</time></trkpt><trkpt lat="45.8318533" lon="13.7743546"><ele>291.75</ele><time>2026-03-28T13:43:51.091Z</time></trkpt><trkpt lat="45.8317333" lon="13.7743727"><ele>292.5</ele><time>2026-03-28T13:43:52.092Z</time></trkpt><trkpt lat="45.8316175" lon="13.7743898"><ele>293.25</ele><time>2026-03-28T13:43:53.081Z</time></trkpt><trkpt lat="45.8315035" lon="13.7744031"><ele>294.0</ele><time>2026-03-28T13:43:54.093Z</time></trkpt><trkpt lat="45.8313871" lon="13.774418"><ele>294.0</ele><time>2026-03-28T13:43:55.086Z</time></trkpt><trkpt lat="45.8312682" lon="13.7744375"><ele>294.0</ele><time>2026-03-28T13:43:56.079Z</time></trkpt><trkpt lat="45.8311484" lon="13.7744545"><ele>294.0</ele><time>2026-03-28T13:43:57.095Z</time></trkpt><trkpt lat="45.8310274" lon="13.7744749"><ele>294.0</ele><time>2026-03-28T13:43:58.082Z</time></trkpt><trkpt lat="45.8309064" lon="13.7745026"><ele>293.5</ele><time>2026-03-28T13:43:59.087Z</time></trkpt><trkpt lat="45.8307789" lon="13.7745254"><ele>293.0</ele><time>2026-03-28T13:44:00.09Z</time></trkpt><trkpt lat="45.830651" lon="13.7745395"><ele>292.5</ele><time>2026-03-28T13:44:01.104Z</time></trkpt><trkpt lat="45.8305208" lon="13.7745449"><ele>292.0</ele><time>2026-03-28T13:44:02.075Z</time></trkpt><trkpt lat="45.8303885" lon="13.7745287"><ele>292.0</ele><time>2026-03-28T13:44:03.091Z</time></trkpt><trkpt lat="45.8302555" lon="13.774501"><ele>292.0</ele><time>2026-03-28T13:44:04.085Z</time></trkpt><trkpt lat="45.8301225" lon="13.7744693"><ele>292.0</ele><time>2026-03-28T13:44:05.082Z</time></trkpt><trkpt lat="45.8299928" lon="13.7744453"><ele>292.0</ele><time>2026-03-28T13:44:06.079Z</time></trkpt><trkpt lat="45.8298713" lon="13.7744235"><ele>292.2</ele><time>2026-03-28T13:44:07.077Z</time></trkpt><trkpt lat="45.8297635" lon="13.7743979"><ele>292.4</ele><time>2026-03-28T13:44:08.08Z</time></trkpt><trkpt lat="45.8296671" lon="13.7743761"><ele>292.6</ele><time>2026-03-28T13:44:09.092Z</time></trkpt><trkpt lat="45.8295749" lon="13.7743488"><ele>292.8</ele><time>2026-03-28T13:44:10.093Z</time></trkpt><trkpt lat="45.8294859" lon="13.7743133"><ele>293.0</ele><time>2026-03-28T13:44:11.097Z</time></trkpt><trkpt lat="45.8294057" lon="13.7742858"><ele>292.5</ele><time>2026-03-28T13:44:12.094Z</time></trkpt><trkpt lat="45.8293247" lon="13.7742776"><ele>292.0</ele><time>2026-03-28T13:44:13.085Z</time></trkpt><trkpt lat="45.8292426" lon="13.7742746"><ele>291.5</ele><time>2026-03-28T13:44:14.085Z</time></trkpt><trkpt lat="45.8291655" lon="13.7742656"><ele>291.0</ele><time>2026-03-28T13:44:15.094Z</time></trkpt><trkpt lat="45.8290924" lon="13.7742353"><ele>290.5</ele><time>2026-03-28T13:44:16.088Z</time></trkpt><trkpt lat="45.8290251" lon="13.774207"><ele>290.0</ele><time>2026-03-28T13:44:17.11Z</time></trkpt><trkpt lat="45.8289511" lon="13.7741745"><ele>289.6666666666667</ele><time>2026-03-28T13:44:18.099Z</time></trkpt><trkpt lat="45.8288701" lon="13.7741434"><ele>289.33333333333337</ele><time>2026-03-28T13:44:19.093Z</time></trkpt><trkpt lat="45.8287901" lon="13.7741099"><ele>289.0</ele><time>2026-03-28T13:44:20.093Z</time></trkpt><trkpt lat="45.828703" lon="13.7740878"><ele>288.6666666666667</ele><time>2026-03-28T13:44:21.09Z</time></trkpt><trkpt lat="45.828617" lon="13.7740935"><ele>288.3333333333333</ele><time>2026-03-28T13:44:22.09Z</time></trkpt><trkpt lat="45.8285445" lon="13.7741168"><ele>288.0</ele><time>2026-03-28T13:44:23.082Z</time></trkpt><trkpt lat="45.8284814" lon="13.7741681"><ele>287.6666666666667</ele><time>2026-03-28T13:44:25.085Z</time></trkpt><trkpt lat="45.8284251" lon="13.7742412"><ele>287.3333333333333</ele><time>2026-03-28T13:45:16.089Z</time></trkpt><trkpt lat="45.828356" lon="13.7742799"><ele>287.0</ele><time>2026-03-28T13:45:17.077Z</time></trkpt><trkpt lat="45.8282904" lon="13.7743327"><ele>286.66666666666663</ele><time>2026-03-28T13:45:18.103Z</time></trkpt><trkpt lat="45.8282188" lon="13.7743883"><ele>286.3333333333333</ele><time>2026-03-28T13:45:19.096Z</time></trkpt><trkpt lat="45.8281399" lon="13.7744465"><ele>286.0</ele><time>2026-03-28T13:45:20.106Z</time></trkpt><trkpt lat="45.8280575" lon="13.7745111"><ele>286.0</ele><time>2026-03-28T13:45:21.097Z</time></trkpt><trkpt lat="45.8279808" lon="13.7745807"><ele>286.0</ele><time>2026-03-28T13:45:22.127Z</time></trkpt><trkpt lat="45.8278923" lon="13.7746494"><ele>286.0</ele><time>2026-03-28T13:45:23.101Z</time></trkpt><trkpt lat="45.8278083" lon="13.7747103"><ele>286.0</ele><time>2026-03-28T13:45:24.1Z</time></trkpt><trkpt lat="45.8277218" lon="13.7747605"><ele>286.0</ele><time>2026-03-28T13:45:25.096Z</time></trkpt><trkpt lat="45.8276388" lon="13.7747988"><ele>284.66666666666663</ele><time>2026-03-28T13:45:26.092Z</time></trkpt><trkpt lat="45.8275616" lon="13.7748135"><ele>283.3333333333333</ele><time>2026-03-28T13:45:27.093Z</time></trkpt><trkpt lat="45.8274834" lon="13.7748234"><ele>282.0</ele><time>2026-03-28T13:45:28.094Z</time></trkpt><trkpt lat="45.8273958" lon="13.7748524"><ele>280.6666666666667</ele><time>2026-03-28T13:45:29.098Z</time></trkpt><trkpt lat="45.8273049" lon="13.7748907"><ele>279.33333333333337</ele><time>2026-03-28T13:45:30.097Z</time></trkpt><trkpt lat="45.8272122" lon="13.7749276"><ele>278.0</ele><time>2026-03-28T13:45:31.082Z</time></trkpt><trkpt lat="45.8271217" lon="13.7749643"><ele>278.0</ele><time>2026-03-28T13:45:32.093Z</time></trkpt><trkpt lat="45.8270283" lon="13.7749987"><ele>278.0</ele><time>2026-03-28T13:45:33.091Z</time></trkpt><trkpt lat="45.8269383" lon="13.7750468"><ele>278.0</ele><time>2026-03-28T13:45:34.092Z</time></trkpt><trkpt lat="45.8268521" lon="13.7751171"><ele>278.0</ele><time>2026-03-28T13:45:35.1Z</time></trkpt><trkpt lat="45.8267603" lon="13.7752009"><ele>278.0</ele><time>2026-03-28T13:45:36.093Z</time></trkpt><trkpt lat="45.8266719" lon="13.7752806"><ele>277.6666666666667</ele><time>2026-03-28T13:45:37.083Z</time></trkpt><trkpt lat="45.826583" lon="13.7753429"><ele>277.33333333333337</ele><time>2026-03-28T13:45:38.087Z</time></trkpt><trkpt lat="45.8264977" lon="13.7753916"><ele>277.0</ele><time>2026-03-28T13:45:39.103Z</time></trkpt><trkpt lat="45.8264138" lon="13.7754192"><ele>276.6666666666667</ele><time>2026-03-28T13:45:40.099Z</time></trkpt><trkpt lat="45.8263269" lon="13.7754263"><ele>276.3333333333333</ele><time>2026-03-28T13:45:41.098Z</time></trkpt><trkpt lat="45.8262467" lon="13.7754248"><ele>276.0</ele><time>2026-03-28T13:45:42.089Z</time></trkpt><trkpt lat="45.8261657" lon="13.7754019"><ele>276.0</ele><time>2026-03-28T13:45:43.083Z</time></trkpt><trkpt lat="45.8260948" lon="13.7753579"><ele>276.0</ele><time>2026-03-28T13:45:44.079Z</time></trkpt><trkpt lat="45.8260249" lon="13.7753089"><ele>276.0</ele><time>2026-03-28T13:45:45.066Z</time></trkpt><trkpt lat="45.8259493" lon="13.7752499"><ele>276.0</ele><time>2026-03-28T13:45:46.087Z</time></trkpt><trkpt lat="45.8258724" lon="13.775183"><ele>276.0</ele><time>2026-03-28T13:45:47.081Z</time></trkpt><trkpt lat="45.8258017" lon="13.7751224"><ele>276.0</ele><time>2026-03-28T13:45:48.076Z</time></trkpt><trkpt lat="45.8257343" lon="13.7750822"><ele>276.0</ele><time>2026-03-28T13:45:50.085Z</time></trkpt><trkpt lat="45.825693" lon="13.7751579"><ele>276.0</ele><time>2026-03-28T13:45:52.079Z</time></trkpt><trkpt lat="45.8256737" lon="13.7752563"><ele>276.0</ele><time>2026-03-28T13:45:53.079Z</time></trkpt><trkpt lat="45.8256377" lon="13.7754013"><ele>276.0</ele><time>2026-03-28T13:45:54.082Z</time></trkpt><trkpt lat="45.8255944" lon="13.775579"><ele>276.0</ele><time>2026-03-28T13:45:55.071Z</time></trkpt><trkpt lat="45.8255487" lon="13.7757417"><ele>276.0</ele><time>2026-03-28T13:45:56.077Z</time></trkpt><trkpt lat="45.8255122" lon="13.7759153"><ele>276.0</ele><time>2026-03-28T13:45:57.077Z</time></trkpt><trkpt lat="45.8254733" lon="13.7760742"><ele>276.0</ele><time>2026-03-28T13:45:58.077Z</time></trkpt><trkpt lat="45.825435" lon="13.7762266"><ele>276.0</ele><time>2026-03-28T13:45:59.076Z</time></trkpt><trkpt lat="45.8253942" lon="13.7763728"><ele>276.5</ele><time>2026-03-28T13:46:00.087Z</time></trkpt><trkpt lat="45.8253537" lon="13.7765196"><ele>277.0</ele><time>2026-03-28T13:46:01.078Z</time></trkpt><trkpt lat="45.8253111" lon="13.7766727"><ele>277.5</ele><time>2026-03-28T13:46:02.075Z</time></trkpt><trkpt lat="45.82527" lon="13.7768343"><ele>278.0</ele><time>2026-03-28T13:46:03.085Z</time></trkpt><trkpt lat="45.8252283" lon="13.7770008"><ele>278.25</ele><time>2026-03-28T13:46:04.085Z</time></trkpt><trkpt lat="45.8251826" lon="13.7771834"><ele>278.5</ele><time>2026-03-28T13:46:05.079Z</time></trkpt><trkpt lat="45.825136" lon="13.7773598"><ele>278.75</ele><time>2026-03-28T13:46:06.081Z</time></trkpt><trkpt lat="45.8250843" lon="13.7775354"><ele>279.0</ele><time>2026-03-28T13:46:07.079Z</time></trkpt><trkpt lat="45.8250396" lon="13.7777128"><ele>278.0</ele><time>2026-03-28T13:46:08.073Z</time></trkpt><trkpt lat="45.8249954" lon="13.7778824"><ele>277.0</ele><time>2026-03-28T13:46:09.071Z</time></trkpt><trkpt lat="45.8249516" lon="13.7780387"><ele>276.0</ele><time>2026-03-28T13:46:10.083Z</time></trkpt><trkpt lat="45.8249043" lon="13.7781832"><ele>275.0</ele><time>2026-03-28T13:46:11.084Z</time></trkpt><trkpt lat="45.8248458" lon="13.7783176"><ele>275.0</ele><time>2026-03-28T13:46:12.085Z</time></trkpt><trkpt lat="45.8247765" lon="13.7784551"><ele>275.0</ele><time>2026-03-28T13:46:13.091Z</time></trkpt><trkpt lat="45.8246994" lon="13.7786008"><ele>275.0</ele><time>2026-03-28T13:46:14.087Z</time></trkpt><trkpt lat="45.8246255" lon="13.7787481"><ele>275.0</ele><time>2026-03-28T13:46:15.074Z</time></trkpt><trkpt lat="45.8245568" lon="13.7788767"><ele>275.0</ele><time>2026-03-28T13:46:16.073Z</time></trkpt><trkpt lat="45.8244959" lon="13.7789909"><ele>275.0</ele><time>2026-03-28T13:46:17.075Z</time></trkpt><trkpt lat="45.8244463" lon="13.779103"><ele>275.0</ele><time>2026-03-28T13:46:18.094Z</time></trkpt><trkpt lat="45.8244253" lon="13.77924"><ele>275.0</ele><time>2026-03-28T13:46:19.085Z</time></trkpt><trkpt lat="45.8244144" lon="13.7793847"><ele>275.0</ele><time>2026-03-28T13:46:20.075Z</time></trkpt><trkpt lat="45.8243978" lon="13.7795493"><ele>275.25</ele><time>2026-03-28T13:46:21.08Z</time></trkpt><trkpt lat="45.824374" lon="13.7797171"><ele>275.5</ele><time>2026-03-28T13:46:22.085Z</time></trkpt><trkpt lat="45.8243513" lon="13.7798844"><ele>275.75</ele><time>2026-03-28T13:46:23.084Z</time></trkpt><trkpt lat="45.8243271" lon="13.7800484"><ele>276.0</ele><time>2026-03-28T13:46:24.084Z</time></trkpt><trkpt lat="45.8243056" lon="13.7802198"><ele>276.0</ele><time>2026-03-28T13:46:25.09Z</time></trkpt><trkpt lat="45.8242891" lon="13.7803901"><ele>276.0</ele><time>2026-03-28T13:46:26.099Z</time></trkpt><trkpt lat="45.824268" lon="13.7805666"><ele>276.0</ele><time>2026-03-28T13:46:27.103Z</time></trkpt><trkpt lat="45.8242472" lon="13.7807375"><ele>276.0</ele><time>2026-03-28T13:46:28.091Z</time></trkpt><trkpt lat="45.8242204" lon="13.7809075"><ele>276.25</ele><time>2026-03-28T13:46:29.101Z</time></trkpt><trkpt lat="45.8241901" lon="13.7810742"><ele>276.5</ele><time>2026-03-28T13:46:30.1Z</time></trkpt><trkpt lat="45.8241539" lon="13.7812431"><ele>276.75</ele><time>2026-03-28T13:46:31.097Z</time></trkpt><trkpt lat="45.8241111" lon="13.7814112"><ele>277.0</ele><time>2026-03-28T13:46:32.093Z</time></trkpt><trkpt lat="45.8240671" lon="13.7815741"><ele>277.0</ele><time>2026-03-28T13:46:33.097Z</time></trkpt><trkpt lat="45.8240296" lon="13.7817238"><ele>277.0</ele><time>2026-03-28T13:46:34.095Z</time></trkpt><trkpt lat="45.8239944" lon="13.7818615"><ele>277.0</ele><time>2026-03-28T13:46:35.102Z</time></trkpt><trkpt lat="45.8239432" lon="13.7819677"><ele>277.0</ele><time>2026-03-28T13:46:36.097Z</time></trkpt><trkpt lat="45.823878" lon="13.7820557"><ele>277.0</ele><time>2026-03-28T13:46:37.079Z</time></trkpt><trkpt lat="45.8238222" lon="13.7821715"><ele>276.8</ele><time>2026-03-28T13:46:38.083Z</time></trkpt><trkpt lat="45.8237956" lon="13.7822909"><ele>276.6</ele><time>2026-03-28T13:46:39.09Z</time></trkpt><trkpt lat="45.8237872" lon="13.7824272"><ele>276.40000000000003</ele><time>2026-03-28T13:46:40.073Z</time></trkpt><trkpt lat="45.8237859" lon="13.7825667"><ele>276.2</ele><time>2026-03-28T13:46:41.077Z</time></trkpt><trkpt lat="45.8237581" lon="13.7827082"><ele>276.0</ele><time>2026-03-28T13:46:42.085Z</time></trkpt><trkpt lat="45.8237178" lon="13.7828435"><ele>276.0</ele><time>2026-03-28T13:46:43.091Z</time></trkpt><trkpt lat="45.8236852" lon="13.7829691"><ele>276.0</ele><time>2026-03-28T13:46:44.089Z</time></trkpt><trkpt lat="45.8236701" lon="13.783104"><ele>276.0</ele><time>2026-03-28T13:46:45.116Z</time></trkpt><trkpt lat="45.8236588" lon="13.7832544"><ele>276.0</ele><time>2026-03-28T13:46:46.095Z</time></trkpt><trkpt lat="45.8236522" lon="13.7834288"><ele>276.0</ele><time>2026-03-28T13:46:47.093Z</time></trkpt><trkpt lat="45.8236517" lon="13.783612"><ele>276.75</ele><time>2026-03-28T13:46:48.086Z</time></trkpt><trkpt lat="45.8236633" lon="13.7838047"><ele>277.5</ele><time>2026-03-28T13:46:49.088Z</time></trkpt><trkpt lat="45.8236726" lon="13.7840124"><ele>278.25</ele><time>2026-03-28T13:46:50.081Z</time></trkpt><trkpt lat="45.8236649" lon="13.7842128"><ele>279.0</ele><time>2026-03-28T13:46:51.089Z</time></trkpt><trkpt lat="45.8236512" lon="13.7843925"><ele>279.3333333333333</ele><time>2026-03-28T13:46:52.084Z</time></trkpt><trkpt lat="45.8236421" lon="13.784544"><ele>279.6666666666667</ele><time>2026-03-28T13:46:53.096Z</time></trkpt><trkpt lat="45.8236439" lon="13.784677"><ele>280.0</ele><time>2026-03-28T13:46:54.088Z</time></trkpt><trkpt lat="45.8236549" lon="13.7848003"><ele>280.33333333333337</ele><time>2026-03-28T13:46:55.092Z</time></trkpt><trkpt lat="45.8236617" lon="13.7849049"><ele>280.6666666666667</ele><time>2026-03-28T13:46:56.113Z</time></trkpt><trkpt lat="45.823661" lon="13.7850143"><ele>281.0</ele><time>2026-03-28T13:46:57.091Z</time></trkpt><trkpt lat="45.8236327" lon="13.7851141"><ele>281.2</ele><time>2026-03-28T13:46:58.072Z</time></trkpt><trkpt lat="45.8236032" lon="13.7852146"><ele>281.40000000000003</ele><time>2026-03-28T13:46:59.099Z</time></trkpt><trkpt lat="45.8235723" lon="13.7853342"><ele>281.6</ele><time>2026-03-28T13:47:00.103Z</time></trkpt><trkpt lat="45.8235493" lon="13.7854613"><ele>281.8</ele><time>2026-03-28T13:47:01.1Z</time></trkpt><trkpt lat="45.8235292" lon="13.7856042"><ele>282.0</ele><time>2026-03-28T13:47:02.082Z</time></trkpt><trkpt lat="45.8235003" lon="13.7857491"><ele>281.6</ele><time>2026-03-28T13:47:03.084Z</time></trkpt><trkpt lat="45.8234567" lon="13.7858844"><ele>281.2</ele><time>2026-03-28T13:47:04.099Z</time></trkpt><trkpt lat="45.8234028" lon="13.7860041"><ele>280.8</ele><time>2026-03-28T13:47:05.093Z</time></trkpt><trkpt lat="45.8233486" lon="13.7861213"><ele>280.4</ele><time>2026-03-28T13:47:06.108Z</time></trkpt><trkpt lat="45.8232991" lon="13.7862456"><ele>280.0</ele><time>2026-03-28T13:47:07.101Z</time></trkpt><trkpt lat="45.8232479" lon="13.7863636"><ele>279.6</ele><time>2026-03-28T13:47:08.09Z</time></trkpt><trkpt lat="45.8231965" lon="13.7864843"><ele>279.2</ele><time>2026-03-28T13:47:09.088Z</time></trkpt><trkpt lat="45.8231463" lon="13.786614"><ele>278.8</ele><time>2026-03-28T13:47:10.095Z</time></trkpt><trkpt lat="45.8230917" lon="13.7867474"><ele>278.4</ele><time>2026-03-28T13:47:11.088Z</time></trkpt><trkpt lat="45.8230302" lon="13.7868685"><ele>278.0</ele><time>2026-03-28T13:47:12.093Z</time></trkpt><trkpt lat="45.8229655" lon="13.7869811"><ele>277.5</ele><time>2026-03-28T13:47:13.105Z</time></trkpt><trkpt lat="45.8228977" lon="13.7871105"><ele>277.0</ele><time>2026-03-28T13:47:14.099Z</time></trkpt><trkpt lat="45.8228359" lon="13.7872585"><ele>276.5</ele><time>2026-03-28T13:47:15.093Z</time></trkpt><trkpt lat="45.822773" lon="13.7874144"><ele>276.0</ele><time>2026-03-28T13:47:16.087Z</time></trkpt><trkpt lat="45.822707" lon="13.7875719"><ele>276.25</ele><time>2026-03-28T13:47:17.081Z</time></trkpt><trkpt lat="45.8226383" lon="13.7877304"><ele>276.5</ele><time>2026-03-28T13:47:18.097Z</time></trkpt><trkpt lat="45.8225746" lon="13.7878935"><ele>276.75</ele><time>2026-03-28T13:47:19.087Z</time></trkpt><trkpt lat="45.8225252" lon="13.7880568"><ele>277.0</ele><time>2026-03-28T13:47:20.099Z</time></trkpt><trkpt lat="45.8224835" lon="13.7882177"><ele>277.0</ele><time>2026-03-28T13:47:21.078Z</time></trkpt><trkpt lat="45.8224491" lon="13.7883593"><ele>277.0</ele><time>2026-03-28T13:47:22.095Z</time></trkpt><trkpt lat="45.8224113" lon="13.7884967"><ele>277.0</ele><time>2026-03-28T13:47:23.096Z</time></trkpt><trkpt lat="45.8223674" lon="13.7886291"><ele>277.0</ele><time>2026-03-28T13:47:24.106Z</time></trkpt><trkpt lat="45.8223242" lon="13.7887442"><ele>277.0</ele><time>2026-03-28T13:47:25.101Z</time></trkpt><trkpt lat="45.8222754" lon="13.7888371"><ele>277.2</ele><time>2026-03-28T13:47:26.109Z</time></trkpt><trkpt lat="45.8222205" lon="13.7889054"><ele>277.4</ele><time>2026-03-28T13:47:27.085Z</time></trkpt><trkpt lat="45.8221671" lon="13.7889997"><ele>277.6</ele><time>2026-03-28T13:47:28.104Z</time></trkpt><trkpt lat="45.8221343" lon="13.7891305"><ele>277.8</ele><time>2026-03-28T13:47:29.093Z</time></trkpt><trkpt lat="45.822111" lon="13.7892787"><ele>278.0</ele><time>2026-03-28T13:47:30.083Z</time></trkpt><trkpt lat="45.8220813" lon="13.7894225"><ele>277.6</ele><time>2026-03-28T13:47:31.098Z</time></trkpt><trkpt lat="45.822038" lon="13.7895673"><ele>277.20000000000005</ele><time>2026-03-28T13:47:32.105Z</time></trkpt><trkpt lat="45.8219866" lon="13.7896994"><ele>276.8</ele><time>2026-03-28T13:47:33.097Z</time></trkpt><trkpt lat="45.8219377" lon="13.7898268"><ele>276.40000000000003</ele><time>2026-03-28T13:47:34.11Z</time></trkpt><trkpt lat="45.8218942" lon="13.7899593"><ele>276.0</ele><time>2026-03-28T13:47:35.094Z</time></trkpt><trkpt lat="45.8218699" lon="13.790106"><ele>275.8</ele><time>2026-03-28T13:47:36.106Z</time></trkpt><trkpt lat="45.8218554" lon="13.7902445"><ele>275.6</ele><time>2026-03-28T13:47:37.103Z</time></trkpt><trkpt lat="45.8218424" lon="13.7904023"><ele>275.4</ele><time>2026-03-28T13:47:38.104Z</time></trkpt><trkpt lat="45.8218292" lon="13.7905547"><ele>275.2</ele><time>2026-03-28T13:47:39.098Z</time></trkpt><trkpt lat="45.8218141" lon="13.7906952"><ele>275.0</ele><time>2026-03-28T13:47:40.1Z</time></trkpt><trkpt lat="45.8217994" lon="13.7908191"><ele>274.6</ele><time>2026-03-28T13:47:41.101Z</time></trkpt><trkpt lat="45.8217692" lon="13.7909414"><ele>274.2</ele><time>2026-03-28T13:47:42.106Z</time></trkpt><trkpt lat="45.82172" lon="13.7910598"><ele>273.8</ele><time>2026-03-28T13:47:43.1Z</time></trkpt><trkpt lat="45.8216635" lon="13.7911882"><ele>273.4</ele><time>2026-03-28T13:47:44.105Z</time></trkpt><trkpt lat="45.8216005" lon="13.791308"><ele>273.0</ele><time>2026-03-28T13:47:45.096Z</time></trkpt><trkpt lat="45.8215429" lon="13.7914291"><ele>273.0</ele><time>2026-03-28T13:47:46.09Z</time></trkpt><trkpt lat="45.8214913" lon="13.7915586"><ele>273.0</ele><time>2026-03-28T13:47:47.088Z</time></trkpt><trkpt lat="45.8214344" lon="13.7916809"><ele>273.0</ele><time>2026-03-28T13:47:48.101Z</time></trkpt><trkpt lat="45.8213745" lon="13.7917898"><ele>273.0</ele><time>2026-03-28T13:47:49.087Z</time></trkpt><trkpt lat="45.821313" lon="13.7919048"><ele>273.0</ele><time>2026-03-28T13:47:50.097Z</time></trkpt><trkpt lat="45.8212627" lon="13.7920403"><ele>273.8</ele><time>2026-03-28T13:47:51.092Z</time></trkpt><trkpt lat="45.821218" lon="13.7921863"><ele>274.6</ele><time>2026-03-28T13:47:52.08Z</time></trkpt><trkpt lat="45.8211923" lon="13.7923413"><ele>275.4</ele><time>2026-03-28T13:47:53.087Z</time></trkpt><trkpt lat="45.8211734" lon="13.792483"><ele>276.2</ele><time>2026-03-28T13:47:54.097Z</time></trkpt><trkpt lat="45.8211664" lon="13.7926126"><ele>277.0</ele><time>2026-03-28T13:47:55.102Z</time></trkpt><trkpt lat="45.8211682" lon="13.7927197"><ele>277.2</ele><time>2026-03-28T13:47:56.101Z</time></trkpt><trkpt lat="45.8211514" lon="13.7928329"><ele>277.4</ele><time>2026-03-28T13:47:57.101Z</time></trkpt><trkpt lat="45.8211039" lon="13.7929372"><ele>277.6</ele><time>2026-03-28T13:47:58.108Z</time></trkpt><trkpt lat="45.8210552" lon="13.7930315"><ele>277.8</ele><time>2026-03-28T13:47:59.103Z</time></trkpt><trkpt lat="45.8210005" lon="13.7931479"><ele>278.0</ele><time>2026-03-28T13:48:00.095Z</time></trkpt><trkpt lat="45.8209449" lon="13.7932859"><ele>277.6</ele><time>2026-03-28T13:48:01.1Z</time></trkpt><trkpt lat="45.8208979" lon="13.7934219"><ele>277.20000000000005</ele><time>2026-03-28T13:48:02.102Z</time></trkpt><trkpt lat="45.8208519" lon="13.7935572"><ele>276.8</ele><time>2026-03-28T13:48:03.099Z</time></trkpt><trkpt lat="45.8208094" lon="13.7937002"><ele>276.40000000000003</ele><time>2026-03-28T13:48:04.098Z</time></trkpt><trkpt lat="45.8207681" lon="13.7938538"><ele>276.0</ele><time>2026-03-28T13:48:05.09Z</time></trkpt><trkpt lat="45.8207213" lon="13.7940083"><ele>276.0</ele><time>2026-03-28T13:48:06.095Z</time></trkpt><trkpt lat="45.8206698" lon="13.7941492"><ele>276.0</ele><time>2026-03-28T13:48:07.102Z</time></trkpt><trkpt lat="45.8206216" lon="13.794299"><ele>276.0</ele><time>2026-03-28T13:48:08.105Z</time></trkpt><trkpt lat="45.8205851" lon="13.7944455"><ele>276.0</ele><time>2026-03-28T13:48:09.097Z</time></trkpt><trkpt lat="45.820551" lon="13.794577"><ele>276.0</ele><time>2026-03-28T13:48:10.106Z</time></trkpt><trkpt lat="45.8205066" lon="13.7946912"><ele>276.6</ele><time>2026-03-28T13:48:11.09Z</time></trkpt><trkpt lat="45.8204501" lon="13.7947935"><ele>277.20000000000005</ele><time>2026-03-28T13:48:12.099Z</time></trkpt><trkpt lat="45.8204079" lon="13.7949012"><ele>277.79999999999995</ele><time>2026-03-28T13:48:13.108Z</time></trkpt><trkpt lat="45.8203989" lon="13.7950283"><ele>278.4</ele><time>2026-03-28T13:48:14.095Z</time></trkpt><trkpt lat="45.8204144" lon="13.795174"><ele>279.0</ele><time>2026-03-28T13:48:15.073Z</time></trkpt><trkpt lat="45.8204374" lon="13.7953231"><ele>279.2</ele><time>2026-03-28T13:48:16.078Z</time></trkpt><trkpt lat="45.8204664" lon="13.7954707"><ele>279.4</ele><time>2026-03-28T13:48:17.091Z</time></trkpt><trkpt lat="45.8204952" lon="13.7956142"><ele>279.6</ele><time>2026-03-28T13:48:18.094Z</time></trkpt><trkpt lat="45.820524" lon="13.7957582"><ele>279.8</ele><time>2026-03-28T13:48:19.101Z</time></trkpt><trkpt lat="45.8205408" lon="13.7959075"><ele>280.0</ele><time>2026-03-28T13:48:20.087Z</time></trkpt><trkpt lat="45.8205532" lon="13.7960571"><ele>280.6</ele><time>2026-03-28T13:48:21.099Z</time></trkpt><trkpt lat="45.8205723" lon="13.7962105"><ele>281.2</ele><time>2026-03-28T13:48:22.093Z</time></trkpt><trkpt lat="45.8205716" lon="13.7963608"><ele>281.8</ele><time>2026-03-28T13:48:23.089Z</time></trkpt><trkpt lat="45.8205495" lon="13.7965003"><ele>282.4</ele><time>2026-03-28T13:48:24.084Z</time></trkpt><trkpt lat="45.820509" lon="13.7966541"><ele>283.0</ele><time>2026-03-28T13:48:25.077Z</time></trkpt><trkpt lat="45.8204632" lon="13.7968044"><ele>283.0</ele><time>2026-03-28T13:48:26.108Z</time></trkpt><trkpt lat="45.8204252" lon="13.7969603"><ele>283.0</ele><time>2026-03-28T13:48:27.089Z</time></trkpt><trkpt lat="45.8203895" lon="13.7971295"><ele>283.0</ele><time>2026-03-28T13:48:28.086Z</time></trkpt><trkpt lat="45.8203472" lon="13.7972945"><ele>283.0</ele><time>2026-03-28T13:48:29.082Z</time></trkpt><trkpt lat="45.8202999" lon="13.797432"><ele>283.0</ele><time>2026-03-28T13:48:30.085Z</time></trkpt><trkpt lat="45.8202269" lon="13.7975558"><ele>283.0</ele><time>2026-03-28T13:48:31.088Z</time></trkpt><trkpt lat="45.8201475" lon="13.7976747"><ele>283.0</ele><time>2026-03-28T13:48:32.087Z</time></trkpt><trkpt lat="45.820063" lon="13.797795"><ele>283.0</ele><time>2026-03-28T13:48:33.09Z</time></trkpt><trkpt lat="45.8199748" lon="13.7979195"><ele>282.25</ele><time>2026-03-28T13:48:34.085Z</time></trkpt><trkpt lat="45.819883" lon="13.7980533"><ele>281.5</ele><time>2026-03-28T13:48:35.074Z</time></trkpt><trkpt lat="45.8197973" lon="13.7981915"><ele>280.75</ele><time>2026-03-28T13:48:36.079Z</time></trkpt><trkpt lat="45.8197152" lon="13.7983031"><ele>280.0</ele><time>2026-03-28T13:48:37.083Z</time></trkpt><trkpt lat="45.8196362" lon="13.79839"><ele>280.0</ele><time>2026-03-28T13:48:38.083Z</time></trkpt><trkpt lat="45.8195674" lon="13.7984785"><ele>280.0</ele><time>2026-03-28T13:48:39.09Z</time></trkpt><trkpt lat="45.8195269" lon="13.7985856"><ele>280.0</ele><time>2026-03-28T13:48:40.089Z</time></trkpt><trkpt lat="45.8194982" lon="13.7987197"><ele>280.0</ele><time>2026-03-28T13:48:41.078Z</time></trkpt><trkpt lat="45.8194817" lon="13.7988531"><ele>280.0</ele><time>2026-03-28T13:48:42.082Z</time></trkpt><trkpt lat="45.8194771" lon="13.7989957"><ele>280.14285714285717</ele><time>2026-03-28T13:48:43.1Z</time></trkpt><trkpt lat="45.8194726" lon="13.7991243"><ele>280.2857142857143</ele><time>2026-03-28T13:48:44.086Z</time></trkpt><trkpt lat="45.8194658" lon="13.7992324"><ele>280.42857142857144</ele><time>2026-03-28T13:48:45.105Z</time></trkpt><trkpt lat="45.8194532" lon="13.7993382"><ele>280.57142857142856</ele><time>2026-03-28T13:48:46.086Z</time></trkpt><trkpt lat="45.8194378" lon="13.7994297"><ele>280.7142857142857</ele><time>2026-03-28T13:48:47.077Z</time></trkpt><trkpt lat="45.8194054" lon="13.7995173"><ele>280.8571428571429</ele><time>2026-03-28T13:48:48.09Z</time></trkpt><trkpt lat="45.8193556" lon="13.7995928"><ele>281.0</ele><time>2026-03-28T13:48:49.08Z</time></trkpt><trkpt lat="45.8192937" lon="13.7996625"><ele>281.1666666666667</ele><time>2026-03-28T13:48:50.084Z</time></trkpt><trkpt lat="45.8192313" lon="13.7997137"><ele>281.33333333333337</ele><time>2026-03-28T13:48:51.074Z</time></trkpt><trkpt lat="45.8191672" lon="13.7997566"><ele>281.5</ele><time>2026-03-28T13:48:52.093Z</time></trkpt><trkpt lat="45.8190911" lon="13.7997964"><ele>281.6666666666667</ele><time>2026-03-28T13:48:53.081Z</time></trkpt><trkpt lat="45.8190081" lon="13.799827"><ele>281.8333333333333</ele><time>2026-03-28T13:48:54.078Z</time></trkpt><trkpt lat="45.8189229" lon="13.7998625"><ele>282.0</ele><time>2026-03-28T13:48:55.09Z</time></trkpt><trkpt lat="45.8188398" lon="13.7998997"><ele>282.0</ele><time>2026-03-28T13:48:56.084Z</time></trkpt><trkpt lat="45.8187683" lon="13.7999588"><ele>282.0</ele><time>2026-03-28T13:48:57.096Z</time></trkpt><trkpt lat="45.818718" lon="13.8000541"><ele>282.0</ele><time>2026-03-28T13:48:58.096Z</time></trkpt><trkpt lat="45.8186742" lon="13.8001724"><ele>282.0</ele><time>2026-03-28T13:48:59.079Z</time></trkpt><trkpt lat="45.8186245" lon="13.8002918"><ele>282.0</ele><time>2026-03-28T13:49:00.076Z</time></trkpt><trkpt lat="45.8185709" lon="13.8004171"><ele>282.4</ele><time>2026-03-28T13:49:01.075Z</time></trkpt><trkpt lat="45.8185087" lon="13.8005362"><ele>282.79999999999995</ele><time>2026-03-28T13:49:02.104Z</time></trkpt><trkpt lat="45.8184516" lon="13.8006621"><ele>283.2</ele><time>2026-03-28T13:49:03.085Z</time></trkpt><trkpt lat="45.8183983" lon="13.8007937"><ele>283.59999999999997</ele><time>2026-03-28T13:49:04.107Z</time></trkpt><trkpt lat="45.8183457" lon="13.8009145"><ele>284.0</ele><time>2026-03-28T13:49:05.079Z</time></trkpt><trkpt lat="45.8182825" lon="13.8010248"><ele>286.2</ele><time>2026-03-28T13:49:06.084Z</time></trkpt><trkpt lat="45.818209" lon="13.8011243"><ele>288.4</ele><time>2026-03-28T13:49:07.09Z</time></trkpt><trkpt lat="45.8181356" lon="13.8012208"><ele>290.6</ele><time>2026-03-28T13:49:08.089Z</time></trkpt><trkpt lat="45.8180604" lon="13.8013257"><ele>292.8</ele><time>2026-03-28T13:49:09.095Z</time></trkpt><trkpt lat="45.8179912" lon="13.8014355"><ele>295.0</ele><time>2026-03-28T13:49:10.098Z</time></trkpt><trkpt lat="45.817957" lon="13.8015444"><ele>295.0</ele><time>2026-03-28T13:49:11.106Z</time></trkpt><trkpt lat="45.8179573" lon="13.8016566"><ele>295.0</ele><time>2026-03-28T13:49:12.081Z</time></trkpt><trkpt lat="45.8179886" lon="13.8017642"><ele>295.0</ele><time>2026-03-28T13:49:13.08Z</time></trkpt><trkpt lat="45.8180308" lon="13.801884"><ele>295.0</ele><time>2026-03-28T13:49:14.081Z</time></trkpt><trkpt lat="45.8180717" lon="13.8020138"><ele>295.0</ele><time>2026-03-28T13:49:15.081Z</time></trkpt><trkpt lat="45.8181047" lon="13.8021506"><ele>295.6</ele><time>2026-03-28T13:49:16.107Z</time></trkpt><trkpt lat="45.8181417" lon="13.8022853"><ele>296.2</ele><time>2026-03-28T13:49:17.091Z</time></trkpt><trkpt lat="45.8181846" lon="13.8024168"><ele>296.8</ele><time>2026-03-28T13:49:18.091Z</time></trkpt><trkpt lat="45.8182371" lon="13.8025455"><ele>297.4</ele><time>2026-03-28T13:49:19.097Z</time></trkpt><trkpt lat="45.8182779" lon="13.8026768"><ele>298.0</ele><time>2026-03-28T13:49:20.093Z</time></trkpt><trkpt lat="45.8182982" lon="13.8028281"><ele>299.2</ele><time>2026-03-28T13:49:21.086Z</time></trkpt><trkpt lat="45.8183157" lon="13.8029772"><ele>300.4</ele><time>2026-03-28T13:49:22.094Z</time></trkpt><trkpt lat="45.8183195" lon="13.8031277"><ele>301.59999999999997</ele><time>2026-03-28T13:49:23.096Z</time></trkpt><trkpt lat="45.8183126" lon="13.8032756"><ele>302.8</ele><time>2026-03-28T13:49:24.097Z</time></trkpt><trkpt lat="45.8182889" lon="13.8034253"><ele>304.0</ele><time>2026-03-28T13:49:25.091Z</time></trkpt><trkpt lat="45.818261" lon="13.8035766"><ele>305.0</ele><time>2026-03-28T13:49:26.092Z</time></trkpt><trkpt lat="45.8182354" lon="13.8037328"><ele>306.0</ele><time>2026-03-28T13:49:27.09Z</time></trkpt><trkpt lat="45.8182056" lon="13.8038925"><ele>307.0</ele><time>2026-03-28T13:49:28.097Z</time></trkpt><trkpt lat="45.818186" lon="13.8040513"><ele>308.0</ele><time>2026-03-28T13:49:29.093Z</time></trkpt><trkpt lat="45.8181788" lon="13.8042095"><ele>308.8</ele><time>2026-03-28T13:49:30.09Z</time></trkpt><trkpt lat="45.8181894" lon="13.8043686"><ele>309.6</ele><time>2026-03-28T13:49:31.096Z</time></trkpt><trkpt lat="45.8182121" lon="13.8045248"><ele>310.4</ele><time>2026-03-28T13:49:32.083Z</time></trkpt><trkpt lat="45.8182301" lon="13.8046836"><ele>311.2</ele><time>2026-03-28T13:49:33.095Z</time></trkpt><trkpt lat="45.8182347" lon="13.8048334"><ele>312.0</ele><time>2026-03-28T13:49:34.101Z</time></trkpt><trkpt lat="45.8182258" lon="13.8049751"><ele>312.0</ele><time>2026-03-28T13:49:35.097Z</time></trkpt><trkpt lat="45.8182099" lon="13.8051253"><ele>312.0</ele><time>2026-03-28T13:49:36.087Z</time></trkpt><trkpt lat="45.8181786" lon="13.8052765"><ele>312.0</ele><time>2026-03-28T13:49:37.092Z</time></trkpt><trkpt lat="45.818134" lon="13.8054115"><ele>312.0</ele><time>2026-03-28T13:49:38.092Z</time></trkpt><trkpt lat="45.8180936" lon="13.8055332"><ele>312.0</ele><time>2026-03-28T13:49:39.087Z</time></trkpt><trkpt lat="45.8180621" lon="13.8056373"><ele>312.0</ele><time>2026-03-28T13:49:40.084Z</time></trkpt><trkpt lat="45.8180309" lon="13.8057363"><ele>312.0</ele><time>2026-03-28T13:49:41.105Z</time></trkpt><trkpt lat="45.8179951" lon="13.80583"><ele>312.0</ele><time>2026-03-28T13:49:42.083Z</time></trkpt><trkpt lat="45.8179556" lon="13.8059133"><ele>312.0</ele><time>2026-03-28T13:49:43.101Z</time></trkpt><trkpt lat="45.8178991" lon="13.8060092"><ele>312.0</ele><time>2026-03-28T13:49:45.094Z</time></trkpt><trkpt lat="45.8179164" lon="13.8061329"><ele>312.0</ele><time>2026-03-28T13:49:48.085Z</time></trkpt><trkpt lat="45.8180359" lon="13.8061989"><ele>312.6666666666667</ele><time>2026-03-28T13:49:50.076Z</time></trkpt><trkpt lat="45.8181154" lon="13.8062352"><ele>313.3333333333333</ele><time>2026-03-28T13:49:51.078Z</time></trkpt><trkpt lat="45.8182026" lon="13.8062971"><ele>314.0</ele><time>2026-03-28T13:49:52.087Z</time></trkpt><trkpt lat="45.8182788" lon="13.8063653"><ele>314.66666666666663</ele><time>2026-03-28T13:49:53.09Z</time></trkpt><trkpt lat="45.8183375" lon="13.8064366"><ele>315.3333333333333</ele><time>2026-03-28T13:49:54.091Z</time></trkpt><trkpt lat="45.8183889" lon="13.8065122"><ele>316.0</ele><time>2026-03-28T13:49:55.086Z</time></trkpt><trkpt lat="45.8184385" lon="13.8066051"><ele>316.0</ele><time>2026-03-28T13:49:56.08Z</time></trkpt><trkpt lat="45.8184773" lon="13.8067076"><ele>316.0</ele><time>2026-03-28T13:49:57.092Z</time></trkpt><trkpt lat="45.8185082" lon="13.806817"><ele>316.0</ele><time>2026-03-28T13:49:58.094Z</time></trkpt><trkpt lat="45.8185409" lon="13.8069136"><ele>316.0</ele><time>2026-03-28T13:49:59.083Z</time></trkpt><trkpt lat="45.8185797" lon="13.8069921"><ele>316.0</ele><time>2026-03-28T13:50:00.102Z</time></trkpt><trkpt lat="45.8186377" lon="13.8070482"><ele>316.0</ele><time>2026-03-28T13:50:01.08Z</time></trkpt><trkpt lat="45.8187147" lon="13.8070956"><ele>316.3333333333333</ele><time>2026-03-28T13:50:02.075Z</time></trkpt><trkpt lat="45.8187939" lon="13.8071482"><ele>316.66666666666663</ele><time>2026-03-28T13:50:03.089Z</time></trkpt><trkpt lat="45.8188664" lon="13.8072123"><ele>317.0</ele><time>2026-03-28T13:50:04.098Z</time></trkpt><trkpt lat="45.8189317" lon="13.8072938"><ele>317.3333333333333</ele><time>2026-03-28T13:50:05.102Z</time></trkpt><trkpt lat="45.8189908" lon="13.8073886"><ele>317.6666666666667</ele><time>2026-03-28T13:50:06.096Z</time></trkpt><trkpt lat="45.8190528" lon="13.8074782"><ele>318.0</ele><time>2026-03-28T13:50:07.12Z</time></trkpt><trkpt lat="45.8191176" lon="13.8075676"><ele>318.0</ele><time>2026-03-28T13:50:08.091Z</time></trkpt><trkpt lat="45.8191844" lon="13.807652"><ele>318.0</ele><time>2026-03-28T13:50:09.088Z</time></trkpt><trkpt lat="45.8192506" lon="13.8077245"><ele>318.0</ele><time>2026-03-28T13:50:10.084Z</time></trkpt><trkpt lat="45.8193178" lon="13.80779"><ele>318.0</ele><time>2026-03-28T13:50:11.091Z</time></trkpt><trkpt lat="45.8193846" lon="13.8078453"><ele>318.0</ele><time>2026-03-28T13:50:12.097Z</time></trkpt><trkpt lat="45.8194483" lon="13.807904"><ele>318.0</ele><time>2026-03-28T13:50:13.098Z</time></trkpt><trkpt lat="45.8195146" lon="13.8079614"><ele>316.6</ele><time>2026-03-28T13:50:14.107Z</time></trkpt><trkpt lat="45.8195833" lon="13.8080092"><ele>315.20000000000005</ele><time>2026-03-28T13:50:15.095Z</time></trkpt><trkpt lat="45.8196629" lon="13.808052"><ele>313.8</ele><time>2026-03-28T13:50:16.126Z</time></trkpt><trkpt lat="45.8197567" lon="13.8080734"><ele>312.40000000000003</ele><time>2026-03-28T13:50:17.094Z</time></trkpt><trkpt lat="45.8198738" lon="13.8080777"><ele>311.0</ele><time>2026-03-28T13:50:18.08Z</time></trkpt><trkpt lat="45.8199934" lon="13.8080858"><ele>311.0</ele><time>2026-03-28T13:50:19.095Z</time></trkpt><trkpt lat="45.8201102" lon="13.8081076"><ele>311.0</ele><time>2026-03-28T13:50:20.085Z</time></trkpt><trkpt lat="45.8202216" lon="13.8081265"><ele>311.0</ele><time>2026-03-28T13:50:21.1Z</time></trkpt><trkpt lat="45.8203314" lon="13.8081389"><ele>311.0</ele><time>2026-03-28T13:50:22.106Z</time></trkpt><trkpt lat="45.8204497" lon="13.808153"><ele>310.25</ele><time>2026-03-28T13:50:23.108Z</time></trkpt><trkpt lat="45.8205695" lon="13.8081681"><ele>309.5</ele><time>2026-03-28T13:50:24.095Z</time></trkpt><trkpt lat="45.82071" lon="13.808192"><ele>308.75</ele><time>2026-03-28T13:50:25.102Z</time></trkpt><trkpt lat="45.8208566" lon="13.8082516"><ele>308.0</ele><time>2026-03-28T13:50:26.096Z</time></trkpt><trkpt lat="45.8210009" lon="13.8083007"><ele>309.5</ele><time>2026-03-28T13:50:27.094Z</time></trkpt><trkpt lat="45.821132" lon="13.8083586"><ele>311.0</ele><time>2026-03-28T13:50:28.099Z</time></trkpt><trkpt lat="45.8212483" lon="13.8084197"><ele>312.5</ele><time>2026-03-28T13:50:29.088Z</time></trkpt><trkpt lat="45.8213596" lon="13.8084865"><ele>314.0</ele><time>2026-03-28T13:50:30.112Z</time></trkpt><trkpt lat="45.8214699" lon="13.8085624"><ele>314.59999999999997</ele><time>2026-03-28T13:50:31.083Z</time></trkpt><trkpt lat="45.8215796" lon="13.8086435"><ele>315.2</ele><time>2026-03-28T13:50:32.094Z</time></trkpt><trkpt lat="45.8216831" lon="13.8087278"><ele>315.79999999999995</ele><time>2026-03-28T13:50:33.082Z</time></trkpt><trkpt lat="45.8217686" lon="13.8088064"><ele>316.4</ele><time>2026-03-28T13:50:34.092Z</time></trkpt><trkpt lat="45.8218573" lon="13.8088826"><ele>317.0</ele><time>2026-03-28T13:50:35.099Z</time></trkpt><trkpt lat="45.8219353" lon="13.8089665"><ele>318.2</ele><time>2026-03-28T13:50:36.096Z</time></trkpt><trkpt lat="45.8220055" lon="13.8090719"><ele>319.4</ele><time>2026-03-28T13:50:37.096Z</time></trkpt><trkpt lat="45.8220653" lon="13.8091993"><ele>320.59999999999997</ele><time>2026-03-28T13:50:38.09Z</time></trkpt><trkpt lat="45.8221245" lon="13.8093431"><ele>321.79999999999995</ele><time>2026-03-28T13:50:39.096Z</time></trkpt><trkpt lat="45.8221918" lon="13.8094855"><ele>323.0</ele><time>2026-03-28T13:50:40.096Z</time></trkpt><trkpt lat="45.822259" lon="13.8096336"><ele>323.25</ele><time>2026-03-28T13:50:41.096Z</time></trkpt><trkpt lat="45.8223286" lon="13.8097833"><ele>323.5</ele><time>2026-03-28T13:50:42.099Z</time></trkpt><trkpt lat="45.8223982" lon="13.8099356"><ele>323.75</ele><time>2026-03-28T13:50:43.095Z</time></trkpt><trkpt lat="45.8224604" lon="13.8100719"><ele>324.0</ele><time>2026-03-28T13:50:44.093Z</time></trkpt><trkpt lat="45.822499" lon="13.8102002"><ele>324.1666666666667</ele><time>2026-03-28T13:50:45.09Z</time></trkpt><trkpt lat="45.8225324" lon="13.8103158"><ele>324.3333333333333</ele><time>2026-03-28T13:50:46.094Z</time></trkpt><trkpt lat="45.8225742" lon="13.8104101"><ele>324.5</ele><time>2026-03-28T13:50:47.094Z</time></trkpt><trkpt lat="45.8226425" lon="13.8104911"><ele>324.66666666666663</ele><time>2026-03-28T13:50:48.094Z</time></trkpt><trkpt lat="45.8227216" lon="13.81056"><ele>324.8333333333333</ele><time>2026-03-28T13:50:49.079Z</time></trkpt><trkpt lat="45.8228041" lon="13.8106159"><ele>325.0</ele><time>2026-03-28T13:50:50.123Z</time></trkpt><trkpt lat="45.8228927" lon="13.8106532"><ele>326.0</ele><time>2026-03-28T13:50:51.085Z</time></trkpt><trkpt lat="45.822978" lon="13.8106495"><ele>327.0</ele><time>2026-03-28T13:50:52.073Z</time></trkpt><trkpt lat="45.8230509" lon="13.8106196"><ele>328.0</ele><time>2026-03-28T13:50:53.079Z</time></trkpt><trkpt lat="45.8231231" lon="13.8105816"><ele>329.0</ele><time>2026-03-28T13:50:54.075Z</time></trkpt><trkpt lat="45.8232024" lon="13.8105695"><ele>330.0</ele><time>2026-03-28T13:50:55.115Z</time></trkpt><trkpt lat="45.8232966" lon="13.8105936"><ele>331.0</ele><time>2026-03-28T13:50:56.083Z</time></trkpt><trkpt lat="45.8233985" lon="13.8106288"><ele>333.5</ele><time>2026-03-28T13:50:57.075Z</time></trkpt><trkpt lat="45.8235074" lon="13.8106525"><ele>336.0</ele><time>2026-03-28T13:50:58.092Z</time></trkpt><trkpt lat="45.8236206" lon="13.810671"><ele>338.5</ele><time>2026-03-28T13:50:59.092Z</time></trkpt><trkpt lat="45.8237366" lon="13.8106851"><ele>341.0</ele><time>2026-03-28T13:51:00.084Z</time></trkpt><trkpt lat="45.8238445" lon="13.8107098"><ele>341.0</ele><time>2026-03-28T13:51:01.102Z</time></trkpt><trkpt lat="45.8239178" lon="13.8107251"><ele>341.0</ele><time>2026-03-28T13:51:02.078Z</time></trkpt><trkpt lat="45.8239585" lon="13.8108299"><ele>341.0</ele><time>2026-03-28T13:51:05.076Z</time></trkpt><trkpt lat="45.823925" lon="13.8109322"><ele>341.0</ele><time>2026-03-28T13:51:06.07Z</time></trkpt><trkpt lat="45.8239048" lon="13.8110711"><ele>341.0</ele><time>2026-03-28T13:51:07.074Z</time></trkpt><trkpt lat="45.8238939" lon="13.8112389"><ele>341.5</ele><time>2026-03-28T13:51:08.097Z</time></trkpt><trkpt lat="45.8238894" lon="13.8114139"><ele>342.0</ele><time>2026-03-28T13:51:09.098Z</time></trkpt><trkpt lat="45.8238907" lon="13.8115825"><ele>342.5</ele><time>2026-03-28T13:51:10.085Z</time></trkpt><trkpt lat="45.8239057" lon="13.8117463"><ele>343.0</ele><time>2026-03-28T13:51:11.091Z</time></trkpt><trkpt lat="45.8239422" lon="13.8119053"><ele>344.0</ele><time>2026-03-28T13:51:12.092Z</time></trkpt><trkpt lat="45.8240123" lon="13.812064"><ele>345.0</ele><time>2026-03-28T13:51:13.08Z</time></trkpt><trkpt lat="45.8240956" lon="13.8122284"><ele>346.0</ele><time>2026-03-28T13:51:14.09Z</time></trkpt><trkpt lat="45.8241734" lon="13.8124108"><ele>347.0</ele><time>2026-03-28T13:51:15.092Z</time></trkpt><trkpt lat="45.824233" lon="13.8126228"><ele>347.5</ele><time>2026-03-28T13:51:16.083Z</time></trkpt><trkpt lat="45.8242797" lon="13.8128427"><ele>348.0</ele><time>2026-03-28T13:51:17.081Z</time></trkpt><trkpt lat="45.8243256" lon="13.8130297"><ele>348.5</ele><time>2026-03-28T13:51:18.096Z</time></trkpt><trkpt lat="45.8243632" lon="13.8131727"><ele>349.0</ele><time>2026-03-28T13:51:19.089Z</time></trkpt><trkpt lat="45.8243782" lon="13.813286"><ele>349.0</ele><time>2026-03-28T13:51:20.102Z</time></trkpt><trkpt lat="45.8243557" lon="13.8134082"><ele>349.0</ele><time>2026-03-28T13:51:21.096Z</time></trkpt><trkpt lat="45.824295" lon="13.8135364"><ele>349.0</ele><time>2026-03-28T13:51:22.075Z</time></trkpt><trkpt lat="45.8242154" lon="13.8136778"><ele>349.0</ele><time>2026-03-28T13:51:23.069Z</time></trkpt><trkpt lat="45.8241176" lon="13.8138194"><ele>349.0</ele><time>2026-03-28T13:51:24.083Z</time></trkpt><trkpt lat="45.8240117" lon="13.8139856"><ele>349.0</ele><time>2026-03-28T13:51:25.095Z</time></trkpt><trkpt lat="45.8239088" lon="13.8141544"><ele>349.0</ele><time>2026-03-28T13:51:26.084Z</time></trkpt><trkpt lat="45.8238133" lon="13.8143126"><ele>348.79999999999995</ele><time>2026-03-28T13:51:27.096Z</time></trkpt><trkpt lat="45.8237269" lon="13.8144421"><ele>348.59999999999997</ele><time>2026-03-28T13:51:28.086Z</time></trkpt><trkpt lat="45.8236676" lon="13.8145492"><ele>348.4</ele><time>2026-03-28T13:51:29.092Z</time></trkpt><trkpt lat="45.8236453" lon="13.814666"><ele>348.2</ele><time>2026-03-28T13:51:30.089Z</time></trkpt><trkpt lat="45.8236427" lon="13.8147895"><ele>348.0</ele><time>2026-03-28T13:51:31.077Z</time></trkpt><trkpt lat="45.8236426" lon="13.8149112"><ele>348.0</ele><time>2026-03-28T13:51:32.073Z</time></trkpt><trkpt lat="45.8236386" lon="13.8150391"><ele>348.0</ele><time>2026-03-28T13:51:33.092Z</time></trkpt><trkpt lat="45.8236222" lon="13.8151584"><ele>348.0</ele><time>2026-03-28T13:51:34.093Z</time></trkpt><trkpt lat="45.8235872" lon="13.8152761"><ele>348.0</ele><time>2026-03-28T13:51:35.088Z</time></trkpt><trkpt lat="45.8235454" lon="13.8154069"><ele>348.0</ele><time>2026-03-28T13:51:36.104Z</time></trkpt><trkpt lat="45.8235009" lon="13.815549"><ele>347.25</ele><time>2026-03-28T13:51:37.095Z</time></trkpt><trkpt lat="45.8234549" lon="13.8156939"><ele>346.5</ele><time>2026-03-28T13:51:38.083Z</time></trkpt><trkpt lat="45.8233969" lon="13.8158459"><ele>345.75</ele><time>2026-03-28T13:51:39.081Z</time></trkpt><trkpt lat="45.8233237" lon="13.8160005"><ele>345.0</ele><time>2026-03-28T13:51:40.084Z</time></trkpt><trkpt lat="45.8232354" lon="13.8161786"><ele>345.0</ele><time>2026-03-28T13:51:41.103Z</time></trkpt><trkpt lat="45.8231478" lon="13.8163627"><ele>345.0</ele><time>2026-03-28T13:51:42.098Z</time></trkpt><trkpt lat="45.8230744" lon="13.8165322"><ele>345.0</ele><time>2026-03-28T13:51:43.09Z</time></trkpt><trkpt lat="45.823012" lon="13.8167053"><ele>345.0</ele><time>2026-03-28T13:51:44.09Z</time></trkpt><trkpt lat="45.822966" lon="13.8168827"><ele>345.5</ele><time>2026-03-28T13:51:45.095Z</time></trkpt><trkpt lat="45.8229377" lon="13.8170757"><ele>346.0</ele><time>2026-03-28T13:51:46.091Z</time></trkpt><trkpt lat="45.8229089" lon="13.8172624"><ele>346.5</ele><time>2026-03-28T13:51:47.09Z</time></trkpt><trkpt lat="45.8228803" lon="13.8174524"><ele>347.0</ele><time>2026-03-28T13:51:48.097Z</time></trkpt><trkpt lat="45.8228412" lon="13.8176152"><ele>346.5</ele><time>2026-03-28T13:51:49.092Z</time></trkpt><trkpt lat="45.822791" lon="13.817763"><ele>346.0</ele><time>2026-03-28T13:51:50.116Z</time></trkpt><trkpt lat="45.822735" lon="13.8178871"><ele>345.5</ele><time>2026-03-28T13:51:51.092Z</time></trkpt><trkpt lat="45.822658" lon="13.8180182"><ele>345.0</ele><time>2026-03-28T13:51:52.087Z</time></trkpt><trkpt lat="45.8225721" lon="13.8181493"><ele>344.75</ele><time>2026-03-28T13:51:53.071Z</time></trkpt><trkpt lat="45.8224814" lon="13.8182751"><ele>344.5</ele><time>2026-03-28T13:51:54.086Z</time></trkpt><trkpt lat="45.8223865" lon="13.8183787"><ele>344.25</ele><time>2026-03-28T13:51:55.088Z</time></trkpt><trkpt lat="45.8222863" lon="13.8184795"><ele>344.0</ele><time>2026-03-28T13:51:56.079Z</time></trkpt><trkpt lat="45.8221805" lon="13.8185747"><ele>344.0</ele><time>2026-03-28T13:51:57.09Z</time></trkpt><trkpt lat="45.8220725" lon="13.8186595"><ele>344.0</ele><time>2026-03-28T13:51:58.086Z</time></trkpt><trkpt lat="45.8219687" lon="13.8187408"><ele>344.0</ele><time>2026-03-28T13:51:59.089Z</time></trkpt><trkpt lat="45.8218673" lon="13.8188204"><ele>344.0</ele><time>2026-03-28T13:52:00.081Z</time></trkpt><trkpt lat="45.8217653" lon="13.8189061"><ele>344.0</ele><time>2026-03-28T13:52:01.08Z</time></trkpt><trkpt lat="45.821664" lon="13.8189932"><ele>344.0</ele><time>2026-03-28T13:52:02.093Z</time></trkpt><trkpt lat="45.8215592" lon="13.8190698"><ele>344.0</ele><time>2026-03-28T13:52:03.091Z</time></trkpt><trkpt lat="45.8214522" lon="13.8191338"><ele>344.0</ele><time>2026-03-28T13:52:04.096Z</time></trkpt><trkpt lat="45.8213494" lon="13.8191761"><ele>344.0</ele><time>2026-03-28T13:52:05.086Z</time></trkpt><trkpt lat="45.8212639" lon="13.8191921"><ele>344.0</ele><time>2026-03-28T13:52:06.095Z</time></trkpt><trkpt lat="45.8211893" lon="13.8191859"><ele>344.0</ele><time>2026-03-28T13:52:07.091Z</time></trkpt><trkpt lat="45.8211226" lon="13.8191726"><ele>344.0</ele><time>2026-03-28T13:52:08.096Z</time></trkpt><trkpt lat="45.8210134" lon="13.8191976"><ele>344.0</ele><time>2026-03-28T13:52:10.083Z</time></trkpt><trkpt lat="45.8209686" lon="13.8193271"><ele>344.0</ele><time>2026-03-28T13:52:12.08Z</time></trkpt><trkpt lat="45.8209727" lon="13.81943"><ele>342.79999999999995</ele><time>2026-03-28T13:52:13.078Z</time></trkpt><trkpt lat="45.8209935" lon="13.8195448"><ele>341.59999999999997</ele><time>2026-03-28T13:52:14.076Z</time></trkpt><trkpt lat="45.8210105" lon="13.8196663"><ele>340.4</ele><time>2026-03-28T13:52:15.08Z</time></trkpt><trkpt lat="45.8210195" lon="13.8198016"><ele>339.2</ele><time>2026-03-28T13:52:16.1Z</time></trkpt><trkpt lat="45.8210295" lon="13.8199407"><ele>338.0</ele><time>2026-03-28T13:52:17.095Z</time></trkpt><trkpt lat="45.8210401" lon="13.8200783"><ele>336.59999999999997</ele><time>2026-03-28T13:52:18.107Z</time></trkpt><trkpt lat="45.821054" lon="13.8202223"><ele>335.2</ele><time>2026-03-28T13:52:19.09Z</time></trkpt><trkpt lat="45.8210611" lon="13.8203741"><ele>333.8</ele><time>2026-03-28T13:52:20.09Z</time></trkpt><trkpt lat="45.8210661" lon="13.820531"><ele>332.4</ele><time>2026-03-28T13:52:21.092Z</time></trkpt><trkpt lat="45.8210772" lon="13.8206888"><ele>331.0</ele><time>2026-03-28T13:52:22.091Z</time></trkpt><trkpt lat="45.8210932" lon="13.820852"><ele>329.75</ele><time>2026-03-28T13:52:23.088Z</time></trkpt><trkpt lat="45.8210975" lon="13.8210225"><ele>328.5</ele><time>2026-03-28T13:52:24.079Z</time></trkpt><trkpt lat="45.8211008" lon="13.8211822"><ele>327.25</ele><time>2026-03-28T13:52:25.096Z</time></trkpt><trkpt lat="45.8211082" lon="13.8213542"><ele>326.0</ele><time>2026-03-28T13:52:26.101Z</time></trkpt><trkpt lat="45.8211228" lon="13.8215205"><ele>326.0</ele><time>2026-03-28T13:52:27.094Z</time></trkpt><trkpt lat="45.8211426" lon="13.8216779"><ele>326.0</ele><time>2026-03-28T13:52:28.092Z</time></trkpt><trkpt lat="45.8211676" lon="13.8218245"><ele>326.0</ele><time>2026-03-28T13:52:29.097Z</time></trkpt><trkpt lat="45.8211941" lon="13.8219655"><ele>326.0</ele><time>2026-03-28T13:52:30.079Z</time></trkpt><trkpt lat="45.8212157" lon="13.8220961"><ele>326.0</ele><time>2026-03-28T13:52:31.081Z</time></trkpt><trkpt lat="45.8212336" lon="13.8222198"><ele>323.8</ele><time>2026-03-28T13:52:32.092Z</time></trkpt><trkpt lat="45.8212303" lon="13.8223308"><ele>321.6</ele><time>2026-03-28T13:52:33.079Z</time></trkpt><trkpt lat="45.8212163" lon="13.8224964"><ele>319.4</ele><time>2026-03-28T13:52:35.093Z</time></trkpt><trkpt lat="45.8212361" lon="13.8226321"><ele>317.2</ele><time>2026-03-28T13:52:37.09Z</time></trkpt><trkpt lat="45.8213208" lon="13.8226948"><ele>315.0</ele><time>2026-03-28T13:52:39.069Z</time></trkpt><trkpt lat="45.8214505" lon="13.82269"><ele>315.0</ele><time>2026-03-28T13:52:41.076Z</time></trkpt><trkpt lat="45.8215207" lon="13.8226632"><ele>315.0</ele><time>2026-03-28T13:52:42.076Z</time></trkpt><trkpt lat="45.8215878" lon="13.8226304"><ele>315.0</ele><time>2026-03-28T13:52:43.091Z</time></trkpt><trkpt lat="45.8216699" lon="13.8226003"><ele>315.0</ele><time>2026-03-28T13:52:44.079Z</time></trkpt><trkpt lat="45.8217576" lon="13.8225702"><ele>315.0</ele><time>2026-03-28T13:52:45.078Z</time></trkpt><trkpt lat="45.8218575" lon="13.8225366"><ele>315.0</ele><time>2026-03-28T13:52:46.098Z</time></trkpt><trkpt lat="45.8219689" lon="13.8225082"><ele>314.75</ele><time>2026-03-28T13:52:47.079Z</time></trkpt><trkpt lat="45.8220894" lon="13.8224814"><ele>314.5</ele><time>2026-03-28T13:52:48.087Z</time></trkpt><trkpt lat="45.8222141" lon="13.8224604"><ele>314.25</ele><time>2026-03-28T13:52:49.078Z</time></trkpt><trkpt lat="45.8223497" lon="13.8224422"><ele>314.0</ele><time>2026-03-28T13:52:50.082Z</time></trkpt><trkpt lat="45.8224958" lon="13.8224238"><ele>314.0</ele><time>2026-03-28T13:52:51.077Z</time></trkpt><trkpt lat="45.8226453" lon="13.8224079"><ele>314.0</ele><time>2026-03-28T13:52:52.084Z</time></trkpt><trkpt lat="45.8227889" lon="13.8223959"><ele>314.0</ele><time>2026-03-28T13:52:53.086Z</time></trkpt><trkpt lat="45.8229337" lon="13.8223881"><ele>314.0</ele><time>2026-03-28T13:52:54.086Z</time></trkpt><trkpt lat="45.8230767" lon="13.8223795"><ele>313.6666666666667</ele><time>2026-03-28T13:52:55.075Z</time></trkpt><trkpt lat="45.8232246" lon="13.8223709"><ele>313.3333333333333</ele><time>2026-03-28T13:52:56.094Z</time></trkpt><trkpt lat="45.8233725" lon="13.8223676"><ele>313.0</ele><time>2026-03-28T13:52:57.085Z</time></trkpt><trkpt lat="45.8235347" lon="13.8223882"><ele>313.0</ele><time>2026-03-28T13:52:58.091Z</time></trkpt><trkpt lat="45.823694" lon="13.8224176"><ele>313.0</ele><time>2026-03-28T13:52:59.08Z</time></trkpt><trkpt lat="45.8238577" lon="13.8224472"><ele>313.0</ele><time>2026-03-28T13:53:00.076Z</time></trkpt><trkpt lat="45.8240154" lon="13.8224783"><ele>313.0</ele><time>2026-03-28T13:53:01.075Z</time></trkpt><trkpt lat="45.8241645" lon="13.8225073"><ele>313.0</ele><time>2026-03-28T13:53:02.082Z</time></trkpt><trkpt lat="45.8243063" lon="13.822521"><ele>313.0</ele><time>2026-03-28T13:53:03.077Z</time></trkpt><trkpt lat="45.8244518" lon="13.8224748"><ele>313.0</ele><time>2026-03-28T13:53:04.08Z</time></trkpt><trkpt lat="45.8245978" lon="13.8224062"><ele>313.0</ele><time>2026-03-28T13:53:05.066Z</time></trkpt><trkpt lat="45.8247417" lon="13.822359"><ele>313.0</ele><time>2026-03-28T13:53:06.079Z</time></trkpt><trkpt lat="45.8248865" lon="13.822329"><ele>313.0</ele><time>2026-03-28T13:53:07.07Z</time></trkpt><trkpt lat="45.8250345" lon="13.8223173"><ele>313.0</ele><time>2026-03-28T13:53:08.071Z</time></trkpt><trkpt lat="45.825182" lon="13.8223015"><ele>313.3333333333333</ele><time>2026-03-28T13:53:09.081Z</time></trkpt><trkpt lat="45.8253251" lon="13.8222734"><ele>313.6666666666667</ele><time>2026-03-28T13:53:10.076Z</time></trkpt><trkpt lat="45.8254759" lon="13.8222168"><ele>314.0</ele><time>2026-03-28T13:53:11.077Z</time></trkpt><trkpt lat="45.8256214" lon="13.822137"><ele>314.0</ele><time>2026-03-28T13:53:12.082Z</time></trkpt><trkpt lat="45.825751" lon="13.8220768"><ele>314.0</ele><time>2026-03-28T13:53:13.07Z</time></trkpt><trkpt lat="45.8258627" lon="13.8220297"><ele>314.0</ele><time>2026-03-28T13:53:14.079Z</time></trkpt><trkpt lat="45.825979" lon="13.8220091"><ele>314.0</ele><time>2026-03-28T13:53:15.071Z</time></trkpt><trkpt lat="45.8261139" lon="13.8220046"><ele>313.5</ele><time>2026-03-28T13:53:16.075Z</time></trkpt><trkpt lat="45.8262597" lon="13.821996"><ele>313.0</ele><time>2026-03-28T13:53:17.075Z</time></trkpt><trkpt lat="45.8264015" lon="13.821981"><ele>312.5</ele><time>2026-03-28T13:53:18.081Z</time></trkpt><trkpt lat="45.8265444" lon="13.8219593"><ele>312.0</ele><time>2026-03-28T13:53:19.08Z</time></trkpt><trkpt lat="45.8266857" lon="13.821933"><ele>312.0</ele><time>2026-03-28T13:53:20.078Z</time></trkpt><trkpt lat="45.8268242" lon="13.8218954"><ele>312.0</ele><time>2026-03-28T13:53:21.078Z</time></trkpt><trkpt lat="45.826966" lon="13.8218244"><ele>312.0</ele><time>2026-03-28T13:53:22.083Z</time></trkpt><trkpt lat="45.8271024" lon="13.8217402"><ele>312.0</ele><time>2026-03-28T13:53:23.082Z</time></trkpt><trkpt lat="45.8272447" lon="13.8216487"><ele>315.3333333333333</ele><time>2026-03-28T13:53:24.083Z</time></trkpt><trkpt lat="45.827385" lon="13.8215619"><ele>318.66666666666663</ele><time>2026-03-28T13:53:25.086Z</time></trkpt><trkpt lat="45.8275306" lon="13.821471"><ele>322.0</ele><time>2026-03-28T13:53:26.081Z</time></trkpt><trkpt lat="45.8276733" lon="13.8213854"><ele>322.25</ele><time>2026-03-28T13:53:27.076Z</time></trkpt><trkpt lat="45.8278143" lon="13.8212977"><ele>322.5</ele><time>2026-03-28T13:53:28.076Z</time></trkpt><trkpt lat="45.8279366" lon="13.8212158"><ele>322.75</ele><time>2026-03-28T13:53:29.077Z</time></trkpt><trkpt lat="45.8280428" lon="13.8211359"><ele>323.0</ele><time>2026-03-28T13:53:30.084Z</time></trkpt><trkpt lat="45.8281342" lon="13.8210599"><ele>324.25</ele><time>2026-03-28T13:53:31.075Z</time></trkpt><trkpt lat="45.8282164" lon="13.820969"><ele>325.5</ele><time>2026-03-28T13:53:32.096Z</time></trkpt><trkpt lat="45.8282943" lon="13.8208511"><ele>326.75</ele><time>2026-03-28T13:53:33.084Z</time></trkpt><trkpt lat="45.8283801" lon="13.8207419"><ele>328.0</ele><time>2026-03-28T13:53:34.097Z</time></trkpt><trkpt lat="45.8284697" lon="13.8206296"><ele>327.75</ele><time>2026-03-28T13:53:35.082Z</time></trkpt><trkpt lat="45.8285617" lon="13.8205"><ele>327.5</ele><time>2026-03-28T13:53:36.086Z</time></trkpt><trkpt lat="45.8286546" lon="13.8203582"><ele>327.25</ele><time>2026-03-28T13:53:37.081Z</time></trkpt><trkpt lat="45.8287506" lon="13.8202234"><ele>327.0</ele><time>2026-03-28T13:53:38.082Z</time></trkpt><trkpt lat="45.8288408" lon="13.8200943"><ele>328.25</ele><time>2026-03-28T13:53:39.084Z</time></trkpt><trkpt lat="45.8289342" lon="13.8199632"><ele>329.5</ele><time>2026-03-28T13:53:40.092Z</time></trkpt><trkpt lat="45.8290274" lon="13.8198339"><ele>330.75</ele><time>2026-03-28T13:53:41.092Z</time></trkpt><trkpt lat="45.8291357" lon="13.8197157"><ele>332.0</ele><time>2026-03-28T13:53:42.091Z</time></trkpt><trkpt lat="45.8292463" lon="13.819601"><ele>333.25</ele><time>2026-03-28T13:53:43.082Z</time></trkpt><trkpt lat="45.8293617" lon="13.8194951"><ele>334.5</ele><time>2026-03-28T13:53:44.085Z</time></trkpt><trkpt lat="45.8294784" lon="13.8193944"><ele>335.75</ele><time>2026-03-28T13:53:45.084Z</time></trkpt><trkpt lat="45.8296015" lon="13.8192883"><ele>337.0</ele><time>2026-03-28T13:53:46.094Z</time></trkpt><trkpt lat="45.8297266" lon="13.8191753"><ele>338.25</ele><time>2026-03-28T13:53:47.091Z</time></trkpt><trkpt lat="45.8298517" lon="13.8190641"><ele>339.5</ele><time>2026-03-28T13:53:48.104Z</time></trkpt><trkpt lat="45.8299662" lon="13.8189744"><ele>340.75</ele><time>2026-03-28T13:53:49.089Z</time></trkpt><trkpt lat="45.8300768" lon="13.8189115"><ele>342.0</ele><time>2026-03-28T13:53:50.078Z</time></trkpt><trkpt lat="45.8301817" lon="13.8188768"><ele>343.0</ele><time>2026-03-28T13:53:51.092Z</time></trkpt><trkpt lat="45.8302875" lon="13.8188452"><ele>344.0</ele><time>2026-03-28T13:53:52.091Z</time></trkpt><trkpt lat="45.8304041" lon="13.8188004"><ele>345.0</ele><time>2026-03-28T13:53:53.103Z</time></trkpt><trkpt lat="45.8305271" lon="13.81876"><ele>346.0</ele><time>2026-03-28T13:53:54.075Z</time></trkpt><trkpt lat="45.8306563" lon="13.8187037"><ele>346.0</ele><time>2026-03-28T13:53:55.075Z</time></trkpt><trkpt lat="45.8307927" lon="13.8186461"><ele>346.0</ele><time>2026-03-28T13:53:56.077Z</time></trkpt><trkpt lat="45.8309299" lon="13.8185893"><ele>346.0</ele><time>2026-03-28T13:53:57.081Z</time></trkpt><trkpt lat="45.831079" lon="13.818538"><ele>346.0</ele><time>2026-03-28T13:53:58.091Z</time></trkpt><trkpt lat="45.8312328" lon="13.8184931"><ele>347.75</ele><time>2026-03-28T13:53:59.077Z</time></trkpt><trkpt lat="45.8313818" lon="13.8184418"><ele>349.5</ele><time>2026-03-28T13:54:00.075Z</time></trkpt><trkpt lat="45.8315239" lon="13.8183974"><ele>351.25</ele><time>2026-03-28T13:54:01.086Z</time></trkpt><trkpt lat="45.8316571" lon="13.8183542"><ele>353.0</ele><time>2026-03-28T13:54:02.078Z</time></trkpt><trkpt lat="45.8317881" lon="13.8183268"><ele>355.0</ele><time>2026-03-28T13:54:03.095Z</time></trkpt><trkpt lat="45.831912" lon="13.8183242"><ele>357.0</ele><time>2026-03-28T13:54:04.076Z</time></trkpt><trkpt lat="45.8320287" lon="13.8183302"><ele>359.0</ele><time>2026-03-28T13:54:05.08Z</time></trkpt><trkpt lat="45.8321343" lon="13.8183415"><ele>361.0</ele><time>2026-03-28T13:54:06.081Z</time></trkpt><trkpt lat="45.8322224" lon="13.8183316"><ele>363.0</ele><time>2026-03-28T13:54:07.081Z</time></trkpt><trkpt lat="45.8322924" lon="13.8182988"><ele>363.0</ele><time>2026-03-28T13:54:08.081Z</time></trkpt><trkpt lat="45.8323946" lon="13.8182275"><ele>363.0</ele><time>2026-03-28T13:54:10.075Z</time></trkpt><trkpt lat="45.8324768" lon="13.8182635"><ele>363.0</ele><time>2026-03-28T13:54:13.078Z</time></trkpt><trkpt lat="45.832459" lon="13.8183692"><ele>363.0</ele><time>2026-03-28T13:54:15.067Z</time></trkpt><trkpt lat="45.8324022" lon="13.8184212"><ele>363.0</ele><time>2026-03-28T13:54:16.07Z</time></trkpt><trkpt lat="45.8323378" lon="13.8184764"><ele>363.0</ele><time>2026-03-28T13:54:17.077Z</time></trkpt><trkpt lat="45.8322796" lon="13.8185543"><ele>365.59999999999997</ele><time>2026-03-28T13:54:18.085Z</time></trkpt><trkpt lat="45.8322136" lon="13.8186462"><ele>368.2</ele><time>2026-03-28T13:54:19.088Z</time></trkpt><trkpt lat="45.8321461" lon="13.818747"><ele>370.8</ele><time>2026-03-28T13:54:20.105Z</time></trkpt><trkpt lat="45.8320783" lon="13.8188498"><ele>373.4</ele><time>2026-03-28T13:54:21.077Z</time></trkpt><trkpt lat="45.8320131" lon="13.8189461"><ele>376.0</ele><time>2026-03-28T13:54:22.094Z</time></trkpt><trkpt lat="45.8319502" lon="13.8190342"><ele>376.0</ele><time>2026-03-28T13:54:23.087Z</time></trkpt><trkpt lat="45.831884" lon="13.8191205"><ele>376.0</ele><time>2026-03-28T13:54:24.085Z</time></trkpt><trkpt lat="45.8318161" lon="13.8192208"><ele>376.0</ele><time>2026-03-28T13:54:25.078Z</time></trkpt><trkpt lat="45.8317483" lon="13.8193365"><ele>376.0</ele><time>2026-03-28T13:54:26.087Z</time></trkpt><trkpt lat="45.8316764" lon="13.819453"><ele>376.0</ele><time>2026-03-28T13:54:27.078Z</time></trkpt><trkpt lat="45.8316" lon="13.8195582"><ele>372.20000000000005</ele><time>2026-03-28T13:54:28.083Z</time></trkpt><trkpt lat="45.8315256" lon="13.8196629"><ele>368.40000000000003</ele><time>2026-03-28T13:54:29.076Z</time></trkpt><trkpt lat="45.831444" lon="13.8197714"><ele>364.6</ele><time>2026-03-28T13:54:30.086Z</time></trkpt><trkpt lat="45.8313615" lon="13.8198758"><ele>360.8</ele><time>2026-03-28T13:54:31.076Z</time></trkpt><trkpt lat="45.8312772" lon="13.8199841"><ele>357.0</ele><time>2026-03-28T13:54:32.083Z</time></trkpt><trkpt lat="45.8311903" lon="13.8200983"><ele>357.8</ele><time>2026-03-28T13:54:33.077Z</time></trkpt><trkpt lat="45.8311036" lon="13.8202125"><ele>358.6</ele><time>2026-03-28T13:54:34.079Z</time></trkpt><trkpt lat="45.8310251" lon="13.8203268"><ele>359.40000000000003</ele><time>2026-03-28T13:54:35.084Z</time></trkpt><trkpt lat="45.8309523" lon="13.8204382"><ele>360.20000000000005</ele><time>2026-03-28T13:54:36.089Z</time></trkpt><trkpt lat="45.8308917" lon="13.8205375"><ele>361.0</ele><time>2026-03-28T13:54:37.084Z</time></trkpt><trkpt lat="45.8308376" lon="13.8206375"><ele>358.6</ele><time>2026-03-28T13:54:38.099Z</time></trkpt><trkpt lat="45.8308016" lon="13.8207533"><ele>356.20000000000005</ele><time>2026-03-28T13:54:39.085Z</time></trkpt><trkpt lat="45.8307781" lon="13.820877"><ele>353.79999999999995</ele><time>2026-03-28T13:54:40.124Z</time></trkpt><trkpt lat="45.8307536" lon="13.821005"><ele>351.4</ele><time>2026-03-28T13:54:41.099Z</time></trkpt><trkpt lat="45.830723" lon="13.8211345"><ele>349.0</ele><time>2026-03-28T13:54:42.093Z</time></trkpt><trkpt lat="45.8307118" lon="13.8212603"><ele>349.0</ele><time>2026-03-28T13:54:43.081Z</time></trkpt><trkpt lat="45.8307153" lon="13.8213825"><ele>349.0</ele><time>2026-03-28T13:54:44.076Z</time></trkpt><trkpt lat="45.8307079" lon="13.8214905"><ele>349.0</ele><time>2026-03-28T13:54:45.083Z</time></trkpt><trkpt lat="45.8306801" lon="13.8215744"><ele>349.0</ele><time>2026-03-28T13:54:46.092Z</time></trkpt><trkpt lat="45.8306369" lon="13.8216589"><ele>349.0</ele><time>2026-03-28T13:54:47.105Z</time></trkpt><trkpt lat="45.8305722" lon="13.8217396"><ele>349.0</ele><time>2026-03-28T13:54:48.08Z</time></trkpt><trkpt lat="45.8304843" lon="13.8218289"><ele>349.2</ele><time>2026-03-28T13:54:49.077Z</time></trkpt><trkpt lat="45.8303987" lon="13.8219136"><ele>349.4</ele><time>2026-03-28T13:54:50.086Z</time></trkpt><trkpt lat="45.8303132" lon="13.8220053"><ele>349.6</ele><time>2026-03-28T13:54:51.091Z</time></trkpt><trkpt lat="45.8302284" lon="13.8221025"><ele>349.8</ele><time>2026-03-28T13:54:52.087Z</time></trkpt><trkpt lat="45.8301464" lon="13.8221922"><ele>350.0</ele><time>2026-03-28T13:54:53.095Z</time></trkpt><trkpt lat="45.8300652" lon="13.8222759"><ele>350.0</ele><time>2026-03-28T13:54:54.096Z</time></trkpt><trkpt lat="45.8299836" lon="13.8223653"><ele>350.0</ele><time>2026-03-28T13:54:55.091Z</time></trkpt><trkpt lat="45.8299123" lon="13.8224707"><ele>350.0</ele><time>2026-03-28T13:54:56.082Z</time></trkpt><trkpt lat="45.82984" lon="13.822583"><ele>350.0</ele><time>2026-03-28T13:54:57.096Z</time></trkpt><trkpt lat="45.8297694" lon="13.8226824"><ele>350.0</ele><time>2026-03-28T13:54:58.089Z</time></trkpt><trkpt lat="45.8296979" lon="13.8227776"><ele>351.4</ele><time>2026-03-28T13:54:59.088Z</time></trkpt><trkpt lat="45.8296264" lon="13.8228769"><ele>352.8</ele><time>2026-03-28T13:55:00.088Z</time></trkpt><trkpt lat="45.8295396" lon="13.8229785"><ele>354.20000000000005</ele><time>2026-03-28T13:55:01.08Z</time></trkpt><trkpt lat="45.829445" lon="13.8230808"><ele>355.6</ele><time>2026-03-28T13:55:02.088Z</time></trkpt><trkpt lat="45.8293563" lon="13.8231579"><ele>357.0</ele><time>2026-03-28T13:55:03.104Z</time></trkpt><trkpt lat="45.8292751" lon="13.8232513"><ele>354.20000000000005</ele><time>2026-03-28T13:55:04.086Z</time></trkpt><trkpt lat="45.8292042" lon="13.8233511"><ele>351.4</ele><time>2026-03-28T13:55:05.079Z</time></trkpt><trkpt lat="45.8291384" lon="13.8234562"><ele>348.6</ele><time>2026-03-28T13:55:06.085Z</time></trkpt><trkpt lat="45.8290733" lon="13.8235653"><ele>345.79999999999995</ele><time>2026-03-28T13:55:07.088Z</time></trkpt><trkpt lat="45.8290143" lon="13.8236739"><ele>343.0</ele><time>2026-03-28T13:55:08.086Z</time></trkpt><trkpt lat="45.8289502" lon="13.8237691"><ele>343.0</ele><time>2026-03-28T13:55:09.081Z</time></trkpt><trkpt lat="45.8288683" lon="13.8238238"><ele>343.0</ele><time>2026-03-28T13:55:10.087Z</time></trkpt><trkpt lat="45.8287899" lon="13.8238596"><ele>343.0</ele><time>2026-03-28T13:55:11.076Z</time></trkpt><trkpt lat="45.8287091" lon="13.8238964"><ele>343.0</ele><time>2026-03-28T13:55:12.099Z</time></trkpt><trkpt lat="45.8286312" lon="13.8239387"><ele>343.0</ele><time>2026-03-28T13:55:13.095Z</time></trkpt><trkpt lat="45.8285426" lon="13.8239687"><ele>343.0</ele><time>2026-03-28T13:55:14.077Z</time></trkpt><trkpt lat="45.8284508" lon="13.823991"><ele>341.2</ele><time>2026-03-28T13:55:15.083Z</time></trkpt><trkpt lat="45.8283588" lon="13.8240112"><ele>339.4</ele><time>2026-03-28T13:55:16.081Z</time></trkpt><trkpt lat="45.828265" lon="13.8240307"><ele>337.59999999999997</ele><time>2026-03-28T13:55:17.088Z</time></trkpt><trkpt lat="45.8281674" lon="13.8240436"><ele>335.79999999999995</ele><time>2026-03-28T13:55:18.086Z</time></trkpt><trkpt lat="45.828069" lon="13.8240545"><ele>334.0</ele><time>2026-03-28T13:55:19.084Z</time></trkpt><trkpt lat="45.827971" lon="13.8240771"><ele>334.0</ele><time>2026-03-28T13:55:20.097Z</time></trkpt><trkpt lat="45.8278853" lon="13.8241178"><ele>334.0</ele><time>2026-03-28T13:55:21.084Z</time></trkpt><trkpt lat="45.8278072" lon="13.8241649"><ele>334.0</ele><time>2026-03-28T13:55:22.09Z</time></trkpt><trkpt lat="45.82773" lon="13.824213"><ele>334.0</ele><time>2026-03-28T13:55:23.091Z</time></trkpt><trkpt lat="45.8276673" lon="13.8242716"><ele>334.0</ele><time>2026-03-28T13:55:24.096Z</time></trkpt><trkpt lat="45.8276171" lon="13.8243457"><ele>334.0</ele><time>2026-03-28T13:55:25.096Z</time></trkpt><trkpt lat="45.8275596" lon="13.8244343"><ele>331.4</ele><time>2026-03-28T13:55:26.084Z</time></trkpt><trkpt lat="45.827498" lon="13.8245342"><ele>328.79999999999995</ele><time>2026-03-28T13:55:27.094Z</time></trkpt><trkpt lat="45.8274382" lon="13.8246402"><ele>326.20000000000005</ele><time>2026-03-28T13:55:28.086Z</time></trkpt><trkpt lat="45.8274003" lon="13.8247628"><ele>323.6</ele><time>2026-03-28T13:55:29.12Z</time></trkpt><trkpt lat="45.8273662" lon="13.8248851"><ele>321.0</ele><time>2026-03-28T13:55:30.077Z</time></trkpt><trkpt lat="45.8273298" lon="13.8249953"><ele>321.0</ele><time>2026-03-28T13:55:31.091Z</time></trkpt><trkpt lat="45.8273241" lon="13.8251039"><ele>321.0</ele><time>2026-03-28T13:55:32.078Z</time></trkpt><trkpt lat="45.8273347" lon="13.825208"><ele>321.0</ele><time>2026-03-28T13:55:33.094Z</time></trkpt><trkpt lat="45.8273681" lon="13.8253074"><ele>321.0</ele><time>2026-03-28T13:55:34.08Z</time></trkpt><trkpt lat="45.8274062" lon="13.8254133"><ele>321.0</ele><time>2026-03-28T13:55:35.079Z</time></trkpt><trkpt lat="45.8274275" lon="13.8255148"><ele>321.0</ele><time>2026-03-28T13:55:36.082Z</time></trkpt><trkpt lat="45.8274255" lon="13.825615"><ele>322.5</ele><time>2026-03-28T13:55:37.09Z</time></trkpt><trkpt lat="45.8273929" lon="13.825707"><ele>324.0</ele><time>2026-03-28T13:55:38.08Z</time></trkpt><trkpt lat="45.8273378" lon="13.825793"><ele>325.5</ele><time>2026-03-28T13:55:39.083Z</time></trkpt><trkpt lat="45.8272695" lon="13.8258663"><ele>327.0</ele><time>2026-03-28T13:55:40.078Z</time></trkpt><trkpt lat="45.827187" lon="13.8259362"><ele>328.5</ele><time>2026-03-28T13:55:41.082Z</time></trkpt><trkpt lat="45.827118" lon="13.8260083"><ele>330.0</ele><time>2026-03-28T13:55:42.094Z</time></trkpt><trkpt lat="45.8270566" lon="13.8260999"><ele>329.6</ele><time>2026-03-28T13:55:43.086Z</time></trkpt><trkpt lat="45.8269946" lon="13.8262074"><ele>329.2</ele><time>2026-03-28T13:55:44.114Z</time></trkpt><trkpt lat="45.8269327" lon="13.8263079"><ele>328.79999999999995</ele><time>2026-03-28T13:55:45.083Z</time></trkpt><trkpt lat="45.8268691" lon="13.8264061"><ele>328.4</ele><time>2026-03-28T13:55:46.084Z</time></trkpt><trkpt lat="45.8268086" lon="13.8264984"><ele>328.0</ele><time>2026-03-28T13:55:47.089Z</time></trkpt><trkpt lat="45.8267591" lon="13.8265908"><ele>328.0</ele><time>2026-03-28T13:55:48.094Z</time></trkpt><trkpt lat="45.8267211" lon="13.826685"><ele>328.0</ele><time>2026-03-28T13:55:49.081Z</time></trkpt><trkpt lat="45.8266914" lon="13.8267881"><ele>328.0</ele><time>2026-03-28T13:55:50.121Z</time></trkpt><trkpt lat="45.8266649" lon="13.8269005"><ele>328.0</ele><time>2026-03-28T13:55:51.085Z</time></trkpt><trkpt lat="45.8266323" lon="13.8270062"><ele>328.0</ele><time>2026-03-28T13:55:52.105Z</time></trkpt><trkpt lat="45.8265971" lon="13.827123"><ele>328.0</ele><time>2026-03-28T13:55:53.093Z</time></trkpt><trkpt lat="45.826569" lon="13.8272356"><ele>328.3333333333333</ele><time>2026-03-28T13:55:54.09Z</time></trkpt><trkpt lat="45.8265341" lon="13.8273465"><ele>328.66666666666663</ele><time>2026-03-28T13:55:55.094Z</time></trkpt><trkpt lat="45.8264996" lon="13.8274455"><ele>329.0</ele><time>2026-03-28T13:55:56.085Z</time></trkpt><trkpt lat="45.8264661" lon="13.8275594"><ele>329.3333333333333</ele><time>2026-03-28T13:55:57.1Z</time></trkpt><trkpt lat="45.826445" lon="13.8276856"><ele>329.6666666666667</ele><time>2026-03-28T13:55:58.094Z</time></trkpt><trkpt lat="45.8264334" lon="13.8278192"><ele>330.0</ele><time>2026-03-28T13:55:59.09Z</time></trkpt><trkpt lat="45.8264223" lon="13.827959"><ele>329.3333333333333</ele><time>2026-03-28T13:56:00.084Z</time></trkpt><trkpt lat="45.8264122" lon="13.8280919"><ele>328.6666666666667</ele><time>2026-03-28T13:56:01.086Z</time></trkpt><trkpt lat="45.8263996" lon="13.8282288"><ele>328.0</ele><time>2026-03-28T13:56:02.091Z</time></trkpt><trkpt lat="45.8263883" lon="13.8283522"><ele>327.33333333333337</ele><time>2026-03-28T13:56:03.104Z</time></trkpt><trkpt lat="45.8263798" lon="13.8284699"><ele>326.6666666666667</ele><time>2026-03-28T13:56:04.094Z</time></trkpt><trkpt lat="45.8263638" lon="13.8285858"><ele>326.0</ele><time>2026-03-28T13:56:05.093Z</time></trkpt><trkpt lat="45.826328" lon="13.8287098"><ele>325.4</ele><time>2026-03-28T13:56:06.098Z</time></trkpt><trkpt lat="45.82628" lon="13.828836"><ele>324.8</ele><time>2026-03-28T13:56:07.095Z</time></trkpt><trkpt lat="45.826241" lon="13.828973"><ele>324.2</ele><time>2026-03-28T13:56:08.098Z</time></trkpt><trkpt lat="45.8262028" lon="13.8290948"><ele>323.59999999999997</ele><time>2026-03-28T13:56:09.097Z</time></trkpt><trkpt lat="45.8261548" lon="13.8292091"><ele>323.0</ele><time>2026-03-28T13:56:10.095Z</time></trkpt><trkpt lat="45.8261067" lon="13.829331"><ele>321.2</ele><time>2026-03-28T13:56:11.085Z</time></trkpt><trkpt lat="45.8260637" lon="13.8294583"><ele>319.4</ele><time>2026-03-28T13:56:12.083Z</time></trkpt><trkpt lat="45.8260235" lon="13.829588"><ele>317.59999999999997</ele><time>2026-03-28T13:56:13.087Z</time></trkpt><trkpt lat="45.8259796" lon="13.8297209"><ele>315.79999999999995</ele><time>2026-03-28T13:56:14.092Z</time></trkpt><trkpt lat="45.8259472" lon="13.8298485"><ele>314.0</ele><time>2026-03-28T13:56:15.084Z</time></trkpt><trkpt lat="45.8259195" lon="13.8299816"><ele>312.83333333333337</ele><time>2026-03-28T13:56:16.101Z</time></trkpt><trkpt lat="45.8258915" lon="13.8301123"><ele>311.6666666666667</ele><time>2026-03-28T13:56:17.09Z</time></trkpt><trkpt lat="45.8258638" lon="13.8302295"><ele>310.5</ele><time>2026-03-28T13:56:18.096Z</time></trkpt><trkpt lat="45.8258409" lon="13.8303456"><ele>309.3333333333333</ele><time>2026-03-28T13:56:19.087Z</time></trkpt><trkpt lat="45.8258097" lon="13.8304447"><ele>308.16666666666663</ele><time>2026-03-28T13:56:20.096Z</time></trkpt><trkpt lat="45.8257797" lon="13.8305405"><ele>307.0</ele><time>2026-03-28T13:56:21.093Z</time></trkpt><trkpt lat="45.8257554" lon="13.8306292"><ele>306.4</ele><time>2026-03-28T13:56:22.09Z</time></trkpt><trkpt lat="45.8258332" lon="13.8307619"><ele>305.79999999999995</ele><time>2026-03-28T13:56:24.103Z</time></trkpt><trkpt lat="45.8259041" lon="13.8308511"><ele>305.2</ele><time>2026-03-28T13:56:25.093Z</time></trkpt><trkpt lat="45.8259873" lon="13.8309713"><ele>304.59999999999997</ele><time>2026-03-28T13:56:26.07Z</time></trkpt><trkpt lat="45.8260574" lon="13.8310933"><ele>304.0</ele><time>2026-03-28T13:56:27.085Z</time></trkpt><trkpt lat="45.8261255" lon="13.8312036"><ele>302.66666666666663</ele><time>2026-03-28T13:56:28.083Z</time></trkpt><trkpt lat="45.8261816" lon="13.8312915"><ele>301.3333333333333</ele><time>2026-03-28T13:56:29.08Z</time></trkpt><trkpt lat="45.8262207" lon="13.8313809"><ele>300.0</ele><time>2026-03-28T13:56:30.089Z</time></trkpt><trkpt lat="45.8262476" lon="13.8314858"><ele>298.6666666666667</ele><time>2026-03-28T13:56:31.078Z</time></trkpt><trkpt lat="45.8262637" lon="13.8316248"><ele>297.33333333333337</ele><time>2026-03-28T13:56:32.083Z</time></trkpt><trkpt lat="45.8262535" lon="13.8317885"><ele>296.0</ele><time>2026-03-28T13:56:33.073Z</time></trkpt><trkpt lat="45.8262475" lon="13.8319687"><ele>294.75</ele><time>2026-03-28T13:56:34.079Z</time></trkpt><trkpt lat="45.8262483" lon="13.8321567"><ele>293.5</ele><time>2026-03-28T13:56:35.079Z</time></trkpt><trkpt lat="45.8262554" lon="13.8323562"><ele>292.25</ele><time>2026-03-28T13:56:36.081Z</time></trkpt><trkpt lat="45.8262594" lon="13.8325583"><ele>291.0</ele><time>2026-03-28T13:56:37.07Z</time></trkpt><trkpt lat="45.8262611" lon="13.8327501"><ele>290.5</ele><time>2026-03-28T13:56:38.072Z</time></trkpt><trkpt lat="45.8262615" lon="13.8329451"><ele>290.0</ele><time>2026-03-28T13:56:39.066Z</time></trkpt><trkpt lat="45.82627" lon="13.8331285"><ele>289.5</ele><time>2026-03-28T13:56:40.069Z</time></trkpt><trkpt lat="45.8262876" lon="13.8333167"><ele>289.0</ele><time>2026-03-28T13:56:41.074Z</time></trkpt><trkpt lat="45.8262995" lon="13.8334974"><ele>289.0</ele><time>2026-03-28T13:56:42.072Z</time></trkpt><trkpt lat="45.8263104" lon="13.8336792"><ele>289.0</ele><time>2026-03-28T13:56:43.077Z</time></trkpt><trkpt lat="45.8263119" lon="13.8338581"><ele>289.0</ele><time>2026-03-28T13:56:44.077Z</time></trkpt><trkpt lat="45.8263141" lon="13.8340339"><ele>289.0</ele><time>2026-03-28T13:56:45.068Z</time></trkpt><trkpt lat="45.8263119" lon="13.8342155"><ele>291.2</ele><time>2026-03-28T13:56:46.071Z</time></trkpt><trkpt lat="45.8262981" lon="13.8343893"><ele>293.4</ele><time>2026-03-28T13:56:47.067Z</time></trkpt><trkpt lat="45.8262749" lon="13.8345518"><ele>295.6</ele><time>2026-03-28T13:56:48.077Z</time></trkpt><trkpt lat="45.8262577" lon="13.8346909"><ele>297.8</ele><time>2026-03-28T13:56:49.065Z</time></trkpt><trkpt lat="45.8262354" lon="13.834831"><ele>300.0</ele><time>2026-03-28T13:56:50.063Z</time></trkpt><trkpt lat="45.8262095" lon="13.83494"><ele>300.0</ele><time>2026-03-28T13:56:51.066Z</time></trkpt><trkpt lat="45.8261661" lon="13.8350281"><ele>300.0</ele><time>2026-03-28T13:56:52.068Z</time></trkpt><trkpt lat="45.8261082" lon="13.835078"><ele>300.0</ele><time>2026-03-28T13:56:53.063Z</time></trkpt><trkpt lat="45.8260544" lon="13.8351256"><ele>300.0</ele><time>2026-03-28T13:56:54.068Z</time></trkpt><trkpt lat="45.8260047" lon="13.835184"><ele>300.0</ele><time>2026-03-28T13:56:55.076Z</time></trkpt><trkpt lat="45.8259543" lon="13.835335"><ele>300.0</ele><time>2026-03-28T13:56:57.069Z</time></trkpt><trkpt lat="45.8259778" lon="13.8355388"><ele>300.6666666666667</ele><time>2026-03-28T13:56:59.063Z</time></trkpt><trkpt lat="45.8259959" lon="13.8356664"><ele>301.3333333333333</ele><time>2026-03-28T13:57:00.07Z</time></trkpt><trkpt lat="45.826007" lon="13.8357922"><ele>302.0</ele><time>2026-03-28T13:57:01.074Z</time></trkpt><trkpt lat="45.8259929" lon="13.8359192"><ele>302.66666666666663</ele><time>2026-03-28T13:57:02.073Z</time></trkpt><trkpt lat="45.8259757" lon="13.8360361"><ele>303.3333333333333</ele><time>2026-03-28T13:57:03.078Z</time></trkpt><trkpt lat="45.8259716" lon="13.836146"><ele>304.0</ele><time>2026-03-28T13:57:04.08Z</time></trkpt><trkpt lat="45.8260007" lon="13.836249"><ele>304.0</ele><time>2026-03-28T13:57:05.072Z</time></trkpt><trkpt lat="45.8260454" lon="13.836361"><ele>304.0</ele><time>2026-03-28T13:57:06.07Z</time></trkpt><trkpt lat="45.8260809" lon="13.8364837"><ele>304.0</ele><time>2026-03-28T13:57:07.056Z</time></trkpt><trkpt lat="45.8261118" lon="13.836632"><ele>304.0</ele><time>2026-03-28T13:57:08.071Z</time></trkpt><trkpt lat="45.8261377" lon="13.836769"><ele>304.0</ele><time>2026-03-28T13:57:09.073Z</time></trkpt><trkpt lat="45.8261542" lon="13.8368783"><ele>303.0</ele><time>2026-03-28T13:57:10.071Z</time></trkpt><trkpt lat="45.8261366" lon="13.8369887"><ele>302.0</ele><time>2026-03-28T13:57:11.074Z</time></trkpt><trkpt lat="45.8260899" lon="13.8371107"><ele>301.0</ele><time>2026-03-28T13:57:12.068Z</time></trkpt><trkpt lat="45.8260322" lon="13.8372619"><ele>300.0</ele><time>2026-03-28T13:57:13.067Z</time></trkpt><trkpt lat="45.8259719" lon="13.8374169"><ele>299.0</ele><time>2026-03-28T13:57:14.071Z</time></trkpt><trkpt lat="45.8259137" lon="13.8375848"><ele>304.0</ele><time>2026-03-28T13:57:15.081Z</time></trkpt><trkpt lat="45.8258481" lon="13.8377518"><ele>309.0</ele><time>2026-03-28T13:57:16.073Z</time></trkpt><trkpt lat="45.8257843" lon="13.8378963"><ele>314.0</ele><time>2026-03-28T13:57:17.077Z</time></trkpt><trkpt lat="45.8257234" lon="13.8380213"><ele>319.0</ele><time>2026-03-28T13:57:18.069Z</time></trkpt><trkpt lat="45.8256821" lon="13.8381603"><ele>319.0</ele><time>2026-03-28T13:57:19.082Z</time></trkpt><trkpt lat="45.8256761" lon="13.8383142"><ele>319.0</ele><time>2026-03-28T13:57:20.071Z</time></trkpt><trkpt lat="45.82569" lon="13.838471"><ele>319.0</ele><time>2026-03-28T13:57:21.067Z</time></trkpt><trkpt lat="45.8257046" lon="13.8386227"><ele>319.0</ele><time>2026-03-28T13:57:22.065Z</time></trkpt><trkpt lat="45.8257032" lon="13.8387766"><ele>319.0</ele><time>2026-03-28T13:57:23.076Z</time></trkpt><trkpt lat="45.8256809" lon="13.8389264"><ele>318.0</ele><time>2026-03-28T13:57:24.072Z</time></trkpt><trkpt lat="45.8256607" lon="13.8390684"><ele>317.0</ele><time>2026-03-28T13:57:25.072Z</time></trkpt><trkpt lat="45.8256422" lon="13.8392006"><ele>316.0</ele><time>2026-03-28T13:57:26.085Z</time></trkpt><trkpt lat="45.8256198" lon="13.8393385"><ele>315.0</ele><time>2026-03-28T13:57:27.076Z</time></trkpt><trkpt lat="45.8255954" lon="13.8394774"><ele>314.0</ele><time>2026-03-28T13:57:28.084Z</time></trkpt><trkpt lat="45.8255583" lon="13.8396147"><ele>310.0</ele><time>2026-03-28T13:57:29.076Z</time></trkpt><trkpt lat="45.8255121" lon="13.8397516"><ele>306.0</ele><time>2026-03-28T13:57:30.073Z</time></trkpt><trkpt lat="45.8254633" lon="13.8399027"><ele>302.0</ele><time>2026-03-28T13:57:31.075Z</time></trkpt><trkpt lat="45.8254098" lon="13.8400676"><ele>298.0</ele><time>2026-03-28T13:57:32.087Z</time></trkpt><trkpt lat="45.8253549" lon="13.8402199"><ele>293.0</ele><time>2026-03-28T13:57:33.071Z</time></trkpt><trkpt lat="45.8253091" lon="13.8403639"><ele>288.0</ele><time>2026-03-28T13:57:34.079Z</time></trkpt><trkpt lat="45.8252655" lon="13.8404954"><ele>283.0</ele><time>2026-03-28T13:57:35.076Z</time></trkpt><trkpt lat="45.8252161" lon="13.8406487"><ele>278.0</ele><time>2026-03-28T13:57:36.079Z</time></trkpt><trkpt lat="45.8251645" lon="13.8408096"><ele>285.0</ele><time>2026-03-28T13:57:37.083Z</time></trkpt><trkpt lat="45.8250885" lon="13.8409842"><ele>292.0</ele><time>2026-03-28T13:57:38.077Z</time></trkpt><trkpt lat="45.8250045" lon="13.8411674"><ele>299.0</ele><time>2026-03-28T13:57:39.067Z</time></trkpt><trkpt lat="45.8249037" lon="13.8413553"><ele>299.0</ele><time>2026-03-28T13:57:40.067Z</time></trkpt><trkpt lat="45.8248063" lon="13.8415099"><ele>299.0</ele><time>2026-03-28T13:57:41.077Z</time></trkpt><trkpt lat="45.8247069" lon="13.8416477"><ele>299.0</ele><time>2026-03-28T13:57:42.071Z</time></trkpt><trkpt lat="45.8246103" lon="13.8417845"><ele>299.0</ele><time>2026-03-28T13:57:43.073Z</time></trkpt><trkpt lat="45.8245186" lon="13.8419143"><ele>301.25</ele><time>2026-03-28T13:57:44.076Z</time></trkpt><trkpt lat="45.8244302" lon="13.8420326"><ele>303.5</ele><time>2026-03-28T13:57:45.073Z</time></trkpt><trkpt lat="45.8243445" lon="13.8421487"><ele>305.75</ele><time>2026-03-28T13:57:46.086Z</time></trkpt><trkpt lat="45.824252" lon="13.8422617"><ele>308.0</ele><time>2026-03-28T13:57:47.073Z</time></trkpt><trkpt lat="45.8241612" lon="13.8423808"><ele>308.0</ele><time>2026-03-28T13:57:48.079Z</time></trkpt><trkpt lat="45.8240736" lon="13.8424937"><ele>308.0</ele><time>2026-03-28T13:57:49.075Z</time></trkpt><trkpt lat="45.8239942" lon="13.8425956"><ele>308.0</ele><time>2026-03-28T13:57:50.076Z</time></trkpt><trkpt lat="45.8239291" lon="13.8426818"><ele>308.0</ele><time>2026-03-28T13:57:51.084Z</time></trkpt><trkpt lat="45.8238391" lon="13.842774"><ele>308.0</ele><time>2026-03-28T13:57:53.082Z</time></trkpt><trkpt lat="45.8237521" lon="13.842906"><ele>308.0</ele><time>2026-03-28T13:57:55.073Z</time></trkpt><trkpt lat="45.823704" lon="13.8429801"><ele>308.0</ele><time>2026-03-28T13:57:56.056Z</time></trkpt><trkpt lat="45.8236582" lon="13.843051"><ele>308.0</ele><time>2026-03-28T13:57:57.077Z</time></trkpt><trkpt lat="45.8236116" lon="13.8431147"><ele>308.0</ele><time>2026-03-28T13:57:58.073Z</time></trkpt><trkpt lat="45.8235263" lon="13.8432243"><ele>308.0</ele><time>2026-03-28T13:58:00.066Z</time></trkpt><trkpt lat="45.8234385" lon="13.8433386"><ele>308.0</ele><time>2026-03-28T13:58:02.071Z</time></trkpt><trkpt lat="45.8233632" lon="13.8434603"><ele>309.8</ele><time>2026-03-28T13:58:04.074Z</time></trkpt><trkpt lat="45.823294" lon="13.8435841"><ele>311.6</ele><time>2026-03-28T13:58:06.077Z</time></trkpt><trkpt lat="45.8232228" lon="13.8436644"><ele>313.4</ele><time>2026-03-28T13:58:08.081Z</time></trkpt><trkpt lat="45.8230888" lon="13.8436547"><ele>315.2</ele><time>2026-03-28T13:58:10.072Z</time></trkpt><trkpt lat="45.8229922" lon="13.8436395"><ele>317.0</ele><time>2026-03-28T13:58:11.069Z</time></trkpt><trkpt lat="45.8228789" lon="13.8436318"><ele>317.0</ele><time>2026-03-28T13:58:12.074Z</time></trkpt><trkpt lat="45.8227592" lon="13.8436196"><ele>317.0</ele><time>2026-03-28T13:58:13.076Z</time></trkpt><trkpt lat="45.8226494" lon="13.8435938"><ele>317.0</ele><time>2026-03-28T13:58:14.077Z</time></trkpt><trkpt lat="45.8225416" lon="13.8435643"><ele>317.0</ele><time>2026-03-28T13:58:15.077Z</time></trkpt><trkpt lat="45.8224246" lon="13.8435551"><ele>315.4</ele><time>2026-03-28T13:58:16.078Z</time></trkpt><trkpt lat="45.8223111" lon="13.843555"><ele>313.79999999999995</ele><time>2026-03-28T13:58:17.064Z</time></trkpt><trkpt lat="45.8221975" lon="13.8435579"><ele>312.2</ele><time>2026-03-28T13:58:18.083Z</time></trkpt><trkpt lat="45.8220891" lon="13.843566"><ele>310.59999999999997</ele><time>2026-03-28T13:58:19.076Z</time></trkpt><trkpt lat="45.8219809" lon="13.843581"><ele>309.0</ele><time>2026-03-28T13:58:20.071Z</time></trkpt><trkpt lat="45.8218749" lon="13.8435928"><ele>307.8</ele><time>2026-03-28T13:58:21.076Z</time></trkpt><trkpt lat="45.8217645" lon="13.843614"><ele>306.59999999999997</ele><time>2026-03-28T13:58:22.076Z</time></trkpt><trkpt lat="45.8216532" lon="13.8436414"><ele>305.4</ele><time>2026-03-28T13:58:23.084Z</time></trkpt><trkpt lat="45.8215449" lon="13.8436659"><ele>304.2</ele><time>2026-03-28T13:58:24.079Z</time></trkpt><trkpt lat="45.8214363" lon="13.8436919"><ele>303.0</ele><time>2026-03-28T13:58:25.077Z</time></trkpt><trkpt lat="45.8213162" lon="13.8437208"><ele>303.0</ele><time>2026-03-28T13:58:26.075Z</time></trkpt><trkpt lat="45.821186" lon="13.8437479"><ele>303.0</ele><time>2026-03-28T13:58:27.073Z</time></trkpt><trkpt lat="45.8210475" lon="13.8437587"><ele>303.0</ele><time>2026-03-28T13:58:28.072Z</time></trkpt><trkpt lat="45.8209038" lon="13.8437492"><ele>303.0</ele><time>2026-03-28T13:58:29.078Z</time></trkpt><trkpt lat="45.8207653" lon="13.8437334"><ele>301.25</ele><time>2026-03-28T13:58:30.077Z</time></trkpt><trkpt lat="45.8206305" lon="13.8437186"><ele>299.5</ele><time>2026-03-28T13:58:31.071Z</time></trkpt><trkpt lat="45.8204932" lon="13.8437082"><ele>297.75</ele><time>2026-03-28T13:58:32.078Z</time></trkpt><trkpt lat="45.8203506" lon="13.8437109"><ele>296.0</ele><time>2026-03-28T13:58:33.069Z</time></trkpt><trkpt lat="45.8202018" lon="13.8437382"><ele>294.0</ele><time>2026-03-28T13:58:34.073Z</time></trkpt><trkpt lat="45.8200479" lon="13.8437928"><ele>292.0</ele><time>2026-03-28T13:58:35.073Z</time></trkpt><trkpt lat="45.8198945" lon="13.8438588"><ele>290.0</ele><time>2026-03-28T13:58:36.082Z</time></trkpt><trkpt lat="45.8197573" lon="13.8439374"><ele>290.0</ele><time>2026-03-28T13:58:37.07Z</time></trkpt><trkpt lat="45.8196343" lon="13.8440221"><ele>290.0</ele><time>2026-03-28T13:58:38.083Z</time></trkpt><trkpt lat="45.8195151" lon="13.8441093"><ele>290.0</ele><time>2026-03-28T13:58:39.076Z</time></trkpt><trkpt lat="45.8194012" lon="13.8441808"><ele>290.0</ele><time>2026-03-28T13:58:40.075Z</time></trkpt><trkpt lat="45.8192907" lon="13.8442455"><ele>288.75</ele><time>2026-03-28T13:58:41.071Z</time></trkpt><trkpt lat="45.8191815" lon="13.8443083"><ele>287.5</ele><time>2026-03-28T13:58:42.072Z</time></trkpt><trkpt lat="45.8190683" lon="13.8443726"><ele>286.25</ele><time>2026-03-28T13:58:43.074Z</time></trkpt><trkpt lat="45.818947" lon="13.8444308"><ele>285.0</ele><time>2026-03-28T13:58:44.078Z</time></trkpt><trkpt lat="45.8188312" lon="13.8444818"><ele>285.0</ele><time>2026-03-28T13:58:45.081Z</time></trkpt><trkpt lat="45.8187181" lon="13.844522"><ele>285.0</ele><time>2026-03-28T13:58:46.081Z</time></trkpt><trkpt lat="45.8186085" lon="13.8445569"><ele>285.0</ele><time>2026-03-28T13:58:47.091Z</time></trkpt><trkpt lat="45.8184918" lon="13.8445823"><ele>285.0</ele><time>2026-03-28T13:58:48.082Z</time></trkpt><trkpt lat="45.8183737" lon="13.8446034"><ele>285.75</ele><time>2026-03-28T13:58:49.081Z</time></trkpt><trkpt lat="45.8182565" lon="13.8446256"><ele>286.5</ele><time>2026-03-28T13:58:50.08Z</time></trkpt><trkpt lat="45.8181405" lon="13.8446517"><ele>287.25</ele><time>2026-03-28T13:58:51.078Z</time></trkpt><trkpt lat="45.8180271" lon="13.8446894"><ele>288.0</ele><time>2026-03-28T13:58:52.097Z</time></trkpt><trkpt lat="45.8179174" lon="13.8447445"><ele>288.0</ele><time>2026-03-28T13:58:53.078Z</time></trkpt><trkpt lat="45.8178059" lon="13.8448196"><ele>288.0</ele><time>2026-03-28T13:58:54.081Z</time></trkpt><trkpt lat="45.8176868" lon="13.8449087"><ele>288.0</ele><time>2026-03-28T13:58:55.08Z</time></trkpt><trkpt lat="45.8175712" lon="13.8450203"><ele>288.0</ele><time>2026-03-28T13:58:56.076Z</time></trkpt><trkpt lat="45.8174703" lon="13.8451586"><ele>286.6666666666667</ele><time>2026-03-28T13:58:57.077Z</time></trkpt><trkpt lat="45.8173743" lon="13.8453199"><ele>285.33333333333337</ele><time>2026-03-28T13:58:58.084Z</time></trkpt><trkpt lat="45.8172906" lon="13.8455083"><ele>284.0</ele><time>2026-03-28T13:58:59.088Z</time></trkpt><trkpt lat="45.8172271" lon="13.8457106"><ele>284.0</ele><time>2026-03-28T13:59:00.082Z</time></trkpt><trkpt lat="45.8171732" lon="13.8459146"><ele>284.0</ele><time>2026-03-28T13:59:01.08Z</time></trkpt><trkpt lat="45.8171314" lon="13.8461096"><ele>284.0</ele><time>2026-03-28T13:59:02.08Z</time></trkpt><trkpt lat="45.8170965" lon="13.8463044"><ele>284.0</ele><time>2026-03-28T13:59:03.08Z</time></trkpt><trkpt lat="45.8170645" lon="13.8464928"><ele>283.5</ele><time>2026-03-28T13:59:04.071Z</time></trkpt><trkpt lat="45.8170419" lon="13.8466756"><ele>283.0</ele><time>2026-03-28T13:59:05.078Z</time></trkpt><trkpt lat="45.8170121" lon="13.8468574"><ele>282.5</ele><time>2026-03-28T13:59:06.077Z</time></trkpt><trkpt lat="45.8169808" lon="13.8470341"><ele>282.0</ele><time>2026-03-28T13:59:07.076Z</time></trkpt><trkpt lat="45.8169505" lon="13.8472122"><ele>281.75</ele><time>2026-03-28T13:59:08.079Z</time></trkpt><trkpt lat="45.8169251" lon="13.847385"><ele>281.5</ele><time>2026-03-28T13:59:09.079Z</time></trkpt><trkpt lat="45.8168986" lon="13.8475636"><ele>281.25</ele><time>2026-03-28T13:59:10.087Z</time></trkpt><trkpt lat="45.8168629" lon="13.8477375"><ele>281.0</ele><time>2026-03-28T13:59:11.08Z</time></trkpt><trkpt lat="45.8168182" lon="13.8479004"><ele>280.75</ele><time>2026-03-28T13:59:12.094Z</time></trkpt><trkpt lat="45.8167608" lon="13.848054"><ele>280.5</ele><time>2026-03-28T13:59:13.08Z</time></trkpt><trkpt lat="45.8166909" lon="13.8482015"><ele>280.25</ele><time>2026-03-28T13:59:14.071Z</time></trkpt><trkpt lat="45.8166058" lon="13.8483375"><ele>280.0</ele><time>2026-03-28T13:59:15.077Z</time></trkpt><trkpt lat="45.8165055" lon="13.8484693"><ele>279.0</ele><time>2026-03-28T13:59:16.081Z</time></trkpt><trkpt lat="45.8164008" lon="13.8486001"><ele>278.0</ele><time>2026-03-28T13:59:17.076Z</time></trkpt><trkpt lat="45.8163007" lon="13.8487228"><ele>277.0</ele><time>2026-03-28T13:59:18.09Z</time></trkpt><trkpt lat="45.8162093" lon="13.8488387"><ele>276.0</ele><time>2026-03-28T13:59:19.074Z</time></trkpt><trkpt lat="45.8161198" lon="13.8489451"><ele>276.0</ele><time>2026-03-28T13:59:20.083Z</time></trkpt><trkpt lat="45.8160317" lon="13.8490575"><ele>276.0</ele><time>2026-03-28T13:59:21.078Z</time></trkpt><trkpt lat="45.8159394" lon="13.8491698"><ele>276.0</ele><time>2026-03-28T13:59:22.075Z</time></trkpt><trkpt lat="45.8158398" lon="13.8492738"><ele>276.0</ele><time>2026-03-28T13:59:23.077Z</time></trkpt><trkpt lat="45.8157373" lon="13.8493639"><ele>276.40000000000003</ele><time>2026-03-28T13:59:24.083Z</time></trkpt><trkpt lat="45.8156366" lon="13.8494386"><ele>276.8</ele><time>2026-03-28T13:59:25.071Z</time></trkpt><trkpt lat="45.8155433" lon="13.8495089"><ele>277.20000000000005</ele><time>2026-03-28T13:59:26.089Z</time></trkpt><trkpt lat="45.8154533" lon="13.8495724"><ele>277.6</ele><time>2026-03-28T13:59:27.08Z</time></trkpt><trkpt lat="45.8153685" lon="13.8496314"><ele>278.0</ele><time>2026-03-28T13:59:28.08Z</time></trkpt><trkpt lat="45.8152863" lon="13.8496827"><ele>278.0</ele><time>2026-03-28T13:59:29.08Z</time></trkpt><trkpt lat="45.8152016" lon="13.8497253"><ele>278.0</ele><time>2026-03-28T13:59:30.081Z</time></trkpt><trkpt lat="45.8151184" lon="13.8497705"><ele>278.0</ele><time>2026-03-28T13:59:31.084Z</time></trkpt><trkpt lat="45.8150571" lon="13.8498456"><ele>278.0</ele><time>2026-03-28T13:59:32.086Z</time></trkpt><trkpt lat="45.8150142" lon="13.8499627"><ele>278.0</ele><time>2026-03-28T13:59:33.079Z</time></trkpt><trkpt lat="45.8149943" lon="13.8501009"><ele>278.0</ele><time>2026-03-28T13:59:34.078Z</time></trkpt><trkpt lat="45.8150079" lon="13.8502613"><ele>278.0</ele><time>2026-03-28T13:59:35.08Z</time></trkpt><trkpt lat="45.8150506" lon="13.8504061"><ele>278.0</ele><time>2026-03-28T13:59:36.074Z</time></trkpt><trkpt lat="45.8151092" lon="13.8505464"><ele>278.0</ele><time>2026-03-28T13:59:37.074Z</time></trkpt><trkpt lat="45.8151774" lon="13.8506625"><ele>278.0</ele><time>2026-03-28T13:59:38.078Z</time></trkpt><trkpt lat="45.8152616" lon="13.8507578"><ele>277.6</ele><time>2026-03-28T13:59:39.077Z</time></trkpt><trkpt lat="45.8153529" lon="13.8508251"><ele>277.20000000000005</ele><time>2026-03-28T13:59:40.076Z</time></trkpt><trkpt lat="45.8154495" lon="13.850873"><ele>276.8</ele><time>2026-03-28T13:59:41.08Z</time></trkpt><trkpt lat="45.8155505" lon="13.850913"><ele>276.40000000000003</ele><time>2026-03-28T13:59:42.08Z</time></trkpt><trkpt lat="45.8156561" lon="13.850973"><ele>276.0</ele><time>2026-03-28T13:59:43.095Z</time></trkpt><trkpt lat="45.815757" lon="13.851058"><ele>276.0</ele><time>2026-03-28T13:59:44.105Z</time></trkpt><trkpt lat="45.8158388" lon="13.8511608"><ele>276.0</ele><time>2026-03-28T13:59:45.092Z</time></trkpt><trkpt lat="45.8159051" lon="13.851291"><ele>276.0</ele><time>2026-03-28T13:59:46.087Z</time></trkpt><trkpt lat="45.8159507" lon="13.851439"><ele>276.0</ele><time>2026-03-28T13:59:47.073Z</time></trkpt><trkpt lat="45.8160027" lon="13.8515831"><ele>276.0</ele><time>2026-03-28T13:59:48.074Z</time></trkpt><trkpt lat="45.8160578" lon="13.8517082"><ele>276.0</ele><time>2026-03-28T13:59:49.076Z</time></trkpt><trkpt lat="45.8160986" lon="13.8518388"><ele>276.0</ele><time>2026-03-28T13:59:50.073Z</time></trkpt><trkpt lat="45.8160912" lon="13.8519425"><ele>276.0</ele><time>2026-03-28T13:59:51.079Z</time></trkpt><trkpt lat="45.8160542" lon="13.8520379"><ele>276.0</ele><time>2026-03-28T13:59:52.066Z</time></trkpt><trkpt lat="45.8160006" lon="13.8521403"><ele>276.0</ele><time>2026-03-28T13:59:53.07Z</time></trkpt><trkpt lat="45.815941" lon="13.8522517"><ele>276.0</ele><time>2026-03-28T13:59:54.069Z</time></trkpt><trkpt lat="45.8159058" lon="13.8523722"><ele>276.0</ele><time>2026-03-28T13:59:55.076Z</time></trkpt><trkpt lat="45.8158848" lon="13.8525016"><ele>276.0</ele><time>2026-03-28T13:59:56.082Z</time></trkpt><trkpt lat="45.81586" lon="13.8526229"><ele>276.0</ele><time>2026-03-28T13:59:57.072Z</time></trkpt><trkpt lat="45.8158148" lon="13.8527349"><ele>276.0</ele><time>2026-03-28T13:59:58.079Z</time></trkpt><trkpt lat="45.8157557" lon="13.8528274"><ele>276.0</ele><time>2026-03-28T13:59:59.074Z</time></trkpt><trkpt lat="45.8156719" lon="13.8528871"><ele>278.40000000000003</ele><time>2026-03-28T14:00:00.076Z</time></trkpt><trkpt lat="45.8155685" lon="13.852931"><ele>280.8</ele><time>2026-03-28T14:00:01.065Z</time></trkpt><trkpt lat="45.8154643" lon="13.8529865"><ele>283.20000000000005</ele><time>2026-03-28T14:00:02.069Z</time></trkpt><trkpt lat="45.8153738" lon="13.8530474"><ele>285.6</ele><time>2026-03-28T14:00:03.07Z</time></trkpt><trkpt lat="45.8152786" lon="13.8531152"><ele>288.0</ele><time>2026-03-28T14:00:04.074Z</time></trkpt><trkpt lat="45.8151735" lon="13.8531571"><ele>283.25</ele><time>2026-03-28T14:00:05.079Z</time></trkpt><trkpt lat="45.8150643" lon="13.8531513"><ele>278.5</ele><time>2026-03-28T14:00:06.065Z</time></trkpt><trkpt lat="45.8149416" lon="13.853111"><ele>273.75</ele><time>2026-03-28T14:00:07.077Z</time></trkpt><trkpt lat="45.8148166" lon="13.8530605"><ele>269.0</ele><time>2026-03-28T14:00:08.07Z</time></trkpt><trkpt lat="45.8146888" lon="13.8530121"><ele>269.0</ele><time>2026-03-28T14:00:09.078Z</time></trkpt><trkpt lat="45.8145647" lon="13.8529683"><ele>269.0</ele><time>2026-03-28T14:00:10.083Z</time></trkpt><trkpt lat="45.8144378" lon="13.8529244"><ele>269.0</ele><time>2026-03-28T14:00:11.072Z</time></trkpt><trkpt lat="45.8143143" lon="13.8528787"><ele>269.0</ele><time>2026-03-28T14:00:12.073Z</time></trkpt><trkpt lat="45.8141915" lon="13.8528282"><ele>267.5</ele><time>2026-03-28T14:00:13.068Z</time></trkpt><trkpt lat="45.8140766" lon="13.8527763"><ele>266.0</ele><time>2026-03-28T14:00:14.076Z</time></trkpt><trkpt lat="45.8139657" lon="13.8527318"><ele>264.5</ele><time>2026-03-28T14:00:15.076Z</time></trkpt><trkpt lat="45.8138548" lon="13.8527455"><ele>263.0</ele><time>2026-03-28T14:00:16.077Z</time></trkpt><trkpt lat="45.8137465" lon="13.8528126"><ele>263.0</ele><time>2026-03-28T14:00:17.081Z</time></trkpt><trkpt lat="45.8136658" lon="13.8529348"><ele>263.0</ele><time>2026-03-28T14:00:18.074Z</time></trkpt><trkpt lat="45.8136" lon="13.8530892"><ele>263.0</ele><time>2026-03-28T14:00:19.075Z</time></trkpt><trkpt lat="45.8135353" lon="13.8532315"><ele>263.0</ele><time>2026-03-28T14:00:20.08Z</time></trkpt><trkpt lat="45.8134473" lon="13.853362"><ele>260.5</ele><time>2026-03-28T14:00:21.084Z</time></trkpt><trkpt lat="45.813335" lon="13.8534853"><ele>258.0</ele><time>2026-03-28T14:00:22.086Z</time></trkpt><trkpt lat="45.8132249" lon="13.8536241"><ele>255.5</ele><time>2026-03-28T14:00:23.073Z</time></trkpt><trkpt lat="45.8131157" lon="13.8537765"><ele>253.0</ele><time>2026-03-28T14:00:24.081Z</time></trkpt><trkpt lat="45.8130153" lon="13.8539282"><ele>253.0</ele><time>2026-03-28T14:00:25.075Z</time></trkpt><trkpt lat="45.8129109" lon="13.8540654"><ele>253.0</ele><time>2026-03-28T14:00:26.079Z</time></trkpt><trkpt lat="45.8128066" lon="13.8541837"><ele>253.0</ele><time>2026-03-28T14:00:27.079Z</time></trkpt><trkpt lat="45.8126923" lon="13.8542405"><ele>253.0</ele><time>2026-03-28T14:00:28.079Z</time></trkpt><trkpt lat="45.8125665" lon="13.8542576"><ele>251.60000000000002</ele><time>2026-03-28T14:00:29.067Z</time></trkpt><trkpt lat="45.8124511" lon="13.8542954"><ele>250.20000000000002</ele><time>2026-03-28T14:00:30.085Z</time></trkpt><trkpt lat="45.8123542" lon="13.8543627"><ele>248.8</ele><time>2026-03-28T14:00:31.074Z</time></trkpt><trkpt lat="45.8122828" lon="13.8544488"><ele>247.4</ele><time>2026-03-28T14:00:32.076Z</time></trkpt><trkpt lat="45.8122293" lon="13.8545315"><ele>246.0</ele><time>2026-03-28T14:00:33.083Z</time></trkpt><trkpt lat="45.8121875" lon="13.8546282"><ele>246.0</ele><time>2026-03-28T14:00:34.084Z</time></trkpt><trkpt lat="45.8121506" lon="13.854731"><ele>246.00000000000003</ele><time>2026-03-28T14:00:35.078Z</time></trkpt><trkpt lat="45.8121045" lon="13.8548401"><ele>246.00000000000003</ele><time>2026-03-28T14:00:36.086Z</time></trkpt><trkpt lat="45.8120532" lon="13.854957"><ele>246.0</ele><time>2026-03-28T14:00:37.081Z</time></trkpt><trkpt lat="45.8119985" lon="13.855069"><ele>246.0</ele><time>2026-03-28T14:00:38.079Z</time></trkpt><trkpt lat="45.8119341" lon="13.8551937"><ele>245.0</ele><time>2026-03-28T14:00:39.077Z</time></trkpt><trkpt lat="45.8118667" lon="13.8553086"><ele>244.00000000000003</ele><time>2026-03-28T14:00:40.079Z</time></trkpt><trkpt lat="45.811804" lon="13.8554239"><ele>243.00000000000003</ele><time>2026-03-28T14:00:41.076Z</time></trkpt><trkpt lat="45.8117483" lon="13.8555418"><ele>242.0</ele><time>2026-03-28T14:00:42.076Z</time></trkpt><trkpt lat="45.8116988" lon="13.8556526"><ele>241.0</ele><time>2026-03-28T14:00:43.071Z</time></trkpt><trkpt lat="45.8116486" lon="13.8557626"><ele>240.99999999999997</ele><time>2026-03-28T14:00:44.075Z</time></trkpt><trkpt lat="45.8115925" lon="13.85587"><ele>241.0</ele><time>2026-03-28T14:00:45.069Z</time></trkpt><trkpt lat="45.8115355" lon="13.8559696"><ele>241.0</ele><time>2026-03-28T14:00:46.069Z</time></trkpt><trkpt lat="45.8114772" lon="13.8560665"><ele>241.0</ele><time>2026-03-28T14:00:47.077Z</time></trkpt><trkpt lat="45.8114164" lon="13.8561588"><ele>240.99999999999997</ele><time>2026-03-28T14:00:48.077Z</time></trkpt><trkpt lat="45.8113535" lon="13.8562457"><ele>241.0</ele><time>2026-03-28T14:00:49.071Z</time></trkpt><trkpt lat="45.8112869" lon="13.8563191"><ele>240.16666666666666</ele><time>2026-03-28T14:00:50.079Z</time></trkpt><trkpt lat="45.8112149" lon="13.8563753"><ele>239.33333333333331</ele><time>2026-03-28T14:00:51.075Z</time></trkpt><trkpt lat="45.8111394" lon="13.8564061"><ele>238.5</ele><time>2026-03-28T14:00:52.074Z</time></trkpt><trkpt lat="45.8110642" lon="13.8564285"><ele>237.66666666666669</ele><time>2026-03-28T14:00:53.071Z</time></trkpt><trkpt lat="45.8109922" lon="13.8564821"><ele>236.83333333333334</ele><time>2026-03-28T14:00:54.079Z</time></trkpt><trkpt lat="45.8109414" lon="13.8565774"><ele>236.0</ele><time>2026-03-28T14:00:55.075Z</time></trkpt><trkpt lat="45.8108955" lon="13.8566766"><ele>236.00000000000003</ele><time>2026-03-28T14:00:56.078Z</time></trkpt><trkpt lat="45.8108486" lon="13.8567754"><ele>236.0</ele><time>2026-03-28T14:00:57.081Z</time></trkpt><trkpt lat="45.8107937" lon="13.8568707"><ele>236.0</ele><time>2026-03-28T14:00:58.08Z</time></trkpt><trkpt lat="45.8107368" lon="13.8569608"><ele>236.0</ele><time>2026-03-28T14:00:59.074Z</time></trkpt><trkpt lat="45.8106755" lon="13.857059"><ele>236.00000000000003</ele><time>2026-03-28T14:01:00.092Z</time></trkpt><trkpt lat="45.8106106" lon="13.8571592"><ele>236.0</ele><time>2026-03-28T14:01:01.067Z</time></trkpt><trkpt lat="45.8105478" lon="13.8572635"><ele>233.4</ele><time>2026-03-28T14:01:02.079Z</time></trkpt><trkpt lat="45.8104766" lon="13.8573785"><ele>230.8</ele><time>2026-03-28T14:01:03.074Z</time></trkpt><trkpt lat="45.8104026" lon="13.8574806"><ele>228.20000000000002</ele><time>2026-03-28T14:01:04.075Z</time></trkpt><trkpt lat="45.8103293" lon="13.8575775"><ele>225.60000000000002</ele><time>2026-03-28T14:01:05.073Z</time></trkpt><trkpt lat="45.810251" lon="13.8576732"><ele>223.0</ele><time>2026-03-28T14:01:06.075Z</time></trkpt><trkpt lat="45.8101702" lon="13.8577606"><ele>220.4</ele><time>2026-03-28T14:01:07.074Z</time></trkpt><trkpt lat="45.8100884" lon="13.8578405"><ele>217.8</ele><time>2026-03-28T14:01:08.083Z</time></trkpt><trkpt lat="45.8100122" lon="13.8579226"><ele>215.2</ele><time>2026-03-28T14:01:09.066Z</time></trkpt><trkpt lat="45.8099381" lon="13.8580049"><ele>212.6</ele><time>2026-03-28T14:01:10.079Z</time></trkpt><trkpt lat="45.8098648" lon="13.8580795"><ele>210.0</ele><time>2026-03-28T14:01:11.07Z</time></trkpt><trkpt lat="45.809793" lon="13.8581422"><ele>210.0</ele><time>2026-03-28T14:01:12.068Z</time></trkpt><trkpt lat="45.8097179" lon="13.858191"><ele>210.0</ele><time>2026-03-28T14:01:13.071Z</time></trkpt><trkpt lat="45.8096387" lon="13.8582319"><ele>210.0</ele><time>2026-03-28T14:01:14.071Z</time></trkpt><trkpt lat="45.8095551" lon="13.8582559"><ele>210.0</ele><time>2026-03-28T14:01:15.083Z</time></trkpt><trkpt lat="45.8094726" lon="13.8582758"><ele>210.0</ele><time>2026-03-28T14:01:16.065Z</time></trkpt><trkpt lat="45.8093945" lon="13.858301"><ele>210.0</ele><time>2026-03-28T14:01:17.069Z</time></trkpt><trkpt lat="45.8093311" lon="13.8583485"><ele>209.0</ele><time>2026-03-28T14:01:18.065Z</time></trkpt><trkpt lat="45.8092779" lon="13.8584156"><ele>208.0</ele><time>2026-03-28T14:01:19.063Z</time></trkpt><trkpt lat="45.8092342" lon="13.8584881"><ele>207.0</ele><time>2026-03-28T14:01:20.058Z</time></trkpt><trkpt lat="45.8091919" lon="13.8585737"><ele>206.0</ele><time>2026-03-28T14:01:21.063Z</time></trkpt><trkpt lat="45.80915" lon="13.8586829"><ele>205.0</ele><time>2026-03-28T14:01:22.068Z</time></trkpt><trkpt lat="45.8091096" lon="13.8587867"><ele>204.0</ele><time>2026-03-28T14:01:23.073Z</time></trkpt><trkpt lat="45.8090611" lon="13.8588825"><ele>204.0</ele><time>2026-03-28T14:01:24.071Z</time></trkpt><trkpt lat="45.8090106" lon="13.8589735"><ele>204.0</ele><time>2026-03-28T14:01:25.073Z</time></trkpt><trkpt lat="45.8089568" lon="13.8590654"><ele>204.0</ele><time>2026-03-28T14:01:26.077Z</time></trkpt><trkpt lat="45.8088982" lon="13.8591566"><ele>204.0</ele><time>2026-03-28T14:01:27.078Z</time></trkpt><trkpt lat="45.808833" lon="13.8592356"><ele>204.0</ele><time>2026-03-28T14:01:28.072Z</time></trkpt><trkpt lat="45.8087643" lon="13.8593162"><ele>204.0</ele><time>2026-03-28T14:01:29.08Z</time></trkpt><trkpt lat="45.8087008" lon="13.859396"><ele>202.79999999999998</ele><time>2026-03-28T14:01:30.086Z</time></trkpt><trkpt lat="45.808642" lon="13.8594784"><ele>201.6</ele><time>2026-03-28T14:01:31.077Z</time></trkpt><trkpt lat="45.8085843" lon="13.8595787"><ele>200.4</ele><time>2026-03-28T14:01:32.066Z</time></trkpt><trkpt lat="45.8085234" lon="13.8596844"><ele>199.2</ele><time>2026-03-28T14:01:33.062Z</time></trkpt><trkpt lat="45.8084637" lon="13.8597892"><ele>198.0</ele><time>2026-03-28T14:01:34.067Z</time></trkpt><trkpt lat="45.8084015" lon="13.859897"><ele>198.0</ele><time>2026-03-28T14:01:35.07Z</time></trkpt><trkpt lat="45.808345" lon="13.8600108"><ele>198.0</ele><time>2026-03-28T14:01:36.069Z</time></trkpt><trkpt lat="45.8082977" lon="13.8601233"><ele>198.0</ele><time>2026-03-28T14:01:37.071Z</time></trkpt><trkpt lat="45.8082413" lon="13.8602105"><ele>198.0</ele><time>2026-03-28T14:01:38.076Z</time></trkpt><trkpt lat="45.8081658" lon="13.8602868"><ele>198.0</ele><time>2026-03-28T14:01:39.071Z</time></trkpt><trkpt lat="45.8080844" lon="13.860358"><ele>196.60000000000002</ele><time>2026-03-28T14:01:40.082Z</time></trkpt><trkpt lat="45.8080053" lon="13.8604251"><ele>195.20000000000002</ele><time>2026-03-28T14:01:41.067Z</time></trkpt><trkpt lat="45.8079235" lon="13.8605065"><ele>193.8</ele><time>2026-03-28T14:01:42.064Z</time></trkpt><trkpt lat="45.8078478" lon="13.8605944"><ele>192.4</ele><time>2026-03-28T14:01:43.067Z</time></trkpt><trkpt lat="45.8077793" lon="13.860681"><ele>191.0</ele><time>2026-03-28T14:01:44.07Z</time></trkpt><trkpt lat="45.8077166" lon="13.8607587"><ele>191.60000000000002</ele><time>2026-03-28T14:01:45.069Z</time></trkpt><trkpt lat="45.8076593" lon="13.8608343"><ele>192.2</ele><time>2026-03-28T14:01:46.083Z</time></trkpt><trkpt lat="45.8075973" lon="13.8609214"><ele>192.8</ele><time>2026-03-28T14:01:47.067Z</time></trkpt><trkpt lat="45.8075232" lon="13.8610124"><ele>193.39999999999998</ele><time>2026-03-28T14:01:48.074Z</time></trkpt><trkpt lat="45.8074403" lon="13.8611073"><ele>194.0</ele><time>2026-03-28T14:01:49.07Z</time></trkpt><trkpt lat="45.8073565" lon="13.8611961"><ele>192.6</ele><time>2026-03-28T14:01:50.065Z</time></trkpt><trkpt lat="45.8072689" lon="13.8612927"><ele>191.2</ele><time>2026-03-28T14:01:51.074Z</time></trkpt><trkpt lat="45.8071865" lon="13.8613945"><ele>189.79999999999998</ele><time>2026-03-28T14:01:52.07Z</time></trkpt><trkpt lat="45.8071122" lon="13.8614916"><ele>188.39999999999998</ele><time>2026-03-28T14:01:53.066Z</time></trkpt><trkpt lat="45.8070348" lon="13.861591"><ele>187.0</ele><time>2026-03-28T14:01:54.069Z</time></trkpt><trkpt lat="45.8069626" lon="13.8616933"><ele>186.8</ele><time>2026-03-28T14:01:55.078Z</time></trkpt><trkpt lat="45.806889" lon="13.861798"><ele>186.6</ele><time>2026-03-28T14:01:56.076Z</time></trkpt><trkpt lat="45.8068093" lon="13.8618879"><ele>186.4</ele><time>2026-03-28T14:01:57.079Z</time></trkpt><trkpt lat="45.8067217" lon="13.8619707"><ele>186.20000000000002</ele><time>2026-03-28T14:01:58.069Z</time></trkpt><trkpt lat="45.8066394" lon="13.862049"><ele>186.0</ele><time>2026-03-28T14:01:59.076Z</time></trkpt><trkpt lat="45.806559" lon="13.8621407"><ele>185.0</ele><time>2026-03-28T14:02:00.06Z</time></trkpt><trkpt lat="45.8064808" lon="13.862245"><ele>184.0</ele><time>2026-03-28T14:02:01.074Z</time></trkpt><trkpt lat="45.8064059" lon="13.8623473"><ele>183.0</ele><time>2026-03-28T14:02:02.068Z</time></trkpt><trkpt lat="45.8063356" lon="13.8624546"><ele>182.0</ele><time>2026-03-28T14:02:03.081Z</time></trkpt><trkpt lat="45.8062671" lon="13.8625654"><ele>181.0</ele><time>2026-03-28T14:02:04.077Z</time></trkpt><trkpt lat="45.8061991" lon="13.8626811"><ele>180.8</ele><time>2026-03-28T14:02:05.078Z</time></trkpt><trkpt lat="45.8061296" lon="13.8627899"><ele>180.60000000000002</ele><time>2026-03-28T14:02:06.082Z</time></trkpt><trkpt lat="45.8060546" lon="13.8628989"><ele>180.4</ele><time>2026-03-28T14:02:07.072Z</time></trkpt><trkpt lat="45.8059795" lon="13.8630037"><ele>180.2</ele><time>2026-03-28T14:02:08.072Z</time></trkpt><trkpt lat="45.805906" lon="13.8631165"><ele>180.0</ele><time>2026-03-28T14:02:09.084Z</time></trkpt><trkpt lat="45.8058327" lon="13.863229"><ele>180.0</ele><time>2026-03-28T14:02:10.083Z</time></trkpt><trkpt lat="45.8057705" lon="13.8633336"><ele>180.0</ele><time>2026-03-28T14:02:11.06Z</time></trkpt><trkpt lat="45.8057193" lon="13.8634386"><ele>180.0</ele><time>2026-03-28T14:02:12.065Z</time></trkpt><trkpt lat="45.8056684" lon="13.8635319"><ele>180.0</ele><time>2026-03-28T14:02:13.06Z</time></trkpt><trkpt lat="45.8056187" lon="13.8636297"><ele>180.0</ele><time>2026-03-28T14:02:14.061Z</time></trkpt><trkpt lat="45.8055776" lon="13.8637377"><ele>180.0</ele><time>2026-03-28T14:02:15.072Z</time></trkpt><trkpt lat="45.8055475" lon="13.863841"><ele>180.16666666666666</ele><time>2026-03-28T14:02:16.067Z</time></trkpt><trkpt lat="45.8055057" lon="13.863939"><ele>180.33333333333334</ele><time>2026-03-28T14:02:17.083Z</time></trkpt><trkpt lat="45.805448" lon="13.864013"><ele>180.5</ele><time>2026-03-28T14:02:18.073Z</time></trkpt><trkpt lat="45.805375" lon="13.86405"><ele>180.66666666666669</ele><time>2026-03-28T14:02:19.066Z</time></trkpt><trkpt lat="45.8053004" lon="13.8640499"><ele>180.83333333333334</ele><time>2026-03-28T14:02:20.069Z</time></trkpt><trkpt lat="45.8052143" lon="13.8640508"><ele>181.0</ele><time>2026-03-28T14:02:21.059Z</time></trkpt><trkpt lat="45.8051244" lon="13.864073"><ele>181.0</ele><time>2026-03-28T14:02:22.071Z</time></trkpt><trkpt lat="45.8050288" lon="13.8641202"><ele>181.0</ele><time>2026-03-28T14:02:23.065Z</time></trkpt><trkpt lat="45.8049467" lon="13.8641835"><ele>181.0</ele><time>2026-03-28T14:02:24.066Z</time></trkpt><trkpt lat="45.8048752" lon="13.8642511"><ele>181.0</ele><time>2026-03-28T14:02:25.064Z</time></trkpt><trkpt lat="45.804801" lon="13.8643205"><ele>181.0</ele><time>2026-03-28T14:02:26.064Z</time></trkpt><trkpt lat="45.804724" lon="13.8644041"><ele>181.75</ele><time>2026-03-28T14:02:27.066Z</time></trkpt><trkpt lat="45.8046449" lon="13.8645034"><ele>182.5</ele><time>2026-03-28T14:02:28.065Z</time></trkpt><trkpt lat="45.8045598" lon="13.8646142"><ele>183.25</ele><time>2026-03-28T14:02:29.079Z</time></trkpt><trkpt lat="45.8044686" lon="13.8647352"><ele>184.0</ele><time>2026-03-28T14:02:30.064Z</time></trkpt><trkpt lat="45.8043736" lon="13.8648671"><ele>183.25</ele><time>2026-03-28T14:02:31.065Z</time></trkpt><trkpt lat="45.8042755" lon="13.8650027"><ele>182.5</ele><time>2026-03-28T14:02:32.069Z</time></trkpt><trkpt lat="45.8041816" lon="13.8651203"><ele>181.75</ele><time>2026-03-28T14:02:33.066Z</time></trkpt><trkpt lat="45.8040922" lon="13.8652347"><ele>181.0</ele><time>2026-03-28T14:02:34.083Z</time></trkpt><trkpt lat="45.8040099" lon="13.8653438"><ele>182.0</ele><time>2026-03-28T14:02:35.064Z</time></trkpt><trkpt lat="45.8039378" lon="13.8654313"><ele>183.0</ele><time>2026-03-28T14:02:36.068Z</time></trkpt><trkpt lat="45.8038681" lon="13.865495"><ele>184.0</ele><time>2026-03-28T14:02:37.067Z</time></trkpt><trkpt lat="45.8037898" lon="13.865511"><ele>185.0</ele><time>2026-03-28T14:02:38.076Z</time></trkpt><trkpt lat="45.803696" lon="13.8654978"><ele>186.0</ele><time>2026-03-28T14:02:39.06Z</time></trkpt><trkpt lat="45.8036122" lon="13.8654884"><ele>187.0</ele><time>2026-03-28T14:02:40.062Z</time></trkpt><trkpt lat="45.8035239" lon="13.865522"><ele>188.16666666666669</ele><time>2026-03-28T14:02:41.066Z</time></trkpt><trkpt lat="45.8034574" lon="13.8655935"><ele>189.33333333333334</ele><time>2026-03-28T14:02:42.08Z</time></trkpt><trkpt lat="45.803406" lon="13.8656659"><ele>190.5</ele><time>2026-03-28T14:02:43.058Z</time></trkpt><trkpt lat="45.8033711" lon="13.8657648"><ele>191.66666666666669</ele><time>2026-03-28T14:02:44.057Z</time></trkpt><trkpt lat="45.8033499" lon="13.8658687"><ele>192.83333333333334</ele><time>2026-03-28T14:02:45.052Z</time></trkpt><trkpt lat="45.8033156" lon="13.8659919"><ele>194.0</ele><time>2026-03-28T14:02:47.073Z</time></trkpt><trkpt lat="45.8032604" lon="13.8660417"><ele>194.00000000000003</ele><time>2026-03-28T14:02:51.055Z</time></trkpt><trkpt lat="45.8032306" lon="13.8661455"><ele>194.0</ele><time>2026-03-28T14:02:53.056Z</time></trkpt><trkpt lat="45.8032143" lon="13.8662429"><ele>194.0</ele><time>2026-03-28T14:02:54.057Z</time></trkpt><trkpt lat="45.8031908" lon="13.8663486"><ele>194.0</ele><time>2026-03-28T14:02:55.058Z</time></trkpt><trkpt lat="45.8031651" lon="13.8664742"><ele>194.00000000000003</ele><time>2026-03-28T14:02:56.056Z</time></trkpt><trkpt lat="45.8031422" lon="13.8666123"><ele>194.0</ele><time>2026-03-28T14:02:57.067Z</time></trkpt><trkpt lat="45.8031179" lon="13.8667533"><ele>194.2</ele><time>2026-03-28T14:02:58.061Z</time></trkpt><trkpt lat="45.8030957" lon="13.866893"><ele>194.39999999999998</ele><time>2026-03-28T14:02:59.077Z</time></trkpt><trkpt lat="45.8030793" lon="13.8670352"><ele>194.6</ele><time>2026-03-28T14:03:00.064Z</time></trkpt><trkpt lat="45.8030569" lon="13.8671794"><ele>194.8</ele><time>2026-03-28T14:03:01.06Z</time></trkpt><trkpt lat="45.8030147" lon="13.8673272"><ele>195.0</ele><time>2026-03-28T14:03:02.062Z</time></trkpt><trkpt lat="45.8029582" lon="13.8674842"><ele>196.75</ele><time>2026-03-28T14:03:03.059Z</time></trkpt><trkpt lat="45.8028986" lon="13.8676484"><ele>198.5</ele><time>2026-03-28T14:03:04.07Z</time></trkpt><trkpt lat="45.8028445" lon="13.8678038"><ele>200.25</ele><time>2026-03-28T14:03:05.058Z</time></trkpt><trkpt lat="45.8027982" lon="13.8679559"><ele>202.0</ele><time>2026-03-28T14:03:06.064Z</time></trkpt><trkpt lat="45.8027645" lon="13.8681024"><ele>202.0</ele><time>2026-03-28T14:03:07.065Z</time></trkpt><trkpt lat="45.8027325" lon="13.8682329"><ele>202.0</ele><time>2026-03-28T14:03:08.066Z</time></trkpt><trkpt lat="45.8026936" lon="13.8683585"><ele>202.0</ele><time>2026-03-28T14:03:09.065Z</time></trkpt><trkpt lat="45.8026517" lon="13.8684945"><ele>202.0</ele><time>2026-03-28T14:03:10.074Z</time></trkpt><trkpt lat="45.802625" lon="13.8686361"><ele>202.0</ele><time>2026-03-28T14:03:11.066Z</time></trkpt><trkpt lat="45.8026288" lon="13.868803"><ele>201.5</ele><time>2026-03-28T14:03:12.078Z</time></trkpt><trkpt lat="45.8026543" lon="13.8689676"><ele>201.0</ele><time>2026-03-28T14:03:13.067Z</time></trkpt><trkpt lat="45.8027008" lon="13.8691159"><ele>200.5</ele><time>2026-03-28T14:03:14.06Z</time></trkpt><trkpt lat="45.8027376" lon="13.8692683"><ele>200.0</ele><time>2026-03-28T14:03:15.07Z</time></trkpt><trkpt lat="45.8027443" lon="13.8694265"><ele>198.2</ele><time>2026-03-28T14:03:16.069Z</time></trkpt><trkpt lat="45.8027225" lon="13.8695695"><ele>196.4</ele><time>2026-03-28T14:03:17.056Z</time></trkpt><trkpt lat="45.8026715" lon="13.8697011"><ele>194.60000000000002</ele><time>2026-03-28T14:03:18.081Z</time></trkpt><trkpt lat="45.8026025" lon="13.8698161"><ele>192.8</ele><time>2026-03-28T14:03:19.064Z</time></trkpt><trkpt lat="45.8025158" lon="13.8699176"><ele>191.0</ele><time>2026-03-28T14:03:20.056Z</time></trkpt><trkpt lat="45.8024077" lon="13.8699969"><ele>191.0</ele><time>2026-03-28T14:03:21.056Z</time></trkpt><trkpt lat="45.8022904" lon="13.8700643"><ele>191.0</ele><time>2026-03-28T14:03:22.059Z</time></trkpt><trkpt lat="45.8021663" lon="13.8701352"><ele>191.0</ele><time>2026-03-28T14:03:23.067Z</time></trkpt><trkpt lat="45.8020426" lon="13.870229"><ele>191.0</ele><time>2026-03-28T14:03:24.06Z</time></trkpt><trkpt lat="45.8019228" lon="13.8703459"><ele>190.25</ele><time>2026-03-28T14:03:25.057Z</time></trkpt><trkpt lat="45.8018173" lon="13.8704684"><ele>189.5</ele><time>2026-03-28T14:03:26.05Z</time></trkpt><trkpt lat="45.8017236" lon="13.8705887"><ele>188.75</ele><time>2026-03-28T14:03:27.051Z</time></trkpt><trkpt lat="45.8016317" lon="13.8707117"><ele>188.0</ele><time>2026-03-28T14:03:28.07Z</time></trkpt><trkpt lat="45.8015421" lon="13.8708434"><ele>188.75</ele><time>2026-03-28T14:03:29.052Z</time></trkpt><trkpt lat="45.8014568" lon="13.870982"><ele>189.5</ele><time>2026-03-28T14:03:30.058Z</time></trkpt><trkpt lat="45.8013754" lon="13.8711246"><ele>190.25</ele><time>2026-03-28T14:03:31.054Z</time></trkpt><trkpt lat="45.8012978" lon="13.8712771"><ele>191.0</ele><time>2026-03-28T14:03:32.059Z</time></trkpt><trkpt lat="45.8012222" lon="13.8714262"><ele>191.0</ele><time>2026-03-28T14:03:33.063Z</time></trkpt><trkpt lat="45.8011421" lon="13.8715584"><ele>191.0</ele><time>2026-03-28T14:03:34.066Z</time></trkpt><trkpt lat="45.8010515" lon="13.8716751"><ele>191.0</ele><time>2026-03-28T14:03:35.075Z</time></trkpt><trkpt lat="45.8009453" lon="13.8717869"><ele>191.0</ele><time>2026-03-28T14:03:36.068Z</time></trkpt><trkpt lat="45.8008414" lon="13.8719057"><ele>191.25</ele><time>2026-03-28T14:03:37.069Z</time></trkpt><trkpt lat="45.8007311" lon="13.872043"><ele>191.5</ele><time>2026-03-28T14:03:38.066Z</time></trkpt><trkpt lat="45.8006441" lon="13.8721877"><ele>191.75</ele><time>2026-03-28T14:03:39.068Z</time></trkpt><trkpt lat="45.8005666" lon="13.8723324"><ele>192.0</ele><time>2026-03-28T14:03:40.067Z</time></trkpt><trkpt lat="45.8004957" lon="13.8724764"><ele>192.0</ele><time>2026-03-28T14:03:41.067Z</time></trkpt><trkpt lat="45.8004082" lon="13.8725948"><ele>192.0</ele><time>2026-03-28T14:03:42.063Z</time></trkpt><trkpt lat="45.8003005" lon="13.8726906"><ele>192.0</ele><time>2026-03-28T14:03:43.063Z</time></trkpt><trkpt lat="45.8001795" lon="13.8727897"><ele>192.0</ele><time>2026-03-28T14:03:44.057Z</time></trkpt><trkpt lat="45.8000556" lon="13.8729015"><ele>191.66666666666666</ele><time>2026-03-28T14:03:45.065Z</time></trkpt><trkpt lat="45.7999295" lon="13.8730231"><ele>191.33333333333331</ele><time>2026-03-28T14:03:46.056Z</time></trkpt><trkpt lat="45.7998054" lon="13.8731591"><ele>191.0</ele><time>2026-03-28T14:03:47.079Z</time></trkpt><trkpt lat="45.7996735" lon="13.8733029"><ele>191.0</ele><time>2026-03-28T14:03:48.057Z</time></trkpt><trkpt lat="45.7995456" lon="13.8734363"><ele>191.0</ele><time>2026-03-28T14:03:49.057Z</time></trkpt><trkpt lat="45.7994166" lon="13.873552"><ele>191.0</ele><time>2026-03-28T14:03:50.065Z</time></trkpt><trkpt lat="45.7992895" lon="13.8736499"><ele>191.25</ele><time>2026-03-28T14:03:51.059Z</time></trkpt><trkpt lat="45.7991639" lon="13.8737551"><ele>191.5</ele><time>2026-03-28T14:03:52.074Z</time></trkpt><trkpt lat="45.7990421" lon="13.8738668"><ele>191.75</ele><time>2026-03-28T14:03:53.068Z</time></trkpt><trkpt lat="45.7989212" lon="13.8739924"><ele>192.0</ele><time>2026-03-28T14:03:54.064Z</time></trkpt><trkpt lat="45.7987991" lon="13.8741263"><ele>192.0</ele><time>2026-03-28T14:03:55.064Z</time></trkpt><trkpt lat="45.7986729" lon="13.874266"><ele>192.0</ele><time>2026-03-28T14:03:56.065Z</time></trkpt><trkpt lat="45.7985461" lon="13.8744063"><ele>192.0</ele><time>2026-03-28T14:03:57.066Z</time></trkpt><trkpt lat="45.7984219" lon="13.8745542"><ele>192.66666666666669</ele><time>2026-03-28T14:03:58.065Z</time></trkpt><trkpt lat="45.7983009" lon="13.8747038"><ele>193.33333333333334</ele><time>2026-03-28T14:03:59.077Z</time></trkpt><trkpt lat="45.7981847" lon="13.8748536"><ele>194.0</ele><time>2026-03-28T14:04:00.065Z</time></trkpt><trkpt lat="45.7980596" lon="13.8749974"><ele>196.66666666666669</ele><time>2026-03-28T14:04:01.067Z</time></trkpt><trkpt lat="45.7979314" lon="13.8751407"><ele>199.33333333333331</ele><time>2026-03-28T14:04:02.066Z</time></trkpt><trkpt lat="45.7978065" lon="13.8752632"><ele>202.0</ele><time>2026-03-28T14:04:03.069Z</time></trkpt><trkpt lat="45.7976889" lon="13.8753702"><ele>201.0</ele><time>2026-03-28T14:04:04.071Z</time></trkpt><trkpt lat="45.7975701" lon="13.8754634"><ele>200.0</ele><time>2026-03-28T14:04:05.069Z</time></trkpt><trkpt lat="45.7974644" lon="13.875556"><ele>199.0</ele><time>2026-03-28T14:04:06.092Z</time></trkpt><trkpt lat="45.7973641" lon="13.8756677"><ele>198.0</ele><time>2026-03-28T14:04:07.072Z</time></trkpt><trkpt lat="45.7972581" lon="13.8758094"><ele>198.0</ele><time>2026-03-28T14:04:08.065Z</time></trkpt><trkpt lat="45.7971606" lon="13.8759612"><ele>198.0</ele><time>2026-03-28T14:04:09.072Z</time></trkpt><trkpt lat="45.7970686" lon="13.8761213"><ele>198.0</ele><time>2026-03-28T14:04:10.067Z</time></trkpt><trkpt lat="45.7969843" lon="13.8762897"><ele>198.0</ele><time>2026-03-28T14:04:11.075Z</time></trkpt><trkpt lat="45.7968991" lon="13.8764611"><ele>199.5</ele><time>2026-03-28T14:04:12.071Z</time></trkpt><trkpt lat="45.7968102" lon="13.8766283"><ele>201.0</ele><time>2026-03-28T14:04:13.068Z</time></trkpt><trkpt lat="45.7967234" lon="13.8767859"><ele>202.5</ele><time>2026-03-28T14:04:14.088Z</time></trkpt><trkpt lat="45.7966187" lon="13.876944"><ele>204.0</ele><time>2026-03-28T14:04:15.061Z</time></trkpt><trkpt lat="45.7965021" lon="13.8770888"><ele>204.0</ele><time>2026-03-28T14:04:16.067Z</time></trkpt><trkpt lat="45.7963815" lon="13.8772363"><ele>204.0</ele><time>2026-03-28T14:04:17.056Z</time></trkpt><trkpt lat="45.796267" lon="13.8773786"><ele>204.0</ele><time>2026-03-28T14:04:18.067Z</time></trkpt><trkpt lat="45.7961617" lon="13.8775213"><ele>203.75</ele><time>2026-03-28T14:04:19.059Z</time></trkpt><trkpt lat="45.7960688" lon="13.8776655"><ele>203.5</ele><time>2026-03-28T14:04:20.067Z</time></trkpt><trkpt lat="45.7959908" lon="13.8778219"><ele>203.25</ele><time>2026-03-28T14:04:21.062Z</time></trkpt><trkpt lat="45.7959272" lon="13.8779901"><ele>203.0</ele><time>2026-03-28T14:04:22.064Z</time></trkpt><trkpt lat="45.7958793" lon="13.8781656"><ele>203.5</ele><time>2026-03-28T14:04:23.064Z</time></trkpt><trkpt lat="45.7958369" lon="13.8783406"><ele>204.0</ele><time>2026-03-28T14:04:24.069Z</time></trkpt><trkpt lat="45.7957945" lon="13.8785233"><ele>204.5</ele><time>2026-03-28T14:04:25.062Z</time></trkpt><trkpt lat="45.7957607" lon="13.8787163"><ele>205.0</ele><time>2026-03-28T14:04:26.071Z</time></trkpt><trkpt lat="45.7957375" lon="13.8789191"><ele>205.0</ele><time>2026-03-28T14:04:27.073Z</time></trkpt><trkpt lat="45.795729" lon="13.8791363"><ele>205.0</ele><time>2026-03-28T14:04:28.057Z</time></trkpt><trkpt lat="45.79571" lon="13.8793469"><ele>205.0</ele><time>2026-03-28T14:04:29.065Z</time></trkpt><trkpt lat="45.7956812" lon="13.8795573"><ele>205.0</ele><time>2026-03-28T14:04:30.073Z</time></trkpt><trkpt lat="45.7956563" lon="13.8797663"><ele>205.0</ele><time>2026-03-28T14:04:31.06Z</time></trkpt><trkpt lat="45.7956447" lon="13.8799552"><ele>205.0</ele><time>2026-03-28T14:04:32.061Z</time></trkpt><trkpt lat="45.7956347" lon="13.880148"><ele>205.0</ele><time>2026-03-28T14:04:33.061Z</time></trkpt><trkpt lat="45.7956194" lon="13.8803237"><ele>205.0</ele><time>2026-03-28T14:04:34.067Z</time></trkpt><trkpt lat="45.79559" lon="13.8804759"><ele>207.6</ele><time>2026-03-28T14:04:35.059Z</time></trkpt><trkpt lat="45.7955413" lon="13.8806145"><ele>210.2</ele><time>2026-03-28T14:04:36.064Z</time></trkpt><trkpt lat="45.7954696" lon="13.8807285"><ele>212.8</ele><time>2026-03-28T14:04:37.061Z</time></trkpt><trkpt lat="45.795377" lon="13.8808223"><ele>215.4</ele><time>2026-03-28T14:04:38.068Z</time></trkpt><trkpt lat="45.7952694" lon="13.8809001"><ele>218.0</ele><time>2026-03-28T14:04:39.059Z</time></trkpt><trkpt lat="45.7951546" lon="13.8809445"><ele>218.0</ele><time>2026-03-28T14:04:40.067Z</time></trkpt><trkpt lat="45.795028" lon="13.8809703"><ele>218.0</ele><time>2026-03-28T14:04:41.068Z</time></trkpt><trkpt lat="45.7948883" lon="13.8809893"><ele>218.0</ele><time>2026-03-28T14:04:42.059Z</time></trkpt><trkpt lat="45.794749" lon="13.8810148"><ele>218.0</ele><time>2026-03-28T14:04:43.065Z</time></trkpt><trkpt lat="45.7946074" lon="13.8810576"><ele>218.0</ele><time>2026-03-28T14:04:44.073Z</time></trkpt><trkpt lat="45.7944677" lon="13.8811289"><ele>218.0</ele><time>2026-03-28T14:04:45.074Z</time></trkpt><trkpt lat="45.7943228" lon="13.8812282"><ele>218.0</ele><time>2026-03-28T14:04:46.064Z</time></trkpt><trkpt lat="45.7941795" lon="13.8813257"><ele>215.0</ele><time>2026-03-28T14:04:47.062Z</time></trkpt><trkpt lat="45.794038" lon="13.8814287"><ele>212.0</ele><time>2026-03-28T14:04:48.065Z</time></trkpt><trkpt lat="45.7939079" lon="13.8815401"><ele>209.0</ele><time>2026-03-28T14:04:49.066Z</time></trkpt><trkpt lat="45.7937903" lon="13.8816659"><ele>210.25</ele><time>2026-03-28T14:04:50.072Z</time></trkpt><trkpt lat="45.7936845" lon="13.8818063"><ele>211.5</ele><time>2026-03-28T14:04:51.059Z</time></trkpt><trkpt lat="45.793592" lon="13.8819556"><ele>212.75</ele><time>2026-03-28T14:04:52.055Z</time></trkpt><trkpt lat="45.79352" lon="13.882107"><ele>214.0</ele><time>2026-03-28T14:04:53.055Z</time></trkpt><trkpt lat="45.7934554" lon="13.8822648"><ele>215.0</ele><time>2026-03-28T14:04:54.051Z</time></trkpt><trkpt lat="45.7933921" lon="13.8824218"><ele>216.0</ele><time>2026-03-28T14:04:55.051Z</time></trkpt><trkpt lat="45.7933407" lon="13.8826083"><ele>217.0</ele><time>2026-03-28T14:04:56.054Z</time></trkpt><trkpt lat="45.7932991" lon="13.8828109"><ele>218.0</ele><time>2026-03-28T14:04:57.051Z</time></trkpt><trkpt lat="45.7932552" lon="13.8830135"><ele>218.0</ele><time>2026-03-28T14:04:58.057Z</time></trkpt><trkpt lat="45.7932369" lon="13.8832258"><ele>218.0</ele><time>2026-03-28T14:04:59.053Z</time></trkpt><trkpt lat="45.7932358" lon="13.883438"><ele>218.0</ele><time>2026-03-28T14:05:00.053Z</time></trkpt><trkpt lat="45.7932361" lon="13.88363"><ele>218.0</ele><time>2026-03-28T14:05:01.047Z</time></trkpt><trkpt lat="45.7932193" lon="13.8838107"><ele>217.5</ele><time>2026-03-28T14:05:02.048Z</time></trkpt><trkpt lat="45.7931871" lon="13.883974"><ele>217.0</ele><time>2026-03-28T14:05:03.074Z</time></trkpt><trkpt lat="45.7931335" lon="13.8841399"><ele>216.5</ele><time>2026-03-28T14:05:04.051Z</time></trkpt><trkpt lat="45.7930759" lon="13.8843027"><ele>216.0</ele><time>2026-03-28T14:05:05.055Z</time></trkpt><trkpt lat="45.7930029" lon="13.8844638"><ele>217.75</ele><time>2026-03-28T14:05:06.049Z</time></trkpt><trkpt lat="45.7929122" lon="13.8846235"><ele>219.5</ele><time>2026-03-28T14:05:07.059Z</time></trkpt><trkpt lat="45.7928199" lon="13.8847853"><ele>221.25</ele><time>2026-03-28T14:05:08.068Z</time></trkpt><trkpt lat="45.7927295" lon="13.8849471"><ele>223.0</ele><time>2026-03-28T14:05:09.048Z</time></trkpt><trkpt lat="45.7926412" lon="13.885088"><ele>222.0</ele><time>2026-03-28T14:05:10.052Z</time></trkpt><trkpt lat="45.792567" lon="13.8852325"><ele>221.0</ele><time>2026-03-28T14:05:11.059Z</time></trkpt><trkpt lat="45.7925015" lon="13.8853935"><ele>220.0</ele><time>2026-03-28T14:05:12.055Z</time></trkpt><trkpt lat="45.7924439" lon="13.885561"><ele>219.0</ele><time>2026-03-28T14:05:13.056Z</time></trkpt><trkpt lat="45.792388" lon="13.8857313"><ele>219.0</ele><time>2026-03-28T14:05:14.072Z</time></trkpt><trkpt lat="45.7923219" lon="13.885899"><ele>219.0</ele><time>2026-03-28T14:05:15.053Z</time></trkpt><trkpt lat="45.7922422" lon="13.8860608"><ele>219.0</ele><time>2026-03-28T14:05:16.06Z</time></trkpt><trkpt lat="45.7921655" lon="13.8862313"><ele>219.0</ele><time>2026-03-28T14:05:17.051Z</time></trkpt><trkpt lat="45.7921039" lon="13.886411"><ele>218.5</ele><time>2026-03-28T14:05:18.058Z</time></trkpt><trkpt lat="45.7920419" lon="13.8865857"><ele>218.0</ele><time>2026-03-28T14:05:19.057Z</time></trkpt><trkpt lat="45.7919647" lon="13.8867352"><ele>217.5</ele><time>2026-03-28T14:05:20.079Z</time></trkpt><trkpt lat="45.7918922" lon="13.8868967"><ele>217.0</ele><time>2026-03-28T14:05:21.059Z</time></trkpt><trkpt lat="45.7918331" lon="13.8870705"><ele>219.0</ele><time>2026-03-28T14:05:22.058Z</time></trkpt><trkpt lat="45.791782" lon="13.8872466"><ele>221.0</ele><time>2026-03-28T14:05:23.06Z</time></trkpt><trkpt lat="45.7917311" lon="13.8874076"><ele>223.0</ele><time>2026-03-28T14:05:24.055Z</time></trkpt><trkpt lat="45.7916707" lon="13.8875671"><ele>225.0</ele><time>2026-03-28T14:05:25.061Z</time></trkpt><trkpt lat="45.7915956" lon="13.8877124"><ele>225.0</ele><time>2026-03-28T14:05:26.054Z</time></trkpt><trkpt lat="45.7915268" lon="13.8878751"><ele>225.0</ele><time>2026-03-28T14:05:27.055Z</time></trkpt><trkpt lat="45.7914605" lon="13.8880454"><ele>225.0</ele><time>2026-03-28T14:05:28.077Z</time></trkpt><trkpt lat="45.7914044" lon="13.8882291"><ele>225.0</ele><time>2026-03-28T14:05:29.058Z</time></trkpt><trkpt lat="45.7913662" lon="13.888419"><ele>223.75</ele><time>2026-03-28T14:05:30.051Z</time></trkpt><trkpt lat="45.7913278" lon="13.8885975"><ele>222.5</ele><time>2026-03-28T14:05:31.064Z</time></trkpt><trkpt lat="45.7912814" lon="13.8887676"><ele>221.25</ele><time>2026-03-28T14:05:32.061Z</time></trkpt><trkpt lat="45.7912273" lon="13.8889269"><ele>220.0</ele><time>2026-03-28T14:05:33.071Z</time></trkpt><trkpt lat="45.7911681" lon="13.8890828"><ele>220.0</ele><time>2026-03-28T14:05:34.067Z</time></trkpt><trkpt lat="45.7910995" lon="13.8892404"><ele>220.0</ele><time>2026-03-28T14:05:35.06Z</time></trkpt><trkpt lat="45.7910207" lon="13.8893825"><ele>220.0</ele><time>2026-03-28T14:05:36.063Z</time></trkpt><trkpt lat="45.7909353" lon="13.8895151"><ele>220.0</ele><time>2026-03-28T14:05:37.062Z</time></trkpt><trkpt lat="45.7908571" lon="13.8896409"><ele>220.6</ele><time>2026-03-28T14:05:38.053Z</time></trkpt><trkpt lat="45.7907882" lon="13.8897585"><ele>221.2</ele><time>2026-03-28T14:05:39.074Z</time></trkpt><trkpt lat="45.7907153" lon="13.8898826"><ele>221.8</ele><time>2026-03-28T14:05:40.069Z</time></trkpt><trkpt lat="45.7906498" lon="13.8900168"><ele>222.4</ele><time>2026-03-28T14:05:41.051Z</time></trkpt><trkpt lat="45.7905938" lon="13.8901464"><ele>223.0</ele><time>2026-03-28T14:05:42.063Z</time></trkpt><trkpt lat="45.7905657" lon="13.8902782"><ele>223.0</ele><time>2026-03-28T14:05:43.065Z</time></trkpt><trkpt lat="45.7905771" lon="13.8904077"><ele>223.0</ele><time>2026-03-28T14:05:44.076Z</time></trkpt><trkpt lat="45.7905972" lon="13.8905209"><ele>223.0</ele><time>2026-03-28T14:05:45.061Z</time></trkpt><trkpt lat="45.7906026" lon="13.8906134"><ele>223.0</ele><time>2026-03-28T14:05:46.058Z</time></trkpt><trkpt lat="45.7904959" lon="13.8907333"><ele>223.0</ele><time>2026-03-28T14:05:48.066Z</time></trkpt><trkpt lat="45.7904049" lon="13.8908016"><ele>223.0</ele><time>2026-03-28T14:05:49.05Z</time></trkpt><trkpt lat="45.7902971" lon="13.8908781"><ele>223.0</ele><time>2026-03-28T14:05:50.069Z</time></trkpt><trkpt lat="45.7901852" lon="13.8909498"><ele>223.0</ele><time>2026-03-28T14:05:51.054Z</time></trkpt><trkpt lat="45.7900694" lon="13.8910191"><ele>223.0</ele><time>2026-03-28T14:05:52.061Z</time></trkpt><trkpt lat="45.7899426" lon="13.8910833"><ele>223.75</ele><time>2026-03-28T14:05:53.061Z</time></trkpt><trkpt lat="45.7898173" lon="13.8911726"><ele>224.5</ele><time>2026-03-28T14:05:54.062Z</time></trkpt><trkpt lat="45.7896904" lon="13.8912867"><ele>225.25</ele><time>2026-03-28T14:05:55.064Z</time></trkpt><trkpt lat="45.7895636" lon="13.8914016"><ele>226.0</ele><time>2026-03-28T14:05:56.062Z</time></trkpt><trkpt lat="45.7894264" lon="13.8915045"><ele>225.25</ele><time>2026-03-28T14:05:57.059Z</time></trkpt><trkpt lat="45.7892906" lon="13.8916009"><ele>224.5</ele><time>2026-03-28T14:05:58.084Z</time></trkpt><trkpt lat="45.7891667" lon="13.8916845"><ele>223.75</ele><time>2026-03-28T14:05:59.059Z</time></trkpt><trkpt lat="45.7890682" lon="13.8917699"><ele>223.0</ele><time>2026-03-28T14:06:00.058Z</time></trkpt><trkpt lat="45.7889925" lon="13.8918819"><ele>225.5</ele><time>2026-03-28T14:06:01.058Z</time></trkpt><trkpt lat="45.7889368" lon="13.8920258"><ele>228.0</ele><time>2026-03-28T14:06:02.058Z</time></trkpt><trkpt lat="45.7888784" lon="13.8921863"><ele>230.5</ele><time>2026-03-28T14:06:03.064Z</time></trkpt><trkpt lat="45.7888044" lon="13.8923465"><ele>233.0</ele><time>2026-03-28T14:06:04.068Z</time></trkpt><trkpt lat="45.7887304" lon="13.892485"><ele>233.0</ele><time>2026-03-28T14:06:05.068Z</time></trkpt><trkpt lat="45.7886843" lon="13.8926249"><ele>233.0</ele><time>2026-03-28T14:06:06.082Z</time></trkpt><trkpt lat="45.7886614" lon="13.8927639"><ele>233.0</ele><time>2026-03-28T14:06:07.064Z</time></trkpt><trkpt lat="45.7886305" lon="13.8928898"><ele>233.0</ele><time>2026-03-28T14:06:08.06Z</time></trkpt><trkpt lat="45.7885707" lon="13.8929882"><ele>233.0</ele><time>2026-03-28T14:06:09.059Z</time></trkpt><trkpt lat="45.788476" lon="13.8930524"><ele>233.00000000000003</ele><time>2026-03-28T14:06:10.057Z</time></trkpt><trkpt lat="45.7883788" lon="13.8930811"><ele>233.0</ele><time>2026-03-28T14:06:11.064Z</time></trkpt><trkpt lat="45.788291" lon="13.8930817"><ele>233.0</ele><time>2026-03-28T14:06:12.059Z</time></trkpt><trkpt lat="45.7882172" lon="13.8930464"><ele>233.0</ele><time>2026-03-28T14:06:13.06Z</time></trkpt><trkpt lat="45.7881538" lon="13.8929805"><ele>233.00000000000003</ele><time>2026-03-28T14:06:14.056Z</time></trkpt><trkpt lat="45.7880884" lon="13.8929139"><ele>233.0</ele><time>2026-03-28T14:06:15.067Z</time></trkpt><trkpt lat="45.7880207" lon="13.8928477"><ele>233.00000000000003</ele><time>2026-03-28T14:06:16.085Z</time></trkpt><trkpt lat="45.7879513" lon="13.8927946"><ele>233.0</ele><time>2026-03-28T14:06:17.063Z</time></trkpt><trkpt lat="45.7878785" lon="13.8927585"><ele>233.0</ele><time>2026-03-28T14:06:18.064Z</time></trkpt><trkpt lat="45.7878023" lon="13.8927391"><ele>233.0</ele><time>2026-03-28T14:06:19.054Z</time></trkpt><trkpt lat="45.7877275" lon="13.8927345"><ele>233.00000000000003</ele><time>2026-03-28T14:06:20.058Z</time></trkpt><trkpt lat="45.7876513" lon="13.8927741"><ele>233.0</ele><time>2026-03-28T14:06:21.061Z</time></trkpt><trkpt lat="45.7875919" lon="13.8928447"><ele>232.33333333333334</ele><time>2026-03-28T14:06:22.067Z</time></trkpt><trkpt lat="45.7875666" lon="13.8929356"><ele>231.66666666666669</ele><time>2026-03-28T14:06:23.065Z</time></trkpt><trkpt lat="45.7875717" lon="13.8930261"><ele>231.0</ele><time>2026-03-28T14:06:24.064Z</time></trkpt><trkpt lat="45.7875967" lon="13.8931343"><ele>230.33333333333331</ele><time>2026-03-28T14:06:25.071Z</time></trkpt><trkpt lat="45.7876204" lon="13.8932575"><ele>229.66666666666666</ele><time>2026-03-28T14:06:26.055Z</time></trkpt><trkpt lat="45.7876422" lon="13.8934075"><ele>229.0</ele><time>2026-03-28T14:06:27.059Z</time></trkpt><trkpt lat="45.7876534" lon="13.8935643"><ele>229.0</ele><time>2026-03-28T14:06:28.065Z</time></trkpt><trkpt lat="45.7876474" lon="13.8937165"><ele>229.0</ele><time>2026-03-28T14:06:29.068Z</time></trkpt><trkpt lat="45.7876148" lon="13.893876"><ele>229.0</ele><time>2026-03-28T14:06:30.058Z</time></trkpt><trkpt lat="45.7875579" lon="13.8940273"><ele>229.0</ele><time>2026-03-28T14:06:31.057Z</time></trkpt><trkpt lat="45.7874773" lon="13.8941817"><ele>236.0</ele><time>2026-03-28T14:06:32.061Z</time></trkpt><trkpt lat="45.7873881" lon="13.8943497"><ele>243.0</ele><time>2026-03-28T14:06:33.067Z</time></trkpt><trkpt lat="45.7872992" lon="13.894521"><ele>250.0</ele><time>2026-03-28T14:06:34.066Z</time></trkpt><trkpt lat="45.7872074" lon="13.8947011"><ele>250.0</ele><time>2026-03-28T14:06:35.065Z</time></trkpt><trkpt lat="45.7870993" lon="13.8948772"><ele>250.0</ele><time>2026-03-28T14:06:36.063Z</time></trkpt><trkpt lat="45.7869701" lon="13.8950457"><ele>250.0</ele><time>2026-03-28T14:06:37.065Z</time></trkpt><trkpt lat="45.7868326" lon="13.8952049"><ele>248.66666666666666</ele><time>2026-03-28T14:06:38.056Z</time></trkpt><trkpt lat="45.7866847" lon="13.8953576"><ele>247.33333333333331</ele><time>2026-03-28T14:06:39.073Z</time></trkpt><trkpt lat="45.7865288" lon="13.8955035"><ele>246.0</ele><time>2026-03-28T14:06:40.064Z</time></trkpt><trkpt lat="45.7863827" lon="13.8956472"><ele>246.0</ele><time>2026-03-28T14:06:41.06Z</time></trkpt><trkpt lat="45.7862559" lon="13.8957953"><ele>246.0</ele><time>2026-03-28T14:06:42.06Z</time></trkpt><trkpt lat="45.7861317" lon="13.8959492"><ele>246.0</ele><time>2026-03-28T14:06:43.062Z</time></trkpt><trkpt lat="45.7860088" lon="13.8961136"><ele>242.66666666666669</ele><time>2026-03-28T14:06:44.069Z</time></trkpt><trkpt lat="45.7858898" lon="13.8962807"><ele>239.33333333333334</ele><time>2026-03-28T14:06:45.066Z</time></trkpt><trkpt lat="45.7857778" lon="13.8964402"><ele>236.0</ele><time>2026-03-28T14:06:46.077Z</time></trkpt><trkpt lat="45.7856734" lon="13.8965897"><ele>236.0</ele><time>2026-03-28T14:06:47.06Z</time></trkpt><trkpt lat="45.7855735" lon="13.8967459"><ele>236.0</ele><time>2026-03-28T14:06:48.06Z</time></trkpt><trkpt lat="45.7854732" lon="13.8968992"><ele>236.0</ele><time>2026-03-28T14:06:49.065Z</time></trkpt><trkpt lat="45.785376" lon="13.8970463"><ele>236.0</ele><time>2026-03-28T14:06:50.055Z</time></trkpt><trkpt lat="45.785278" lon="13.8971939"><ele>234.5</ele><time>2026-03-28T14:06:51.081Z</time></trkpt><trkpt lat="45.7851793" lon="13.8973459"><ele>233.0</ele><time>2026-03-28T14:06:52.062Z</time></trkpt><trkpt lat="45.7850737" lon="13.8974987"><ele>231.5</ele><time>2026-03-28T14:06:53.063Z</time></trkpt><trkpt lat="45.7849646" lon="13.8976531"><ele>230.0</ele><time>2026-03-28T14:06:54.058Z</time></trkpt><trkpt lat="45.7848424" lon="13.8978068"><ele>236.0</ele><time>2026-03-28T14:06:55.062Z</time></trkpt><trkpt lat="45.7847142" lon="13.89795"><ele>242.0</ele><time>2026-03-28T14:06:56.06Z</time></trkpt><trkpt lat="45.7845805" lon="13.89809"><ele>248.0</ele><time>2026-03-28T14:06:57.064Z</time></trkpt><trkpt lat="45.7844453" lon="13.8982299"><ele>248.0</ele><time>2026-03-28T14:06:58.08Z</time></trkpt><trkpt lat="45.7843103" lon="13.898367"><ele>248.0</ele><time>2026-03-28T14:06:59.067Z</time></trkpt><trkpt lat="45.7841694" lon="13.8985054"><ele>248.0</ele><time>2026-03-28T14:07:00.064Z</time></trkpt><trkpt lat="45.7840282" lon="13.8986464"><ele>248.0</ele><time>2026-03-28T14:07:01.054Z</time></trkpt><trkpt lat="45.7838873" lon="13.8987982"><ele>248.0</ele><time>2026-03-28T14:07:02.057Z</time></trkpt><trkpt lat="45.7837414" lon="13.8989442"><ele>248.0</ele><time>2026-03-28T14:07:03.066Z</time></trkpt><trkpt lat="45.7835974" lon="13.8990831"><ele>247.25</ele><time>2026-03-28T14:07:04.059Z</time></trkpt><trkpt lat="45.7834605" lon="13.8992204"><ele>246.5</ele><time>2026-03-28T14:07:05.071Z</time></trkpt><trkpt lat="45.7833664" lon="13.8993468"><ele>245.75</ele><time>2026-03-28T14:07:06.067Z</time></trkpt><trkpt lat="45.7833102" lon="13.8994679"><ele>245.0</ele><time>2026-03-28T14:07:07.069Z</time></trkpt><trkpt lat="45.7832732" lon="13.8995897"><ele>245.00000000000003</ele><time>2026-03-28T14:07:08.06Z</time></trkpt><trkpt lat="45.7832324" lon="13.8996866"><ele>245.0</ele><time>2026-03-28T14:07:09.071Z</time></trkpt><trkpt lat="45.7831793" lon="13.8997502"><ele>245.0</ele><time>2026-03-28T14:07:10.067Z</time></trkpt><trkpt lat="45.7831094" lon="13.8998013"><ele>245.0</ele><time>2026-03-28T14:07:11.068Z</time></trkpt><trkpt lat="45.7830242" lon="13.8998625"><ele>245.00000000000003</ele><time>2026-03-28T14:07:12.064Z</time></trkpt><trkpt lat="45.7829377" lon="13.8999609"><ele>245.0</ele><time>2026-03-28T14:07:13.063Z</time></trkpt><trkpt lat="45.7828734" lon="13.9001036"><ele>245.5</ele><time>2026-03-28T14:07:14.077Z</time></trkpt><trkpt lat="45.7828164" lon="13.9002646"><ele>246.0</ele><time>2026-03-28T14:07:15.062Z</time></trkpt><trkpt lat="45.78276" lon="13.9004336"><ele>246.5</ele><time>2026-03-28T14:07:16.072Z</time></trkpt><trkpt lat="45.7826959" lon="13.9005876"><ele>247.0</ele><time>2026-03-28T14:07:17.063Z</time></trkpt><trkpt lat="45.7826113" lon="13.9007318"><ele>247.0</ele><time>2026-03-28T14:07:18.069Z</time></trkpt><trkpt lat="45.7825073" lon="13.9008776"><ele>247.0</ele><time>2026-03-28T14:07:19.063Z</time></trkpt><trkpt lat="45.782394" lon="13.901028"><ele>247.0</ele><time>2026-03-28T14:07:20.067Z</time></trkpt><trkpt lat="45.7822675" lon="13.9011805"><ele>252.66666666666666</ele><time>2026-03-28T14:07:21.058Z</time></trkpt><trkpt lat="45.7821405" lon="13.9013392"><ele>258.3333333333333</ele><time>2026-03-28T14:07:22.068Z</time></trkpt><trkpt lat="45.7820136" lon="13.9014924"><ele>264.0</ele><time>2026-03-28T14:07:23.068Z</time></trkpt><trkpt lat="45.7818812" lon="13.9016316"><ele>265.3333333333333</ele><time>2026-03-28T14:07:24.097Z</time></trkpt><trkpt lat="45.7817432" lon="13.9017594"><ele>266.66666666666663</ele><time>2026-03-28T14:07:25.061Z</time></trkpt><trkpt lat="45.7816026" lon="13.9018938"><ele>268.0</ele><time>2026-03-28T14:07:26.069Z</time></trkpt><trkpt lat="45.7814696" lon="13.9020301"><ele>268.0</ele><time>2026-03-28T14:07:27.066Z</time></trkpt><trkpt lat="45.7813441" lon="13.9021645"><ele>268.0</ele><time>2026-03-28T14:07:28.064Z</time></trkpt><trkpt lat="45.7812322" lon="13.9023034"><ele>268.0</ele><time>2026-03-28T14:07:29.065Z</time></trkpt><trkpt lat="45.7811413" lon="13.902459"><ele>268.0</ele><time>2026-03-28T14:07:30.071Z</time></trkpt><trkpt lat="45.781075" lon="13.9026225"><ele>270.2</ele><time>2026-03-28T14:07:31.079Z</time></trkpt><trkpt lat="45.7810294" lon="13.9027815"><ele>272.4</ele><time>2026-03-28T14:07:32.063Z</time></trkpt><trkpt lat="45.7809939" lon="13.9029351"><ele>274.59999999999997</ele><time>2026-03-28T14:07:33.066Z</time></trkpt><trkpt lat="45.780957" lon="13.9030715"><ele>276.8</ele><time>2026-03-28T14:07:34.075Z</time></trkpt><trkpt lat="45.7809147" lon="13.9031983"><ele>279.0</ele><time>2026-03-28T14:07:35.066Z</time></trkpt><trkpt lat="45.7808599" lon="13.9033135"><ele>273.25</ele><time>2026-03-28T14:07:36.076Z</time></trkpt><trkpt lat="45.7807801" lon="13.9034086"><ele>267.5</ele><time>2026-03-28T14:07:37.071Z</time></trkpt><trkpt lat="45.7806756" lon="13.9034838"><ele>261.75</ele><time>2026-03-28T14:07:38.063Z</time></trkpt><trkpt lat="45.7805567" lon="13.9035629"><ele>256.0</ele><time>2026-03-28T14:07:39.066Z</time></trkpt><trkpt lat="45.7804481" lon="13.9036413"><ele>256.0</ele><time>2026-03-28T14:07:40.063Z</time></trkpt><trkpt lat="45.7803433" lon="13.9037108"><ele>256.0</ele><time>2026-03-28T14:07:41.059Z</time></trkpt><trkpt lat="45.7802371" lon="13.9037632"><ele>256.0</ele><time>2026-03-28T14:07:42.067Z</time></trkpt><trkpt lat="45.7801287" lon="13.9038019"><ele>256.0</ele><time>2026-03-28T14:07:43.062Z</time></trkpt><trkpt lat="45.7800133" lon="13.9038499"><ele>254.0</ele><time>2026-03-28T14:07:44.062Z</time></trkpt><trkpt lat="45.7798908" lon="13.9039442"><ele>252.0</ele><time>2026-03-28T14:07:45.075Z</time></trkpt><trkpt lat="45.7797669" lon="13.9040571"><ele>250.0</ele><time>2026-03-28T14:07:46.075Z</time></trkpt><trkpt lat="45.7796392" lon="13.9041752"><ele>248.0</ele><time>2026-03-28T14:07:47.068Z</time></trkpt><trkpt lat="45.7795042" lon="13.9042927"><ele>248.0</ele><time>2026-03-28T14:07:48.076Z</time></trkpt><trkpt lat="45.7793678" lon="13.904395"><ele>248.0</ele><time>2026-03-28T14:07:49.065Z</time></trkpt><trkpt lat="45.7792299" lon="13.9044995"><ele>248.0</ele><time>2026-03-28T14:07:50.067Z</time></trkpt><trkpt lat="45.7790986" lon="13.9046125"><ele>245.33333333333334</ele><time>2026-03-28T14:07:51.066Z</time></trkpt><trkpt lat="45.778977" lon="13.9047635"><ele>242.66666666666669</ele><time>2026-03-28T14:07:52.073Z</time></trkpt><trkpt lat="45.7788773" lon="13.904954"><ele>240.0</ele><time>2026-03-28T14:07:53.068Z</time></trkpt><trkpt lat="45.7787889" lon="13.9051551"><ele>240.25</ele><time>2026-03-28T14:07:54.068Z</time></trkpt><trkpt lat="45.7786949" lon="13.9053355"><ele>240.5</ele><time>2026-03-28T14:07:55.068Z</time></trkpt><trkpt lat="45.7785926" lon="13.9054908"><ele>240.75</ele><time>2026-03-28T14:07:56.069Z</time></trkpt><trkpt lat="45.7784991" lon="13.9056379"><ele>241.0</ele><time>2026-03-28T14:07:57.065Z</time></trkpt><trkpt lat="45.7784059" lon="13.905775"><ele>241.0</ele><time>2026-03-28T14:07:58.076Z</time></trkpt><trkpt lat="45.7783056" lon="13.9058623"><ele>241.0</ele><time>2026-03-28T14:07:59.069Z</time></trkpt><trkpt lat="45.7781974" lon="13.9058944"><ele>241.0</ele><time>2026-03-28T14:08:00.072Z</time></trkpt><trkpt lat="45.7780835" lon="13.9058817"><ele>241.0</ele><time>2026-03-28T14:08:01.064Z</time></trkpt><trkpt lat="45.7779662" lon="13.9058177"><ele>240.99999999999997</ele><time>2026-03-28T14:08:02.071Z</time></trkpt><trkpt lat="45.7778734" lon="13.9057287"><ele>241.0</ele><time>2026-03-28T14:08:03.068Z</time></trkpt><trkpt lat="45.7778119" lon="13.9056403"><ele>241.0</ele><time>2026-03-28T14:08:04.065Z</time></trkpt><trkpt lat="45.777755" lon="13.905566"><ele>241.0</ele><time>2026-03-28T14:08:05.075Z</time></trkpt><trkpt lat="45.7776868" lon="13.9055386"><ele>240.99999999999997</ele><time>2026-03-28T14:08:06.071Z</time></trkpt><trkpt lat="45.7776021" lon="13.9055108"><ele>241.0</ele><time>2026-03-28T14:08:07.08Z</time></trkpt><trkpt lat="45.777505" lon="13.9054687"><ele>241.20000000000002</ele><time>2026-03-28T14:08:08.064Z</time></trkpt><trkpt lat="45.7773978" lon="13.9054301"><ele>241.40000000000003</ele><time>2026-03-28T14:08:09.07Z</time></trkpt><trkpt lat="45.7772932" lon="13.9054102"><ele>241.6</ele><time>2026-03-28T14:08:10.077Z</time></trkpt><trkpt lat="45.7771903" lon="13.9054127"><ele>241.8</ele><time>2026-03-28T14:08:11.064Z</time></trkpt><trkpt lat="45.7770854" lon="13.9054535"><ele>242.0</ele><time>2026-03-28T14:08:12.061Z</time></trkpt><trkpt lat="45.7769735" lon="13.9055298"><ele>242.0</ele><time>2026-03-28T14:08:13.066Z</time></trkpt><trkpt lat="45.7768679" lon="13.905638"><ele>242.0</ele><time>2026-03-28T14:08:14.074Z</time></trkpt><trkpt lat="45.7767733" lon="13.9057519"><ele>242.0</ele><time>2026-03-28T14:08:15.069Z</time></trkpt><trkpt lat="45.7766831" lon="13.9058577"><ele>242.0</ele><time>2026-03-28T14:08:16.067Z</time></trkpt><trkpt lat="45.7765959" lon="13.9059668"><ele>242.75</ele><time>2026-03-28T14:08:17.065Z</time></trkpt><trkpt lat="45.7765106" lon="13.9060988"><ele>243.5</ele><time>2026-03-28T14:08:18.063Z</time></trkpt><trkpt lat="45.7764268" lon="13.9062436"><ele>244.25</ele><time>2026-03-28T14:08:19.069Z</time></trkpt><trkpt lat="45.7763431" lon="13.906392"><ele>245.0</ele><time>2026-03-28T14:08:20.064Z</time></trkpt><trkpt lat="45.7762512" lon="13.9065342"><ele>245.0</ele><time>2026-03-28T14:08:21.073Z</time></trkpt><trkpt lat="45.7761556" lon="13.9066725"><ele>245.0</ele><time>2026-03-28T14:08:22.075Z</time></trkpt><trkpt lat="45.7760563" lon="13.9068026"><ele>245.0</ele><time>2026-03-28T14:08:23.07Z</time></trkpt><trkpt lat="45.7759598" lon="13.9069223"><ele>245.0</ele><time>2026-03-28T14:08:24.074Z</time></trkpt><trkpt lat="45.7758605" lon="13.907034"><ele>247.0</ele><time>2026-03-28T14:08:25.066Z</time></trkpt><trkpt lat="45.7757648" lon="13.9071436"><ele>249.0</ele><time>2026-03-28T14:08:26.081Z</time></trkpt><trkpt lat="45.7756548" lon="13.907227"><ele>251.0</ele><time>2026-03-28T14:08:27.066Z</time></trkpt><trkpt lat="45.7755322" lon="13.9073067"><ele>253.0</ele><time>2026-03-28T14:08:28.069Z</time></trkpt><trkpt lat="45.7754174" lon="13.9074103"><ele>253.0</ele><time>2026-03-28T14:08:29.064Z</time></trkpt><trkpt lat="45.7753085" lon="13.9075241"><ele>253.0</ele><time>2026-03-28T14:08:30.087Z</time></trkpt><trkpt lat="45.7752015" lon="13.9076476"><ele>253.0</ele><time>2026-03-28T14:08:31.067Z</time></trkpt><trkpt lat="45.7750936" lon="13.9077871"><ele>253.0</ele><time>2026-03-28T14:08:32.072Z</time></trkpt><trkpt lat="45.7749884" lon="13.907932"><ele>252.75</ele><time>2026-03-28T14:08:33.067Z</time></trkpt><trkpt lat="45.7748862" lon="13.9080758"><ele>252.5</ele><time>2026-03-28T14:08:34.066Z</time></trkpt><trkpt lat="45.7747905" lon="13.90822"><ele>252.25</ele><time>2026-03-28T14:08:35.062Z</time></trkpt><trkpt lat="45.7747053" lon="13.9083612"><ele>252.0</ele><time>2026-03-28T14:08:36.062Z</time></trkpt><trkpt lat="45.7746381" lon="13.9085049"><ele>250.75</ele><time>2026-03-28T14:08:37.075Z</time></trkpt><trkpt lat="45.774584" lon="13.9086534"><ele>249.5</ele><time>2026-03-28T14:08:38.072Z</time></trkpt><trkpt lat="45.7745493" lon="13.908826"><ele>248.25</ele><time>2026-03-28T14:08:39.067Z</time></trkpt><trkpt lat="45.7745288" lon="13.9090014"><ele>247.0</ele><time>2026-03-28T14:08:40.072Z</time></trkpt><trkpt lat="45.7745232" lon="13.9091771"><ele>247.5</ele><time>2026-03-28T14:08:41.068Z</time></trkpt><trkpt lat="45.774522" lon="13.9093637"><ele>248.0</ele><time>2026-03-28T14:08:42.087Z</time></trkpt><trkpt lat="45.774516" lon="13.9095461"><ele>248.5</ele><time>2026-03-28T14:08:43.07Z</time></trkpt><trkpt lat="45.774493" lon="13.9097132"><ele>249.0</ele><time>2026-03-28T14:08:44.073Z</time></trkpt><trkpt lat="45.7744594" lon="13.9098707"><ele>249.0</ele><time>2026-03-28T14:08:45.068Z</time></trkpt><trkpt lat="45.7743959" lon="13.9100193"><ele>249.0</ele><time>2026-03-28T14:08:46.073Z</time></trkpt><trkpt lat="45.7743143" lon="13.9101491"><ele>249.0</ele><time>2026-03-28T14:08:47.076Z</time></trkpt><trkpt lat="45.7742135" lon="13.9102726"><ele>249.0</ele><time>2026-03-28T14:08:48.075Z</time></trkpt><trkpt lat="45.7741038" lon="13.9103844"><ele>249.75</ele><time>2026-03-28T14:08:49.083Z</time></trkpt><trkpt lat="45.7739971" lon="13.9104818"><ele>250.5</ele><time>2026-03-28T14:08:50.064Z</time></trkpt><trkpt lat="45.7738915" lon="13.9105892"><ele>251.25</ele><time>2026-03-28T14:08:51.069Z</time></trkpt><trkpt lat="45.7737913" lon="13.9107222"><ele>252.0</ele><time>2026-03-28T14:08:52.071Z</time></trkpt><trkpt lat="45.773694" lon="13.9108731"><ele>251.5</ele><time>2026-03-28T14:08:53.066Z</time></trkpt><trkpt lat="45.7735965" lon="13.9110305"><ele>251.0</ele><time>2026-03-28T14:08:54.072Z</time></trkpt><trkpt lat="45.7735023" lon="13.9111797"><ele>250.5</ele><time>2026-03-28T14:08:55.069Z</time></trkpt><trkpt lat="45.7734105" lon="13.9113271"><ele>250.0</ele><time>2026-03-28T14:08:56.066Z</time></trkpt><trkpt lat="45.7733288" lon="13.9114804"><ele>250.0</ele><time>2026-03-28T14:08:57.069Z</time></trkpt><trkpt lat="45.7732618" lon="13.9116467"><ele>250.0</ele><time>2026-03-28T14:08:58.068Z</time></trkpt><trkpt lat="45.7732013" lon="13.9118039"><ele>250.0</ele><time>2026-03-28T14:08:59.072Z</time></trkpt><trkpt lat="45.7731305" lon="13.9119365"><ele>250.0</ele><time>2026-03-28T14:09:00.074Z</time></trkpt><trkpt lat="45.7730431" lon="13.9120329"><ele>251.0</ele><time>2026-03-28T14:09:01.074Z</time></trkpt><trkpt lat="45.7729445" lon="13.9121077"><ele>252.0</ele><time>2026-03-28T14:09:02.082Z</time></trkpt><trkpt lat="45.7728365" lon="13.9121496"><ele>253.0</ele><time>2026-03-28T14:09:03.069Z</time></trkpt><trkpt lat="45.7727269" lon="13.9121628"><ele>254.0</ele><time>2026-03-28T14:09:04.064Z</time></trkpt><trkpt lat="45.7726197" lon="13.9121815"><ele>255.0</ele><time>2026-03-28T14:09:05.064Z</time></trkpt><trkpt lat="45.7725342" lon="13.9122427"><ele>255.0</ele><time>2026-03-28T14:09:06.07Z</time></trkpt><trkpt lat="45.7724591" lon="13.9123477"><ele>255.0</ele><time>2026-03-28T14:09:07.074Z</time></trkpt><trkpt lat="45.7723935" lon="13.9124718"><ele>255.0</ele><time>2026-03-28T14:09:08.065Z</time></trkpt><trkpt lat="45.7723223" lon="13.9126015"><ele>255.0</ele><time>2026-03-28T14:09:09.076Z</time></trkpt><trkpt lat="45.7722542" lon="13.91272"><ele>255.0</ele><time>2026-03-28T14:09:10.063Z</time></trkpt><trkpt lat="45.7721852" lon="13.912835"><ele>255.5</ele><time>2026-03-28T14:09:11.068Z</time></trkpt><trkpt lat="45.7721481" lon="13.9129751"><ele>256.0</ele><time>2026-03-28T14:09:12.072Z</time></trkpt><trkpt lat="45.7721574" lon="13.913138"><ele>256.5</ele><time>2026-03-28T14:09:13.073Z</time></trkpt><trkpt lat="45.7721951" lon="13.9133058"><ele>257.0</ele><time>2026-03-28T14:09:14.063Z</time></trkpt><trkpt lat="45.7722423" lon="13.9134714"><ele>257.75</ele><time>2026-03-28T14:09:15.067Z</time></trkpt><trkpt lat="45.7722892" lon="13.9136488"><ele>258.5</ele><time>2026-03-28T14:09:16.073Z</time></trkpt><trkpt lat="45.7723396" lon="13.9138322"><ele>259.25</ele><time>2026-03-28T14:09:17.073Z</time></trkpt><trkpt lat="45.7723889" lon="13.9140034"><ele>260.0</ele><time>2026-03-28T14:09:18.081Z</time></trkpt><trkpt lat="45.7724382" lon="13.9141485"><ele>261.4</ele><time>2026-03-28T14:09:19.066Z</time></trkpt><trkpt lat="45.7724858" lon="13.914285"><ele>262.8</ele><time>2026-03-28T14:09:20.063Z</time></trkpt><trkpt lat="45.7725181" lon="13.9144336"><ele>264.2</ele><time>2026-03-28T14:09:21.063Z</time></trkpt><trkpt lat="45.7725341" lon="13.9145912"><ele>265.6</ele><time>2026-03-28T14:09:22.063Z</time></trkpt><trkpt lat="45.7725291" lon="13.9147575"><ele>267.0</ele><time>2026-03-28T14:09:23.06Z</time></trkpt><trkpt lat="45.7725093" lon="13.9149063"><ele>267.0</ele><time>2026-03-28T14:09:24.059Z</time></trkpt><trkpt lat="45.7724564" lon="13.9150433"><ele>267.0</ele><time>2026-03-28T14:09:25.053Z</time></trkpt><trkpt lat="45.7723792" lon="13.9151772"><ele>267.0</ele><time>2026-03-28T14:09:26.054Z</time></trkpt><trkpt lat="45.7722923" lon="13.9153041"><ele>267.0</ele><time>2026-03-28T14:09:27.056Z</time></trkpt><trkpt lat="45.7721988" lon="13.9154407"><ele>270.5</ele><time>2026-03-28T14:09:28.06Z</time></trkpt><trkpt lat="45.7721259" lon="13.9155987"><ele>274.0</ele><time>2026-03-28T14:09:29.062Z</time></trkpt><trkpt lat="45.7720586" lon="13.9157416"><ele>277.5</ele><time>2026-03-28T14:09:30.072Z</time></trkpt><trkpt lat="45.7719772" lon="13.9158648"><ele>281.0</ele><time>2026-03-28T14:09:31.066Z</time></trkpt><trkpt lat="45.7718779" lon="13.9159387"><ele>279.75</ele><time>2026-03-28T14:09:32.078Z</time></trkpt><trkpt lat="45.7717756" lon="13.9159763"><ele>278.5</ele><time>2026-03-28T14:09:33.055Z</time></trkpt><trkpt lat="45.7716667" lon="13.9159982"><ele>277.25</ele><time>2026-03-28T14:09:34.091Z</time></trkpt><trkpt lat="45.7715484" lon="13.9160232"><ele>276.0</ele><time>2026-03-28T14:09:35.059Z</time></trkpt><trkpt lat="45.7714324" lon="13.91605"><ele>276.0</ele><time>2026-03-28T14:09:36.068Z</time></trkpt><trkpt lat="45.7713285" lon="13.9160872"><ele>276.0</ele><time>2026-03-28T14:09:37.07Z</time></trkpt><trkpt lat="45.7712512" lon="13.9161386"><ele>276.0</ele><time>2026-03-28T14:09:38.068Z</time></trkpt><trkpt lat="45.7711996" lon="13.9162717"><ele>276.0</ele><time>2026-03-28T14:09:40.061Z</time></trkpt><trkpt lat="45.7711975" lon="13.9164665"><ele>276.0</ele><time>2026-03-28T14:09:42.07Z</time></trkpt><trkpt lat="45.7712225" lon="13.9166473"><ele>278.6666666666667</ele><time>2026-03-28T14:09:43.063Z</time></trkpt><trkpt lat="45.7712566" lon="13.9168412"><ele>281.33333333333337</ele><time>2026-03-28T14:09:44.063Z</time></trkpt><trkpt lat="45.771295" lon="13.9170644"><ele>284.0</ele><time>2026-03-28T14:09:45.062Z</time></trkpt><trkpt lat="45.7713321" lon="13.9173139"><ele>284.0</ele><time>2026-03-28T14:09:46.071Z</time></trkpt><trkpt lat="45.771369" lon="13.9175352"><ele>284.0</ele><time>2026-03-28T14:09:47.056Z</time></trkpt><trkpt lat="45.7713957" lon="13.9177077"><ele>284.0</ele><time>2026-03-28T14:09:48.059Z</time></trkpt><trkpt lat="45.7713964" lon="13.9178613"><ele>284.0</ele><time>2026-03-28T14:09:49.06Z</time></trkpt><trkpt lat="45.7713663" lon="13.9180119"><ele>286.25</ele><time>2026-03-28T14:09:50.064Z</time></trkpt><trkpt lat="45.7713195" lon="13.9181593"><ele>288.5</ele><time>2026-03-28T14:09:51.054Z</time></trkpt><trkpt lat="45.7712666" lon="13.918309"><ele>290.75</ele><time>2026-03-28T14:09:52.06Z</time></trkpt><trkpt lat="45.7711951" lon="13.9184499"><ele>293.0</ele><time>2026-03-28T14:09:53.061Z</time></trkpt><trkpt lat="45.7711238" lon="13.9185592"><ele>292.4</ele><time>2026-03-28T14:09:54.06Z</time></trkpt><trkpt lat="45.7710336" lon="13.9186481"><ele>291.8</ele><time>2026-03-28T14:09:55.055Z</time></trkpt><trkpt lat="45.7709375" lon="13.9187078"><ele>291.2</ele><time>2026-03-28T14:09:56.054Z</time></trkpt><trkpt lat="45.7708424" lon="13.918725"><ele>290.6</ele><time>2026-03-28T14:09:57.054Z</time></trkpt><trkpt lat="45.7707384" lon="13.9187068"><ele>290.0</ele><time>2026-03-28T14:09:58.068Z</time></trkpt><trkpt lat="45.7706424" lon="13.9186292"><ele>290.0</ele><time>2026-03-28T14:09:59.056Z</time></trkpt><trkpt lat="45.7705574" lon="13.9185215"><ele>290.0</ele><time>2026-03-28T14:10:00.058Z</time></trkpt><trkpt lat="45.7704868" lon="13.9183889"><ele>290.0</ele><time>2026-03-28T14:10:01.054Z</time></trkpt><trkpt lat="45.7704227" lon="13.9182647"><ele>290.0</ele><time>2026-03-28T14:10:02.062Z</time></trkpt><trkpt lat="45.7703453" lon="13.9181533"><ele>290.0</ele><time>2026-03-28T14:10:03.063Z</time></trkpt><trkpt lat="45.7702524" lon="13.9180852"><ele>285.4</ele><time>2026-03-28T14:10:04.066Z</time></trkpt><trkpt lat="45.7701588" lon="13.9180508"><ele>280.8</ele><time>2026-03-28T14:10:05.061Z</time></trkpt><trkpt lat="45.7700604" lon="13.9180418"><ele>276.2</ele><time>2026-03-28T14:10:06.06Z</time></trkpt><trkpt lat="45.7699584" lon="13.9180586"><ele>271.6</ele><time>2026-03-28T14:10:07.061Z</time></trkpt><trkpt lat="45.769855" lon="13.9181065"><ele>267.0</ele><time>2026-03-28T14:10:08.055Z</time></trkpt><trkpt lat="45.7697526" lon="13.918187"><ele>267.0</ele><time>2026-03-28T14:10:09.064Z</time></trkpt><trkpt lat="45.7696529" lon="13.9182756"><ele>267.0</ele><time>2026-03-28T14:10:10.073Z</time></trkpt><trkpt lat="45.7695475" lon="13.9183716"><ele>267.0</ele><time>2026-03-28T14:10:11.067Z</time></trkpt><trkpt lat="45.7694342" lon="13.9184785"><ele>267.0</ele><time>2026-03-28T14:10:12.066Z</time></trkpt><trkpt lat="45.7693352" lon="13.9185843"><ele>268.6666666666667</ele><time>2026-03-28T14:10:13.084Z</time></trkpt><trkpt lat="45.7692506" lon="13.918682"><ele>270.3333333333333</ele><time>2026-03-28T14:10:14.066Z</time></trkpt><trkpt lat="45.7691805" lon="13.9187766"><ele>272.0</ele><time>2026-03-28T14:10:15.064Z</time></trkpt><trkpt lat="45.7691243" lon="13.9188751"><ele>273.66666666666663</ele><time>2026-03-28T14:10:16.06Z</time></trkpt><trkpt lat="45.7690765" lon="13.91894"><ele>275.3333333333333</ele><time>2026-03-28T14:10:17.07Z</time></trkpt><trkpt lat="45.7690327" lon="13.9190256"><ele>277.0</ele><time>2026-03-28T14:10:19.069Z</time></trkpt><trkpt lat="45.768963" lon="13.9191405"><ele>278.4</ele><time>2026-03-28T14:21:19.085Z</time></trkpt><trkpt lat="45.768887" lon="13.9192814"><ele>279.79999999999995</ele><time>2026-03-28T14:21:21.075Z</time></trkpt><trkpt lat="45.7688291" lon="13.9193728"><ele>281.2</ele><time>2026-03-28T14:21:22.085Z</time></trkpt><trkpt lat="45.7687802" lon="13.9194805"><ele>282.59999999999997</ele><time>2026-03-28T14:21:23.08Z</time></trkpt><trkpt lat="45.7687283" lon="13.9195987"><ele>284.0</ele><time>2026-03-28T14:21:24.081Z</time></trkpt><trkpt lat="45.7686802" lon="13.9197128"><ele>284.0</ele><time>2026-03-28T14:21:25.074Z</time></trkpt><trkpt lat="45.7686285" lon="13.9198427"><ele>284.0</ele><time>2026-03-28T14:21:26.079Z</time></trkpt><trkpt lat="45.7685684" lon="13.9199764"><ele>284.0</ele><time>2026-03-28T14:21:27.071Z</time></trkpt><trkpt lat="45.7685068" lon="13.9201071"><ele>284.0</ele><time>2026-03-28T14:21:28.077Z</time></trkpt><trkpt lat="45.7684528" lon="13.9202412"><ele>284.0</ele><time>2026-03-28T14:21:29.073Z</time></trkpt><trkpt lat="45.7684077" lon="13.9203654"><ele>284.2</ele><time>2026-03-28T14:21:30.076Z</time></trkpt><trkpt lat="45.7683627" lon="13.9205032"><ele>284.4</ele><time>2026-03-28T14:21:31.083Z</time></trkpt><trkpt lat="45.768316" lon="13.9206402"><ele>284.6</ele><time>2026-03-28T14:21:32.092Z</time></trkpt><trkpt lat="45.768278" lon="13.9207635"><ele>284.8</ele><time>2026-03-28T14:21:33.066Z</time></trkpt><trkpt lat="45.7682461" lon="13.920892"><ele>285.0</ele><time>2026-03-28T14:21:34.088Z</time></trkpt><trkpt lat="45.7682306" lon="13.9210126"><ele>285.0</ele><time>2026-03-28T14:21:35.079Z</time></trkpt><trkpt lat="45.7682309" lon="13.921159"><ele>285.0</ele><time>2026-03-28T14:21:36.068Z</time></trkpt><trkpt lat="45.7682363" lon="13.9213203"><ele>285.0</ele><time>2026-03-28T14:21:37.067Z</time></trkpt><trkpt lat="45.7682347" lon="13.9214978"><ele>285.0</ele><time>2026-03-28T14:21:38.079Z</time></trkpt><trkpt lat="45.7682307" lon="13.9216695"><ele>286.4</ele><time>2026-03-28T14:21:39.071Z</time></trkpt><trkpt lat="45.7682282" lon="13.9218237"><ele>287.8</ele><time>2026-03-28T14:21:40.067Z</time></trkpt><trkpt lat="45.7682296" lon="13.921977"><ele>289.2</ele><time>2026-03-28T14:21:41.079Z</time></trkpt><trkpt lat="45.7682248" lon="13.9221216"><ele>290.6</ele><time>2026-03-28T14:21:42.081Z</time></trkpt><trkpt lat="45.7682018" lon="13.9222657"><ele>292.0</ele><time>2026-03-28T14:21:43.084Z</time></trkpt><trkpt lat="45.7681607" lon="13.9224114"><ele>292.0</ele><time>2026-03-28T14:21:44.095Z</time></trkpt><trkpt lat="45.7681096" lon="13.9225634"><ele>292.0</ele><time>2026-03-28T14:21:45.07Z</time></trkpt><trkpt lat="45.7680601" lon="13.9227049"><ele>292.0</ele><time>2026-03-28T14:21:46.068Z</time></trkpt><trkpt lat="45.7680046" lon="13.9228215"><ele>292.0</ele><time>2026-03-28T14:21:47.066Z</time></trkpt><trkpt lat="45.7679513" lon="13.9229323"><ele>292.0</ele><time>2026-03-28T14:21:48.073Z</time></trkpt><trkpt lat="45.7678895" lon="13.9230343"><ele>293.6</ele><time>2026-03-28T14:21:49.075Z</time></trkpt><trkpt lat="45.7678135" lon="13.9230949"><ele>295.2</ele><time>2026-03-28T14:21:50.068Z</time></trkpt><trkpt lat="45.7677226" lon="13.923123"><ele>296.8</ele><time>2026-03-28T14:21:51.061Z</time></trkpt><trkpt lat="45.7676271" lon="13.9231126"><ele>298.4</ele><time>2026-03-28T14:21:52.066Z</time></trkpt><trkpt lat="45.7675289" lon="13.9230758"><ele>300.0</ele><time>2026-03-28T14:21:53.064Z</time></trkpt><trkpt lat="45.7674224" lon="13.9230204"><ele>295.5</ele><time>2026-03-28T14:21:54.06Z</time></trkpt><trkpt lat="45.7673092" lon="13.9229644"><ele>291.0</ele><time>2026-03-28T14:21:55.063Z</time></trkpt><trkpt lat="45.7671796" lon="13.9229435"><ele>286.5</ele><time>2026-03-28T14:21:56.056Z</time></trkpt><trkpt lat="45.7670545" lon="13.9229567"><ele>282.0</ele><time>2026-03-28T14:21:57.055Z</time></trkpt><trkpt lat="45.7669327" lon="13.9229669"><ele>281.5</ele><time>2026-03-28T14:21:58.057Z</time></trkpt><trkpt lat="45.7668113" lon="13.9229541"><ele>281.0</ele><time>2026-03-28T14:21:59.062Z</time></trkpt><trkpt lat="45.7666945" lon="13.9229128"><ele>280.5</ele><time>2026-03-28T14:22:00.064Z</time></trkpt><trkpt lat="45.7665822" lon="13.9228543"><ele>280.0</ele><time>2026-03-28T14:22:01.054Z</time></trkpt><trkpt lat="45.7664744" lon="13.9227862"><ele>280.0</ele><time>2026-03-28T14:22:02.066Z</time></trkpt><trkpt lat="45.7663764" lon="13.9227215"><ele>280.0</ele><time>2026-03-28T14:22:03.052Z</time></trkpt><trkpt lat="45.7662822" lon="13.9226793"><ele>280.0</ele><time>2026-03-28T14:22:04.054Z</time></trkpt><trkpt lat="45.766193" lon="13.9226707"><ele>280.0</ele><time>2026-03-28T14:22:05.066Z</time></trkpt><trkpt lat="45.7661078" lon="13.9227101"><ele>280.0</ele><time>2026-03-28T14:22:06.061Z</time></trkpt><trkpt lat="45.7660339" lon="13.922768"><ele>279.6</ele><time>2026-03-28T14:22:07.063Z</time></trkpt><trkpt lat="45.765966" lon="13.9228555"><ele>279.2</ele><time>2026-03-28T14:22:08.064Z</time></trkpt><trkpt lat="45.7658866" lon="13.9229387"><ele>278.8</ele><time>2026-03-28T14:22:09.057Z</time></trkpt><trkpt lat="45.7657832" lon="13.9230266"><ele>278.4</ele><time>2026-03-28T14:22:10.079Z</time></trkpt><trkpt lat="45.7656684" lon="13.9231118"><ele>278.0</ele><time>2026-03-28T14:22:11.054Z</time></trkpt><trkpt lat="45.7655537" lon="13.9232065"><ele>278.0</ele><time>2026-03-28T14:22:12.06Z</time></trkpt><trkpt lat="45.7654463" lon="13.9233081"><ele>278.0</ele><time>2026-03-28T14:22:13.065Z</time></trkpt><trkpt lat="45.7653423" lon="13.923424"><ele>278.0</ele><time>2026-03-28T14:22:14.06Z</time></trkpt><trkpt lat="45.7652476" lon="13.9235642"><ele>278.0</ele><time>2026-03-28T14:22:15.058Z</time></trkpt><trkpt lat="45.7651457" lon="13.923715"><ele>279.75</ele><time>2026-03-28T14:22:16.065Z</time></trkpt><trkpt lat="45.7650462" lon="13.9238663"><ele>281.5</ele><time>2026-03-28T14:22:17.064Z</time></trkpt><trkpt lat="45.7649404" lon="13.9240152"><ele>283.25</ele><time>2026-03-28T14:22:18.064Z</time></trkpt><trkpt lat="45.7648354" lon="13.9241599"><ele>285.0</ele><time>2026-03-28T14:22:19.056Z</time></trkpt><trkpt lat="45.764728" lon="13.924307"><ele>285.25</ele><time>2026-03-28T14:22:20.065Z</time></trkpt><trkpt lat="45.7646295" lon="13.9244569"><ele>285.5</ele><time>2026-03-28T14:22:21.062Z</time></trkpt><trkpt lat="45.7645326" lon="13.9246067"><ele>285.75</ele><time>2026-03-28T14:22:22.071Z</time></trkpt><trkpt lat="45.7644325" lon="13.9247472"><ele>286.0</ele><time>2026-03-28T14:22:23.061Z</time></trkpt><trkpt lat="45.7643487" lon="13.9248882"><ele>287.25</ele><time>2026-03-28T14:22:24.065Z</time></trkpt><trkpt lat="45.7642783" lon="13.925052"><ele>288.5</ele><time>2026-03-28T14:22:25.061Z</time></trkpt><trkpt lat="45.7642146" lon="13.9252306"><ele>289.75</ele><time>2026-03-28T14:22:26.081Z</time></trkpt><trkpt lat="45.7641454" lon="13.9254277"><ele>291.0</ele><time>2026-03-28T14:22:27.062Z</time></trkpt><trkpt lat="45.7640704" lon="13.9256215"><ele>291.0</ele><time>2026-03-28T14:22:28.069Z</time></trkpt><trkpt lat="45.7639941" lon="13.9257869"><ele>291.0</ele><time>2026-03-28T14:22:29.067Z</time></trkpt><trkpt lat="45.7639237" lon="13.9259444"><ele>291.0</ele><time>2026-03-28T14:22:30.071Z</time></trkpt><trkpt lat="45.763864" lon="13.9261017"><ele>291.0</ele><time>2026-03-28T14:22:31.052Z</time></trkpt><trkpt lat="45.7638211" lon="13.9262583"><ele>291.40000000000003</ele><time>2026-03-28T14:22:32.066Z</time></trkpt><trkpt lat="45.763787" lon="13.9264123"><ele>291.8</ele><time>2026-03-28T14:22:33.058Z</time></trkpt><trkpt lat="45.7637593" lon="13.9265595"><ele>292.20000000000005</ele><time>2026-03-28T14:22:34.056Z</time></trkpt><trkpt lat="45.7637278" lon="13.9266886"><ele>292.6</ele><time>2026-03-28T14:22:35.068Z</time></trkpt><trkpt lat="45.7636725" lon="13.9267992"><ele>293.0</ele><time>2026-03-28T14:22:36.055Z</time></trkpt><trkpt lat="45.763599" lon="13.9268863"><ele>292.0</ele><time>2026-03-28T14:22:37.081Z</time></trkpt><trkpt lat="45.763516" lon="13.926953"><ele>291.0</ele><time>2026-03-28T14:22:38.064Z</time></trkpt><trkpt lat="45.7634312" lon="13.9270004"><ele>290.0</ele><time>2026-03-28T14:22:39.063Z</time></trkpt><trkpt lat="45.763347" lon="13.9270341"><ele>289.0</ele><time>2026-03-28T14:22:40.058Z</time></trkpt><trkpt lat="45.7632552" lon="13.92705"><ele>288.0</ele><time>2026-03-28T14:22:41.07Z</time></trkpt><trkpt lat="45.7631678" lon="13.9270722"><ele>288.00000000000006</ele><time>2026-03-28T14:22:42.066Z</time></trkpt><trkpt lat="45.76309" lon="13.9271023"><ele>288.0</ele><time>2026-03-28T14:22:43.06Z</time></trkpt><trkpt lat="45.7630275" lon="13.9271589"><ele>288.0</ele><time>2026-03-28T14:22:44.075Z</time></trkpt><trkpt lat="45.7629757" lon="13.9272246"><ele>288.0</ele><time>2026-03-28T14:22:45.06Z</time></trkpt><trkpt lat="45.7629303" lon="13.9272939"><ele>288.0</ele><time>2026-03-28T14:22:46.067Z</time></trkpt><trkpt lat="45.762889" lon="13.9273703"><ele>288.00000000000006</ele><time>2026-03-28T14:22:47.059Z</time></trkpt><trkpt lat="45.7628505" lon="13.9274483"><ele>288.0</ele><time>2026-03-28T14:22:48.067Z</time></trkpt><trkpt lat="45.7628403" lon="13.9275828"><ele>288.8333333333333</ele><time>2026-03-28T14:22:50.057Z</time></trkpt><trkpt lat="45.7627807" lon="13.9276465"><ele>289.6666666666667</ele><time>2026-03-28T14:23:02.06Z</time></trkpt><trkpt lat="45.7627215" lon="13.9276787"><ele>290.5</ele><time>2026-03-28T14:23:04.075Z</time></trkpt><trkpt lat="45.7626462" lon="13.9277446"><ele>291.33333333333337</ele><time>2026-03-28T14:23:07.061Z</time></trkpt><trkpt lat="45.7625875" lon="13.9277887"><ele>292.1666666666667</ele><time>2026-03-28T14:23:09.072Z</time></trkpt><trkpt lat="45.7624889" lon="13.9278202"><ele>293.0</ele><time>2026-03-28T14:23:11.08Z</time></trkpt><trkpt lat="45.7623805" lon="13.9278709"><ele>293.0</ele><time>2026-03-28T14:23:13.069Z</time></trkpt><trkpt lat="45.7623198" lon="13.9278991"><ele>293.0</ele><time>2026-03-28T14:23:14.068Z</time></trkpt><trkpt lat="45.7622509" lon="13.9279409"><ele>293.0</ele><time>2026-03-28T14:23:15.068Z</time></trkpt><trkpt lat="45.7621731" lon="13.9279981"><ele>293.0</ele><time>2026-03-28T14:23:16.064Z</time></trkpt><trkpt lat="45.7620927" lon="13.9280481"><ele>293.0</ele><time>2026-03-28T14:23:17.086Z</time></trkpt><trkpt lat="45.7620137" lon="13.9280886"><ele>293.0</ele><time>2026-03-28T14:23:18.065Z</time></trkpt><trkpt lat="45.7619318" lon="13.9281093"><ele>293.33333333333337</ele><time>2026-03-28T14:23:19.068Z</time></trkpt><trkpt lat="45.7618478" lon="13.9281258"><ele>293.6666666666667</ele><time>2026-03-28T14:23:20.085Z</time></trkpt><trkpt lat="45.7617804" lon="13.9281622"><ele>294.0</ele><time>2026-03-28T14:23:21.07Z</time></trkpt><trkpt lat="45.7617339" lon="13.9282273"><ele>294.3333333333333</ele><time>2026-03-28T14:23:22.07Z</time></trkpt><trkpt lat="45.7617031" lon="13.9283158"><ele>294.66666666666663</ele><time>2026-03-28T14:23:23.063Z</time></trkpt><trkpt lat="45.7616757" lon="13.9284243"><ele>295.0</ele><time>2026-03-28T14:23:24.071Z</time></trkpt><trkpt lat="45.7616319" lon="13.928547"><ele>295.0</ele><time>2026-03-28T14:23:25.074Z</time></trkpt><trkpt lat="45.7615695" lon="13.9286563"><ele>295.0</ele><time>2026-03-28T14:23:26.07Z</time></trkpt><trkpt lat="45.7614927" lon="13.9287625"><ele>295.0</ele><time>2026-03-28T14:23:27.069Z</time></trkpt><trkpt lat="45.7614137" lon="13.9288851"><ele>295.0</ele><time>2026-03-28T14:23:28.058Z</time></trkpt><trkpt lat="45.76134" lon="13.9290226"><ele>295.0</ele><time>2026-03-28T14:23:29.068Z</time></trkpt><trkpt lat="45.7612767" lon="13.9291521"><ele>295.2</ele><time>2026-03-28T14:23:30.071Z</time></trkpt><trkpt lat="45.761219" lon="13.9292718"><ele>295.4</ele><time>2026-03-28T14:23:31.067Z</time></trkpt><trkpt lat="45.7611596" lon="13.9293783"><ele>295.6</ele><time>2026-03-28T14:23:32.077Z</time></trkpt><trkpt lat="45.7610918" lon="13.9294637"><ele>295.8</ele><time>2026-03-28T14:23:33.062Z</time></trkpt><trkpt lat="45.7609969" lon="13.9295407"><ele>296.0</ele><time>2026-03-28T14:23:34.074Z</time></trkpt><trkpt lat="45.760898" lon="13.9296069"><ele>296.0</ele><time>2026-03-28T14:23:35.067Z</time></trkpt><trkpt lat="45.7607956" lon="13.9296618"><ele>296.0</ele><time>2026-03-28T14:23:36.075Z</time></trkpt><trkpt lat="45.7607028" lon="13.929655"><ele>296.0</ele><time>2026-03-28T14:23:37.063Z</time></trkpt><trkpt lat="45.7606106" lon="13.9296014"><ele>296.0</ele><time>2026-03-28T14:23:38.069Z</time></trkpt><trkpt lat="45.7605163" lon="13.9295506"><ele>296.0</ele><time>2026-03-28T14:23:39.068Z</time></trkpt><trkpt lat="45.7604278" lon="13.9295338"><ele>296.0</ele><time>2026-03-28T14:23:40.071Z</time></trkpt><trkpt lat="45.7603506" lon="13.929553"><ele>296.0</ele><time>2026-03-28T14:23:41.066Z</time></trkpt><trkpt lat="45.7602837" lon="13.929611"><ele>296.0</ele><time>2026-03-28T14:23:42.067Z</time></trkpt><trkpt lat="45.7602318" lon="13.9297165"><ele>296.0</ele><time>2026-03-28T14:23:43.067Z</time></trkpt><trkpt lat="45.7602003" lon="13.9298637"><ele>296.0</ele><time>2026-03-28T14:23:44.067Z</time></trkpt><trkpt lat="45.7601782" lon="13.9300208"><ele>295.2</ele><time>2026-03-28T14:23:45.079Z</time></trkpt><trkpt lat="45.7601478" lon="13.9301725"><ele>294.40000000000003</ele><time>2026-03-28T14:23:46.077Z</time></trkpt><trkpt lat="45.7600972" lon="13.9303192"><ele>293.6</ele><time>2026-03-28T14:23:47.076Z</time></trkpt><trkpt lat="45.7600386" lon="13.9304484"><ele>292.8</ele><time>2026-03-28T14:23:48.07Z</time></trkpt><trkpt lat="45.7599779" lon="13.9305548"><ele>292.0</ele><time>2026-03-28T14:23:49.075Z</time></trkpt><trkpt lat="45.7599086" lon="13.9306368"><ele>292.0</ele><time>2026-03-28T14:23:50.076Z</time></trkpt><trkpt lat="45.7598268" lon="13.9306964"><ele>292.0</ele><time>2026-03-28T14:23:51.065Z</time></trkpt><trkpt lat="45.7597272" lon="13.9307472"><ele>292.0</ele><time>2026-03-28T14:23:52.074Z</time></trkpt><trkpt lat="45.7596192" lon="13.9307994"><ele>292.0</ele><time>2026-03-28T14:23:53.066Z</time></trkpt><trkpt lat="45.7595047" lon="13.9308875"><ele>292.0</ele><time>2026-03-28T14:23:54.069Z</time></trkpt><trkpt lat="45.7593844" lon="13.9310013"><ele>294.5</ele><time>2026-03-28T14:23:55.077Z</time></trkpt><trkpt lat="45.7592773" lon="13.931108"><ele>297.0</ele><time>2026-03-28T14:23:56.067Z</time></trkpt><trkpt lat="45.7591802" lon="13.9311965"><ele>299.5</ele><time>2026-03-28T14:23:57.073Z</time></trkpt><trkpt lat="45.759089" lon="13.9313026"><ele>302.0</ele><time>2026-03-28T14:23:58.07Z</time></trkpt><trkpt lat="45.7590123" lon="13.9314335"><ele>302.0</ele><time>2026-03-28T14:23:59.066Z</time></trkpt><trkpt lat="45.7589363" lon="13.9315802"><ele>302.0</ele><time>2026-03-28T14:24:00.069Z</time></trkpt><trkpt lat="45.7588722" lon="13.9317438"><ele>302.0</ele><time>2026-03-28T14:24:01.069Z</time></trkpt><trkpt lat="45.7588129" lon="13.9319083"><ele>302.0</ele><time>2026-03-28T14:24:02.068Z</time></trkpt><trkpt lat="45.7587552" lon="13.9320511"><ele>302.4</ele><time>2026-03-28T14:24:03.076Z</time></trkpt><trkpt lat="45.7587059" lon="13.932175"><ele>302.79999999999995</ele><time>2026-03-28T14:24:04.067Z</time></trkpt><trkpt lat="45.7586657" lon="13.9323081"><ele>303.2</ele><time>2026-03-28T14:24:05.061Z</time></trkpt><trkpt lat="45.7586561" lon="13.9324574"><ele>303.59999999999997</ele><time>2026-03-28T14:24:06.071Z</time></trkpt><trkpt lat="45.7586704" lon="13.9326177"><ele>304.0</ele><time>2026-03-28T14:24:07.048Z</time></trkpt><trkpt lat="45.7586942" lon="13.9327735"><ele>305.0</ele><time>2026-03-28T14:24:08.053Z</time></trkpt><trkpt lat="45.7587119" lon="13.9329144"><ele>306.0</ele><time>2026-03-28T14:24:09.063Z</time></trkpt><trkpt lat="45.758713" lon="13.9330485"><ele>307.0</ele><time>2026-03-28T14:24:10.063Z</time></trkpt><trkpt lat="45.7586864" lon="13.9331784"><ele>308.0</ele><time>2026-03-28T14:24:11.065Z</time></trkpt><trkpt lat="45.7586254" lon="13.9333006"><ele>309.0</ele><time>2026-03-28T14:24:12.059Z</time></trkpt><trkpt lat="45.7585474" lon="13.9333925"><ele>308.1666666666667</ele><time>2026-03-28T14:24:13.065Z</time></trkpt><trkpt lat="45.7584632" lon="13.9334701"><ele>307.3333333333333</ele><time>2026-03-28T14:24:14.063Z</time></trkpt><trkpt lat="45.758397" lon="13.9335546"><ele>306.5</ele><time>2026-03-28T14:24:15.063Z</time></trkpt><trkpt lat="45.7583603" lon="13.9336535"><ele>305.66666666666663</ele><time>2026-03-28T14:24:16.069Z</time></trkpt><trkpt lat="45.7583503" lon="13.9337609"><ele>304.8333333333333</ele><time>2026-03-28T14:24:17.059Z</time></trkpt><trkpt lat="45.7583506" lon="13.9338675"><ele>304.0</ele><time>2026-03-28T14:24:18.064Z</time></trkpt><trkpt lat="45.7583521" lon="13.9339757"><ele>304.0</ele><time>2026-03-28T14:24:19.057Z</time></trkpt><trkpt lat="45.7583553" lon="13.9340731"><ele>304.0</ele><time>2026-03-28T14:24:20.066Z</time></trkpt><trkpt lat="45.7583645" lon="13.9342531"><ele>304.0</ele><time>2026-03-28T14:24:22.077Z</time></trkpt><trkpt lat="45.7583647" lon="13.9344337"><ele>304.0</ele><time>2026-03-28T14:24:24.101Z</time></trkpt><trkpt lat="45.7583611" lon="13.9345347"><ele>304.0</ele><time>2026-03-28T14:24:25.066Z</time></trkpt><trkpt lat="45.7583446" lon="13.9346413"><ele>305.3333333333333</ele><time>2026-03-28T14:24:26.067Z</time></trkpt><trkpt lat="45.7583056" lon="13.934749"><ele>306.66666666666663</ele><time>2026-03-28T14:24:27.06Z</time></trkpt><trkpt lat="45.7582528" lon="13.9348488"><ele>308.0</ele><time>2026-03-28T14:24:28.063Z</time></trkpt><trkpt lat="45.7581882" lon="13.9349279"><ele>309.3333333333333</ele><time>2026-03-28T14:24:29.058Z</time></trkpt><trkpt lat="45.7581126" lon="13.9349989"><ele>310.6666666666667</ele><time>2026-03-28T14:24:30.055Z</time></trkpt><trkpt lat="45.7580229" lon="13.9350491"><ele>312.0</ele><time>2026-03-28T14:24:31.06Z</time></trkpt><trkpt lat="45.7579268" lon="13.9350822"><ele>314.0</ele><time>2026-03-28T14:24:32.06Z</time></trkpt><trkpt lat="45.7578354" lon="13.9351169"><ele>316.0</ele><time>2026-03-28T14:24:33.063Z</time></trkpt><trkpt lat="45.7577555" lon="13.9351755"><ele>318.0</ele><time>2026-03-28T14:24:34.077Z</time></trkpt><trkpt lat="45.7576965" lon="13.9352569"><ele>320.0</ele><time>2026-03-28T14:24:35.057Z</time></trkpt><trkpt lat="45.7576588" lon="13.9353618"><ele>322.0</ele><time>2026-03-28T14:24:36.06Z</time></trkpt><trkpt lat="45.757643" lon="13.9354792"><ele>324.0</ele><time>2026-03-28T14:24:37.062Z</time></trkpt><trkpt lat="45.7576279" lon="13.9356113"><ele>320.8</ele><time>2026-03-28T14:24:38.058Z</time></trkpt><trkpt lat="45.7575964" lon="13.9357428"><ele>317.59999999999997</ele><time>2026-03-28T14:24:39.065Z</time></trkpt><trkpt lat="45.7575428" lon="13.9358521"><ele>314.4</ele><time>2026-03-28T14:24:40.069Z</time></trkpt><trkpt lat="45.7574607" lon="13.9359448"><ele>311.2</ele><time>2026-03-28T14:24:41.07Z</time></trkpt><trkpt lat="45.7573792" lon="13.9360079"><ele>308.0</ele><time>2026-03-28T14:24:42.06Z</time></trkpt><trkpt lat="45.7572936" lon="13.9360586"><ele>308.0</ele><time>2026-03-28T14:24:43.058Z</time></trkpt><trkpt lat="45.7572165" lon="13.9361251"><ele>308.0</ele><time>2026-03-28T14:24:44.064Z</time></trkpt><trkpt lat="45.7571556" lon="13.9362162"><ele>308.0</ele><time>2026-03-28T14:24:45.058Z</time></trkpt><trkpt lat="45.7571144" lon="13.9363306"><ele>308.0</ele><time>2026-03-28T14:24:46.066Z</time></trkpt><trkpt lat="45.757098" lon="13.9364473"><ele>308.0</ele><time>2026-03-28T14:24:47.057Z</time></trkpt><trkpt lat="45.7571086" lon="13.936555"><ele>308.0</ele><time>2026-03-28T14:24:48.052Z</time></trkpt><trkpt lat="45.75714" lon="13.9366601"><ele>310.7142857142857</ele><time>2026-03-28T14:24:49.056Z</time></trkpt><trkpt lat="45.7571928" lon="13.9367448"><ele>313.42857142857144</ele><time>2026-03-28T14:24:50.053Z</time></trkpt><trkpt lat="45.757235" lon="13.9368329"><ele>316.1428571428571</ele><time>2026-03-28T14:24:51.048Z</time></trkpt><trkpt lat="45.7572567" lon="13.9369278"><ele>318.8571428571429</ele><time>2026-03-28T14:24:52.06Z</time></trkpt><trkpt lat="45.7572464" lon="13.9370172"><ele>321.57142857142856</ele><time>2026-03-28T14:24:53.067Z</time></trkpt><trkpt lat="45.7572065" lon="13.9370945"><ele>324.2857142857143</ele><time>2026-03-28T14:24:54.057Z</time></trkpt><trkpt lat="45.7571379" lon="13.9371593"><ele>327.0</ele><time>2026-03-28T14:24:55.056Z</time></trkpt><trkpt lat="45.7570615" lon="13.9372113"><ele>327.0</ele><time>2026-03-28T14:24:56.067Z</time></trkpt><trkpt lat="45.7569695" lon="13.9372809"><ele>327.0</ele><time>2026-03-28T14:24:57.05Z</time></trkpt><trkpt lat="45.756882" lon="13.9373544"><ele>327.0</ele><time>2026-03-28T14:24:58.063Z</time></trkpt><trkpt lat="45.7567926" lon="13.9374391"><ele>327.0</ele><time>2026-03-28T14:24:59.058Z</time></trkpt><trkpt lat="45.7567098" lon="13.9375151"><ele>327.0</ele><time>2026-03-28T14:25:00.061Z</time></trkpt><trkpt lat="45.7566365" lon="13.9375873"><ele>327.0</ele><time>2026-03-28T14:25:01.062Z</time></trkpt><trkpt lat="45.7565724" lon="13.9376571"><ele>327.0</ele><time>2026-03-28T14:25:02.06Z</time></trkpt><trkpt lat="45.7565186" lon="13.9377241"><ele>327.0</ele><time>2026-03-28T14:25:03.061Z</time></trkpt><trkpt lat="45.7564452" lon="13.9378104"><ele>327.0</ele><time>2026-03-28T14:25:05.063Z</time></trkpt><trkpt lat="45.7563479" lon="13.9377692"><ele>327.0</ele><time>2026-03-28T14:25:07.074Z</time></trkpt><trkpt lat="45.7563018" lon="13.9376932"><ele>327.0</ele><time>2026-03-28T14:25:08.062Z</time></trkpt><trkpt lat="45.7562537" lon="13.9376046"><ele>324.3333333333333</ele><time>2026-03-28T14:25:09.057Z</time></trkpt><trkpt lat="45.7562024" lon="13.9375199"><ele>321.6666666666667</ele><time>2026-03-28T14:25:10.067Z</time></trkpt><trkpt lat="45.7561444" lon="13.9374403"><ele>319.0</ele><time>2026-03-28T14:25:11.058Z</time></trkpt><trkpt lat="45.7560915" lon="13.9373567"><ele>316.33333333333337</ele><time>2026-03-28T14:25:12.067Z</time></trkpt><trkpt lat="45.7560444" lon="13.9372697"><ele>313.6666666666667</ele><time>2026-03-28T14:25:13.062Z</time></trkpt><trkpt lat="45.7560036" lon="13.9371726"><ele>311.0</ele><time>2026-03-28T14:25:14.076Z</time></trkpt><trkpt lat="45.7559754" lon="13.9370436"><ele>311.0</ele><time>2026-03-28T14:25:15.059Z</time></trkpt><trkpt lat="45.755974" lon="13.9368955"><ele>311.0</ele><time>2026-03-28T14:25:16.06Z</time></trkpt><trkpt lat="45.7559991" lon="13.9367476"><ele>311.0</ele><time>2026-03-28T14:25:17.063Z</time></trkpt><trkpt lat="45.7560518" lon="13.9366006"><ele>311.0</ele><time>2026-03-28T14:25:18.066Z</time></trkpt><trkpt lat="45.7561195" lon="13.9364633"><ele>311.0</ele><time>2026-03-28T14:25:19.059Z</time></trkpt><trkpt lat="45.7561788" lon="13.9363246"><ele>311.0</ele><time>2026-03-28T14:25:20.058Z</time></trkpt><trkpt lat="45.756239" lon="13.9361818"><ele>311.0</ele><time>2026-03-28T14:25:21.065Z</time></trkpt><trkpt lat="45.7563" lon="13.9360402"><ele>311.0</ele><time>2026-03-28T14:25:22.069Z</time></trkpt><trkpt lat="45.7563583" lon="13.9359167"><ele>311.0</ele><time>2026-03-28T14:25:23.062Z</time></trkpt><trkpt lat="45.7564119" lon="13.9357997"><ele>311.0</ele><time>2026-03-28T14:25:24.072Z</time></trkpt><trkpt lat="45.7564635" lon="13.9356964"><ele>311.0</ele><time>2026-03-28T14:25:25.065Z</time></trkpt><trkpt lat="45.7565055" lon="13.9356065"><ele>311.0</ele><time>2026-03-28T14:25:26.071Z</time></trkpt><trkpt lat="45.7565302" lon="13.935511"><ele>311.0</ele><time>2026-03-28T14:25:27.055Z</time></trkpt><trkpt lat="45.7565062" lon="13.9354187"><ele>311.0</ele><time>2026-03-28T14:25:28.066Z</time></trkpt><trkpt lat="45.7564461" lon="13.9353452"><ele>311.0</ele><time>2026-03-28T14:25:29.051Z</time></trkpt><trkpt lat="45.7563289" lon="13.9353858"><ele>311.0</ele><time>2026-03-28T14:25:31.055Z</time></trkpt><trkpt lat="45.7562849" lon="13.9354838"><ele>311.0</ele><time>2026-03-28T14:25:32.06Z</time></trkpt><trkpt lat="45.7562432" lon="13.9356036"><ele>311.0</ele><time>2026-03-28T14:25:33.053Z</time></trkpt><trkpt lat="45.7561988" lon="13.9357336"><ele>311.0</ele><time>2026-03-28T14:25:34.058Z</time></trkpt><trkpt lat="45.7561421" lon="13.9358686"><ele>311.0</ele><time>2026-03-28T14:25:35.075Z</time></trkpt><trkpt lat="45.7560682" lon="13.936006"><ele>311.0</ele><time>2026-03-28T14:25:36.051Z</time></trkpt><trkpt lat="45.7559951" lon="13.9361332"><ele>315.0</ele><time>2026-03-28T14:25:37.063Z</time></trkpt><trkpt lat="45.7559237" lon="13.9362493"><ele>319.0</ele><time>2026-03-28T14:25:38.053Z</time></trkpt><trkpt lat="45.755841" lon="13.9363727"><ele>323.0</ele><time>2026-03-28T14:25:39.055Z</time></trkpt><trkpt lat="45.7557527" lon="13.9364999"><ele>327.0</ele><time>2026-03-28T14:25:40.046Z</time></trkpt><trkpt lat="45.7556654" lon="13.9366291"><ele>323.0</ele><time>2026-03-28T14:25:41.056Z</time></trkpt><trkpt lat="45.7555846" lon="13.9367522"><ele>319.0</ele><time>2026-03-28T14:25:42.059Z</time></trkpt><trkpt lat="45.7555008" lon="13.9368724"><ele>315.0</ele><time>2026-03-28T14:25:43.059Z</time></trkpt><trkpt lat="45.7554168" lon="13.9369861"><ele>311.0</ele><time>2026-03-28T14:25:44.074Z</time></trkpt><trkpt lat="45.7553317" lon="13.9371014"><ele>311.0</ele><time>2026-03-28T14:25:45.056Z</time></trkpt><trkpt lat="45.7552419" lon="13.9372195"><ele>311.0</ele><time>2026-03-28T14:25:46.05Z</time></trkpt><trkpt lat="45.7551503" lon="13.9373375"><ele>311.0</ele><time>2026-03-28T14:25:47.059Z</time></trkpt><trkpt lat="45.755057" lon="13.9374596"><ele>311.0</ele><time>2026-03-28T14:25:48.058Z</time></trkpt><trkpt lat="45.7549599" lon="13.9375709"><ele>314.0</ele><time>2026-03-28T14:25:49.068Z</time></trkpt><trkpt lat="45.7548558" lon="13.9376756"><ele>317.0</ele><time>2026-03-28T14:25:50.051Z</time></trkpt><trkpt lat="45.7547524" lon="13.937781"><ele>320.0</ele><time>2026-03-28T14:25:51.079Z</time></trkpt><trkpt lat="45.7546488" lon="13.9378893"><ele>323.0</ele><time>2026-03-28T14:25:52.056Z</time></trkpt><trkpt lat="45.7545445" lon="13.9379975"><ele>323.0</ele><time>2026-03-28T14:25:53.059Z</time></trkpt><trkpt lat="45.7544397" lon="13.9381047"><ele>323.0</ele><time>2026-03-28T14:25:54.057Z</time></trkpt><trkpt lat="45.7543316" lon="13.938205"><ele>323.0</ele><time>2026-03-28T14:25:55.059Z</time></trkpt><trkpt lat="45.7542197" lon="13.938308"><ele>323.0</ele><time>2026-03-28T14:25:56.06Z</time></trkpt><trkpt lat="45.7541073" lon="13.9384144"><ele>324.5</ele><time>2026-03-28T14:25:57.065Z</time></trkpt><trkpt lat="45.7539959" lon="13.9385252"><ele>326.0</ele><time>2026-03-28T14:25:58.078Z</time></trkpt><trkpt lat="45.7538849" lon="13.9386324"><ele>327.5</ele><time>2026-03-28T14:25:59.058Z</time></trkpt><trkpt lat="45.7537792" lon="13.9387338"><ele>329.0</ele><time>2026-03-28T14:26:00.056Z</time></trkpt><trkpt lat="45.7536809" lon="13.9388425"><ele>329.0</ele><time>2026-03-28T14:26:01.052Z</time></trkpt><trkpt lat="45.7535812" lon="13.9389601"><ele>329.0</ele><time>2026-03-28T14:26:02.065Z</time></trkpt><trkpt lat="45.7534737" lon="13.9390852"><ele>329.0</ele><time>2026-03-28T14:26:03.059Z</time></trkpt><trkpt lat="45.7533626" lon="13.9392126"><ele>329.0</ele><time>2026-03-28T14:26:04.057Z</time></trkpt><trkpt lat="45.7532505" lon="13.9393422"><ele>332.25</ele><time>2026-03-28T14:26:05.071Z</time></trkpt><trkpt lat="45.7531415" lon="13.9394667"><ele>335.5</ele><time>2026-03-28T14:26:06.06Z</time></trkpt><trkpt lat="45.7530366" lon="13.939585"><ele>338.75</ele><time>2026-03-28T14:26:07.055Z</time></trkpt><trkpt lat="45.7529327" lon="13.9397033"><ele>342.0</ele><time>2026-03-28T14:26:08.062Z</time></trkpt><trkpt lat="45.7528301" lon="13.9398197"><ele>342.0</ele><time>2026-03-28T14:26:09.059Z</time></trkpt><trkpt lat="45.752725" lon="13.9399394"><ele>342.0</ele><time>2026-03-28T14:26:10.058Z</time></trkpt><trkpt lat="45.752617" lon="13.9400498"><ele>342.0</ele><time>2026-03-28T14:26:11.074Z</time></trkpt><trkpt lat="45.7525073" lon="13.9401567"><ele>342.0</ele><time>2026-03-28T14:26:12.056Z</time></trkpt><trkpt lat="45.7523996" lon="13.9402608"><ele>344.25</ele><time>2026-03-28T14:26:13.055Z</time></trkpt><trkpt lat="45.7522949" lon="13.9403608"><ele>346.5</ele><time>2026-03-28T14:26:14.053Z</time></trkpt><trkpt lat="45.7521875" lon="13.9404619"><ele>348.75</ele><time>2026-03-28T14:26:15.059Z</time></trkpt><trkpt lat="45.7520778" lon="13.9405572"><ele>351.0</ele><time>2026-03-28T14:26:16.06Z</time></trkpt><trkpt lat="45.751972" lon="13.9406528"><ele>353.5</ele><time>2026-03-28T14:26:17.076Z</time></trkpt><trkpt lat="45.7518692" lon="13.9407407"><ele>356.0</ele><time>2026-03-28T14:26:18.064Z</time></trkpt><trkpt lat="45.7517723" lon="13.9408373"><ele>358.5</ele><time>2026-03-28T14:26:19.069Z</time></trkpt><trkpt lat="45.7516752" lon="13.9409394"><ele>361.0</ele><time>2026-03-28T14:26:20.055Z</time></trkpt><trkpt lat="45.7515778" lon="13.9410456"><ele>361.0</ele><time>2026-03-28T14:26:21.063Z</time></trkpt><trkpt lat="45.7514823" lon="13.9411663"><ele>361.0</ele><time>2026-03-28T14:26:22.06Z</time></trkpt><trkpt lat="45.7513806" lon="13.9413057"><ele>361.0</ele><time>2026-03-28T14:26:23.064Z</time></trkpt><trkpt lat="45.7512786" lon="13.9414545"><ele>361.0</ele><time>2026-03-28T14:26:24.074Z</time></trkpt><trkpt lat="45.7511643" lon="13.9416026"><ele>364.5</ele><time>2026-03-28T14:26:25.064Z</time></trkpt><trkpt lat="45.7510538" lon="13.9417446"><ele>368.0</ele><time>2026-03-28T14:26:26.067Z</time></trkpt><trkpt lat="45.7509472" lon="13.9418699"><ele>371.5</ele><time>2026-03-28T14:26:27.06Z</time></trkpt><trkpt lat="45.7508449" lon="13.9419779"><ele>375.0</ele><time>2026-03-28T14:26:28.061Z</time></trkpt><trkpt lat="45.7507457" lon="13.9420837"><ele>375.0</ele><time>2026-03-28T14:26:29.065Z</time></trkpt><trkpt lat="45.7506468" lon="13.9421735"><ele>375.0</ele><time>2026-03-28T14:26:30.06Z</time></trkpt><trkpt lat="45.7505342" lon="13.9422303"><ele>375.0</ele><time>2026-03-28T14:26:31.071Z</time></trkpt><trkpt lat="45.7504162" lon="13.9422397"><ele>375.0</ele><time>2026-03-28T14:26:32.074Z</time></trkpt><trkpt lat="45.7503005" lon="13.942208"><ele>378.75</ele><time>2026-03-28T14:26:33.072Z</time></trkpt><trkpt lat="45.7501922" lon="13.9421402"><ele>382.5</ele><time>2026-03-28T14:26:34.076Z</time></trkpt><trkpt lat="45.7500927" lon="13.9420382"><ele>386.25</ele><time>2026-03-28T14:26:35.072Z</time></trkpt><trkpt lat="45.7500104" lon="13.9418946"><ele>390.0</ele><time>2026-03-28T14:26:36.081Z</time></trkpt><trkpt lat="45.7499355" lon="13.9417265"><ele>390.0</ele><time>2026-03-28T14:26:37.071Z</time></trkpt><trkpt lat="45.749855" lon="13.9415651"><ele>390.0</ele><time>2026-03-28T14:26:38.07Z</time></trkpt><trkpt lat="45.7497689" lon="13.9414056"><ele>390.0</ele><time>2026-03-28T14:26:39.075Z</time></trkpt><trkpt lat="45.7496842" lon="13.9412502"><ele>390.0</ele><time>2026-03-28T14:26:40.074Z</time></trkpt><trkpt lat="45.7496031" lon="13.9410917"><ele>390.0</ele><time>2026-03-28T14:26:41.069Z</time></trkpt><trkpt lat="45.7495244" lon="13.9409328"><ele>390.0</ele><time>2026-03-28T14:26:42.079Z</time></trkpt><trkpt lat="45.7494399" lon="13.9407759"><ele>390.0</ele><time>2026-03-28T14:26:43.076Z</time></trkpt><trkpt lat="45.7493582" lon="13.9406224"><ele>390.0</ele><time>2026-03-28T14:26:44.076Z</time></trkpt><trkpt lat="45.749276" lon="13.9404762"><ele>390.75</ele><time>2026-03-28T14:26:45.079Z</time></trkpt><trkpt lat="45.749193" lon="13.9403328"><ele>391.5</ele><time>2026-03-28T14:26:46.078Z</time></trkpt><trkpt lat="45.7491005" lon="13.9401871"><ele>392.25</ele><time>2026-03-28T14:26:47.082Z</time></trkpt><trkpt lat="45.7489995" lon="13.9400457"><ele>393.0</ele><time>2026-03-28T14:26:48.072Z</time></trkpt><trkpt lat="45.7488995" lon="13.9399111"><ele>392.0</ele><time>2026-03-28T14:26:49.085Z</time></trkpt><trkpt lat="45.7488021" lon="13.9397857"><ele>391.0</ele><time>2026-03-28T14:26:50.07Z</time></trkpt><trkpt lat="45.7487062" lon="13.9396654"><ele>390.0</ele><time>2026-03-28T14:26:51.07Z</time></trkpt><trkpt lat="45.7486131" lon="13.9395492"><ele>389.0</ele><time>2026-03-28T14:26:52.067Z</time></trkpt><trkpt lat="45.7485208" lon="13.9394273"><ele>389.0</ele><time>2026-03-28T14:26:53.067Z</time></trkpt><trkpt lat="45.748432" lon="13.9393137"><ele>389.0</ele><time>2026-03-28T14:26:54.073Z</time></trkpt><trkpt lat="45.7483458" lon="13.9392003"><ele>389.0</ele><time>2026-03-28T14:26:55.074Z</time></trkpt><trkpt lat="45.7482592" lon="13.9390743"><ele>389.0</ele><time>2026-03-28T14:26:56.081Z</time></trkpt><trkpt lat="45.7481723" lon="13.9389381"><ele>387.25</ele><time>2026-03-28T14:26:57.075Z</time></trkpt><trkpt lat="45.7480874" lon="13.9388054"><ele>385.5</ele><time>2026-03-28T14:26:58.087Z</time></trkpt><trkpt lat="45.748008" lon="13.938657"><ele>383.75</ele><time>2026-03-28T14:26:59.078Z</time></trkpt><trkpt lat="45.7479442" lon="13.9385116"><ele>382.0</ele><time>2026-03-28T14:27:00.073Z</time></trkpt><trkpt lat="45.7478835" lon="13.9383691"><ele>381.0</ele><time>2026-03-28T14:27:01.073Z</time></trkpt><trkpt lat="45.7478199" lon="13.9382296"><ele>380.0</ele><time>2026-03-28T14:27:02.074Z</time></trkpt><trkpt lat="45.7477462" lon="13.9381038"><ele>379.0</ele><time>2026-03-28T14:27:03.087Z</time></trkpt><trkpt lat="45.7476644" lon="13.9379905"><ele>378.0</ele><time>2026-03-28T14:27:04.07Z</time></trkpt><trkpt lat="45.7475762" lon="13.9378834"><ele>378.0</ele><time>2026-03-28T14:27:05.07Z</time></trkpt><trkpt lat="45.7474824" lon="13.9377799"><ele>378.0</ele><time>2026-03-28T14:27:06.077Z</time></trkpt><trkpt lat="45.7473834" lon="13.937682"><ele>378.0</ele><time>2026-03-28T14:27:07.078Z</time></trkpt><trkpt lat="45.7472787" lon="13.9375949"><ele>378.0</ele><time>2026-03-28T14:27:08.083Z</time></trkpt><trkpt lat="45.7471763" lon="13.9375032"><ele>378.0</ele><time>2026-03-28T14:27:09.083Z</time></trkpt><trkpt lat="45.7470728" lon="13.9374071"><ele>378.0</ele><time>2026-03-28T14:27:10.087Z</time></trkpt><trkpt lat="45.7469681" lon="13.9373082"><ele>378.0</ele><time>2026-03-28T14:27:11.082Z</time></trkpt><trkpt lat="45.7468617" lon="13.9372059"><ele>378.0</ele><time>2026-03-28T14:27:12.077Z</time></trkpt><trkpt lat="45.7467572" lon="13.9371056"><ele>376.5</ele><time>2026-03-28T14:27:13.08Z</time></trkpt><trkpt lat="45.7466551" lon="13.9370082"><ele>375.0</ele><time>2026-03-28T14:27:14.082Z</time></trkpt><trkpt lat="45.7465546" lon="13.9369224"><ele>373.5</ele><time>2026-03-28T14:27:15.079Z</time></trkpt><trkpt lat="45.746457" lon="13.9368442"><ele>372.0</ele><time>2026-03-28T14:27:16.072Z</time></trkpt><trkpt lat="45.7463657" lon="13.9367613"><ele>371.8</ele><time>2026-03-28T14:27:17.083Z</time></trkpt><trkpt lat="45.746279" lon="13.936679"><ele>371.6</ele><time>2026-03-28T14:27:18.077Z</time></trkpt><trkpt lat="45.7461917" lon="13.9366"><ele>371.40000000000003</ele><time>2026-03-28T14:27:19.072Z</time></trkpt><trkpt lat="45.7461011" lon="13.936521"><ele>371.20000000000005</ele><time>2026-03-28T14:27:20.085Z</time></trkpt><trkpt lat="45.7460182" lon="13.9364505"><ele>371.0</ele><time>2026-03-28T14:27:21.076Z</time></trkpt><trkpt lat="45.7459378" lon="13.9363892"><ele>370.83333333333337</ele><time>2026-03-28T14:27:22.087Z</time></trkpt><trkpt lat="45.7458653" lon="13.9363265"><ele>370.6666666666667</ele><time>2026-03-28T14:27:23.077Z</time></trkpt><trkpt lat="45.7457981" lon="13.9362701"><ele>370.5</ele><time>2026-03-28T14:27:24.085Z</time></trkpt><trkpt lat="45.7457356" lon="13.9362228"><ele>370.3333333333333</ele><time>2026-03-28T14:27:25.081Z</time></trkpt><trkpt lat="45.7456726" lon="13.9361732"><ele>370.16666666666663</ele><time>2026-03-28T14:27:26.084Z</time></trkpt><trkpt lat="45.7456022" lon="13.936126"><ele>370.0</ele><time>2026-03-28T14:27:27.08Z</time></trkpt><trkpt lat="45.745532" lon="13.9360898"><ele>370.0</ele><time>2026-03-28T14:27:28.085Z</time></trkpt><trkpt lat="45.7454709" lon="13.9360624"><ele>370.0</ele><time>2026-03-28T14:27:29.088Z</time></trkpt><trkpt lat="45.7454466" lon="13.9359592"><ele>370.0</ele><time>2026-03-28T14:27:32.072Z</time></trkpt><trkpt lat="45.7455147" lon="13.9359255"><ele>370.0</ele><time>2026-03-28T14:27:34.066Z</time></trkpt><trkpt lat="45.7455755" lon="13.9357974"><ele>370.0</ele><time>2026-03-28T14:27:36.069Z</time></trkpt><trkpt lat="45.7455827" lon="13.9356445"><ele>370.0</ele><time>2026-03-28T14:27:38.068Z</time></trkpt><trkpt lat="45.7455925" lon="13.9354687"><ele>370.0</ele><time>2026-03-28T14:27:40.09Z</time></trkpt><trkpt lat="45.7456118" lon="13.9353373"><ele>370.0</ele><time>2026-03-28T14:27:41.088Z</time></trkpt><trkpt lat="45.7456362" lon="13.9352009"><ele>370.0</ele><time>2026-03-28T14:27:42.096Z</time></trkpt><trkpt lat="45.745663" lon="13.9350512"><ele>370.0</ele><time>2026-03-28T14:27:43.072Z</time></trkpt><trkpt lat="45.7456956" lon="13.9348947"><ele>370.0</ele><time>2026-03-28T14:27:44.078Z</time></trkpt><trkpt lat="45.7457226" lon="13.9347493"><ele>370.0</ele><time>2026-03-28T14:27:45.073Z</time></trkpt><trkpt lat="45.7457431" lon="13.9346257"><ele>370.0</ele><time>2026-03-28T14:27:46.076Z</time></trkpt><trkpt lat="45.7457632" lon="13.9344896"><ele>370.0</ele><time>2026-03-28T14:27:47.077Z</time></trkpt><trkpt lat="45.7457881" lon="13.9343492"><ele>370.0</ele><time>2026-03-28T14:27:48.073Z</time></trkpt><trkpt lat="45.7458199" lon="13.9342004"><ele>370.0</ele><time>2026-03-28T14:27:49.092Z</time></trkpt><trkpt lat="45.7458528" lon="13.9340489"><ele>370.0</ele><time>2026-03-28T14:27:50.089Z</time></trkpt><trkpt lat="45.7458926" lon="13.9339018"><ele>370.0</ele><time>2026-03-28T14:27:51.071Z</time></trkpt><trkpt lat="45.7459326" lon="13.9337477"><ele>370.0</ele><time>2026-03-28T14:27:52.084Z</time></trkpt><trkpt lat="45.745973" lon="13.9335941"><ele>370.0</ele><time>2026-03-28T14:27:53.085Z</time></trkpt><trkpt lat="45.7460127" lon="13.9334414"><ele>369.0</ele><time>2026-03-28T14:27:54.086Z</time></trkpt><trkpt lat="45.7460601" lon="13.933286"><ele>368.0</ele><time>2026-03-28T14:27:55.076Z</time></trkpt><trkpt lat="45.7461224" lon="13.9331396"><ele>367.0</ele><time>2026-03-28T14:27:56.092Z</time></trkpt><trkpt lat="45.7461909" lon="13.9330033"><ele>366.0</ele><time>2026-03-28T14:27:57.077Z</time></trkpt><trkpt lat="45.7462552" lon="13.9328781"><ele>366.0</ele><time>2026-03-28T14:27:58.09Z</time></trkpt><trkpt lat="45.7463082" lon="13.9327661"><ele>366.0</ele><time>2026-03-28T14:27:59.085Z</time></trkpt><trkpt lat="45.7463452" lon="13.9326419"><ele>366.0</ele><time>2026-03-28T14:28:00.085Z</time></trkpt><trkpt lat="45.7463545" lon="13.9325087"><ele>366.0</ele><time>2026-03-28T14:28:01.083Z</time></trkpt><trkpt lat="45.7463529" lon="13.9323685"><ele>366.0</ele><time>2026-03-28T14:28:02.075Z</time></trkpt><trkpt lat="45.7463505" lon="13.9322286"><ele>366.4</ele><time>2026-03-28T14:28:03.087Z</time></trkpt><trkpt lat="45.7463465" lon="13.9320898"><ele>366.8</ele><time>2026-03-28T14:28:04.087Z</time></trkpt><trkpt lat="45.7463638" lon="13.9319592"><ele>367.2</ele><time>2026-03-28T14:28:05.082Z</time></trkpt><trkpt lat="45.7464018" lon="13.9318401"><ele>367.59999999999997</ele><time>2026-03-28T14:28:06.082Z</time></trkpt><trkpt lat="45.7464535" lon="13.9317385"><ele>368.0</ele><time>2026-03-28T14:28:07.073Z</time></trkpt><trkpt lat="45.7465201" lon="13.9316556"><ele>368.0</ele><time>2026-03-28T14:28:08.072Z</time></trkpt><trkpt lat="45.7465932" lon="13.9315924"><ele>368.0</ele><time>2026-03-28T14:28:09.066Z</time></trkpt><trkpt lat="45.7466497" lon="13.9314879"><ele>368.0</ele><time>2026-03-28T14:28:10.086Z</time></trkpt><trkpt lat="45.7466875" lon="13.9313727"><ele>368.0</ele><time>2026-03-28T14:28:11.079Z</time></trkpt><trkpt lat="45.7467068" lon="13.931248"><ele>368.0</ele><time>2026-03-28T14:28:12.064Z</time></trkpt><trkpt lat="45.7467215" lon="13.9311214"><ele>368.0</ele><time>2026-03-28T14:28:13.072Z</time></trkpt><trkpt lat="45.7467277" lon="13.9309982"><ele>367.8571428571429</ele><time>2026-03-28T14:28:14.069Z</time></trkpt><trkpt lat="45.7467264" lon="13.9308803"><ele>367.71428571428567</ele><time>2026-03-28T14:28:15.074Z</time></trkpt><trkpt lat="45.7467142" lon="13.930769"><ele>367.57142857142856</ele><time>2026-03-28T14:28:16.076Z</time></trkpt><trkpt lat="45.7466911" lon="13.930676"><ele>367.42857142857144</ele><time>2026-03-28T14:28:17.076Z</time></trkpt><trkpt lat="45.7466623" lon="13.9305947"><ele>367.28571428571433</ele><time>2026-03-28T14:28:18.087Z</time></trkpt><trkpt lat="45.7466266" lon="13.930492"><ele>367.1428571428571</ele><time>2026-03-28T14:28:20.079Z</time></trkpt><trkpt lat="45.74658" lon="13.930556"><ele>367.0</ele><time>2026-03-28T14:28:27.071Z</time></trkpt><trkpt lat="45.7466464" lon="13.9306532"><ele>367.0</ele><time>2026-03-28T14:28:29.068Z</time></trkpt><trkpt lat="45.7467251" lon="13.9307841"><ele>367.0</ele><time>2026-03-28T14:28:31.1Z</time></trkpt><trkpt lat="45.7467437" lon="13.9308808"><ele>367.0</ele><time>2026-03-28T14:28:32.073Z</time></trkpt><trkpt lat="45.7467426" lon="13.9310095"><ele>367.0</ele><time>2026-03-28T14:28:33.062Z</time></trkpt><trkpt lat="45.7467302" lon="13.9311359"><ele>367.0</ele><time>2026-03-28T14:28:34.057Z</time></trkpt><trkpt lat="45.7467134" lon="13.9312403"><ele>367.0</ele><time>2026-03-28T14:28:35.081Z</time></trkpt><trkpt lat="45.746776" lon="13.9311835"><ele>367.16666666666663</ele><time>2026-03-28T14:28:40.072Z</time></trkpt><trkpt lat="45.7468134" lon="13.9310899"><ele>367.3333333333333</ele><time>2026-03-28T14:28:41.069Z</time></trkpt><trkpt lat="45.7468606" lon="13.9309808"><ele>367.5</ele><time>2026-03-28T14:28:42.078Z</time></trkpt><trkpt lat="45.7469037" lon="13.9308644"><ele>367.6666666666667</ele><time>2026-03-28T14:28:43.088Z</time></trkpt><trkpt lat="45.7469418" lon="13.9307606"><ele>367.83333333333337</ele><time>2026-03-28T14:28:44.072Z</time></trkpt><trkpt lat="45.7469906" lon="13.9306817"><ele>368.0</ele><time>2026-03-28T14:28:45.109Z</time></trkpt><trkpt lat="45.7470591" lon="13.9306092"><ele>366.79999999999995</ele><time>2026-03-28T14:28:46.088Z</time></trkpt><trkpt lat="45.747138" lon="13.9305258"><ele>365.6</ele><time>2026-03-28T14:28:47.074Z</time></trkpt><trkpt lat="45.7472295" lon="13.9304207"><ele>364.4</ele><time>2026-03-28T14:28:48.076Z</time></trkpt><trkpt lat="45.7473149" lon="13.9303087"><ele>363.20000000000005</ele><time>2026-03-28T14:28:49.082Z</time></trkpt><trkpt lat="45.7473931" lon="13.9301943"><ele>362.0</ele><time>2026-03-28T14:28:50.068Z</time></trkpt><trkpt lat="45.7474672" lon="13.9300775"><ele>362.20000000000005</ele><time>2026-03-28T14:28:51.074Z</time></trkpt><trkpt lat="45.7475415" lon="13.9299674"><ele>362.4</ele><time>2026-03-28T14:28:52.07Z</time></trkpt><trkpt lat="45.747611" lon="13.9298641"><ele>362.6</ele><time>2026-03-28T14:28:53.075Z</time></trkpt><trkpt lat="45.7476791" lon="13.9297644"><ele>362.79999999999995</ele><time>2026-03-28T14:28:54.104Z</time></trkpt><trkpt lat="45.7477466" lon="13.9296612"><ele>363.0</ele><time>2026-03-28T14:28:55.075Z</time></trkpt><trkpt lat="45.7478118" lon="13.9295647"><ele>363.0</ele><time>2026-03-28T14:28:56.086Z</time></trkpt><trkpt lat="45.7478762" lon="13.9294509"><ele>363.0</ele><time>2026-03-28T14:28:57.079Z</time></trkpt><trkpt lat="45.7479308" lon="13.9293321"><ele>363.0</ele><time>2026-03-28T14:28:58.082Z</time></trkpt><trkpt lat="45.7479803" lon="13.9292002"><ele>363.0</ele><time>2026-03-28T14:28:59.079Z</time></trkpt><trkpt lat="45.748029" lon="13.9290561"><ele>363.0</ele><time>2026-03-28T14:29:00.07Z</time></trkpt><trkpt lat="45.7480817" lon="13.928917"><ele>364.25</ele><time>2026-03-28T14:29:01.069Z</time></trkpt><trkpt lat="45.7481427" lon="13.9287717"><ele>365.5</ele><time>2026-03-28T14:29:02.074Z</time></trkpt><trkpt lat="45.7482052" lon="13.928628"><ele>366.75</ele><time>2026-03-28T14:29:03.07Z</time></trkpt><trkpt lat="45.7482663" lon="13.9284976"><ele>368.0</ele><time>2026-03-28T14:29:04.075Z</time></trkpt><trkpt lat="45.7483262" lon="13.9283727"><ele>368.0</ele><time>2026-03-28T14:29:05.07Z</time></trkpt><trkpt lat="45.7483865" lon="13.9282452"><ele>368.0</ele><time>2026-03-28T14:29:06.083Z</time></trkpt><trkpt lat="45.7484501" lon="13.9281211"><ele>368.0</ele><time>2026-03-28T14:29:07.074Z</time></trkpt><trkpt lat="45.7485317" lon="13.9280021"><ele>368.0</ele><time>2026-03-28T14:29:08.074Z</time></trkpt><trkpt lat="45.7486169" lon="13.9278864"><ele>368.0</ele><time>2026-03-28T14:29:09.067Z</time></trkpt><trkpt lat="45.7487027" lon="13.9277733"><ele>368.0</ele><time>2026-03-28T14:29:10.073Z</time></trkpt><trkpt lat="45.7487886" lon="13.9276706"><ele>368.0</ele><time>2026-03-28T14:29:11.069Z</time></trkpt><trkpt lat="45.7488758" lon="13.9275489"><ele>368.0</ele><time>2026-03-28T14:29:12.075Z</time></trkpt><trkpt lat="45.7489267" lon="13.927405"><ele>368.0</ele><time>2026-03-28T14:29:13.068Z</time></trkpt><trkpt lat="45.7489556" lon="13.92725"><ele>367.59999999999997</ele><time>2026-03-28T14:29:14.077Z</time></trkpt><trkpt lat="45.7489792" lon="13.927104"><ele>367.2</ele><time>2026-03-28T14:29:15.055Z</time></trkpt><trkpt lat="45.749004" lon="13.9269655"><ele>366.8</ele><time>2026-03-28T14:29:16.075Z</time></trkpt><trkpt lat="45.7490266" lon="13.92683"><ele>366.4</ele><time>2026-03-28T14:29:17.075Z</time></trkpt><trkpt lat="45.7490707" lon="13.9267122"><ele>366.0</ele><time>2026-03-28T14:29:18.071Z</time></trkpt><trkpt lat="45.7491297" lon="13.9266173"><ele>366.0</ele><time>2026-03-28T14:29:19.076Z</time></trkpt><trkpt lat="45.749193" lon="13.9265325"><ele>366.0</ele><time>2026-03-28T14:29:20.067Z</time></trkpt><trkpt lat="45.7492644" lon="13.9264492"><ele>366.0</ele><time>2026-03-28T14:29:21.067Z</time></trkpt><trkpt lat="45.7493293" lon="13.9263543"><ele>366.0</ele><time>2026-03-28T14:29:22.073Z</time></trkpt><trkpt lat="45.7493851" lon="13.9262785"><ele>366.0</ele><time>2026-03-28T14:29:23.067Z</time></trkpt><trkpt lat="45.7494767" lon="13.9262132"><ele>365.20000000000005</ele><time>2026-03-28T14:29:25.071Z</time></trkpt><trkpt lat="45.7495366" lon="13.9261243"><ele>364.40000000000003</ele><time>2026-03-28T14:29:30.067Z</time></trkpt><trkpt lat="45.749584" lon="13.9260328"><ele>363.6</ele><time>2026-03-28T14:29:32.067Z</time></trkpt><trkpt lat="45.749649" lon="13.9258658"><ele>362.8</ele><time>2026-03-28T14:29:34.074Z</time></trkpt><trkpt lat="45.7496854" lon="13.9257637"><ele>362.0</ele><time>2026-03-28T14:29:35.065Z</time></trkpt><trkpt lat="45.7497314" lon="13.9256643"><ele>361.0</ele><time>2026-03-28T14:29:36.075Z</time></trkpt><trkpt lat="45.7497738" lon="13.9255615"><ele>360.0</ele><time>2026-03-28T14:29:37.07Z</time></trkpt><trkpt lat="45.7498157" lon="13.9254417"><ele>359.0</ele><time>2026-03-28T14:29:38.072Z</time></trkpt><trkpt lat="45.7498607" lon="13.9253209"><ele>358.0</ele><time>2026-03-28T14:29:39.067Z</time></trkpt><trkpt lat="45.7499113" lon="13.9252016"><ele>357.0</ele><time>2026-03-28T14:29:40.075Z</time></trkpt><trkpt lat="45.7499705" lon="13.9250632"><ele>357.20000000000005</ele><time>2026-03-28T14:29:41.073Z</time></trkpt><trkpt lat="45.7500367" lon="13.924926"><ele>357.4</ele><time>2026-03-28T14:29:42.066Z</time></trkpt><trkpt lat="45.7500975" lon="13.9247945"><ele>357.6</ele><time>2026-03-28T14:29:43.073Z</time></trkpt><trkpt lat="45.7501484" lon="13.9246652"><ele>357.79999999999995</ele><time>2026-03-28T14:29:44.074Z</time></trkpt><trkpt lat="45.7501916" lon="13.924519"><ele>358.0</ele><time>2026-03-28T14:29:45.074Z</time></trkpt><trkpt lat="45.7502268" lon="13.9243567"><ele>358.0</ele><time>2026-03-28T14:29:46.073Z</time></trkpt><trkpt lat="45.7502673" lon="13.9241921"><ele>358.0</ele><time>2026-03-28T14:29:47.072Z</time></trkpt><trkpt lat="45.7503149" lon="13.92404"><ele>358.0</ele><time>2026-03-28T14:29:48.083Z</time></trkpt><trkpt lat="45.750359" lon="13.9238986"><ele>358.0</ele><time>2026-03-28T14:29:49.07Z</time></trkpt><trkpt lat="45.7503849" lon="13.9237607"><ele>358.0</ele><time>2026-03-28T14:29:50.073Z</time></trkpt><trkpt lat="45.7504112" lon="13.9236283"><ele>358.0</ele><time>2026-03-28T14:29:51.072Z</time></trkpt><trkpt lat="45.7504482" lon="13.9235247"><ele>358.0</ele><time>2026-03-28T14:29:52.077Z</time></trkpt><trkpt lat="45.7504918" lon="13.9234405"><ele>358.0</ele><time>2026-03-28T14:29:53.078Z</time></trkpt><trkpt lat="45.7505339" lon="13.9233661"><ele>358.0</ele><time>2026-03-28T14:29:54.062Z</time></trkpt><trkpt lat="45.7505703" lon="13.9232236"><ele>358.0</ele><time>2026-03-28T14:29:56.074Z</time></trkpt><trkpt lat="45.7505828" lon="13.9231012"><ele>358.0</ele><time>2026-03-28T14:29:58.086Z</time></trkpt><trkpt lat="45.750606" lon="13.9229734"><ele>357.66666666666663</ele><time>2026-03-28T14:30:01.082Z</time></trkpt><trkpt lat="45.7506405" lon="13.922891"><ele>357.3333333333333</ele><time>2026-03-28T14:30:03.088Z</time></trkpt><trkpt lat="45.7505717" lon="13.9228388"><ele>357.0</ele><time>2026-03-28T14:30:07.079Z</time></trkpt><trkpt lat="45.7505138" lon="13.922774"><ele>356.6666666666667</ele><time>2026-03-28T14:30:09.1Z</time></trkpt><trkpt lat="45.750471" lon="13.9226935"><ele>356.33333333333337</ele><time>2026-03-28T14:30:11.07Z</time></trkpt><trkpt lat="45.7504047" lon="13.9226018"><ele>356.0</ele><time>2026-03-28T14:30:13.074Z</time></trkpt><trkpt lat="45.7503072" lon="13.9224795"><ele>355.85714285714283</ele><time>2026-03-28T14:30:15.078Z</time></trkpt><trkpt lat="45.7502537" lon="13.9224132"><ele>355.7142857142857</ele><time>2026-03-28T14:30:16.071Z</time></trkpt><trkpt lat="45.7502013" lon="13.9223514"><ele>355.57142857142856</ele><time>2026-03-28T14:30:17.07Z</time></trkpt><trkpt lat="45.7501492" lon="13.9222887"><ele>355.42857142857144</ele><time>2026-03-28T14:30:18.079Z</time></trkpt><trkpt lat="45.7500972" lon="13.9222297"><ele>355.2857142857143</ele><time>2026-03-28T14:30:19.079Z</time></trkpt><trkpt lat="45.7500361" lon="13.9221552"><ele>355.1428571428571</ele><time>2026-03-28T14:30:20.077Z</time></trkpt><trkpt lat="45.7499752" lon="13.9220931"><ele>355.0</ele><time>2026-03-28T14:30:21.076Z</time></trkpt><trkpt lat="45.7499192" lon="13.9220274"><ele>354.5</ele><time>2026-03-28T14:30:22.073Z</time></trkpt><trkpt lat="45.7498658" lon="13.9219596"><ele>354.0</ele><time>2026-03-28T14:30:23.069Z</time></trkpt><trkpt lat="45.7498171" lon="13.9218981"><ele>353.5</ele><time>2026-03-28T14:30:24.079Z</time></trkpt><trkpt lat="45.74977" lon="13.9218376"><ele>353.0</ele><time>2026-03-28T14:30:25.077Z</time></trkpt><trkpt lat="45.7496995" lon="13.9217486"><ele>352.5</ele><time>2026-03-28T14:30:27.086Z</time></trkpt><trkpt lat="45.7496231" lon="13.9216782"><ele>352.0</ele><time>2026-03-28T14:30:29.089Z</time></trkpt><trkpt lat="45.7495213" lon="13.9215924"><ele>351.40000000000003</ele><time>2026-03-28T14:30:31.077Z</time></trkpt><trkpt lat="45.7494166" lon="13.9215205"><ele>350.8</ele><time>2026-03-28T14:30:33.092Z</time></trkpt><trkpt lat="45.749326" lon="13.9214406"><ele>350.2</ele><time>2026-03-28T14:30:35.084Z</time></trkpt><trkpt lat="45.7492515" lon="13.9213524"><ele>349.6</ele><time>2026-03-28T14:30:37.092Z</time></trkpt><trkpt lat="45.7491854" lon="13.9213178"><ele>349.0</ele><time>2026-03-28T14:30:42.069Z</time></trkpt><trkpt lat="45.7491995" lon="13.9214198"><ele>348.71428571428567</ele><time>2026-03-28T14:30:47.08Z</time></trkpt><trkpt lat="45.7492502" lon="13.9214808"><ele>348.42857142857144</ele><time>2026-03-28T14:30:49.071Z</time></trkpt><trkpt lat="45.7492418" lon="13.9215845"><ele>348.1428571428571</ele><time>2026-03-28T14:30:52.075Z</time></trkpt><trkpt lat="45.7491567" lon="13.9215751"><ele>347.85714285714283</ele><time>2026-03-28T14:30:54.072Z</time></trkpt><trkpt lat="45.7490928" lon="13.9215448"><ele>347.57142857142856</ele><time>2026-03-28T14:30:55.072Z</time></trkpt><trkpt lat="45.7490358" lon="13.921485"><ele>347.2857142857143</ele><time>2026-03-28T14:30:56.07Z</time></trkpt><trkpt lat="45.7489831" lon="13.9214162"><ele>347.0</ele><time>2026-03-28T14:30:57.076Z</time></trkpt><trkpt lat="45.7489171" lon="13.9213593"><ele>347.0</ele><time>2026-03-28T14:30:58.091Z</time></trkpt><trkpt lat="45.7488441" lon="13.9212926"><ele>347.0</ele><time>2026-03-28T14:30:59.094Z</time></trkpt><trkpt lat="45.748778" lon="13.9212104"><ele>347.0</ele><time>2026-03-28T14:31:00.1Z</time></trkpt><trkpt lat="45.7487154" lon="13.9211067"><ele>347.0</ele><time>2026-03-28T14:31:01.09Z</time></trkpt><trkpt lat="45.7486267" lon="13.9209938"><ele>347.0</ele><time>2026-03-28T14:31:02.089Z</time></trkpt><trkpt lat="45.7485304" lon="13.9208858"><ele>346.0</ele><time>2026-03-28T14:31:03.087Z</time></trkpt><trkpt lat="45.7484234" lon="13.9207883"><ele>345.0</ele><time>2026-03-28T14:31:04.094Z</time></trkpt><trkpt lat="45.7483105" lon="13.9207204"><ele>344.0</ele><time>2026-03-28T14:31:05.075Z</time></trkpt><trkpt lat="45.7482101" lon="13.9206655"><ele>343.0</ele><time>2026-03-28T14:31:06.097Z</time></trkpt><trkpt lat="45.7481175" lon="13.9206085"><ele>343.0</ele><time>2026-03-28T14:31:07.081Z</time></trkpt><trkpt lat="45.7480218" lon="13.9205383"><ele>343.0</ele><time>2026-03-28T14:31:08.095Z</time></trkpt><trkpt lat="45.7479392" lon="13.9204557"><ele>343.0</ele><time>2026-03-28T14:31:09.084Z</time></trkpt><trkpt lat="45.7478593" lon="13.9203893"><ele>343.0</ele><time>2026-03-28T14:31:10.087Z</time></trkpt><trkpt lat="45.7477634" lon="13.920369"><ele>343.0</ele><time>2026-03-28T14:31:11.084Z</time></trkpt><trkpt lat="45.7476623" lon="13.9203671"><ele>342.79999999999995</ele><time>2026-03-28T14:31:12.074Z</time></trkpt><trkpt lat="45.7475693" lon="13.9203346"><ele>342.6</ele><time>2026-03-28T14:31:13.087Z</time></trkpt><trkpt lat="45.7474658" lon="13.9202894"><ele>342.4</ele><time>2026-03-28T14:31:14.078Z</time></trkpt><trkpt lat="45.747364" lon="13.9202665"><ele>342.20000000000005</ele><time>2026-03-28T14:31:15.088Z</time></trkpt><trkpt lat="45.7472481" lon="13.9202661"><ele>342.0</ele><time>2026-03-28T14:31:16.076Z</time></trkpt><trkpt lat="45.7471367" lon="13.9202779"><ele>342.0</ele><time>2026-03-28T14:31:17.07Z</time></trkpt><trkpt lat="45.747037" lon="13.9203063"><ele>342.0</ele><time>2026-03-28T14:31:18.072Z</time></trkpt><trkpt lat="45.7469553" lon="13.920333"><ele>342.0</ele><time>2026-03-28T14:31:19.084Z</time></trkpt><trkpt lat="45.7468887" lon="13.920334"><ele>342.0</ele><time>2026-03-28T14:31:20.086Z</time></trkpt><trkpt lat="45.7468441" lon="13.9202276"><ele>342.0</ele><time>2026-03-28T14:31:23.065Z</time></trkpt><trkpt lat="45.7468793" lon="13.9200735"><ele>343.3333333333333</ele><time>2026-03-28T14:31:25.065Z</time></trkpt><trkpt lat="45.7469069" lon="13.919975"><ele>344.6666666666667</ele><time>2026-03-28T14:31:26.09Z</time></trkpt><trkpt lat="45.7469556" lon="13.9198854"><ele>346.0</ele><time>2026-03-28T14:31:27.071Z</time></trkpt><trkpt lat="45.747012" lon="13.9198108"><ele>347.33333333333337</ele><time>2026-03-28T14:31:28.085Z</time></trkpt><trkpt lat="45.7470677" lon="13.9197362"><ele>348.6666666666667</ele><time>2026-03-28T14:31:29.075Z</time></trkpt><trkpt lat="45.7471102" lon="13.9196638"><ele>350.0</ele><time>2026-03-28T14:31:30.083Z</time></trkpt><trkpt lat="45.7471676" lon="13.919547"><ele>350.0</ele><time>2026-03-28T14:31:32.078Z</time></trkpt><trkpt lat="45.7472441" lon="13.9194642"><ele>350.0</ele><time>2026-03-28T14:31:34.089Z</time></trkpt><trkpt lat="45.7473283" lon="13.919392"><ele>350.0</ele><time>2026-03-28T14:31:36.084Z</time></trkpt><trkpt lat="45.7473628" lon="13.919314"><ele>350.0</ele><time>2026-03-28T14:31:37.086Z</time></trkpt><trkpt lat="45.7473996" lon="13.9192095"><ele>350.0</ele><time>2026-03-28T14:31:38.069Z</time></trkpt><trkpt lat="45.7474459" lon="13.9190902"><ele>350.0</ele><time>2026-03-28T14:31:39.088Z</time></trkpt><trkpt lat="45.7475064" lon="13.9189508"><ele>350.0</ele><time>2026-03-28T14:31:40.088Z</time></trkpt><trkpt lat="45.7475761" lon="13.9187917"><ele>350.0</ele><time>2026-03-28T14:31:41.076Z</time></trkpt><trkpt lat="45.7476479" lon="13.9186196"><ele>350.0</ele><time>2026-03-28T14:31:42.074Z</time></trkpt><trkpt lat="45.7477142" lon="13.918453"><ele>350.0</ele><time>2026-03-28T14:31:43.083Z</time></trkpt><trkpt lat="45.7477756" lon="13.9182943"><ele>350.0</ele><time>2026-03-28T14:31:44.074Z</time></trkpt><trkpt lat="45.7478429" lon="13.9181494"><ele>350.0</ele><time>2026-03-28T14:31:45.088Z</time></trkpt><trkpt lat="45.7479109" lon="13.9180092"><ele>350.0</ele><time>2026-03-28T14:31:46.08Z</time></trkpt><trkpt lat="45.7479732" lon="13.9178456"><ele>350.0</ele><time>2026-03-28T14:31:47.063Z</time></trkpt><trkpt lat="45.7480287" lon="13.9176848"><ele>349.5</ele><time>2026-03-28T14:31:48.082Z</time></trkpt><trkpt lat="45.7480845" lon="13.9175383"><ele>349.0</ele><time>2026-03-28T14:31:49.071Z</time></trkpt><trkpt lat="45.7481467" lon="13.9174059"><ele>348.5</ele><time>2026-03-28T14:31:50.072Z</time></trkpt><trkpt lat="45.7482046" lon="13.9172673"><ele>348.0</ele><time>2026-03-28T14:31:51.07Z</time></trkpt><trkpt lat="45.7482432" lon="13.9171173"><ele>348.0</ele><time>2026-03-28T14:31:52.072Z</time></trkpt><trkpt lat="45.7482628" lon="13.9169466"><ele>348.0</ele><time>2026-03-28T14:31:53.081Z</time></trkpt><trkpt lat="45.7482742" lon="13.9167665"><ele>348.0</ele><time>2026-03-28T14:31:54.075Z</time></trkpt><trkpt lat="45.7482839" lon="13.9165767"><ele>348.0</ele><time>2026-03-28T14:31:55.078Z</time></trkpt><trkpt lat="45.7482903" lon="13.9163914"><ele>347.5</ele><time>2026-03-28T14:31:56.077Z</time></trkpt><trkpt lat="45.7482783" lon="13.9162147"><ele>347.0</ele><time>2026-03-28T14:31:57.079Z</time></trkpt><trkpt lat="45.748249" lon="13.9160489"><ele>346.5</ele><time>2026-03-28T14:31:58.103Z</time></trkpt><trkpt lat="45.7482091" lon="13.9158801"><ele>346.0</ele><time>2026-03-28T14:31:59.086Z</time></trkpt><trkpt lat="45.7481655" lon="13.9157129"><ele>346.0</ele><time>2026-03-28T14:32:00.087Z</time></trkpt><trkpt lat="45.7481269" lon="13.9155492"><ele>346.0</ele><time>2026-03-28T14:32:01.079Z</time></trkpt><trkpt lat="45.748086" lon="13.9153876"><ele>346.0</ele><time>2026-03-28T14:32:02.086Z</time></trkpt><trkpt lat="45.7480466" lon="13.9152273"><ele>346.0</ele><time>2026-03-28T14:32:03.076Z</time></trkpt><trkpt lat="45.7480054" lon="13.9150728"><ele>347.16666666666663</ele><time>2026-03-28T14:32:04.088Z</time></trkpt><trkpt lat="45.7479642" lon="13.9149306"><ele>348.3333333333333</ele><time>2026-03-28T14:32:05.088Z</time></trkpt><trkpt lat="45.7479478" lon="13.9147963"><ele>349.5</ele><time>2026-03-28T14:32:06.093Z</time></trkpt><trkpt lat="45.7479518" lon="13.9146757"><ele>350.6666666666667</ele><time>2026-03-28T14:32:07.07Z</time></trkpt><trkpt lat="45.7479412" lon="13.9145752"><ele>351.83333333333337</ele><time>2026-03-28T14:32:08.09Z</time></trkpt><trkpt lat="45.7478908" lon="13.9144915"><ele>353.0</ele><time>2026-03-28T14:32:09.089Z</time></trkpt><trkpt lat="45.747823" lon="13.9144093"><ele>353.0</ele><time>2026-03-28T14:32:10.071Z</time></trkpt><trkpt lat="45.7477645" lon="13.9143191"><ele>353.0</ele><time>2026-03-28T14:32:11.076Z</time></trkpt><trkpt lat="45.7477277" lon="13.9142221"><ele>353.0</ele><time>2026-03-28T14:32:12.086Z</time></trkpt><trkpt lat="45.7477114" lon="13.9141251"><ele>353.0</ele><time>2026-03-28T14:32:13.08Z</time></trkpt><trkpt lat="45.7476935" lon="13.9140325"><ele>353.0</ele><time>2026-03-28T14:32:14.091Z</time></trkpt><trkpt lat="45.7476201" lon="13.9138899"><ele>353.0</ele><time>2026-03-28T14:32:16.064Z</time></trkpt><trkpt lat="45.7475796" lon="13.9137236"><ele>353.59999999999997</ele><time>2026-03-28T14:32:18.073Z</time></trkpt><trkpt lat="45.7475991" lon="13.9136077"><ele>354.2</ele><time>2026-03-28T14:32:19.071Z</time></trkpt><trkpt lat="45.7476438" lon="13.91346"><ele>354.8</ele><time>2026-03-28T14:32:20.074Z</time></trkpt><trkpt lat="45.7476818" lon="13.9133074"><ele>355.4</ele><time>2026-03-28T14:32:21.061Z</time></trkpt><trkpt lat="45.7477123" lon="13.9131466"><ele>356.0</ele><time>2026-03-28T14:32:22.072Z</time></trkpt><trkpt lat="45.7477385" lon="13.9130009"><ele>356.1666666666667</ele><time>2026-03-28T14:32:23.069Z</time></trkpt><trkpt lat="45.7477523" lon="13.9128762"><ele>356.33333333333337</ele><time>2026-03-28T14:32:24.075Z</time></trkpt><trkpt lat="45.747763" lon="13.9127646"><ele>356.5</ele><time>2026-03-28T14:32:25.073Z</time></trkpt><trkpt lat="45.7477808" lon="13.9126616"><ele>356.6666666666667</ele><time>2026-03-28T14:32:26.084Z</time></trkpt><trkpt lat="45.7478202" lon="13.9125618"><ele>356.8333333333333</ele><time>2026-03-28T14:32:27.083Z</time></trkpt><trkpt lat="45.7478775" lon="13.9124721"><ele>357.0</ele><time>2026-03-28T14:32:28.065Z</time></trkpt><trkpt lat="45.747935" lon="13.912388"><ele>357.1666666666667</ele><time>2026-03-28T14:32:29.074Z</time></trkpt><trkpt lat="45.7479775" lon="13.9122959"><ele>357.3333333333333</ele><time>2026-03-28T14:32:30.087Z</time></trkpt><trkpt lat="45.7479968" lon="13.9121883"><ele>357.5</ele><time>2026-03-28T14:32:31.076Z</time></trkpt><trkpt lat="45.7480207" lon="13.9120868"><ele>357.66666666666663</ele><time>2026-03-28T14:32:32.078Z</time></trkpt><trkpt lat="45.7480722" lon="13.9119944"><ele>357.8333333333333</ele><time>2026-03-28T14:32:33.082Z</time></trkpt><trkpt lat="45.7481352" lon="13.9119191"><ele>358.0</ele><time>2026-03-28T14:32:34.079Z</time></trkpt><trkpt lat="45.7481986" lon="13.9118476"><ele>358.0</ele><time>2026-03-28T14:32:35.076Z</time></trkpt><trkpt lat="45.7482645" lon="13.9117642"><ele>358.0</ele><time>2026-03-28T14:32:36.085Z</time></trkpt><trkpt lat="45.748331" lon="13.9116722"><ele>358.0</ele><time>2026-03-28T14:32:37.085Z</time></trkpt><trkpt lat="45.7483997" lon="13.9115857"><ele>358.0</ele><time>2026-03-28T14:32:38.105Z</time></trkpt><trkpt lat="45.7484559" lon="13.9115051"><ele>358.0</ele><time>2026-03-28T14:32:39.079Z</time></trkpt><trkpt lat="45.7484974" lon="13.9114349"><ele>358.0</ele><time>2026-03-28T14:32:40.089Z</time></trkpt><trkpt lat="45.7485331" lon="13.911273"><ele>357.79999999999995</ele><time>2026-03-28T14:32:42.074Z</time></trkpt><trkpt lat="45.7484678" lon="13.9111292"><ele>357.6</ele><time>2026-03-28T14:32:44.068Z</time></trkpt><trkpt lat="45.7483995" lon="13.911089"><ele>357.4</ele><time>2026-03-28T14:32:45.068Z</time></trkpt><trkpt lat="45.7483322" lon="13.9110625"><ele>357.20000000000005</ele><time>2026-03-28T14:32:46.072Z</time></trkpt><trkpt lat="45.7482384" lon="13.9109766"><ele>357.0</ele><time>2026-03-28T14:32:48.087Z</time></trkpt><trkpt lat="45.748203" lon="13.9108052"><ele>356.8</ele><time>2026-03-28T14:32:50.075Z</time></trkpt><trkpt lat="45.7482188" lon="13.9106952"><ele>356.6</ele><time>2026-03-28T14:32:51.071Z</time></trkpt><trkpt lat="45.7482587" lon="13.9105748"><ele>356.40000000000003</ele><time>2026-03-28T14:32:52.066Z</time></trkpt><trkpt lat="45.7483041" lon="13.9104537"><ele>356.20000000000005</ele><time>2026-03-28T14:32:53.068Z</time></trkpt><trkpt lat="45.7483489" lon="13.9103131"><ele>356.0</ele><time>2026-03-28T14:32:54.085Z</time></trkpt><trkpt lat="45.7483888" lon="13.9101634"><ele>355.25</ele><time>2026-03-28T14:32:55.088Z</time></trkpt><trkpt lat="45.7484385" lon="13.910008"><ele>354.5</ele><time>2026-03-28T14:32:56.079Z</time></trkpt><trkpt lat="45.7484952" lon="13.9098485"><ele>353.75</ele><time>2026-03-28T14:32:57.089Z</time></trkpt><trkpt lat="45.7485514" lon="13.9096928"><ele>353.0</ele><time>2026-03-28T14:32:58.089Z</time></trkpt><trkpt lat="45.7486082" lon="13.9095417"><ele>354.5</ele><time>2026-03-28T14:32:59.092Z</time></trkpt><trkpt lat="45.7486741" lon="13.909393"><ele>356.0</ele><time>2026-03-28T14:33:00.091Z</time></trkpt><trkpt lat="45.7487359" lon="13.9092457"><ele>357.5</ele><time>2026-03-28T14:33:01.09Z</time></trkpt><trkpt lat="45.7487971" lon="13.9091069"><ele>359.0</ele><time>2026-03-28T14:33:02.085Z</time></trkpt><trkpt lat="45.7488548" lon="13.9089665"><ele>359.0</ele><time>2026-03-28T14:33:03.112Z</time></trkpt><trkpt lat="45.7489075" lon="13.9088225"><ele>359.0</ele><time>2026-03-28T14:33:04.084Z</time></trkpt><trkpt lat="45.7489622" lon="13.9086754"><ele>359.0</ele><time>2026-03-28T14:33:05.083Z</time></trkpt><trkpt lat="45.7490171" lon="13.9085264"><ele>359.0</ele><time>2026-03-28T14:33:06.081Z</time></trkpt><trkpt lat="45.7490748" lon="13.9083838"><ele>359.0</ele><time>2026-03-28T14:33:07.09Z</time></trkpt><trkpt lat="45.7491335" lon="13.9082399"><ele>359.0</ele><time>2026-03-28T14:33:08.087Z</time></trkpt><trkpt lat="45.7491857" lon="13.9080909"><ele>359.0</ele><time>2026-03-28T14:33:09.083Z</time></trkpt><trkpt lat="45.7492411" lon="13.9079313"><ele>359.0</ele><time>2026-03-28T14:33:10.087Z</time></trkpt><trkpt lat="45.7492963" lon="13.9077744"><ele>359.0</ele><time>2026-03-28T14:33:11.08Z</time></trkpt><trkpt lat="45.7493493" lon="13.9076276"><ele>359.0</ele><time>2026-03-28T14:33:12.085Z</time></trkpt><trkpt lat="45.749399" lon="13.9074983"><ele>359.0</ele><time>2026-03-28T14:33:13.084Z</time></trkpt><trkpt lat="45.7494462" lon="13.9073669"><ele>359.0</ele><time>2026-03-28T14:33:14.087Z</time></trkpt><trkpt lat="45.7494983" lon="13.9072443"><ele>359.0</ele><time>2026-03-28T14:33:15.076Z</time></trkpt><trkpt lat="45.7495585" lon="13.9071143"><ele>359.0</ele><time>2026-03-28T14:33:16.09Z</time></trkpt><trkpt lat="45.7496242" lon="13.906988"><ele>359.0</ele><time>2026-03-28T14:33:17.085Z</time></trkpt><trkpt lat="45.7496843" lon="13.9068435"><ele>359.0</ele><time>2026-03-28T14:33:18.084Z</time></trkpt><trkpt lat="45.749732" lon="13.9066865"><ele>359.0</ele><time>2026-03-28T14:33:19.072Z</time></trkpt><trkpt lat="45.7497753" lon="13.9065191"><ele>359.0</ele><time>2026-03-28T14:33:20.074Z</time></trkpt><trkpt lat="45.749831" lon="13.9063734"><ele>359.0</ele><time>2026-03-28T14:33:21.067Z</time></trkpt><trkpt lat="45.7498897" lon="13.9062311"><ele>359.0</ele><time>2026-03-28T14:33:22.094Z</time></trkpt><trkpt lat="45.7499451" lon="13.9060887"><ele>359.0</ele><time>2026-03-28T14:33:23.075Z</time></trkpt><trkpt lat="45.7499956" lon="13.9059497"><ele>359.5</ele><time>2026-03-28T14:33:24.082Z</time></trkpt><trkpt lat="45.750051" lon="13.9058099"><ele>360.0</ele><time>2026-03-28T14:33:25.083Z</time></trkpt><trkpt lat="45.7501134" lon="13.9056632"><ele>360.5</ele><time>2026-03-28T14:33:26.074Z</time></trkpt><trkpt lat="45.7501707" lon="13.9055134"><ele>361.0</ele><time>2026-03-28T14:33:27.081Z</time></trkpt><trkpt lat="45.7502196" lon="13.9053622"><ele>361.0</ele><time>2026-03-28T14:33:28.078Z</time></trkpt><trkpt lat="45.7502649" lon="13.9052218"><ele>361.0</ele><time>2026-03-28T14:33:29.081Z</time></trkpt><trkpt lat="45.7503114" lon="13.9050917"><ele>361.0</ele><time>2026-03-28T14:33:30.076Z</time></trkpt><trkpt lat="45.7503659" lon="13.9049744"><ele>361.0</ele><time>2026-03-28T14:33:31.085Z</time></trkpt><trkpt lat="45.7504303" lon="13.9048739"><ele>361.0</ele><time>2026-03-28T14:33:32.073Z</time></trkpt><trkpt lat="45.7504955" lon="13.9047844"><ele>361.0</ele><time>2026-03-28T14:33:33.077Z</time></trkpt><trkpt lat="45.7505531" lon="13.9046873"><ele>361.0</ele><time>2026-03-28T14:33:34.078Z</time></trkpt><trkpt lat="45.7506072" lon="13.9045915"><ele>361.0</ele><time>2026-03-28T14:33:35.072Z</time></trkpt><trkpt lat="45.7506535" lon="13.9044932"><ele>361.0</ele><time>2026-03-28T14:33:36.079Z</time></trkpt><trkpt lat="45.7506983" lon="13.9043856"><ele>361.0</ele><time>2026-03-28T14:33:37.074Z</time></trkpt><trkpt lat="45.750745" lon="13.9042702"><ele>361.0</ele><time>2026-03-28T14:33:38.074Z</time></trkpt><trkpt lat="45.7507838" lon="13.9041358"><ele>360.4</ele><time>2026-03-28T14:33:39.073Z</time></trkpt><trkpt lat="45.7508028" lon="13.9039913"><ele>359.8</ele><time>2026-03-28T14:33:40.08Z</time></trkpt><trkpt lat="45.7508203" lon="13.9038359"><ele>359.2</ele><time>2026-03-28T14:33:41.075Z</time></trkpt><trkpt lat="45.7508459" lon="13.9036743"><ele>358.59999999999997</ele><time>2026-03-28T14:33:42.08Z</time></trkpt><trkpt lat="45.7508746" lon="13.9035202"><ele>358.0</ele><time>2026-03-28T14:33:43.074Z</time></trkpt><trkpt lat="45.7509085" lon="13.9033596"><ele>357.4</ele><time>2026-03-28T14:33:44.081Z</time></trkpt><trkpt lat="45.7509393" lon="13.9031951"><ele>356.79999999999995</ele><time>2026-03-28T14:33:45.072Z</time></trkpt><trkpt lat="45.7509616" lon="13.9030331"><ele>356.2</ele><time>2026-03-28T14:33:46.073Z</time></trkpt><trkpt lat="45.7509766" lon="13.9028918"><ele>355.6</ele><time>2026-03-28T14:33:47.074Z</time></trkpt><trkpt lat="45.7509756" lon="13.902775"><ele>355.0</ele><time>2026-03-28T14:33:48.085Z</time></trkpt><trkpt lat="45.7509534" lon="13.9026664"><ele>355.3333333333333</ele><time>2026-03-28T14:33:50.065Z</time></trkpt><trkpt lat="45.7509617" lon="13.902524"><ele>355.66666666666663</ele><time>2026-03-28T14:33:54.07Z</time></trkpt><trkpt lat="45.7510029" lon="13.902444"><ele>356.0</ele><time>2026-03-28T14:33:55.081Z</time></trkpt><trkpt lat="45.7510608" lon="13.9023569"><ele>356.3333333333333</ele><time>2026-03-28T14:33:56.07Z</time></trkpt><trkpt lat="45.751116" lon="13.9022616"><ele>356.6666666666667</ele><time>2026-03-28T14:33:57.078Z</time></trkpt><trkpt lat="45.7511624" lon="13.902157"><ele>357.0</ele><time>2026-03-28T14:33:58.075Z</time></trkpt><trkpt lat="45.7512034" lon="13.9020688"><ele>356.0</ele><time>2026-03-28T14:33:59.071Z</time></trkpt><trkpt lat="45.7512441" lon="13.9019819"><ele>355.0</ele><time>2026-03-28T14:34:00.071Z</time></trkpt><trkpt lat="45.7512842" lon="13.9018945"><ele>354.0</ele><time>2026-03-28T14:34:01.077Z</time></trkpt><trkpt lat="45.7513318" lon="13.9018194"><ele>353.0</ele><time>2026-03-28T14:34:02.083Z</time></trkpt><trkpt lat="45.751381" lon="13.901756"><ele>352.0</ele><time>2026-03-28T14:34:03.078Z</time></trkpt><trkpt lat="45.7514253" lon="13.9016832"><ele>351.0</ele><time>2026-03-28T14:34:04.082Z</time></trkpt><trkpt lat="45.7514654" lon="13.9016105"><ele>350.0</ele><time>2026-03-28T14:34:05.071Z</time></trkpt><trkpt lat="45.7515075" lon="13.9015345"><ele>350.0</ele><time>2026-03-28T14:34:06.072Z</time></trkpt><trkpt lat="45.7515443" lon="13.9014482"><ele>350.0</ele><time>2026-03-28T14:34:07.076Z</time></trkpt><trkpt lat="45.7515634" lon="13.901346"><ele>350.0</ele><time>2026-03-28T14:34:08.074Z</time></trkpt><trkpt lat="45.7515636" lon="13.9012321"><ele>350.0</ele><time>2026-03-28T14:34:09.078Z</time></trkpt><trkpt lat="45.7515544" lon="13.9011132"><ele>350.0</ele><time>2026-03-28T14:34:10.07Z</time></trkpt><trkpt lat="45.7515342" lon="13.9009942"><ele>350.0</ele><time>2026-03-28T14:34:11.078Z</time></trkpt><trkpt lat="45.7515054" lon="13.9008762"><ele>349.5</ele><time>2026-03-28T14:34:12.08Z</time></trkpt><trkpt lat="45.7514723" lon="13.9007534"><ele>349.0</ele><time>2026-03-28T14:34:13.074Z</time></trkpt><trkpt lat="45.7514224" lon="13.9006259"><ele>348.5</ele><time>2026-03-28T14:34:14.075Z</time></trkpt><trkpt lat="45.7513681" lon="13.9005092"><ele>348.0</ele><time>2026-03-28T14:34:15.081Z</time></trkpt><trkpt lat="45.7513194" lon="13.9004104"><ele>347.5</ele><time>2026-03-28T14:34:16.073Z</time></trkpt><trkpt lat="45.7512797" lon="13.9003279"><ele>347.0</ele><time>2026-03-28T14:34:17.082Z</time></trkpt><trkpt lat="45.751249" lon="13.9002357"><ele>347.0</ele><time>2026-03-28T14:34:18.079Z</time></trkpt><trkpt lat="45.7512125" lon="13.900134"><ele>347.0</ele><time>2026-03-28T14:34:19.084Z</time></trkpt><trkpt lat="45.7511624" lon="13.9000223"><ele>347.0</ele><time>2026-03-28T14:34:20.079Z</time></trkpt><trkpt lat="45.7511003" lon="13.8999094"><ele>347.0</ele><time>2026-03-28T14:34:21.079Z</time></trkpt><trkpt lat="45.7510336" lon="13.8997961"><ele>347.0</ele><time>2026-03-28T14:34:22.081Z</time></trkpt><trkpt lat="45.7509686" lon="13.899687"><ele>347.0</ele><time>2026-03-28T14:34:23.074Z</time></trkpt><trkpt lat="45.7509111" lon="13.8995835"><ele>347.0</ele><time>2026-03-28T14:34:24.075Z</time></trkpt><trkpt lat="45.7508618" lon="13.8994793"><ele>347.0</ele><time>2026-03-28T14:34:25.073Z</time></trkpt><trkpt lat="45.7508241" lon="13.8993802"><ele>347.0</ele><time>2026-03-28T14:34:26.074Z</time></trkpt><trkpt lat="45.7507888" lon="13.8992821"><ele>347.0</ele><time>2026-03-28T14:34:27.073Z</time></trkpt><trkpt lat="45.7507604" lon="13.8991955"><ele>347.0</ele><time>2026-03-28T14:34:28.084Z</time></trkpt><trkpt lat="45.7507322" lon="13.8991112"><ele>347.0</ele><time>2026-03-28T14:34:30.085Z</time></trkpt><trkpt lat="45.7507516" lon="13.8989925"><ele>347.0</ele><time>2026-03-28T14:34:33.067Z</time></trkpt><trkpt lat="45.7507719" lon="13.8989068"><ele>347.0</ele><time>2026-03-28T14:34:34.108Z</time></trkpt><trkpt lat="45.7508086" lon="13.8987248"><ele>347.0</ele><time>2026-03-28T14:34:36.085Z</time></trkpt><trkpt lat="45.7508222" lon="13.8985988"><ele>347.0</ele><time>2026-03-28T14:34:37.087Z</time></trkpt><trkpt lat="45.750819" lon="13.8984598"><ele>347.20000000000005</ele><time>2026-03-28T14:34:38.076Z</time></trkpt><trkpt lat="45.7508141" lon="13.8983224"><ele>347.4</ele><time>2026-03-28T14:34:39.083Z</time></trkpt><trkpt lat="45.7508235" lon="13.8981882"><ele>347.6</ele><time>2026-03-28T14:34:40.069Z</time></trkpt><trkpt lat="45.7508555" lon="13.8980592"><ele>347.79999999999995</ele><time>2026-03-28T14:34:41.082Z</time></trkpt><trkpt lat="45.7509119" lon="13.8979255"><ele>348.0</ele><time>2026-03-28T14:34:42.081Z</time></trkpt><trkpt lat="45.7509785" lon="13.8977906"><ele>347.0</ele><time>2026-03-28T14:34:43.068Z</time></trkpt><trkpt lat="45.7510466" lon="13.8976545"><ele>346.0</ele><time>2026-03-28T14:34:44.078Z</time></trkpt><trkpt lat="45.751109" lon="13.8975171"><ele>345.0</ele><time>2026-03-28T14:34:45.076Z</time></trkpt><trkpt lat="45.7511605" lon="13.8973849"><ele>344.0</ele><time>2026-03-28T14:34:46.078Z</time></trkpt><trkpt lat="45.7512059" lon="13.8972592"><ele>343.0</ele><time>2026-03-28T14:34:47.082Z</time></trkpt><trkpt lat="45.7512594" lon="13.8971522"><ele>342.66666666666663</ele><time>2026-03-28T14:34:48.084Z</time></trkpt><trkpt lat="45.7513194" lon="13.8970789"><ele>342.3333333333333</ele><time>2026-03-28T14:34:49.075Z</time></trkpt><trkpt lat="45.7514138" lon="13.8970261"><ele>342.0</ele><time>2026-03-28T14:34:51.086Z</time></trkpt><trkpt lat="45.7514602" lon="13.8969546"><ele>341.6666666666667</ele><time>2026-03-28T14:34:55.069Z</time></trkpt><trkpt lat="45.7515212" lon="13.8968931"><ele>341.33333333333337</ele><time>2026-03-28T14:34:59.067Z</time></trkpt><trkpt lat="45.7516325" lon="13.8968943"><ele>341.0</ele><time>2026-03-28T14:35:01.067Z</time></trkpt><trkpt lat="45.751696" lon="13.8968925"><ele>341.0</ele><time>2026-03-28T14:35:02.079Z</time></trkpt><trkpt lat="45.7518037" lon="13.8969005"><ele>341.0</ele><time>2026-03-28T14:35:04.082Z</time></trkpt><trkpt lat="45.7518646" lon="13.8968523"><ele>341.0</ele><time>2026-03-28T14:35:06.079Z</time></trkpt><trkpt lat="45.7518901" lon="13.8967029"><ele>341.0</ele><time>2026-03-28T14:35:08.069Z</time></trkpt><trkpt lat="45.7519089" lon="13.8966164"><ele>341.0</ele><time>2026-03-28T14:35:09.064Z</time></trkpt><trkpt lat="45.7519391" lon="13.8964384"><ele>340.42857142857144</ele><time>2026-03-28T14:35:11.084Z</time></trkpt><trkpt lat="45.7519466" lon="13.8963332"><ele>339.8571428571429</ele><time>2026-03-28T14:35:12.081Z</time></trkpt><trkpt lat="45.7519343" lon="13.8962198"><ele>339.28571428571433</ele><time>2026-03-28T14:35:13.088Z</time></trkpt><trkpt lat="45.7519175" lon="13.8961108"><ele>338.7142857142857</ele><time>2026-03-28T14:35:14.072Z</time></trkpt><trkpt lat="45.7518971" lon="13.8960185"><ele>338.14285714285717</ele><time>2026-03-28T14:35:15.078Z</time></trkpt><trkpt lat="45.7518791" lon="13.8959271"><ele>337.5714285714286</ele><time>2026-03-28T14:35:16.09Z</time></trkpt><trkpt lat="45.7518676" lon="13.8958261"><ele>337.0</ele><time>2026-03-28T14:35:17.084Z</time></trkpt><trkpt lat="45.7518714" lon="13.8957208"><ele>336.3333333333333</ele><time>2026-03-28T14:35:18.089Z</time></trkpt><trkpt lat="45.7518863" lon="13.8955985"><ele>335.66666666666663</ele><time>2026-03-28T14:35:19.082Z</time></trkpt><trkpt lat="45.7519033" lon="13.8954695"><ele>335.0</ele><time>2026-03-28T14:35:20.069Z</time></trkpt><trkpt lat="45.7519316" lon="13.8953627"><ele>334.3333333333333</ele><time>2026-03-28T14:35:21.086Z</time></trkpt><trkpt lat="45.7519678" lon="13.8952672"><ele>333.6666666666667</ele><time>2026-03-28T14:35:22.075Z</time></trkpt><trkpt lat="45.7520166" lon="13.8951884"><ele>333.0</ele><time>2026-03-28T14:35:23.072Z</time></trkpt><trkpt lat="45.7520805" lon="13.8951188"><ele>333.0</ele><time>2026-03-28T14:35:24.069Z</time></trkpt><trkpt lat="45.7521576" lon="13.8950652"><ele>333.0</ele><time>2026-03-28T14:35:25.061Z</time></trkpt><trkpt lat="45.7522387" lon="13.8950077"><ele>333.0</ele><time>2026-03-28T14:35:26.08Z</time></trkpt><trkpt lat="45.752322" lon="13.8949481"><ele>333.0</ele><time>2026-03-28T14:35:27.076Z</time></trkpt><trkpt lat="45.7524105" lon="13.8949154"><ele>333.0</ele><time>2026-03-28T14:35:28.067Z</time></trkpt><trkpt lat="45.7525023" lon="13.8948944"><ele>333.0</ele><time>2026-03-28T14:35:29.067Z</time></trkpt><trkpt lat="45.7525908" lon="13.8948637"><ele>333.0</ele><time>2026-03-28T14:35:30.091Z</time></trkpt><trkpt lat="45.7526768" lon="13.8948211"><ele>333.0</ele><time>2026-03-28T14:35:31.077Z</time></trkpt><trkpt lat="45.7527612" lon="13.8947681"><ele>333.0</ele><time>2026-03-28T14:35:32.078Z</time></trkpt><trkpt lat="45.7528507" lon="13.8947019"><ele>333.0</ele><time>2026-03-28T14:35:33.07Z</time></trkpt><trkpt lat="45.7529407" lon="13.8946383"><ele>333.0</ele><time>2026-03-28T14:35:34.074Z</time></trkpt><trkpt lat="45.7530342" lon="13.8945574"><ele>333.0</ele><time>2026-03-28T14:35:35.064Z</time></trkpt><trkpt lat="45.7531245" lon="13.8944569"><ele>333.0</ele><time>2026-03-28T14:35:36.076Z</time></trkpt><trkpt lat="45.7532071" lon="13.8943474"><ele>333.0</ele><time>2026-03-28T14:35:37.076Z</time></trkpt><trkpt lat="45.7532867" lon="13.8942398"><ele>333.0</ele><time>2026-03-28T14:35:38.08Z</time></trkpt><trkpt lat="45.7533606" lon="13.8941379"><ele>333.0</ele><time>2026-03-28T14:35:39.076Z</time></trkpt><trkpt lat="45.7534322" lon="13.8940409"><ele>333.0</ele><time>2026-03-28T14:35:40.072Z</time></trkpt><trkpt lat="45.7535046" lon="13.8939399"><ele>333.0</ele><time>2026-03-28T14:35:41.072Z</time></trkpt><trkpt lat="45.7535696" lon="13.8938432"><ele>333.0</ele><time>2026-03-28T14:35:42.073Z</time></trkpt><trkpt lat="45.7536413" lon="13.8937474"><ele>333.0</ele><time>2026-03-28T14:35:43.074Z</time></trkpt><trkpt lat="45.7537066" lon="13.8936471"><ele>333.79999999999995</ele><time>2026-03-28T14:35:44.083Z</time></trkpt><trkpt lat="45.7537812" lon="13.8935575"><ele>334.6</ele><time>2026-03-28T14:35:45.079Z</time></trkpt><trkpt lat="45.7538635" lon="13.8934767"><ele>335.4</ele><time>2026-03-28T14:35:46.099Z</time></trkpt><trkpt lat="45.7539419" lon="13.893387"><ele>336.20000000000005</ele><time>2026-03-28T14:35:47.071Z</time></trkpt><trkpt lat="45.7540076" lon="13.8932811"><ele>337.0</ele><time>2026-03-28T14:35:48.094Z</time></trkpt><trkpt lat="45.7540674" lon="13.89316"><ele>337.20000000000005</ele><time>2026-03-28T14:35:49.084Z</time></trkpt><trkpt lat="45.7541298" lon="13.8930374"><ele>337.4</ele><time>2026-03-28T14:35:50.083Z</time></trkpt><trkpt lat="45.7541945" lon="13.8929273"><ele>337.6</ele><time>2026-03-28T14:35:51.071Z</time></trkpt><trkpt lat="45.7542673" lon="13.8928278"><ele>337.79999999999995</ele><time>2026-03-28T14:35:52.089Z</time></trkpt><trkpt lat="45.7543458" lon="13.8927368"><ele>338.0</ele><time>2026-03-28T14:35:53.075Z</time></trkpt><trkpt lat="45.7544314" lon="13.8926591"><ele>338.0</ele><time>2026-03-28T14:35:54.072Z</time></trkpt><trkpt lat="45.7545127" lon="13.8925774"><ele>338.0</ele><time>2026-03-28T14:35:55.078Z</time></trkpt><trkpt lat="45.7545913" lon="13.8924837"><ele>338.0</ele><time>2026-03-28T14:35:56.082Z</time></trkpt><trkpt lat="45.7546637" lon="13.8923836"><ele>338.0</ele><time>2026-03-28T14:35:57.077Z</time></trkpt><trkpt lat="45.7547371" lon="13.892295"><ele>338.0</ele><time>2026-03-28T14:35:58.074Z</time></trkpt><trkpt lat="45.754796" lon="13.892209"><ele>338.0</ele><time>2026-03-28T14:35:59.075Z</time></trkpt><trkpt lat="45.7548351" lon="13.8921014"><ele>338.0</ele><time>2026-03-28T14:36:00.072Z</time></trkpt><trkpt lat="45.7548532" lon="13.891998"><ele>338.0</ele><time>2026-03-28T14:36:01.068Z</time></trkpt><trkpt lat="45.7548535" lon="13.8919023"><ele>338.0</ele><time>2026-03-28T14:36:02.068Z</time></trkpt><trkpt lat="45.7548343" lon="13.8918151"><ele>338.0</ele><time>2026-03-28T14:36:03.076Z</time></trkpt><trkpt lat="45.754812" lon="13.8917019"><ele>338.0</ele><time>2026-03-28T14:36:04.068Z</time></trkpt><trkpt lat="45.7547917" lon="13.891571"><ele>338.0</ele><time>2026-03-28T14:36:05.084Z</time></trkpt><trkpt lat="45.7547776" lon="13.8914304"><ele>338.0</ele><time>2026-03-28T14:36:06.073Z</time></trkpt><trkpt lat="45.7547765" lon="13.891281"><ele>338.0</ele><time>2026-03-28T14:36:07.073Z</time></trkpt><trkpt lat="45.7547837" lon="13.8911299"><ele>338.0</ele><time>2026-03-28T14:36:08.074Z</time></trkpt><trkpt lat="45.7547942" lon="13.8909769"><ele>338.0</ele><time>2026-03-28T14:36:09.069Z</time></trkpt><trkpt lat="45.7548102" lon="13.8908209"><ele>338.0</ele><time>2026-03-28T14:36:10.094Z</time></trkpt><trkpt lat="45.7548246" lon="13.8906769"><ele>338.0</ele><time>2026-03-28T14:36:11.069Z</time></trkpt><trkpt lat="45.7548302" lon="13.8905513"><ele>338.0</ele><time>2026-03-28T14:36:12.069Z</time></trkpt><trkpt lat="45.7548341" lon="13.8904232"><ele>338.0</ele><time>2026-03-28T14:36:13.073Z</time></trkpt><trkpt lat="45.754843" lon="13.8902972"><ele>338.0</ele><time>2026-03-28T14:36:14.077Z</time></trkpt><trkpt lat="45.7548583" lon="13.8901651"><ele>338.33333333333337</ele><time>2026-03-28T14:36:15.071Z</time></trkpt><trkpt lat="45.7548611" lon="13.8900332"><ele>338.6666666666667</ele><time>2026-03-28T14:36:16.082Z</time></trkpt><trkpt lat="45.7548616" lon="13.8898972"><ele>339.0</ele><time>2026-03-28T14:36:17.068Z</time></trkpt><trkpt lat="45.7548637" lon="13.8897834"><ele>339.3333333333333</ele><time>2026-03-28T14:36:18.07Z</time></trkpt><trkpt lat="45.7548868" lon="13.8896901"><ele>339.66666666666663</ele><time>2026-03-28T14:36:19.071Z</time></trkpt><trkpt lat="45.7549277" lon="13.8896212"><ele>340.0</ele><time>2026-03-28T14:36:20.063Z</time></trkpt><trkpt lat="45.7549824" lon="13.8895745"><ele>340.0</ele><time>2026-03-28T14:36:21.073Z</time></trkpt><trkpt lat="45.75505" lon="13.8895345"><ele>340.0</ele><time>2026-03-28T14:36:22.067Z</time></trkpt><trkpt lat="45.7551146" lon="13.8894821"><ele>340.0</ele><time>2026-03-28T14:36:23.079Z</time></trkpt><trkpt lat="45.7551649" lon="13.8894195"><ele>340.0</ele><time>2026-03-28T14:36:24.076Z</time></trkpt><trkpt lat="45.7552094" lon="13.8892575"><ele>340.0</ele><time>2026-03-28T14:36:26.073Z</time></trkpt><trkpt lat="45.755223" lon="13.8891653"><ele>340.0</ele><time>2026-03-28T14:36:27.068Z</time></trkpt><trkpt lat="45.7552199" lon="13.8890585"><ele>341.4</ele><time>2026-03-28T14:36:28.093Z</time></trkpt><trkpt lat="45.7552169" lon="13.8889389"><ele>342.8</ele><time>2026-03-28T14:36:29.063Z</time></trkpt><trkpt lat="45.7552272" lon="13.8888193"><ele>344.20000000000005</ele><time>2026-03-28T14:36:30.076Z</time></trkpt><trkpt lat="45.7552518" lon="13.8886909"><ele>345.6</ele><time>2026-03-28T14:36:31.08Z</time></trkpt><trkpt lat="45.7552785" lon="13.8885593"><ele>347.0</ele><time>2026-03-28T14:36:32.086Z</time></trkpt><trkpt lat="45.7552988" lon="13.8884183"><ele>347.33333333333337</ele><time>2026-03-28T14:36:33.075Z</time></trkpt><trkpt lat="45.755315" lon="13.8882729"><ele>347.6666666666667</ele><time>2026-03-28T14:36:34.077Z</time></trkpt><trkpt lat="45.7553158" lon="13.8881376"><ele>348.0</ele><time>2026-03-28T14:36:35.069Z</time></trkpt><trkpt lat="45.7553105" lon="13.8880072"><ele>348.3333333333333</ele><time>2026-03-28T14:36:36.075Z</time></trkpt><trkpt lat="45.7553011" lon="13.8878946"><ele>348.66666666666663</ele><time>2026-03-28T14:36:37.073Z</time></trkpt><trkpt lat="45.7552915" lon="13.8878002"><ele>349.0</ele><time>2026-03-28T14:36:38.077Z</time></trkpt><trkpt lat="45.755277" lon="13.8876916"><ele>349.4</ele><time>2026-03-28T14:36:39.068Z</time></trkpt><trkpt lat="45.7552781" lon="13.8875611"><ele>349.79999999999995</ele><time>2026-03-28T14:36:40.074Z</time></trkpt><trkpt lat="45.7552861" lon="13.887414"><ele>350.20000000000005</ele><time>2026-03-28T14:36:41.081Z</time></trkpt><trkpt lat="45.7553067" lon="13.8872563"><ele>350.6</ele><time>2026-03-28T14:36:42.07Z</time></trkpt><trkpt lat="45.7553435" lon="13.8870907"><ele>351.0</ele><time>2026-03-28T14:36:43.083Z</time></trkpt><trkpt lat="45.7553917" lon="13.8869474"><ele>351.0</ele><time>2026-03-28T14:36:44.074Z</time></trkpt><trkpt lat="45.7554495" lon="13.8868275"><ele>351.0</ele><time>2026-03-28T14:36:45.071Z</time></trkpt><trkpt lat="45.7554929" lon="13.8866973"><ele>351.0</ele><time>2026-03-28T14:36:46.093Z</time></trkpt><trkpt lat="45.7555023" lon="13.886542"><ele>351.0</ele><time>2026-03-28T14:36:47.079Z</time></trkpt><trkpt lat="45.7554991" lon="13.8863781"><ele>351.0</ele><time>2026-03-28T14:36:48.087Z</time></trkpt><trkpt lat="45.7554911" lon="13.8862167"><ele>351.20000000000005</ele><time>2026-03-28T14:36:49.085Z</time></trkpt><trkpt lat="45.7554917" lon="13.8860622"><ele>351.40000000000003</ele><time>2026-03-28T14:36:50.088Z</time></trkpt><trkpt lat="45.755497" lon="13.8859273"><ele>351.6</ele><time>2026-03-28T14:36:51.086Z</time></trkpt><trkpt lat="45.7555034" lon="13.8857962"><ele>351.8</ele><time>2026-03-28T14:36:52.095Z</time></trkpt><trkpt lat="45.7554887" lon="13.8856652"><ele>352.0</ele><time>2026-03-28T14:36:53.086Z</time></trkpt><trkpt lat="45.7554528" lon="13.8855256"><ele>352.20000000000005</ele><time>2026-03-28T14:36:54.085Z</time></trkpt><trkpt lat="45.7554151" lon="13.8854028"><ele>352.4</ele><time>2026-03-28T14:36:55.072Z</time></trkpt><trkpt lat="45.7553896" lon="13.8852746"><ele>352.6</ele><time>2026-03-28T14:36:56.078Z</time></trkpt><trkpt lat="45.7553676" lon="13.8851291"><ele>352.79999999999995</ele><time>2026-03-28T14:36:57.069Z</time></trkpt><trkpt lat="45.7553421" lon="13.8849786"><ele>353.0</ele><time>2026-03-28T14:36:58.068Z</time></trkpt><trkpt lat="45.7552959" lon="13.8848419"><ele>353.0</ele><time>2026-03-28T14:36:59.086Z</time></trkpt><trkpt lat="45.755236" lon="13.8847129"><ele>353.0</ele><time>2026-03-28T14:37:00.073Z</time></trkpt><trkpt lat="45.7551678" lon="13.8845746"><ele>353.0</ele><time>2026-03-28T14:37:01.091Z</time></trkpt><trkpt lat="45.7551101" lon="13.8844157"><ele>353.0</ele><time>2026-03-28T14:37:02.069Z</time></trkpt><trkpt lat="45.7550579" lon="13.8842471"><ele>352.25</ele><time>2026-03-28T14:37:03.069Z</time></trkpt><trkpt lat="45.7550024" lon="13.8840675"><ele>351.5</ele><time>2026-03-28T14:37:04.072Z</time></trkpt><trkpt lat="45.7549356" lon="13.8838987"><ele>350.75</ele><time>2026-03-28T14:37:05.081Z</time></trkpt><trkpt lat="45.7548724" lon="13.8837412"><ele>350.0</ele><time>2026-03-28T14:37:06.076Z</time></trkpt><trkpt lat="45.7548185" lon="13.8835844"><ele>348.75</ele><time>2026-03-28T14:37:07.087Z</time></trkpt><trkpt lat="45.7547956" lon="13.8834219"><ele>347.5</ele><time>2026-03-28T14:37:08.065Z</time></trkpt><trkpt lat="45.7548055" lon="13.8832582"><ele>346.25</ele><time>2026-03-28T14:37:09.081Z</time></trkpt><trkpt lat="45.7548242" lon="13.8830963"><ele>345.0</ele><time>2026-03-28T14:37:10.068Z</time></trkpt><trkpt lat="45.7548236" lon="13.8829284"><ele>345.0</ele><time>2026-03-28T14:37:11.086Z</time></trkpt><trkpt lat="45.7547993" lon="13.8827432"><ele>345.0</ele><time>2026-03-28T14:37:12.071Z</time></trkpt><trkpt lat="45.7547586" lon="13.8825726"><ele>345.0</ele><time>2026-03-28T14:37:13.074Z</time></trkpt><trkpt lat="45.7546968" lon="13.8824172"><ele>345.0</ele><time>2026-03-28T14:37:14.071Z</time></trkpt><trkpt lat="45.7546348" lon="13.8822639"><ele>343.75</ele><time>2026-03-28T14:37:15.068Z</time></trkpt><trkpt lat="45.7546054" lon="13.8820864"><ele>342.5</ele><time>2026-03-28T14:37:16.085Z</time></trkpt><trkpt lat="45.7546158" lon="13.8818999"><ele>341.25</ele><time>2026-03-28T14:37:17.071Z</time></trkpt><trkpt lat="45.7546288" lon="13.8817148"><ele>340.0</ele><time>2026-03-28T14:37:18.07Z</time></trkpt><trkpt lat="45.7546334" lon="13.8815457"><ele>340.0</ele><time>2026-03-28T14:37:19.071Z</time></trkpt><trkpt lat="45.7546324" lon="13.8813788"><ele>340.0</ele><time>2026-03-28T14:37:20.081Z</time></trkpt><trkpt lat="45.7546484" lon="13.881208"><ele>340.0</ele><time>2026-03-28T14:37:21.071Z</time></trkpt><trkpt lat="45.7547104" lon="13.8810438"><ele>340.0</ele><time>2026-03-28T14:37:22.077Z</time></trkpt><trkpt lat="45.7547963" lon="13.8808968"><ele>340.25</ele><time>2026-03-28T14:37:23.08Z</time></trkpt><trkpt lat="45.7548757" lon="13.8807368"><ele>340.5</ele><time>2026-03-28T14:37:24.088Z</time></trkpt><trkpt lat="45.7549325" lon="13.8805577"><ele>340.75</ele><time>2026-03-28T14:37:25.092Z</time></trkpt><trkpt lat="45.7549664" lon="13.8803674"><ele>341.0</ele><time>2026-03-28T14:37:26.075Z</time></trkpt><trkpt lat="45.75499" lon="13.8801805"><ele>341.0</ele><time>2026-03-28T14:37:27.09Z</time></trkpt><trkpt lat="45.7550133" lon="13.8800123"><ele>341.0</ele><time>2026-03-28T14:37:28.08Z</time></trkpt><trkpt lat="45.7550424" lon="13.8798504"><ele>341.0</ele><time>2026-03-28T14:37:29.088Z</time></trkpt><trkpt lat="45.7550631" lon="13.8796711"><ele>341.0</ele><time>2026-03-28T14:37:30.079Z</time></trkpt><trkpt lat="45.7550641" lon="13.8794867"><ele>341.0</ele><time>2026-03-28T14:37:31.085Z</time></trkpt><trkpt lat="45.7550616" lon="13.8793057"><ele>341.0</ele><time>2026-03-28T14:37:32.105Z</time></trkpt><trkpt lat="45.7550626" lon="13.879134"><ele>341.0</ele><time>2026-03-28T14:37:33.087Z</time></trkpt><trkpt lat="45.7550716" lon="13.8789496"><ele>341.0</ele><time>2026-03-28T14:37:34.087Z</time></trkpt><trkpt lat="45.7551141" lon="13.8787604"><ele>340.0</ele><time>2026-03-28T14:37:35.067Z</time></trkpt><trkpt lat="45.7551818" lon="13.8785694"><ele>339.0</ele><time>2026-03-28T14:37:36.084Z</time></trkpt><trkpt lat="45.7552516" lon="13.8783882"><ele>338.0</ele><time>2026-03-28T14:37:37.082Z</time></trkpt><trkpt lat="45.7553154" lon="13.8782094"><ele>337.0</ele><time>2026-03-28T14:37:38.07Z</time></trkpt><trkpt lat="45.7553626" lon="13.8780251"><ele>337.0</ele><time>2026-03-28T14:37:39.077Z</time></trkpt><trkpt lat="45.7554034" lon="13.8778564"><ele>337.0</ele><time>2026-03-28T14:37:40.084Z</time></trkpt><trkpt lat="45.7554372" lon="13.8777064"><ele>337.0</ele><time>2026-03-28T14:37:41.065Z</time></trkpt><trkpt lat="45.7554619" lon="13.877608"><ele>337.0</ele><time>2026-03-28T14:37:42.071Z</time></trkpt><trkpt lat="45.7554783" lon="13.8775137"><ele>337.0</ele><time>2026-03-28T14:37:45.082Z</time></trkpt><trkpt lat="45.7554518" lon="13.877406"><ele>337.40000000000003</ele><time>2026-03-28T14:37:47.072Z</time></trkpt><trkpt lat="45.7554257" lon="13.8773147"><ele>337.8</ele><time>2026-03-28T14:37:48.067Z</time></trkpt><trkpt lat="45.7554241" lon="13.8771884"><ele>338.2</ele><time>2026-03-28T14:37:49.072Z</time></trkpt><trkpt lat="45.7554277" lon="13.8770541"><ele>338.6</ele><time>2026-03-28T14:37:50.074Z</time></trkpt><trkpt lat="45.7554261" lon="13.8768973"><ele>339.0</ele><time>2026-03-28T14:37:51.077Z</time></trkpt><trkpt lat="45.7554189" lon="13.8767372"><ele>339.0</ele><time>2026-03-28T14:37:52.09Z</time></trkpt><trkpt lat="45.7554303" lon="13.8765719"><ele>339.0</ele><time>2026-03-28T14:37:53.075Z</time></trkpt><trkpt lat="45.7554557" lon="13.8764047"><ele>339.0</ele><time>2026-03-28T14:37:54.082Z</time></trkpt><trkpt lat="45.755476" lon="13.8762439"><ele>339.0</ele><time>2026-03-28T14:37:55.071Z</time></trkpt><trkpt lat="45.7554982" lon="13.8760973"><ele>339.0</ele><time>2026-03-28T14:37:56.074Z</time></trkpt><trkpt lat="45.7555352" lon="13.8759826"><ele>339.0</ele><time>2026-03-28T14:37:57.067Z</time></trkpt><trkpt lat="45.7555976" lon="13.8758851"><ele>339.0</ele><time>2026-03-28T14:37:58.062Z</time></trkpt><trkpt lat="45.7556683" lon="13.8757918"><ele>339.0</ele><time>2026-03-28T14:37:59.068Z</time></trkpt><trkpt lat="45.7557319" lon="13.875684"><ele>339.0</ele><time>2026-03-28T14:38:00.069Z</time></trkpt><trkpt lat="45.7557924" lon="13.8755821"><ele>338.4</ele><time>2026-03-28T14:38:01.069Z</time></trkpt><trkpt lat="45.7558653" lon="13.8754845"><ele>337.79999999999995</ele><time>2026-03-28T14:38:02.085Z</time></trkpt><trkpt lat="45.7559436" lon="13.8753852"><ele>337.20000000000005</ele><time>2026-03-28T14:38:03.081Z</time></trkpt><trkpt lat="45.7560321" lon="13.8752961"><ele>336.6</ele><time>2026-03-28T14:38:04.091Z</time></trkpt><trkpt lat="45.7561343" lon="13.875227"><ele>336.0</ele><time>2026-03-28T14:38:05.066Z</time></trkpt><trkpt lat="45.756238" lon="13.8751757"><ele>336.0</ele><time>2026-03-28T14:38:06.077Z</time></trkpt><trkpt lat="45.7563368" lon="13.8751092"><ele>336.0</ele><time>2026-03-28T14:38:07.077Z</time></trkpt><trkpt lat="45.7564417" lon="13.8750226"><ele>336.0</ele><time>2026-03-28T14:38:08.077Z</time></trkpt><trkpt lat="45.7565418" lon="13.8749527"><ele>336.0</ele><time>2026-03-28T14:38:09.089Z</time></trkpt><trkpt lat="45.7566399" lon="13.8748996"><ele>336.0</ele><time>2026-03-28T14:38:10.071Z</time></trkpt><trkpt lat="45.7567319" lon="13.8748691"><ele>336.0</ele><time>2026-03-28T14:38:11.074Z</time></trkpt><trkpt lat="45.7568141" lon="13.8748488"><ele>336.0</ele><time>2026-03-28T14:38:12.088Z</time></trkpt><trkpt lat="45.7568881" lon="13.8748091"><ele>336.0</ele><time>2026-03-28T14:38:13.066Z</time></trkpt><trkpt lat="45.7569574" lon="13.8747512"><ele>336.0</ele><time>2026-03-28T14:38:14.083Z</time></trkpt><trkpt lat="45.7570139" lon="13.8746999"><ele>336.0</ele><time>2026-03-28T14:38:15.064Z</time></trkpt><trkpt lat="45.7570631" lon="13.8746367"><ele>336.0</ele><time>2026-03-28T14:38:16.07Z</time></trkpt><trkpt lat="45.7571005" lon="13.8745515"><ele>336.0</ele><time>2026-03-28T14:38:17.066Z</time></trkpt><trkpt lat="45.7571349" lon="13.8744554"><ele>335.8333333333333</ele><time>2026-03-28T14:38:18.066Z</time></trkpt><trkpt lat="45.75718" lon="13.8743582"><ele>335.6666666666667</ele><time>2026-03-28T14:38:19.084Z</time></trkpt><trkpt lat="45.7572191" lon="13.8742682"><ele>335.5</ele><time>2026-03-28T14:38:20.076Z</time></trkpt><trkpt lat="45.7572593" lon="13.8741783"><ele>335.33333333333337</ele><time>2026-03-28T14:38:21.081Z</time></trkpt><trkpt lat="45.757284" lon="13.874094"><ele>335.1666666666667</ele><time>2026-03-28T14:38:22.076Z</time></trkpt><trkpt lat="45.7573073" lon="13.8740021"><ele>335.0</ele><time>2026-03-28T14:38:23.068Z</time></trkpt><trkpt lat="45.7573996" lon="13.87391"><ele>335.0</ele><time>2026-03-28T14:38:25.074Z</time></trkpt><trkpt lat="45.7574736" lon="13.8738932"><ele>335.0</ele><time>2026-03-28T14:38:26.069Z</time></trkpt><trkpt lat="45.7575566" lon="13.8738773"><ele>335.0</ele><time>2026-03-28T14:38:27.069Z</time></trkpt><trkpt lat="45.7576503" lon="13.8738469"><ele>335.0</ele><time>2026-03-28T14:38:28.085Z</time></trkpt><trkpt lat="45.7577342" lon="13.8737934"><ele>335.0</ele><time>2026-03-28T14:38:29.079Z</time></trkpt><trkpt lat="45.7578004" lon="13.8737139"><ele>335.0</ele><time>2026-03-28T14:38:30.089Z</time></trkpt><trkpt lat="45.7578587" lon="13.8736214"><ele>334.83333333333337</ele><time>2026-03-28T14:38:31.081Z</time></trkpt><trkpt lat="45.7579104" lon="13.8735283"><ele>334.6666666666667</ele><time>2026-03-28T14:38:32.064Z</time></trkpt><trkpt lat="45.7579657" lon="13.8734483"><ele>334.5</ele><time>2026-03-28T14:38:33.07Z</time></trkpt><trkpt lat="45.7580184" lon="13.8733845"><ele>334.3333333333333</ele><time>2026-03-28T14:38:34.085Z</time></trkpt><trkpt lat="45.7581419" lon="13.8733343"><ele>334.16666666666663</ele><time>2026-03-28T14:38:36.143Z</time></trkpt><trkpt lat="45.7582224" lon="13.8733385"><ele>334.0</ele><time>2026-03-28T14:38:37.074Z</time></trkpt><trkpt lat="45.7582928" lon="13.8733411"><ele>334.5</ele><time>2026-03-28T14:38:38.074Z</time></trkpt><trkpt lat="45.7583918" lon="13.8732351"><ele>335.0</ele><time>2026-03-28T14:38:40.075Z</time></trkpt><trkpt lat="45.7584273" lon="13.8731407"><ele>335.5</ele><time>2026-03-28T14:38:41.077Z</time></trkpt><trkpt lat="45.7584782" lon="13.8730531"><ele>336.0</ele><time>2026-03-28T14:38:42.071Z</time></trkpt><trkpt lat="45.7585373" lon="13.8729609"><ele>336.5</ele><time>2026-03-28T14:38:43.073Z</time></trkpt><trkpt lat="45.7585944" lon="13.8728734"><ele>337.0</ele><time>2026-03-28T14:38:44.069Z</time></trkpt><trkpt lat="45.7586494" lon="13.8727991"><ele>337.0</ele><time>2026-03-28T14:38:45.081Z</time></trkpt><trkpt lat="45.7587615" lon="13.872738"><ele>337.0</ele><time>2026-03-28T14:38:47.067Z</time></trkpt><trkpt lat="45.7588344" lon="13.8727357"><ele>337.0</ele><time>2026-03-28T14:38:48.072Z</time></trkpt><trkpt lat="45.7589232" lon="13.8727335"><ele>337.0</ele><time>2026-03-28T14:38:49.079Z</time></trkpt><trkpt lat="45.7590086" lon="13.8727118"><ele>337.0</ele><time>2026-03-28T14:38:50.089Z</time></trkpt><trkpt lat="45.7590893" lon="13.8726634"><ele>337.3333333333333</ele><time>2026-03-28T14:38:51.089Z</time></trkpt><trkpt lat="45.7591739" lon="13.8726044"><ele>337.66666666666663</ele><time>2026-03-28T14:38:52.075Z</time></trkpt><trkpt lat="45.7592522" lon="13.8725399"><ele>338.0</ele><time>2026-03-28T14:38:53.09Z</time></trkpt><trkpt lat="45.7593185" lon="13.8724692"><ele>338.3333333333333</ele><time>2026-03-28T14:38:54.073Z</time></trkpt><trkpt lat="45.7593836" lon="13.8723935"><ele>338.6666666666667</ele><time>2026-03-28T14:38:55.075Z</time></trkpt><trkpt lat="45.7594592" lon="13.8723226"><ele>339.0</ele><time>2026-03-28T14:38:56.083Z</time></trkpt><trkpt lat="45.7595417" lon="13.8722759"><ele>339.0</ele><time>2026-03-28T14:38:57.075Z</time></trkpt><trkpt lat="45.7596282" lon="13.8722372"><ele>339.0</ele><time>2026-03-28T14:38:58.091Z</time></trkpt><trkpt lat="45.7597013" lon="13.8721994"><ele>339.0</ele><time>2026-03-28T14:38:59.068Z</time></trkpt><trkpt lat="45.7597979" lon="13.8720948"><ele>339.0</ele><time>2026-03-28T14:39:01.08Z</time></trkpt><trkpt lat="45.7598414" lon="13.8720089"><ele>339.0</ele><time>2026-03-28T14:39:02.068Z</time></trkpt><trkpt lat="45.7598985" lon="13.8719333"><ele>339.0</ele><time>2026-03-28T14:39:03.072Z</time></trkpt><trkpt lat="45.759953" lon="13.8718622"><ele>339.0</ele><time>2026-03-28T14:39:04.074Z</time></trkpt><trkpt lat="45.7600288" lon="13.8718177"><ele>339.0</ele><time>2026-03-28T14:39:06.082Z</time></trkpt><trkpt lat="45.7600943" lon="13.8718862"><ele>339.0</ele><time>2026-03-28T14:39:08.071Z</time></trkpt><trkpt lat="45.7601781" lon="13.871943"><ele>339.0</ele><time>2026-03-28T14:39:10.097Z</time></trkpt><trkpt lat="45.7602535" lon="13.871855"><ele>339.0</ele><time>2026-03-28T14:39:12.073Z</time></trkpt><trkpt lat="45.7603534" lon="13.8717279"><ele>337.5</ele><time>2026-03-28T14:39:14.082Z</time></trkpt><trkpt lat="45.7604178" lon="13.8716625"><ele>336.0</ele><time>2026-03-28T14:39:15.086Z</time></trkpt><trkpt lat="45.7604896" lon="13.871607"><ele>334.5</ele><time>2026-03-28T14:39:16.087Z</time></trkpt><trkpt lat="45.7605627" lon="13.8715473"><ele>333.0</ele><time>2026-03-28T14:39:17.074Z</time></trkpt><trkpt lat="45.7606372" lon="13.871494"><ele>331.5</ele><time>2026-03-28T14:39:18.11Z</time></trkpt><trkpt lat="45.7607109" lon="13.8714612"><ele>330.0</ele><time>2026-03-28T14:39:19.077Z</time></trkpt><trkpt lat="45.7607794" lon="13.8714235"><ele>330.0</ele><time>2026-03-28T14:39:20.076Z</time></trkpt><trkpt lat="45.7608392" lon="13.8713937"><ele>330.0</ele><time>2026-03-28T14:39:21.071Z</time></trkpt><trkpt lat="45.7609532" lon="13.8713173"><ele>330.0</ele><time>2026-03-28T14:39:23.074Z</time></trkpt><trkpt lat="45.7610112" lon="13.8712692"><ele>330.0</ele><time>2026-03-28T14:39:24.084Z</time></trkpt><trkpt lat="45.7610724" lon="13.871208"><ele>330.0</ele><time>2026-03-28T14:39:25.083Z</time></trkpt><trkpt lat="45.761129" lon="13.8711293"><ele>330.0</ele><time>2026-03-28T14:39:26.089Z</time></trkpt><trkpt lat="45.761183" lon="13.8710422"><ele>327.8</ele><time>2026-03-28T14:39:27.092Z</time></trkpt><trkpt lat="45.7612506" lon="13.8709632"><ele>325.6</ele><time>2026-03-28T14:39:28.089Z</time></trkpt><trkpt lat="45.7613293" lon="13.8708932"><ele>323.4</ele><time>2026-03-28T14:39:29.091Z</time></trkpt><trkpt lat="45.7614149" lon="13.8708262"><ele>321.2</ele><time>2026-03-28T14:39:30.075Z</time></trkpt><trkpt lat="45.7615005" lon="13.8707622"><ele>319.0</ele><time>2026-03-28T14:39:31.082Z</time></trkpt><trkpt lat="45.7615875" lon="13.8706837"><ele>319.0</ele><time>2026-03-28T14:39:32.086Z</time></trkpt><trkpt lat="45.7616791" lon="13.870606"><ele>319.0</ele><time>2026-03-28T14:39:33.078Z</time></trkpt><trkpt lat="45.7617685" lon="13.8705349"><ele>319.0</ele><time>2026-03-28T14:39:34.091Z</time></trkpt><trkpt lat="45.7618546" lon="13.8704652"><ele>319.0</ele><time>2026-03-28T14:39:35.07Z</time></trkpt><trkpt lat="45.7619389" lon="13.8704006"><ele>319.0</ele><time>2026-03-28T14:39:36.084Z</time></trkpt><trkpt lat="45.7620203" lon="13.8703396"><ele>317.5</ele><time>2026-03-28T14:39:37.078Z</time></trkpt><trkpt lat="45.7621028" lon="13.8702797"><ele>316.0</ele><time>2026-03-28T14:39:38.077Z</time></trkpt><trkpt lat="45.7621647" lon="13.8702261"><ele>314.5</ele><time>2026-03-28T14:39:39.075Z</time></trkpt><trkpt lat="45.762269" lon="13.8701657"><ele>313.0</ele><time>2026-03-28T14:39:41.071Z</time></trkpt><trkpt lat="45.7623379" lon="13.8701373"><ele>311.5</ele><time>2026-03-28T14:39:42.087Z</time></trkpt><trkpt lat="45.7624083" lon="13.8700989"><ele>310.0</ele><time>2026-03-28T14:39:43.085Z</time></trkpt><trkpt lat="45.7624776" lon="13.8700487"><ele>310.0</ele><time>2026-03-28T14:39:44.092Z</time></trkpt><trkpt lat="45.7625492" lon="13.8699832"><ele>310.0</ele><time>2026-03-28T14:39:45.074Z</time></trkpt><trkpt lat="45.7626278" lon="13.8698902"><ele>310.0</ele><time>2026-03-28T14:39:46.071Z</time></trkpt><trkpt lat="45.7627117" lon="13.8697944"><ele>310.0</ele><time>2026-03-28T14:39:47.078Z</time></trkpt><trkpt lat="45.7627966" lon="13.8697062"><ele>310.0</ele><time>2026-03-28T14:39:48.083Z</time></trkpt><trkpt lat="45.7628904" lon="13.8696324"><ele>308.8</ele><time>2026-03-28T14:39:49.093Z</time></trkpt><trkpt lat="45.762979" lon="13.8695744"><ele>307.6</ele><time>2026-03-28T14:39:50.086Z</time></trkpt><trkpt lat="45.7630586" lon="13.8694912"><ele>306.4</ele><time>2026-03-28T14:39:51.084Z</time></trkpt><trkpt lat="45.7631311" lon="13.8693841"><ele>305.2</ele><time>2026-03-28T14:39:52.087Z</time></trkpt><trkpt lat="45.7631921" lon="13.8692691"><ele>304.0</ele><time>2026-03-28T14:39:53.083Z</time></trkpt><trkpt lat="45.7632546" lon="13.8691655"><ele>303.2</ele><time>2026-03-28T14:39:54.082Z</time></trkpt><trkpt lat="45.7633151" lon="13.8690692"><ele>302.4</ele><time>2026-03-28T14:39:55.086Z</time></trkpt><trkpt lat="45.7633646" lon="13.868948"><ele>301.6</ele><time>2026-03-28T14:39:56.087Z</time></trkpt><trkpt lat="45.7633846" lon="13.8688153"><ele>300.8</ele><time>2026-03-28T14:39:57.102Z</time></trkpt><trkpt lat="45.7633921" lon="13.8686929"><ele>300.0</ele><time>2026-03-28T14:39:58.076Z</time></trkpt><trkpt lat="45.7634124" lon="13.868578"><ele>299.99999999999994</ele><time>2026-03-28T14:39:59.089Z</time></trkpt><trkpt lat="45.7634337" lon="13.8684688"><ele>300.0</ele><time>2026-03-28T14:40:00.097Z</time></trkpt><trkpt lat="45.763445" lon="13.8683591"><ele>300.0</ele><time>2026-03-28T14:40:01.092Z</time></trkpt><trkpt lat="45.7634441" lon="13.8682624"><ele>300.0</ele><time>2026-03-28T14:40:02.091Z</time></trkpt><trkpt lat="45.7634372" lon="13.8681669"><ele>300.0</ele><time>2026-03-28T14:40:03.098Z</time></trkpt><trkpt lat="45.7634294" lon="13.8680606"><ele>299.99999999999994</ele><time>2026-03-28T14:40:04.09Z</time></trkpt><trkpt lat="45.763435" lon="13.8679441"><ele>300.0</ele><time>2026-03-28T14:40:05.089Z</time></trkpt><trkpt lat="45.7634584" lon="13.8678308"><ele>300.0</ele><time>2026-03-28T14:40:06.089Z</time></trkpt><trkpt lat="45.7634963" lon="13.8677144"><ele>300.0</ele><time>2026-03-28T14:40:07.089Z</time></trkpt><trkpt lat="45.7635352" lon="13.8676067"><ele>300.0</ele><time>2026-03-28T14:40:08.091Z</time></trkpt><trkpt lat="45.7635891" lon="13.8675114"><ele>300.0</ele><time>2026-03-28T14:40:09.092Z</time></trkpt><trkpt lat="45.7636671" lon="13.8674323"><ele>300.0</ele><time>2026-03-28T14:40:10.081Z</time></trkpt><trkpt lat="45.7637529" lon="13.8673625"><ele>300.0</ele><time>2026-03-28T14:40:11.07Z</time></trkpt><trkpt lat="45.7638366" lon="13.8672997"><ele>300.0</ele><time>2026-03-28T14:40:12.081Z</time></trkpt><trkpt lat="45.7639154" lon="13.8672369"><ele>300.0</ele><time>2026-03-28T14:40:13.084Z</time></trkpt><trkpt lat="45.7639886" lon="13.8671792"><ele>300.0</ele><time>2026-03-28T14:40:14.075Z</time></trkpt><trkpt lat="45.7640528" lon="13.867133"><ele>300.0</ele><time>2026-03-28T14:40:15.092Z</time></trkpt><trkpt lat="45.7641271" lon="13.8671002"><ele>300.0</ele><time>2026-03-28T14:40:16.081Z</time></trkpt><trkpt lat="45.7642156" lon="13.8671066"><ele>300.0</ele><time>2026-03-28T14:40:17.084Z</time></trkpt><trkpt lat="45.7643126" lon="13.8671451"><ele>300.0</ele><time>2026-03-28T14:40:18.073Z</time></trkpt><trkpt lat="45.7644142" lon="13.867194"><ele>300.0</ele><time>2026-03-28T14:40:19.07Z</time></trkpt><trkpt lat="45.7645134" lon="13.8672447"><ele>300.0</ele><time>2026-03-28T14:40:20.076Z</time></trkpt><trkpt lat="45.7646081" lon="13.8672792"><ele>300.0</ele><time>2026-03-28T14:40:21.083Z</time></trkpt><trkpt lat="45.764691" lon="13.8672976"><ele>300.0</ele><time>2026-03-28T14:40:22.083Z</time></trkpt><trkpt lat="45.7647648" lon="13.8673186"><ele>300.0</ele><time>2026-03-28T14:40:23.103Z</time></trkpt><trkpt lat="45.7648648" lon="13.8672702"><ele>300.0</ele><time>2026-03-28T14:40:25.074Z</time></trkpt><trkpt lat="45.7648575" lon="13.8671348"><ele>300.0</ele><time>2026-03-28T14:40:27.066Z</time></trkpt><trkpt lat="45.7648931" lon="13.8670137"><ele>300.0</ele><time>2026-03-28T14:40:29.071Z</time></trkpt><trkpt lat="45.7649845" lon="13.8668997"><ele>300.0</ele><time>2026-03-28T14:40:31.071Z</time></trkpt><trkpt lat="45.7650384" lon="13.8668145"><ele>300.0</ele><time>2026-03-28T14:40:32.071Z</time></trkpt><trkpt lat="45.7650836" lon="13.8667254"><ele>300.0</ele><time>2026-03-28T14:40:33.075Z</time></trkpt><trkpt lat="45.7651171" lon="13.866642"><ele>300.0</ele><time>2026-03-28T14:40:34.092Z</time></trkpt><trkpt lat="45.7652293" lon="13.8665757"><ele>300.0</ele><time>2026-03-28T14:40:36.082Z</time></trkpt><trkpt lat="45.7653043" lon="13.8665701"><ele>300.0</ele><time>2026-03-28T14:40:37.071Z</time></trkpt><trkpt lat="45.7653711" lon="13.8665416"><ele>299.6666666666667</ele><time>2026-03-28T14:40:38.065Z</time></trkpt><trkpt lat="45.7654268" lon="13.8664765"><ele>299.3333333333333</ele><time>2026-03-28T14:40:39.073Z</time></trkpt><trkpt lat="45.7654783" lon="13.8663675"><ele>299.0</ele><time>2026-03-28T14:40:40.076Z</time></trkpt><trkpt lat="45.7655185" lon="13.8662491"><ele>298.66666666666663</ele><time>2026-03-28T14:40:41.071Z</time></trkpt><trkpt lat="45.765552" lon="13.866141"><ele>298.3333333333333</ele><time>2026-03-28T14:40:42.069Z</time></trkpt><trkpt lat="45.7655885" lon="13.8660602"><ele>298.0</ele><time>2026-03-28T14:40:43.083Z</time></trkpt><trkpt lat="45.7657178" lon="13.8659831"><ele>298.0</ele><time>2026-03-28T14:40:45.065Z</time></trkpt><trkpt lat="45.7658176" lon="13.8659614"><ele>298.0</ele><time>2026-03-28T14:40:46.079Z</time></trkpt><trkpt lat="45.7659406" lon="13.8659366"><ele>298.0</ele><time>2026-03-28T14:40:47.071Z</time></trkpt><trkpt lat="45.7660856" lon="13.8659017"><ele>298.0</ele><time>2026-03-28T14:40:48.067Z</time></trkpt><trkpt lat="45.7662349" lon="13.8658844"><ele>297.5</ele><time>2026-03-28T14:40:49.08Z</time></trkpt><trkpt lat="45.7663796" lon="13.8658782"><ele>297.0</ele><time>2026-03-28T14:40:50.07Z</time></trkpt><trkpt lat="45.7665064" lon="13.8658612"><ele>296.5</ele><time>2026-03-28T14:40:51.077Z</time></trkpt><trkpt lat="45.7666171" lon="13.8658324"><ele>296.0</ele><time>2026-03-28T14:40:52.088Z</time></trkpt><trkpt lat="45.7667143" lon="13.8657961"><ele>296.0</ele><time>2026-03-28T14:40:53.072Z</time></trkpt><trkpt lat="45.7668084" lon="13.8657527"><ele>296.0</ele><time>2026-03-28T14:40:54.085Z</time></trkpt><trkpt lat="45.766892" lon="13.8657121"><ele>296.0</ele><time>2026-03-28T14:40:55.076Z</time></trkpt><trkpt lat="45.7669726" lon="13.8656819"><ele>296.0</ele><time>2026-03-28T14:40:56.076Z</time></trkpt><trkpt lat="45.7670566" lon="13.8656699"><ele>296.0</ele><time>2026-03-28T14:40:57.066Z</time></trkpt><trkpt lat="45.767146" lon="13.8656835"><ele>296.0</ele><time>2026-03-28T14:40:58.075Z</time></trkpt><trkpt lat="45.7672365" lon="13.8656929"><ele>296.8</ele><time>2026-03-28T14:40:59.063Z</time></trkpt><trkpt lat="45.7673341" lon="13.8656889"><ele>297.6</ele><time>2026-03-28T14:41:00.071Z</time></trkpt><trkpt lat="45.7674301" lon="13.8656843"><ele>298.4</ele><time>2026-03-28T14:41:01.065Z</time></trkpt><trkpt lat="45.7675185" lon="13.8656738"><ele>299.2</ele><time>2026-03-28T14:41:02.062Z</time></trkpt><trkpt lat="45.7676017" lon="13.8656414"><ele>300.0</ele><time>2026-03-28T14:41:03.068Z</time></trkpt><trkpt lat="45.7676817" lon="13.865591"><ele>302.4</ele><time>2026-03-28T14:41:04.071Z</time></trkpt><trkpt lat="45.7677702" lon="13.8655388"><ele>304.8</ele><time>2026-03-28T14:41:05.079Z</time></trkpt><trkpt lat="45.7678565" lon="13.8654861"><ele>307.2</ele><time>2026-03-28T14:41:06.084Z</time></trkpt><trkpt lat="45.7679371" lon="13.8654218"><ele>309.6</ele><time>2026-03-28T14:41:07.066Z</time></trkpt><trkpt lat="45.7680112" lon="13.86533"><ele>312.0</ele><time>2026-03-28T14:41:08.071Z</time></trkpt><trkpt lat="45.7680847" lon="13.8652376"><ele>312.0</ele><time>2026-03-28T14:41:09.073Z</time></trkpt><trkpt lat="45.7681636" lon="13.8651537"><ele>312.0</ele><time>2026-03-28T14:41:10.069Z</time></trkpt><trkpt lat="45.7682529" lon="13.8650734"><ele>312.0</ele><time>2026-03-28T14:41:11.074Z</time></trkpt><trkpt lat="45.7683547" lon="13.8650216"><ele>312.0</ele><time>2026-03-28T14:41:12.07Z</time></trkpt><trkpt lat="45.7684668" lon="13.8649789"><ele>312.0</ele><time>2026-03-28T14:41:13.086Z</time></trkpt><trkpt lat="45.7685839" lon="13.8649675"><ele>312.4</ele><time>2026-03-28T14:41:14.076Z</time></trkpt><trkpt lat="45.7686836" lon="13.8649629"><ele>312.79999999999995</ele><time>2026-03-28T14:41:15.072Z</time></trkpt><trkpt lat="45.7687788" lon="13.8649292"><ele>313.2</ele><time>2026-03-28T14:41:16.091Z</time></trkpt><trkpt lat="45.7688644" lon="13.8648708"><ele>313.59999999999997</ele><time>2026-03-28T14:41:17.066Z</time></trkpt><trkpt lat="45.7689415" lon="13.8648116"><ele>314.0</ele><time>2026-03-28T14:41:18.075Z</time></trkpt><trkpt lat="45.7690097" lon="13.8647554"><ele>314.0</ele><time>2026-03-28T14:41:19.07Z</time></trkpt><trkpt lat="45.7690801" lon="13.8646934"><ele>314.0</ele><time>2026-03-28T14:41:20.073Z</time></trkpt><trkpt lat="45.7691539" lon="13.8646362"><ele>314.0</ele><time>2026-03-28T14:41:21.074Z</time></trkpt><trkpt lat="45.7692301" lon="13.8645716"><ele>314.0</ele><time>2026-03-28T14:41:22.072Z</time></trkpt><trkpt lat="45.7693031" lon="13.8645117"><ele>314.0</ele><time>2026-03-28T14:41:23.096Z</time></trkpt><trkpt lat="45.7693616" lon="13.864452"><ele>314.0</ele><time>2026-03-28T14:41:24.072Z</time></trkpt><trkpt lat="45.7694064" lon="13.8643813"><ele>314.1428571428571</ele><time>2026-03-28T14:41:25.084Z</time></trkpt><trkpt lat="45.7694403" lon="13.8643029"><ele>314.2857142857143</ele><time>2026-03-28T14:41:26.07Z</time></trkpt><trkpt lat="45.7694779" lon="13.8642281"><ele>314.42857142857144</ele><time>2026-03-28T14:41:27.077Z</time></trkpt><trkpt lat="45.7695208" lon="13.8641502"><ele>314.57142857142856</ele><time>2026-03-28T14:41:28.076Z</time></trkpt><trkpt lat="45.7695609" lon="13.8640693"><ele>314.7142857142857</ele><time>2026-03-28T14:41:29.072Z</time></trkpt><trkpt lat="45.769604" lon="13.8639916"><ele>314.85714285714283</ele><time>2026-03-28T14:41:30.073Z</time></trkpt><trkpt lat="45.7696571" lon="13.8639182"><ele>315.0</ele><time>2026-03-28T14:41:31.082Z</time></trkpt><trkpt lat="45.7697207" lon="13.8638524"><ele>313.5</ele><time>2026-03-28T14:41:32.069Z</time></trkpt><trkpt lat="45.7697861" lon="13.8637792"><ele>312.0</ele><time>2026-03-28T14:41:33.075Z</time></trkpt><trkpt lat="45.7698561" lon="13.8636957"><ele>310.5</ele><time>2026-03-28T14:41:34.078Z</time></trkpt><trkpt lat="45.7699237" lon="13.8636321"><ele>309.0</ele><time>2026-03-28T14:41:35.073Z</time></trkpt><trkpt lat="45.7700014" lon="13.8635836"><ele>307.5</ele><time>2026-03-28T14:41:36.079Z</time></trkpt><trkpt lat="45.7700768" lon="13.8635533"><ele>306.0</ele><time>2026-03-28T14:41:37.071Z</time></trkpt><trkpt lat="45.7701516" lon="13.8635133"><ele>305.0</ele><time>2026-03-28T14:41:38.072Z</time></trkpt><trkpt lat="45.7702363" lon="13.8634634"><ele>304.0</ele><time>2026-03-28T14:41:39.072Z</time></trkpt><trkpt lat="45.7703269" lon="13.8634176"><ele>303.0</ele><time>2026-03-28T14:41:40.083Z</time></trkpt><trkpt lat="45.770421" lon="13.8633714"><ele>302.0</ele><time>2026-03-28T14:41:41.085Z</time></trkpt><trkpt lat="45.7705091" lon="13.8633378"><ele>301.0</ele><time>2026-03-28T14:41:42.078Z</time></trkpt><trkpt lat="45.7705862" lon="13.8633094"><ele>300.5</ele><time>2026-03-28T14:41:43.072Z</time></trkpt><trkpt lat="45.7706561" lon="13.863265"><ele>300.0</ele><time>2026-03-28T14:41:44.081Z</time></trkpt><trkpt lat="45.7707269" lon="13.8632249"><ele>299.5</ele><time>2026-03-28T14:41:45.079Z</time></trkpt><trkpt lat="45.7707958" lon="13.8631819"><ele>299.0</ele><time>2026-03-28T14:41:46.073Z</time></trkpt><trkpt lat="45.7708714" lon="13.8631472"><ele>298.5</ele><time>2026-03-28T14:41:47.073Z</time></trkpt><trkpt lat="45.7709437" lon="13.8631195"><ele>298.0</ele><time>2026-03-28T14:41:48.072Z</time></trkpt><trkpt lat="45.7710146" lon="13.8630888"><ele>298.16666666666663</ele><time>2026-03-28T14:41:49.072Z</time></trkpt><trkpt lat="45.7710807" lon="13.8630414"><ele>298.3333333333333</ele><time>2026-03-28T14:41:50.076Z</time></trkpt><trkpt lat="45.7711387" lon="13.8629649"><ele>298.5</ele><time>2026-03-28T14:41:51.07Z</time></trkpt><trkpt lat="45.7711918" lon="13.8628725"><ele>298.6666666666667</ele><time>2026-03-28T14:41:52.075Z</time></trkpt><trkpt lat="45.7712524" lon="13.8627753"><ele>298.83333333333337</ele><time>2026-03-28T14:41:53.063Z</time></trkpt><trkpt lat="45.7713281" lon="13.8626864"><ele>299.0</ele><time>2026-03-28T14:41:54.077Z</time></trkpt><trkpt lat="45.7714192" lon="13.8626188"><ele>298.25</ele><time>2026-03-28T14:41:55.069Z</time></trkpt><trkpt lat="45.7715186" lon="13.8625514"><ele>297.5</ele><time>2026-03-28T14:41:56.077Z</time></trkpt><trkpt lat="45.7716229" lon="13.8624764"><ele>296.75</ele><time>2026-03-28T14:41:57.07Z</time></trkpt><trkpt lat="45.7717277" lon="13.8623949"><ele>296.0</ele><time>2026-03-28T14:41:58.079Z</time></trkpt><trkpt lat="45.7718251" lon="13.8623104"><ele>298.40000000000003</ele><time>2026-03-28T14:41:59.066Z</time></trkpt><trkpt lat="45.7719239" lon="13.8622261"><ele>300.8</ele><time>2026-03-28T14:42:00.073Z</time></trkpt><trkpt lat="45.7720207" lon="13.8621461"><ele>303.20000000000005</ele><time>2026-03-28T14:42:01.07Z</time></trkpt><trkpt lat="45.7721104" lon="13.8620744"><ele>305.6</ele><time>2026-03-28T14:42:02.068Z</time></trkpt><trkpt lat="45.7721948" lon="13.8620033"><ele>308.0</ele><time>2026-03-28T14:42:03.071Z</time></trkpt><trkpt lat="45.7722832" lon="13.8619302"><ele>308.0</ele><time>2026-03-28T14:42:04.073Z</time></trkpt><trkpt lat="45.7723736" lon="13.8618566"><ele>308.0</ele><time>2026-03-28T14:42:05.069Z</time></trkpt><trkpt lat="45.772464" lon="13.8617843"><ele>308.0</ele><time>2026-03-28T14:42:06.069Z</time></trkpt><trkpt lat="45.7725526" lon="13.8617138"><ele>308.0</ele><time>2026-03-28T14:42:07.079Z</time></trkpt><trkpt lat="45.7726407" lon="13.8616398"><ele>308.0</ele><time>2026-03-28T14:42:08.069Z</time></trkpt><trkpt lat="45.7727302" lon="13.8615609"><ele>308.6666666666667</ele><time>2026-03-28T14:42:09.085Z</time></trkpt><trkpt lat="45.7728223" lon="13.8614959"><ele>309.33333333333337</ele><time>2026-03-28T14:42:10.069Z</time></trkpt><trkpt lat="45.7729004" lon="13.8614513"><ele>310.0</ele><time>2026-03-28T14:42:11.078Z</time></trkpt><trkpt lat="45.772962" lon="13.8614056"><ele>310.6666666666667</ele><time>2026-03-28T14:42:12.077Z</time></trkpt><trkpt lat="45.7730075" lon="13.8613287"><ele>311.3333333333333</ele><time>2026-03-28T14:42:13.068Z</time></trkpt><trkpt lat="45.7730436" lon="13.8612421"><ele>312.0</ele><time>2026-03-28T14:42:14.063Z</time></trkpt><trkpt lat="45.773097" lon="13.8611798"><ele>312.0</ele><time>2026-03-28T14:42:15.078Z</time></trkpt><trkpt lat="45.7731529" lon="13.8611283"><ele>312.0</ele><time>2026-03-28T14:42:16.089Z</time></trkpt><trkpt lat="45.7732158" lon="13.8610817"><ele>312.0</ele><time>2026-03-28T14:42:17.068Z</time></trkpt><trkpt lat="45.7733339" lon="13.8609952"><ele>312.0</ele><time>2026-03-28T14:42:19.069Z</time></trkpt><trkpt lat="45.7734008" lon="13.860946"><ele>312.0</ele><time>2026-03-28T14:42:20.074Z</time></trkpt><trkpt lat="45.7734744" lon="13.8608877"><ele>312.0</ele><time>2026-03-28T14:42:21.07Z</time></trkpt><trkpt lat="45.7735479" lon="13.8608233"><ele>310.6666666666667</ele><time>2026-03-28T14:42:22.066Z</time></trkpt><trkpt lat="45.773614" lon="13.8607625"><ele>309.3333333333333</ele><time>2026-03-28T14:42:23.07Z</time></trkpt><trkpt lat="45.773688" lon="13.8607141"><ele>308.0</ele><time>2026-03-28T14:42:24.075Z</time></trkpt><trkpt lat="45.7737646" lon="13.8606533"><ele>306.66666666666663</ele><time>2026-03-28T14:42:25.066Z</time></trkpt><trkpt lat="45.7738369" lon="13.8605851"><ele>305.3333333333333</ele><time>2026-03-28T14:42:26.067Z</time></trkpt><trkpt lat="45.773907" lon="13.8605213"><ele>304.0</ele><time>2026-03-28T14:42:27.076Z</time></trkpt><trkpt lat="45.7739662" lon="13.8604621"><ele>304.0</ele><time>2026-03-28T14:42:28.08Z</time></trkpt><trkpt lat="45.7740229" lon="13.8604"><ele>304.0</ele><time>2026-03-28T14:42:29.081Z</time></trkpt><trkpt lat="45.7740838" lon="13.860334"><ele>304.0</ele><time>2026-03-28T14:42:30.068Z</time></trkpt><trkpt lat="45.7741428" lon="13.8602764"><ele>304.0</ele><time>2026-03-28T14:42:31.062Z</time></trkpt><trkpt lat="45.7742325" lon="13.8601586"><ele>304.0</ele><time>2026-03-28T14:42:33.077Z</time></trkpt><trkpt lat="45.7742993" lon="13.860088"><ele>304.0</ele><time>2026-03-28T14:42:35.062Z</time></trkpt><trkpt lat="45.7743575" lon="13.8600516"><ele>300.5</ele><time>2026-03-28T14:42:37.086Z</time></trkpt><trkpt lat="45.7744225" lon="13.8599851"><ele>297.0</ele><time>2026-03-28T14:42:39.07Z</time></trkpt><trkpt lat="45.7744849" lon="13.8598245"><ele>293.5</ele><time>2026-03-28T14:42:41.06Z</time></trkpt><trkpt lat="45.7745075" lon="13.8597242"><ele>290.0</ele><time>2026-03-28T14:42:42.076Z</time></trkpt><trkpt lat="45.774531" lon="13.8596247"><ele>286.5</ele><time>2026-03-28T14:42:43.076Z</time></trkpt><trkpt lat="45.7745697" lon="13.8595419"><ele>283.0</ele><time>2026-03-28T14:42:44.077Z</time></trkpt><trkpt lat="45.774622" lon="13.8594813"><ele>283.0</ele><time>2026-03-28T14:42:45.067Z</time></trkpt><trkpt lat="45.7746837" lon="13.8594535"><ele>283.0</ele><time>2026-03-28T14:42:46.071Z</time></trkpt><trkpt lat="45.774756" lon="13.8594457"><ele>283.0</ele><time>2026-03-28T14:42:47.073Z</time></trkpt><trkpt lat="45.7748344" lon="13.8594424"><ele>283.0</ele><time>2026-03-28T14:42:48.063Z</time></trkpt><trkpt lat="45.7749661" lon="13.8594763"><ele>283.0</ele><time>2026-03-28T14:42:50.068Z</time></trkpt><trkpt lat="45.7750326" lon="13.8595"><ele>283.0</ele><time>2026-03-28T14:42:51.093Z</time></trkpt><trkpt lat="45.775146" lon="13.8594798"><ele>282.6</ele><time>2026-03-28T14:42:53.069Z</time></trkpt><trkpt lat="45.7752133" lon="13.8594243"><ele>282.20000000000005</ele><time>2026-03-28T14:42:54.071Z</time></trkpt><trkpt lat="45.7752876" lon="13.8593583"><ele>281.8</ele><time>2026-03-28T14:42:55.068Z</time></trkpt><trkpt lat="45.7753623" lon="13.8592792"><ele>281.40000000000003</ele><time>2026-03-28T14:42:56.082Z</time></trkpt><trkpt lat="45.7754357" lon="13.8591976"><ele>281.0</ele><time>2026-03-28T14:42:57.088Z</time></trkpt><trkpt lat="45.7755072" lon="13.8590983"><ele>281.0</ele><time>2026-03-28T14:42:58.085Z</time></trkpt><trkpt lat="45.775585" lon="13.8589845"><ele>281.0</ele><time>2026-03-28T14:42:59.075Z</time></trkpt><trkpt lat="45.7756693" lon="13.8588679"><ele>281.0</ele><time>2026-03-28T14:43:00.072Z</time></trkpt><trkpt lat="45.7757574" lon="13.8587619"><ele>281.0</ele><time>2026-03-28T14:43:01.072Z</time></trkpt><trkpt lat="45.775839" lon="13.8586659"><ele>281.0</ele><time>2026-03-28T14:43:02.07Z</time></trkpt><trkpt lat="45.7759243" lon="13.858574"><ele>281.0</ele><time>2026-03-28T14:43:03.071Z</time></trkpt><trkpt lat="45.7760081" lon="13.8584838"><ele>281.0</ele><time>2026-03-28T14:43:04.072Z</time></trkpt><trkpt lat="45.7760974" lon="13.8584011"><ele>281.0</ele><time>2026-03-28T14:43:05.071Z</time></trkpt><trkpt lat="45.7761917" lon="13.8583282"><ele>281.0</ele><time>2026-03-28T14:43:06.079Z</time></trkpt><trkpt lat="45.7762883" lon="13.8582626"><ele>281.0</ele><time>2026-03-28T14:43:07.08Z</time></trkpt><trkpt lat="45.7763809" lon="13.8581933"><ele>282.5</ele><time>2026-03-28T14:43:08.07Z</time></trkpt><trkpt lat="45.7764617" lon="13.8581343"><ele>284.0</ele><time>2026-03-28T14:43:09.073Z</time></trkpt><trkpt lat="45.7765369" lon="13.8581194"><ele>285.5</ele><time>2026-03-28T14:43:10.084Z</time></trkpt><trkpt lat="45.7766208" lon="13.8581417"><ele>287.0</ele><time>2026-03-28T14:43:11.071Z</time></trkpt><trkpt lat="45.7767102" lon="13.8581685"><ele>288.5</ele><time>2026-03-28T14:43:12.078Z</time></trkpt><trkpt lat="45.7767978" lon="13.8581946"><ele>290.0</ele><time>2026-03-28T14:43:13.072Z</time></trkpt><trkpt lat="45.77689" lon="13.8582175"><ele>291.2</ele><time>2026-03-28T14:43:14.068Z</time></trkpt><trkpt lat="45.7769788" lon="13.8582178"><ele>292.4</ele><time>2026-03-28T14:43:15.078Z</time></trkpt><trkpt lat="45.7770618" lon="13.8581806"><ele>293.6</ele><time>2026-03-28T14:43:16.071Z</time></trkpt><trkpt lat="45.7771586" lon="13.8581383"><ele>294.8</ele><time>2026-03-28T14:43:17.074Z</time></trkpt><trkpt lat="45.7772572" lon="13.8581034"><ele>296.0</ele><time>2026-03-28T14:43:18.079Z</time></trkpt><trkpt lat="45.7773532" lon="13.8580645"><ele>296.0</ele><time>2026-03-28T14:43:19.092Z</time></trkpt><trkpt lat="45.777451" lon="13.8580088"><ele>296.0</ele><time>2026-03-28T14:43:20.083Z</time></trkpt><trkpt lat="45.7775304" lon="13.8579304"><ele>296.0</ele><time>2026-03-28T14:43:21.088Z</time></trkpt><trkpt lat="45.7775856" lon="13.8578398"><ele>296.0</ele><time>2026-03-28T14:43:22.07Z</time></trkpt><trkpt lat="45.7776172" lon="13.8577376"><ele>296.0</ele><time>2026-03-28T14:43:23.072Z</time></trkpt><trkpt lat="45.7776351" lon="13.85762"><ele>296.0</ele><time>2026-03-28T14:43:24.073Z</time></trkpt><trkpt lat="45.7776568" lon="13.8574978"><ele>296.8</ele><time>2026-03-28T14:43:25.074Z</time></trkpt><trkpt lat="45.7776905" lon="13.8573734"><ele>297.6</ele><time>2026-03-28T14:43:26.091Z</time></trkpt><trkpt lat="45.7777332" lon="13.8572515"><ele>298.4</ele><time>2026-03-28T14:43:27.078Z</time></trkpt><trkpt lat="45.7777795" lon="13.8571485"><ele>299.2</ele><time>2026-03-28T14:43:28.092Z</time></trkpt><trkpt lat="45.7778493" lon="13.857058"><ele>300.0</ele><time>2026-03-28T14:43:29.068Z</time></trkpt><trkpt lat="45.7779311" lon="13.8569762"><ele>300.0</ele><time>2026-03-28T14:43:30.07Z</time></trkpt><trkpt lat="45.7780184" lon="13.8569029"><ele>300.0</ele><time>2026-03-28T14:43:31.084Z</time></trkpt><trkpt lat="45.7781168" lon="13.8568564"><ele>300.0</ele><time>2026-03-28T14:43:32.077Z</time></trkpt><trkpt lat="45.7782163" lon="13.8568259"><ele>300.0</ele><time>2026-03-28T14:43:33.075Z</time></trkpt><trkpt lat="45.7783154" lon="13.8567763"><ele>300.0</ele><time>2026-03-28T14:43:34.068Z</time></trkpt><trkpt lat="45.7784171" lon="13.8567052"><ele>300.0</ele><time>2026-03-28T14:43:35.085Z</time></trkpt><trkpt lat="45.7785146" lon="13.8566659"><ele>300.0</ele><time>2026-03-28T14:43:36.082Z</time></trkpt><trkpt lat="45.7786021" lon="13.8566438"><ele>300.0</ele><time>2026-03-28T14:43:37.073Z</time></trkpt><trkpt lat="45.7786838" lon="13.8566068"><ele>300.0</ele><time>2026-03-28T14:43:38.085Z</time></trkpt><trkpt lat="45.7787484" lon="13.856569"><ele>300.0</ele><time>2026-03-28T14:43:39.065Z</time></trkpt><trkpt lat="45.7788125" lon="13.8565365"><ele>300.0</ele><time>2026-03-28T14:43:40.077Z</time></trkpt><trkpt lat="45.7789213" lon="13.8564795"><ele>300.0</ele><time>2026-03-28T14:43:42.071Z</time></trkpt><trkpt lat="45.7789847" lon="13.8564392"><ele>300.0</ele><time>2026-03-28T14:43:43.075Z</time></trkpt><trkpt lat="45.779062" lon="13.8564028"><ele>300.0</ele><time>2026-03-28T14:43:44.07Z</time></trkpt><trkpt lat="45.7791407" lon="13.8563718"><ele>300.0</ele><time>2026-03-28T14:43:45.072Z</time></trkpt><trkpt lat="45.7792164" lon="13.8563474"><ele>300.0</ele><time>2026-03-28T14:43:46.067Z</time></trkpt><trkpt lat="45.7792833" lon="13.8563053"><ele>300.0</ele><time>2026-03-28T14:43:47.072Z</time></trkpt><trkpt lat="45.7793345" lon="13.8562433"><ele>299.6666666666667</ele><time>2026-03-28T14:43:48.087Z</time></trkpt><trkpt lat="45.7793878" lon="13.8561599"><ele>299.3333333333333</ele><time>2026-03-28T14:43:49.058Z</time></trkpt><trkpt lat="45.7794413" lon="13.8560698"><ele>299.0</ele><time>2026-03-28T14:43:50.069Z</time></trkpt><trkpt lat="45.7795002" lon="13.8559913"><ele>298.66666666666663</ele><time>2026-03-28T14:43:51.068Z</time></trkpt><trkpt lat="45.7795646" lon="13.8559243"><ele>298.3333333333333</ele><time>2026-03-28T14:43:52.081Z</time></trkpt><trkpt lat="45.7796245" lon="13.8558627"><ele>298.0</ele><time>2026-03-28T14:43:53.074Z</time></trkpt><trkpt lat="45.7796985" lon="13.8558568"><ele>298.0</ele><time>2026-03-28T14:43:55.065Z</time></trkpt><trkpt lat="45.7797959" lon="13.8559148"><ele>298.0</ele><time>2026-03-28T14:43:57.064Z</time></trkpt><trkpt lat="45.7798602" lon="13.8559329"><ele>298.0</ele><time>2026-03-28T14:43:58.071Z</time></trkpt><trkpt lat="45.779975" lon="13.8559084"><ele>298.0</ele><time>2026-03-28T14:44:00.073Z</time></trkpt><trkpt lat="45.780073" lon="13.85579"><ele>298.0</ele><time>2026-03-28T14:44:02.064Z</time></trkpt><trkpt lat="45.7801283" lon="13.8557217"><ele>298.16666666666663</ele><time>2026-03-28T14:44:03.072Z</time></trkpt><trkpt lat="45.7801879" lon="13.8556704"><ele>298.3333333333333</ele><time>2026-03-28T14:44:04.069Z</time></trkpt><trkpt lat="45.7802471" lon="13.8556126"><ele>298.5</ele><time>2026-03-28T14:44:05.081Z</time></trkpt><trkpt lat="45.7802989" lon="13.8555292"><ele>298.6666666666667</ele><time>2026-03-28T14:44:06.086Z</time></trkpt><trkpt lat="45.7803536" lon="13.8554449"><ele>298.83333333333337</ele><time>2026-03-28T14:44:07.086Z</time></trkpt><trkpt lat="45.780416" lon="13.8553789"><ele>299.0</ele><time>2026-03-28T14:44:08.087Z</time></trkpt><trkpt lat="45.7804784" lon="13.8553049"><ele>299.0</ele><time>2026-03-28T14:44:09.089Z</time></trkpt><trkpt lat="45.7805164" lon="13.8552118"><ele>299.0</ele><time>2026-03-28T14:44:10.08Z</time></trkpt><trkpt lat="45.7805468" lon="13.8551325"><ele>299.0</ele><time>2026-03-28T14:44:11.063Z</time></trkpt><trkpt lat="45.7806508" lon="13.8550221"><ele>299.0</ele><time>2026-03-28T14:44:13.083Z</time></trkpt><trkpt lat="45.7807397" lon="13.8549856"><ele>299.0</ele><time>2026-03-28T14:44:14.07Z</time></trkpt><trkpt lat="45.7808316" lon="13.8549575"><ele>299.2</ele><time>2026-03-28T14:44:15.074Z</time></trkpt><trkpt lat="45.7809282" lon="13.854928"><ele>299.4</ele><time>2026-03-28T14:44:16.075Z</time></trkpt><trkpt lat="45.7810259" lon="13.8549005"><ele>299.6</ele><time>2026-03-28T14:44:17.071Z</time></trkpt><trkpt lat="45.781113" lon="13.8548776"><ele>299.8</ele><time>2026-03-28T14:44:18.087Z</time></trkpt><trkpt lat="45.7811935" lon="13.8548582"><ele>300.0</ele><time>2026-03-28T14:44:19.07Z</time></trkpt><trkpt lat="45.7812997" lon="13.8547855"><ele>301.0</ele><time>2026-03-28T14:44:21.071Z</time></trkpt><trkpt lat="45.7813699" lon="13.8547453"><ele>302.0</ele><time>2026-03-28T14:44:22.078Z</time></trkpt><trkpt lat="45.7814546" lon="13.8547009"><ele>303.0</ele><time>2026-03-28T14:44:23.072Z</time></trkpt><trkpt lat="45.7815491" lon="13.8546317"><ele>304.0</ele><time>2026-03-28T14:44:24.078Z</time></trkpt><trkpt lat="45.7816282" lon="13.8545486"><ele>305.0</ele><time>2026-03-28T14:44:25.066Z</time></trkpt><trkpt lat="45.7816986" lon="13.854464"><ele>305.0</ele><time>2026-03-28T14:44:26.072Z</time></trkpt><trkpt lat="45.7817787" lon="13.8544019"><ele>305.0</ele><time>2026-03-28T14:44:27.077Z</time></trkpt><trkpt lat="45.7818708" lon="13.8543577"><ele>305.0</ele><time>2026-03-28T14:44:28.072Z</time></trkpt><trkpt lat="45.7819663" lon="13.854304"><ele>305.0</ele><time>2026-03-28T14:44:29.08Z</time></trkpt><trkpt lat="45.7820464" lon="13.854255"><ele>305.0</ele><time>2026-03-28T14:44:30.084Z</time></trkpt><trkpt lat="45.782112" lon="13.8541955"><ele>304.1666666666667</ele><time>2026-03-28T14:44:31.068Z</time></trkpt><trkpt lat="45.7821577" lon="13.854124"><ele>303.33333333333337</ele><time>2026-03-28T14:44:32.081Z</time></trkpt><trkpt lat="45.7822088" lon="13.8540479"><ele>302.5</ele><time>2026-03-28T14:44:33.066Z</time></trkpt><trkpt lat="45.7822748" lon="13.8539879"><ele>301.6666666666667</ele><time>2026-03-28T14:44:34.093Z</time></trkpt><trkpt lat="45.7823563" lon="13.8539373"><ele>300.8333333333333</ele><time>2026-03-28T14:44:35.078Z</time></trkpt><trkpt lat="45.7824584" lon="13.8538835"><ele>300.0</ele><time>2026-03-28T14:44:36.076Z</time></trkpt><trkpt lat="45.7825683" lon="13.8538225"><ele>300.0</ele><time>2026-03-28T14:44:37.082Z</time></trkpt><trkpt lat="45.7826673" lon="13.8537631"><ele>300.0</ele><time>2026-03-28T14:44:38.082Z</time></trkpt><trkpt lat="45.7827529" lon="13.8536964"><ele>300.0</ele><time>2026-03-28T14:44:39.071Z</time></trkpt><trkpt lat="45.7828241" lon="13.8536222"><ele>300.0</ele><time>2026-03-28T14:44:40.091Z</time></trkpt><trkpt lat="45.7829074" lon="13.8535777"><ele>300.0</ele><time>2026-03-28T14:44:41.08Z</time></trkpt><trkpt lat="45.7829877" lon="13.8535603"><ele>299.8333333333333</ele><time>2026-03-28T14:44:42.059Z</time></trkpt><trkpt lat="45.7830656" lon="13.853537"><ele>299.6666666666667</ele><time>2026-03-28T14:44:43.068Z</time></trkpt><trkpt lat="45.7831403" lon="13.8535041"><ele>299.5</ele><time>2026-03-28T14:44:44.082Z</time></trkpt><trkpt lat="45.7832099" lon="13.853472"><ele>299.33333333333337</ele><time>2026-03-28T14:44:45.078Z</time></trkpt><trkpt lat="45.7832772" lon="13.8534247"><ele>299.1666666666667</ele><time>2026-03-28T14:44:46.089Z</time></trkpt><trkpt lat="45.7833288" lon="13.8533536"><ele>299.0</ele><time>2026-03-28T14:44:47.078Z</time></trkpt><trkpt lat="45.7833496" lon="13.8532509"><ele>299.0</ele><time>2026-03-28T14:44:48.083Z</time></trkpt><trkpt lat="45.7833756" lon="13.8531419"><ele>299.0</ele><time>2026-03-28T14:44:49.072Z</time></trkpt><trkpt lat="45.7834011" lon="13.8530306"><ele>299.0</ele><time>2026-03-28T14:44:50.071Z</time></trkpt><trkpt lat="45.7834419" lon="13.8529411"><ele>299.0</ele><time>2026-03-28T14:44:51.077Z</time></trkpt><trkpt lat="45.7835014" lon="13.8528821"><ele>299.0</ele><time>2026-03-28T14:44:52.071Z</time></trkpt><trkpt lat="45.783584" lon="13.852837"><ele>299.0</ele><time>2026-03-28T14:44:53.069Z</time></trkpt><trkpt lat="45.7836721" lon="13.8527873"><ele>299.0</ele><time>2026-03-28T14:44:54.075Z</time></trkpt><trkpt lat="45.7837568" lon="13.852707"><ele>299.0</ele><time>2026-03-28T14:44:55.083Z</time></trkpt><trkpt lat="45.7838154" lon="13.8525895"><ele>299.0</ele><time>2026-03-28T14:44:56.075Z</time></trkpt><trkpt lat="45.7838618" lon="13.8524705"><ele>299.0</ele><time>2026-03-28T14:44:57.062Z</time></trkpt><trkpt lat="45.7839084" lon="13.8523975"><ele>299.0</ele><time>2026-03-28T14:44:58.08Z</time></trkpt><trkpt lat="45.7839714" lon="13.8523359"><ele>299.0</ele><time>2026-03-28T14:44:59.07Z</time></trkpt><trkpt lat="45.7840383" lon="13.852273"><ele>299.1666666666667</ele><time>2026-03-28T14:45:00.075Z</time></trkpt><trkpt lat="45.7840992" lon="13.8522158"><ele>299.33333333333337</ele><time>2026-03-28T14:45:01.08Z</time></trkpt><trkpt lat="45.7841638" lon="13.8521628"><ele>299.5</ele><time>2026-03-28T14:45:02.09Z</time></trkpt><trkpt lat="45.7842359" lon="13.8521484"><ele>299.6666666666667</ele><time>2026-03-28T14:45:03.085Z</time></trkpt><trkpt lat="45.7843038" lon="13.852164"><ele>299.8333333333333</ele><time>2026-03-28T14:45:04.08Z</time></trkpt><trkpt lat="45.7843623" lon="13.8521302"><ele>300.0</ele><time>2026-03-28T14:45:05.066Z</time></trkpt><trkpt lat="45.7844607" lon="13.8520247"><ele>300.0</ele><time>2026-03-28T14:45:07.071Z</time></trkpt><trkpt lat="45.7845853" lon="13.8520378"><ele>300.0</ele><time>2026-03-28T14:45:09.07Z</time></trkpt><trkpt lat="45.7846873" lon="13.852018"><ele>300.0</ele><time>2026-03-28T14:45:11.074Z</time></trkpt><trkpt lat="45.7847701" lon="13.8520385"><ele>300.0</ele><time>2026-03-28T14:45:13.076Z</time></trkpt><trkpt lat="45.784833" lon="13.8520765"><ele>300.0</ele><time>2026-03-28T14:45:15.066Z</time></trkpt><trkpt lat="45.7849262" lon="13.8520246"><ele>300.0</ele><time>2026-03-28T14:45:17.064Z</time></trkpt><trkpt lat="45.7850612" lon="13.8520471"><ele>300.0</ele><time>2026-03-28T14:45:19.076Z</time></trkpt><trkpt lat="45.7851306" lon="13.8520654"><ele>300.0</ele><time>2026-03-28T14:45:20.076Z</time></trkpt><trkpt lat="45.785225" lon="13.8519739"><ele>300.0</ele><time>2026-03-28T14:45:22.077Z</time></trkpt><trkpt lat="45.785234" lon="13.851876"><ele>300.0</ele><time>2026-03-28T14:45:23.069Z</time></trkpt><trkpt lat="45.7852199" lon="13.8517815"><ele>300.1666666666667</ele><time>2026-03-28T14:45:24.068Z</time></trkpt><trkpt lat="45.7852015" lon="13.8516714"><ele>300.3333333333333</ele><time>2026-03-28T14:45:25.064Z</time></trkpt><trkpt lat="45.7852033" lon="13.8515619"><ele>300.5</ele><time>2026-03-28T14:45:26.077Z</time></trkpt><trkpt lat="45.7852113" lon="13.8514661"><ele>300.66666666666663</ele><time>2026-03-28T14:45:27.075Z</time></trkpt><trkpt lat="45.7852897" lon="13.8513862"><ele>300.8333333333333</ele><time>2026-03-28T14:45:29.071Z</time></trkpt><trkpt lat="45.7853564" lon="13.8513852"><ele>301.0</ele><time>2026-03-28T14:45:30.076Z</time></trkpt><trkpt lat="45.7854371" lon="13.8513832"><ele>301.0</ele><time>2026-03-28T14:45:31.066Z</time></trkpt><trkpt lat="45.7855194" lon="13.851376"><ele>301.0</ele><time>2026-03-28T14:45:32.076Z</time></trkpt><trkpt lat="45.7855947" lon="13.8513682"><ele>301.0</ele><time>2026-03-28T14:45:33.068Z</time></trkpt><trkpt lat="45.7856557" lon="13.8513428"><ele>301.0</ele><time>2026-03-28T14:45:34.074Z</time></trkpt><trkpt lat="45.7857458" lon="13.8512154"><ele>301.0</ele><time>2026-03-28T14:45:36.062Z</time></trkpt><trkpt lat="45.7858129" lon="13.8511419"><ele>301.0</ele><time>2026-03-28T14:45:37.079Z</time></trkpt><trkpt lat="45.7858924" lon="13.8510918"><ele>301.0</ele><time>2026-03-28T14:45:38.073Z</time></trkpt><trkpt lat="45.7859608" lon="13.8510653"><ele>301.0</ele><time>2026-03-28T14:45:39.077Z</time></trkpt><trkpt lat="45.7860247" lon="13.8510691"><ele>301.0</ele><time>2026-03-28T14:45:42.089Z</time></trkpt><trkpt lat="45.7861256" lon="13.8511492"><ele>301.0</ele><time>2026-03-28T14:53:21.096Z</time></trkpt><trkpt lat="45.7862371" lon="13.8511904"><ele>301.0</ele><time>2026-03-28T14:53:23.112Z</time></trkpt><trkpt lat="45.7863006" lon="13.8512044"><ele>301.0</ele><time>2026-03-28T14:53:24.109Z</time></trkpt><trkpt lat="45.7863743" lon="13.8511858"><ele>301.0</ele><time>2026-03-28T14:53:25.086Z</time></trkpt><trkpt lat="45.7864425" lon="13.8511574"><ele>301.0</ele><time>2026-03-28T14:53:26.076Z</time></trkpt><trkpt lat="45.7865045" lon="13.8511236"><ele>301.0</ele><time>2026-03-28T14:53:27.086Z</time></trkpt><trkpt lat="45.7865668" lon="13.8510574"><ele>301.0</ele><time>2026-03-28T14:53:28.089Z</time></trkpt><trkpt lat="45.7866285" lon="13.8509779"><ele>301.0</ele><time>2026-03-28T14:53:29.083Z</time></trkpt><trkpt lat="45.786689" lon="13.8508889"><ele>301.0</ele><time>2026-03-28T14:53:30.084Z</time></trkpt><trkpt lat="45.7867424" lon="13.850802"><ele>300.42857142857144</ele><time>2026-03-28T14:53:31.083Z</time></trkpt><trkpt lat="45.7867868" lon="13.8507141"><ele>299.8571428571429</ele><time>2026-03-28T14:53:32.087Z</time></trkpt><trkpt lat="45.7868185" lon="13.8506188"><ele>299.2857142857143</ele><time>2026-03-28T14:53:33.086Z</time></trkpt><trkpt lat="45.786829" lon="13.8505232"><ele>298.7142857142857</ele><time>2026-03-28T14:53:34.087Z</time></trkpt><trkpt lat="45.7868187" lon="13.8504328"><ele>298.14285714285717</ele><time>2026-03-28T14:53:35.077Z</time></trkpt><trkpt lat="45.7868019" lon="13.8503317"><ele>297.57142857142856</ele><time>2026-03-28T14:53:36.073Z</time></trkpt><trkpt lat="45.7867721" lon="13.8502445"><ele>297.0</ele><time>2026-03-28T14:53:37.089Z</time></trkpt><trkpt lat="45.786743" lon="13.850158"><ele>297.0</ele><time>2026-03-28T14:53:38.078Z</time></trkpt><trkpt lat="45.7867181" lon="13.8500257"><ele>297.0</ele><time>2026-03-28T14:53:40.084Z</time></trkpt><trkpt lat="45.786762" lon="13.8499587"><ele>297.0</ele><time>2026-03-28T14:53:43.071Z</time></trkpt><trkpt lat="45.7868293" lon="13.8499616"><ele>297.0</ele><time>2026-03-28T14:53:45.067Z</time></trkpt><trkpt lat="45.7869451" lon="13.8499244"><ele>297.0</ele><time>2026-03-28T14:53:47.081Z</time></trkpt><trkpt lat="45.7870121" lon="13.8498886"><ele>297.0</ele><time>2026-03-28T14:53:48.085Z</time></trkpt><trkpt lat="45.7870848" lon="13.8498554"><ele>297.0</ele><time>2026-03-28T14:53:49.087Z</time></trkpt><trkpt lat="45.7871516" lon="13.8498248"><ele>297.0</ele><time>2026-03-28T14:53:50.091Z</time></trkpt><trkpt lat="45.787215" lon="13.8497873"><ele>297.0</ele><time>2026-03-28T14:53:51.083Z</time></trkpt><trkpt lat="45.7872869" lon="13.8497443"><ele>297.0</ele><time>2026-03-28T14:53:52.079Z</time></trkpt><trkpt lat="45.7873622" lon="13.8497121"><ele>297.0</ele><time>2026-03-28T14:53:53.081Z</time></trkpt><trkpt lat="45.7874262" lon="13.8496776"><ele>297.0</ele><time>2026-03-28T14:53:54.071Z</time></trkpt><trkpt lat="45.7874775" lon="13.8496161"><ele>297.0</ele><time>2026-03-28T14:53:55.083Z</time></trkpt><trkpt lat="45.7875264" lon="13.8495432"><ele>297.0</ele><time>2026-03-28T14:53:56.086Z</time></trkpt><trkpt lat="45.7875788" lon="13.8494614"><ele>297.0</ele><time>2026-03-28T14:53:57.084Z</time></trkpt><trkpt lat="45.7876357" lon="13.8493894"><ele>297.0</ele><time>2026-03-28T14:53:58.094Z</time></trkpt><trkpt lat="45.7877028" lon="13.8493191"><ele>297.0</ele><time>2026-03-28T14:53:59.072Z</time></trkpt><trkpt lat="45.7877676" lon="13.8492576"><ele>297.0</ele><time>2026-03-28T14:54:00.079Z</time></trkpt><trkpt lat="45.7878333" lon="13.8492221"><ele>297.0</ele><time>2026-03-28T14:54:01.086Z</time></trkpt><trkpt lat="45.7878976" lon="13.8491727"><ele>297.3333333333333</ele><time>2026-03-28T14:54:02.085Z</time></trkpt><trkpt lat="45.7879652" lon="13.8491248"><ele>297.6666666666667</ele><time>2026-03-28T14:54:03.075Z</time></trkpt><trkpt lat="45.7880332" lon="13.8490693"><ele>298.0</ele><time>2026-03-28T14:54:04.073Z</time></trkpt><trkpt lat="45.788103" lon="13.8490071"><ele>298.33333333333337</ele><time>2026-03-28T14:54:05.083Z</time></trkpt><trkpt lat="45.7881729" lon="13.848958"><ele>298.6666666666667</ele><time>2026-03-28T14:54:06.078Z</time></trkpt><trkpt lat="45.7882378" lon="13.848922"><ele>299.0</ele><time>2026-03-28T14:54:07.074Z</time></trkpt><trkpt lat="45.7883558" lon="13.8489452"><ele>299.0</ele><time>2026-03-28T14:54:09.066Z</time></trkpt><trkpt lat="45.7884706" lon="13.8489852"><ele>299.0</ele><time>2026-03-28T14:54:11.084Z</time></trkpt><trkpt lat="45.7885442" lon="13.8488967"><ele>299.0</ele><time>2026-03-28T14:54:13.069Z</time></trkpt><trkpt lat="45.7886066" lon="13.8487678"><ele>299.0</ele><time>2026-03-28T14:54:15.085Z</time></trkpt><trkpt lat="45.7886498" lon="13.8487021"><ele>299.0</ele><time>2026-03-28T14:54:16.081Z</time></trkpt><trkpt lat="45.7887364" lon="13.848586"><ele>298.85714285714283</ele><time>2026-03-28T14:54:18.073Z</time></trkpt><trkpt lat="45.788783" lon="13.8485249"><ele>298.7142857142857</ele><time>2026-03-28T14:54:19.076Z</time></trkpt><trkpt lat="45.7888287" lon="13.8484584"><ele>298.57142857142856</ele><time>2026-03-28T14:54:20.076Z</time></trkpt><trkpt lat="45.7888809" lon="13.8483931"><ele>298.42857142857144</ele><time>2026-03-28T14:54:21.09Z</time></trkpt><trkpt lat="45.7889385" lon="13.8483073"><ele>298.2857142857143</ele><time>2026-03-28T14:54:22.076Z</time></trkpt><trkpt lat="45.788999" lon="13.8482208"><ele>298.1428571428571</ele><time>2026-03-28T14:54:23.075Z</time></trkpt><trkpt lat="45.7890491" lon="13.8481488"><ele>298.0</ele><time>2026-03-28T14:54:24.076Z</time></trkpt><trkpt lat="45.7891043" lon="13.848089"><ele>298.0</ele><time>2026-03-28T14:54:25.07Z</time></trkpt><trkpt lat="45.7891807" lon="13.8480606"><ele>298.0</ele><time>2026-03-28T14:54:26.08Z</time></trkpt><trkpt lat="45.7892614" lon="13.8480336"><ele>298.0</ele><time>2026-03-28T14:54:27.063Z</time></trkpt><trkpt lat="45.7893403" lon="13.8480105"><ele>298.0</ele><time>2026-03-28T14:54:28.074Z</time></trkpt><trkpt lat="45.7894138" lon="13.8479742"><ele>298.0</ele><time>2026-03-28T14:54:29.072Z</time></trkpt><trkpt lat="45.7894829" lon="13.8479344"><ele>298.0</ele><time>2026-03-28T14:54:30.073Z</time></trkpt><trkpt lat="45.789556" lon="13.847905"><ele>298.0</ele><time>2026-03-28T14:54:31.063Z</time></trkpt><trkpt lat="45.7896307" lon="13.847876"><ele>298.0</ele><time>2026-03-28T14:54:32.075Z</time></trkpt><trkpt lat="45.7897076" lon="13.8478476"><ele>298.0</ele><time>2026-03-28T14:54:33.068Z</time></trkpt><trkpt lat="45.7897832" lon="13.8478115"><ele>298.0</ele><time>2026-03-28T14:54:34.078Z</time></trkpt><trkpt lat="45.7898536" lon="13.8477556"><ele>298.0</ele><time>2026-03-28T14:54:35.07Z</time></trkpt><trkpt lat="45.7899144" lon="13.8476976"><ele>298.0</ele><time>2026-03-28T14:54:36.083Z</time></trkpt><trkpt lat="45.789972" lon="13.8476405"><ele>297.4</ele><time>2026-03-28T14:54:37.073Z</time></trkpt><trkpt lat="45.7900803" lon="13.8475576"><ele>296.8</ele><time>2026-03-28T14:54:39.11Z</time></trkpt><trkpt lat="45.7901966" lon="13.8474861"><ele>296.2</ele><time>2026-03-28T14:54:41.072Z</time></trkpt><trkpt lat="45.7902608" lon="13.8474324"><ele>295.6</ele><time>2026-03-28T14:54:42.079Z</time></trkpt><trkpt lat="45.7903242" lon="13.8473795"><ele>295.0</ele><time>2026-03-28T14:54:43.075Z</time></trkpt><trkpt lat="45.7903822" lon="13.8473293"><ele>295.0</ele><time>2026-03-28T14:54:44.094Z</time></trkpt><trkpt lat="45.7904408" lon="13.8472764"><ele>295.0</ele><time>2026-03-28T14:54:45.078Z</time></trkpt><trkpt lat="45.7904979" lon="13.8472124"><ele>295.0</ele><time>2026-03-28T14:54:46.074Z</time></trkpt><trkpt lat="45.7905552" lon="13.8471485"><ele>295.0</ele><time>2026-03-28T14:54:47.071Z</time></trkpt><trkpt lat="45.7906067" lon="13.8470872"><ele>295.0</ele><time>2026-03-28T14:54:48.076Z</time></trkpt><trkpt lat="45.7906411" lon="13.8469265"><ele>295.0</ele><time>2026-03-28T14:54:50.066Z</time></trkpt><trkpt lat="45.7906605" lon="13.8467757"><ele>294.2</ele><time>2026-03-28T14:54:52.083Z</time></trkpt><trkpt lat="45.790706" lon="13.846644"><ele>293.4</ele><time>2026-03-28T14:54:54.085Z</time></trkpt><trkpt lat="45.790787" lon="13.8465466"><ele>292.6</ele><time>2026-03-28T14:54:56.07Z</time></trkpt><trkpt lat="45.7908852" lon="13.8465683"><ele>291.8</ele><time>2026-03-28T14:54:58.07Z</time></trkpt><trkpt lat="45.7910073" lon="13.846516"><ele>291.0</ele><time>2026-03-28T14:55:00.068Z</time></trkpt><trkpt lat="45.7910803" lon="13.8465172"><ele>290.6</ele><time>2026-03-28T14:55:01.071Z</time></trkpt><trkpt lat="45.7911498" lon="13.8465222"><ele>290.20000000000005</ele><time>2026-03-28T14:55:02.067Z</time></trkpt><trkpt lat="45.7912639" lon="13.8465435"><ele>289.79999999999995</ele><time>2026-03-28T14:55:04.087Z</time></trkpt><trkpt lat="45.7913597" lon="13.8465724"><ele>289.4</ele><time>2026-03-28T14:55:06.08Z</time></trkpt><trkpt lat="45.7914647" lon="13.8464804"><ele>289.0</ele><time>2026-03-28T14:55:08.062Z</time></trkpt><trkpt lat="45.7915279" lon="13.8464025"><ele>289.0</ele><time>2026-03-28T14:55:09.066Z</time></trkpt><trkpt lat="45.7915962" lon="13.8463368"><ele>289.0</ele><time>2026-03-28T14:55:10.073Z</time></trkpt><trkpt lat="45.7916733" lon="13.8462717"><ele>289.0</ele><time>2026-03-28T14:55:11.07Z</time></trkpt><trkpt lat="45.7917552" lon="13.8462205"><ele>289.0</ele><time>2026-03-28T14:55:12.067Z</time></trkpt><trkpt lat="45.7918338" lon="13.846162"><ele>289.0</ele><time>2026-03-28T14:55:13.074Z</time></trkpt><trkpt lat="45.7919137" lon="13.8460978"><ele>289.0</ele><time>2026-03-28T14:55:14.07Z</time></trkpt><trkpt lat="45.7919933" lon="13.8460619"><ele>288.66666666666663</ele><time>2026-03-28T14:55:15.078Z</time></trkpt><trkpt lat="45.7920709" lon="13.8460228"><ele>288.3333333333333</ele><time>2026-03-28T14:55:16.073Z</time></trkpt><trkpt lat="45.7921432" lon="13.8459674"><ele>288.0</ele><time>2026-03-28T14:55:17.072Z</time></trkpt><trkpt lat="45.7922121" lon="13.8458985"><ele>287.6666666666667</ele><time>2026-03-28T14:55:18.096Z</time></trkpt><trkpt lat="45.7922912" lon="13.8458386"><ele>287.33333333333337</ele><time>2026-03-28T14:55:19.067Z</time></trkpt><trkpt lat="45.79238" lon="13.8457802"><ele>287.0</ele><time>2026-03-28T14:55:20.07Z</time></trkpt><trkpt lat="45.7924617" lon="13.8457355"><ele>287.0</ele><time>2026-03-28T14:55:21.067Z</time></trkpt><trkpt lat="45.7925378" lon="13.8457068"><ele>287.0</ele><time>2026-03-28T14:55:22.076Z</time></trkpt><trkpt lat="45.7926048" lon="13.8456943"><ele>287.0</ele><time>2026-03-28T14:55:23.07Z</time></trkpt><trkpt lat="45.7927185" lon="13.8455996"><ele>287.0</ele><time>2026-03-28T14:55:25.071Z</time></trkpt><trkpt lat="45.7927731" lon="13.8455224"><ele>287.0</ele><time>2026-03-28T14:55:26.062Z</time></trkpt><trkpt lat="45.7928295" lon="13.8454387"><ele>287.0</ele><time>2026-03-28T14:55:27.071Z</time></trkpt><trkpt lat="45.7928905" lon="13.8453467"><ele>287.0</ele><time>2026-03-28T14:55:28.074Z</time></trkpt><trkpt lat="45.7929584" lon="13.84526"><ele>287.0</ele><time>2026-03-28T14:55:29.077Z</time></trkpt><trkpt lat="45.7930353" lon="13.8451914"><ele>287.0</ele><time>2026-03-28T14:55:30.068Z</time></trkpt><trkpt lat="45.7931152" lon="13.8451295"><ele>287.0</ele><time>2026-03-28T14:55:31.065Z</time></trkpt><trkpt lat="45.7931971" lon="13.8450708"><ele>287.0</ele><time>2026-03-28T14:55:32.059Z</time></trkpt><trkpt lat="45.7932832" lon="13.8450039"><ele>287.0</ele><time>2026-03-28T14:55:33.067Z</time></trkpt><trkpt lat="45.7933711" lon="13.844916"><ele>287.0</ele><time>2026-03-28T14:55:34.065Z</time></trkpt><trkpt lat="45.7934592" lon="13.844815"><ele>287.0</ele><time>2026-03-28T14:55:35.074Z</time></trkpt><trkpt lat="45.7935443" lon="13.8447211"><ele>287.0</ele><time>2026-03-28T14:55:36.075Z</time></trkpt><trkpt lat="45.7936298" lon="13.8446387"><ele>287.0</ele><time>2026-03-28T14:55:37.064Z</time></trkpt><trkpt lat="45.7937169" lon="13.8445636"><ele>286.6</ele><time>2026-03-28T14:55:38.069Z</time></trkpt><trkpt lat="45.7938006" lon="13.8444885"><ele>286.2</ele><time>2026-03-28T14:55:39.064Z</time></trkpt><trkpt lat="45.7938842" lon="13.8444117"><ele>285.8</ele><time>2026-03-28T14:55:40.082Z</time></trkpt><trkpt lat="45.7939676" lon="13.8443378"><ele>285.4</ele><time>2026-03-28T14:55:41.07Z</time></trkpt><trkpt lat="45.7940384" lon="13.8442567"><ele>285.0</ele><time>2026-03-28T14:55:42.065Z</time></trkpt><trkpt lat="45.7940938" lon="13.8441633"><ele>284.4</ele><time>2026-03-28T14:55:43.068Z</time></trkpt><trkpt lat="45.794155" lon="13.8440604"><ele>283.8</ele><time>2026-03-28T14:55:44.066Z</time></trkpt><trkpt lat="45.7942213" lon="13.8439501"><ele>283.2</ele><time>2026-03-28T14:55:45.08Z</time></trkpt><trkpt lat="45.7942834" lon="13.8438178"><ele>282.6</ele><time>2026-03-28T14:55:46.063Z</time></trkpt><trkpt lat="45.7943437" lon="13.8436887"><ele>282.0</ele><time>2026-03-28T14:55:47.062Z</time></trkpt><trkpt lat="45.7944048" lon="13.8435646"><ele>281.4</ele><time>2026-03-28T14:55:48.068Z</time></trkpt><trkpt lat="45.7944657" lon="13.8434418"><ele>280.79999999999995</ele><time>2026-03-28T14:55:49.062Z</time></trkpt><trkpt lat="45.7945242" lon="13.8433271"><ele>280.2</ele><time>2026-03-28T14:55:50.062Z</time></trkpt><trkpt lat="45.7945738" lon="13.8432187"><ele>279.59999999999997</ele><time>2026-03-28T14:55:51.058Z</time></trkpt><trkpt lat="45.7946177" lon="13.8431179"><ele>279.0</ele><time>2026-03-28T14:55:52.069Z</time></trkpt><trkpt lat="45.794659" lon="13.8430247"><ele>279.0</ele><time>2026-03-28T14:55:53.072Z</time></trkpt><trkpt lat="45.7946927" lon="13.842945"><ele>279.0</ele><time>2026-03-28T14:55:54.065Z</time></trkpt><trkpt lat="45.7947736" lon="13.8428433"><ele>279.0</ele><time>2026-03-28T14:55:56.084Z</time></trkpt><trkpt lat="45.7948226" lon="13.8427854"><ele>279.0</ele><time>2026-03-28T14:55:57.071Z</time></trkpt><trkpt lat="45.7948826" lon="13.8427164"><ele>279.0</ele><time>2026-03-28T14:55:58.067Z</time></trkpt><trkpt lat="45.7949481" lon="13.8426294"><ele>279.0</ele><time>2026-03-28T14:55:59.054Z</time></trkpt><trkpt lat="45.7950119" lon="13.8425459"><ele>279.8333333333333</ele><time>2026-03-28T14:56:00.058Z</time></trkpt><trkpt lat="45.7950816" lon="13.842457"><ele>280.6666666666667</ele><time>2026-03-28T14:56:01.063Z</time></trkpt><trkpt lat="45.7951474" lon="13.8423693"><ele>281.5</ele><time>2026-03-28T14:56:02.059Z</time></trkpt><trkpt lat="45.795207" lon="13.842286"><ele>282.33333333333337</ele><time>2026-03-28T14:56:03.066Z</time></trkpt><trkpt lat="45.7952628" lon="13.8422131"><ele>283.1666666666667</ele><time>2026-03-28T14:56:04.057Z</time></trkpt><trkpt lat="45.7953176" lon="13.8421364"><ele>284.0</ele><time>2026-03-28T14:56:05.07Z</time></trkpt><trkpt lat="45.7953737" lon="13.8420574"><ele>284.0</ele><time>2026-03-28T14:56:06.066Z</time></trkpt><trkpt lat="45.7954362" lon="13.8419832"><ele>284.0</ele><time>2026-03-28T14:56:07.069Z</time></trkpt><trkpt lat="45.7955032" lon="13.8419155"><ele>284.0</ele><time>2026-03-28T14:56:08.061Z</time></trkpt><trkpt lat="45.7955665" lon="13.8418572"><ele>284.0</ele><time>2026-03-28T14:56:09.065Z</time></trkpt><trkpt lat="45.7956307" lon="13.8417294"><ele>284.0</ele><time>2026-03-28T14:56:11.058Z</time></trkpt><trkpt lat="45.7956056" lon="13.8415834"><ele>284.2</ele><time>2026-03-28T14:56:13.058Z</time></trkpt><trkpt lat="45.7955505" lon="13.8414375"><ele>284.4</ele><time>2026-03-28T14:56:15.051Z</time></trkpt><trkpt lat="45.795506" lon="13.841296"><ele>284.6</ele><time>2026-03-28T14:56:17.056Z</time></trkpt><trkpt lat="45.7955009" lon="13.8411158"><ele>284.8</ele><time>2026-03-28T14:56:19.073Z</time></trkpt><trkpt lat="45.7955066" lon="13.8410214"><ele>285.0</ele><time>2026-03-28T14:56:20.065Z</time></trkpt><trkpt lat="45.7955198" lon="13.8409214"><ele>285.0</ele><time>2026-03-28T14:56:21.076Z</time></trkpt><trkpt lat="45.7955385" lon="13.8408094"><ele>285.0</ele><time>2026-03-28T14:56:22.068Z</time></trkpt><trkpt lat="45.7955567" lon="13.8407034"><ele>285.0</ele><time>2026-03-28T14:56:23.066Z</time></trkpt><trkpt lat="45.795573" lon="13.8405984"><ele>285.0</ele><time>2026-03-28T14:56:24.069Z</time></trkpt><trkpt lat="45.7955906" lon="13.840495"><ele>285.0</ele><time>2026-03-28T14:56:25.068Z</time></trkpt><trkpt lat="45.7956045" lon="13.8403774"><ele>285.0</ele><time>2026-03-28T14:56:26.077Z</time></trkpt><trkpt lat="45.7956194" lon="13.8402481"><ele>284.5</ele><time>2026-03-28T14:56:27.059Z</time></trkpt><trkpt lat="45.7956278" lon="13.8401232"><ele>284.0</ele><time>2026-03-28T14:56:28.064Z</time></trkpt><trkpt lat="45.7956287" lon="13.8400077"><ele>283.5</ele><time>2026-03-28T14:56:29.072Z</time></trkpt><trkpt lat="45.795628" lon="13.8398925"><ele>283.0</ele><time>2026-03-28T14:56:30.069Z</time></trkpt><trkpt lat="45.7956326" lon="13.8397998"><ele>282.5</ele><time>2026-03-28T14:56:31.081Z</time></trkpt><trkpt lat="45.7956444" lon="13.8396373"><ele>282.0</ele><time>2026-03-28T14:56:33.067Z</time></trkpt><trkpt lat="45.7956522" lon="13.8394737"><ele>282.0</ele><time>2026-03-28T14:56:35.068Z</time></trkpt><trkpt lat="45.7956636" lon="13.8393098"><ele>282.0</ele><time>2026-03-28T14:56:37.073Z</time></trkpt><trkpt lat="45.7956692" lon="13.8392079"><ele>282.0</ele><time>2026-03-28T14:56:38.085Z</time></trkpt><trkpt lat="45.7956682" lon="13.8390905"><ele>282.0</ele><time>2026-03-28T14:56:39.069Z</time></trkpt><trkpt lat="45.7956721" lon="13.8389682"><ele>282.0</ele><time>2026-03-28T14:56:40.062Z</time></trkpt><trkpt lat="45.7956779" lon="13.83884"><ele>282.0</ele><time>2026-03-28T14:56:41.073Z</time></trkpt><trkpt lat="45.7956823" lon="13.8387207"><ele>282.1666666666667</ele><time>2026-03-28T14:56:42.068Z</time></trkpt><trkpt lat="45.7956858" lon="13.8386272"><ele>282.3333333333333</ele><time>2026-03-28T14:56:43.08Z</time></trkpt><trkpt lat="45.7956893" lon="13.8385017"><ele>282.5</ele><time>2026-03-28T14:56:45.075Z</time></trkpt><trkpt lat="45.7956787" lon="13.8384012"><ele>282.66666666666663</ele><time>2026-03-28T14:56:48.071Z</time></trkpt><trkpt lat="45.7956756" lon="13.8382707"><ele>282.8333333333333</ele><time>2026-03-28T14:56:50.077Z</time></trkpt><trkpt lat="45.795734" lon="13.8381518"><ele>283.0</ele><time>2026-03-28T14:56:52.061Z</time></trkpt><trkpt lat="45.7957622" lon="13.8380688"><ele>283.0</ele><time>2026-03-28T14:56:53.07Z</time></trkpt><trkpt lat="45.7957847" lon="13.8379796"><ele>283.0</ele><time>2026-03-28T14:56:54.073Z</time></trkpt><trkpt lat="45.7958325" lon="13.8378341"><ele>283.0</ele><time>2026-03-28T14:56:56.071Z</time></trkpt><trkpt lat="45.7958802" lon="13.8377068"><ele>283.0</ele><time>2026-03-28T14:56:58.066Z</time></trkpt><trkpt lat="45.7959122" lon="13.8375604"><ele>283.0</ele><time>2026-03-28T14:57:00.068Z</time></trkpt><trkpt lat="45.7958944" lon="13.8373791"><ele>283.16666666666663</ele><time>2026-03-28T14:57:02.071Z</time></trkpt><trkpt lat="45.7958624" lon="13.8372772"><ele>283.3333333333333</ele><time>2026-03-28T14:57:03.058Z</time></trkpt><trkpt lat="45.79583" lon="13.8371853"><ele>283.5</ele><time>2026-03-28T14:57:04.081Z</time></trkpt><trkpt lat="45.7958046" lon="13.8370981"><ele>283.6666666666667</ele><time>2026-03-28T14:57:05.067Z</time></trkpt><trkpt lat="45.7957934" lon="13.8369468"><ele>283.83333333333337</ele><time>2026-03-28T14:57:07.072Z</time></trkpt><trkpt lat="45.7957861" lon="13.8368318"><ele>284.0</ele><time>2026-03-28T14:57:09.071Z</time></trkpt><trkpt lat="45.7956963" lon="13.8367576"><ele>284.0</ele><time>2026-03-28T14:57:11.069Z</time></trkpt><trkpt lat="45.7956107" lon="13.8366971"><ele>284.0</ele><time>2026-03-28T14:57:13.071Z</time></trkpt><trkpt lat="45.7955999" lon="13.836536"><ele>284.0</ele><time>2026-03-28T14:57:15.061Z</time></trkpt><trkpt lat="45.7956179" lon="13.8364378"><ele>284.0</ele><time>2026-03-28T14:57:16.08Z</time></trkpt><trkpt lat="45.7956492" lon="13.8363454"><ele>284.0</ele><time>2026-03-28T14:57:17.063Z</time></trkpt><trkpt lat="45.7957066" lon="13.8362326"><ele>284.0</ele><time>2026-03-28T14:57:19.06Z</time></trkpt><trkpt lat="45.7957388" lon="13.8361185"><ele>284.0</ele><time>2026-03-28T14:57:21.074Z</time></trkpt><trkpt lat="45.7957594" lon="13.8359902"><ele>284.0</ele><time>2026-03-28T14:57:23.081Z</time></trkpt><trkpt lat="45.7957484" lon="13.8358601"><ele>284.0</ele><time>2026-03-28T14:57:25.076Z</time></trkpt><trkpt lat="45.7956433" lon="13.8357696"><ele>284.0</ele><time>2026-03-28T14:57:27.068Z</time></trkpt><trkpt lat="45.7955848" lon="13.835717"><ele>284.0</ele><time>2026-03-28T14:57:28.067Z</time></trkpt><trkpt lat="45.7955326" lon="13.8356567"><ele>284.0</ele><time>2026-03-28T14:57:29.072Z</time></trkpt><trkpt lat="45.7954833" lon="13.8355824"><ele>284.0</ele><time>2026-03-28T14:57:30.075Z</time></trkpt><trkpt lat="45.7954502" lon="13.8354998"><ele>284.0</ele><time>2026-03-28T14:57:31.084Z</time></trkpt><trkpt lat="45.7954269" lon="13.835405"><ele>284.0</ele><time>2026-03-28T14:57:32.069Z</time></trkpt><trkpt lat="45.7954126" lon="13.8352975"><ele>284.0</ele><time>2026-03-28T14:57:33.064Z</time></trkpt><trkpt lat="45.795396" lon="13.8351984"><ele>284.0</ele><time>2026-03-28T14:57:34.067Z</time></trkpt><trkpt lat="45.7953753" lon="13.8350995"><ele>284.0</ele><time>2026-03-28T14:57:35.065Z</time></trkpt><trkpt lat="45.7953583" lon="13.8350065"><ele>284.0</ele><time>2026-03-28T14:57:36.069Z</time></trkpt><trkpt lat="45.7953586" lon="13.8348788"><ele>283.59999999999997</ele><time>2026-03-28T14:57:38.067Z</time></trkpt><trkpt lat="45.7954167" lon="13.83481"><ele>283.2</ele><time>2026-03-28T14:57:49.07Z</time></trkpt><trkpt lat="45.7955096" lon="13.8348678"><ele>282.79999999999995</ele><time>2026-03-28T14:57:51.079Z</time></trkpt><trkpt lat="45.7956333" lon="13.8348922"><ele>282.4</ele><time>2026-03-28T14:57:53.066Z</time></trkpt><trkpt lat="45.7957033" lon="13.8348762"><ele>282.0</ele><time>2026-03-28T14:57:54.072Z</time></trkpt><trkpt lat="45.7957839" lon="13.8348534"><ele>282.0</ele><time>2026-03-28T14:57:55.062Z</time></trkpt><trkpt lat="45.7958642" lon="13.8348349"><ele>282.0</ele><time>2026-03-28T14:57:56.071Z</time></trkpt><trkpt lat="45.7959369" lon="13.8348283"><ele>282.0</ele><time>2026-03-28T14:57:57.067Z</time></trkpt><trkpt lat="45.7960157" lon="13.834826"><ele>282.0</ele><time>2026-03-28T14:57:58.066Z</time></trkpt><trkpt lat="45.7960952" lon="13.8348346"><ele>282.0</ele><time>2026-03-28T14:57:59.078Z</time></trkpt><trkpt lat="45.7961734" lon="13.8348499"><ele>282.0</ele><time>2026-03-28T14:58:00.059Z</time></trkpt><trkpt lat="45.7962545" lon="13.8348677"><ele>281.5</ele><time>2026-03-28T14:58:01.067Z</time></trkpt><trkpt lat="45.7963279" lon="13.8348762"><ele>281.0</ele><time>2026-03-28T14:58:02.067Z</time></trkpt><trkpt lat="45.7963983" lon="13.8348861"><ele>280.5</ele><time>2026-03-28T14:58:03.076Z</time></trkpt><trkpt lat="45.7964754" lon="13.8348913"><ele>280.0</ele><time>2026-03-28T14:58:04.067Z</time></trkpt><trkpt lat="45.7965515" lon="13.8348986"><ele>279.5</ele><time>2026-03-28T14:58:05.066Z</time></trkpt><trkpt lat="45.7966299" lon="13.8349072"><ele>279.0</ele><time>2026-03-28T14:58:06.074Z</time></trkpt><trkpt lat="45.79671" lon="13.8349135"><ele>279.0</ele><time>2026-03-28T14:58:07.066Z</time></trkpt><trkpt lat="45.7967854" lon="13.8349098"><ele>279.0</ele><time>2026-03-28T14:58:08.074Z</time></trkpt><trkpt lat="45.7968626" lon="13.834897"><ele>279.0</ele><time>2026-03-28T14:58:09.07Z</time></trkpt><trkpt lat="45.7969401" lon="13.8348828"><ele>279.0</ele><time>2026-03-28T14:58:10.075Z</time></trkpt><trkpt lat="45.7970187" lon="13.8348617"><ele>279.0</ele><time>2026-03-28T14:58:11.066Z</time></trkpt><trkpt lat="45.7970972" lon="13.8348359"><ele>279.0</ele><time>2026-03-28T14:58:12.069Z</time></trkpt><trkpt lat="45.7971708" lon="13.8347965"><ele>279.5</ele><time>2026-03-28T14:58:13.069Z</time></trkpt><trkpt lat="45.7972432" lon="13.8347556"><ele>280.0</ele><time>2026-03-28T14:58:14.074Z</time></trkpt><trkpt lat="45.7973088" lon="13.8347314"><ele>280.5</ele><time>2026-03-28T14:58:15.07Z</time></trkpt><trkpt lat="45.797375" lon="13.834719"><ele>281.0</ele><time>2026-03-28T14:58:16.084Z</time></trkpt><trkpt lat="45.7974809" lon="13.8346898"><ele>281.5</ele><time>2026-03-28T14:58:18.062Z</time></trkpt><trkpt lat="45.7975678" lon="13.8346199"><ele>282.0</ele><time>2026-03-28T14:58:20.071Z</time></trkpt><trkpt lat="45.7976909" lon="13.8345765"><ele>282.0</ele><time>2026-03-28T14:58:22.071Z</time></trkpt><trkpt lat="45.7977606" lon="13.8345681"><ele>282.0</ele><time>2026-03-28T14:58:23.08Z</time></trkpt><trkpt lat="45.7978291" lon="13.8345531"><ele>282.0</ele><time>2026-03-28T14:58:24.069Z</time></trkpt><trkpt lat="45.7979011" lon="13.8345374"><ele>282.0</ele><time>2026-03-28T14:58:25.073Z</time></trkpt><trkpt lat="45.7980232" lon="13.8345396"><ele>282.0</ele><time>2026-03-28T14:58:27.069Z</time></trkpt><trkpt lat="45.7981322" lon="13.8345298"><ele>282.0</ele><time>2026-03-28T14:58:29.072Z</time></trkpt><trkpt lat="45.798214" lon="13.8345277"><ele>282.0</ele><time>2026-03-28T14:58:31.071Z</time></trkpt><trkpt lat="45.7982729" lon="13.8345941"><ele>282.0</ele><time>2026-03-28T14:58:33.071Z</time></trkpt><trkpt lat="45.7983839" lon="13.8347028"><ele>282.0</ele><time>2026-03-28T14:58:35.068Z</time></trkpt><trkpt lat="45.7984461" lon="13.8347535"><ele>282.0</ele><time>2026-03-28T14:58:36.082Z</time></trkpt><trkpt lat="45.7985026" lon="13.8348036"><ele>282.0</ele><time>2026-03-28T14:58:37.072Z</time></trkpt><trkpt lat="45.7985536" lon="13.8348584"><ele>282.0</ele><time>2026-03-28T14:58:38.076Z</time></trkpt><trkpt lat="45.79865" lon="13.8349728"><ele>282.4</ele><time>2026-03-28T14:58:40.071Z</time></trkpt><trkpt lat="45.7987372" lon="13.8350795"><ele>282.79999999999995</ele><time>2026-03-28T14:58:42.065Z</time></trkpt><trkpt lat="45.7988121" lon="13.835154"><ele>283.2</ele><time>2026-03-28T14:58:44.072Z</time></trkpt><trkpt lat="45.7988712" lon="13.8352271"><ele>283.59999999999997</ele><time>2026-03-28T14:58:46.068Z</time></trkpt><trkpt lat="45.7989296" lon="13.8353081"><ele>284.0</ele><time>2026-03-28T14:58:48.068Z</time></trkpt><trkpt lat="45.7990268" lon="13.8353615"><ele>284.0</ele><time>2026-03-28T14:58:50.06Z</time></trkpt><trkpt lat="45.799091" lon="13.8353948"><ele>284.0</ele><time>2026-03-28T14:58:51.072Z</time></trkpt><trkpt lat="45.7991517" lon="13.8354586"><ele>284.0</ele><time>2026-03-28T14:58:52.075Z</time></trkpt><trkpt lat="45.7992055" lon="13.8355326"><ele>284.0</ele><time>2026-03-28T14:58:53.066Z</time></trkpt><trkpt lat="45.7992617" lon="13.8355939"><ele>284.0</ele><time>2026-03-28T14:58:54.079Z</time></trkpt><trkpt lat="45.7993153" lon="13.8356481"><ele>284.0</ele><time>2026-03-28T14:58:55.065Z</time></trkpt><trkpt lat="45.7994185" lon="13.8357372"><ele>284.0</ele><time>2026-03-28T14:58:57.075Z</time></trkpt><trkpt lat="45.7995331" lon="13.8357616"><ele>284.0</ele><time>2026-03-28T14:58:59.078Z</time></trkpt><trkpt lat="45.7996098" lon="13.8357935"><ele>284.0</ele><time>2026-03-28T14:59:01.07Z</time></trkpt><trkpt lat="45.7996566" lon="13.8357313"><ele>284.0</ele><time>2026-03-28T14:59:04.084Z</time></trkpt><trkpt lat="45.7996024" lon="13.8356735"><ele>284.0</ele><time>2026-03-28T14:59:06.059Z</time></trkpt><trkpt lat="45.7995291" lon="13.8357201"><ele>284.0</ele><time>2026-03-28T14:59:08.062Z</time></trkpt><trkpt lat="45.7994378" lon="13.8357435"><ele>284.0</ele><time>2026-03-28T14:59:10.078Z</time></trkpt><trkpt lat="45.7993427" lon="13.8356682"><ele>284.0</ele><time>2026-03-28T14:59:12.064Z</time></trkpt><trkpt lat="45.7992601" lon="13.8355634"><ele>284.0</ele><time>2026-03-28T14:59:14.063Z</time></trkpt><trkpt lat="45.7991844" lon="13.8354686"><ele>284.0</ele><time>2026-03-28T14:59:16.072Z</time></trkpt><trkpt lat="45.7990824" lon="13.835375"><ele>284.0</ele><time>2026-03-28T14:59:18.075Z</time></trkpt><trkpt lat="45.7989855" lon="13.8353531"><ele>284.0</ele><time>2026-03-28T14:59:20.066Z</time></trkpt><trkpt lat="45.7989218" lon="13.8353109"><ele>284.0</ele><time>2026-03-28T14:59:22.073Z</time></trkpt><trkpt lat="45.7989141" lon="13.8351709"><ele>284.0</ele><time>2026-03-28T14:59:24.066Z</time></trkpt><trkpt lat="45.7989441" lon="13.8350885"><ele>284.0</ele><time>2026-03-28T14:59:25.067Z</time></trkpt><trkpt lat="45.7989759" lon="13.8350073"><ele>284.0</ele><time>2026-03-28T14:59:26.074Z</time></trkpt><trkpt lat="45.7990159" lon="13.8349193"><ele>284.0</ele><time>2026-03-28T14:59:27.065Z</time></trkpt><trkpt lat="45.7990615" lon="13.8348243"><ele>284.1666666666667</ele><time>2026-03-28T14:59:28.069Z</time></trkpt><trkpt lat="45.7991145" lon="13.83472"><ele>284.33333333333337</ele><time>2026-03-28T14:59:29.071Z</time></trkpt><trkpt lat="45.7991599" lon="13.8346147"><ele>284.5</ele><time>2026-03-28T14:59:30.076Z</time></trkpt><trkpt lat="45.7991981" lon="13.8345075"><ele>284.6666666666667</ele><time>2026-03-28T14:59:31.065Z</time></trkpt><trkpt lat="45.7992369" lon="13.8344046"><ele>284.8333333333333</ele><time>2026-03-28T14:59:32.085Z</time></trkpt><trkpt lat="45.7992799" lon="13.8343051"><ele>285.0</ele><time>2026-03-28T14:59:33.067Z</time></trkpt><trkpt lat="45.7993236" lon="13.8342046"><ele>285.6</ele><time>2026-03-28T14:59:34.072Z</time></trkpt><trkpt lat="45.7993556" lon="13.8341061"><ele>286.2</ele><time>2026-03-28T14:59:35.072Z</time></trkpt><trkpt lat="45.7993711" lon="13.834005"><ele>286.8</ele><time>2026-03-28T14:59:36.058Z</time></trkpt><trkpt lat="45.7993738" lon="13.8338258"><ele>287.4</ele><time>2026-03-28T14:59:38.084Z</time></trkpt><trkpt lat="45.7993862" lon="13.8337364"><ele>288.0</ele><time>2026-03-28T14:59:39.067Z</time></trkpt><trkpt lat="45.7994056" lon="13.8335584"><ele>287.6</ele><time>2026-03-28T14:59:41.078Z</time></trkpt><trkpt lat="45.7993827" lon="13.8333855"><ele>287.20000000000005</ele><time>2026-03-28T14:59:43.069Z</time></trkpt><trkpt lat="45.7993931" lon="13.8332442"><ele>286.8</ele><time>2026-03-28T14:59:45.064Z</time></trkpt><trkpt lat="45.7994496" lon="13.8331627"><ele>286.40000000000003</ele><time>2026-03-28T14:59:47.062Z</time></trkpt><trkpt lat="45.7995267" lon="13.8331156"><ele>286.0</ele><time>2026-03-28T14:59:49.068Z</time></trkpt><trkpt lat="45.7995974" lon="13.8330091"><ele>286.0</ele><time>2026-03-28T14:59:51.072Z</time></trkpt><trkpt lat="45.7996401" lon="13.832854"><ele>286.0</ele><time>2026-03-28T14:59:53.091Z</time></trkpt><trkpt lat="45.7996733" lon="13.8327736"><ele>286.0</ele><time>2026-03-28T14:59:54.072Z</time></trkpt><trkpt lat="45.799758" lon="13.832647"><ele>286.0</ele><time>2026-03-28T14:59:56.07Z</time></trkpt><trkpt lat="45.7998111" lon="13.8325909"><ele>286.0</ele><time>2026-03-28T14:59:57.068Z</time></trkpt><trkpt lat="45.7998998" lon="13.8325358"><ele>286.16666666666663</ele><time>2026-03-28T14:59:59.097Z</time></trkpt><trkpt lat="45.7999426" lon="13.8324385"><ele>286.3333333333333</ele><time>2026-03-28T15:00:01.085Z</time></trkpt><trkpt lat="45.7998962" lon="13.8323521"><ele>286.5</ele><time>2026-03-28T15:00:03.071Z</time></trkpt><trkpt lat="45.7998247" lon="13.8322834"><ele>286.6666666666667</ele><time>2026-03-28T15:00:05.07Z</time></trkpt><trkpt lat="45.7997945" lon="13.8322008"><ele>286.83333333333337</ele><time>2026-03-28T15:00:07.084Z</time></trkpt><trkpt lat="45.7997414" lon="13.8321307"><ele>287.0</ele><time>2026-03-28T15:00:10.072Z</time></trkpt><trkpt lat="45.7996708" lon="13.8321375"><ele>287.0</ele><time>2026-03-28T15:00:12.072Z</time></trkpt><trkpt lat="45.7996066" lon="13.8321556"><ele>287.0</ele><time>2026-03-28T15:00:13.074Z</time></trkpt><trkpt lat="45.799541" lon="13.8321534"><ele>287.0</ele><time>2026-03-28T15:00:14.069Z</time></trkpt><trkpt lat="45.7994718" lon="13.8321437"><ele>287.0</ele><time>2026-03-28T15:00:15.079Z</time></trkpt><trkpt lat="45.7994067" lon="13.8321305"><ele>287.0</ele><time>2026-03-28T15:00:16.071Z</time></trkpt><trkpt lat="45.7993101" lon="13.8321085"><ele>287.0</ele><time>2026-03-28T15:00:18.068Z</time></trkpt><trkpt lat="45.7992489" lon="13.8320714"><ele>287.0</ele><time>2026-03-28T15:00:20.074Z</time></trkpt><trkpt lat="45.7991534" lon="13.8320599"><ele>286.8</ele><time>2026-03-28T15:00:22.07Z</time></trkpt><trkpt lat="45.7990774" lon="13.8320093"><ele>286.6</ele><time>2026-03-28T15:00:24.07Z</time></trkpt><trkpt lat="45.7990312" lon="13.831898"><ele>286.40000000000003</ele><time>2026-03-28T15:00:26.071Z</time></trkpt><trkpt lat="45.7990185" lon="13.8317411"><ele>286.2</ele><time>2026-03-28T15:00:28.072Z</time></trkpt><trkpt lat="45.7990281" lon="13.8315822"><ele>286.0</ele><time>2026-03-28T15:00:30.071Z</time></trkpt><trkpt lat="45.7990252" lon="13.8314176"><ele>286.0</ele><time>2026-03-28T15:00:32.069Z</time></trkpt><trkpt lat="45.7990436" lon="13.8312598"><ele>286.0</ele><time>2026-03-28T15:00:34.081Z</time></trkpt><trkpt lat="45.7990897" lon="13.8311144"><ele>286.0</ele><time>2026-03-28T15:00:36.092Z</time></trkpt><trkpt lat="45.7991248" lon="13.8309804"><ele>286.0</ele><time>2026-03-28T15:00:38.073Z</time></trkpt><trkpt lat="45.799142" lon="13.8308381"><ele>286.0</ele><time>2026-03-28T15:00:40.069Z</time></trkpt><trkpt lat="45.7991552" lon="13.8307037"><ele>285.8333333333333</ele><time>2026-03-28T15:00:42.072Z</time></trkpt><trkpt lat="45.7991819" lon="13.8305845"><ele>285.66666666666663</ele><time>2026-03-28T15:00:44.075Z</time></trkpt><trkpt lat="45.7992242" lon="13.8305058"><ele>285.5</ele><time>2026-03-28T15:00:46.072Z</time></trkpt><trkpt lat="45.7992909" lon="13.8304323"><ele>285.3333333333333</ele><time>2026-03-28T15:00:51.068Z</time></trkpt><trkpt lat="45.7993653" lon="13.8304302"><ele>285.1666666666667</ele><time>2026-03-28T15:00:53.071Z</time></trkpt><trkpt lat="45.7994775" lon="13.8304427"><ele>285.0</ele><time>2026-03-28T15:00:55.077Z</time></trkpt><trkpt lat="45.7995442" lon="13.8304157"><ele>284.4</ele><time>2026-03-28T15:00:56.073Z</time></trkpt><trkpt lat="45.7996243" lon="13.830361"><ele>283.8</ele><time>2026-03-28T15:00:57.088Z</time></trkpt><trkpt lat="45.799708" lon="13.830295"><ele>283.2</ele><time>2026-03-28T15:00:58.085Z</time></trkpt><trkpt lat="45.799798" lon="13.8302216"><ele>282.6</ele><time>2026-03-28T15:00:59.082Z</time></trkpt><trkpt lat="45.7998952" lon="13.830141"><ele>282.0</ele><time>2026-03-28T15:01:00.081Z</time></trkpt><trkpt lat="45.7999869" lon="13.8300678"><ele>282.0</ele><time>2026-03-28T15:01:01.074Z</time></trkpt><trkpt lat="45.8000768" lon="13.8300025"><ele>282.0</ele><time>2026-03-28T15:01:02.07Z</time></trkpt><trkpt lat="45.8001609" lon="13.8299425"><ele>282.0</ele><time>2026-03-28T15:01:03.072Z</time></trkpt><trkpt lat="45.8002455" lon="13.8298835"><ele>282.0</ele><time>2026-03-28T15:01:04.081Z</time></trkpt><trkpt lat="45.8003334" lon="13.8298309"><ele>282.0</ele><time>2026-03-28T15:01:05.069Z</time></trkpt><trkpt lat="45.8004321" lon="13.8298083"><ele>281.0</ele><time>2026-03-28T15:01:06.084Z</time></trkpt><trkpt lat="45.8005365" lon="13.8297972"><ele>280.0</ele><time>2026-03-28T15:01:07.072Z</time></trkpt><trkpt lat="45.8006389" lon="13.8297945"><ele>279.0</ele><time>2026-03-28T15:01:08.081Z</time></trkpt><trkpt lat="45.8007111" lon="13.8297998"><ele>278.0</ele><time>2026-03-28T15:01:09.078Z</time></trkpt><trkpt lat="45.8007978" lon="13.8297325"><ele>277.0</ele><time>2026-03-28T15:01:12.073Z</time></trkpt><trkpt lat="45.8008468" lon="13.8296736"><ele>276.0</ele><time>2026-03-28T15:01:13.076Z</time></trkpt><trkpt lat="45.8009003" lon="13.8296187"><ele>276.0</ele><time>2026-03-28T15:01:14.072Z</time></trkpt><trkpt lat="45.8009511" lon="13.829562"><ele>276.0</ele><time>2026-03-28T15:01:15.072Z</time></trkpt><trkpt lat="45.8010039" lon="13.8294818"><ele>276.0</ele><time>2026-03-28T15:01:16.067Z</time></trkpt><trkpt lat="45.8010447" lon="13.8293788"><ele>276.0</ele><time>2026-03-28T15:01:17.066Z</time></trkpt><trkpt lat="45.8010732" lon="13.8292704"><ele>276.0</ele><time>2026-03-28T15:01:18.068Z</time></trkpt><trkpt lat="45.8011026" lon="13.8291715"><ele>276.0</ele><time>2026-03-28T15:01:19.069Z</time></trkpt><trkpt lat="45.8011371" lon="13.8290759"><ele>276.0</ele><time>2026-03-28T15:01:20.069Z</time></trkpt><trkpt lat="45.8011738" lon="13.8289803"><ele>276.0</ele><time>2026-03-28T15:01:21.07Z</time></trkpt><trkpt lat="45.8012022" lon="13.8288873"><ele>276.0</ele><time>2026-03-28T15:01:22.069Z</time></trkpt><trkpt lat="45.8012259" lon="13.828798"><ele>276.0</ele><time>2026-03-28T15:01:23.075Z</time></trkpt><trkpt lat="45.8012641" lon="13.8287147"><ele>276.0</ele><time>2026-03-28T15:01:24.079Z</time></trkpt><trkpt lat="45.8013212" lon="13.8286533"><ele>276.0</ele><time>2026-03-28T15:01:25.073Z</time></trkpt><trkpt lat="45.8013885" lon="13.8286069"><ele>276.0</ele><time>2026-03-28T15:01:26.071Z</time></trkpt><trkpt lat="45.8014487" lon="13.828553"><ele>275.8</ele><time>2026-03-28T15:01:27.077Z</time></trkpt><trkpt lat="45.8014954" lon="13.8284713"><ele>275.6</ele><time>2026-03-28T15:01:28.079Z</time></trkpt><trkpt lat="45.8015205" lon="13.8283696"><ele>275.4</ele><time>2026-03-28T15:01:29.091Z</time></trkpt><trkpt lat="45.8015263" lon="13.8282002"><ele>275.2</ele><time>2026-03-28T15:01:31.075Z</time></trkpt><trkpt lat="45.8015051" lon="13.8280518"><ele>275.0</ele><time>2026-03-28T15:01:33.085Z</time></trkpt><trkpt lat="45.8015042" lon="13.8278614"><ele>275.0</ele><time>2026-03-28T15:01:35.079Z</time></trkpt><trkpt lat="45.8015044" lon="13.8277432"><ele>275.0</ele><time>2026-03-28T15:01:36.091Z</time></trkpt><trkpt lat="45.8015145" lon="13.8276209"><ele>275.0</ele><time>2026-03-28T15:01:37.068Z</time></trkpt><trkpt lat="45.8015255" lon="13.82749"><ele>275.0</ele><time>2026-03-28T15:01:38.089Z</time></trkpt><trkpt lat="45.8015291" lon="13.8273542"><ele>275.0</ele><time>2026-03-28T15:01:39.09Z</time></trkpt><trkpt lat="45.8015387" lon="13.8272092"><ele>274.2</ele><time>2026-03-28T15:01:40.083Z</time></trkpt><trkpt lat="45.80157" lon="13.8270671"><ele>273.4</ele><time>2026-03-28T15:01:41.074Z</time></trkpt><trkpt lat="45.8016104" lon="13.8269432"><ele>272.6</ele><time>2026-03-28T15:01:42.063Z</time></trkpt><trkpt lat="45.8016611" lon="13.8268392"><ele>271.8</ele><time>2026-03-28T15:01:43.07Z</time></trkpt><trkpt lat="45.8017214" lon="13.8267501"><ele>271.0</ele><time>2026-03-28T15:01:44.069Z</time></trkpt><trkpt lat="45.8017914" lon="13.826657"><ele>269.6</ele><time>2026-03-28T15:01:45.058Z</time></trkpt><trkpt lat="45.8018722" lon="13.8265638"><ele>268.20000000000005</ele><time>2026-03-28T15:01:46.067Z</time></trkpt><trkpt lat="45.8019486" lon="13.826463"><ele>266.79999999999995</ele><time>2026-03-28T15:01:47.077Z</time></trkpt><trkpt lat="45.8020244" lon="13.8263519"><ele>265.4</ele><time>2026-03-28T15:01:48.064Z</time></trkpt><trkpt lat="45.8020953" lon="13.8262473"><ele>264.0</ele><time>2026-03-28T15:01:49.067Z</time></trkpt><trkpt lat="45.80217" lon="13.8261547"><ele>264.0</ele><time>2026-03-28T15:01:50.075Z</time></trkpt><trkpt lat="45.8022472" lon="13.8260812"><ele>264.0</ele><time>2026-03-28T15:01:51.077Z</time></trkpt><trkpt lat="45.8023155" lon="13.8260121"><ele>264.0</ele><time>2026-03-28T15:01:52.092Z</time></trkpt><trkpt lat="45.8023702" lon="13.8259601"><ele>264.0</ele><time>2026-03-28T15:01:53.068Z</time></trkpt><trkpt lat="45.8024136" lon="13.8258855"><ele>264.0</ele><time>2026-03-28T15:01:55.076Z</time></trkpt><trkpt lat="45.8023687" lon="13.8258025"><ele>264.0</ele><time>2026-03-28T15:01:57.086Z</time></trkpt><trkpt lat="45.8022848" lon="13.8257226"><ele>265.4</ele><time>2026-03-28T15:01:59.068Z</time></trkpt><trkpt lat="45.8022113" lon="13.8256175"><ele>266.79999999999995</ele><time>2026-03-28T15:02:01.088Z</time></trkpt><trkpt lat="45.8021505" lon="13.8254914"><ele>268.20000000000005</ele><time>2026-03-28T15:02:03.074Z</time></trkpt><trkpt lat="45.8020599" lon="13.8253562"><ele>269.6</ele><time>2026-03-28T15:02:05.074Z</time></trkpt><trkpt lat="45.8019975" lon="13.8252838"><ele>271.0</ele><time>2026-03-28T15:02:06.078Z</time></trkpt><trkpt lat="45.8019384" lon="13.8252114"><ele>271.2857142857143</ele><time>2026-03-28T15:02:07.079Z</time></trkpt><trkpt lat="45.8018851" lon="13.8251368"><ele>271.57142857142856</ele><time>2026-03-28T15:02:08.081Z</time></trkpt><trkpt lat="45.8018385" lon="13.8250516"><ele>271.8571428571429</ele><time>2026-03-28T15:02:09.071Z</time></trkpt><trkpt lat="45.8017922" lon="13.8249761"><ele>272.1428571428571</ele><time>2026-03-28T15:02:10.072Z</time></trkpt><trkpt lat="45.8017463" lon="13.8248995"><ele>272.42857142857144</ele><time>2026-03-28T15:02:11.102Z</time></trkpt><trkpt lat="45.8017007" lon="13.8248136"><ele>272.7142857142857</ele><time>2026-03-28T15:02:12.085Z</time></trkpt><trkpt lat="45.8016735" lon="13.8247083"><ele>273.0</ele><time>2026-03-28T15:02:13.075Z</time></trkpt><trkpt lat="45.8016721" lon="13.8245938"><ele>273.0</ele><time>2026-03-28T15:02:14.066Z</time></trkpt><trkpt lat="45.8016848" lon="13.8244766"><ele>273.0</ele><time>2026-03-28T15:02:15.066Z</time></trkpt><trkpt lat="45.8016999" lon="13.8243662"><ele>273.0</ele><time>2026-03-28T15:02:16.07Z</time></trkpt><trkpt lat="45.8017164" lon="13.8242638"><ele>273.0</ele><time>2026-03-28T15:02:17.065Z</time></trkpt><trkpt lat="45.8017326" lon="13.8241748"><ele>273.0</ele><time>2026-03-28T15:02:18.091Z</time></trkpt><trkpt lat="45.801721" lon="13.8240145"><ele>273.0</ele><time>2026-03-28T15:02:20.07Z</time></trkpt><trkpt lat="45.8016895" lon="13.8238702"><ele>272.6666666666667</ele><time>2026-03-28T15:02:22.076Z</time></trkpt><trkpt lat="45.801672" lon="13.823725"><ele>272.3333333333333</ele><time>2026-03-28T15:02:24.08Z</time></trkpt><trkpt lat="45.8016552" lon="13.823596"><ele>272.0</ele><time>2026-03-28T15:02:26.071Z</time></trkpt><trkpt lat="45.8016384" lon="13.8234783"><ele>271.66666666666663</ele><time>2026-03-28T15:02:28.079Z</time></trkpt><trkpt lat="45.8016129" lon="13.8233912"><ele>271.3333333333333</ele><time>2026-03-28T15:02:30.071Z</time></trkpt><trkpt lat="45.801577" lon="13.8232645"><ele>271.0</ele><time>2026-03-28T15:02:33.072Z</time></trkpt><trkpt lat="45.8015829" lon="13.823173"><ele>271.0</ele><time>2026-03-28T15:02:35.073Z</time></trkpt><trkpt lat="45.8015637" lon="13.8230748"><ele>271.0</ele><time>2026-03-28T15:02:37.081Z</time></trkpt><trkpt lat="45.8014803" lon="13.823024"><ele>271.0</ele><time>2026-03-28T15:02:39.068Z</time></trkpt><trkpt lat="45.8013813" lon="13.823064"><ele>271.0</ele><time>2026-03-28T15:02:41.076Z</time></trkpt><trkpt lat="45.8012794" lon="13.8230838"><ele>271.0</ele><time>2026-03-28T15:02:43.072Z</time></trkpt><trkpt lat="45.8011877" lon="13.8230568"><ele>271.0</ele><time>2026-03-28T15:02:45.075Z</time></trkpt><trkpt lat="45.8010957" lon="13.823025"><ele>271.0</ele><time>2026-03-28T15:02:47.069Z</time></trkpt><trkpt lat="45.8010022" lon="13.8230001"><ele>271.0</ele><time>2026-03-28T15:02:49.075Z</time></trkpt><trkpt lat="45.8009182" lon="13.8229911"><ele>271.0</ele><time>2026-03-28T15:02:51.071Z</time></trkpt><trkpt lat="45.8008905" lon="13.8229045"><ele>271.0</ele><time>2026-03-28T15:02:54.061Z</time></trkpt><trkpt lat="45.8009736" lon="13.8228593"><ele>271.0</ele><time>2026-03-28T15:02:57.068Z</time></trkpt><trkpt lat="45.8010855" lon="13.8228201"><ele>271.0</ele><time>2026-03-28T15:02:59.08Z</time></trkpt><trkpt lat="45.8011646" lon="13.8228084"><ele>271.0</ele><time>2026-03-28T15:03:00.073Z</time></trkpt><trkpt lat="45.8012532" lon="13.8228203"><ele>271.0</ele><time>2026-03-28T15:03:01.077Z</time></trkpt><trkpt lat="45.8013501" lon="13.8228523"><ele>271.0</ele><time>2026-03-28T15:03:02.067Z</time></trkpt><trkpt lat="45.8014514" lon="13.8228894"><ele>271.0</ele><time>2026-03-28T15:03:03.067Z</time></trkpt><trkpt lat="45.8015563" lon="13.8229263"><ele>271.0</ele><time>2026-03-28T15:03:04.077Z</time></trkpt><trkpt lat="45.8016583" lon="13.8229651"><ele>271.0</ele><time>2026-03-28T15:03:05.069Z</time></trkpt><trkpt lat="45.8017595" lon="13.8230121"><ele>271.0</ele><time>2026-03-28T15:03:06.072Z</time></trkpt><trkpt lat="45.8018583" lon="13.8230665"><ele>271.0</ele><time>2026-03-28T15:03:07.074Z</time></trkpt><trkpt lat="45.8019556" lon="13.823119"><ele>271.0</ele><time>2026-03-28T15:03:08.066Z</time></trkpt><trkpt lat="45.8020455" lon="13.823169"><ele>271.8</ele><time>2026-03-28T15:03:09.071Z</time></trkpt><trkpt lat="45.8021307" lon="13.8232077"><ele>272.6</ele><time>2026-03-28T15:03:10.07Z</time></trkpt><trkpt lat="45.8022175" lon="13.8232432"><ele>273.4</ele><time>2026-03-28T15:03:11.081Z</time></trkpt><trkpt lat="45.8023042" lon="13.8232802"><ele>274.2</ele><time>2026-03-28T15:03:12.079Z</time></trkpt><trkpt lat="45.802399" lon="13.8233107"><ele>275.0</ele><time>2026-03-28T15:03:13.072Z</time></trkpt><trkpt lat="45.8024976" lon="13.8233335"><ele>275.0</ele><time>2026-03-28T15:03:14.077Z</time></trkpt><trkpt lat="45.8025984" lon="13.8233497"><ele>275.0</ele><time>2026-03-28T15:03:15.07Z</time></trkpt><trkpt lat="45.8027038" lon="13.8233762"><ele>275.0</ele><time>2026-03-28T15:03:16.071Z</time></trkpt><trkpt lat="45.8028079" lon="13.8234162"><ele>275.0</ele><time>2026-03-28T15:03:17.071Z</time></trkpt><trkpt lat="45.8029072" lon="13.8234607"><ele>275.0</ele><time>2026-03-28T15:03:18.068Z</time></trkpt><trkpt lat="45.803" lon="13.8235017"><ele>275.0</ele><time>2026-03-28T15:03:19.07Z</time></trkpt><trkpt lat="45.8030805" lon="13.8235342"><ele>275.0</ele><time>2026-03-28T15:03:20.073Z</time></trkpt><trkpt lat="45.8031605" lon="13.8235551"><ele>275.0</ele><time>2026-03-28T15:03:21.071Z</time></trkpt><trkpt lat="45.8032475" lon="13.8235694"><ele>275.0</ele><time>2026-03-28T15:03:22.065Z</time></trkpt><trkpt lat="45.8033319" lon="13.8235779"><ele>275.0</ele><time>2026-03-28T15:03:23.094Z</time></trkpt><trkpt lat="45.8034225" lon="13.8235877"><ele>275.0</ele><time>2026-03-28T15:03:24.072Z</time></trkpt><trkpt lat="45.8035187" lon="13.8235973"><ele>275.4</ele><time>2026-03-28T15:03:25.068Z</time></trkpt><trkpt lat="45.803624" lon="13.8236044"><ele>275.8</ele><time>2026-03-28T15:03:26.069Z</time></trkpt><trkpt lat="45.8037281" lon="13.8236149"><ele>276.2</ele><time>2026-03-28T15:03:27.066Z</time></trkpt><trkpt lat="45.8038307" lon="13.8236244"><ele>276.6</ele><time>2026-03-28T15:03:28.049Z</time></trkpt><trkpt lat="45.8039329" lon="13.8236432"><ele>277.0</ele><time>2026-03-28T15:03:29.066Z</time></trkpt><trkpt lat="45.8040264" lon="13.823675"><ele>277.0</ele><time>2026-03-28T15:03:30.07Z</time></trkpt><trkpt lat="45.8041087" lon="13.823722"><ele>277.0</ele><time>2026-03-28T15:03:31.088Z</time></trkpt><trkpt lat="45.8041833" lon="13.8237956"><ele>277.0</ele><time>2026-03-28T15:03:32.077Z</time></trkpt><trkpt lat="45.8042561" lon="13.8238813"><ele>277.0</ele><time>2026-03-28T15:03:33.078Z</time></trkpt><trkpt lat="45.8043374" lon="13.8239439"><ele>277.0</ele><time>2026-03-28T15:03:34.073Z</time></trkpt><trkpt lat="45.804433" lon="13.8239844"><ele>277.8</ele><time>2026-03-28T15:03:35.081Z</time></trkpt><trkpt lat="45.8045256" lon="13.8240293"><ele>278.6</ele><time>2026-03-28T15:03:36.072Z</time></trkpt><trkpt lat="45.8046159" lon="13.824111"><ele>279.40000000000003</ele><time>2026-03-28T15:03:37.075Z</time></trkpt><trkpt lat="45.8047087" lon="13.8241884"><ele>280.2</ele><time>2026-03-28T15:03:38.076Z</time></trkpt><trkpt lat="45.8047941" lon="13.824255"><ele>281.0</ele><time>2026-03-28T15:03:39.066Z</time></trkpt><trkpt lat="45.8048789" lon="13.8243126"><ele>280.2</ele><time>2026-03-28T15:03:40.07Z</time></trkpt><trkpt lat="45.8049699" lon="13.8243629"><ele>279.40000000000003</ele><time>2026-03-28T15:03:41.075Z</time></trkpt><trkpt lat="45.8050655" lon="13.8244138"><ele>278.6</ele><time>2026-03-28T15:03:42.07Z</time></trkpt><trkpt lat="45.8051524" lon="13.8244721"><ele>277.8</ele><time>2026-03-28T15:03:43.062Z</time></trkpt><trkpt lat="45.8052378" lon="13.8245368"><ele>277.0</ele><time>2026-03-28T15:03:44.06Z</time></trkpt><trkpt lat="45.8053303" lon="13.8245886"><ele>277.0</ele><time>2026-03-28T15:03:45.071Z</time></trkpt><trkpt lat="45.8054216" lon="13.8246214"><ele>277.0</ele><time>2026-03-28T15:03:46.065Z</time></trkpt><trkpt lat="45.8055142" lon="13.8246523"><ele>277.0</ele><time>2026-03-28T15:03:47.065Z</time></trkpt><trkpt lat="45.8056135" lon="13.8247039"><ele>277.0</ele><time>2026-03-28T15:03:48.066Z</time></trkpt><trkpt lat="45.8057095" lon="13.8247617"><ele>277.0</ele><time>2026-03-28T15:03:49.06Z</time></trkpt><trkpt lat="45.8058016" lon="13.8247995"><ele>277.0</ele><time>2026-03-28T15:03:50.063Z</time></trkpt><trkpt lat="45.805887" lon="13.8248248"><ele>277.0</ele><time>2026-03-28T15:03:51.082Z</time></trkpt><trkpt lat="45.8059663" lon="13.8248525"><ele>277.0</ele><time>2026-03-28T15:03:52.075Z</time></trkpt><trkpt lat="45.8060541" lon="13.8249081"><ele>277.0</ele><time>2026-03-28T15:03:53.077Z</time></trkpt><trkpt lat="45.8061372" lon="13.8249648"><ele>277.0</ele><time>2026-03-28T15:03:54.064Z</time></trkpt><trkpt lat="45.8062223" lon="13.8249996"><ele>277.0</ele><time>2026-03-28T15:03:55.07Z</time></trkpt><trkpt lat="45.8063072" lon="13.8250004"><ele>276.8</ele><time>2026-03-28T15:03:56.071Z</time></trkpt><trkpt lat="45.8064043" lon="13.8249714"><ele>276.6</ele><time>2026-03-28T15:03:57.06Z</time></trkpt><trkpt lat="45.8065083" lon="13.8249559"><ele>276.40000000000003</ele><time>2026-03-28T15:03:58.081Z</time></trkpt><trkpt lat="45.8066161" lon="13.82496"><ele>276.2</ele><time>2026-03-28T15:03:59.064Z</time></trkpt><trkpt lat="45.8067135" lon="13.8249684"><ele>276.0</ele><time>2026-03-28T15:04:00.069Z</time></trkpt><trkpt lat="45.8068083" lon="13.8249702"><ele>276.2</ele><time>2026-03-28T15:04:01.067Z</time></trkpt><trkpt lat="45.8069089" lon="13.8249879"><ele>276.40000000000003</ele><time>2026-03-28T15:04:02.073Z</time></trkpt><trkpt lat="45.8070029" lon="13.8250199"><ele>276.6</ele><time>2026-03-28T15:04:03.068Z</time></trkpt><trkpt lat="45.8070925" lon="13.8250487"><ele>276.8</ele><time>2026-03-28T15:04:04.104Z</time></trkpt><trkpt lat="45.8071816" lon="13.8250766"><ele>277.0</ele><time>2026-03-28T15:04:05.073Z</time></trkpt><trkpt lat="45.8072707" lon="13.8251196"><ele>276.8</ele><time>2026-03-28T15:04:06.07Z</time></trkpt><trkpt lat="45.8073644" lon="13.8251893"><ele>276.6</ele><time>2026-03-28T15:04:07.062Z</time></trkpt><trkpt lat="45.8074573" lon="13.82526"><ele>276.40000000000003</ele><time>2026-03-28T15:04:08.064Z</time></trkpt><trkpt lat="45.8075517" lon="13.8253179"><ele>276.2</ele><time>2026-03-28T15:04:09.075Z</time></trkpt><trkpt lat="45.8076458" lon="13.8253638"><ele>276.0</ele><time>2026-03-28T15:04:10.067Z</time></trkpt><trkpt lat="45.8077323" lon="13.825402"><ele>276.0</ele><time>2026-03-28T15:04:11.076Z</time></trkpt><trkpt lat="45.8078084" lon="13.8254225"><ele>276.0</ele><time>2026-03-28T15:04:12.069Z</time></trkpt><trkpt lat="45.8078759" lon="13.8254092"><ele>276.0</ele><time>2026-03-28T15:04:13.069Z</time></trkpt><trkpt lat="45.8079358" lon="13.8253737"><ele>276.0</ele><time>2026-03-28T15:04:15.064Z</time></trkpt><trkpt lat="45.807942" lon="13.8252774"><ele>276.0</ele><time>2026-03-28T15:04:18.063Z</time></trkpt><trkpt lat="45.8079137" lon="13.8251191"><ele>276.0</ele><time>2026-03-28T15:04:20.066Z</time></trkpt><trkpt lat="45.8079028" lon="13.825005"><ele>276.0</ele><time>2026-03-28T15:04:21.066Z</time></trkpt><trkpt lat="45.8078897" lon="13.824889"><ele>276.0</ele><time>2026-03-28T15:04:22.069Z</time></trkpt><trkpt lat="45.8078697" lon="13.8247633"><ele>276.0</ele><time>2026-03-28T15:04:23.062Z</time></trkpt><trkpt lat="45.8078397" lon="13.8246362"><ele>276.0</ele><time>2026-03-28T15:04:24.082Z</time></trkpt><trkpt lat="45.8078014" lon="13.8245087"><ele>276.0</ele><time>2026-03-28T15:04:25.068Z</time></trkpt><trkpt lat="45.8077537" lon="13.8243888"><ele>276.3333333333333</ele><time>2026-03-28T15:04:26.07Z</time></trkpt><trkpt lat="45.8076967" lon="13.8242698"><ele>276.6666666666667</ele><time>2026-03-28T15:04:27.078Z</time></trkpt><trkpt lat="45.8076445" lon="13.8241539"><ele>277.0</ele><time>2026-03-28T15:04:28.07Z</time></trkpt><trkpt lat="45.8076039" lon="13.8240488"><ele>277.33333333333337</ele><time>2026-03-28T15:04:29.064Z</time></trkpt><trkpt lat="45.8075668" lon="13.8239567"><ele>277.6666666666667</ele><time>2026-03-28T15:04:30.067Z</time></trkpt><trkpt lat="45.8075254" lon="13.8238612"><ele>278.0</ele><time>2026-03-28T15:04:31.068Z</time></trkpt><trkpt lat="45.8074712" lon="13.8237629"><ele>278.1666666666667</ele><time>2026-03-28T15:04:32.067Z</time></trkpt><trkpt lat="45.8074163" lon="13.82365"><ele>278.33333333333337</ele><time>2026-03-28T15:04:33.067Z</time></trkpt><trkpt lat="45.8073621" lon="13.8235473"><ele>278.5</ele><time>2026-03-28T15:04:34.072Z</time></trkpt><trkpt lat="45.8073027" lon="13.8234733"><ele>278.6666666666667</ele><time>2026-03-28T15:04:35.073Z</time></trkpt><trkpt lat="45.807233" lon="13.8234388"><ele>278.8333333333333</ele><time>2026-03-28T15:04:36.066Z</time></trkpt><trkpt lat="45.8071694" lon="13.8234196"><ele>279.0</ele><time>2026-03-28T15:04:37.075Z</time></trkpt><trkpt lat="45.8071001" lon="13.8233775"><ele>279.3333333333333</ele><time>2026-03-28T15:04:38.068Z</time></trkpt><trkpt lat="45.8070482" lon="13.8232845"><ele>279.6666666666667</ele><time>2026-03-28T15:04:39.072Z</time></trkpt><trkpt lat="45.8069936" lon="13.8231731"><ele>280.0</ele><time>2026-03-28T15:04:40.065Z</time></trkpt><trkpt lat="45.8069416" lon="13.8230621"><ele>280.33333333333337</ele><time>2026-03-28T15:04:41.072Z</time></trkpt><trkpt lat="45.8069073" lon="13.8229624"><ele>280.6666666666667</ele><time>2026-03-28T15:04:42.074Z</time></trkpt><trkpt lat="45.8068954" lon="13.8228631"><ele>281.0</ele><time>2026-03-28T15:04:43.065Z</time></trkpt><trkpt lat="45.8069124" lon="13.822758"><ele>281.0</ele><time>2026-03-28T15:04:44.064Z</time></trkpt><trkpt lat="45.8069397" lon="13.8226485"><ele>281.0</ele><time>2026-03-28T15:04:45.065Z</time></trkpt><trkpt lat="45.8069612" lon="13.8225405"><ele>281.0</ele><time>2026-03-28T15:04:46.07Z</time></trkpt><trkpt lat="45.8069695" lon="13.8224367"><ele>281.0</ele><time>2026-03-28T15:04:47.073Z</time></trkpt><trkpt lat="45.806962" lon="13.8223194"><ele>281.0</ele><time>2026-03-28T15:04:48.078Z</time></trkpt><trkpt lat="45.8069392" lon="13.822206"><ele>281.0</ele><time>2026-03-28T15:04:49.065Z</time></trkpt><trkpt lat="45.806903" lon="13.8220937"><ele>281.0</ele><time>2026-03-28T15:04:50.067Z</time></trkpt><trkpt lat="45.8068634" lon="13.8219739"><ele>281.0</ele><time>2026-03-28T15:04:51.066Z</time></trkpt><trkpt lat="45.8068083" lon="13.8218545"><ele>281.0</ele><time>2026-03-28T15:04:52.068Z</time></trkpt><trkpt lat="45.8067451" lon="13.8217344"><ele>281.0</ele><time>2026-03-28T15:04:53.069Z</time></trkpt><trkpt lat="45.8066876" lon="13.8216118"><ele>281.0</ele><time>2026-03-28T15:04:54.079Z</time></trkpt><trkpt lat="45.8066345" lon="13.8214935"><ele>280.33333333333337</ele><time>2026-03-28T15:04:55.089Z</time></trkpt><trkpt lat="45.8065761" lon="13.8213933"><ele>279.6666666666667</ele><time>2026-03-28T15:04:56.068Z</time></trkpt><trkpt lat="45.8065115" lon="13.8213023"><ele>279.0</ele><time>2026-03-28T15:04:57.06Z</time></trkpt><trkpt lat="45.806441" lon="13.8212262"><ele>278.3333333333333</ele><time>2026-03-28T15:04:58.069Z</time></trkpt><trkpt lat="45.8063642" lon="13.8211584"><ele>277.66666666666663</ele><time>2026-03-28T15:04:59.073Z</time></trkpt><trkpt lat="45.8062907" lon="13.8210897"><ele>277.0</ele><time>2026-03-28T15:05:00.074Z</time></trkpt><trkpt lat="45.8062188" lon="13.8210202"><ele>276.5</ele><time>2026-03-28T15:05:01.076Z</time></trkpt><trkpt lat="45.8061456" lon="13.820952"><ele>276.0</ele><time>2026-03-28T15:05:02.082Z</time></trkpt><trkpt lat="45.8060751" lon="13.8208979"><ele>275.5</ele><time>2026-03-28T15:05:03.072Z</time></trkpt><trkpt lat="45.8060035" lon="13.8208548"><ele>275.0</ele><time>2026-03-28T15:05:04.073Z</time></trkpt><trkpt lat="45.8059307" lon="13.8208121"><ele>274.5</ele><time>2026-03-28T15:05:05.07Z</time></trkpt><trkpt lat="45.8058755" lon="13.8207434"><ele>274.0</ele><time>2026-03-28T15:05:06.074Z</time></trkpt><trkpt lat="45.8058282" lon="13.8206509"><ele>273.3333333333333</ele><time>2026-03-28T15:05:07.069Z</time></trkpt><trkpt lat="45.8057819" lon="13.8205487"><ele>272.66666666666663</ele><time>2026-03-28T15:05:08.067Z</time></trkpt><trkpt lat="45.8057304" lon="13.8204559"><ele>272.0</ele><time>2026-03-28T15:05:09.07Z</time></trkpt><trkpt lat="45.8056799" lon="13.8203614"><ele>271.3333333333333</ele><time>2026-03-28T15:05:10.071Z</time></trkpt><trkpt lat="45.8056376" lon="13.8202682"><ele>270.6666666666667</ele><time>2026-03-28T15:05:11.069Z</time></trkpt><trkpt lat="45.805599" lon="13.8201766"><ele>270.0</ele><time>2026-03-28T15:05:12.076Z</time></trkpt><trkpt lat="45.8055504" lon="13.820104"><ele>270.0</ele><time>2026-03-28T15:05:13.076Z</time></trkpt><trkpt lat="45.8054843" lon="13.8200455"><ele>270.0</ele><time>2026-03-28T15:05:14.085Z</time></trkpt><trkpt lat="45.8054163" lon="13.8199923"><ele>270.0</ele><time>2026-03-28T15:05:15.059Z</time></trkpt><trkpt lat="45.8053476" lon="13.8199053"><ele>270.0</ele><time>2026-03-28T15:05:16.063Z</time></trkpt><trkpt lat="45.8052823" lon="13.8198086"><ele>270.0</ele><time>2026-03-28T15:05:17.066Z</time></trkpt><trkpt lat="45.8052217" lon="13.819709"><ele>270.0</ele><time>2026-03-28T15:05:18.063Z</time></trkpt><trkpt lat="45.805169" lon="13.8196308"><ele>269.5</ele><time>2026-03-28T15:05:19.064Z</time></trkpt><trkpt lat="45.8051196" lon="13.8195712"><ele>269.0</ele><time>2026-03-28T15:05:20.069Z</time></trkpt><trkpt lat="45.8050598" lon="13.81952"><ele>268.5</ele><time>2026-03-28T15:05:21.084Z</time></trkpt><trkpt lat="45.8049932" lon="13.8194961"><ele>268.0</ele><time>2026-03-28T15:05:22.076Z</time></trkpt><trkpt lat="45.8049305" lon="13.8194707"><ele>267.5</ele><time>2026-03-28T15:05:23.058Z</time></trkpt><trkpt lat="45.8048303" lon="13.8193848"><ele>267.0</ele><time>2026-03-28T15:05:25.066Z</time></trkpt><trkpt lat="45.8047377" lon="13.8192915"><ele>267.0</ele><time>2026-03-28T15:05:27.068Z</time></trkpt><trkpt lat="45.8046491" lon="13.8192363"><ele>267.0</ele><time>2026-03-28T15:05:29.077Z</time></trkpt><trkpt lat="45.80459" lon="13.8191687"><ele>267.0</ele><time>2026-03-28T15:05:31.069Z</time></trkpt><trkpt lat="45.8045902" lon="13.8190143"><ele>267.0</ele><time>2026-03-28T15:05:33.062Z</time></trkpt><trkpt lat="45.8045857" lon="13.818873"><ele>267.0</ele><time>2026-03-28T15:05:35.074Z</time></trkpt><trkpt lat="45.8044941" lon="13.8187687"><ele>267.0</ele><time>2026-03-28T15:05:37.061Z</time></trkpt><trkpt lat="45.8044304" lon="13.8187201"><ele>267.0</ele><time>2026-03-28T15:05:38.074Z</time></trkpt><trkpt lat="45.8043624" lon="13.8186581"><ele>267.0</ele><time>2026-03-28T15:05:39.065Z</time></trkpt><trkpt lat="45.8042848" lon="13.8185955"><ele>267.0</ele><time>2026-03-28T15:05:40.071Z</time></trkpt><trkpt lat="45.8042037" lon="13.8185411"><ele>267.0</ele><time>2026-03-28T15:05:41.068Z</time></trkpt><trkpt lat="45.804129" lon="13.8184892"><ele>267.0</ele><time>2026-03-28T15:05:42.061Z</time></trkpt><trkpt lat="45.804054" lon="13.8184342"><ele>266.8333333333333</ele><time>2026-03-28T15:05:43.079Z</time></trkpt><trkpt lat="45.8039783" lon="13.8183784"><ele>266.6666666666667</ele><time>2026-03-28T15:05:44.068Z</time></trkpt><trkpt lat="45.8039103" lon="13.8183156"><ele>266.5</ele><time>2026-03-28T15:05:45.059Z</time></trkpt><trkpt lat="45.8038425" lon="13.8182634"><ele>266.33333333333337</ele><time>2026-03-28T15:05:46.064Z</time></trkpt><trkpt lat="45.8037711" lon="13.8182378"><ele>266.1666666666667</ele><time>2026-03-28T15:05:47.07Z</time></trkpt><trkpt lat="45.8036971" lon="13.8182114"><ele>266.0</ele><time>2026-03-28T15:05:48.071Z</time></trkpt><trkpt lat="45.803632" lon="13.8181675"><ele>266.0</ele><time>2026-03-28T15:05:49.092Z</time></trkpt><trkpt lat="45.803562" lon="13.818046"><ele>266.0</ele><time>2026-03-28T15:05:51.066Z</time></trkpt><trkpt lat="45.803546" lon="13.81794"><ele>266.0</ele><time>2026-03-28T15:05:53.064Z</time></trkpt><trkpt lat="45.8034909" lon="13.8178916"><ele>266.0</ele><time>2026-03-28T15:05:55.075Z</time></trkpt><trkpt lat="45.8033729" lon="13.8178025"><ele>266.0</ele><time>2026-03-28T15:05:57.079Z</time></trkpt><trkpt lat="45.803286" lon="13.8177317"><ele>266.0</ele><time>2026-03-28T15:05:58.068Z</time></trkpt><trkpt lat="45.8031877" lon="13.817654"><ele>266.0</ele><time>2026-03-28T15:05:59.076Z</time></trkpt><trkpt lat="45.8030923" lon="13.8175758"><ele>266.0</ele><time>2026-03-28T15:06:00.065Z</time></trkpt><trkpt lat="45.8029956" lon="13.8175127"><ele>266.0</ele><time>2026-03-28T15:06:01.062Z</time></trkpt><trkpt lat="45.8029138" lon="13.8174554"><ele>266.0</ele><time>2026-03-28T15:06:02.073Z</time></trkpt><trkpt lat="45.8028456" lon="13.8173872"><ele>266.0</ele><time>2026-03-28T15:06:03.073Z</time></trkpt><trkpt lat="45.8027887" lon="13.8172959"><ele>266.0</ele><time>2026-03-28T15:06:04.07Z</time></trkpt><trkpt lat="45.8027407" lon="13.817194"><ele>266.0</ele><time>2026-03-28T15:06:05.067Z</time></trkpt><trkpt lat="45.8026857" lon="13.8170827"><ele>266.0</ele><time>2026-03-28T15:06:06.081Z</time></trkpt><trkpt lat="45.8026169" lon="13.8169585"><ele>266.0</ele><time>2026-03-28T15:06:07.072Z</time></trkpt><trkpt lat="45.8025278" lon="13.8168396"><ele>266.8</ele><time>2026-03-28T15:06:08.07Z</time></trkpt><trkpt lat="45.8024366" lon="13.8167184"><ele>267.6</ele><time>2026-03-28T15:06:09.074Z</time></trkpt><trkpt lat="45.802358" lon="13.8166051"><ele>268.4</ele><time>2026-03-28T15:06:10.073Z</time></trkpt><trkpt lat="45.8022905" lon="13.8165005"><ele>269.2</ele><time>2026-03-28T15:06:11.069Z</time></trkpt><trkpt lat="45.8022289" lon="13.8164007"><ele>270.0</ele><time>2026-03-28T15:06:12.074Z</time></trkpt><trkpt lat="45.8021614" lon="13.8162891"><ele>270.0</ele><time>2026-03-28T15:06:13.068Z</time></trkpt><trkpt lat="45.8021025" lon="13.8161642"><ele>270.0</ele><time>2026-03-28T15:06:14.066Z</time></trkpt><trkpt lat="45.8020511" lon="13.8160251"><ele>270.0</ele><time>2026-03-28T15:06:15.072Z</time></trkpt><trkpt lat="45.8020027" lon="13.8158913"><ele>270.0</ele><time>2026-03-28T15:06:16.072Z</time></trkpt><trkpt lat="45.8019522" lon="13.8157628"><ele>270.0</ele><time>2026-03-28T15:06:17.07Z</time></trkpt><trkpt lat="45.8019048" lon="13.8156291"><ele>269.8</ele><time>2026-03-28T15:06:18.068Z</time></trkpt><trkpt lat="45.8018503" lon="13.8155017"><ele>269.6</ele><time>2026-03-28T15:06:19.099Z</time></trkpt><trkpt lat="45.8017926" lon="13.8153858"><ele>269.4</ele><time>2026-03-28T15:06:20.069Z</time></trkpt><trkpt lat="45.8017423" lon="13.8152718"><ele>269.2</ele><time>2026-03-28T15:06:21.069Z</time></trkpt><trkpt lat="45.8017085" lon="13.8151566"><ele>269.0</ele><time>2026-03-28T15:06:22.069Z</time></trkpt><trkpt lat="45.801677" lon="13.8150282"><ele>269.0</ele><time>2026-03-28T15:06:23.068Z</time></trkpt><trkpt lat="45.8016539" lon="13.8149049"><ele>269.0</ele><time>2026-03-28T15:06:24.065Z</time></trkpt><trkpt lat="45.801639" lon="13.8147869"><ele>269.0</ele><time>2026-03-28T15:06:25.066Z</time></trkpt><trkpt lat="45.8016212" lon="13.8146697"><ele>269.0</ele><time>2026-03-28T15:06:26.064Z</time></trkpt><trkpt lat="45.801594" lon="13.8145431"><ele>269.0</ele><time>2026-03-28T15:06:27.092Z</time></trkpt><trkpt lat="45.8015506" lon="13.8144316"><ele>269.0</ele><time>2026-03-28T15:06:28.071Z</time></trkpt><trkpt lat="45.8015013" lon="13.8143372"><ele>269.0</ele><time>2026-03-28T15:06:29.062Z</time></trkpt><trkpt lat="45.8014629" lon="13.814231"><ele>269.0</ele><time>2026-03-28T15:06:30.067Z</time></trkpt><trkpt lat="45.801425" lon="13.8141047"><ele>269.0</ele><time>2026-03-28T15:06:31.066Z</time></trkpt><trkpt lat="45.8013909" lon="13.8139762"><ele>269.0</ele><time>2026-03-28T15:06:32.069Z</time></trkpt><trkpt lat="45.8013402" lon="13.8138577"><ele>269.0</ele><time>2026-03-28T15:06:33.08Z</time></trkpt><trkpt lat="45.8012775" lon="13.8137512"><ele>269.0</ele><time>2026-03-28T15:06:34.068Z</time></trkpt><trkpt lat="45.801215" lon="13.8136448"><ele>269.0</ele><time>2026-03-28T15:06:35.069Z</time></trkpt><trkpt lat="45.801168" lon="13.8135343"><ele>269.0</ele><time>2026-03-28T15:06:36.064Z</time></trkpt><trkpt lat="45.8011215" lon="13.8134231"><ele>269.0</ele><time>2026-03-28T15:06:37.082Z</time></trkpt><trkpt lat="45.8010626" lon="13.8133085"><ele>269.0</ele><time>2026-03-28T15:06:38.083Z</time></trkpt><trkpt lat="45.8009963" lon="13.8131954"><ele>268.0</ele><time>2026-03-28T15:06:39.079Z</time></trkpt><trkpt lat="45.800933" lon="13.8130836"><ele>267.0</ele><time>2026-03-28T15:06:40.071Z</time></trkpt><trkpt lat="45.8008662" lon="13.8129662"><ele>266.0</ele><time>2026-03-28T15:06:41.061Z</time></trkpt><trkpt lat="45.8008049" lon="13.8128705"><ele>265.0</ele><time>2026-03-28T15:06:42.068Z</time></trkpt><trkpt lat="45.8007383" lon="13.812784"><ele>264.0</ele><time>2026-03-28T15:06:43.072Z</time></trkpt><trkpt lat="45.8006698" lon="13.812699"><ele>263.4</ele><time>2026-03-28T15:06:44.077Z</time></trkpt><trkpt lat="45.8006064" lon="13.8125956"><ele>262.79999999999995</ele><time>2026-03-28T15:06:45.07Z</time></trkpt><trkpt lat="45.8005504" lon="13.8124784"><ele>262.20000000000005</ele><time>2026-03-28T15:06:46.067Z</time></trkpt><trkpt lat="45.8004951" lon="13.8123697"><ele>261.6</ele><time>2026-03-28T15:06:47.079Z</time></trkpt><trkpt lat="45.8004382" lon="13.8122716"><ele>261.0</ele><time>2026-03-28T15:06:48.068Z</time></trkpt><trkpt lat="45.8003916" lon="13.8121727"><ele>261.0</ele><time>2026-03-28T15:06:49.068Z</time></trkpt><trkpt lat="45.8003612" lon="13.8120471"><ele>261.0</ele><time>2026-03-28T15:06:50.068Z</time></trkpt><trkpt lat="45.8003409" lon="13.8119171"><ele>261.0</ele><time>2026-03-28T15:06:51.069Z</time></trkpt><trkpt lat="45.800322" lon="13.8117782"><ele>261.0</ele><time>2026-03-28T15:06:52.08Z</time></trkpt><trkpt lat="45.8002881" lon="13.8116424"><ele>261.0</ele><time>2026-03-28T15:06:53.074Z</time></trkpt><trkpt lat="45.8002493" lon="13.8115159"><ele>260.5</ele><time>2026-03-28T15:06:54.093Z</time></trkpt><trkpt lat="45.8002262" lon="13.8113997"><ele>260.0</ele><time>2026-03-28T15:06:55.084Z</time></trkpt><trkpt lat="45.8002254" lon="13.8112819"><ele>259.5</ele><time>2026-03-28T15:06:56.08Z</time></trkpt><trkpt lat="45.8002539" lon="13.8111882"><ele>259.0</ele><time>2026-03-28T15:06:57.066Z</time></trkpt><trkpt lat="45.8003107" lon="13.8110937"><ele>258.5</ele><time>2026-03-28T15:06:58.063Z</time></trkpt><trkpt lat="45.8003555" lon="13.811002"><ele>258.0</ele><time>2026-03-28T15:06:59.073Z</time></trkpt><trkpt lat="45.8003796" lon="13.8109045"><ele>258.0</ele><time>2026-03-28T15:07:00.067Z</time></trkpt><trkpt lat="45.8003697" lon="13.8107988"><ele>258.0</ele><time>2026-03-28T15:07:01.086Z</time></trkpt><trkpt lat="45.800342" lon="13.8106832"><ele>258.0</ele><time>2026-03-28T15:07:02.061Z</time></trkpt><trkpt lat="45.8003182" lon="13.8105561"><ele>258.0</ele><time>2026-03-28T15:07:03.065Z</time></trkpt><trkpt lat="45.800291" lon="13.8104152"><ele>258.0</ele><time>2026-03-28T15:07:04.072Z</time></trkpt><trkpt lat="45.8002488" lon="13.8102706"><ele>257.75</ele><time>2026-03-28T15:07:05.07Z</time></trkpt><trkpt lat="45.8001959" lon="13.8101149"><ele>257.5</ele><time>2026-03-28T15:07:06.078Z</time></trkpt><trkpt lat="45.8001436" lon="13.8099568"><ele>257.25</ele><time>2026-03-28T15:07:07.06Z</time></trkpt><trkpt lat="45.8000851" lon="13.8098062"><ele>257.0</ele><time>2026-03-28T15:07:08.072Z</time></trkpt><trkpt lat="45.8000258" lon="13.8096654"><ele>257.4</ele><time>2026-03-28T15:07:09.063Z</time></trkpt><trkpt lat="45.7999636" lon="13.8095366"><ele>257.79999999999995</ele><time>2026-03-28T15:07:10.062Z</time></trkpt><trkpt lat="45.7999048" lon="13.809418"><ele>258.2</ele><time>2026-03-28T15:07:11.065Z</time></trkpt><trkpt lat="45.799855" lon="13.8092858"><ele>258.59999999999997</ele><time>2026-03-28T15:07:12.071Z</time></trkpt><trkpt lat="45.7998107" lon="13.8091493"><ele>259.0</ele><time>2026-03-28T15:07:13.07Z</time></trkpt><trkpt lat="45.7997607" lon="13.8090264"><ele>259.0</ele><time>2026-03-28T15:07:14.072Z</time></trkpt><trkpt lat="45.7997065" lon="13.8089225"><ele>259.0</ele><time>2026-03-28T15:07:15.064Z</time></trkpt><trkpt lat="45.799655" lon="13.8088377"><ele>259.0</ele><time>2026-03-28T15:07:16.079Z</time></trkpt><trkpt lat="45.7996058" lon="13.8087593"><ele>259.0</ele><time>2026-03-28T15:07:17.065Z</time></trkpt><trkpt lat="45.7994869" lon="13.8086971"><ele>259.0</ele><time>2026-03-28T15:07:19.062Z</time></trkpt><trkpt lat="45.7994156" lon="13.8087124"><ele>259.0</ele><time>2026-03-28T15:07:20.057Z</time></trkpt><trkpt lat="45.7993347" lon="13.8087189"><ele>259.2</ele><time>2026-03-28T15:07:21.061Z</time></trkpt><trkpt lat="45.7992537" lon="13.8086846"><ele>259.4</ele><time>2026-03-28T15:07:22.068Z</time></trkpt><trkpt lat="45.7991771" lon="13.808635"><ele>259.6</ele><time>2026-03-28T15:07:23.069Z</time></trkpt><trkpt lat="45.799101" lon="13.8085712"><ele>259.8</ele><time>2026-03-28T15:07:24.071Z</time></trkpt><trkpt lat="45.7990156" lon="13.8084954"><ele>260.0</ele><time>2026-03-28T15:07:25.06Z</time></trkpt><trkpt lat="45.7989237" lon="13.808416"><ele>260.6</ele><time>2026-03-28T15:07:26.079Z</time></trkpt><trkpt lat="45.7988336" lon="13.8083363"><ele>261.2</ele><time>2026-03-28T15:07:27.068Z</time></trkpt><trkpt lat="45.7987535" lon="13.8082506"><ele>261.8</ele><time>2026-03-28T15:07:28.065Z</time></trkpt><trkpt lat="45.7986918" lon="13.8081351"><ele>262.4</ele><time>2026-03-28T15:07:29.068Z</time></trkpt><trkpt lat="45.798629" lon="13.8080236"><ele>263.0</ele><time>2026-03-28T15:07:30.069Z</time></trkpt><trkpt lat="45.7985648" lon="13.8079206"><ele>262.8</ele><time>2026-03-28T15:07:31.065Z</time></trkpt><trkpt lat="45.7984824" lon="13.807837"><ele>262.6</ele><time>2026-03-28T15:07:32.078Z</time></trkpt><trkpt lat="45.79839" lon="13.8077546"><ele>262.4</ele><time>2026-03-28T15:07:33.061Z</time></trkpt><trkpt lat="45.7982948" lon="13.8076642"><ele>262.2</ele><time>2026-03-28T15:07:34.068Z</time></trkpt><trkpt lat="45.7981962" lon="13.8075725"><ele>262.0</ele><time>2026-03-28T15:07:35.058Z</time></trkpt><trkpt lat="45.7980933" lon="13.8074882"><ele>262.4</ele><time>2026-03-28T15:07:36.072Z</time></trkpt><trkpt lat="45.7979997" lon="13.8073957"><ele>262.79999999999995</ele><time>2026-03-28T15:07:37.063Z</time></trkpt><trkpt lat="45.7979193" lon="13.8072891"><ele>263.2</ele><time>2026-03-28T15:07:38.084Z</time></trkpt><trkpt lat="45.7978457" lon="13.8071868"><ele>263.59999999999997</ele><time>2026-03-28T15:07:39.072Z</time></trkpt><trkpt lat="45.7977718" lon="13.8070836"><ele>264.0</ele><time>2026-03-28T15:07:40.076Z</time></trkpt><trkpt lat="45.7976987" lon="13.8069662"><ele>263.8</ele><time>2026-03-28T15:07:41.072Z</time></trkpt><trkpt lat="45.7976408" lon="13.8068481"><ele>263.59999999999997</ele><time>2026-03-28T15:07:42.066Z</time></trkpt><trkpt lat="45.7975909" lon="13.8067302"><ele>263.4</ele><time>2026-03-28T15:07:43.068Z</time></trkpt><trkpt lat="45.7975285" lon="13.8066265"><ele>263.2</ele><time>2026-03-28T15:07:44.066Z</time></trkpt><trkpt lat="45.7974529" lon="13.8065351"><ele>263.0</ele><time>2026-03-28T15:07:45.063Z</time></trkpt><trkpt lat="45.7973687" lon="13.8064654"><ele>263.0</ele><time>2026-03-28T15:07:46.073Z</time></trkpt><trkpt lat="45.7972979" lon="13.8064044"><ele>263.0</ele><time>2026-03-28T15:07:47.074Z</time></trkpt><trkpt lat="45.797236" lon="13.8063252"><ele>263.0</ele><time>2026-03-28T15:07:48.067Z</time></trkpt><trkpt lat="45.7971871" lon="13.8062283"><ele>263.0</ele><time>2026-03-28T15:07:49.073Z</time></trkpt><trkpt lat="45.797141" lon="13.8061136"><ele>263.0</ele><time>2026-03-28T15:07:50.072Z</time></trkpt><trkpt lat="45.7970894" lon="13.806001"><ele>263.0</ele><time>2026-03-28T15:07:51.085Z</time></trkpt><trkpt lat="45.7970411" lon="13.8058874"><ele>263.33333333333337</ele><time>2026-03-28T15:07:52.062Z</time></trkpt><trkpt lat="45.797007" lon="13.8057695"><ele>263.6666666666667</ele><time>2026-03-28T15:07:53.072Z</time></trkpt><trkpt lat="45.7969778" lon="13.8056699"><ele>264.0</ele><time>2026-03-28T15:07:54.075Z</time></trkpt><trkpt lat="45.7969479" lon="13.8055166"><ele>264.3333333333333</ele><time>2026-03-28T15:07:56.097Z</time></trkpt><trkpt lat="45.7969844" lon="13.8054169"><ele>264.66666666666663</ele><time>2026-03-28T15:07:58.069Z</time></trkpt><trkpt lat="45.796958" lon="13.8053093"><ele>265.0</ele><time>2026-03-28T15:08:01.069Z</time></trkpt><trkpt lat="45.7968979" lon="13.8052737"><ele>264.4</ele><time>2026-03-28T15:08:02.072Z</time></trkpt><trkpt lat="45.7968236" lon="13.8052477"><ele>263.8</ele><time>2026-03-28T15:08:03.064Z</time></trkpt><trkpt lat="45.796732" lon="13.8052298"><ele>263.2</ele><time>2026-03-28T15:08:04.062Z</time></trkpt><trkpt lat="45.7966349" lon="13.8052038"><ele>262.6</ele><time>2026-03-28T15:08:05.06Z</time></trkpt><trkpt lat="45.7965401" lon="13.8051675"><ele>262.0</ele><time>2026-03-28T15:08:06.061Z</time></trkpt><trkpt lat="45.7964508" lon="13.8051261"><ele>262.0</ele><time>2026-03-28T15:08:07.074Z</time></trkpt><trkpt lat="45.7963739" lon="13.8050856"><ele>262.0</ele><time>2026-03-28T15:08:08.064Z</time></trkpt><trkpt lat="45.7962981" lon="13.8050493"><ele>262.0</ele><time>2026-03-28T15:08:09.064Z</time></trkpt><trkpt lat="45.7962287" lon="13.805017"><ele>262.0</ele><time>2026-03-28T15:08:10.071Z</time></trkpt><trkpt lat="45.7961599" lon="13.8049901"><ele>262.0</ele><time>2026-03-28T15:08:11.079Z</time></trkpt><trkpt lat="45.7960928" lon="13.804968"><ele>262.0</ele><time>2026-03-28T15:08:12.072Z</time></trkpt><trkpt lat="45.7960326" lon="13.8049389"><ele>262.0</ele><time>2026-03-28T15:08:13.072Z</time></trkpt><trkpt lat="45.795974" lon="13.8048913"><ele>261.6</ele><time>2026-03-28T15:08:14.07Z</time></trkpt><trkpt lat="45.7959067" lon="13.8048343"><ele>261.2</ele><time>2026-03-28T15:08:15.074Z</time></trkpt><trkpt lat="45.7958336" lon="13.8047692"><ele>260.8</ele><time>2026-03-28T15:08:16.072Z</time></trkpt><trkpt lat="45.7957545" lon="13.8046839"><ele>260.4</ele><time>2026-03-28T15:08:17.069Z</time></trkpt><trkpt lat="45.7956735" lon="13.8046002"><ele>260.0</ele><time>2026-03-28T15:08:18.073Z</time></trkpt><trkpt lat="45.7955948" lon="13.8045253"><ele>260.0</ele><time>2026-03-28T15:08:19.066Z</time></trkpt><trkpt lat="45.7955136" lon="13.8044547"><ele>260.0</ele><time>2026-03-28T15:08:20.081Z</time></trkpt><trkpt lat="45.7954398" lon="13.8043811"><ele>260.0</ele><time>2026-03-28T15:08:21.074Z</time></trkpt><trkpt lat="45.7953698" lon="13.8042921"><ele>260.0</ele><time>2026-03-28T15:08:22.074Z</time></trkpt><trkpt lat="45.7952977" lon="13.8041951"><ele>260.0</ele><time>2026-03-28T15:08:23.073Z</time></trkpt><trkpt lat="45.7952215" lon="13.8040917"><ele>259.4</ele><time>2026-03-28T15:08:24.072Z</time></trkpt><trkpt lat="45.7951408" lon="13.8039806"><ele>258.8</ele><time>2026-03-28T15:08:25.071Z</time></trkpt><trkpt lat="45.7950627" lon="13.803866"><ele>258.2</ele><time>2026-03-28T15:08:26.078Z</time></trkpt><trkpt lat="45.7949863" lon="13.8037433"><ele>257.6</ele><time>2026-03-28T15:08:27.07Z</time></trkpt><trkpt lat="45.7949161" lon="13.8036205"><ele>257.0</ele><time>2026-03-28T15:08:28.08Z</time></trkpt><trkpt lat="45.7948538" lon="13.8034984"><ele>257.4</ele><time>2026-03-28T15:08:29.082Z</time></trkpt><trkpt lat="45.794796" lon="13.8033697"><ele>257.79999999999995</ele><time>2026-03-28T15:08:30.078Z</time></trkpt><trkpt lat="45.7947395" lon="13.803232"><ele>258.2</ele><time>2026-03-28T15:08:31.077Z</time></trkpt><trkpt lat="45.7946952" lon="13.8030967"><ele>258.59999999999997</ele><time>2026-03-28T15:08:32.095Z</time></trkpt><trkpt lat="45.7946621" lon="13.8029757"><ele>259.0</ele><time>2026-03-28T15:08:33.072Z</time></trkpt><trkpt lat="45.794639" lon="13.8028749"><ele>259.0</ele><time>2026-03-28T15:08:34.075Z</time></trkpt><trkpt lat="45.7946494" lon="13.8026753"><ele>259.0</ele><time>2026-03-28T15:08:36.075Z</time></trkpt><trkpt lat="45.7946784" lon="13.8025597"><ele>259.0</ele><time>2026-03-28T15:08:37.111Z</time></trkpt><trkpt lat="45.7947088" lon="13.8024395"><ele>259.0</ele><time>2026-03-28T15:08:38.07Z</time></trkpt><trkpt lat="45.7947342" lon="13.8023247"><ele>259.0</ele><time>2026-03-28T15:08:39.08Z</time></trkpt><trkpt lat="45.7947535" lon="13.8022184"><ele>259.16666666666663</ele><time>2026-03-28T15:08:40.085Z</time></trkpt><trkpt lat="45.7947706" lon="13.802117"><ele>259.3333333333333</ele><time>2026-03-28T15:08:41.08Z</time></trkpt><trkpt lat="45.7947925" lon="13.8020091"><ele>259.5</ele><time>2026-03-28T15:08:42.078Z</time></trkpt><trkpt lat="45.7948208" lon="13.8018984"><ele>259.6666666666667</ele><time>2026-03-28T15:08:43.079Z</time></trkpt><trkpt lat="45.7948676" lon="13.8017874"><ele>259.83333333333337</ele><time>2026-03-28T15:08:44.098Z</time></trkpt><trkpt lat="45.7949332" lon="13.801674"><ele>260.0</ele><time>2026-03-28T15:08:45.077Z</time></trkpt><trkpt lat="45.7950061" lon="13.8015482"><ele>260.25</ele><time>2026-03-28T15:08:46.08Z</time></trkpt><trkpt lat="45.7950839" lon="13.8014127"><ele>260.5</ele><time>2026-03-28T15:08:47.088Z</time></trkpt><trkpt lat="45.795163" lon="13.8012734"><ele>260.75</ele><time>2026-03-28T15:08:48.085Z</time></trkpt><trkpt lat="45.7952441" lon="13.8011314"><ele>261.0</ele><time>2026-03-28T15:08:49.077Z</time></trkpt><trkpt lat="45.7953268" lon="13.8009886"><ele>262.25</ele><time>2026-03-28T15:08:50.088Z</time></trkpt><trkpt lat="45.7954155" lon="13.8008428"><ele>263.5</ele><time>2026-03-28T15:08:51.077Z</time></trkpt><trkpt lat="45.7955088" lon="13.8006948"><ele>264.75</ele><time>2026-03-28T15:08:52.083Z</time></trkpt><trkpt lat="45.7956079" lon="13.8005343"><ele>266.0</ele><time>2026-03-28T15:08:53.066Z</time></trkpt><trkpt lat="45.7957024" lon="13.8003789"><ele>266.0</ele><time>2026-03-28T15:08:54.079Z</time></trkpt><trkpt lat="45.7957921" lon="13.8002367"><ele>266.0</ele><time>2026-03-28T15:08:55.08Z</time></trkpt><trkpt lat="45.7958712" lon="13.8001002"><ele>266.0</ele><time>2026-03-28T15:08:56.093Z</time></trkpt><trkpt lat="45.7959503" lon="13.7999625"><ele>266.0</ele><time>2026-03-28T15:08:57.084Z</time></trkpt><trkpt lat="45.7960368" lon="13.7998191"><ele>266.0</ele><time>2026-03-28T15:08:58.087Z</time></trkpt><trkpt lat="45.7961293" lon="13.7996725"><ele>266.0</ele><time>2026-03-28T15:08:59.081Z</time></trkpt><trkpt lat="45.79622" lon="13.7995273"><ele>266.0</ele><time>2026-03-28T15:09:00.078Z</time></trkpt><trkpt lat="45.7963072" lon="13.7993792"><ele>266.0</ele><time>2026-03-28T15:09:01.089Z</time></trkpt><trkpt lat="45.7963943" lon="13.7992311"><ele>266.0</ele><time>2026-03-28T15:09:02.069Z</time></trkpt><trkpt lat="45.7964801" lon="13.7990817"><ele>266.0</ele><time>2026-03-28T15:09:03.072Z</time></trkpt><trkpt lat="45.7965682" lon="13.798924"><ele>266.0</ele><time>2026-03-28T15:09:04.077Z</time></trkpt><trkpt lat="45.796658" lon="13.7987683"><ele>266.0</ele><time>2026-03-28T15:09:05.065Z</time></trkpt><trkpt lat="45.7967506" lon="13.7986166"><ele>266.75</ele><time>2026-03-28T15:09:06.08Z</time></trkpt><trkpt lat="45.7968475" lon="13.7984638"><ele>267.5</ele><time>2026-03-28T15:09:07.07Z</time></trkpt><trkpt lat="45.7969424" lon="13.7983166"><ele>268.25</ele><time>2026-03-28T15:09:08.071Z</time></trkpt><trkpt lat="45.7970307" lon="13.7981687"><ele>269.0</ele><time>2026-03-28T15:09:09.062Z</time></trkpt><trkpt lat="45.797109" lon="13.7980238"><ele>269.0</ele><time>2026-03-28T15:09:10.072Z</time></trkpt><trkpt lat="45.7971857" lon="13.7978779"><ele>269.0</ele><time>2026-03-28T15:09:11.086Z</time></trkpt><trkpt lat="45.7972691" lon="13.7977339"><ele>269.0</ele><time>2026-03-28T15:09:12.072Z</time></trkpt><trkpt lat="45.7973598" lon="13.7975962"><ele>269.0</ele><time>2026-03-28T15:09:13.091Z</time></trkpt><trkpt lat="45.7974536" lon="13.7974559"><ele>269.0</ele><time>2026-03-28T15:09:14.074Z</time></trkpt><trkpt lat="45.7975481" lon="13.7973107"><ele>269.0</ele><time>2026-03-28T15:09:15.072Z</time></trkpt><trkpt lat="45.7976424" lon="13.7971549"><ele>269.0</ele><time>2026-03-28T15:09:16.07Z</time></trkpt><trkpt lat="45.797732" lon="13.7969992"><ele>269.0</ele><time>2026-03-28T15:09:17.069Z</time></trkpt><trkpt lat="45.7978237" lon="13.7968407"><ele>269.75</ele><time>2026-03-28T15:09:18.068Z</time></trkpt><trkpt lat="45.7979194" lon="13.7966818"><ele>270.5</ele><time>2026-03-28T15:09:19.076Z</time></trkpt><trkpt lat="45.7980151" lon="13.7965218"><ele>271.25</ele><time>2026-03-28T15:09:20.073Z</time></trkpt><trkpt lat="45.7981114" lon="13.7963587"><ele>272.0</ele><time>2026-03-28T15:09:21.07Z</time></trkpt><trkpt lat="45.7982065" lon="13.7961957"><ele>272.0</ele><time>2026-03-28T15:09:22.087Z</time></trkpt><trkpt lat="45.7983044" lon="13.7960332"><ele>272.0</ele><time>2026-03-28T15:09:23.068Z</time></trkpt><trkpt lat="45.7984013" lon="13.7958722"><ele>272.0</ele><time>2026-03-28T15:09:24.07Z</time></trkpt><trkpt lat="45.7984956" lon="13.7957158"><ele>272.0</ele><time>2026-03-28T15:09:25.075Z</time></trkpt><trkpt lat="45.798592" lon="13.7955563"><ele>273.6666666666667</ele><time>2026-03-28T15:09:26.069Z</time></trkpt><trkpt lat="45.7986869" lon="13.7953915"><ele>275.3333333333333</ele><time>2026-03-28T15:09:27.072Z</time></trkpt><trkpt lat="45.7987853" lon="13.7952225"><ele>277.0</ele><time>2026-03-28T15:09:28.083Z</time></trkpt><trkpt lat="45.7988856" lon="13.7950615"><ele>277.0</ele><time>2026-03-28T15:09:29.074Z</time></trkpt><trkpt lat="45.7989813" lon="13.7949028"><ele>277.0</ele><time>2026-03-28T15:09:30.067Z</time></trkpt><trkpt lat="45.799072" lon="13.7947465"><ele>277.0</ele><time>2026-03-28T15:09:31.08Z</time></trkpt><trkpt lat="45.7991591" lon="13.7945965"><ele>277.0</ele><time>2026-03-28T15:09:32.076Z</time></trkpt><trkpt lat="45.7992462" lon="13.7944528"><ele>277.0</ele><time>2026-03-28T15:09:33.079Z</time></trkpt><trkpt lat="45.7993332" lon="13.794308"><ele>277.0</ele><time>2026-03-28T15:09:34.078Z</time></trkpt><trkpt lat="45.7994198" lon="13.7941628"><ele>277.0</ele><time>2026-03-28T15:09:35.083Z</time></trkpt><trkpt lat="45.7995008" lon="13.7940232"><ele>277.0</ele><time>2026-03-28T15:09:36.078Z</time></trkpt><trkpt lat="45.7995809" lon="13.7938854"><ele>277.0</ele><time>2026-03-28T15:09:37.077Z</time></trkpt><trkpt lat="45.7996605" lon="13.7937477"><ele>277.0</ele><time>2026-03-28T15:09:38.073Z</time></trkpt><trkpt lat="45.7997438" lon="13.7936077"><ele>277.0</ele><time>2026-03-28T15:09:39.07Z</time></trkpt><trkpt lat="45.7998297" lon="13.7934663"><ele>277.0</ele><time>2026-03-28T15:09:40.088Z</time></trkpt><trkpt lat="45.7999164" lon="13.7933332"><ele>277.0</ele><time>2026-03-28T15:09:41.072Z</time></trkpt><trkpt lat="45.8000049" lon="13.7932101"><ele>277.0</ele><time>2026-03-28T15:09:42.079Z</time></trkpt><trkpt lat="45.8001035" lon="13.7930921"><ele>277.0</ele><time>2026-03-28T15:09:43.074Z</time></trkpt><trkpt lat="45.8002058" lon="13.7929725"><ele>277.0</ele><time>2026-03-28T15:09:44.071Z</time></trkpt><trkpt lat="45.8003192" lon="13.7928561"><ele>277.25</ele><time>2026-03-28T15:09:45.081Z</time></trkpt><trkpt lat="45.8004378" lon="13.7927396"><ele>277.5</ele><time>2026-03-28T15:09:46.082Z</time></trkpt><trkpt lat="45.800555" lon="13.7926282"><ele>277.75</ele><time>2026-03-28T15:09:47.072Z</time></trkpt><trkpt lat="45.8006683" lon="13.7925129"><ele>278.0</ele><time>2026-03-28T15:09:48.083Z</time></trkpt><trkpt lat="45.8007749" lon="13.7924033"><ele>278.0</ele><time>2026-03-28T15:09:49.071Z</time></trkpt><trkpt lat="45.8008795" lon="13.7922943"><ele>278.0</ele><time>2026-03-28T15:09:50.081Z</time></trkpt><trkpt lat="45.8009851" lon="13.7921887"><ele>278.0</ele><time>2026-03-28T15:09:51.08Z</time></trkpt><trkpt lat="45.801091" lon="13.792082"><ele>278.0</ele><time>2026-03-28T15:09:52.078Z</time></trkpt><trkpt lat="45.8011955" lon="13.7919786"><ele>278.75</ele><time>2026-03-28T15:09:53.071Z</time></trkpt><trkpt lat="45.8013064" lon="13.7918764"><ele>279.5</ele><time>2026-03-28T15:09:54.068Z</time></trkpt><trkpt lat="45.8014216" lon="13.7917612"><ele>280.25</ele><time>2026-03-28T15:09:55.089Z</time></trkpt><trkpt lat="45.8015355" lon="13.791636"><ele>281.0</ele><time>2026-03-28T15:09:56.074Z</time></trkpt><trkpt lat="45.8016352" lon="13.7915055"><ele>281.25</ele><time>2026-03-28T15:09:57.076Z</time></trkpt><trkpt lat="45.80172" lon="13.7913713"><ele>281.5</ele><time>2026-03-28T15:09:58.077Z</time></trkpt><trkpt lat="45.8017922" lon="13.7912278"><ele>281.75</ele><time>2026-03-28T15:09:59.085Z</time></trkpt><trkpt lat="45.8018571" lon="13.7910631"><ele>282.0</ele><time>2026-03-28T15:10:00.08Z</time></trkpt><trkpt lat="45.8019201" lon="13.7908996"><ele>281.5</ele><time>2026-03-28T15:10:01.077Z</time></trkpt><trkpt lat="45.8019886" lon="13.7907371"><ele>281.0</ele><time>2026-03-28T15:10:02.081Z</time></trkpt><trkpt lat="45.8020585" lon="13.7905946"><ele>280.5</ele><time>2026-03-28T15:10:03.074Z</time></trkpt><trkpt lat="45.8021308" lon="13.790471"><ele>280.0</ele><time>2026-03-28T15:10:04.076Z</time></trkpt><trkpt lat="45.8021986" lon="13.7903607"><ele>280.0</ele><time>2026-03-28T15:10:05.072Z</time></trkpt><trkpt lat="45.8022702" lon="13.79026"><ele>280.0</ele><time>2026-03-28T15:10:06.082Z</time></trkpt><trkpt lat="45.8023455" lon="13.7901651"><ele>280.0</ele><time>2026-03-28T15:10:07.081Z</time></trkpt><trkpt lat="45.8024256" lon="13.7900725"><ele>280.0</ele><time>2026-03-28T15:10:08.075Z</time></trkpt><trkpt lat="45.8025091" lon="13.7899799"><ele>280.0</ele><time>2026-03-28T15:10:09.076Z</time></trkpt><trkpt lat="45.8025929" lon="13.7898934"><ele>279.4</ele><time>2026-03-28T15:10:10.075Z</time></trkpt><trkpt lat="45.8026762" lon="13.7898063"><ele>278.8</ele><time>2026-03-28T15:10:11.069Z</time></trkpt><trkpt lat="45.8027546" lon="13.7897204"><ele>278.2</ele><time>2026-03-28T15:10:12.076Z</time></trkpt><trkpt lat="45.8028293" lon="13.7896243"><ele>277.6</ele><time>2026-03-28T15:10:13.076Z</time></trkpt><trkpt lat="45.8028961" lon="13.7895182"><ele>277.0</ele><time>2026-03-28T15:10:14.081Z</time></trkpt><trkpt lat="45.8029554" lon="13.7894018"><ele>276.8</ele><time>2026-03-28T15:10:15.062Z</time></trkpt><trkpt lat="45.8030033" lon="13.7892724"><ele>276.6</ele><time>2026-03-28T15:10:16.09Z</time></trkpt><trkpt lat="45.8030498" lon="13.7891416"><ele>276.40000000000003</ele><time>2026-03-28T15:10:17.072Z</time></trkpt><trkpt lat="45.8030935" lon="13.7890086"><ele>276.2</ele><time>2026-03-28T15:10:18.069Z</time></trkpt><trkpt lat="45.8031372" lon="13.7888718"><ele>276.0</ele><time>2026-03-28T15:10:19.07Z</time></trkpt><trkpt lat="45.8031782" lon="13.7887294"><ele>276.0</ele><time>2026-03-28T15:10:20.069Z</time></trkpt><trkpt lat="45.8032141" lon="13.7885919"><ele>276.0</ele><time>2026-03-28T15:10:21.07Z</time></trkpt><trkpt lat="45.8032477" lon="13.7884564"><ele>276.0</ele><time>2026-03-28T15:10:22.08Z</time></trkpt><trkpt lat="45.8032879" lon="13.7883109"><ele>276.0</ele><time>2026-03-28T15:10:23.084Z</time></trkpt><trkpt lat="45.8033353" lon="13.788158"><ele>276.0</ele><time>2026-03-28T15:10:24.077Z</time></trkpt><trkpt lat="45.8033889" lon="13.7880107"><ele>276.0</ele><time>2026-03-28T15:10:25.071Z</time></trkpt><trkpt lat="45.8034451" lon="13.7878687"><ele>276.0</ele><time>2026-03-28T15:10:26.08Z</time></trkpt><trkpt lat="45.8035092" lon="13.7877341"><ele>276.0</ele><time>2026-03-28T15:10:27.072Z</time></trkpt><trkpt lat="45.8035765" lon="13.7876133"><ele>276.0</ele><time>2026-03-28T15:10:28.078Z</time></trkpt><trkpt lat="45.8036486" lon="13.7875115"><ele>276.0</ele><time>2026-03-28T15:10:29.073Z</time></trkpt><trkpt lat="45.8037162" lon="13.7874147"><ele>275.8333333333333</ele><time>2026-03-28T15:10:30.077Z</time></trkpt><trkpt lat="45.803778" lon="13.7873226"><ele>275.6666666666667</ele><time>2026-03-28T15:10:31.078Z</time></trkpt><trkpt lat="45.8038323" lon="13.7872279"><ele>275.5</ele><time>2026-03-28T15:10:32.083Z</time></trkpt><trkpt lat="45.8038728" lon="13.7871417"><ele>275.33333333333337</ele><time>2026-03-28T15:10:33.075Z</time></trkpt><trkpt lat="45.80388" lon="13.7869906"><ele>275.1666666666667</ele><time>2026-03-28T15:10:35.066Z</time></trkpt><trkpt lat="45.8038536" lon="13.786906"><ele>275.0</ele><time>2026-03-28T15:10:36.07Z</time></trkpt><trkpt lat="45.8038177" lon="13.7868123"><ele>275.5</ele><time>2026-03-28T15:10:37.071Z</time></trkpt><trkpt lat="45.803777" lon="13.786705"><ele>276.0</ele><time>2026-03-28T15:10:38.063Z</time></trkpt><trkpt lat="45.8037413" lon="13.7865905"><ele>276.5</ele><time>2026-03-28T15:10:39.087Z</time></trkpt><trkpt lat="45.8037041" lon="13.7864832"><ele>277.0</ele><time>2026-03-28T15:10:40.067Z</time></trkpt><trkpt lat="45.803672" lon="13.7863621"><ele>277.5</ele><time>2026-03-28T15:10:41.074Z</time></trkpt><trkpt lat="45.8036502" lon="13.7862281"><ele>278.0</ele><time>2026-03-28T15:10:42.07Z</time></trkpt><trkpt lat="45.8036307" lon="13.7860908"><ele>278.5</ele><time>2026-03-28T15:10:43.081Z</time></trkpt><trkpt lat="45.803616" lon="13.785966"><ele>279.0</ele><time>2026-03-28T15:10:44.075Z</time></trkpt><trkpt lat="45.8036045" lon="13.7858529"><ele>279.5</ele><time>2026-03-28T15:10:45.069Z</time></trkpt><trkpt lat="45.8035967" lon="13.7857403"><ele>280.0</ele><time>2026-03-28T15:10:46.083Z</time></trkpt><trkpt lat="45.8035778" lon="13.7856346"><ele>280.5</ele><time>2026-03-28T15:10:47.081Z</time></trkpt><trkpt lat="45.803546" lon="13.7855406"><ele>281.0</ele><time>2026-03-28T15:10:48.075Z</time></trkpt><trkpt lat="45.8035077" lon="13.7854478"><ele>280.83333333333337</ele><time>2026-03-28T15:10:49.085Z</time></trkpt><trkpt lat="45.8034634" lon="13.7853601"><ele>280.6666666666667</ele><time>2026-03-28T15:10:50.07Z</time></trkpt><trkpt lat="45.8034229" lon="13.7852784"><ele>280.5</ele><time>2026-03-28T15:10:51.066Z</time></trkpt><trkpt lat="45.8033846" lon="13.7852049"><ele>280.3333333333333</ele><time>2026-03-28T15:10:52.071Z</time></trkpt><trkpt lat="45.8033474" lon="13.7851317"><ele>280.16666666666663</ele><time>2026-03-28T15:10:53.07Z</time></trkpt><trkpt lat="45.803298" lon="13.7849719"><ele>280.0</ele><time>2026-03-28T15:10:55.089Z</time></trkpt><trkpt lat="45.8032704" lon="13.7847987"><ele>279.0</ele><time>2026-03-28T15:10:57.063Z</time></trkpt><trkpt lat="45.8032768" lon="13.784652"><ele>278.0</ele><time>2026-03-28T15:10:59.062Z</time></trkpt><trkpt lat="45.8032626" lon="13.7845295"><ele>277.0</ele><time>2026-03-28T15:11:01.068Z</time></trkpt><trkpt lat="45.8032187" lon="13.7844092"><ele>276.0</ele><time>2026-03-28T15:11:03.068Z</time></trkpt><trkpt lat="45.8032234" lon="13.7842521"><ele>275.0</ele><time>2026-03-28T15:11:05.08Z</time></trkpt><trkpt lat="45.8032321" lon="13.7840756"><ele>274.57142857142856</ele><time>2026-03-28T15:11:07.083Z</time></trkpt><trkpt lat="45.8032341" lon="13.783984"><ele>274.1428571428571</ele><time>2026-03-28T15:11:08.064Z</time></trkpt><trkpt lat="45.803232" lon="13.7838871"><ele>273.71428571428567</ele><time>2026-03-28T15:11:09.067Z</time></trkpt><trkpt lat="45.8032336" lon="13.7837943"><ele>273.2857142857143</ele><time>2026-03-28T15:11:10.083Z</time></trkpt><trkpt lat="45.8032328" lon="13.7837011"><ele>272.85714285714283</ele><time>2026-03-28T15:11:11.072Z</time></trkpt><trkpt lat="45.8032248" lon="13.7835691"><ele>272.4285714285714</ele><time>2026-03-28T15:11:13.069Z</time></trkpt><trkpt lat="45.8032183" lon="13.7834663"><ele>272.0</ele><time>2026-03-28T15:11:16.084Z</time></trkpt><trkpt lat="45.8032595" lon="13.783361"><ele>271.1666666666667</ele><time>2026-03-28T15:11:20.066Z</time></trkpt><trkpt lat="45.803268" lon="13.7831953"><ele>270.33333333333337</ele><time>2026-03-28T15:11:22.071Z</time></trkpt><trkpt lat="45.8032706" lon="13.7830965"><ele>269.5</ele><time>2026-03-28T15:11:23.07Z</time></trkpt><trkpt lat="45.8032681" lon="13.782994"><ele>268.6666666666667</ele><time>2026-03-28T15:11:24.077Z</time></trkpt><trkpt lat="45.803261" lon="13.7828888"><ele>267.8333333333333</ele><time>2026-03-28T15:11:25.075Z</time></trkpt><trkpt lat="45.8032343" lon="13.7827736"><ele>267.0</ele><time>2026-03-28T15:11:26.09Z</time></trkpt><trkpt lat="45.8031965" lon="13.7826505"><ele>265.8333333333333</ele><time>2026-03-28T15:11:27.074Z</time></trkpt><trkpt lat="45.8031636" lon="13.7825231"><ele>264.6666666666667</ele><time>2026-03-28T15:11:28.076Z</time></trkpt><trkpt lat="45.8031374" lon="13.7823947"><ele>263.5</ele><time>2026-03-28T15:11:29.08Z</time></trkpt><trkpt lat="45.803117" lon="13.7822786"><ele>262.33333333333337</ele><time>2026-03-28T15:11:30.081Z</time></trkpt><trkpt lat="45.8031066" lon="13.7821817"><ele>261.1666666666667</ele><time>2026-03-28T15:11:31.084Z</time></trkpt><trkpt lat="45.8031135" lon="13.7820565"><ele>260.0</ele><time>2026-03-28T15:11:33.085Z</time></trkpt><trkpt lat="45.8030721" lon="13.781988"><ele>260.0</ele><time>2026-03-28T15:11:37.071Z</time></trkpt><trkpt lat="45.803066" lon="13.7820932"><ele>260.0</ele><time>2026-03-28T15:11:40.084Z</time></trkpt><trkpt lat="45.8031159" lon="13.7822283"><ele>260.0</ele><time>2026-03-28T15:11:42.071Z</time></trkpt><trkpt lat="45.8031358" lon="13.7823212"><ele>260.0</ele><time>2026-03-28T15:11:43.084Z</time></trkpt><trkpt lat="45.8031474" lon="13.7824314"><ele>260.0</ele><time>2026-03-28T15:11:44.08Z</time></trkpt><trkpt lat="45.8031647" lon="13.7825335"><ele>260.0</ele><time>2026-03-28T15:11:45.08Z</time></trkpt><trkpt lat="45.8031874" lon="13.7826345"><ele>261.1666666666667</ele><time>2026-03-28T15:11:46.084Z</time></trkpt><trkpt lat="45.8032089" lon="13.7827355"><ele>262.33333333333337</ele><time>2026-03-28T15:11:47.084Z</time></trkpt><trkpt lat="45.8032338" lon="13.782834"><ele>263.5</ele><time>2026-03-28T15:11:48.079Z</time></trkpt><trkpt lat="45.8032591" lon="13.7829364"><ele>264.6666666666667</ele><time>2026-03-28T15:11:49.086Z</time></trkpt><trkpt lat="45.803281" lon="13.7830469"><ele>265.8333333333333</ele><time>2026-03-28T15:11:50.068Z</time></trkpt><trkpt lat="45.8032804" lon="13.7831495"><ele>267.0</ele><time>2026-03-28T15:11:51.084Z</time></trkpt><trkpt lat="45.8032679" lon="13.7833009"><ele>267.0</ele><time>2026-03-28T15:11:53.089Z</time></trkpt><trkpt lat="45.8032998" lon="13.7834105"><ele>267.0</ele><time>2026-03-28T15:11:55.078Z</time></trkpt><trkpt lat="45.8034287" lon="13.7834768"><ele>267.0</ele><time>2026-03-28T15:11:57.07Z</time></trkpt><trkpt lat="45.8035013" lon="13.7834974"><ele>267.0</ele><time>2026-03-28T15:11:58.085Z</time></trkpt><trkpt lat="45.8036189" lon="13.7835312"><ele>267.0</ele><time>2026-03-28T15:12:00.078Z</time></trkpt><trkpt lat="45.8037399" lon="13.7835738"><ele>269.0</ele><time>2026-03-28T15:12:02.082Z</time></trkpt><trkpt lat="45.8038153" lon="13.7836073"><ele>271.0</ele><time>2026-03-28T15:12:03.078Z</time></trkpt><trkpt lat="45.8039014" lon="13.7836329"><ele>273.0</ele><time>2026-03-28T15:12:04.081Z</time></trkpt><trkpt lat="45.8039951" lon="13.7836507"><ele>275.0</ele><time>2026-03-28T15:12:05.077Z</time></trkpt><trkpt lat="45.8041024" lon="13.7836607"><ele>277.0</ele><time>2026-03-28T15:12:06.079Z</time></trkpt><trkpt lat="45.8042202" lon="13.7836505"><ele>276.4</ele><time>2026-03-28T15:12:07.079Z</time></trkpt><trkpt lat="45.8043349" lon="13.7836306"><ele>275.79999999999995</ele><time>2026-03-28T15:12:08.078Z</time></trkpt><trkpt lat="45.8044398" lon="13.7835949"><ele>275.2</ele><time>2026-03-28T15:12:09.074Z</time></trkpt><trkpt lat="45.8045275" lon="13.7835403"><ele>274.59999999999997</ele><time>2026-03-28T15:12:10.09Z</time></trkpt><trkpt lat="45.8046112" lon="13.7834762"><ele>274.0</ele><time>2026-03-28T15:12:11.078Z</time></trkpt><trkpt lat="45.8046982" lon="13.7834129"><ele>272.5</ele><time>2026-03-28T15:12:12.072Z</time></trkpt><trkpt lat="45.8048014" lon="13.7833575"><ele>271.0</ele><time>2026-03-28T15:12:13.076Z</time></trkpt><trkpt lat="45.804918" lon="13.7833276"><ele>269.5</ele><time>2026-03-28T15:12:14.071Z</time></trkpt><trkpt lat="45.8050325" lon="13.7832852"><ele>268.0</ele><time>2026-03-28T15:12:15.081Z</time></trkpt><trkpt lat="45.8051337" lon="13.7832224"><ele>268.5</ele><time>2026-03-28T15:12:16.071Z</time></trkpt><trkpt lat="45.8052334" lon="13.7831245"><ele>269.0</ele><time>2026-03-28T15:12:17.078Z</time></trkpt><trkpt lat="45.8053379" lon="13.7829989"><ele>269.5</ele><time>2026-03-28T15:12:18.074Z</time></trkpt><trkpt lat="45.8054543" lon="13.7828792"><ele>270.0</ele><time>2026-03-28T15:12:19.079Z</time></trkpt><trkpt lat="45.8055697" lon="13.7827889"><ele>270.0</ele><time>2026-03-28T15:12:20.076Z</time></trkpt><trkpt lat="45.8056719" lon="13.7826892"><ele>270.0</ele><time>2026-03-28T15:12:21.071Z</time></trkpt><trkpt lat="45.8057625" lon="13.7825583"><ele>270.0</ele><time>2026-03-28T15:12:22.082Z</time></trkpt><trkpt lat="45.8058415" lon="13.7824165"><ele>270.0</ele><time>2026-03-28T15:12:23.082Z</time></trkpt><trkpt lat="45.8059172" lon="13.782295"><ele>270.75</ele><time>2026-03-28T15:12:24.082Z</time></trkpt><trkpt lat="45.8060087" lon="13.782193"><ele>271.5</ele><time>2026-03-28T15:12:25.079Z</time></trkpt><trkpt lat="45.8061045" lon="13.7820987"><ele>272.25</ele><time>2026-03-28T15:12:26.104Z</time></trkpt><trkpt lat="45.8061994" lon="13.7820074"><ele>273.0</ele><time>2026-03-28T15:12:27.078Z</time></trkpt><trkpt lat="45.806289" lon="13.7819215"><ele>274.0</ele><time>2026-03-28T15:12:28.078Z</time></trkpt><trkpt lat="45.8063819" lon="13.7818404"><ele>275.0</ele><time>2026-03-28T15:12:29.077Z</time></trkpt><trkpt lat="45.8064804" lon="13.7817732"><ele>276.0</ele><time>2026-03-28T15:12:30.074Z</time></trkpt><trkpt lat="45.806567" lon="13.7817046"><ele>277.0</ele><time>2026-03-28T15:12:31.087Z</time></trkpt><trkpt lat="45.8066353" lon="13.7816265"><ele>278.0</ele><time>2026-03-28T15:12:32.067Z</time></trkpt><trkpt lat="45.8066883" lon="13.7815293"><ele>278.0</ele><time>2026-03-28T15:12:33.068Z</time></trkpt><trkpt lat="45.8067334" lon="13.7814305"><ele>278.0</ele><time>2026-03-28T15:12:34.078Z</time></trkpt><trkpt lat="45.8067814" lon="13.7813407"><ele>278.0</ele><time>2026-03-28T15:12:35.077Z</time></trkpt><trkpt lat="45.8068417" lon="13.7812734"><ele>278.0</ele><time>2026-03-28T15:12:36.089Z</time></trkpt><trkpt lat="45.8069176" lon="13.7812193"><ele>278.0</ele><time>2026-03-28T15:12:37.07Z</time></trkpt><trkpt lat="45.8069948" lon="13.781158"><ele>278.0</ele><time>2026-03-28T15:12:38.073Z</time></trkpt><trkpt lat="45.8070731" lon="13.7810882"><ele>278.0</ele><time>2026-03-28T15:12:39.082Z</time></trkpt><trkpt lat="45.8071462" lon="13.7810214"><ele>278.0</ele><time>2026-03-28T15:12:40.08Z</time></trkpt><trkpt lat="45.8072133" lon="13.7809531"><ele>278.0</ele><time>2026-03-28T15:12:41.098Z</time></trkpt><trkpt lat="45.8072831" lon="13.7808865"><ele>278.0</ele><time>2026-03-28T15:12:42.069Z</time></trkpt><trkpt lat="45.8073583" lon="13.7808161"><ele>278.0</ele><time>2026-03-28T15:12:43.087Z</time></trkpt><trkpt lat="45.8074405" lon="13.780737"><ele>278.0</ele><time>2026-03-28T15:12:44.082Z</time></trkpt><trkpt lat="45.8075201" lon="13.7806502"><ele>278.5</ele><time>2026-03-28T15:12:45.077Z</time></trkpt><trkpt lat="45.8075929" lon="13.7805628"><ele>279.0</ele><time>2026-03-28T15:12:46.073Z</time></trkpt><trkpt lat="45.8076576" lon="13.7804738"><ele>279.5</ele><time>2026-03-28T15:12:47.068Z</time></trkpt><trkpt lat="45.8077197" lon="13.7803869"><ele>280.0</ele><time>2026-03-28T15:12:48.08Z</time></trkpt><trkpt lat="45.8077783" lon="13.7803039"><ele>280.5</ele><time>2026-03-28T15:12:49.077Z</time></trkpt><trkpt lat="45.8078307" lon="13.7802152"><ele>281.0</ele><time>2026-03-28T15:12:50.083Z</time></trkpt><trkpt lat="45.8078786" lon="13.7801295"><ele>279.40000000000003</ele><time>2026-03-28T15:12:51.081Z</time></trkpt><trkpt lat="45.8079395" lon="13.7800789"><ele>277.8</ele><time>2026-03-28T15:12:52.069Z</time></trkpt><trkpt lat="45.8080295" lon="13.7800649"><ele>276.20000000000005</ele><time>2026-03-28T15:12:53.065Z</time></trkpt><trkpt lat="45.8081293" lon="13.7800914"><ele>274.6</ele><time>2026-03-28T15:12:54.069Z</time></trkpt><trkpt lat="45.8082298" lon="13.7801411"><ele>273.0</ele><time>2026-03-28T15:12:55.067Z</time></trkpt><trkpt lat="45.8083282" lon="13.7802067"><ele>273.0</ele><time>2026-03-28T15:12:56.083Z</time></trkpt><trkpt lat="45.8084221" lon="13.7802931"><ele>273.0</ele><time>2026-03-28T15:12:57.066Z</time></trkpt><trkpt lat="45.8085009" lon="13.7803937"><ele>273.0</ele><time>2026-03-28T15:12:58.071Z</time></trkpt><trkpt lat="45.8085659" lon="13.7804914"><ele>273.0</ele><time>2026-03-28T15:12:59.067Z</time></trkpt><trkpt lat="45.8086191" lon="13.7805818"><ele>273.0</ele><time>2026-03-28T15:13:00.059Z</time></trkpt><trkpt lat="45.8086708" lon="13.780664"><ele>270.8</ele><time>2026-03-28T15:13:01.068Z</time></trkpt><trkpt lat="45.808743" lon="13.7807195"><ele>268.6</ele><time>2026-03-28T15:13:02.076Z</time></trkpt><trkpt lat="45.8088366" lon="13.7807404"><ele>266.4</ele><time>2026-03-28T15:13:03.073Z</time></trkpt><trkpt lat="45.8089528" lon="13.7807103"><ele>264.2</ele><time>2026-03-28T15:13:04.065Z</time></trkpt><trkpt lat="45.8090749" lon="13.780666"><ele>262.0</ele><time>2026-03-28T15:13:05.06Z</time></trkpt><trkpt lat="45.8091979" lon="13.7806142"><ele>262.0</ele><time>2026-03-28T15:13:06.074Z</time></trkpt><trkpt lat="45.8093111" lon="13.7805562"><ele>262.0</ele><time>2026-03-28T15:13:07.068Z</time></trkpt><trkpt lat="45.8094234" lon="13.7804863"><ele>262.0</ele><time>2026-03-28T15:13:08.075Z</time></trkpt><trkpt lat="45.8095366" lon="13.7804184"><ele>262.0</ele><time>2026-03-28T15:13:09.067Z</time></trkpt><trkpt lat="45.8096641" lon="13.7804027"><ele>261.3333333333333</ele><time>2026-03-28T15:13:10.074Z</time></trkpt><trkpt lat="45.8098116" lon="13.7804325"><ele>260.6666666666667</ele><time>2026-03-28T15:13:11.063Z</time></trkpt><trkpt lat="45.8099703" lon="13.7804469"><ele>260.0</ele><time>2026-03-28T15:13:12.054Z</time></trkpt><trkpt lat="45.8101378" lon="13.7804313"><ele>259.6666666666667</ele><time>2026-03-28T15:13:13.069Z</time></trkpt><trkpt lat="45.8103061" lon="13.7803693"><ele>259.3333333333333</ele><time>2026-03-28T15:13:14.063Z</time></trkpt><trkpt lat="45.8104654" lon="13.7802779"><ele>259.0</ele><time>2026-03-28T15:13:15.072Z</time></trkpt><trkpt lat="45.8106103" lon="13.7801488"><ele>259.0</ele><time>2026-03-28T15:13:16.059Z</time></trkpt><trkpt lat="45.8107468" lon="13.7799969"><ele>259.0</ele><time>2026-03-28T15:13:17.063Z</time></trkpt><trkpt lat="45.8108744" lon="13.7798642"><ele>259.0</ele><time>2026-03-28T15:13:18.062Z</time></trkpt><trkpt lat="45.8109967" lon="13.779736"><ele>259.0</ele><time>2026-03-28T15:13:19.064Z</time></trkpt><trkpt lat="45.8111046" lon="13.7795844"><ele>259.0</ele><time>2026-03-28T15:13:20.07Z</time></trkpt><trkpt lat="45.8111808" lon="13.7793981"><ele>259.0</ele><time>2026-03-28T15:13:21.059Z</time></trkpt><trkpt lat="45.8112483" lon="13.7792073"><ele>258.5</ele><time>2026-03-28T15:13:22.068Z</time></trkpt><trkpt lat="45.8113345" lon="13.7790286"><ele>258.0</ele><time>2026-03-28T15:13:23.065Z</time></trkpt><trkpt lat="45.8114365" lon="13.7788675"><ele>257.5</ele><time>2026-03-28T15:13:24.073Z</time></trkpt><trkpt lat="45.8115336" lon="13.778721"><ele>257.0</ele><time>2026-03-28T15:13:25.068Z</time></trkpt><trkpt lat="45.8116279" lon="13.7785982"><ele>257.75</ele><time>2026-03-28T15:13:26.065Z</time></trkpt><trkpt lat="45.8117241" lon="13.7784906"><ele>258.5</ele><time>2026-03-28T15:13:27.071Z</time></trkpt><trkpt lat="45.8118263" lon="13.7783998"><ele>259.25</ele><time>2026-03-28T15:13:28.07Z</time></trkpt><trkpt lat="45.8119321" lon="13.7783123"><ele>260.0</ele><time>2026-03-28T15:13:29.071Z</time></trkpt><trkpt lat="45.8120426" lon="13.778228"><ele>260.0</ele><time>2026-03-28T15:13:30.08Z</time></trkpt><trkpt lat="45.8121582" lon="13.7781322"><ele>260.0</ele><time>2026-03-28T15:13:31.067Z</time></trkpt><trkpt lat="45.8122751" lon="13.778019"><ele>260.0</ele><time>2026-03-28T15:13:32.065Z</time></trkpt><trkpt lat="45.8123974" lon="13.7778832"><ele>260.0</ele><time>2026-03-28T15:13:33.067Z</time></trkpt><trkpt lat="45.8125234" lon="13.7777283"><ele>259.6666666666667</ele><time>2026-03-28T15:13:34.075Z</time></trkpt><trkpt lat="45.8126477" lon="13.7775747"><ele>259.3333333333333</ele><time>2026-03-28T15:13:35.07Z</time></trkpt><trkpt lat="45.8127675" lon="13.7774284"><ele>259.0</ele><time>2026-03-28T15:13:36.065Z</time></trkpt><trkpt lat="45.812876" lon="13.7772911"><ele>260.25</ele><time>2026-03-28T15:13:37.076Z</time></trkpt><trkpt lat="45.8129905" lon="13.7771665"><ele>261.5</ele><time>2026-03-28T15:13:38.073Z</time></trkpt><trkpt lat="45.8131063" lon="13.7770425"><ele>262.75</ele><time>2026-03-28T15:13:39.075Z</time></trkpt><trkpt lat="45.8132241" lon="13.7769252"><ele>264.0</ele><time>2026-03-28T15:13:40.067Z</time></trkpt><trkpt lat="45.813345" lon="13.7768318"><ele>264.0</ele><time>2026-03-28T15:13:41.066Z</time></trkpt><trkpt lat="45.8134807" lon="13.7767653"><ele>264.0</ele><time>2026-03-28T15:13:42.07Z</time></trkpt><trkpt lat="45.8136261" lon="13.7767409"><ele>264.0</ele><time>2026-03-28T15:13:43.067Z</time></trkpt><trkpt lat="45.8137735" lon="13.7767022"><ele>264.0</ele><time>2026-03-28T15:13:44.074Z</time></trkpt><trkpt lat="45.8139056" lon="13.7766147"><ele>265.25</ele><time>2026-03-28T15:13:45.069Z</time></trkpt><trkpt lat="45.814011" lon="13.7764781"><ele>266.5</ele><time>2026-03-28T15:13:46.063Z</time></trkpt><trkpt lat="45.8141064" lon="13.7763076"><ele>267.75</ele><time>2026-03-28T15:13:47.063Z</time></trkpt><trkpt lat="45.8141864" lon="13.7761222"><ele>269.0</ele><time>2026-03-28T15:13:48.066Z</time></trkpt><trkpt lat="45.8142606" lon="13.7759196"><ele>269.0</ele><time>2026-03-28T15:13:49.075Z</time></trkpt><trkpt lat="45.814319" lon="13.7757097"><ele>269.0</ele><time>2026-03-28T15:13:50.071Z</time></trkpt><trkpt lat="45.8143761" lon="13.7755128"><ele>269.0</ele><time>2026-03-28T15:13:51.066Z</time></trkpt><trkpt lat="45.8144398" lon="13.7753353"><ele>269.0</ele><time>2026-03-28T15:13:52.086Z</time></trkpt><trkpt lat="45.8145096" lon="13.7751683"><ele>268.75</ele><time>2026-03-28T15:13:53.076Z</time></trkpt><trkpt lat="45.8145831" lon="13.7750158"><ele>268.5</ele><time>2026-03-28T15:13:54.07Z</time></trkpt><trkpt lat="45.8146725" lon="13.7748796"><ele>268.25</ele><time>2026-03-28T15:13:55.079Z</time></trkpt><trkpt lat="45.8147849" lon="13.7747586"><ele>268.0</ele><time>2026-03-28T15:13:56.079Z</time></trkpt><trkpt lat="45.8149145" lon="13.7746793"><ele>268.0</ele><time>2026-03-28T15:13:57.08Z</time></trkpt><trkpt lat="45.8150406" lon="13.774613"><ele>268.0</ele><time>2026-03-28T15:13:58.071Z</time></trkpt><trkpt lat="45.8151553" lon="13.7745512"><ele>268.0</ele><time>2026-03-28T15:13:59.066Z</time></trkpt><trkpt lat="45.8152745" lon="13.7745081"><ele>268.0</ele><time>2026-03-28T15:14:00.073Z</time></trkpt><trkpt lat="45.8153968" lon="13.7745038"><ele>268.4</ele><time>2026-03-28T15:14:01.081Z</time></trkpt><trkpt lat="45.8155158" lon="13.7745261"><ele>268.8</ele><time>2026-03-28T15:14:02.069Z</time></trkpt><trkpt lat="45.8156274" lon="13.7745452"><ele>269.2</ele><time>2026-03-28T15:14:03.073Z</time></trkpt><trkpt lat="45.8157236" lon="13.7745252"><ele>269.6</ele><time>2026-03-28T15:14:04.068Z</time></trkpt><trkpt lat="45.8158066" lon="13.7744677"><ele>270.0</ele><time>2026-03-28T15:14:05.08Z</time></trkpt><trkpt lat="45.8158761" lon="13.7743773"><ele>269.6</ele><time>2026-03-28T15:14:06.073Z</time></trkpt><trkpt lat="45.8159287" lon="13.774278"><ele>269.2</ele><time>2026-03-28T15:14:07.061Z</time></trkpt><trkpt lat="45.8159835" lon="13.7741696"><ele>268.8</ele><time>2026-03-28T15:14:08.063Z</time></trkpt><trkpt lat="45.8160575" lon="13.7740707"><ele>268.4</ele><time>2026-03-28T15:14:09.065Z</time></trkpt><trkpt lat="45.8161468" lon="13.7739803"><ele>268.0</ele><time>2026-03-28T15:14:10.07Z</time></trkpt><trkpt lat="45.8162473" lon="13.7738995"><ele>268.0</ele><time>2026-03-28T15:14:11.067Z</time></trkpt><trkpt lat="45.8163483" lon="13.7738112"><ele>268.0</ele><time>2026-03-28T15:14:12.097Z</time></trkpt><trkpt lat="45.8164403" lon="13.7737209"><ele>268.0</ele><time>2026-03-28T15:14:13.07Z</time></trkpt><trkpt lat="45.8165171" lon="13.7736347"><ele>268.0</ele><time>2026-03-28T15:14:14.072Z</time></trkpt><trkpt lat="45.8165835" lon="13.7735595"><ele>268.0</ele><time>2026-03-28T15:14:15.067Z</time></trkpt><trkpt lat="45.8166424" lon="13.7734769"><ele>267.8</ele><time>2026-03-28T15:14:19.084Z</time></trkpt><trkpt lat="45.8167142" lon="13.7733259"><ele>267.6</ele><time>2026-03-28T15:14:21.073Z</time></trkpt><trkpt lat="45.8167623" lon="13.7732352"><ele>267.4</ele><time>2026-03-28T15:14:22.085Z</time></trkpt><trkpt lat="45.8168263" lon="13.7731396"><ele>267.2</ele><time>2026-03-28T15:14:23.083Z</time></trkpt><trkpt lat="45.8168968" lon="13.7730441"><ele>267.0</ele><time>2026-03-28T15:14:24.084Z</time></trkpt><trkpt lat="45.816966" lon="13.7729539"><ele>268.25</ele><time>2026-03-28T15:14:25.093Z</time></trkpt><trkpt lat="45.8170402" lon="13.7728467"><ele>269.5</ele><time>2026-03-28T15:14:26.08Z</time></trkpt><trkpt lat="45.8171232" lon="13.7727224"><ele>270.75</ele><time>2026-03-28T15:14:27.067Z</time></trkpt><trkpt lat="45.8172063" lon="13.7725876"><ele>272.0</ele><time>2026-03-28T15:14:28.08Z</time></trkpt><trkpt lat="45.8172831" lon="13.7724468"><ele>272.4</ele><time>2026-03-28T15:14:29.074Z</time></trkpt><trkpt lat="45.8173514" lon="13.7723226"><ele>272.79999999999995</ele><time>2026-03-28T15:14:30.087Z</time></trkpt><trkpt lat="45.8174214" lon="13.7722085"><ele>273.2</ele><time>2026-03-28T15:14:31.068Z</time></trkpt><trkpt lat="45.8174947" lon="13.7720988"><ele>273.59999999999997</ele><time>2026-03-28T15:14:32.082Z</time></trkpt><trkpt lat="45.817571" lon="13.7719943"><ele>274.0</ele><time>2026-03-28T15:14:33.071Z</time></trkpt><trkpt lat="45.8176482" lon="13.7718982"><ele>273.59999999999997</ele><time>2026-03-28T15:14:34.062Z</time></trkpt><trkpt lat="45.817725" lon="13.7718116"><ele>273.2</ele><time>2026-03-28T15:14:35.068Z</time></trkpt><trkpt lat="45.8177996" lon="13.7717229"><ele>272.79999999999995</ele><time>2026-03-28T15:14:36.068Z</time></trkpt><trkpt lat="45.8178699" lon="13.7716314"><ele>272.4</ele><time>2026-03-28T15:14:37.067Z</time></trkpt><trkpt lat="45.8179347" lon="13.7715328"><ele>272.0</ele><time>2026-03-28T15:14:38.062Z</time></trkpt><trkpt lat="45.8179989" lon="13.7714327"><ele>272.0</ele><time>2026-03-28T15:14:39.063Z</time></trkpt><trkpt lat="45.8180681" lon="13.7713348"><ele>272.0</ele><time>2026-03-28T15:14:40.069Z</time></trkpt><trkpt lat="45.8181434" lon="13.7712232"><ele>272.0</ele><time>2026-03-28T15:14:41.073Z</time></trkpt><trkpt lat="45.8182164" lon="13.7710839"><ele>272.0</ele><time>2026-03-28T15:14:42.077Z</time></trkpt><trkpt lat="45.8182822" lon="13.7709359"><ele>272.0</ele><time>2026-03-28T15:14:43.066Z</time></trkpt><trkpt lat="45.8183365" lon="13.7707937"><ele>271.6</ele><time>2026-03-28T15:14:44.07Z</time></trkpt><trkpt lat="45.8183917" lon="13.7706664"><ele>271.2</ele><time>2026-03-28T15:14:45.071Z</time></trkpt><trkpt lat="45.8184509" lon="13.7705418"><ele>270.8</ele><time>2026-03-28T15:14:46.073Z</time></trkpt><trkpt lat="45.818515" lon="13.7704249"><ele>270.4</ele><time>2026-03-28T15:14:47.082Z</time></trkpt><trkpt lat="45.8185817" lon="13.7703204"><ele>270.0</ele><time>2026-03-28T15:14:48.064Z</time></trkpt><trkpt lat="45.818645" lon="13.7702271"><ele>269.1666666666667</ele><time>2026-03-28T15:14:49.068Z</time></trkpt><trkpt lat="45.818707" lon="13.7701336"><ele>268.3333333333333</ele><time>2026-03-28T15:14:50.066Z</time></trkpt><trkpt lat="45.818768" lon="13.7700446"><ele>267.5</ele><time>2026-03-28T15:14:51.071Z</time></trkpt><trkpt lat="45.8188237" lon="13.7699599"><ele>266.66666666666663</ele><time>2026-03-28T15:14:52.07Z</time></trkpt><trkpt lat="45.8188437" lon="13.7698528"><ele>265.8333333333333</ele><time>2026-03-28T15:14:53.078Z</time></trkpt><trkpt lat="45.8188541" lon="13.7697267"><ele>265.0</ele><time>2026-03-28T15:14:54.079Z</time></trkpt><trkpt lat="45.8188663" lon="13.7695996"><ele>265.0</ele><time>2026-03-28T15:14:55.067Z</time></trkpt><trkpt lat="45.8188786" lon="13.7694689"><ele>265.0</ele><time>2026-03-28T15:14:56.068Z</time></trkpt><trkpt lat="45.818904" lon="13.7693512"><ele>265.0</ele><time>2026-03-28T15:14:57.075Z</time></trkpt><trkpt lat="45.8189534" lon="13.7692642"><ele>265.0</ele><time>2026-03-28T15:14:58.071Z</time></trkpt><trkpt lat="45.8190173" lon="13.7691937"><ele>265.0</ele><time>2026-03-28T15:14:59.073Z</time></trkpt><trkpt lat="45.8190929" lon="13.7691299"><ele>265.0</ele><time>2026-03-28T15:15:00.061Z</time></trkpt><trkpt lat="45.8191664" lon="13.7690702"><ele>265.0</ele><time>2026-03-28T15:15:01.056Z</time></trkpt><trkpt lat="45.8192358" lon="13.7690154"><ele>265.0</ele><time>2026-03-28T15:15:02.08Z</time></trkpt><trkpt lat="45.8193128" lon="13.768967"><ele>265.0</ele><time>2026-03-28T15:15:03.063Z</time></trkpt><trkpt lat="45.8193986" lon="13.768918"><ele>265.0</ele><time>2026-03-28T15:15:04.078Z</time></trkpt><trkpt lat="45.8194905" lon="13.7688746"><ele>265.0</ele><time>2026-03-28T15:15:05.07Z</time></trkpt><trkpt lat="45.8195839" lon="13.7688431"><ele>265.0</ele><time>2026-03-28T15:15:06.068Z</time></trkpt><trkpt lat="45.8196818" lon="13.7688181"><ele>265.0</ele><time>2026-03-28T15:15:07.091Z</time></trkpt><trkpt lat="45.8197873" lon="13.7687995"><ele>265.0</ele><time>2026-03-28T15:15:08.063Z</time></trkpt><trkpt lat="45.8198885" lon="13.7687963"><ele>265.0</ele><time>2026-03-28T15:15:09.067Z</time></trkpt><trkpt lat="45.8199932" lon="13.7688181"><ele>265.0</ele><time>2026-03-28T15:15:10.056Z</time></trkpt><trkpt lat="45.8201028" lon="13.7688544"><ele>265.0</ele><time>2026-03-28T15:15:11.06Z</time></trkpt><trkpt lat="45.820214" lon="13.7688955"><ele>263.2</ele><time>2026-03-28T15:15:12.064Z</time></trkpt><trkpt lat="45.8203269" lon="13.7689297"><ele>261.4</ele><time>2026-03-28T15:15:13.057Z</time></trkpt><trkpt lat="45.8204281" lon="13.7689618"><ele>259.6</ele><time>2026-03-28T15:15:14.057Z</time></trkpt><trkpt lat="45.8205208" lon="13.7689893"><ele>257.8</ele><time>2026-03-28T15:15:15.063Z</time></trkpt><trkpt lat="45.8206122" lon="13.7690274"><ele>256.0</ele><time>2026-03-28T15:15:16.061Z</time></trkpt><trkpt lat="45.8207039" lon="13.7690913"><ele>256.0</ele><time>2026-03-28T15:15:17.077Z</time></trkpt><trkpt lat="45.8207989" lon="13.7691861"><ele>256.0</ele><time>2026-03-28T15:15:18.073Z</time></trkpt><trkpt lat="45.8208913" lon="13.7692915"><ele>256.0</ele><time>2026-03-28T15:15:19.068Z</time></trkpt><trkpt lat="45.8209877" lon="13.7693967"><ele>256.0</ele><time>2026-03-28T15:15:20.076Z</time></trkpt><trkpt lat="45.8210833" lon="13.769506"><ele>256.5</ele><time>2026-03-28T15:15:21.068Z</time></trkpt><trkpt lat="45.8211815" lon="13.7696158"><ele>257.0</ele><time>2026-03-28T15:15:22.081Z</time></trkpt><trkpt lat="45.8212813" lon="13.7697426"><ele>257.5</ele><time>2026-03-28T15:15:23.069Z</time></trkpt><trkpt lat="45.8213787" lon="13.7698611"><ele>258.0</ele><time>2026-03-28T15:15:24.065Z</time></trkpt><trkpt lat="45.8214645" lon="13.7699743"><ele>258.0</ele><time>2026-03-28T15:15:25.068Z</time></trkpt><trkpt lat="45.8215475" lon="13.7700792"><ele>258.0</ele><time>2026-03-28T15:15:26.065Z</time></trkpt><trkpt lat="45.8216365" lon="13.7701665"><ele>258.0</ele><time>2026-03-28T15:15:27.066Z</time></trkpt><trkpt lat="45.8217331" lon="13.7702462"><ele>258.0</ele><time>2026-03-28T15:15:28.08Z</time></trkpt><trkpt lat="45.8218305" lon="13.7703285"><ele>258.0</ele><time>2026-03-28T15:15:29.069Z</time></trkpt><trkpt lat="45.8219305" lon="13.7704106"><ele>256.25</ele><time>2026-03-28T15:15:30.071Z</time></trkpt><trkpt lat="45.8220289" lon="13.7704965"><ele>254.5</ele><time>2026-03-28T15:15:31.067Z</time></trkpt><trkpt lat="45.8221201" lon="13.7705886"><ele>252.75</ele><time>2026-03-28T15:15:32.062Z</time></trkpt><trkpt lat="45.8222088" lon="13.7706892"><ele>251.0</ele><time>2026-03-28T15:15:33.067Z</time></trkpt><trkpt lat="45.8222948" lon="13.7707883"><ele>251.0</ele><time>2026-03-28T15:15:34.067Z</time></trkpt><trkpt lat="45.8223836" lon="13.770876"><ele>251.00000000000003</ele><time>2026-03-28T15:15:35.065Z</time></trkpt><trkpt lat="45.8224786" lon="13.7709466"><ele>251.00000000000003</ele><time>2026-03-28T15:15:36.069Z</time></trkpt><trkpt lat="45.8225715" lon="13.7710009"><ele>251.0</ele><time>2026-03-28T15:15:37.073Z</time></trkpt><trkpt lat="45.8226653" lon="13.771041"><ele>251.0</ele><time>2026-03-28T15:15:38.068Z</time></trkpt><trkpt lat="45.8227475" lon="13.7710577"><ele>249.33333333333334</ele><time>2026-03-28T15:15:39.06Z</time></trkpt><trkpt lat="45.8228219" lon="13.7710619"><ele>247.66666666666669</ele><time>2026-03-28T15:15:40.075Z</time></trkpt><trkpt lat="45.8228778" lon="13.7710154"><ele>246.0</ele><time>2026-03-28T15:15:41.067Z</time></trkpt><trkpt lat="45.8229237" lon="13.7709255"><ele>244.33333333333331</ele><time>2026-03-28T15:15:42.066Z</time></trkpt><trkpt lat="45.8229682" lon="13.7708119"><ele>242.66666666666666</ele><time>2026-03-28T15:15:43.071Z</time></trkpt><trkpt lat="45.8230146" lon="13.7706914"><ele>241.0</ele><time>2026-03-28T15:15:44.061Z</time></trkpt><trkpt lat="45.8230572" lon="13.7705708"><ele>240.20000000000002</ele><time>2026-03-28T15:15:45.072Z</time></trkpt><trkpt lat="45.8230926" lon="13.7704409"><ele>239.40000000000003</ele><time>2026-03-28T15:15:46.075Z</time></trkpt><trkpt lat="45.8231186" lon="13.770297"><ele>238.6</ele><time>2026-03-28T15:15:47.065Z</time></trkpt><trkpt lat="45.8231455" lon="13.7701566"><ele>237.8</ele><time>2026-03-28T15:15:48.068Z</time></trkpt><trkpt lat="45.8231681" lon="13.7700236"><ele>237.0</ele><time>2026-03-28T15:15:49.066Z</time></trkpt><trkpt lat="45.8231969" lon="13.7698911"><ele>237.0</ele><time>2026-03-28T15:15:50.085Z</time></trkpt><trkpt lat="45.8232359" lon="13.7697625"><ele>237.0</ele><time>2026-03-28T15:15:51.066Z</time></trkpt><trkpt lat="45.8232725" lon="13.7696348"><ele>237.0</ele><time>2026-03-28T15:15:52.071Z</time></trkpt><trkpt lat="45.8233069" lon="13.7694898"><ele>237.0</ele><time>2026-03-28T15:15:53.055Z</time></trkpt><trkpt lat="45.8233406" lon="13.7693385"><ele>237.0</ele><time>2026-03-28T15:15:54.068Z</time></trkpt><trkpt lat="45.8233867" lon="13.7691937"><ele>237.0</ele><time>2026-03-28T15:15:55.073Z</time></trkpt><trkpt lat="45.8234385" lon="13.7690512"><ele>237.0</ele><time>2026-03-28T15:15:56.073Z</time></trkpt><trkpt lat="45.8234958" lon="13.7689284"><ele>237.0</ele><time>2026-03-28T15:15:57.073Z</time></trkpt><trkpt lat="45.8235488" lon="13.7688153"><ele>237.0</ele><time>2026-03-28T15:15:58.069Z</time></trkpt><trkpt lat="45.8236029" lon="13.768708"><ele>237.0</ele><time>2026-03-28T15:15:59.069Z</time></trkpt><trkpt lat="45.8236615" lon="13.7686116"><ele>236.39999999999998</ele><time>2026-03-28T15:16:00.076Z</time></trkpt><trkpt lat="45.8237302" lon="13.7685492"><ele>235.79999999999998</ele><time>2026-03-28T15:16:01.064Z</time></trkpt><trkpt lat="45.8237951" lon="13.7685068"><ele>235.2</ele><time>2026-03-28T15:16:02.067Z</time></trkpt><trkpt lat="45.8238879" lon="13.7684648"><ele>234.6</ele><time>2026-03-28T15:16:04.091Z</time></trkpt><trkpt lat="45.8240005" lon="13.7684844"><ele>234.0</ele><time>2026-03-28T15:16:06.063Z</time></trkpt><trkpt lat="45.8240789" lon="13.7685465"><ele>234.0</ele><time>2026-03-28T15:16:07.057Z</time></trkpt><trkpt lat="45.8241528" lon="13.7686351"><ele>233.99999999999997</ele><time>2026-03-28T15:16:08.061Z</time></trkpt><trkpt lat="45.8242357" lon="13.7687291"><ele>233.99999999999997</ele><time>2026-03-28T15:16:09.064Z</time></trkpt><trkpt lat="45.8243186" lon="13.7688236"><ele>234.0</ele><time>2026-03-28T15:16:10.066Z</time></trkpt><trkpt lat="45.8244024" lon="13.7689129"><ele>234.0</ele><time>2026-03-28T15:16:11.068Z</time></trkpt><trkpt lat="45.8245035" lon="13.7689803"><ele>234.5</ele><time>2026-03-28T15:16:12.068Z</time></trkpt><trkpt lat="45.8246152" lon="13.7690338"><ele>235.0</ele><time>2026-03-28T15:16:13.068Z</time></trkpt><trkpt lat="45.8247357" lon="13.7690884"><ele>235.5</ele><time>2026-03-28T15:16:14.065Z</time></trkpt><trkpt lat="45.8248492" lon="13.76915"><ele>236.0</ele><time>2026-03-28T15:16:15.076Z</time></trkpt><trkpt lat="45.8249623" lon="13.7692043"><ele>236.0</ele><time>2026-03-28T15:16:16.064Z</time></trkpt><trkpt lat="45.825081" lon="13.7692581"><ele>236.0</ele><time>2026-03-28T15:16:17.061Z</time></trkpt><trkpt lat="45.8251969" lon="13.7693282"><ele>236.0</ele><time>2026-03-28T15:16:18.057Z</time></trkpt><trkpt lat="45.8253046" lon="13.7693914"><ele>236.0</ele><time>2026-03-28T15:16:19.069Z</time></trkpt><trkpt lat="45.8254105" lon="13.7694394"><ele>233.75</ele><time>2026-03-28T15:16:20.061Z</time></trkpt><trkpt lat="45.8255212" lon="13.7694527"><ele>231.5</ele><time>2026-03-28T15:16:21.068Z</time></trkpt><trkpt lat="45.8256352" lon="13.7694517"><ele>229.25</ele><time>2026-03-28T15:16:22.062Z</time></trkpt><trkpt lat="45.8257566" lon="13.7694433"><ele>227.0</ele><time>2026-03-28T15:16:23.059Z</time></trkpt><trkpt lat="45.8258798" lon="13.7694211"><ele>227.0</ele><time>2026-03-28T15:16:24.055Z</time></trkpt><trkpt lat="45.8260081" lon="13.7693838"><ele>227.0</ele><time>2026-03-28T15:16:25.071Z</time></trkpt><trkpt lat="45.8261423" lon="13.7693351"><ele>227.0</ele><time>2026-03-28T15:16:26.081Z</time></trkpt><trkpt lat="45.8262738" lon="13.7692983"><ele>227.0</ele><time>2026-03-28T15:16:27.064Z</time></trkpt><trkpt lat="45.8264003" lon="13.7692686"><ele>227.2</ele><time>2026-03-28T15:16:28.061Z</time></trkpt><trkpt lat="45.8265126" lon="13.7692382"><ele>227.39999999999998</ele><time>2026-03-28T15:16:29.059Z</time></trkpt><trkpt lat="45.8266197" lon="13.7692234"><ele>227.60000000000002</ele><time>2026-03-28T15:16:30.061Z</time></trkpt><trkpt lat="45.8267177" lon="13.7692412"><ele>227.8</ele><time>2026-03-28T15:16:31.069Z</time></trkpt><trkpt lat="45.8268076" lon="13.769271"><ele>228.0</ele><time>2026-03-28T15:16:32.062Z</time></trkpt><trkpt lat="45.8268986" lon="13.7692858"><ele>228.0</ele><time>2026-03-28T15:16:33.065Z</time></trkpt><trkpt lat="45.8269969" lon="13.7692645"><ele>228.0</ele><time>2026-03-28T15:16:34.069Z</time></trkpt><trkpt lat="45.8271021" lon="13.7692207"><ele>228.0</ele><time>2026-03-28T15:16:35.063Z</time></trkpt><trkpt lat="45.8272138" lon="13.7691913"><ele>228.0</ele><time>2026-03-28T15:16:36.083Z</time></trkpt><trkpt lat="45.8273158" lon="13.7691937"><ele>228.0</ele><time>2026-03-28T15:16:37.058Z</time></trkpt><trkpt lat="45.8274168" lon="13.7692312"><ele>228.0</ele><time>2026-03-28T15:16:38.058Z</time></trkpt><trkpt lat="45.8275116" lon="13.7692926"><ele>228.0</ele><time>2026-03-28T15:16:39.06Z</time></trkpt><trkpt lat="45.8276044" lon="13.7693786"><ele>228.0</ele><time>2026-03-28T15:16:40.057Z</time></trkpt><trkpt lat="45.8277152" lon="13.7694402"><ele>228.0</ele><time>2026-03-28T15:16:41.067Z</time></trkpt><trkpt lat="45.8278187" lon="13.7694916"><ele>228.0</ele><time>2026-03-28T15:16:42.061Z</time></trkpt><trkpt lat="45.8279131" lon="13.7695238"><ele>228.0</ele><time>2026-03-28T15:16:43.054Z</time></trkpt><trkpt lat="45.8280074" lon="13.7695448"><ele>228.0</ele><time>2026-03-28T15:16:44.06Z</time></trkpt><trkpt lat="45.8281019" lon="13.7695506"><ele>228.0</ele><time>2026-03-28T15:16:45.063Z</time></trkpt><trkpt lat="45.8281924" lon="13.7695371"><ele>228.0</ele><time>2026-03-28T15:16:46.073Z</time></trkpt><trkpt lat="45.8282721" lon="13.7695245"><ele>228.0</ele><time>2026-03-28T15:16:47.059Z</time></trkpt><trkpt lat="45.8283511" lon="13.7695193"><ele>228.0</ele><time>2026-03-28T15:16:48.066Z</time></trkpt><trkpt lat="45.8284374" lon="13.7695522"><ele>229.60000000000002</ele><time>2026-03-28T15:16:49.062Z</time></trkpt><trkpt lat="45.8285221" lon="13.7696165"><ele>231.20000000000002</ele><time>2026-03-28T15:16:50.059Z</time></trkpt><trkpt lat="45.8286077" lon="13.7696778"><ele>232.8</ele><time>2026-03-28T15:16:51.061Z</time></trkpt><trkpt lat="45.8287055" lon="13.7697313"><ele>234.4</ele><time>2026-03-28T15:16:52.065Z</time></trkpt><trkpt lat="45.82881" lon="13.7697795"><ele>236.0</ele><time>2026-03-28T15:16:53.064Z</time></trkpt><trkpt lat="45.8289241" lon="13.7698343"><ele>236.0</ele><time>2026-03-28T15:16:54.059Z</time></trkpt><trkpt lat="45.8290403" lon="13.7698754"><ele>236.0</ele><time>2026-03-28T15:16:55.057Z</time></trkpt><trkpt lat="45.8291612" lon="13.7698895"><ele>236.0</ele><time>2026-03-28T15:16:56.058Z</time></trkpt><trkpt lat="45.8292822" lon="13.7698999"><ele>236.0</ele><time>2026-03-28T15:16:57.059Z</time></trkpt><trkpt lat="45.829404" lon="13.7699356"><ele>236.8</ele><time>2026-03-28T15:16:58.061Z</time></trkpt><trkpt lat="45.8295122" lon="13.769977"><ele>237.60000000000002</ele><time>2026-03-28T15:16:59.06Z</time></trkpt><trkpt lat="45.8296127" lon="13.7699884"><ele>238.4</ele><time>2026-03-28T15:17:00.061Z</time></trkpt><trkpt lat="45.8297178" lon="13.769975"><ele>239.2</ele><time>2026-03-28T15:17:01.079Z</time></trkpt><trkpt lat="45.8298287" lon="13.7699516"><ele>240.0</ele><time>2026-03-28T15:17:02.064Z</time></trkpt><trkpt lat="45.8299455" lon="13.7699325"><ele>240.0</ele><time>2026-03-28T15:17:03.065Z</time></trkpt><trkpt lat="45.8300658" lon="13.7699043"><ele>240.0</ele><time>2026-03-28T15:17:04.065Z</time></trkpt><trkpt lat="45.8302012" lon="13.7698866"><ele>240.0</ele><time>2026-03-28T15:17:05.057Z</time></trkpt><trkpt lat="45.8303419" lon="13.7698779"><ele>240.0</ele><time>2026-03-28T15:17:06.081Z</time></trkpt><trkpt lat="45.8304716" lon="13.7698664"><ele>240.2</ele><time>2026-03-28T15:17:07.061Z</time></trkpt><trkpt lat="45.830589" lon="13.7698645"><ele>240.4</ele><time>2026-03-28T15:17:08.07Z</time></trkpt><trkpt lat="45.8306891" lon="13.7698645"><ele>240.60000000000002</ele><time>2026-03-28T15:17:09.064Z</time></trkpt><trkpt lat="45.8307804" lon="13.7698457"><ele>240.8</ele><time>2026-03-28T15:17:10.065Z</time></trkpt><trkpt lat="45.8308678" lon="13.7697953"><ele>241.0</ele><time>2026-03-28T15:17:11.073Z</time></trkpt><trkpt lat="45.8309614" lon="13.7697383"><ele>241.25</ele><time>2026-03-28T15:17:12.07Z</time></trkpt><trkpt lat="45.8310566" lon="13.7696699"><ele>241.5</ele><time>2026-03-28T15:17:13.067Z</time></trkpt><trkpt lat="45.8311724" lon="13.7695936"><ele>241.75</ele><time>2026-03-28T15:17:14.069Z</time></trkpt><trkpt lat="45.8312954" lon="13.7695095"><ele>242.0</ele><time>2026-03-28T15:17:15.068Z</time></trkpt><trkpt lat="45.8314242" lon="13.7694153"><ele>241.75</ele><time>2026-03-28T15:17:16.053Z</time></trkpt><trkpt lat="45.8315584" lon="13.76932"><ele>241.5</ele><time>2026-03-28T15:17:17.064Z</time></trkpt><trkpt lat="45.8316884" lon="13.7692308"><ele>241.25</ele><time>2026-03-28T15:17:18.067Z</time></trkpt><trkpt lat="45.8318184" lon="13.7691367"><ele>241.0</ele><time>2026-03-28T15:17:19.056Z</time></trkpt><trkpt lat="45.8319409" lon="13.7690504"><ele>241.0</ele><time>2026-03-28T15:17:20.081Z</time></trkpt><trkpt lat="45.8320527" lon="13.7689585"><ele>241.0</ele><time>2026-03-28T15:17:21.067Z</time></trkpt><trkpt lat="45.83216" lon="13.7688565"><ele>241.0</ele><time>2026-03-28T15:17:22.068Z</time></trkpt><trkpt lat="45.832265" lon="13.7687445"><ele>241.0</ele><time>2026-03-28T15:17:23.061Z</time></trkpt><trkpt lat="45.8323706" lon="13.7686265"><ele>241.25</ele><time>2026-03-28T15:17:24.074Z</time></trkpt><trkpt lat="45.8324826" lon="13.7685161"><ele>241.5</ele><time>2026-03-28T15:17:25.069Z</time></trkpt><trkpt lat="45.8326" lon="13.7684084"><ele>241.75</ele><time>2026-03-28T15:17:26.072Z</time></trkpt><trkpt lat="45.8327229" lon="13.7683037"><ele>242.0</ele><time>2026-03-28T15:17:27.058Z</time></trkpt><trkpt lat="45.8328497" lon="13.7682043"><ele>242.0</ele><time>2026-03-28T15:17:28.068Z</time></trkpt><trkpt lat="45.8329883" lon="13.7681292"><ele>242.0</ele><time>2026-03-28T15:17:29.052Z</time></trkpt><trkpt lat="45.8331304" lon="13.7680517"><ele>242.0</ele><time>2026-03-28T15:17:30.062Z</time></trkpt><trkpt lat="45.8332725" lon="13.7679704"><ele>242.0</ele><time>2026-03-28T15:17:31.061Z</time></trkpt><trkpt lat="45.833419" lon="13.7678834"><ele>242.0</ele><time>2026-03-28T15:17:32.064Z</time></trkpt><trkpt lat="45.8335683" lon="13.7678105"><ele>242.0</ele><time>2026-03-28T15:17:33.065Z</time></trkpt><trkpt lat="45.8337216" lon="13.767735"><ele>244.66666666666669</ele><time>2026-03-28T15:17:34.063Z</time></trkpt><trkpt lat="45.8338727" lon="13.7676652"><ele>247.33333333333331</ele><time>2026-03-28T15:17:35.066Z</time></trkpt><trkpt lat="45.8340207" lon="13.7676005"><ele>250.0</ele><time>2026-03-28T15:17:36.071Z</time></trkpt><trkpt lat="45.8341675" lon="13.7675391"><ele>250.25</ele><time>2026-03-28T15:17:37.083Z</time></trkpt><trkpt lat="45.8343067" lon="13.7674838"><ele>250.5</ele><time>2026-03-28T15:17:38.067Z</time></trkpt><trkpt lat="45.8344327" lon="13.7674272"><ele>250.75</ele><time>2026-03-28T15:17:39.055Z</time></trkpt><trkpt lat="45.8345515" lon="13.7673801"><ele>251.0</ele><time>2026-03-28T15:17:40.067Z</time></trkpt><trkpt lat="45.8346721" lon="13.7673295"><ele>251.0</ele><time>2026-03-28T15:17:41.064Z</time></trkpt><trkpt lat="45.8347982" lon="13.7672859"><ele>251.0</ele><time>2026-03-28T15:17:42.076Z</time></trkpt><trkpt lat="45.8349384" lon="13.7672598"><ele>251.0</ele><time>2026-03-28T15:17:43.066Z</time></trkpt><trkpt lat="45.8350831" lon="13.7672497"><ele>251.0</ele><time>2026-03-28T15:17:44.069Z</time></trkpt><trkpt lat="45.8352267" lon="13.7672439"><ele>252.0</ele><time>2026-03-28T15:17:45.064Z</time></trkpt><trkpt lat="45.8353741" lon="13.7672359"><ele>253.0</ele><time>2026-03-28T15:17:46.062Z</time></trkpt><trkpt lat="45.8355228" lon="13.767227"><ele>254.0</ele><time>2026-03-28T15:17:47.065Z</time></trkpt><trkpt lat="45.8356728" lon="13.7672237"><ele>255.0</ele><time>2026-03-28T15:17:48.066Z</time></trkpt><trkpt lat="45.8358156" lon="13.767216"><ele>255.0</ele><time>2026-03-28T15:17:49.077Z</time></trkpt><trkpt lat="45.8359649" lon="13.7672082"><ele>255.0</ele><time>2026-03-28T15:17:50.063Z</time></trkpt><trkpt lat="45.8361103" lon="13.7672124"><ele>255.0</ele><time>2026-03-28T15:17:51.062Z</time></trkpt><trkpt lat="45.8362538" lon="13.7672221"><ele>255.0</ele><time>2026-03-28T15:17:52.062Z</time></trkpt><trkpt lat="45.8363921" lon="13.7672213"><ele>256.0</ele><time>2026-03-28T15:17:53.063Z</time></trkpt><trkpt lat="45.8365261" lon="13.7672121"><ele>257.0</ele><time>2026-03-28T15:17:54.069Z</time></trkpt><trkpt lat="45.8366565" lon="13.767218"><ele>258.0</ele><time>2026-03-28T15:17:55.066Z</time></trkpt><trkpt lat="45.8367927" lon="13.7672418"><ele>259.0</ele><time>2026-03-28T15:17:56.055Z</time></trkpt><trkpt lat="45.8369399" lon="13.7672754"><ele>262.0</ele><time>2026-03-28T15:17:57.077Z</time></trkpt><trkpt lat="45.8370881" lon="13.7673098"><ele>265.0</ele><time>2026-03-28T15:17:58.058Z</time></trkpt><trkpt lat="45.8372364" lon="13.767348"><ele>268.0</ele><time>2026-03-28T15:17:59.054Z</time></trkpt><trkpt lat="45.837384" lon="13.7673824"><ele>268.0</ele><time>2026-03-28T15:18:00.062Z</time></trkpt><trkpt lat="45.8375112" lon="13.7674099"><ele>268.0</ele><time>2026-03-28T15:18:01.063Z</time></trkpt><trkpt lat="45.8376159" lon="13.7674353"><ele>268.0</ele><time>2026-03-28T15:18:02.073Z</time></trkpt><trkpt lat="45.8377111" lon="13.7674546"><ele>268.0</ele><time>2026-03-28T15:18:03.054Z</time></trkpt><trkpt lat="45.8377968" lon="13.7674975"><ele>268.0</ele><time>2026-03-28T15:18:04.066Z</time></trkpt><trkpt lat="45.8378677" lon="13.7675581"><ele>268.4</ele><time>2026-03-28T15:18:05.064Z</time></trkpt><trkpt lat="45.8379345" lon="13.7676298"><ele>268.8</ele><time>2026-03-28T15:18:06.068Z</time></trkpt><trkpt lat="45.838009" lon="13.7677264"><ele>269.2</ele><time>2026-03-28T15:18:07.069Z</time></trkpt><trkpt lat="45.8380892" lon="13.7678205"><ele>269.6</ele><time>2026-03-28T15:18:08.067Z</time></trkpt><trkpt lat="45.8381746" lon="13.7679183"><ele>270.0</ele><time>2026-03-28T15:18:09.067Z</time></trkpt><trkpt lat="45.8382531" lon="13.7680208"><ele>270.0</ele><time>2026-03-28T15:18:10.06Z</time></trkpt><trkpt lat="45.8383383" lon="13.7681249"><ele>270.0</ele><time>2026-03-28T15:18:11.067Z</time></trkpt><trkpt lat="45.8384312" lon="13.7682261"><ele>270.0</ele><time>2026-03-28T15:18:12.067Z</time></trkpt><trkpt lat="45.838523" lon="13.7683278"><ele>270.0</ele><time>2026-03-28T15:18:13.072Z</time></trkpt><trkpt lat="45.8386163" lon="13.7684306"><ele>270.8</ele><time>2026-03-28T15:18:14.069Z</time></trkpt><trkpt lat="45.838707" lon="13.7685384"><ele>271.6</ele><time>2026-03-28T15:18:15.064Z</time></trkpt><trkpt lat="45.8387833" lon="13.768649"><ele>272.4</ele><time>2026-03-28T15:18:16.067Z</time></trkpt><trkpt lat="45.8388454" lon="13.7687637"><ele>273.2</ele><time>2026-03-28T15:18:17.061Z</time></trkpt><trkpt lat="45.838892" lon="13.7688751"><ele>274.0</ele><time>2026-03-28T15:18:18.076Z</time></trkpt><trkpt lat="45.8389316" lon="13.7689881"><ele>274.0</ele><time>2026-03-28T15:18:19.061Z</time></trkpt><trkpt lat="45.8389646" lon="13.769102"><ele>274.0</ele><time>2026-03-28T15:18:20.062Z</time></trkpt><trkpt lat="45.8389723" lon="13.7692144"><ele>274.0</ele><time>2026-03-28T15:18:21.067Z</time></trkpt><trkpt lat="45.8389765" lon="13.7693645"><ele>274.0</ele><time>2026-03-28T15:18:22.056Z</time></trkpt><trkpt lat="45.8389852" lon="13.7695641"><ele>274.0</ele><time>2026-03-28T15:18:23.079Z</time></trkpt><trkpt lat="45.8389985" lon="13.7697539"><ele>274.0</ele><time>2026-03-28T15:18:24.063Z</time></trkpt><trkpt lat="45.8390184" lon="13.769937"><ele>274.0</ele><time>2026-03-28T15:18:25.063Z</time></trkpt><trkpt lat="45.8390495" lon="13.7700927"><ele>274.0</ele><time>2026-03-28T15:18:26.068Z</time></trkpt><trkpt lat="45.8390879" lon="13.7702237"><ele>274.0</ele><time>2026-03-28T15:18:27.057Z</time></trkpt><trkpt lat="45.8391132" lon="13.7703442"><ele>274.0</ele><time>2026-03-28T15:18:28.068Z</time></trkpt><trkpt lat="45.8391378" lon="13.7704497"><ele>275.16666666666663</ele><time>2026-03-28T15:18:29.062Z</time></trkpt><trkpt lat="45.8391739" lon="13.7705341"><ele>276.3333333333333</ele><time>2026-03-28T15:18:30.065Z</time></trkpt><trkpt lat="45.839215" lon="13.7706156"><ele>277.5</ele><time>2026-03-28T15:18:31.06Z</time></trkpt><trkpt lat="45.8392634" lon="13.7706995"><ele>278.6666666666667</ele><time>2026-03-28T15:18:32.061Z</time></trkpt><trkpt lat="45.8393242" lon="13.7707768"><ele>279.83333333333337</ele><time>2026-03-28T15:18:33.064Z</time></trkpt><trkpt lat="45.8394034" lon="13.7708399"><ele>281.0</ele><time>2026-03-28T15:18:34.058Z</time></trkpt><trkpt lat="45.8394933" lon="13.7709016"><ele>282.0</ele><time>2026-03-28T15:18:35.063Z</time></trkpt><trkpt lat="45.8395947" lon="13.7709615"><ele>283.0</ele><time>2026-03-28T15:18:36.065Z</time></trkpt><trkpt lat="45.8397148" lon="13.7709958"><ele>284.0</ele><time>2026-03-28T15:18:37.064Z</time></trkpt><trkpt lat="45.8398331" lon="13.7710392"><ele>285.0</ele><time>2026-03-28T15:18:38.066Z</time></trkpt><trkpt lat="45.839962" lon="13.7710873"><ele>286.75</ele><time>2026-03-28T15:18:39.058Z</time></trkpt><trkpt lat="45.8400955" lon="13.7711431"><ele>288.5</ele><time>2026-03-28T15:18:40.074Z</time></trkpt><trkpt lat="45.8402293" lon="13.7712067"><ele>290.25</ele><time>2026-03-28T15:18:41.071Z</time></trkpt><trkpt lat="45.8403498" lon="13.771258"><ele>292.0</ele><time>2026-03-28T15:18:42.057Z</time></trkpt><trkpt lat="45.8404552" lon="13.7713132"><ele>292.0</ele><time>2026-03-28T15:18:43.069Z</time></trkpt><trkpt lat="45.8405599" lon="13.7713706"><ele>292.0</ele><time>2026-03-28T15:18:44.061Z</time></trkpt><trkpt lat="45.8406574" lon="13.771425"><ele>292.0</ele><time>2026-03-28T15:18:45.069Z</time></trkpt><trkpt lat="45.8407493" lon="13.7714733"><ele>292.0</ele><time>2026-03-28T15:18:46.066Z</time></trkpt><trkpt lat="45.8408406" lon="13.7715056"><ele>292.0</ele><time>2026-03-28T15:18:47.071Z</time></trkpt><trkpt lat="45.8409242" lon="13.7715418"><ele>291.66666666666663</ele><time>2026-03-28T15:18:48.062Z</time></trkpt><trkpt lat="45.8410022" lon="13.771582"><ele>291.3333333333333</ele><time>2026-03-28T15:18:49.066Z</time></trkpt><trkpt lat="45.8410771" lon="13.7716128"><ele>291.0</ele><time>2026-03-28T15:18:50.066Z</time></trkpt><trkpt lat="45.8411828" lon="13.7716664"><ele>290.6666666666667</ele><time>2026-03-28T15:18:52.059Z</time></trkpt><trkpt lat="45.8412663" lon="13.7716451"><ele>290.33333333333337</ele><time>2026-03-28T15:18:55.076Z</time></trkpt><trkpt lat="45.8412643" lon="13.7715213"><ele>290.0</ele><time>2026-03-28T15:18:57.05Z</time></trkpt><trkpt lat="45.841228" lon="13.771346"><ele>290.0</ele><time>2026-03-28T15:18:59.063Z</time></trkpt><trkpt lat="45.8411991" lon="13.7712295"><ele>290.0</ele><time>2026-03-28T15:19:00.05Z</time></trkpt><trkpt lat="45.8411646" lon="13.7710967"><ele>290.0</ele><time>2026-03-28T15:19:01.068Z</time></trkpt><trkpt lat="45.84113" lon="13.7709484"><ele>290.0</ele><time>2026-03-28T15:19:02.077Z</time></trkpt><trkpt lat="45.8410861" lon="13.7707823"><ele>290.0</ele><time>2026-03-28T15:19:03.064Z</time></trkpt><trkpt lat="45.8410454" lon="13.770603"><ele>288.75</ele><time>2026-03-28T15:19:04.054Z</time></trkpt><trkpt lat="45.8410069" lon="13.7704183"><ele>287.5</ele><time>2026-03-28T15:19:05.056Z</time></trkpt><trkpt lat="45.840966" lon="13.7702297"><ele>286.25</ele><time>2026-03-28T15:19:06.071Z</time></trkpt><trkpt lat="45.8409212" lon="13.7700396"><ele>285.0</ele><time>2026-03-28T15:19:07.059Z</time></trkpt><trkpt lat="45.8408737" lon="13.7698455"><ele>285.0</ele><time>2026-03-28T15:19:08.064Z</time></trkpt><trkpt lat="45.8408272" lon="13.769648"><ele>285.0</ele><time>2026-03-28T15:19:09.059Z</time></trkpt><trkpt lat="45.8407817" lon="13.7694502"><ele>285.0</ele><time>2026-03-28T15:19:10.057Z</time></trkpt><trkpt lat="45.8407417" lon="13.7692476"><ele>285.0</ele><time>2026-03-28T15:19:11.077Z</time></trkpt><trkpt lat="45.8406991" lon="13.769047"><ele>287.6666666666667</ele><time>2026-03-28T15:19:12.057Z</time></trkpt><trkpt lat="45.8406515" lon="13.7688424"><ele>290.33333333333337</ele><time>2026-03-28T15:19:13.053Z</time></trkpt><trkpt lat="45.8405902" lon="13.7686349"><ele>293.0</ele><time>2026-03-28T15:19:14.059Z</time></trkpt><trkpt lat="45.8405042" lon="13.7684222"><ele>295.33333333333337</ele><time>2026-03-28T15:19:15.054Z</time></trkpt><trkpt lat="45.8404108" lon="13.7681969"><ele>297.6666666666667</ele><time>2026-03-28T15:19:16.054Z</time></trkpt><trkpt lat="45.8403104" lon="13.7679764"><ele>300.0</ele><time>2026-03-28T15:19:17.056Z</time></trkpt><trkpt lat="45.8401979" lon="13.7677734"><ele>296.0</ele><time>2026-03-28T15:19:18.076Z</time></trkpt><trkpt lat="45.840078" lon="13.7675774"><ele>292.0</ele><time>2026-03-28T15:19:19.056Z</time></trkpt><trkpt lat="45.8399573" lon="13.767392"><ele>288.0</ele><time>2026-03-28T15:19:20.052Z</time></trkpt><trkpt lat="45.839847" lon="13.7672309"><ele>288.0</ele><time>2026-03-28T15:19:21.056Z</time></trkpt><trkpt lat="45.8397449" lon="13.767064"><ele>288.0</ele><time>2026-03-28T15:19:22.059Z</time></trkpt><trkpt lat="45.8396489" lon="13.7668873"><ele>288.0</ele><time>2026-03-28T15:19:23.065Z</time></trkpt><trkpt lat="45.8395527" lon="13.766713"><ele>288.3333333333333</ele><time>2026-03-28T15:19:24.064Z</time></trkpt><trkpt lat="45.8394488" lon="13.7665474"><ele>288.66666666666663</ele><time>2026-03-28T15:19:25.077Z</time></trkpt><trkpt lat="45.8393246" lon="13.7664188"><ele>289.0</ele><time>2026-03-28T15:19:26.062Z</time></trkpt><trkpt lat="45.8391822" lon="13.7663345"><ele>289.0</ele><time>2026-03-28T15:19:27.05Z</time></trkpt><trkpt lat="45.8390159" lon="13.7662839"><ele>289.0</ele><time>2026-03-28T15:19:28.054Z</time></trkpt><trkpt lat="45.8388546" lon="13.7662552"><ele>289.0</ele><time>2026-03-28T15:19:29.067Z</time></trkpt><trkpt lat="45.8387013" lon="13.7662172"><ele>289.0</ele><time>2026-03-28T15:19:30.069Z</time></trkpt><trkpt lat="45.8385613" lon="13.7661789"><ele>289.0</ele><time>2026-03-28T15:19:31.053Z</time></trkpt><trkpt lat="45.8384288" lon="13.7661462"><ele>289.0</ele><time>2026-03-28T15:19:32.073Z</time></trkpt><trkpt lat="45.8383037" lon="13.7661227"><ele>289.0</ele><time>2026-03-28T15:19:33.067Z</time></trkpt><trkpt lat="45.838177" lon="13.7661017"><ele>289.59999999999997</ele><time>2026-03-28T15:19:34.065Z</time></trkpt><trkpt lat="45.8380568" lon="13.7660763"><ele>290.2</ele><time>2026-03-28T15:19:35.066Z</time></trkpt><trkpt lat="45.8379506" lon="13.7660453"><ele>290.79999999999995</ele><time>2026-03-28T15:19:36.067Z</time></trkpt><trkpt lat="45.8378685" lon="13.7659983"><ele>291.4</ele><time>2026-03-28T15:19:37.064Z</time></trkpt><trkpt lat="45.8378042" lon="13.7659437"><ele>292.0</ele><time>2026-03-28T15:19:38.066Z</time></trkpt><trkpt lat="45.8377386" lon="13.7658701"><ele>292.0</ele><time>2026-03-28T15:19:39.062Z</time></trkpt><trkpt lat="45.8376726" lon="13.7657787"><ele>292.0</ele><time>2026-03-28T15:19:40.088Z</time></trkpt><trkpt lat="45.8376114" lon="13.7656815"><ele>292.0</ele><time>2026-03-28T15:19:41.07Z</time></trkpt><trkpt lat="45.8375509" lon="13.7655837"><ele>292.0</ele><time>2026-03-28T15:19:42.067Z</time></trkpt><trkpt lat="45.8374799" lon="13.7654925"><ele>292.0</ele><time>2026-03-28T15:19:43.06Z</time></trkpt><trkpt lat="45.8374045" lon="13.765389"><ele>292.0</ele><time>2026-03-28T15:19:44.065Z</time></trkpt><trkpt lat="45.8373252" lon="13.7652837"><ele>292.0</ele><time>2026-03-28T15:19:45.069Z</time></trkpt><trkpt lat="45.8372479" lon="13.7651724"><ele>292.0</ele><time>2026-03-28T15:19:46.066Z</time></trkpt><trkpt lat="45.8371759" lon="13.7650605"><ele>292.0</ele><time>2026-03-28T15:19:47.065Z</time></trkpt><trkpt lat="45.8371114" lon="13.7649288"><ele>292.0</ele><time>2026-03-28T15:19:48.082Z</time></trkpt><trkpt lat="45.8370436" lon="13.764789"><ele>292.0</ele><time>2026-03-28T15:19:49.066Z</time></trkpt><trkpt lat="45.8369847" lon="13.7646354"><ele>292.0</ele><time>2026-03-28T15:19:50.063Z</time></trkpt><trkpt lat="45.8369265" lon="13.7644721"><ele>292.0</ele><time>2026-03-28T15:19:51.051Z</time></trkpt><trkpt lat="45.8368706" lon="13.7643024"><ele>292.0</ele><time>2026-03-28T15:19:52.061Z</time></trkpt><trkpt lat="45.8368223" lon="13.7641465"><ele>291.6</ele><time>2026-03-28T15:19:53.056Z</time></trkpt><trkpt lat="45.8367804" lon="13.7640131"><ele>291.2</ele><time>2026-03-28T15:19:54.07Z</time></trkpt><trkpt lat="45.8367405" lon="13.763883"><ele>290.8</ele><time>2026-03-28T15:19:55.07Z</time></trkpt><trkpt lat="45.8367155" lon="13.7637469"><ele>290.4</ele><time>2026-03-28T15:19:56.068Z</time></trkpt><trkpt lat="45.8367079" lon="13.7636058"><ele>290.0</ele><time>2026-03-28T15:19:57.078Z</time></trkpt><trkpt lat="45.8367137" lon="13.7634528"><ele>291.75</ele><time>2026-03-28T15:19:58.067Z</time></trkpt><trkpt lat="45.8367197" lon="13.763285"><ele>293.5</ele><time>2026-03-28T15:19:59.065Z</time></trkpt><trkpt lat="45.8367188" lon="13.7631142"><ele>295.25</ele><time>2026-03-28T15:20:00.064Z</time></trkpt><trkpt lat="45.8367253" lon="13.7629284"><ele>297.0</ele><time>2026-03-28T15:20:01.066Z</time></trkpt><trkpt lat="45.8367413" lon="13.7627346"><ele>297.25</ele><time>2026-03-28T15:20:02.074Z</time></trkpt><trkpt lat="45.8367584" lon="13.7625444"><ele>297.5</ele><time>2026-03-28T15:20:03.065Z</time></trkpt><trkpt lat="45.836768" lon="13.7623559"><ele>297.75</ele><time>2026-03-28T15:20:04.068Z</time></trkpt><trkpt lat="45.8367744" lon="13.7621703"><ele>298.0</ele><time>2026-03-28T15:20:05.083Z</time></trkpt><trkpt lat="45.8367884" lon="13.7619879"><ele>298.0</ele><time>2026-03-28T15:20:06.066Z</time></trkpt><trkpt lat="45.8367982" lon="13.7618037"><ele>298.0</ele><time>2026-03-28T15:20:07.061Z</time></trkpt><trkpt lat="45.8367974" lon="13.7616136"><ele>298.0</ele><time>2026-03-28T15:20:08.061Z</time></trkpt><trkpt lat="45.8367861" lon="13.7614219"><ele>298.0</ele><time>2026-03-28T15:20:09.065Z</time></trkpt><trkpt lat="45.8367582" lon="13.7612308"><ele>298.0</ele><time>2026-03-28T15:20:10.067Z</time></trkpt><trkpt lat="45.8367268" lon="13.7610406"><ele>298.0</ele><time>2026-03-28T15:20:11.062Z</time></trkpt><trkpt lat="45.8366867" lon="13.7608502"><ele>298.0</ele><time>2026-03-28T15:20:12.067Z</time></trkpt><trkpt lat="45.8366451" lon="13.7606619"><ele>298.0</ele><time>2026-03-28T15:20:13.064Z</time></trkpt><trkpt lat="45.8366024" lon="13.7604696"><ele>298.25</ele><time>2026-03-28T15:20:14.058Z</time></trkpt><trkpt lat="45.8365633" lon="13.7602756"><ele>298.5</ele><time>2026-03-28T15:20:15.071Z</time></trkpt><trkpt lat="45.8365351" lon="13.7600747"><ele>298.75</ele><time>2026-03-28T15:20:16.073Z</time></trkpt><trkpt lat="45.8365092" lon="13.7598729"><ele>299.0</ele><time>2026-03-28T15:20:17.06Z</time></trkpt><trkpt lat="45.8364854" lon="13.7596709"><ele>300.0</ele><time>2026-03-28T15:20:18.061Z</time></trkpt><trkpt lat="45.836463" lon="13.7594623"><ele>301.0</ele><time>2026-03-28T15:20:19.067Z</time></trkpt><trkpt lat="45.8364352" lon="13.7592576"><ele>302.0</ele><time>2026-03-28T15:20:20.064Z</time></trkpt><trkpt lat="45.8364072" lon="13.7590504"><ele>303.0</ele><time>2026-03-28T15:20:21.073Z</time></trkpt><trkpt lat="45.8363775" lon="13.7588419"><ele>303.3333333333333</ele><time>2026-03-28T15:20:22.069Z</time></trkpt><trkpt lat="45.8363427" lon="13.7586333"><ele>303.66666666666663</ele><time>2026-03-28T15:20:23.097Z</time></trkpt><trkpt lat="45.836301" lon="13.7584274"><ele>304.0</ele><time>2026-03-28T15:20:24.068Z</time></trkpt><trkpt lat="45.8362539" lon="13.7582184"><ele>302.25</ele><time>2026-03-28T15:20:25.068Z</time></trkpt><trkpt lat="45.8362099" lon="13.7580088"><ele>300.5</ele><time>2026-03-28T15:20:26.063Z</time></trkpt><trkpt lat="45.8361743" lon="13.7577989"><ele>298.75</ele><time>2026-03-28T15:20:27.071Z</time></trkpt><trkpt lat="45.8361463" lon="13.7576007"><ele>297.0</ele><time>2026-03-28T15:20:28.067Z</time></trkpt><trkpt lat="45.8361259" lon="13.7574152"><ele>296.75</ele><time>2026-03-28T15:20:29.07Z</time></trkpt><trkpt lat="45.836105" lon="13.7572404"><ele>296.5</ele><time>2026-03-28T15:20:30.075Z</time></trkpt><trkpt lat="45.8360913" lon="13.7570634"><ele>296.25</ele><time>2026-03-28T15:20:31.066Z</time></trkpt><trkpt lat="45.8360905" lon="13.7568733"><ele>296.0</ele><time>2026-03-28T15:20:32.073Z</time></trkpt><trkpt lat="45.8361056" lon="13.7566795"><ele>297.25</ele><time>2026-03-28T15:20:33.069Z</time></trkpt><trkpt lat="45.8361254" lon="13.7564973"><ele>298.5</ele><time>2026-03-28T15:20:34.074Z</time></trkpt><trkpt lat="45.8361288" lon="13.7563156"><ele>299.75</ele><time>2026-03-28T15:20:35.069Z</time></trkpt><trkpt lat="45.8361182" lon="13.756119"><ele>301.0</ele><time>2026-03-28T15:20:36.067Z</time></trkpt><trkpt lat="45.8361036" lon="13.7559078"><ele>302.0</ele><time>2026-03-28T15:20:37.065Z</time></trkpt><trkpt lat="45.836083" lon="13.7556806"><ele>303.0</ele><time>2026-03-28T15:20:38.067Z</time></trkpt><trkpt lat="45.8360682" lon="13.7554537"><ele>304.0</ele><time>2026-03-28T15:20:39.068Z</time></trkpt><trkpt lat="45.8360567" lon="13.7552453"><ele>305.25</ele><time>2026-03-28T15:20:40.075Z</time></trkpt><trkpt lat="45.8360512" lon="13.7550542"><ele>306.5</ele><time>2026-03-28T15:20:41.077Z</time></trkpt><trkpt lat="45.8360493" lon="13.7548802"><ele>307.75</ele><time>2026-03-28T15:20:42.07Z</time></trkpt><trkpt lat="45.8360594" lon="13.7547013"><ele>309.0</ele><time>2026-03-28T15:20:43.077Z</time></trkpt><trkpt lat="45.8360769" lon="13.7545154"><ele>309.0</ele><time>2026-03-28T15:20:44.071Z</time></trkpt><trkpt lat="45.8360935" lon="13.7543235"><ele>309.0</ele><time>2026-03-28T15:20:45.067Z</time></trkpt><trkpt lat="45.836098" lon="13.7541159"><ele>309.0</ele><time>2026-03-28T15:20:46.078Z</time></trkpt><trkpt lat="45.8361043" lon="13.7539132"><ele>309.0</ele><time>2026-03-28T15:20:47.072Z</time></trkpt><trkpt lat="45.8361096" lon="13.7537031"><ele>309.6666666666667</ele><time>2026-03-28T15:20:48.079Z</time></trkpt><trkpt lat="45.8361184" lon="13.7534805"><ele>310.33333333333337</ele><time>2026-03-28T15:20:49.078Z</time></trkpt><trkpt lat="45.8361309" lon="13.7532446"><ele>311.0</ele><time>2026-03-28T15:20:50.071Z</time></trkpt><trkpt lat="45.8361386" lon="13.7530093"><ele>311.0</ele><time>2026-03-28T15:20:51.075Z</time></trkpt><trkpt lat="45.8361474" lon="13.7527749"><ele>311.0</ele><time>2026-03-28T15:20:52.077Z</time></trkpt><trkpt lat="45.8361577" lon="13.7525482"><ele>311.0</ele><time>2026-03-28T15:20:53.067Z</time></trkpt><trkpt lat="45.8361666" lon="13.7523307"><ele>310.75</ele><time>2026-03-28T15:20:54.103Z</time></trkpt><trkpt lat="45.8361682" lon="13.7521201"><ele>310.5</ele><time>2026-03-28T15:20:55.088Z</time></trkpt><trkpt lat="45.8361729" lon="13.7519081"><ele>310.25</ele><time>2026-03-28T15:20:56.082Z</time></trkpt><trkpt lat="45.8361821" lon="13.7516961"><ele>310.0</ele><time>2026-03-28T15:20:57.073Z</time></trkpt><trkpt lat="45.8361919" lon="13.751485"><ele>311.0</ele><time>2026-03-28T15:20:58.087Z</time></trkpt><trkpt lat="45.8362005" lon="13.7512752"><ele>312.0</ele><time>2026-03-28T15:20:59.072Z</time></trkpt><trkpt lat="45.8362061" lon="13.7510568"><ele>313.0</ele><time>2026-03-28T15:21:00.075Z</time></trkpt><trkpt lat="45.8362152" lon="13.750832"><ele>314.0</ele><time>2026-03-28T15:21:01.066Z</time></trkpt><trkpt lat="45.8362244" lon="13.750603"><ele>315.0</ele><time>2026-03-28T15:21:02.077Z</time></trkpt><trkpt lat="45.8362322" lon="13.7503771"><ele>316.0</ele><time>2026-03-28T15:21:03.073Z</time></trkpt><trkpt lat="45.8362405" lon="13.7501786"><ele>316.2</ele><time>2026-03-28T15:21:04.078Z</time></trkpt><trkpt lat="45.8362503" lon="13.7500178"><ele>316.40000000000003</ele><time>2026-03-28T15:21:05.07Z</time></trkpt><trkpt lat="45.8362612" lon="13.7498696"><ele>316.6</ele><time>2026-03-28T15:21:06.07Z</time></trkpt><trkpt lat="45.8362628" lon="13.7497115"><ele>316.8</ele><time>2026-03-28T15:21:07.078Z</time></trkpt><trkpt lat="45.8362544" lon="13.7495497"><ele>317.0</ele><time>2026-03-28T15:21:08.067Z</time></trkpt><trkpt lat="45.836228" lon="13.7493753"><ele>317.6666666666667</ele><time>2026-03-28T15:21:09.091Z</time></trkpt><trkpt lat="45.8361867" lon="13.7491833"><ele>318.3333333333333</ele><time>2026-03-28T15:21:10.067Z</time></trkpt><trkpt lat="45.8361356" lon="13.748966"><ele>319.0</ele><time>2026-03-28T15:21:11.069Z</time></trkpt><trkpt lat="45.8360855" lon="13.7487495"><ele>319.0</ele><time>2026-03-28T15:21:12.067Z</time></trkpt><trkpt lat="45.8360444" lon="13.7485461"><ele>319.0</ele><time>2026-03-28T15:21:13.073Z</time></trkpt><trkpt lat="45.8360052" lon="13.7483603"><ele>319.0</ele><time>2026-03-28T15:21:14.073Z</time></trkpt><trkpt lat="45.835972" lon="13.7481796"><ele>319.0</ele><time>2026-03-28T15:21:15.074Z</time></trkpt><trkpt lat="45.8359375" lon="13.7480095"><ele>318.5</ele><time>2026-03-28T15:21:16.086Z</time></trkpt><trkpt lat="45.8359069" lon="13.7478281"><ele>318.0</ele><time>2026-03-28T15:21:17.065Z</time></trkpt><trkpt lat="45.835889" lon="13.7476313"><ele>317.5</ele><time>2026-03-28T15:21:18.071Z</time></trkpt><trkpt lat="45.8358866" lon="13.7474207"><ele>317.0</ele><time>2026-03-28T15:21:19.065Z</time></trkpt><trkpt lat="45.8358929" lon="13.7471822"><ele>317.0</ele><time>2026-03-28T15:21:20.07Z</time></trkpt><trkpt lat="45.8358956" lon="13.7469317"><ele>317.0</ele><time>2026-03-28T15:21:21.069Z</time></trkpt><trkpt lat="45.8359003" lon="13.7467063"><ele>317.0</ele><time>2026-03-28T15:21:22.074Z</time></trkpt><trkpt lat="45.8359049" lon="13.7464998"><ele>317.0</ele><time>2026-03-28T15:21:23.068Z</time></trkpt><trkpt lat="45.8359106" lon="13.7463066"><ele>317.0</ele><time>2026-03-28T15:21:24.063Z</time></trkpt><trkpt lat="45.8359223" lon="13.7461283"><ele>317.0</ele><time>2026-03-28T15:21:25.066Z</time></trkpt><trkpt lat="45.8359352" lon="13.7459574"><ele>317.0</ele><time>2026-03-28T15:21:26.075Z</time></trkpt><trkpt lat="45.8359481" lon="13.7457997"><ele>317.0</ele><time>2026-03-28T15:21:27.068Z</time></trkpt><trkpt lat="45.8359604" lon="13.7456444"><ele>317.0</ele><time>2026-03-28T15:21:28.072Z</time></trkpt><trkpt lat="45.835965" lon="13.7454764"><ele>317.0</ele><time>2026-03-28T15:21:29.066Z</time></trkpt><trkpt lat="45.8359659" lon="13.7452867"><ele>317.0</ele><time>2026-03-28T15:21:30.076Z</time></trkpt><trkpt lat="45.8359727" lon="13.7451058"><ele>318.6</ele><time>2026-03-28T15:21:31.068Z</time></trkpt><trkpt lat="45.8359809" lon="13.7449404"><ele>320.2</ele><time>2026-03-28T15:21:32.069Z</time></trkpt><trkpt lat="45.8359933" lon="13.7447871"><ele>321.8</ele><time>2026-03-28T15:21:33.064Z</time></trkpt><trkpt lat="45.8360147" lon="13.744645"><ele>323.4</ele><time>2026-03-28T15:21:34.064Z</time></trkpt><trkpt lat="45.8360482" lon="13.7445123"><ele>325.0</ele><time>2026-03-28T15:21:35.068Z</time></trkpt><trkpt lat="45.8360817" lon="13.7443812"><ele>324.0</ele><time>2026-03-28T15:21:36.081Z</time></trkpt><trkpt lat="45.8360963" lon="13.7442671"><ele>323.0</ele><time>2026-03-28T15:21:37.065Z</time></trkpt><trkpt lat="45.8360617" lon="13.74412"><ele>322.0</ele><time>2026-03-28T15:21:39.06Z</time></trkpt><trkpt lat="45.8360078" lon="13.7440099"><ele>321.0</ele><time>2026-03-28T15:21:41.069Z</time></trkpt><trkpt lat="45.8359632" lon="13.7439314"><ele>320.0</ele><time>2026-03-28T15:21:43.072Z</time></trkpt><trkpt lat="45.8359171" lon="13.7437972"><ele>319.2</ele><time>2026-03-28T15:21:45.072Z</time></trkpt><trkpt lat="45.8358762" lon="13.7437082"><ele>318.4</ele><time>2026-03-28T15:21:46.071Z</time></trkpt><trkpt lat="45.8358087" lon="13.7435926"><ele>317.6</ele><time>2026-03-28T15:21:47.067Z</time></trkpt><trkpt lat="45.8357414" lon="13.7434758"><ele>316.8</ele><time>2026-03-28T15:21:48.066Z</time></trkpt><trkpt lat="45.8356533" lon="13.7433736"><ele>316.0</ele><time>2026-03-28T15:21:49.076Z</time></trkpt><trkpt lat="45.835547" lon="13.7432687"><ele>316.0</ele><time>2026-03-28T15:21:50.065Z</time></trkpt><trkpt lat="45.8354314" lon="13.7431579"><ele>316.0</ele><time>2026-03-28T15:21:51.067Z</time></trkpt><trkpt lat="45.8353121" lon="13.7430381"><ele>316.0</ele><time>2026-03-28T15:21:52.06Z</time></trkpt><trkpt lat="45.8351968" lon="13.7429233"><ele>316.0</ele><time>2026-03-28T15:21:53.062Z</time></trkpt><trkpt lat="45.8350903" lon="13.7428173"><ele>315.25</ele><time>2026-03-28T15:21:54.07Z</time></trkpt><trkpt lat="45.8349912" lon="13.7427197"><ele>314.5</ele><time>2026-03-28T15:21:55.067Z</time></trkpt><trkpt lat="45.8348905" lon="13.7426612"><ele>313.75</ele><time>2026-03-28T15:21:56.063Z</time></trkpt><trkpt lat="45.8347766" lon="13.7426436"><ele>313.0</ele><time>2026-03-28T15:21:57.085Z</time></trkpt><trkpt lat="45.8346604" lon="13.74266"><ele>313.0</ele><time>2026-03-28T15:21:58.06Z</time></trkpt><trkpt lat="45.8345375" lon="13.7427"><ele>313.0</ele><time>2026-03-28T15:21:59.063Z</time></trkpt><trkpt lat="45.834421" lon="13.7427489"><ele>313.0</ele><time>2026-03-28T15:22:00.073Z</time></trkpt><trkpt lat="45.8343066" lon="13.7427866"><ele>313.0</ele><time>2026-03-28T15:22:01.071Z</time></trkpt><trkpt lat="45.834194" lon="13.7428192"><ele>313.0</ele><time>2026-03-28T15:22:02.073Z</time></trkpt><trkpt lat="45.83408" lon="13.7428368"><ele>313.0</ele><time>2026-03-28T15:22:03.075Z</time></trkpt><trkpt lat="45.8339601" lon="13.7428345"><ele>313.0</ele><time>2026-03-28T15:22:04.07Z</time></trkpt><trkpt lat="45.8338402" lon="13.7428324"><ele>313.0</ele><time>2026-03-28T15:22:05.065Z</time></trkpt><trkpt lat="45.8337189" lon="13.7428425"><ele>313.0</ele><time>2026-03-28T15:22:06.074Z</time></trkpt><trkpt lat="45.8335996" lon="13.7428132"><ele>313.0</ele><time>2026-03-28T15:22:07.086Z</time></trkpt><trkpt lat="45.8334963" lon="13.7427529"><ele>313.0</ele><time>2026-03-28T15:22:08.061Z</time></trkpt><trkpt lat="45.8333901" lon="13.7426338"><ele>313.0</ele><time>2026-03-28T15:22:09.066Z</time></trkpt><trkpt lat="45.8332971" lon="13.7424989"><ele>312.25</ele><time>2026-03-28T15:22:10.065Z</time></trkpt><trkpt lat="45.8331898" lon="13.7423716"><ele>311.5</ele><time>2026-03-28T15:22:11.065Z</time></trkpt><trkpt lat="45.8330926" lon="13.7422346"><ele>310.75</ele><time>2026-03-28T15:22:12.072Z</time></trkpt><trkpt lat="45.8329948" lon="13.7420963"><ele>310.0</ele><time>2026-03-28T15:22:13.064Z</time></trkpt><trkpt lat="45.8328991" lon="13.7419552"><ele>310.5</ele><time>2026-03-28T15:22:14.076Z</time></trkpt><trkpt lat="45.8327992" lon="13.741816"><ele>311.0</ele><time>2026-03-28T15:22:15.068Z</time></trkpt><trkpt lat="45.8327081" lon="13.7416796"><ele>311.5</ele><time>2026-03-28T15:22:16.07Z</time></trkpt><trkpt lat="45.8326225" lon="13.7415514"><ele>312.0</ele><time>2026-03-28T15:22:17.062Z</time></trkpt><trkpt lat="45.8325389" lon="13.7414332"><ele>312.0</ele><time>2026-03-28T15:22:18.068Z</time></trkpt><trkpt lat="45.8324558" lon="13.7413193"><ele>312.0</ele><time>2026-03-28T15:22:19.084Z</time></trkpt><trkpt lat="45.8323932" lon="13.7412129"><ele>312.0</ele><time>2026-03-28T15:22:20.06Z</time></trkpt><trkpt lat="45.8323519" lon="13.7411014"><ele>312.0</ele><time>2026-03-28T15:22:21.069Z</time></trkpt><trkpt lat="45.8323283" lon="13.740979"><ele>312.0</ele><time>2026-03-28T15:22:22.067Z</time></trkpt><trkpt lat="45.8323213" lon="13.7408522"><ele>313.2</ele><time>2026-03-28T15:22:23.059Z</time></trkpt><trkpt lat="45.8322961" lon="13.7407275"><ele>314.4</ele><time>2026-03-28T15:22:25.07Z</time></trkpt><trkpt lat="45.8322061" lon="13.7406419"><ele>315.6</ele><time>2026-03-28T15:22:28.078Z</time></trkpt><trkpt lat="45.8321617" lon="13.7405425"><ele>316.8</ele><time>2026-03-28T15:22:29.064Z</time></trkpt><trkpt lat="45.8321158" lon="13.7404297"><ele>318.0</ele><time>2026-03-28T15:22:30.075Z</time></trkpt><trkpt lat="45.8320564" lon="13.7403027"><ele>318.75</ele><time>2026-03-28T15:22:31.061Z</time></trkpt><trkpt lat="45.8319835" lon="13.7401775"><ele>319.5</ele><time>2026-03-28T15:22:32.066Z</time></trkpt><trkpt lat="45.8318911" lon="13.7400464"><ele>320.25</ele><time>2026-03-28T15:22:33.056Z</time></trkpt><trkpt lat="45.831787" lon="13.7399305"><ele>321.0</ele><time>2026-03-28T15:22:34.077Z</time></trkpt><trkpt lat="45.8316831" lon="13.7398379"><ele>321.0</ele><time>2026-03-28T15:22:35.062Z</time></trkpt><trkpt lat="45.8315809" lon="13.7397753"><ele>321.0</ele><time>2026-03-28T15:22:36.071Z</time></trkpt><trkpt lat="45.831471" lon="13.7397476"><ele>321.0</ele><time>2026-03-28T15:22:37.081Z</time></trkpt><trkpt lat="45.8313615" lon="13.739733"><ele>321.0</ele><time>2026-03-28T15:22:38.066Z</time></trkpt><trkpt lat="45.8312676" lon="13.7396889"><ele>321.0</ele><time>2026-03-28T15:22:39.084Z</time></trkpt><trkpt lat="45.8311778" lon="13.7396398"><ele>321.0</ele><time>2026-03-28T15:22:40.082Z</time></trkpt><trkpt lat="45.8310891" lon="13.7395801"><ele>321.0</ele><time>2026-03-28T15:22:41.061Z</time></trkpt><trkpt lat="45.8310068" lon="13.7395053"><ele>321.0</ele><time>2026-03-28T15:22:42.078Z</time></trkpt><trkpt lat="45.8309391" lon="13.7393977"><ele>321.0</ele><time>2026-03-28T15:22:43.079Z</time></trkpt><trkpt lat="45.8309017" lon="13.7392312"><ele>321.0</ele><time>2026-03-28T15:22:44.075Z</time></trkpt><trkpt lat="45.8308534" lon="13.7390572"><ele>320.0</ele><time>2026-03-28T15:22:45.059Z</time></trkpt><trkpt lat="45.8307888" lon="13.738876"><ele>319.0</ele><time>2026-03-28T15:22:46.074Z</time></trkpt><trkpt lat="45.8307256" lon="13.7386823"><ele>318.0</ele><time>2026-03-28T15:22:47.069Z</time></trkpt><trkpt lat="45.8306627" lon="13.7384837"><ele>317.0</ele><time>2026-03-28T15:22:48.073Z</time></trkpt><trkpt lat="45.8306024" lon="13.7382902"><ele>316.25</ele><time>2026-03-28T15:22:49.066Z</time></trkpt><trkpt lat="45.8305519" lon="13.7381017"><ele>315.5</ele><time>2026-03-28T15:22:50.083Z</time></trkpt><trkpt lat="45.8305012" lon="13.7379171"><ele>314.75</ele><time>2026-03-28T15:22:51.066Z</time></trkpt><trkpt lat="45.8304467" lon="13.73775"><ele>314.0</ele><time>2026-03-28T15:22:52.067Z</time></trkpt><trkpt lat="45.8303841" lon="13.7376004"><ele>313.75</ele><time>2026-03-28T15:22:53.07Z</time></trkpt><trkpt lat="45.8303039" lon="13.7374762"><ele>313.5</ele><time>2026-03-28T15:22:54.069Z</time></trkpt><trkpt lat="45.8301956" lon="13.7373905"><ele>313.25</ele><time>2026-03-28T15:22:55.07Z</time></trkpt><trkpt lat="45.8300585" lon="13.7373386"><ele>313.0</ele><time>2026-03-28T15:22:56.069Z</time></trkpt><trkpt lat="45.8299183" lon="13.7373316"><ele>312.75</ele><time>2026-03-28T15:22:57.054Z</time></trkpt><trkpt lat="45.8297736" lon="13.7373231"><ele>312.5</ele><time>2026-03-28T15:22:58.062Z</time></trkpt><trkpt lat="45.8296427" lon="13.7372974"><ele>312.25</ele><time>2026-03-28T15:22:59.062Z</time></trkpt><trkpt lat="45.8295228" lon="13.7372527"><ele>312.0</ele><time>2026-03-28T15:23:00.074Z</time></trkpt><trkpt lat="45.8294219" lon="13.7371752"><ele>312.0</ele><time>2026-03-28T15:23:01.061Z</time></trkpt><trkpt lat="45.8293222" lon="13.7370899"><ele>312.0</ele><time>2026-03-28T15:23:02.061Z</time></trkpt><trkpt lat="45.8292337" lon="13.7369922"><ele>312.0</ele><time>2026-03-28T15:23:03.067Z</time></trkpt><trkpt lat="45.8291544" lon="13.7368848"><ele>312.0</ele><time>2026-03-28T15:23:04.07Z</time></trkpt><trkpt lat="45.829083" lon="13.7367657"><ele>312.0</ele><time>2026-03-28T15:23:05.069Z</time></trkpt><trkpt lat="45.8290082" lon="13.7366376"><ele>313.5</ele><time>2026-03-28T15:23:06.07Z</time></trkpt><trkpt lat="45.8289122" lon="13.7365357"><ele>315.0</ele><time>2026-03-28T15:23:07.062Z</time></trkpt><trkpt lat="45.8288011" lon="13.7364755"><ele>316.5</ele><time>2026-03-28T15:23:08.062Z</time></trkpt><trkpt lat="45.8286919" lon="13.7364325"><ele>318.0</ele><time>2026-03-28T15:23:09.064Z</time></trkpt><trkpt lat="45.8285813" lon="13.7363891"><ele>317.2</ele><time>2026-03-28T15:23:10.061Z</time></trkpt><trkpt lat="45.8284666" lon="13.7363505"><ele>316.4</ele><time>2026-03-28T15:23:11.065Z</time></trkpt><trkpt lat="45.8283552" lon="13.7363172"><ele>315.59999999999997</ele><time>2026-03-28T15:23:12.058Z</time></trkpt><trkpt lat="45.8282587" lon="13.736267"><ele>314.8</ele><time>2026-03-28T15:23:13.063Z</time></trkpt><trkpt lat="45.8281717" lon="13.7361976"><ele>314.0</ele><time>2026-03-28T15:23:14.068Z</time></trkpt><trkpt lat="45.8280944" lon="13.7361171"><ele>315.0</ele><time>2026-03-28T15:23:15.078Z</time></trkpt><trkpt lat="45.8280172" lon="13.7360136"><ele>316.0</ele><time>2026-03-28T15:23:16.067Z</time></trkpt><trkpt lat="45.8279578" lon="13.7358758"><ele>317.0</ele><time>2026-03-28T15:23:17.066Z</time></trkpt><trkpt lat="45.8279106" lon="13.7357179"><ele>318.0</ele><time>2026-03-28T15:23:18.057Z</time></trkpt><trkpt lat="45.8278815" lon="13.7355364"><ele>318.0</ele><time>2026-03-28T15:23:19.058Z</time></trkpt><trkpt lat="45.8278543" lon="13.7353424"><ele>318.0</ele><time>2026-03-28T15:23:20.062Z</time></trkpt><trkpt lat="45.8278134" lon="13.7351499"><ele>318.0</ele><time>2026-03-28T15:23:21.069Z</time></trkpt><trkpt lat="45.8277593" lon="13.7349553"><ele>318.0</ele><time>2026-03-28T15:23:22.067Z</time></trkpt><trkpt lat="45.8277028" lon="13.7347693"><ele>317.5</ele><time>2026-03-28T15:23:23.064Z</time></trkpt><trkpt lat="45.8276508" lon="13.734593"><ele>317.0</ele><time>2026-03-28T15:23:24.068Z</time></trkpt><trkpt lat="45.8276087" lon="13.7344285"><ele>316.5</ele><time>2026-03-28T15:23:25.069Z</time></trkpt><trkpt lat="45.8275631" lon="13.7342695"><ele>316.0</ele><time>2026-03-28T15:23:26.071Z</time></trkpt><trkpt lat="45.827502" lon="13.7341312"><ele>316.0</ele><time>2026-03-28T15:23:27.076Z</time></trkpt><trkpt lat="45.8274241" lon="13.7340077"><ele>316.0</ele><time>2026-03-28T15:23:28.063Z</time></trkpt><trkpt lat="45.8273426" lon="13.7339091"><ele>316.0</ele><time>2026-03-28T15:23:29.061Z</time></trkpt><trkpt lat="45.8272576" lon="13.733839"><ele>316.0</ele><time>2026-03-28T15:23:30.064Z</time></trkpt><trkpt lat="45.8271691" lon="13.7337966"><ele>316.0</ele><time>2026-03-28T15:23:31.064Z</time></trkpt><trkpt lat="45.8270803" lon="13.7337647"><ele>316.0</ele><time>2026-03-28T15:23:32.071Z</time></trkpt><trkpt lat="45.8269968" lon="13.7337292"><ele>316.0</ele><time>2026-03-28T15:23:33.062Z</time></trkpt><trkpt lat="45.8269194" lon="13.7336753"><ele>316.0</ele><time>2026-03-28T15:23:34.052Z</time></trkpt><trkpt lat="45.8268504" lon="13.7336175"><ele>316.0</ele><time>2026-03-28T15:23:35.055Z</time></trkpt><trkpt lat="45.8267792" lon="13.7335609"><ele>316.0</ele><time>2026-03-28T15:23:36.055Z</time></trkpt><trkpt lat="45.82671" lon="13.733517"><ele>316.0</ele><time>2026-03-28T15:23:37.062Z</time></trkpt><trkpt lat="45.8266355" lon="13.7335005"><ele>316.16666666666663</ele><time>2026-03-28T15:23:38.086Z</time></trkpt><trkpt lat="45.8265712" lon="13.7334943"><ele>316.3333333333333</ele><time>2026-03-28T15:23:39.048Z</time></trkpt><trkpt lat="45.8264436" lon="13.733512"><ele>316.5</ele><time>2026-03-28T15:23:41.055Z</time></trkpt><trkpt lat="45.8263735" lon="13.7335455"><ele>316.6666666666667</ele><time>2026-03-28T15:23:42.057Z</time></trkpt><trkpt lat="45.8262983" lon="13.7335945"><ele>316.83333333333337</ele><time>2026-03-28T15:23:43.043Z</time></trkpt><trkpt lat="45.8262243" lon="13.733629"><ele>317.0</ele><time>2026-03-28T15:23:44.076Z</time></trkpt><trkpt lat="45.8261468" lon="13.7336505"><ele>316.6666666666667</ele><time>2026-03-28T15:23:45.047Z</time></trkpt><trkpt lat="45.8260641" lon="13.7336411"><ele>316.33333333333337</ele><time>2026-03-28T15:23:46.05Z</time></trkpt><trkpt lat="45.8259798" lon="13.7336176"><ele>316.0</ele><time>2026-03-28T15:23:47.057Z</time></trkpt><trkpt lat="45.825905" lon="13.7335806"><ele>315.6666666666667</ele><time>2026-03-28T15:23:48.071Z</time></trkpt><trkpt lat="45.8258327" lon="13.7335486"><ele>315.3333333333333</ele><time>2026-03-28T15:23:49.066Z</time></trkpt><trkpt lat="45.8257681" lon="13.7335145"><ele>315.0</ele><time>2026-03-28T15:23:50.063Z</time></trkpt><trkpt lat="45.8257042" lon="13.7334713"><ele>314.8</ele><time>2026-03-28T15:23:51.07Z</time></trkpt><trkpt lat="45.825635" lon="13.7333125"><ele>314.6</ele><time>2026-03-28T15:23:53.06Z</time></trkpt><trkpt lat="45.8256174" lon="13.7332116"><ele>314.4</ele><time>2026-03-28T15:23:54.063Z</time></trkpt><trkpt lat="45.8256014" lon="13.7330879"><ele>314.2</ele><time>2026-03-28T15:23:55.061Z</time></trkpt><trkpt lat="45.8255735" lon="13.7329701"><ele>314.0</ele><time>2026-03-28T15:23:56.073Z</time></trkpt><trkpt lat="45.825528" lon="13.7328745"><ele>314.0</ele><time>2026-03-28T15:23:57.066Z</time></trkpt><trkpt lat="45.8254711" lon="13.7327976"><ele>314.0</ele><time>2026-03-28T15:23:58.078Z</time></trkpt><trkpt lat="45.8254084" lon="13.7327338"><ele>314.0</ele><time>2026-03-28T15:23:59.064Z</time></trkpt><trkpt lat="45.8253434" lon="13.7326697"><ele>314.0</ele><time>2026-03-28T15:24:00.072Z</time></trkpt><trkpt lat="45.8252756" lon="13.7326177"><ele>314.0</ele><time>2026-03-28T15:24:01.069Z</time></trkpt><trkpt lat="45.8252072" lon="13.7325702"><ele>314.0</ele><time>2026-03-28T15:24:02.067Z</time></trkpt><trkpt lat="45.8251235" lon="13.7325345"><ele>314.4</ele><time>2026-03-28T15:24:03.069Z</time></trkpt><trkpt lat="45.8250266" lon="13.732513"><ele>314.79999999999995</ele><time>2026-03-28T15:24:04.071Z</time></trkpt><trkpt lat="45.8249304" lon="13.7324974"><ele>315.20000000000005</ele><time>2026-03-28T15:24:05.077Z</time></trkpt><trkpt lat="45.8248444" lon="13.7324789"><ele>315.6</ele><time>2026-03-28T15:24:06.064Z</time></trkpt><trkpt lat="45.8247636" lon="13.732448"><ele>316.0</ele><time>2026-03-28T15:24:07.064Z</time></trkpt><trkpt lat="45.8246773" lon="13.7324143"><ele>316.0</ele><time>2026-03-28T15:24:08.062Z</time></trkpt><trkpt lat="45.8245935" lon="13.732385"><ele>316.0</ele><time>2026-03-28T15:24:09.081Z</time></trkpt><trkpt lat="45.824505" lon="13.7323628"><ele>316.0</ele><time>2026-03-28T15:24:10.061Z</time></trkpt><trkpt lat="45.8244103" lon="13.7323405"><ele>316.0</ele><time>2026-03-28T15:24:11.069Z</time></trkpt><trkpt lat="45.8243198" lon="13.7323279"><ele>316.0</ele><time>2026-03-28T15:24:12.064Z</time></trkpt><trkpt lat="45.824236" lon="13.7323207"><ele>316.0</ele><time>2026-03-28T15:24:13.067Z</time></trkpt><trkpt lat="45.8241609" lon="13.7323169"><ele>315.8333333333333</ele><time>2026-03-28T15:24:14.072Z</time></trkpt><trkpt lat="45.8240614" lon="13.7322853"><ele>315.66666666666663</ele><time>2026-03-28T15:24:16.059Z</time></trkpt><trkpt lat="45.8240161" lon="13.7321647"><ele>315.5</ele><time>2026-03-28T15:24:18.068Z</time></trkpt><trkpt lat="45.8240325" lon="13.7320671"><ele>315.3333333333333</ele><time>2026-03-28T15:24:19.059Z</time></trkpt><trkpt lat="45.8240543" lon="13.7319591"><ele>315.1666666666667</ele><time>2026-03-28T15:24:20.08Z</time></trkpt><trkpt lat="45.8240777" lon="13.7318409"><ele>315.0</ele><time>2026-03-28T15:24:21.055Z</time></trkpt><trkpt lat="45.8241131" lon="13.7317198"><ele>315.0</ele><time>2026-03-28T15:24:22.07Z</time></trkpt><trkpt lat="45.8241735" lon="13.7316111"><ele>315.0</ele><time>2026-03-28T15:24:23.063Z</time></trkpt><trkpt lat="45.824245" lon="13.7315299"><ele>315.0</ele><time>2026-03-28T15:24:24.065Z</time></trkpt><trkpt lat="45.8243287" lon="13.7314273"><ele>315.0</ele><time>2026-03-28T15:24:25.056Z</time></trkpt><trkpt lat="45.8244113" lon="13.7313345"><ele>315.0</ele><time>2026-03-28T15:24:26.067Z</time></trkpt><trkpt lat="45.8244857" lon="13.7312412"><ele>314.75</ele><time>2026-03-28T15:24:27.079Z</time></trkpt><trkpt lat="45.8245627" lon="13.7311376"><ele>314.5</ele><time>2026-03-28T15:24:28.063Z</time></trkpt><trkpt lat="45.8246469" lon="13.7310309"><ele>314.25</ele><time>2026-03-28T15:24:29.065Z</time></trkpt><trkpt lat="45.8247338" lon="13.7309193"><ele>314.0</ele><time>2026-03-28T15:24:30.07Z</time></trkpt><trkpt lat="45.824821" lon="13.7308019"><ele>314.0</ele><time>2026-03-28T15:24:31.07Z</time></trkpt><trkpt lat="45.8249054" lon="13.7306687"><ele>314.0</ele><time>2026-03-28T15:24:32.086Z</time></trkpt><trkpt lat="45.8249953" lon="13.7305315"><ele>314.0</ele><time>2026-03-28T15:24:33.067Z</time></trkpt><trkpt lat="45.8250881" lon="13.7304007"><ele>314.0</ele><time>2026-03-28T15:24:34.071Z</time></trkpt><trkpt lat="45.8251858" lon="13.7302591"><ele>315.0</ele><time>2026-03-28T15:24:35.072Z</time></trkpt><trkpt lat="45.8252821" lon="13.7301288"><ele>316.0</ele><time>2026-03-28T15:24:36.068Z</time></trkpt><trkpt lat="45.8253767" lon="13.7300048"><ele>317.0</ele><time>2026-03-28T15:24:37.078Z</time></trkpt><trkpt lat="45.8254735" lon="13.7298866"><ele>318.0</ele><time>2026-03-28T15:24:38.065Z</time></trkpt><trkpt lat="45.825566" lon="13.7297785"><ele>318.0</ele><time>2026-03-28T15:24:39.07Z</time></trkpt><trkpt lat="45.8256515" lon="13.7296801"><ele>318.0</ele><time>2026-03-28T15:24:40.063Z</time></trkpt><trkpt lat="45.8257322" lon="13.7295806"><ele>318.0</ele><time>2026-03-28T15:24:41.072Z</time></trkpt><trkpt lat="45.8258196" lon="13.7294795"><ele>318.0</ele><time>2026-03-28T15:24:42.07Z</time></trkpt><trkpt lat="45.8259125" lon="13.7293711"><ele>318.0</ele><time>2026-03-28T15:24:43.066Z</time></trkpt><trkpt lat="45.8260133" lon="13.7292587"><ele>318.75</ele><time>2026-03-28T15:24:44.088Z</time></trkpt><trkpt lat="45.8261185" lon="13.7291468"><ele>319.5</ele><time>2026-03-28T15:24:45.068Z</time></trkpt><trkpt lat="45.8262177" lon="13.7290307"><ele>320.25</ele><time>2026-03-28T15:24:46.068Z</time></trkpt><trkpt lat="45.8263162" lon="13.728908"><ele>321.0</ele><time>2026-03-28T15:24:47.061Z</time></trkpt><trkpt lat="45.8264113" lon="13.7287717"><ele>321.0</ele><time>2026-03-28T15:24:48.07Z</time></trkpt><trkpt lat="45.8264971" lon="13.7286158"><ele>321.0</ele><time>2026-03-28T15:24:49.067Z</time></trkpt><trkpt lat="45.8265659" lon="13.7284594"><ele>321.0</ele><time>2026-03-28T15:24:50.064Z</time></trkpt><trkpt lat="45.8266346" lon="13.728307"><ele>321.0</ele><time>2026-03-28T15:24:51.093Z</time></trkpt><trkpt lat="45.8267123" lon="13.7281771"><ele>320.75</ele><time>2026-03-28T15:24:52.069Z</time></trkpt><trkpt lat="45.8267979" lon="13.7280637"><ele>320.5</ele><time>2026-03-28T15:24:53.07Z</time></trkpt><trkpt lat="45.8268859" lon="13.7279439"><ele>320.25</ele><time>2026-03-28T15:24:54.067Z</time></trkpt><trkpt lat="45.8269676" lon="13.7278182"><ele>320.0</ele><time>2026-03-28T15:24:55.081Z</time></trkpt><trkpt lat="45.8270442" lon="13.7276809"><ele>321.0</ele><time>2026-03-28T15:24:56.072Z</time></trkpt><trkpt lat="45.8271207" lon="13.7275376"><ele>322.0</ele><time>2026-03-28T15:24:57.08Z</time></trkpt><trkpt lat="45.8271967" lon="13.7273859"><ele>323.0</ele><time>2026-03-28T15:24:58.082Z</time></trkpt><trkpt lat="45.8272824" lon="13.7272273"><ele>324.0</ele><time>2026-03-28T15:24:59.073Z</time></trkpt><trkpt lat="45.8273667" lon="13.7270753"><ele>324.0</ele><time>2026-03-28T15:25:00.079Z</time></trkpt><trkpt lat="45.8274487" lon="13.7269252"><ele>324.0</ele><time>2026-03-28T15:25:01.069Z</time></trkpt><trkpt lat="45.82754" lon="13.7267915"><ele>324.0</ele><time>2026-03-28T15:25:02.082Z</time></trkpt><trkpt lat="45.827643" lon="13.7266759"><ele>324.0</ele><time>2026-03-28T15:25:03.087Z</time></trkpt><trkpt lat="45.8277652" lon="13.7265715"><ele>323.0</ele><time>2026-03-28T15:25:04.078Z</time></trkpt><trkpt lat="45.827899" lon="13.7264863"><ele>322.0</ele><time>2026-03-28T15:25:05.08Z</time></trkpt><trkpt lat="45.8280438" lon="13.7264253"><ele>321.0</ele><time>2026-03-28T15:25:06.068Z</time></trkpt><trkpt lat="45.8281904" lon="13.7263787"><ele>320.0</ele><time>2026-03-28T15:25:07.065Z</time></trkpt><trkpt lat="45.8283401" lon="13.7263245"><ele>320.0</ele><time>2026-03-28T15:25:08.086Z</time></trkpt><trkpt lat="45.8284928" lon="13.7262564"><ele>320.0</ele><time>2026-03-28T15:25:09.066Z</time></trkpt><trkpt lat="45.8286468" lon="13.7261981"><ele>320.0</ele><time>2026-03-28T15:25:10.089Z</time></trkpt><trkpt lat="45.8288035" lon="13.7261468"><ele>320.0</ele><time>2026-03-28T15:25:11.068Z</time></trkpt><trkpt lat="45.828954" lon="13.7260895"><ele>320.0</ele><time>2026-03-28T15:25:12.067Z</time></trkpt><trkpt lat="45.8291041" lon="13.7260307"><ele>320.0</ele><time>2026-03-28T15:25:13.066Z</time></trkpt><trkpt lat="45.829236" lon="13.7259788"><ele>320.0</ele><time>2026-03-28T15:25:14.079Z</time></trkpt><trkpt lat="45.8293616" lon="13.7259279"><ele>321.5</ele><time>2026-03-28T15:25:15.068Z</time></trkpt><trkpt lat="45.8294801" lon="13.7258744"><ele>323.0</ele><time>2026-03-28T15:25:16.084Z</time></trkpt><trkpt lat="45.8296001" lon="13.7258028"><ele>324.5</ele><time>2026-03-28T15:25:17.066Z</time></trkpt><trkpt lat="45.8297165" lon="13.7257119"><ele>326.0</ele><time>2026-03-28T15:25:18.064Z</time></trkpt><trkpt lat="45.8298418" lon="13.7256072"><ele>326.0</ele><time>2026-03-28T15:25:19.071Z</time></trkpt><trkpt lat="45.8299656" lon="13.725474"><ele>326.0</ele><time>2026-03-28T15:25:20.066Z</time></trkpt><trkpt lat="45.8300894" lon="13.7253365"><ele>326.0</ele><time>2026-03-28T15:25:21.074Z</time></trkpt><trkpt lat="45.8302097" lon="13.7251898"><ele>327.0</ele><time>2026-03-28T15:25:22.076Z</time></trkpt><trkpt lat="45.8303244" lon="13.725037"><ele>328.0</ele><time>2026-03-28T15:25:23.065Z</time></trkpt><trkpt lat="45.8304317" lon="13.7248745"><ele>329.0</ele><time>2026-03-28T15:25:24.075Z</time></trkpt><trkpt lat="45.8305449" lon="13.7247152"><ele>329.0</ele><time>2026-03-28T15:25:25.075Z</time></trkpt><trkpt lat="45.8306515" lon="13.7245638"><ele>329.0</ele><time>2026-03-28T15:25:26.076Z</time></trkpt><trkpt lat="45.8307534" lon="13.7244201"><ele>329.0</ele><time>2026-03-28T15:25:27.069Z</time></trkpt><trkpt lat="45.8308572" lon="13.7242931"><ele>329.0</ele><time>2026-03-28T15:25:28.073Z</time></trkpt><trkpt lat="45.8309611" lon="13.7241731"><ele>329.25</ele><time>2026-03-28T15:25:29.074Z</time></trkpt><trkpt lat="45.8310577" lon="13.7240687"><ele>329.5</ele><time>2026-03-28T15:25:30.074Z</time></trkpt><trkpt lat="45.8311474" lon="13.7239638"><ele>329.75</ele><time>2026-03-28T15:25:31.074Z</time></trkpt><trkpt lat="45.8312247" lon="13.7238347"><ele>330.0</ele><time>2026-03-28T15:25:32.075Z</time></trkpt><trkpt lat="45.8312852" lon="13.7236755"><ele>329.25</ele><time>2026-03-28T15:25:33.075Z</time></trkpt><trkpt lat="45.8313481" lon="13.7235029"><ele>328.5</ele><time>2026-03-28T15:25:34.091Z</time></trkpt><trkpt lat="45.8314151" lon="13.7233288"><ele>327.75</ele><time>2026-03-28T15:25:35.067Z</time></trkpt><trkpt lat="45.8314951" lon="13.7231587"><ele>327.0</ele><time>2026-03-28T15:25:36.074Z</time></trkpt><trkpt lat="45.8315711" lon="13.7229712"><ele>327.0</ele><time>2026-03-28T15:25:37.077Z</time></trkpt><trkpt lat="45.8316414" lon="13.7227672"><ele>327.0</ele><time>2026-03-28T15:25:38.081Z</time></trkpt><trkpt lat="45.8317152" lon="13.7225599"><ele>327.0</ele><time>2026-03-28T15:25:39.078Z</time></trkpt><trkpt lat="45.8317952" lon="13.7223584"><ele>327.3333333333333</ele><time>2026-03-28T15:25:40.073Z</time></trkpt><trkpt lat="45.8318767" lon="13.7221604"><ele>327.66666666666663</ele><time>2026-03-28T15:25:41.07Z</time></trkpt><trkpt lat="45.8319501" lon="13.7219648"><ele>328.0</ele><time>2026-03-28T15:25:42.071Z</time></trkpt><trkpt lat="45.832025" lon="13.7217663"><ele>328.0</ele><time>2026-03-28T15:25:43.074Z</time></trkpt><trkpt lat="45.8320976" lon="13.7215712"><ele>328.0</ele><time>2026-03-28T15:25:44.078Z</time></trkpt><trkpt lat="45.8321628" lon="13.7213876"><ele>328.0</ele><time>2026-03-28T15:25:45.081Z</time></trkpt><trkpt lat="45.8322214" lon="13.7212211"><ele>328.0</ele><time>2026-03-28T15:25:46.077Z</time></trkpt><trkpt lat="45.8322739" lon="13.721068"><ele>328.79999999999995</ele><time>2026-03-28T15:25:47.081Z</time></trkpt><trkpt lat="45.8323242" lon="13.7209317"><ele>329.6</ele><time>2026-03-28T15:25:48.072Z</time></trkpt><trkpt lat="45.8323685" lon="13.7208007"><ele>330.4</ele><time>2026-03-28T15:25:49.076Z</time></trkpt><trkpt lat="45.8324141" lon="13.7206988"><ele>331.20000000000005</ele><time>2026-03-28T15:25:50.077Z</time></trkpt><trkpt lat="45.8324464" lon="13.7206126"><ele>332.0</ele><time>2026-03-28T15:25:51.064Z</time></trkpt><trkpt lat="45.8324964" lon="13.7204396"><ele>332.0</ele><time>2026-03-28T15:25:53.067Z</time></trkpt><trkpt lat="45.8325368" lon="13.7203335"><ele>332.0</ele><time>2026-03-28T15:25:54.088Z</time></trkpt><trkpt lat="45.8325811" lon="13.7202112"><ele>332.0</ele><time>2026-03-28T15:25:55.07Z</time></trkpt><trkpt lat="45.8326261" lon="13.7200784"><ele>332.0</ele><time>2026-03-28T15:25:56.073Z</time></trkpt><trkpt lat="45.8326799" lon="13.7199587"><ele>332.0</ele><time>2026-03-28T15:25:57.067Z</time></trkpt><trkpt lat="45.832731" lon="13.7198409"><ele>331.8</ele><time>2026-03-28T15:25:58.07Z</time></trkpt><trkpt lat="45.8327772" lon="13.719715"><ele>331.6</ele><time>2026-03-28T15:25:59.06Z</time></trkpt><trkpt lat="45.8328245" lon="13.7195926"><ele>331.40000000000003</ele><time>2026-03-28T15:26:00.08Z</time></trkpt><trkpt lat="45.8328699" lon="13.7194854"><ele>331.20000000000005</ele><time>2026-03-28T15:26:01.062Z</time></trkpt><trkpt lat="45.8329201" lon="13.7193727"><ele>331.0</ele><time>2026-03-28T15:26:02.07Z</time></trkpt><trkpt lat="45.8329758" lon="13.7192511"><ele>331.75</ele><time>2026-03-28T15:26:03.07Z</time></trkpt><trkpt lat="45.8330422" lon="13.7191397"><ele>332.5</ele><time>2026-03-28T15:26:04.062Z</time></trkpt><trkpt lat="45.8331206" lon="13.7190263"><ele>333.25</ele><time>2026-03-28T15:26:05.065Z</time></trkpt><trkpt lat="45.8331982" lon="13.7188991"><ele>334.0</ele><time>2026-03-28T15:26:06.072Z</time></trkpt><trkpt lat="45.8332829" lon="13.7187547"><ele>334.0</ele><time>2026-03-28T15:26:07.069Z</time></trkpt><trkpt lat="45.8333634" lon="13.7185994"><ele>334.0</ele><time>2026-03-28T15:26:08.076Z</time></trkpt><trkpt lat="45.83344" lon="13.7184515"><ele>334.0</ele><time>2026-03-28T15:26:09.071Z</time></trkpt><trkpt lat="45.83351" lon="13.7183106"><ele>334.0</ele><time>2026-03-28T15:26:10.068Z</time></trkpt><trkpt lat="45.8335799" lon="13.7181786"><ele>332.6</ele><time>2026-03-28T15:26:11.067Z</time></trkpt><trkpt lat="45.8336471" lon="13.7180525"><ele>331.2</ele><time>2026-03-28T15:26:12.069Z</time></trkpt><trkpt lat="45.8337132" lon="13.7179247"><ele>329.8</ele><time>2026-03-28T15:26:13.075Z</time></trkpt><trkpt lat="45.8337772" lon="13.7178"><ele>328.40000000000003</ele><time>2026-03-28T15:26:14.06Z</time></trkpt><trkpt lat="45.8338409" lon="13.7176795"><ele>327.0</ele><time>2026-03-28T15:26:15.055Z</time></trkpt><trkpt lat="45.8339041" lon="13.7175575"><ele>326.5</ele><time>2026-03-28T15:26:16.064Z</time></trkpt><trkpt lat="45.8339685" lon="13.7174295"><ele>326.0</ele><time>2026-03-28T15:26:17.057Z</time></trkpt><trkpt lat="45.8340376" lon="13.7172962"><ele>325.5</ele><time>2026-03-28T15:26:18.07Z</time></trkpt><trkpt lat="45.8341177" lon="13.7171665"><ele>325.0</ele><time>2026-03-28T15:26:19.067Z</time></trkpt><trkpt lat="45.8342051" lon="13.7170373"><ele>325.0</ele><time>2026-03-28T15:26:20.061Z</time></trkpt><trkpt lat="45.834291" lon="13.7169053"><ele>325.0</ele><time>2026-03-28T15:26:21.057Z</time></trkpt><trkpt lat="45.834374" lon="13.7167678"><ele>325.0</ele><time>2026-03-28T15:26:22.068Z</time></trkpt><trkpt lat="45.8344568" lon="13.7166401"><ele>325.0</ele><time>2026-03-28T15:26:23.06Z</time></trkpt><trkpt lat="45.8345352" lon="13.7165343"><ele>325.2</ele><time>2026-03-28T15:26:24.056Z</time></trkpt><trkpt lat="45.8346047" lon="13.7164406"><ele>325.4</ele><time>2026-03-28T15:26:25.062Z</time></trkpt><trkpt lat="45.8346729" lon="13.7163496"><ele>325.6</ele><time>2026-03-28T15:26:26.063Z</time></trkpt><trkpt lat="45.834748" lon="13.7162577"><ele>325.8</ele><time>2026-03-28T15:26:27.077Z</time></trkpt><trkpt lat="45.834829" lon="13.7161583"><ele>326.0</ele><time>2026-03-28T15:26:28.064Z</time></trkpt><trkpt lat="45.8349143" lon="13.7160492"><ele>326.25</ele><time>2026-03-28T15:26:29.064Z</time></trkpt><trkpt lat="45.8350062" lon="13.7159304"><ele>326.5</ele><time>2026-03-28T15:26:30.062Z</time></trkpt><trkpt lat="45.8350912" lon="13.7157919"><ele>326.75</ele><time>2026-03-28T15:26:31.064Z</time></trkpt><trkpt lat="45.835179" lon="13.715648"><ele>327.0</ele><time>2026-03-28T15:26:32.079Z</time></trkpt><trkpt lat="45.8352808" lon="13.7155216"><ele>327.25</ele><time>2026-03-28T15:26:33.067Z</time></trkpt><trkpt lat="45.835388" lon="13.7153982"><ele>327.5</ele><time>2026-03-28T15:26:34.068Z</time></trkpt><trkpt lat="45.83549" lon="13.7152716"><ele>327.75</ele><time>2026-03-28T15:26:35.063Z</time></trkpt><trkpt lat="45.8355945" lon="13.71514"><ele>328.0</ele><time>2026-03-28T15:26:36.073Z</time></trkpt><trkpt lat="45.8356912" lon="13.7149994"><ele>329.0</ele><time>2026-03-28T15:26:37.073Z</time></trkpt><trkpt lat="45.8357803" lon="13.7148694"><ele>330.0</ele><time>2026-03-28T15:26:38.062Z</time></trkpt><trkpt lat="45.8358718" lon="13.7147498"><ele>331.0</ele><time>2026-03-28T15:26:39.077Z</time></trkpt><trkpt lat="45.8359764" lon="13.7146432"><ele>332.0</ele><time>2026-03-28T15:26:40.072Z</time></trkpt><trkpt lat="45.8360796" lon="13.7145579"><ele>332.6</ele><time>2026-03-28T15:26:41.068Z</time></trkpt><trkpt lat="45.8361593" lon="13.714495"><ele>333.20000000000005</ele><time>2026-03-28T15:26:42.072Z</time></trkpt><trkpt lat="45.8362334" lon="13.7144341"><ele>333.8</ele><time>2026-03-28T15:26:45.053Z</time></trkpt><trkpt lat="45.836262" lon="13.7143267"><ele>334.4</ele><time>2026-03-28T15:26:47.056Z</time></trkpt><trkpt lat="45.8362728" lon="13.7141385"><ele>335.0</ele><time>2026-03-28T15:26:49.055Z</time></trkpt><trkpt lat="45.8362804" lon="13.7140153"><ele>335.0</ele><time>2026-03-28T15:26:50.064Z</time></trkpt><trkpt lat="45.8362921" lon="13.7138624"><ele>335.0</ele><time>2026-03-28T15:26:51.061Z</time></trkpt><trkpt lat="45.8362998" lon="13.7137021"><ele>335.0</ele><time>2026-03-28T15:26:52.076Z</time></trkpt><trkpt lat="45.8362978" lon="13.713545"><ele>335.0</ele><time>2026-03-28T15:26:53.058Z</time></trkpt><trkpt lat="45.8362929" lon="13.7133951"><ele>335.0</ele><time>2026-03-28T15:26:54.053Z</time></trkpt><trkpt lat="45.8362872" lon="13.7132401"><ele>335.0</ele><time>2026-03-28T15:26:55.063Z</time></trkpt><trkpt lat="45.8362664" lon="13.7130949"><ele>335.0</ele><time>2026-03-28T15:26:56.07Z</time></trkpt><trkpt lat="45.8362287" lon="13.7129633"><ele>335.0</ele><time>2026-03-28T15:26:57.067Z</time></trkpt><trkpt lat="45.8361849" lon="13.7128352"><ele>335.0</ele><time>2026-03-28T15:26:58.063Z</time></trkpt><trkpt lat="45.836154" lon="13.7126916"><ele>335.0</ele><time>2026-03-28T15:26:59.082Z</time></trkpt><trkpt lat="45.8361329" lon="13.7125544"><ele>334.8</ele><time>2026-03-28T15:27:00.068Z</time></trkpt><trkpt lat="45.8360986" lon="13.7124224"><ele>334.6</ele><time>2026-03-28T15:27:01.06Z</time></trkpt><trkpt lat="45.8360564" lon="13.712278"><ele>334.4</ele><time>2026-03-28T15:27:02.072Z</time></trkpt><trkpt lat="45.8360166" lon="13.7121354"><ele>334.2</ele><time>2026-03-28T15:27:03.065Z</time></trkpt><trkpt lat="45.8359883" lon="13.7119915"><ele>334.0</ele><time>2026-03-28T15:27:04.063Z</time></trkpt><trkpt lat="45.8359898" lon="13.7118469"><ele>334.0</ele><time>2026-03-28T15:27:05.058Z</time></trkpt><trkpt lat="45.8360091" lon="13.7117174"><ele>334.0</ele><time>2026-03-28T15:27:06.066Z</time></trkpt><trkpt lat="45.8360442" lon="13.7116007"><ele>334.0</ele><time>2026-03-28T15:27:07.072Z</time></trkpt><trkpt lat="45.8360953" lon="13.7114844"><ele>334.0</ele><time>2026-03-28T15:27:08.057Z</time></trkpt><trkpt lat="45.836145" lon="13.7113577"><ele>334.0</ele><time>2026-03-28T15:27:09.058Z</time></trkpt><trkpt lat="45.8361916" lon="13.7112167"><ele>334.0</ele><time>2026-03-28T15:27:10.062Z</time></trkpt><trkpt lat="45.8362224" lon="13.7110803"><ele>334.0</ele><time>2026-03-28T15:27:11.067Z</time></trkpt><trkpt lat="45.8362378" lon="13.7109425"><ele>334.0</ele><time>2026-03-28T15:27:12.066Z</time></trkpt><trkpt lat="45.8362479" lon="13.7108"><ele>334.0</ele><time>2026-03-28T15:27:13.056Z</time></trkpt><trkpt lat="45.8362527" lon="13.7106513"><ele>334.0</ele><time>2026-03-28T15:27:14.065Z</time></trkpt><trkpt lat="45.8362392" lon="13.7104987"><ele>335.0</ele><time>2026-03-28T15:27:15.067Z</time></trkpt><trkpt lat="45.836216" lon="13.71035"><ele>336.0</ele><time>2026-03-28T15:27:16.064Z</time></trkpt><trkpt lat="45.8361892" lon="13.7102221"><ele>337.0</ele><time>2026-03-28T15:27:17.069Z</time></trkpt><trkpt lat="45.8361437" lon="13.7101127"><ele>338.0</ele><time>2026-03-28T15:27:18.07Z</time></trkpt><trkpt lat="45.8360894" lon="13.7100077"><ele>339.0</ele><time>2026-03-28T15:27:19.059Z</time></trkpt><trkpt lat="45.8360304" lon="13.7099126"><ele>339.0</ele><time>2026-03-28T15:27:20.065Z</time></trkpt><trkpt lat="45.8359852" lon="13.7098346"><ele>339.0</ele><time>2026-03-28T15:27:21.066Z</time></trkpt><trkpt lat="45.8359497" lon="13.7097551"><ele>339.0</ele><time>2026-03-28T15:27:22.071Z</time></trkpt><trkpt lat="45.8359029" lon="13.7096093"><ele>339.0</ele><time>2026-03-28T15:27:24.068Z</time></trkpt><trkpt lat="45.8358653" lon="13.7094958"><ele>339.0</ele><time>2026-03-28T15:27:26.064Z</time></trkpt><trkpt lat="45.83581" lon="13.7093845"><ele>339.0</ele><time>2026-03-28T15:31:56.081Z</time></trkpt><trkpt lat="45.8357132" lon="13.7092426"><ele>338.8333333333333</ele><time>2026-03-28T15:31:58.078Z</time></trkpt><trkpt lat="45.8356462" lon="13.7091805"><ele>338.6666666666667</ele><time>2026-03-28T15:31:59.074Z</time></trkpt><trkpt lat="45.8355725" lon="13.7091271"><ele>338.5</ele><time>2026-03-28T15:32:00.083Z</time></trkpt><trkpt lat="45.8354961" lon="13.7090896"><ele>338.33333333333337</ele><time>2026-03-28T15:32:01.083Z</time></trkpt><trkpt lat="45.8354201" lon="13.7090586"><ele>338.1666666666667</ele><time>2026-03-28T15:32:02.072Z</time></trkpt><trkpt lat="45.8353476" lon="13.7090316"><ele>338.0</ele><time>2026-03-28T15:32:03.077Z</time></trkpt><trkpt lat="45.8352687" lon="13.7090046"><ele>338.0</ele><time>2026-03-28T15:32:05.065Z</time></trkpt><trkpt lat="45.8352686" lon="13.7088811"><ele>338.0</ele><time>2026-03-28T15:33:34.074Z</time></trkpt><trkpt lat="45.8352784" lon="13.7087264"><ele>338.0</ele><time>2026-03-28T15:33:36.075Z</time></trkpt><trkpt lat="45.8352897" lon="13.7086203"><ele>338.0</ele><time>2026-03-28T15:33:37.082Z</time></trkpt><trkpt lat="45.8353062" lon="13.7085089"><ele>338.0</ele><time>2026-03-28T15:33:38.081Z</time></trkpt><trkpt lat="45.8353254" lon="13.7084089"><ele>338.0</ele><time>2026-03-28T15:33:39.075Z</time></trkpt><trkpt lat="45.835344" lon="13.7083099"><ele>337.42857142857144</ele><time>2026-03-28T15:33:40.098Z</time></trkpt><trkpt lat="45.8353612" lon="13.7082021"><ele>336.85714285714283</ele><time>2026-03-28T15:33:41.077Z</time></trkpt><trkpt lat="45.8353792" lon="13.7081014"><ele>336.2857142857143</ele><time>2026-03-28T15:33:42.079Z</time></trkpt><trkpt lat="45.8354033" lon="13.7080121"><ele>335.7142857142857</ele><time>2026-03-28T15:33:43.074Z</time></trkpt><trkpt lat="45.8354373" lon="13.7079181"><ele>335.14285714285717</ele><time>2026-03-28T15:33:44.078Z</time></trkpt><trkpt lat="45.8354758" lon="13.7078224"><ele>334.57142857142856</ele><time>2026-03-28T15:33:45.08Z</time></trkpt><trkpt lat="45.8355026" lon="13.7077397"><ele>334.0</ele><time>2026-03-28T15:33:46.08Z</time></trkpt><trkpt lat="45.835501" lon="13.7076064"><ele>334.0</ele><time>2026-03-28T15:33:48.061Z</time></trkpt><trkpt lat="45.835516" lon="13.7075007"><ele>334.0</ele><time>2026-03-28T15:33:50.069Z</time></trkpt><trkpt lat="45.8355882" lon="13.7073699"><ele>334.0</ele><time>2026-03-28T15:33:52.062Z</time></trkpt><trkpt lat="45.8356373" lon="13.7072733"><ele>334.0</ele><time>2026-03-28T15:33:53.065Z</time></trkpt><trkpt lat="45.8356827" lon="13.7071754"><ele>334.0</ele><time>2026-03-28T15:33:54.078Z</time></trkpt><trkpt lat="45.835728" lon="13.7070678"><ele>334.0</ele><time>2026-03-28T15:33:55.085Z</time></trkpt><trkpt lat="45.8357752" lon="13.7069593"><ele>334.79999999999995</ele><time>2026-03-28T15:33:56.083Z</time></trkpt><trkpt lat="45.8358202" lon="13.7068447"><ele>335.59999999999997</ele><time>2026-03-28T15:33:57.068Z</time></trkpt><trkpt lat="45.8358716" lon="13.7067307"><ele>336.4</ele><time>2026-03-28T15:33:58.077Z</time></trkpt><trkpt lat="45.8359291" lon="13.706616"><ele>337.2</ele><time>2026-03-28T15:33:59.066Z</time></trkpt><trkpt lat="45.8359771" lon="13.7064942"><ele>338.0</ele><time>2026-03-28T15:34:00.077Z</time></trkpt><trkpt lat="45.8360271" lon="13.7063829"><ele>338.5</ele><time>2026-03-28T15:34:01.075Z</time></trkpt><trkpt lat="45.8360751" lon="13.7062664"><ele>339.0</ele><time>2026-03-28T15:34:02.079Z</time></trkpt><trkpt lat="45.8361222" lon="13.7061619"><ele>339.5</ele><time>2026-03-28T15:34:03.071Z</time></trkpt><trkpt lat="45.8361652" lon="13.7060519"><ele>340.0</ele><time>2026-03-28T15:34:04.076Z</time></trkpt><trkpt lat="45.8362103" lon="13.7059473"><ele>340.5</ele><time>2026-03-28T15:34:05.063Z</time></trkpt><trkpt lat="45.8362564" lon="13.7058402"><ele>341.0</ele><time>2026-03-28T15:34:06.063Z</time></trkpt><trkpt lat="45.8363009" lon="13.7057369"><ele>341.5</ele><time>2026-03-28T15:34:07.066Z</time></trkpt><trkpt lat="45.8363451" lon="13.7056344"><ele>342.0</ele><time>2026-03-28T15:34:08.079Z</time></trkpt><trkpt lat="45.8363883" lon="13.7055332"><ele>342.5</ele><time>2026-03-28T15:34:09.076Z</time></trkpt><trkpt lat="45.836436" lon="13.7054377"><ele>343.0</ele><time>2026-03-28T15:34:10.092Z</time></trkpt><trkpt lat="45.836478" lon="13.7053452"><ele>343.5</ele><time>2026-03-28T15:34:11.071Z</time></trkpt><trkpt lat="45.8365136" lon="13.7052569"><ele>344.0</ele><time>2026-03-28T15:34:12.077Z</time></trkpt><trkpt lat="45.8365481" lon="13.7051644"><ele>344.5714285714286</ele><time>2026-03-28T15:34:13.077Z</time></trkpt><trkpt lat="45.8365874" lon="13.7050716"><ele>345.14285714285717</ele><time>2026-03-28T15:34:14.084Z</time></trkpt><trkpt lat="45.8366259" lon="13.7049946"><ele>345.7142857142857</ele><time>2026-03-28T15:34:15.074Z</time></trkpt><trkpt lat="45.8366642" lon="13.704904"><ele>346.28571428571433</ele><time>2026-03-28T15:34:16.071Z</time></trkpt><trkpt lat="45.8366972" lon="13.7048221"><ele>346.8571428571429</ele><time>2026-03-28T15:34:17.066Z</time></trkpt><trkpt lat="45.8367378" lon="13.7047237"><ele>347.42857142857144</ele><time>2026-03-28T15:34:18.081Z</time></trkpt><trkpt lat="45.8367797" lon="13.7046274"><ele>348.0</ele><time>2026-03-28T15:34:19.077Z</time></trkpt><trkpt lat="45.8368244" lon="13.7045257"><ele>348.5</ele><time>2026-03-28T15:34:20.076Z</time></trkpt><trkpt lat="45.8368684" lon="13.7044201"><ele>349.0</ele><time>2026-03-28T15:34:21.068Z</time></trkpt><trkpt lat="45.836911" lon="13.7043129"><ele>349.5</ele><time>2026-03-28T15:34:22.072Z</time></trkpt><trkpt lat="45.8369422" lon="13.7041983"><ele>350.0</ele><time>2026-03-28T15:34:23.071Z</time></trkpt><trkpt lat="45.8369658" lon="13.7040863"><ele>350.5</ele><time>2026-03-28T15:34:24.074Z</time></trkpt><trkpt lat="45.8369811" lon="13.7039721"><ele>351.0</ele><time>2026-03-28T15:34:25.074Z</time></trkpt><trkpt lat="45.8369899" lon="13.7038591"><ele>351.28571428571433</ele><time>2026-03-28T15:34:26.075Z</time></trkpt><trkpt lat="45.8369959" lon="13.7037546"><ele>351.57142857142856</ele><time>2026-03-28T15:34:27.078Z</time></trkpt><trkpt lat="45.8369967" lon="13.7036602"><ele>351.8571428571429</ele><time>2026-03-28T15:34:28.07Z</time></trkpt><trkpt lat="45.8369918" lon="13.7035701"><ele>352.14285714285717</ele><time>2026-03-28T15:34:29.065Z</time></trkpt><trkpt lat="45.8369907" lon="13.7034721"><ele>352.42857142857144</ele><time>2026-03-28T15:34:30.063Z</time></trkpt><trkpt lat="45.8369848" lon="13.7033749"><ele>352.7142857142857</ele><time>2026-03-28T15:34:31.069Z</time></trkpt><trkpt lat="45.8369701" lon="13.7032801"><ele>353.0</ele><time>2026-03-28T15:34:32.076Z</time></trkpt><trkpt lat="45.8369277" lon="13.7031248"><ele>353.59999999999997</ele><time>2026-03-28T15:34:34.083Z</time></trkpt><trkpt lat="45.8368983" lon="13.7029811"><ele>354.2</ele><time>2026-03-28T15:34:36.065Z</time></trkpt><trkpt lat="45.8368901" lon="13.7028759"><ele>354.8</ele><time>2026-03-28T15:34:38.066Z</time></trkpt><trkpt lat="45.8368607" lon="13.7027399"><ele>355.4</ele><time>2026-03-28T15:34:41.07Z</time></trkpt><trkpt lat="45.836821" lon="13.7026022"><ele>356.0</ele><time>2026-03-28T15:34:43.061Z</time></trkpt><trkpt lat="45.8367831" lon="13.7024703"><ele>356.0</ele><time>2026-03-28T15:34:45.073Z</time></trkpt><trkpt lat="45.836784" lon="13.7023647"><ele>356.0</ele><time>2026-03-28T15:34:48.057Z</time></trkpt><trkpt lat="45.8368022" lon="13.7022736"><ele>356.0</ele><time>2026-03-28T15:34:50.064Z</time></trkpt><trkpt lat="45.8368257" lon="13.7021882"><ele>356.0</ele><time>2026-03-28T15:34:51.063Z</time></trkpt><trkpt lat="45.8368398" lon="13.7020862"><ele>356.0</ele><time>2026-03-28T15:34:52.065Z</time></trkpt><trkpt lat="45.8368179" lon="13.7019379"><ele>356.0</ele><time>2026-03-28T15:34:54.058Z</time></trkpt><trkpt lat="45.8367784" lon="13.7018461"><ele>355.6</ele><time>2026-03-28T15:34:56.057Z</time></trkpt><trkpt lat="45.8368057" lon="13.7017172"><ele>355.20000000000005</ele><time>2026-03-28T15:34:58.055Z</time></trkpt><trkpt lat="45.8368665" lon="13.7016346"><ele>354.79999999999995</ele><time>2026-03-28T15:35:00.049Z</time></trkpt><trkpt lat="45.8368938" lon="13.701525"><ele>354.4</ele><time>2026-03-28T15:35:02.064Z</time></trkpt><trkpt lat="45.8369434" lon="13.7013676"><ele>354.0</ele><time>2026-03-28T15:35:04.063Z</time></trkpt><trkpt lat="45.8369771" lon="13.7012738"><ele>354.0</ele><time>2026-03-28T15:35:05.058Z</time></trkpt><trkpt lat="45.8370002" lon="13.7011895"><ele>354.0</ele><time>2026-03-28T15:35:06.078Z</time></trkpt><trkpt lat="45.8370489" lon="13.7010548"><ele>354.0</ele><time>2026-03-28T15:35:08.058Z</time></trkpt><trkpt lat="45.8371163" lon="13.7009986"><ele>354.0</ele><time>2026-03-28T15:35:10.052Z</time></trkpt><trkpt lat="45.8371793" lon="13.7009705"><ele>354.0</ele><time>2026-03-28T15:35:13.063Z</time></trkpt><trkpt lat="45.8370881" lon="13.7009739"><ele>354.0</ele><time>2026-03-28T15:40:36.054Z</time></trkpt><trkpt lat="45.8370228" lon="13.70097"><ele>354.8333333333333</ele><time>2026-03-28T15:40:37.059Z</time></trkpt><trkpt lat="45.8369526" lon="13.7009797"><ele>355.6666666666667</ele><time>2026-03-28T15:40:38.06Z</time></trkpt><trkpt lat="45.8368799" lon="13.7010006"><ele>356.5</ele><time>2026-03-28T15:40:39.062Z</time></trkpt><trkpt lat="45.8368177" lon="13.7010305"><ele>357.33333333333337</ele><time>2026-03-28T15:40:40.067Z</time></trkpt><trkpt lat="45.8367643" lon="13.7010795"><ele>358.1666666666667</ele><time>2026-03-28T15:40:41.057Z</time></trkpt><trkpt lat="45.8366977" lon="13.7012491"><ele>359.0</ele><time>2026-03-28T15:40:43.051Z</time></trkpt><trkpt lat="45.8366455" lon="13.7013663"><ele>359.1666666666667</ele><time>2026-03-28T15:40:44.063Z</time></trkpt><trkpt lat="45.836594" lon="13.7014716"><ele>359.33333333333337</ele><time>2026-03-28T15:40:45.063Z</time></trkpt><trkpt lat="45.8365424" lon="13.7015557"><ele>359.5</ele><time>2026-03-28T15:40:46.069Z</time></trkpt><trkpt lat="45.83648" lon="13.7016279"><ele>359.6666666666667</ele><time>2026-03-28T15:40:47.061Z</time></trkpt><trkpt lat="45.8364002" lon="13.7016902"><ele>359.8333333333333</ele><time>2026-03-28T15:40:48.077Z</time></trkpt><trkpt lat="45.836323" lon="13.7017636"><ele>360.0</ele><time>2026-03-28T15:40:49.062Z</time></trkpt><trkpt lat="45.8362441" lon="13.7018499"><ele>359.8</ele><time>2026-03-28T15:40:50.079Z</time></trkpt><trkpt lat="45.836159" lon="13.7019185"><ele>359.6</ele><time>2026-03-28T15:40:51.061Z</time></trkpt><trkpt lat="45.8360658" lon="13.7019767"><ele>359.4</ele><time>2026-03-28T15:40:52.076Z</time></trkpt><trkpt lat="45.8359699" lon="13.7020291"><ele>359.2</ele><time>2026-03-28T15:40:53.057Z</time></trkpt><trkpt lat="45.8358679" lon="13.7020745"><ele>359.0</ele><time>2026-03-28T15:40:54.067Z</time></trkpt><trkpt lat="45.8357644" lon="13.7021249"><ele>359.0</ele><time>2026-03-28T15:40:55.065Z</time></trkpt><trkpt lat="45.8356647" lon="13.7021881"><ele>359.0</ele><time>2026-03-28T15:40:56.064Z</time></trkpt><trkpt lat="45.8355676" lon="13.7022618"><ele>359.0</ele><time>2026-03-28T15:40:57.058Z</time></trkpt><trkpt lat="45.8354667" lon="13.7023457"><ele>359.0</ele><time>2026-03-28T15:40:58.066Z</time></trkpt><trkpt lat="45.8353643" lon="13.7024287"><ele>359.0</ele><time>2026-03-28T15:40:59.063Z</time></trkpt><trkpt lat="45.8352592" lon="13.702503"><ele>359.0</ele><time>2026-03-28T15:41:00.076Z</time></trkpt><trkpt lat="45.8351536" lon="13.7025713"><ele>359.0</ele><time>2026-03-28T15:41:01.052Z</time></trkpt><trkpt lat="45.8350538" lon="13.702635"><ele>359.0</ele><time>2026-03-28T15:41:02.084Z</time></trkpt><trkpt lat="45.8349554" lon="13.702718"><ele>357.5</ele><time>2026-03-28T15:41:03.077Z</time></trkpt><trkpt lat="45.8348571" lon="13.7028019"><ele>356.0</ele><time>2026-03-28T15:41:04.067Z</time></trkpt><trkpt lat="45.834754" lon="13.7028879"><ele>354.5</ele><time>2026-03-28T15:41:05.058Z</time></trkpt><trkpt lat="45.8346474" lon="13.7029768"><ele>353.0</ele><time>2026-03-28T15:41:06.06Z</time></trkpt><trkpt lat="45.8345412" lon="13.7030683"><ele>353.0</ele><time>2026-03-28T15:41:07.063Z</time></trkpt><trkpt lat="45.834442" lon="13.7031577"><ele>353.0</ele><time>2026-03-28T15:41:08.062Z</time></trkpt><trkpt lat="45.8343455" lon="13.7032448"><ele>353.0</ele><time>2026-03-28T15:41:09.062Z</time></trkpt><trkpt lat="45.8342521" lon="13.7033224"><ele>353.0</ele><time>2026-03-28T15:41:10.066Z</time></trkpt><trkpt lat="45.8341664" lon="13.7033821"><ele>353.0</ele><time>2026-03-28T15:41:11.072Z</time></trkpt><trkpt lat="45.8340831" lon="13.7034346"><ele>353.33333333333337</ele><time>2026-03-28T15:41:12.061Z</time></trkpt><trkpt lat="45.8340018" lon="13.7034824"><ele>353.6666666666667</ele><time>2026-03-28T15:41:13.069Z</time></trkpt><trkpt lat="45.8339186" lon="13.7035208"><ele>354.0</ele><time>2026-03-28T15:41:14.069Z</time></trkpt><trkpt lat="45.8338359" lon="13.7035552"><ele>354.3333333333333</ele><time>2026-03-28T15:41:15.058Z</time></trkpt><trkpt lat="45.8337587" lon="13.703588"><ele>354.66666666666663</ele><time>2026-03-28T15:41:16.08Z</time></trkpt><trkpt lat="45.8336852" lon="13.7036215"><ele>355.0</ele><time>2026-03-28T15:41:17.076Z</time></trkpt><trkpt lat="45.8336064" lon="13.7036582"><ele>353.4</ele><time>2026-03-28T15:41:18.077Z</time></trkpt><trkpt lat="45.8335212" lon="13.7037041"><ele>351.8</ele><time>2026-03-28T15:41:19.063Z</time></trkpt><trkpt lat="45.8334321" lon="13.7037655"><ele>350.20000000000005</ele><time>2026-03-28T15:41:20.075Z</time></trkpt><trkpt lat="45.8333357" lon="13.7038317"><ele>348.6</ele><time>2026-03-28T15:41:21.074Z</time></trkpt><trkpt lat="45.8332333" lon="13.7039009"><ele>347.0</ele><time>2026-03-28T15:41:22.074Z</time></trkpt><trkpt lat="45.8331418" lon="13.7039718"><ele>346.6</ele><time>2026-03-28T15:41:23.073Z</time></trkpt><trkpt lat="45.8330524" lon="13.7040508"><ele>346.20000000000005</ele><time>2026-03-28T15:41:24.074Z</time></trkpt><trkpt lat="45.8329679" lon="13.7041347"><ele>345.8</ele><time>2026-03-28T15:41:25.064Z</time></trkpt><trkpt lat="45.8328841" lon="13.7042149"><ele>345.4</ele><time>2026-03-28T15:41:26.075Z</time></trkpt><trkpt lat="45.8327994" lon="13.7042867"><ele>345.0</ele><time>2026-03-28T15:41:27.06Z</time></trkpt><trkpt lat="45.8327108" lon="13.7043517"><ele>345.2</ele><time>2026-03-28T15:41:28.063Z</time></trkpt><trkpt lat="45.8326107" lon="13.7044067"><ele>345.4</ele><time>2026-03-28T15:41:29.065Z</time></trkpt><trkpt lat="45.8325082" lon="13.7044569"><ele>345.6</ele><time>2026-03-28T15:41:30.064Z</time></trkpt><trkpt lat="45.8324105" lon="13.7045116"><ele>345.8</ele><time>2026-03-28T15:41:31.065Z</time></trkpt><trkpt lat="45.8323194" lon="13.7045745"><ele>346.0</ele><time>2026-03-28T15:41:32.073Z</time></trkpt><trkpt lat="45.8322294" lon="13.7046399"><ele>346.0</ele><time>2026-03-28T15:41:33.066Z</time></trkpt><trkpt lat="45.8321336" lon="13.7047004"><ele>346.0</ele><time>2026-03-28T15:41:34.092Z</time></trkpt><trkpt lat="45.8320337" lon="13.7047595"><ele>346.0</ele><time>2026-03-28T15:41:35.06Z</time></trkpt><trkpt lat="45.8319343" lon="13.7048204"><ele>346.0</ele><time>2026-03-28T15:41:36.07Z</time></trkpt><trkpt lat="45.8318313" lon="13.7048725"><ele>346.0</ele><time>2026-03-28T15:41:37.062Z</time></trkpt><trkpt lat="45.8317256" lon="13.7049199"><ele>346.0</ele><time>2026-03-28T15:41:38.062Z</time></trkpt><trkpt lat="45.831621" lon="13.7049673"><ele>346.0</ele><time>2026-03-28T15:41:39.058Z</time></trkpt><trkpt lat="45.8315099" lon="13.7050117"><ele>346.0</ele><time>2026-03-28T15:41:40.061Z</time></trkpt><trkpt lat="45.8313935" lon="13.7050623"><ele>346.0</ele><time>2026-03-28T15:41:41.074Z</time></trkpt><trkpt lat="45.8312736" lon="13.7051146"><ele>346.0</ele><time>2026-03-28T15:41:42.067Z</time></trkpt><trkpt lat="45.8311512" lon="13.705161"><ele>346.0</ele><time>2026-03-28T15:41:43.063Z</time></trkpt><trkpt lat="45.8310257" lon="13.7052058"><ele>346.0</ele><time>2026-03-28T15:41:44.055Z</time></trkpt><trkpt lat="45.8309049" lon="13.7052439"><ele>346.0</ele><time>2026-03-28T15:41:45.051Z</time></trkpt><trkpt lat="45.8307906" lon="13.7052821"><ele>345.0</ele><time>2026-03-28T15:41:46.074Z</time></trkpt><trkpt lat="45.8306805" lon="13.7053255"><ele>344.0</ele><time>2026-03-28T15:41:47.06Z</time></trkpt><trkpt lat="45.8305766" lon="13.7053684"><ele>343.0</ele><time>2026-03-28T15:41:48.067Z</time></trkpt><trkpt lat="45.8304789" lon="13.7054094"><ele>342.0</ele><time>2026-03-28T15:41:49.059Z</time></trkpt><trkpt lat="45.8303878" lon="13.7054267"><ele>341.0</ele><time>2026-03-28T15:41:50.057Z</time></trkpt><trkpt lat="45.830292" lon="13.7054216"><ele>341.0</ele><time>2026-03-28T15:41:51.06Z</time></trkpt><trkpt lat="45.8301929" lon="13.7053994"><ele>341.0</ele><time>2026-03-28T15:41:52.055Z</time></trkpt><trkpt lat="45.8300859" lon="13.70539"><ele>341.0</ele><time>2026-03-28T15:41:53.065Z</time></trkpt><trkpt lat="45.8299724" lon="13.7053761"><ele>341.0</ele><time>2026-03-28T15:41:54.067Z</time></trkpt><trkpt lat="45.829866" lon="13.7053517"><ele>341.0</ele><time>2026-03-28T15:41:55.075Z</time></trkpt><trkpt lat="45.829767" lon="13.7053319"><ele>340.8</ele><time>2026-03-28T15:41:56.065Z</time></trkpt><trkpt lat="45.8296633" lon="13.7053269"><ele>340.6</ele><time>2026-03-28T15:41:57.06Z</time></trkpt><trkpt lat="45.8295602" lon="13.7053282"><ele>340.4</ele><time>2026-03-28T15:41:58.064Z</time></trkpt><trkpt lat="45.8294747" lon="13.7053151"><ele>340.2</ele><time>2026-03-28T15:41:59.07Z</time></trkpt><trkpt lat="45.8293813" lon="13.7052609"><ele>340.0</ele><time>2026-03-28T15:42:00.071Z</time></trkpt><trkpt lat="45.8292851" lon="13.7051792"><ele>339.0</ele><time>2026-03-28T15:42:01.06Z</time></trkpt><trkpt lat="45.8291973" lon="13.7050753"><ele>338.0</ele><time>2026-03-28T15:42:02.06Z</time></trkpt><trkpt lat="45.8291123" lon="13.704967"><ele>337.0</ele><time>2026-03-28T15:42:03.058Z</time></trkpt><trkpt lat="45.8290331" lon="13.7048579"><ele>336.0</ele><time>2026-03-28T15:42:04.065Z</time></trkpt><trkpt lat="45.8289547" lon="13.7047563"><ele>335.0</ele><time>2026-03-28T15:42:05.059Z</time></trkpt><trkpt lat="45.8288643" lon="13.704674"><ele>335.0</ele><time>2026-03-28T15:42:06.063Z</time></trkpt><trkpt lat="45.8287584" lon="13.7046196"><ele>335.0</ele><time>2026-03-28T15:42:07.075Z</time></trkpt><trkpt lat="45.8286429" lon="13.7045748"><ele>335.0</ele><time>2026-03-28T15:42:08.065Z</time></trkpt><trkpt lat="45.8285274" lon="13.7045349"><ele>335.0</ele><time>2026-03-28T15:42:09.07Z</time></trkpt><trkpt lat="45.828418" lon="13.7044714"><ele>335.0</ele><time>2026-03-28T15:42:10.059Z</time></trkpt><trkpt lat="45.8283134" lon="13.7043877"><ele>335.0</ele><time>2026-03-28T15:42:11.067Z</time></trkpt><trkpt lat="45.8282107" lon="13.7043112"><ele>335.0</ele><time>2026-03-28T15:42:12.071Z</time></trkpt><trkpt lat="45.8281141" lon="13.7042576"><ele>335.0</ele><time>2026-03-28T15:42:13.054Z</time></trkpt><trkpt lat="45.8280152" lon="13.7042046"><ele>335.0</ele><time>2026-03-28T15:42:14.088Z</time></trkpt><trkpt lat="45.8279125" lon="13.7041319"><ele>335.0</ele><time>2026-03-28T15:42:15.057Z</time></trkpt><trkpt lat="45.8278123" lon="13.7040421"><ele>335.0</ele><time>2026-03-28T15:42:16.066Z</time></trkpt><trkpt lat="45.827716" lon="13.7039348"><ele>335.0</ele><time>2026-03-28T15:42:17.063Z</time></trkpt><trkpt lat="45.8276126" lon="13.7038335"><ele>335.0</ele><time>2026-03-28T15:42:18.058Z</time></trkpt><trkpt lat="45.8275047" lon="13.7037502"><ele>334.75</ele><time>2026-03-28T15:42:19.062Z</time></trkpt><trkpt lat="45.8273928" lon="13.7036657"><ele>334.5</ele><time>2026-03-28T15:42:20.073Z</time></trkpt><trkpt lat="45.8272858" lon="13.7035794"><ele>334.25</ele><time>2026-03-28T15:42:21.055Z</time></trkpt><trkpt lat="45.8271764" lon="13.7035017"><ele>334.0</ele><time>2026-03-28T15:42:22.062Z</time></trkpt><trkpt lat="45.8270621" lon="13.703451"><ele>334.0</ele><time>2026-03-28T15:42:23.067Z</time></trkpt><trkpt lat="45.826948" lon="13.7034069"><ele>334.0</ele><time>2026-03-28T15:42:24.072Z</time></trkpt><trkpt lat="45.8268349" lon="13.703358"><ele>334.0</ele><time>2026-03-28T15:42:25.064Z</time></trkpt><trkpt lat="45.8267131" lon="13.7033177"><ele>334.0</ele><time>2026-03-28T15:42:26.079Z</time></trkpt><trkpt lat="45.8265911" lon="13.7032877"><ele>333.4</ele><time>2026-03-28T15:42:27.062Z</time></trkpt><trkpt lat="45.8264703" lon="13.7032743"><ele>332.79999999999995</ele><time>2026-03-28T15:42:28.075Z</time></trkpt><trkpt lat="45.8263534" lon="13.7032665"><ele>332.20000000000005</ele><time>2026-03-28T15:42:29.06Z</time></trkpt><trkpt lat="45.8262446" lon="13.7032616"><ele>331.6</ele><time>2026-03-28T15:42:30.078Z</time></trkpt><trkpt lat="45.826146" lon="13.7032617"><ele>331.0</ele><time>2026-03-28T15:42:31.056Z</time></trkpt><trkpt lat="45.8260672" lon="13.7032726"><ele>331.0</ele><time>2026-03-28T15:42:32.06Z</time></trkpt><trkpt lat="45.8260014" lon="13.703306"><ele>331.0</ele><time>2026-03-28T15:42:33.079Z</time></trkpt><trkpt lat="45.8259393" lon="13.7033549"><ele>331.0</ele><time>2026-03-28T15:42:34.069Z</time></trkpt><trkpt lat="45.8258848" lon="13.7034082"><ele>331.0</ele><time>2026-03-28T15:42:35.055Z</time></trkpt><trkpt lat="45.8258373" lon="13.7034807"><ele>331.0</ele><time>2026-03-28T15:42:36.073Z</time></trkpt><trkpt lat="45.8257902" lon="13.7035456"><ele>331.0</ele><time>2026-03-28T15:42:37.053Z</time></trkpt><trkpt lat="45.8257443" lon="13.7036109"><ele>331.0</ele><time>2026-03-28T15:42:38.074Z</time></trkpt><trkpt lat="45.8256677" lon="13.703735"><ele>330.0</ele><time>2026-03-28T15:42:40.062Z</time></trkpt><trkpt lat="45.8255813" lon="13.7038466"><ele>329.0</ele><time>2026-03-28T15:42:42.075Z</time></trkpt><trkpt lat="45.825484" lon="13.7039277"><ele>328.0</ele><time>2026-03-28T15:42:44.06Z</time></trkpt><trkpt lat="45.8253938" lon="13.7040068"><ele>327.0</ele><time>2026-03-28T15:42:46.056Z</time></trkpt><trkpt lat="45.825298" lon="13.7041029"><ele>327.0</ele><time>2026-03-28T15:42:48.062Z</time></trkpt><trkpt lat="45.8252399" lon="13.7041639"><ele>327.0</ele><time>2026-03-28T15:42:49.064Z</time></trkpt><trkpt lat="45.8251716" lon="13.7042381"><ele>327.0</ele><time>2026-03-28T15:42:50.073Z</time></trkpt><trkpt lat="45.8250935" lon="13.7043237"><ele>327.0</ele><time>2026-03-28T15:42:51.067Z</time></trkpt><trkpt lat="45.8250053" lon="13.7044129"><ele>327.0</ele><time>2026-03-28T15:42:52.063Z</time></trkpt><trkpt lat="45.8249029" lon="13.7045057"><ele>325.5</ele><time>2026-03-28T15:42:53.064Z</time></trkpt><trkpt lat="45.8247948" lon="13.7046053"><ele>324.0</ele><time>2026-03-28T15:42:54.064Z</time></trkpt><trkpt lat="45.8246791" lon="13.7047187"><ele>322.5</ele><time>2026-03-28T15:42:55.067Z</time></trkpt><trkpt lat="45.8245629" lon="13.7048329"><ele>321.0</ele><time>2026-03-28T15:42:56.058Z</time></trkpt><trkpt lat="45.8244428" lon="13.704941"><ele>321.0</ele><time>2026-03-28T15:42:57.067Z</time></trkpt><trkpt lat="45.8243261" lon="13.7050495"><ele>321.0</ele><time>2026-03-28T15:42:58.065Z</time></trkpt><trkpt lat="45.8242149" lon="13.7051644"><ele>321.0</ele><time>2026-03-28T15:42:59.058Z</time></trkpt><trkpt lat="45.8241069" lon="13.7052867"><ele>321.0</ele><time>2026-03-28T15:43:00.06Z</time></trkpt><trkpt lat="45.823998" lon="13.7054012"><ele>321.0</ele><time>2026-03-28T15:43:01.062Z</time></trkpt><trkpt lat="45.8238901" lon="13.7055035"><ele>321.0</ele><time>2026-03-28T15:43:02.062Z</time></trkpt><trkpt lat="45.8237812" lon="13.7056069"><ele>321.0</ele><time>2026-03-28T15:43:03.057Z</time></trkpt><trkpt lat="45.8236782" lon="13.7057227"><ele>321.0</ele><time>2026-03-28T15:43:04.09Z</time></trkpt><trkpt lat="45.8235771" lon="13.7058303"><ele>321.0</ele><time>2026-03-28T15:43:05.053Z</time></trkpt><trkpt lat="45.8234865" lon="13.7059208"><ele>321.0</ele><time>2026-03-28T15:43:06.068Z</time></trkpt><trkpt lat="45.8233939" lon="13.7059911"><ele>321.0</ele><time>2026-03-28T15:43:07.059Z</time></trkpt><trkpt lat="45.8232836" lon="13.7060393"><ele>321.0</ele><time>2026-03-28T15:43:08.062Z</time></trkpt><trkpt lat="45.8231637" lon="13.706076"><ele>319.25</ele><time>2026-03-28T15:43:09.057Z</time></trkpt><trkpt lat="45.8230396" lon="13.7061096"><ele>317.5</ele><time>2026-03-28T15:43:10.063Z</time></trkpt><trkpt lat="45.8229159" lon="13.706136"><ele>315.75</ele><time>2026-03-28T15:43:11.061Z</time></trkpt><trkpt lat="45.8227914" lon="13.7061648"><ele>314.0</ele><time>2026-03-28T15:43:12.066Z</time></trkpt><trkpt lat="45.8226719" lon="13.7062009"><ele>314.0</ele><time>2026-03-28T15:43:13.073Z</time></trkpt><trkpt lat="45.8225555" lon="13.706257"><ele>314.0</ele><time>2026-03-28T15:43:14.059Z</time></trkpt><trkpt lat="45.8224416" lon="13.7063468"><ele>314.0</ele><time>2026-03-28T15:43:15.071Z</time></trkpt><trkpt lat="45.8223292" lon="13.7064451"><ele>314.0</ele><time>2026-03-28T15:43:16.056Z</time></trkpt><trkpt lat="45.8222157" lon="13.7065338"><ele>314.0</ele><time>2026-03-28T15:43:17.075Z</time></trkpt><trkpt lat="45.8220987" lon="13.7065936"><ele>314.0</ele><time>2026-03-28T15:43:18.062Z</time></trkpt><trkpt lat="45.8219711" lon="13.706644"><ele>314.0</ele><time>2026-03-28T15:43:19.062Z</time></trkpt><trkpt lat="45.821841" lon="13.7067029"><ele>314.0</ele><time>2026-03-28T15:43:20.054Z</time></trkpt><trkpt lat="45.8217107" lon="13.7067528"><ele>313.5</ele><time>2026-03-28T15:43:21.061Z</time></trkpt><trkpt lat="45.8215904" lon="13.7067973"><ele>313.0</ele><time>2026-03-28T15:43:22.067Z</time></trkpt><trkpt lat="45.8214782" lon="13.7068512"><ele>312.5</ele><time>2026-03-28T15:43:23.063Z</time></trkpt><trkpt lat="45.8213753" lon="13.7069145"><ele>312.0</ele><time>2026-03-28T15:43:24.077Z</time></trkpt><trkpt lat="45.8212725" lon="13.7070018"><ele>312.0</ele><time>2026-03-28T15:43:25.062Z</time></trkpt><trkpt lat="45.8211639" lon="13.7071003"><ele>312.0</ele><time>2026-03-28T15:43:26.071Z</time></trkpt><trkpt lat="45.8210604" lon="13.7071999"><ele>312.0</ele><time>2026-03-28T15:43:27.061Z</time></trkpt><trkpt lat="45.8209631" lon="13.7072885"><ele>312.0</ele><time>2026-03-28T15:43:28.062Z</time></trkpt><trkpt lat="45.8208723" lon="13.7073707"><ele>311.2</ele><time>2026-03-28T15:43:29.08Z</time></trkpt><trkpt lat="45.8207893" lon="13.7074515"><ele>310.4</ele><time>2026-03-28T15:43:30.056Z</time></trkpt><trkpt lat="45.8207081" lon="13.7075219"><ele>309.6</ele><time>2026-03-28T15:43:31.064Z</time></trkpt><trkpt lat="45.8206174" lon="13.7075819"><ele>308.8</ele><time>2026-03-28T15:43:32.064Z</time></trkpt><trkpt lat="45.8205196" lon="13.7076396"><ele>308.0</ele><time>2026-03-28T15:43:33.057Z</time></trkpt><trkpt lat="45.8204247" lon="13.7077044"><ele>308.0</ele><time>2026-03-28T15:43:34.074Z</time></trkpt><trkpt lat="45.8203335" lon="13.7077707"><ele>308.0</ele><time>2026-03-28T15:43:35.055Z</time></trkpt><trkpt lat="45.8202485" lon="13.7078431"><ele>308.0</ele><time>2026-03-28T15:43:36.059Z</time></trkpt><trkpt lat="45.8201717" lon="13.7079232"><ele>308.0</ele><time>2026-03-28T15:43:37.054Z</time></trkpt><trkpt lat="45.8201041" lon="13.7080128"><ele>308.0</ele><time>2026-03-28T15:43:38.058Z</time></trkpt><trkpt lat="45.8200367" lon="13.708099"><ele>307.0</ele><time>2026-03-28T15:43:39.061Z</time></trkpt><trkpt lat="45.8199738" lon="13.708183"><ele>306.0</ele><time>2026-03-28T15:43:40.057Z</time></trkpt><trkpt lat="45.8199175" lon="13.7082493"><ele>305.0</ele><time>2026-03-28T15:43:41.054Z</time></trkpt><trkpt lat="45.8198283" lon="13.7083485"><ele>304.0</ele><time>2026-03-28T15:43:43.065Z</time></trkpt><trkpt lat="45.819779" lon="13.7084135"><ele>303.0</ele><time>2026-03-28T15:43:44.056Z</time></trkpt><trkpt lat="45.8197244" lon="13.7084796"><ele>302.0</ele><time>2026-03-28T15:43:45.058Z</time></trkpt><trkpt lat="45.8196643" lon="13.7085416"><ele>302.83333333333337</ele><time>2026-03-28T15:43:46.063Z</time></trkpt><trkpt lat="45.8196081" lon="13.7085973"><ele>303.6666666666667</ele><time>2026-03-28T15:43:47.061Z</time></trkpt><trkpt lat="45.8195508" lon="13.7086364"><ele>304.5</ele><time>2026-03-28T15:43:48.079Z</time></trkpt><trkpt lat="45.8194914" lon="13.7086881"><ele>305.3333333333333</ele><time>2026-03-28T15:43:49.057Z</time></trkpt><trkpt lat="45.8194265" lon="13.7087583"><ele>306.16666666666663</ele><time>2026-03-28T15:43:50.054Z</time></trkpt><trkpt lat="45.819356" lon="13.7088336"><ele>307.0</ele><time>2026-03-28T15:43:51.054Z</time></trkpt><trkpt lat="45.8192784" lon="13.7089137"><ele>305.3333333333333</ele><time>2026-03-28T15:43:52.06Z</time></trkpt><trkpt lat="45.8192075" lon="13.7089938"><ele>303.66666666666663</ele><time>2026-03-28T15:43:53.058Z</time></trkpt><trkpt lat="45.8191405" lon="13.7090764"><ele>302.0</ele><time>2026-03-28T15:43:54.064Z</time></trkpt><trkpt lat="45.8190735" lon="13.7091484"><ele>300.3333333333333</ele><time>2026-03-28T15:43:55.054Z</time></trkpt><trkpt lat="45.8190028" lon="13.7091981"><ele>298.6666666666667</ele><time>2026-03-28T15:43:56.066Z</time></trkpt><trkpt lat="45.81892" lon="13.7092239"><ele>297.0</ele><time>2026-03-28T15:43:57.057Z</time></trkpt><trkpt lat="45.8188397" lon="13.7092375"><ele>297.0</ele><time>2026-03-28T15:43:58.053Z</time></trkpt><trkpt lat="45.8187424" lon="13.7092027"><ele>297.0</ele><time>2026-03-28T15:44:00.06Z</time></trkpt><trkpt lat="45.8186925" lon="13.7091229"><ele>297.0</ele><time>2026-03-28T15:44:56.058Z</time></trkpt><trkpt lat="45.8187206" lon="13.7089647"><ele>297.0</ele><time>2026-03-28T15:44:58.052Z</time></trkpt><trkpt lat="45.8187294" lon="13.7088684"><ele>297.0</ele><time>2026-03-28T15:44:59.051Z</time></trkpt><trkpt lat="45.8187283" lon="13.7087746"><ele>297.0</ele><time>2026-03-28T15:45:00.06Z</time></trkpt><trkpt lat="45.8186894" lon="13.7086712"><ele>297.0</ele><time>2026-03-28T15:45:01.056Z</time></trkpt><trkpt lat="45.8186277" lon="13.7085735"><ele>297.0</ele><time>2026-03-28T15:45:02.053Z</time></trkpt><trkpt lat="45.8185581" lon="13.7084678"><ele>297.0</ele><time>2026-03-28T15:45:03.052Z</time></trkpt><trkpt lat="45.8184836" lon="13.7083465"><ele>297.0</ele><time>2026-03-28T15:45:04.07Z</time></trkpt><trkpt lat="45.8184081" lon="13.7082121"><ele>297.0</ele><time>2026-03-28T15:45:05.06Z</time></trkpt><trkpt lat="45.8183304" lon="13.7080649"><ele>295.25</ele><time>2026-03-28T15:45:06.052Z</time></trkpt><trkpt lat="45.8182511" lon="13.7079103"><ele>293.5</ele><time>2026-03-28T15:45:07.059Z</time></trkpt><trkpt lat="45.8181722" lon="13.7077491"><ele>291.75</ele><time>2026-03-28T15:45:08.06Z</time></trkpt><trkpt lat="45.8180931" lon="13.7075776"><ele>290.0</ele><time>2026-03-28T15:45:09.061Z</time></trkpt><trkpt lat="45.8180085" lon="13.707407"><ele>290.0</ele><time>2026-03-28T15:45:10.07Z</time></trkpt><trkpt lat="45.8179166" lon="13.7072322"><ele>290.0</ele><time>2026-03-28T15:45:11.054Z</time></trkpt><trkpt lat="45.8178178" lon="13.7070467"><ele>290.0</ele><time>2026-03-28T15:45:12.07Z</time></trkpt><trkpt lat="45.8177212" lon="13.7068576"><ele>287.6666666666667</ele><time>2026-03-28T15:45:13.064Z</time></trkpt><trkpt lat="45.8176233" lon="13.7066737"><ele>285.3333333333333</ele><time>2026-03-28T15:45:14.064Z</time></trkpt><trkpt lat="45.8175246" lon="13.7064901"><ele>283.0</ele><time>2026-03-28T15:45:15.061Z</time></trkpt><trkpt lat="45.8174282" lon="13.7063027"><ele>283.0</ele><time>2026-03-28T15:45:16.051Z</time></trkpt><trkpt lat="45.8173294" lon="13.7061152"><ele>283.0</ele><time>2026-03-28T15:45:17.056Z</time></trkpt><trkpt lat="45.8172294" lon="13.7059292"><ele>283.0</ele><time>2026-03-28T15:45:18.055Z</time></trkpt><trkpt lat="45.8171293" lon="13.705738"><ele>282.66666666666663</ele><time>2026-03-28T15:45:19.054Z</time></trkpt><trkpt lat="45.8170273" lon="13.7055365"><ele>282.3333333333333</ele><time>2026-03-28T15:45:20.05Z</time></trkpt><trkpt lat="45.8169119" lon="13.7053285"><ele>282.0</ele><time>2026-03-28T15:45:21.051Z</time></trkpt><trkpt lat="45.8167969" lon="13.7051032"><ele>282.0</ele><time>2026-03-28T15:45:22.049Z</time></trkpt><trkpt lat="45.8166847" lon="13.7048786"><ele>282.0</ele><time>2026-03-28T15:45:23.048Z</time></trkpt><trkpt lat="45.8165733" lon="13.7046683"><ele>282.0</ele><time>2026-03-28T15:45:24.062Z</time></trkpt><trkpt lat="45.8164637" lon="13.7044691"><ele>283.3333333333333</ele><time>2026-03-28T15:45:25.049Z</time></trkpt><trkpt lat="45.8163563" lon="13.7042739"><ele>284.66666666666663</ele><time>2026-03-28T15:45:26.08Z</time></trkpt><trkpt lat="45.8162566" lon="13.704085"><ele>286.0</ele><time>2026-03-28T15:45:27.059Z</time></trkpt><trkpt lat="45.8161525" lon="13.7039003"><ele>286.0</ele><time>2026-03-28T15:45:28.059Z</time></trkpt><trkpt lat="45.8160487" lon="13.703711"><ele>286.0</ele><time>2026-03-28T15:45:29.054Z</time></trkpt><trkpt lat="45.8159401" lon="13.7035261"><ele>286.0</ele><time>2026-03-28T15:45:30.054Z</time></trkpt><trkpt lat="45.8158296" lon="13.703336"><ele>285.0</ele><time>2026-03-28T15:45:31.049Z</time></trkpt><trkpt lat="45.8157331" lon="13.7031473"><ele>284.0</ele><time>2026-03-28T15:45:32.071Z</time></trkpt><trkpt lat="45.8156435" lon="13.7029618"><ele>283.0</ele><time>2026-03-28T15:45:33.05Z</time></trkpt><trkpt lat="45.8155573" lon="13.7027908"><ele>283.66666666666663</ele><time>2026-03-28T15:45:34.053Z</time></trkpt><trkpt lat="45.8154838" lon="13.7026336"><ele>284.3333333333333</ele><time>2026-03-28T15:45:35.049Z</time></trkpt><trkpt lat="45.8154344" lon="13.702511"><ele>285.0</ele><time>2026-03-28T15:45:36.064Z</time></trkpt><trkpt lat="45.8153974" lon="13.702428"><ele>285.6666666666667</ele><time>2026-03-28T15:45:37.051Z</time></trkpt><trkpt lat="45.8153562" lon="13.702358"><ele>286.33333333333337</ele><time>2026-03-28T15:45:38.05Z</time></trkpt><trkpt lat="45.8152989" lon="13.7022779"><ele>287.0</ele><time>2026-03-28T15:45:39.045Z</time></trkpt><trkpt lat="45.8152284" lon="13.7021881"><ele>284.75</ele><time>2026-03-28T15:45:40.053Z</time></trkpt><trkpt lat="45.8151503" lon="13.7020794"><ele>282.5</ele><time>2026-03-28T15:45:41.057Z</time></trkpt><trkpt lat="45.8150718" lon="13.7019516"><ele>280.25</ele><time>2026-03-28T15:45:42.083Z</time></trkpt><trkpt lat="45.8149896" lon="13.701811"><ele>278.0</ele><time>2026-03-28T15:45:43.055Z</time></trkpt><trkpt lat="45.8149052" lon="13.7016478"><ele>278.0</ele><time>2026-03-28T15:45:44.057Z</time></trkpt><trkpt lat="45.8148087" lon="13.7014679"><ele>278.0</ele><time>2026-03-28T15:45:45.052Z</time></trkpt><trkpt lat="45.8147072" lon="13.7012695"><ele>278.0</ele><time>2026-03-28T15:45:46.056Z</time></trkpt><trkpt lat="45.8146132" lon="13.7010874"><ele>278.75</ele><time>2026-03-28T15:45:47.054Z</time></trkpt><trkpt lat="45.8145207" lon="13.7009181"><ele>279.5</ele><time>2026-03-28T15:45:48.078Z</time></trkpt><trkpt lat="45.8144356" lon="13.700756"><ele>280.25</ele><time>2026-03-28T15:45:49.055Z</time></trkpt><trkpt lat="45.8143552" lon="13.7006015"><ele>281.0</ele><time>2026-03-28T15:45:50.06Z</time></trkpt><trkpt lat="45.8142774" lon="13.7004609"><ele>278.6666666666667</ele><time>2026-03-28T15:45:51.054Z</time></trkpt><trkpt lat="45.8142046" lon="13.7003502"><ele>276.33333333333337</ele><time>2026-03-28T15:45:52.057Z</time></trkpt><trkpt lat="45.8141343" lon="13.7002975"><ele>274.0</ele><time>2026-03-28T15:45:53.063Z</time></trkpt><trkpt lat="45.8140691" lon="13.7003003"><ele>271.6666666666667</ele><time>2026-03-28T15:45:54.053Z</time></trkpt><trkpt lat="45.8140061" lon="13.7003591"><ele>269.3333333333333</ele><time>2026-03-28T15:45:55.055Z</time></trkpt><trkpt lat="45.8139509" lon="13.7004805"><ele>267.0</ele><time>2026-03-28T15:45:56.055Z</time></trkpt><trkpt lat="45.8139091" lon="13.7006283"><ele>267.0</ele><time>2026-03-28T15:45:57.052Z</time></trkpt><trkpt lat="45.8138744" lon="13.7008042"><ele>267.0</ele><time>2026-03-28T15:45:58.057Z</time></trkpt><trkpt lat="45.8138289" lon="13.7009904"><ele>267.0</ele><time>2026-03-28T15:45:59.057Z</time></trkpt><trkpt lat="45.8137684" lon="13.7011851"><ele>267.0</ele><time>2026-03-28T15:46:00.058Z</time></trkpt><trkpt lat="45.8136989" lon="13.7013968"><ele>266.0</ele><time>2026-03-28T15:46:01.056Z</time></trkpt><trkpt lat="45.8136337" lon="13.7016167"><ele>265.0</ele><time>2026-03-28T15:46:02.051Z</time></trkpt><trkpt lat="45.8135707" lon="13.7018384"><ele>264.0</ele><time>2026-03-28T15:46:03.059Z</time></trkpt><trkpt lat="45.8135083" lon="13.7020433"><ele>259.0</ele><time>2026-03-28T15:46:04.054Z</time></trkpt><trkpt lat="45.8134504" lon="13.7022496"><ele>254.0</ele><time>2026-03-28T15:46:05.062Z</time></trkpt><trkpt lat="45.8133966" lon="13.7024579"><ele>249.0</ele><time>2026-03-28T15:46:06.053Z</time></trkpt><trkpt lat="45.8133416" lon="13.7026574"><ele>248.33333333333331</ele><time>2026-03-28T15:46:07.052Z</time></trkpt><trkpt lat="45.8132863" lon="13.7028523"><ele>247.66666666666666</ele><time>2026-03-28T15:46:08.059Z</time></trkpt><trkpt lat="45.8132342" lon="13.7030516"><ele>247.0</ele><time>2026-03-28T15:46:09.056Z</time></trkpt><trkpt lat="45.813171" lon="13.7032697"><ele>247.0</ele><time>2026-03-28T15:46:10.062Z</time></trkpt><trkpt lat="45.8131029" lon="13.7035027"><ele>247.0</ele><time>2026-03-28T15:46:11.055Z</time></trkpt><trkpt lat="45.8130383" lon="13.7037257"><ele>247.0</ele><time>2026-03-28T15:46:12.073Z</time></trkpt><trkpt lat="45.8129792" lon="13.7039462"><ele>247.0</ele><time>2026-03-28T15:46:13.053Z</time></trkpt><trkpt lat="45.8129214" lon="13.7041602"><ele>247.0</ele><time>2026-03-28T15:46:14.059Z</time></trkpt><trkpt lat="45.8128613" lon="13.7043744"><ele>247.0</ele><time>2026-03-28T15:46:15.057Z</time></trkpt><trkpt lat="45.8127987" lon="13.7045823"><ele>247.0</ele><time>2026-03-28T15:46:16.059Z</time></trkpt><trkpt lat="45.8127348" lon="13.7047802"><ele>247.0</ele><time>2026-03-28T15:46:17.05Z</time></trkpt><trkpt lat="45.8126805" lon="13.7049677"><ele>247.0</ele><time>2026-03-28T15:46:18.078Z</time></trkpt><trkpt lat="45.8126158" lon="13.705138"><ele>247.0</ele><time>2026-03-28T15:46:19.062Z</time></trkpt><trkpt lat="45.8125236" lon="13.7052664"><ele>244.0</ele><time>2026-03-28T15:46:20.058Z</time></trkpt><trkpt lat="45.8124077" lon="13.7053737"><ele>241.0</ele><time>2026-03-28T15:46:21.059Z</time></trkpt><trkpt lat="45.8122691" lon="13.7054912"><ele>238.0</ele><time>2026-03-28T15:46:22.051Z</time></trkpt><trkpt lat="45.812127" lon="13.7056164"><ele>238.0</ele><time>2026-03-28T15:46:23.061Z</time></trkpt><trkpt lat="45.8119798" lon="13.7057531"><ele>238.0</ele><time>2026-03-28T15:46:24.057Z</time></trkpt><trkpt lat="45.811835" lon="13.7059075"><ele>238.0</ele><time>2026-03-28T15:46:25.057Z</time></trkpt><trkpt lat="45.8116838" lon="13.706058"><ele>236.33333333333331</ele><time>2026-03-28T15:46:26.053Z</time></trkpt><trkpt lat="45.8115314" lon="13.7062006"><ele>234.66666666666669</ele><time>2026-03-28T15:46:27.063Z</time></trkpt><trkpt lat="45.8113758" lon="13.7063268"><ele>233.0</ele><time>2026-03-28T15:46:28.063Z</time></trkpt><trkpt lat="45.811229" lon="13.7064404"><ele>233.0</ele><time>2026-03-28T15:46:29.061Z</time></trkpt><trkpt lat="45.8110819" lon="13.7065484"><ele>233.0</ele><time>2026-03-28T15:46:30.081Z</time></trkpt><trkpt lat="45.810934" lon="13.7066507"><ele>233.0</ele><time>2026-03-28T15:46:31.061Z</time></trkpt><trkpt lat="45.8107858" lon="13.7067574"><ele>231.33333333333334</ele><time>2026-03-28T15:46:32.052Z</time></trkpt><trkpt lat="45.8106396" lon="13.7068581"><ele>229.66666666666669</ele><time>2026-03-28T15:46:33.055Z</time></trkpt><trkpt lat="45.810496" lon="13.706964"><ele>228.0</ele><time>2026-03-28T15:46:34.064Z</time></trkpt><trkpt lat="45.8103465" lon="13.7070684"><ele>227.33333333333331</ele><time>2026-03-28T15:46:35.057Z</time></trkpt><trkpt lat="45.8101919" lon="13.7071761"><ele>226.66666666666666</ele><time>2026-03-28T15:46:36.081Z</time></trkpt><trkpt lat="45.8100381" lon="13.7072792"><ele>226.0</ele><time>2026-03-28T15:46:37.056Z</time></trkpt><trkpt lat="45.809885" lon="13.7073812"><ele>224.33333333333331</ele><time>2026-03-28T15:46:38.058Z</time></trkpt><trkpt lat="45.809734" lon="13.7074842"><ele>222.66666666666669</ele><time>2026-03-28T15:46:39.059Z</time></trkpt><trkpt lat="45.8095843" lon="13.7075861"><ele>221.0</ele><time>2026-03-28T15:46:40.058Z</time></trkpt><trkpt lat="45.809426" lon="13.7076971"><ele>219.66666666666669</ele><time>2026-03-28T15:46:41.065Z</time></trkpt><trkpt lat="45.8092606" lon="13.7078058"><ele>218.33333333333331</ele><time>2026-03-28T15:46:42.064Z</time></trkpt><trkpt lat="45.8090972" lon="13.7079088"><ele>217.0</ele><time>2026-03-28T15:46:43.059Z</time></trkpt><trkpt lat="45.8089433" lon="13.7080116"><ele>217.0</ele><time>2026-03-28T15:46:44.058Z</time></trkpt><trkpt lat="45.8087899" lon="13.7081172"><ele>217.0</ele><time>2026-03-28T15:46:45.071Z</time></trkpt><trkpt lat="45.8086379" lon="13.7082229"><ele>217.0</ele><time>2026-03-28T15:46:46.063Z</time></trkpt><trkpt lat="45.8084882" lon="13.7083315"><ele>216.33333333333331</ele><time>2026-03-28T15:46:47.063Z</time></trkpt><trkpt lat="45.8083354" lon="13.7084461"><ele>215.66666666666669</ele><time>2026-03-28T15:46:48.071Z</time></trkpt><trkpt lat="45.8081779" lon="13.7085654"><ele>215.0</ele><time>2026-03-28T15:46:49.064Z</time></trkpt><trkpt lat="45.8080152" lon="13.7086841"><ele>215.33333333333334</ele><time>2026-03-28T15:46:50.058Z</time></trkpt><trkpt lat="45.807855" lon="13.7087927"><ele>215.66666666666669</ele><time>2026-03-28T15:46:51.06Z</time></trkpt><trkpt lat="45.8077022" lon="13.7088984"><ele>216.0</ele><time>2026-03-28T15:46:52.061Z</time></trkpt><trkpt lat="45.8075571" lon="13.7089964"><ele>216.0</ele><time>2026-03-28T15:46:53.059Z</time></trkpt><trkpt lat="45.8074211" lon="13.7090899"><ele>216.0</ele><time>2026-03-28T15:46:54.064Z</time></trkpt><trkpt lat="45.8072909" lon="13.7091855"><ele>216.0</ele><time>2026-03-28T15:46:55.064Z</time></trkpt><trkpt lat="45.8071589" lon="13.7092761"><ele>216.0</ele><time>2026-03-28T15:46:56.058Z</time></trkpt><trkpt lat="45.8070196" lon="13.709371"><ele>216.66666666666669</ele><time>2026-03-28T15:46:57.043Z</time></trkpt><trkpt lat="45.8068696" lon="13.7094691"><ele>217.33333333333334</ele><time>2026-03-28T15:46:58.054Z</time></trkpt><trkpt lat="45.8067252" lon="13.7095692"><ele>218.0</ele><time>2026-03-28T15:46:59.062Z</time></trkpt><trkpt lat="45.806588" lon="13.7096675"><ele>214.66666666666669</ele><time>2026-03-28T15:47:00.053Z</time></trkpt><trkpt lat="45.8064461" lon="13.7097677"><ele>211.33333333333331</ele><time>2026-03-28T15:47:01.074Z</time></trkpt><trkpt lat="45.8062978" lon="13.7098673"><ele>208.0</ele><time>2026-03-28T15:47:02.052Z</time></trkpt><trkpt lat="45.8061484" lon="13.7099702"><ele>208.0</ele><time>2026-03-28T15:47:03.054Z</time></trkpt><trkpt lat="45.8060025" lon="13.7100719"><ele>208.0</ele><time>2026-03-28T15:47:04.056Z</time></trkpt><trkpt lat="45.8058552" lon="13.7101671"><ele>208.0</ele><time>2026-03-28T15:47:05.059Z</time></trkpt><trkpt lat="45.8057008" lon="13.7102591"><ele>208.0</ele><time>2026-03-28T15:47:06.07Z</time></trkpt><trkpt lat="45.8055359" lon="13.7103452"><ele>208.0</ele><time>2026-03-28T15:47:07.061Z</time></trkpt><trkpt lat="45.8053695" lon="13.7104239"><ele>208.0</ele><time>2026-03-28T15:47:08.051Z</time></trkpt><trkpt lat="45.8052116" lon="13.7104983"><ele>207.25</ele><time>2026-03-28T15:47:09.048Z</time></trkpt><trkpt lat="45.8050657" lon="13.7105686"><ele>206.5</ele><time>2026-03-28T15:47:10.057Z</time></trkpt><trkpt lat="45.8049221" lon="13.7106377"><ele>205.75</ele><time>2026-03-28T15:47:11.055Z</time></trkpt><trkpt lat="45.8047873" lon="13.7107037"><ele>205.0</ele><time>2026-03-28T15:47:12.06Z</time></trkpt><trkpt lat="45.8046552" lon="13.7107646"><ele>205.0</ele><time>2026-03-28T15:47:13.057Z</time></trkpt><trkpt lat="45.804526" lon="13.7108202"><ele>205.0</ele><time>2026-03-28T15:47:14.072Z</time></trkpt><trkpt lat="45.8043928" lon="13.7108857"><ele>205.0</ele><time>2026-03-28T15:47:15.065Z</time></trkpt><trkpt lat="45.8042537" lon="13.7109555"><ele>205.0</ele><time>2026-03-28T15:47:16.058Z</time></trkpt><trkpt lat="45.8041063" lon="13.7110302"><ele>202.66666666666666</ele><time>2026-03-28T15:47:17.051Z</time></trkpt><trkpt lat="45.8039566" lon="13.7111046"><ele>200.33333333333331</ele><time>2026-03-28T15:47:18.06Z</time></trkpt><trkpt lat="45.8038109" lon="13.7111812"><ele>198.0</ele><time>2026-03-28T15:47:19.052Z</time></trkpt><trkpt lat="45.8036738" lon="13.711251"><ele>198.0</ele><time>2026-03-28T15:47:20.054Z</time></trkpt><trkpt lat="45.8035443" lon="13.7113168"><ele>198.0</ele><time>2026-03-28T15:47:21.064Z</time></trkpt><trkpt lat="45.8034301" lon="13.7113757"><ele>198.0</ele><time>2026-03-28T15:47:22.061Z</time></trkpt><trkpt lat="45.8033419" lon="13.7114146"><ele>198.0</ele><time>2026-03-28T15:47:23.064Z</time></trkpt><trkpt lat="45.8032487" lon="13.7114351"><ele>198.0</ele><time>2026-03-28T15:47:25.066Z</time></trkpt><trkpt lat="45.8031982" lon="13.7113574"><ele>198.2</ele><time>2026-03-28T15:52:46.06Z</time></trkpt><trkpt lat="45.8032079" lon="13.7112555"><ele>198.4</ele><time>2026-03-28T15:52:47.059Z</time></trkpt><trkpt lat="45.8032369" lon="13.7111373"><ele>198.6</ele><time>2026-03-28T15:52:48.051Z</time></trkpt><trkpt lat="45.8032807" lon="13.7110067"><ele>198.79999999999998</ele><time>2026-03-28T15:52:49.058Z</time></trkpt><trkpt lat="45.8033226" lon="13.7108777"><ele>199.0</ele><time>2026-03-28T15:52:50.088Z</time></trkpt><trkpt lat="45.8033627" lon="13.7107562"><ele>199.0</ele><time>2026-03-28T15:52:51.057Z</time></trkpt><trkpt lat="45.8034157" lon="13.7106136"><ele>199.0</ele><time>2026-03-28T15:52:52.063Z</time></trkpt><trkpt lat="45.8034776" lon="13.7104538"><ele>199.0</ele><time>2026-03-28T15:52:53.061Z</time></trkpt><trkpt lat="45.8035399" lon="13.7102891"><ele>199.0</ele><time>2026-03-28T15:52:54.055Z</time></trkpt><trkpt lat="45.8036016" lon="13.7101209"><ele>198.75</ele><time>2026-03-28T15:52:55.072Z</time></trkpt><trkpt lat="45.8036588" lon="13.7099473"><ele>198.5</ele><time>2026-03-28T15:52:56.055Z</time></trkpt><trkpt lat="45.8037039" lon="13.7097852"><ele>198.25</ele><time>2026-03-28T15:52:57.058Z</time></trkpt><trkpt lat="45.8037389" lon="13.7096178"><ele>198.0</ele><time>2026-03-28T15:52:58.064Z</time></trkpt><trkpt lat="45.8037685" lon="13.7094554"><ele>197.75</ele><time>2026-03-28T15:52:59.055Z</time></trkpt><trkpt lat="45.8037964" lon="13.7093088"><ele>197.5</ele><time>2026-03-28T15:53:00.055Z</time></trkpt><trkpt lat="45.8038357" lon="13.7091609"><ele>197.25</ele><time>2026-03-28T15:53:01.053Z</time></trkpt><trkpt lat="45.8038939" lon="13.7090132"><ele>197.0</ele><time>2026-03-28T15:53:02.061Z</time></trkpt><trkpt lat="45.8039709" lon="13.708875"><ele>197.0</ele><time>2026-03-28T15:53:03.066Z</time></trkpt><trkpt lat="45.8040588" lon="13.7087296"><ele>197.0</ele><time>2026-03-28T15:53:04.064Z</time></trkpt><trkpt lat="45.8041603" lon="13.7085795"><ele>197.0</ele><time>2026-03-28T15:53:05.056Z</time></trkpt><trkpt lat="45.8042736" lon="13.7084337"><ele>197.0</ele><time>2026-03-28T15:53:06.059Z</time></trkpt><trkpt lat="45.8043942" lon="13.7082848"><ele>197.33333333333334</ele><time>2026-03-28T15:53:07.048Z</time></trkpt><trkpt lat="45.8045174" lon="13.7081172"><ele>197.66666666666669</ele><time>2026-03-28T15:53:08.064Z</time></trkpt><trkpt lat="45.8046322" lon="13.7079451"><ele>198.0</ele><time>2026-03-28T15:53:09.057Z</time></trkpt><trkpt lat="45.8047438" lon="13.7077749"><ele>197.66666666666669</ele><time>2026-03-28T15:53:10.061Z</time></trkpt><trkpt lat="45.8048471" lon="13.7076049"><ele>197.33333333333334</ele><time>2026-03-28T15:53:11.056Z</time></trkpt><trkpt lat="45.8049459" lon="13.7074391"><ele>197.0</ele><time>2026-03-28T15:53:12.055Z</time></trkpt><trkpt lat="45.8050427" lon="13.7072797"><ele>197.0</ele><time>2026-03-28T15:53:13.054Z</time></trkpt><trkpt lat="45.8051532" lon="13.7071371"><ele>197.0</ele><time>2026-03-28T15:53:14.057Z</time></trkpt><trkpt lat="45.8052744" lon="13.7069897"><ele>197.0</ele><time>2026-03-28T15:53:15.064Z</time></trkpt><trkpt lat="45.8053939" lon="13.7068429"><ele>198.0</ele><time>2026-03-28T15:53:16.056Z</time></trkpt><trkpt lat="45.8055113" lon="13.7066901"><ele>199.0</ele><time>2026-03-28T15:53:17.067Z</time></trkpt><trkpt lat="45.8056176" lon="13.7065421"><ele>200.0</ele><time>2026-03-28T15:53:18.07Z</time></trkpt><trkpt lat="45.8057143" lon="13.7063886"><ele>200.0</ele><time>2026-03-28T15:53:19.056Z</time></trkpt><trkpt lat="45.8058054" lon="13.7062042"><ele>200.0</ele><time>2026-03-28T15:53:20.079Z</time></trkpt><trkpt lat="45.8058873" lon="13.7059912"><ele>200.0</ele><time>2026-03-28T15:53:21.056Z</time></trkpt><trkpt lat="45.805974" lon="13.7057773"><ele>199.66666666666669</ele><time>2026-03-28T15:53:22.053Z</time></trkpt><trkpt lat="45.8060585" lon="13.7055655"><ele>199.33333333333331</ele><time>2026-03-28T15:53:23.055Z</time></trkpt><trkpt lat="45.8061377" lon="13.7053629"><ele>199.0</ele><time>2026-03-28T15:53:24.067Z</time></trkpt><trkpt lat="45.8062179" lon="13.7051779"><ele>198.25</ele><time>2026-03-28T15:53:25.06Z</time></trkpt><trkpt lat="45.8063085" lon="13.7050178"><ele>197.5</ele><time>2026-03-28T15:53:26.056Z</time></trkpt><trkpt lat="45.8064105" lon="13.7048933"><ele>196.75</ele><time>2026-03-28T15:53:27.054Z</time></trkpt><trkpt lat="45.8065094" lon="13.7047858"><ele>196.0</ele><time>2026-03-28T15:53:28.064Z</time></trkpt><trkpt lat="45.8066027" lon="13.7046931"><ele>196.0</ele><time>2026-03-28T15:53:29.054Z</time></trkpt><trkpt lat="45.8066995" lon="13.7046084"><ele>196.0</ele><time>2026-03-28T15:53:30.055Z</time></trkpt><trkpt lat="45.8067978" lon="13.7045212"><ele>196.0</ele><time>2026-03-28T15:53:31.057Z</time></trkpt><trkpt lat="45.8068873" lon="13.7044245"><ele>196.0</ele><time>2026-03-28T15:53:32.059Z</time></trkpt><trkpt lat="45.8069727" lon="13.7043273"><ele>196.60000000000002</ele><time>2026-03-28T15:53:33.054Z</time></trkpt><trkpt lat="45.807059" lon="13.7042178"><ele>197.2</ele><time>2026-03-28T15:53:34.055Z</time></trkpt><trkpt lat="45.8071431" lon="13.7040996"><ele>197.8</ele><time>2026-03-28T15:53:35.054Z</time></trkpt><trkpt lat="45.8072194" lon="13.7039825"><ele>198.39999999999998</ele><time>2026-03-28T15:53:36.061Z</time></trkpt><trkpt lat="45.8072867" lon="13.70387"><ele>199.0</ele><time>2026-03-28T15:53:37.049Z</time></trkpt><trkpt lat="45.8073506" lon="13.7037637"><ele>198.99999999999997</ele><time>2026-03-28T15:53:38.06Z</time></trkpt><trkpt lat="45.8074165" lon="13.7036697"><ele>199.0</ele><time>2026-03-28T15:53:39.05Z</time></trkpt><trkpt lat="45.8074807" lon="13.7035909"><ele>199.0</ele><time>2026-03-28T15:53:40.051Z</time></trkpt><trkpt lat="45.8075325" lon="13.7035349"><ele>199.0</ele><time>2026-03-28T15:53:41.056Z</time></trkpt><trkpt lat="45.8075876" lon="13.7034726"><ele>198.99999999999997</ele><time>2026-03-28T15:53:43.056Z</time></trkpt><trkpt lat="45.8075241" lon="13.7034771"><ele>199.0</ele><time>2026-03-28T15:54:15.047Z</time></trkpt><trkpt lat="45.8074374" lon="13.7036038"><ele>199.0</ele><time>2026-03-28T15:54:17.051Z</time></trkpt><trkpt lat="45.807362" lon="13.7037127"><ele>199.0</ele><time>2026-03-28T15:54:18.09Z</time></trkpt><trkpt lat="45.8072781" lon="13.70384"><ele>199.0</ele><time>2026-03-28T15:54:19.048Z</time></trkpt><trkpt lat="45.8071824" lon="13.703998"><ele>199.0</ele><time>2026-03-28T15:54:20.055Z</time></trkpt><trkpt lat="45.8070817" lon="13.7041602"><ele>199.0</ele><time>2026-03-28T15:54:21.043Z</time></trkpt><trkpt lat="45.8069665" lon="13.7043144"><ele>199.0</ele><time>2026-03-28T15:54:22.062Z</time></trkpt><trkpt lat="45.8068332" lon="13.7044595"><ele>199.0</ele><time>2026-03-28T15:54:23.049Z</time></trkpt><trkpt lat="45.8066815" lon="13.7046001"><ele>198.0</ele><time>2026-03-28T15:54:24.06Z</time></trkpt><trkpt lat="45.8065283" lon="13.7047359"><ele>197.0</ele><time>2026-03-28T15:54:25.055Z</time></trkpt><trkpt lat="45.8063887" lon="13.7048856"><ele>196.0</ele><time>2026-03-28T15:54:26.055Z</time></trkpt><trkpt lat="45.8062639" lon="13.7050637"><ele>196.33333333333331</ele><time>2026-03-28T15:54:27.054Z</time></trkpt><trkpt lat="45.8061532" lon="13.7052795"><ele>196.66666666666669</ele><time>2026-03-28T15:54:28.054Z</time></trkpt><trkpt lat="45.8060556" lon="13.7055193"><ele>197.0</ele><time>2026-03-28T15:54:29.06Z</time></trkpt><trkpt lat="45.8059591" lon="13.7057633"><ele>197.0</ele><time>2026-03-28T15:54:30.077Z</time></trkpt><trkpt lat="45.8058713" lon="13.7060023"><ele>197.0</ele><time>2026-03-28T15:54:31.062Z</time></trkpt><trkpt lat="45.8057873" lon="13.7062094"><ele>197.0</ele><time>2026-03-28T15:54:32.057Z</time></trkpt><trkpt lat="45.8057073" lon="13.7063909"><ele>198.0</ele><time>2026-03-28T15:54:33.053Z</time></trkpt><trkpt lat="45.8056137" lon="13.7065593"><ele>199.0</ele><time>2026-03-28T15:54:34.054Z</time></trkpt><trkpt lat="45.8054931" lon="13.7067041"><ele>200.0</ele><time>2026-03-28T15:54:35.078Z</time></trkpt><trkpt lat="45.8053726" lon="13.7068513"><ele>201.0</ele><time>2026-03-28T15:54:36.058Z</time></trkpt><trkpt lat="45.8052489" lon="13.707004"><ele>202.0</ele><time>2026-03-28T15:54:37.059Z</time></trkpt><trkpt lat="45.805115" lon="13.707162"><ele>203.0</ele><time>2026-03-28T15:54:38.06Z</time></trkpt><trkpt lat="45.8049844" lon="13.7073388"><ele>201.33333333333334</ele><time>2026-03-28T15:54:39.063Z</time></trkpt><trkpt lat="45.8048596" lon="13.7075425"><ele>199.66666666666669</ele><time>2026-03-28T15:54:40.061Z</time></trkpt><trkpt lat="45.804737" lon="13.7077476"><ele>198.0</ele><time>2026-03-28T15:54:41.065Z</time></trkpt><trkpt lat="45.8046115" lon="13.7079452"><ele>198.0</ele><time>2026-03-28T15:54:42.075Z</time></trkpt><trkpt lat="45.8044779" lon="13.7081364"><ele>198.0</ele><time>2026-03-28T15:54:43.071Z</time></trkpt><trkpt lat="45.804351" lon="13.7083042"><ele>198.0</ele><time>2026-03-28T15:54:44.062Z</time></trkpt><trkpt lat="45.8042276" lon="13.70846"><ele>197.66666666666669</ele><time>2026-03-28T15:54:45.054Z</time></trkpt><trkpt lat="45.8041084" lon="13.7086149"><ele>197.33333333333334</ele><time>2026-03-28T15:54:46.055Z</time></trkpt><trkpt lat="45.8039996" lon="13.7087756"><ele>197.0</ele><time>2026-03-28T15:54:47.056Z</time></trkpt><trkpt lat="45.8039054" lon="13.7089294"><ele>197.0</ele><time>2026-03-28T15:54:48.06Z</time></trkpt><trkpt lat="45.8038358" lon="13.7090968"><ele>197.0</ele><time>2026-03-28T15:54:49.06Z</time></trkpt><trkpt lat="45.8037849" lon="13.7092713"><ele>197.0</ele><time>2026-03-28T15:54:50.059Z</time></trkpt><trkpt lat="45.8037467" lon="13.7094493"><ele>197.0</ele><time>2026-03-28T15:54:51.058Z</time></trkpt><trkpt lat="45.8037116" lon="13.7096322"><ele>197.33333333333334</ele><time>2026-03-28T15:54:52.062Z</time></trkpt><trkpt lat="45.8036713" lon="13.7098286"><ele>197.66666666666669</ele><time>2026-03-28T15:54:53.059Z</time></trkpt><trkpt lat="45.8036133" lon="13.71003"><ele>198.0</ele><time>2026-03-28T15:54:54.066Z</time></trkpt><trkpt lat="45.8035377" lon="13.7102305"><ele>197.75</ele><time>2026-03-28T15:54:55.054Z</time></trkpt><trkpt lat="45.8034648" lon="13.7104314"><ele>197.5</ele><time>2026-03-28T15:54:56.051Z</time></trkpt><trkpt lat="45.8033988" lon="13.7106108"><ele>197.25</ele><time>2026-03-28T15:54:57.052Z</time></trkpt><trkpt lat="45.8033396" lon="13.7107813"><ele>197.0</ele><time>2026-03-28T15:54:58.055Z</time></trkpt><trkpt lat="45.8032859" lon="13.7109355"><ele>197.33333333333334</ele><time>2026-03-28T15:54:59.055Z</time></trkpt><trkpt lat="45.8032402" lon="13.7110767"><ele>197.66666666666669</ele><time>2026-03-28T15:55:00.059Z</time></trkpt><trkpt lat="45.8032087" lon="13.7111942"><ele>198.0</ele><time>2026-03-28T15:55:01.057Z</time></trkpt><trkpt lat="45.8031845" lon="13.7112861"><ele>198.33333333333331</ele><time>2026-03-28T15:55:02.058Z</time></trkpt><trkpt lat="45.8031579" lon="13.7114012"><ele>198.66666666666666</ele><time>2026-03-28T15:55:04.059Z</time></trkpt><trkpt lat="45.8032036" lon="13.711466"><ele>199.0</ele><time>2026-03-28T15:55:07.052Z</time></trkpt><trkpt lat="45.8033164" lon="13.7114305"><ele>199.0</ele><time>2026-03-28T15:55:09.054Z</time></trkpt><trkpt lat="45.8034063" lon="13.7113775"><ele>199.0</ele><time>2026-03-28T15:55:10.056Z</time></trkpt><trkpt lat="45.803515" lon="13.7113225"><ele>199.0</ele><time>2026-03-28T15:55:11.06Z</time></trkpt><trkpt lat="45.8036339" lon="13.7112597"><ele>199.0</ele><time>2026-03-28T15:55:12.054Z</time></trkpt><trkpt lat="45.8037654" lon="13.7111902"><ele>199.0</ele><time>2026-03-28T15:55:13.053Z</time></trkpt><trkpt lat="45.8039075" lon="13.7111237"><ele>199.0</ele><time>2026-03-28T15:55:14.051Z</time></trkpt><trkpt lat="45.8040553" lon="13.7110492"><ele>199.0</ele><time>2026-03-28T15:55:15.046Z</time></trkpt><trkpt lat="45.8042084" lon="13.7109697"><ele>201.0</ele><time>2026-03-28T15:55:16.054Z</time></trkpt><trkpt lat="45.8043652" lon="13.7108911"><ele>203.0</ele><time>2026-03-28T15:55:17.059Z</time></trkpt><trkpt lat="45.8045313" lon="13.7108145"><ele>205.0</ele><time>2026-03-28T15:55:18.078Z</time></trkpt><trkpt lat="45.8046999" lon="13.7107414"><ele>205.0</ele><time>2026-03-28T15:55:19.052Z</time></trkpt><trkpt lat="45.8048714" lon="13.7106662"><ele>205.0</ele><time>2026-03-28T15:55:20.048Z</time></trkpt><trkpt lat="45.8050461" lon="13.7105831"><ele>205.0</ele><time>2026-03-28T15:55:21.047Z</time></trkpt><trkpt lat="45.8052207" lon="13.7104977"><ele>206.0</ele><time>2026-03-28T15:55:22.048Z</time></trkpt><trkpt lat="45.8053849" lon="13.7104172"><ele>207.0</ele><time>2026-03-28T15:55:23.068Z</time></trkpt><trkpt lat="45.8055405" lon="13.7103367"><ele>208.0</ele><time>2026-03-28T15:55:24.051Z</time></trkpt><trkpt lat="45.8056952" lon="13.7102549"><ele>208.0</ele><time>2026-03-28T15:55:25.051Z</time></trkpt><trkpt lat="45.8058521" lon="13.7101655"><ele>208.0</ele><time>2026-03-28T15:55:26.051Z</time></trkpt><trkpt lat="45.8060068" lon="13.7100677"><ele>208.0</ele><time>2026-03-28T15:55:27.048Z</time></trkpt><trkpt lat="45.80616" lon="13.7099657"><ele>208.0</ele><time>2026-03-28T15:55:28.057Z</time></trkpt><trkpt lat="45.8063145" lon="13.7098613"><ele>208.0</ele><time>2026-03-28T15:55:29.07Z</time></trkpt><trkpt lat="45.8064757" lon="13.7097542"><ele>208.0</ele><time>2026-03-28T15:55:30.047Z</time></trkpt><trkpt lat="45.8066458" lon="13.7096414"><ele>208.0</ele><time>2026-03-28T15:55:31.056Z</time></trkpt><trkpt lat="45.8068171" lon="13.7095233"><ele>208.0</ele><time>2026-03-28T15:55:32.066Z</time></trkpt><trkpt lat="45.8069912" lon="13.7093989"><ele>208.0</ele><time>2026-03-28T15:55:33.048Z</time></trkpt><trkpt lat="45.8071605" lon="13.7092785"><ele>210.66666666666666</ele><time>2026-03-28T15:55:34.076Z</time></trkpt><trkpt lat="45.8073236" lon="13.7091623"><ele>213.33333333333331</ele><time>2026-03-28T15:55:35.059Z</time></trkpt><trkpt lat="45.8074872" lon="13.7090469"><ele>216.0</ele><time>2026-03-28T15:55:36.061Z</time></trkpt><trkpt lat="45.8076494" lon="13.7089393"><ele>217.33333333333331</ele><time>2026-03-28T15:55:37.057Z</time></trkpt><trkpt lat="45.8078124" lon="13.708831"><ele>218.66666666666666</ele><time>2026-03-28T15:55:38.055Z</time></trkpt><trkpt lat="45.8079748" lon="13.7087225"><ele>220.0</ele><time>2026-03-28T15:55:39.052Z</time></trkpt><trkpt lat="45.80813" lon="13.7086062"><ele>219.0</ele><time>2026-03-28T15:55:40.058Z</time></trkpt><trkpt lat="45.8082778" lon="13.7084947"><ele>218.0</ele><time>2026-03-28T15:55:41.06Z</time></trkpt><trkpt lat="45.808432" lon="13.708384"><ele>217.0</ele><time>2026-03-28T15:55:42.068Z</time></trkpt><trkpt lat="45.8085872" lon="13.7082726"><ele>217.0</ele><time>2026-03-28T15:55:43.064Z</time></trkpt><trkpt lat="45.8087546" lon="13.7081627"><ele>217.0</ele><time>2026-03-28T15:55:44.057Z</time></trkpt><trkpt lat="45.8089235" lon="13.7080436"><ele>217.0</ele><time>2026-03-28T15:55:45.083Z</time></trkpt><trkpt lat="45.8090979" lon="13.707925"><ele>217.0</ele><time>2026-03-28T15:55:46.049Z</time></trkpt><trkpt lat="45.8092751" lon="13.7078048"><ele>217.0</ele><time>2026-03-28T15:55:47.057Z</time></trkpt><trkpt lat="45.8094545" lon="13.7076792"><ele>217.0</ele><time>2026-03-28T15:55:48.054Z</time></trkpt><trkpt lat="45.8096281" lon="13.7075586"><ele>218.33333333333331</ele><time>2026-03-28T15:55:49.048Z</time></trkpt><trkpt lat="45.8098015" lon="13.7074362"><ele>219.66666666666669</ele><time>2026-03-28T15:55:50.071Z</time></trkpt><trkpt lat="45.8099767" lon="13.7073135"><ele>221.0</ele><time>2026-03-28T15:55:51.051Z</time></trkpt><trkpt lat="45.8101523" lon="13.707196"><ele>222.66666666666669</ele><time>2026-03-28T15:55:52.054Z</time></trkpt><trkpt lat="45.8103288" lon="13.7070759"><ele>224.33333333333331</ele><time>2026-03-28T15:55:53.054Z</time></trkpt><trkpt lat="45.8105013" lon="13.7069574"><ele>226.0</ele><time>2026-03-28T15:55:54.057Z</time></trkpt><trkpt lat="45.8106696" lon="13.7068384"><ele>226.66666666666666</ele><time>2026-03-28T15:55:55.059Z</time></trkpt><trkpt lat="45.8108314" lon="13.7067219"><ele>227.33333333333331</ele><time>2026-03-28T15:55:56.059Z</time></trkpt><trkpt lat="45.8109957" lon="13.7066119"><ele>228.0</ele><time>2026-03-28T15:55:57.063Z</time></trkpt><trkpt lat="45.8111602" lon="13.7064962"><ele>229.66666666666669</ele><time>2026-03-28T15:55:58.072Z</time></trkpt><trkpt lat="45.8113249" lon="13.7063774"><ele>231.33333333333334</ele><time>2026-03-28T15:55:59.054Z</time></trkpt><trkpt lat="45.811486" lon="13.7062524"><ele>233.0</ele><time>2026-03-28T15:56:00.053Z</time></trkpt><trkpt lat="45.8116422" lon="13.7061223"><ele>233.0</ele><time>2026-03-28T15:56:01.072Z</time></trkpt><trkpt lat="45.81179" lon="13.7059839"><ele>233.0</ele><time>2026-03-28T15:56:02.059Z</time></trkpt><trkpt lat="45.8119232" lon="13.7058496"><ele>233.0</ele><time>2026-03-28T15:56:03.058Z</time></trkpt><trkpt lat="45.812033" lon="13.7057367"><ele>234.0</ele><time>2026-03-28T15:56:04.062Z</time></trkpt><trkpt lat="45.8121152" lon="13.7056597"><ele>235.0</ele><time>2026-03-28T15:56:05.065Z</time></trkpt><trkpt lat="45.8121791" lon="13.7055857"><ele>236.0</ele><time>2026-03-28T15:56:07.053Z</time></trkpt><trkpt lat="45.8120873" lon="13.7056163"><ele>237.0</ele><time>2026-03-28T15:56:12.058Z</time></trkpt><trkpt lat="45.8120304" lon="13.7056827"><ele>238.0</ele><time>2026-03-28T15:56:13.051Z</time></trkpt><trkpt lat="45.8119507" lon="13.7057757"><ele>238.0</ele><time>2026-03-28T15:56:14.06Z</time></trkpt><trkpt lat="45.8118558" lon="13.7058922"><ele>238.0</ele><time>2026-03-28T15:56:15.054Z</time></trkpt><trkpt lat="45.811752" lon="13.7060064"><ele>238.0</ele><time>2026-03-28T15:56:16.069Z</time></trkpt><trkpt lat="45.8116348" lon="13.7061228"><ele>238.0</ele><time>2026-03-28T15:56:17.052Z</time></trkpt><trkpt lat="45.811501" lon="13.7062332"><ele>236.33333333333331</ele><time>2026-03-28T15:56:18.066Z</time></trkpt><trkpt lat="45.8113535" lon="13.7063402"><ele>234.66666666666669</ele><time>2026-03-28T15:56:19.056Z</time></trkpt><trkpt lat="45.8111992" lon="13.7064529"><ele>233.0</ele><time>2026-03-28T15:56:20.055Z</time></trkpt><trkpt lat="45.811042" lon="13.7065693"><ele>231.33333333333334</ele><time>2026-03-28T15:56:21.053Z</time></trkpt><trkpt lat="45.81089" lon="13.7066804"><ele>229.66666666666669</ele><time>2026-03-28T15:56:22.05Z</time></trkpt><trkpt lat="45.8107445" lon="13.7067833"><ele>228.0</ele><time>2026-03-28T15:56:23.059Z</time></trkpt><trkpt lat="45.810612" lon="13.7068799"><ele>227.5</ele><time>2026-03-28T15:56:24.055Z</time></trkpt><trkpt lat="45.8104877" lon="13.7069662"><ele>227.0</ele><time>2026-03-28T15:56:25.056Z</time></trkpt><trkpt lat="45.8103719" lon="13.7070503"><ele>226.5</ele><time>2026-03-28T15:56:26.083Z</time></trkpt><trkpt lat="45.8102534" lon="13.7071323"><ele>226.0</ele><time>2026-03-28T15:56:27.049Z</time></trkpt><trkpt lat="45.810142" lon="13.7072068"><ele>225.0</ele><time>2026-03-28T15:56:28.057Z</time></trkpt><trkpt lat="45.8100455" lon="13.7072696"><ele>224.00000000000003</ele><time>2026-03-28T15:56:29.053Z</time></trkpt><trkpt lat="45.8099592" lon="13.7073285"><ele>223.00000000000003</ele><time>2026-03-28T15:56:30.058Z</time></trkpt><trkpt lat="45.8098782" lon="13.7073889"><ele>222.0</ele><time>2026-03-28T15:56:31.054Z</time></trkpt><trkpt lat="45.8098005" lon="13.707449"><ele>221.0</ele><time>2026-03-28T15:56:32.086Z</time></trkpt><trkpt lat="45.8097251" lon="13.7075025"><ele>221.00000000000003</ele><time>2026-03-28T15:56:33.057Z</time></trkpt><trkpt lat="45.8096507" lon="13.7075484"><ele>221.0</ele><time>2026-03-28T15:56:34.057Z</time></trkpt><trkpt lat="45.8095784" lon="13.7075981"><ele>221.0</ele><time>2026-03-28T15:56:35.056Z</time></trkpt><trkpt lat="45.8095034" lon="13.7076525"><ele>221.0</ele><time>2026-03-28T15:56:36.066Z</time></trkpt><trkpt lat="45.8094194" lon="13.707712"><ele>221.00000000000003</ele><time>2026-03-28T15:56:37.055Z</time></trkpt><trkpt lat="45.8093227" lon="13.7077687"><ele>221.0</ele><time>2026-03-28T15:56:38.078Z</time></trkpt><trkpt lat="45.8092174" lon="13.7078359"><ele>220.0</ele><time>2026-03-28T15:56:39.058Z</time></trkpt><trkpt lat="45.8091" lon="13.7079092"><ele>219.0</ele><time>2026-03-28T15:56:40.052Z</time></trkpt><trkpt lat="45.8089809" lon="13.7079898"><ele>218.0</ele><time>2026-03-28T15:56:41.057Z</time></trkpt><trkpt lat="45.8088635" lon="13.7080752"><ele>217.0</ele><time>2026-03-28T15:56:42.06Z</time></trkpt><trkpt lat="45.8087492" lon="13.7081571"><ele>217.0</ele><time>2026-03-28T15:56:43.061Z</time></trkpt><trkpt lat="45.8086369" lon="13.7082376"><ele>217.0</ele><time>2026-03-28T15:56:44.073Z</time></trkpt><trkpt lat="45.8085233" lon="13.7083204"><ele>217.0</ele><time>2026-03-28T15:56:45.056Z</time></trkpt><trkpt lat="45.8084074" lon="13.7084067"><ele>217.0</ele><time>2026-03-28T15:56:46.069Z</time></trkpt><trkpt lat="45.8082839" lon="13.7084922"><ele>217.75</ele><time>2026-03-28T15:56:47.058Z</time></trkpt><trkpt lat="45.8081553" lon="13.7085777"><ele>218.5</ele><time>2026-03-28T15:56:48.049Z</time></trkpt><trkpt lat="45.8080255" lon="13.708667"><ele>219.25</ele><time>2026-03-28T15:56:49.061Z</time></trkpt><trkpt lat="45.8078933" lon="13.7087598"><ele>220.0</ele><time>2026-03-28T15:56:50.057Z</time></trkpt><trkpt lat="45.8077522" lon="13.7088573"><ele>218.66666666666666</ele><time>2026-03-28T15:56:51.055Z</time></trkpt><trkpt lat="45.807612" lon="13.7089583"><ele>217.33333333333331</ele><time>2026-03-28T15:56:52.063Z</time></trkpt><trkpt lat="45.8074716" lon="13.709052"><ele>216.0</ele><time>2026-03-28T15:56:53.094Z</time></trkpt><trkpt lat="45.8073319" lon="13.7091491"><ele>216.0</ele><time>2026-03-28T15:56:54.06Z</time></trkpt><trkpt lat="45.8071913" lon="13.7092468"><ele>216.0</ele><time>2026-03-28T15:56:55.051Z</time></trkpt><trkpt lat="45.8070433" lon="13.7093492"><ele>216.0</ele><time>2026-03-28T15:56:56.06Z</time></trkpt><trkpt lat="45.8068914" lon="13.7094542"><ele>213.33333333333331</ele><time>2026-03-28T15:56:57.055Z</time></trkpt><trkpt lat="45.8067456" lon="13.7095557"><ele>210.66666666666666</ele><time>2026-03-28T15:56:58.056Z</time></trkpt><trkpt lat="45.8066008" lon="13.7096505"><ele>208.0</ele><time>2026-03-28T15:56:59.062Z</time></trkpt><trkpt lat="45.8064541" lon="13.7097479"><ele>208.0</ele><time>2026-03-28T15:57:00.054Z</time></trkpt><trkpt lat="45.8063048" lon="13.7098509"><ele>208.0</ele><time>2026-03-28T15:57:01.052Z</time></trkpt><trkpt lat="45.8061609" lon="13.7099496"><ele>208.0</ele><time>2026-03-28T15:57:02.054Z</time></trkpt><trkpt lat="45.8060282" lon="13.7100404"><ele>208.0</ele><time>2026-03-28T15:57:03.057Z</time></trkpt><trkpt lat="45.8059027" lon="13.7101333"><ele>208.0</ele><time>2026-03-28T15:57:04.054Z</time></trkpt><trkpt lat="45.8057672" lon="13.7102162"><ele>208.0</ele><time>2026-03-28T15:57:05.059Z</time></trkpt><trkpt lat="45.8056269" lon="13.7102901"><ele>208.0</ele><time>2026-03-28T15:57:06.088Z</time></trkpt><trkpt lat="45.8054844" lon="13.7103636"><ele>208.0</ele><time>2026-03-28T15:57:07.059Z</time></trkpt><trkpt lat="45.8053383" lon="13.7104393"><ele>208.0</ele><time>2026-03-28T15:57:08.058Z</time></trkpt><trkpt lat="45.8051928" lon="13.7105119"><ele>208.0</ele><time>2026-03-28T15:57:09.057Z</time></trkpt><trkpt lat="45.8050522" lon="13.7105757"><ele>207.25</ele><time>2026-03-28T15:57:10.052Z</time></trkpt><trkpt lat="45.8049151" lon="13.7106394"><ele>206.5</ele><time>2026-03-28T15:57:11.059Z</time></trkpt><trkpt lat="45.8047751" lon="13.7107024"><ele>205.75</ele><time>2026-03-28T15:57:12.057Z</time></trkpt><trkpt lat="45.8046348" lon="13.7107653"><ele>205.0</ele><time>2026-03-28T15:57:13.054Z</time></trkpt><trkpt lat="45.8044963" lon="13.7108326"><ele>205.0</ele><time>2026-03-28T15:57:14.054Z</time></trkpt><trkpt lat="45.8043622" lon="13.7108968"><ele>205.0</ele><time>2026-03-28T15:57:15.079Z</time></trkpt><trkpt lat="45.8042327" lon="13.7109612"><ele>205.0</ele><time>2026-03-28T15:57:16.059Z</time></trkpt><trkpt lat="45.8041061" lon="13.7110252"><ele>205.0</ele><time>2026-03-28T15:57:17.049Z</time></trkpt><trkpt lat="45.8039816" lon="13.7110875"><ele>203.25</ele><time>2026-03-28T15:57:18.062Z</time></trkpt><trkpt lat="45.8038655" lon="13.711147"><ele>201.5</ele><time>2026-03-28T15:57:19.055Z</time></trkpt><trkpt lat="45.8037539" lon="13.7112014"><ele>199.75</ele><time>2026-03-28T15:57:20.074Z</time></trkpt><trkpt lat="45.8036462" lon="13.7112546"><ele>198.0</ele><time>2026-03-28T15:57:21.049Z</time></trkpt><trkpt lat="45.8035416" lon="13.7113031"><ele>198.2</ele><time>2026-03-28T15:57:22.054Z</time></trkpt><trkpt lat="45.8034422" lon="13.7113519"><ele>198.4</ele><time>2026-03-28T15:57:23.058Z</time></trkpt><trkpt lat="45.8033555" lon="13.7113954"><ele>198.6</ele><time>2026-03-28T15:57:24.062Z</time></trkpt><trkpt lat="45.8032919" lon="13.7114266"><ele>198.79999999999998</ele><time>2026-03-28T15:57:25.062Z</time></trkpt><trkpt lat="45.8032012" lon="13.7114453"><ele>199.0</ele><time>2026-03-28T15:57:27.075Z</time></trkpt><trkpt lat="45.8031048" lon="13.7114436"><ele>199.0</ele><time>2026-03-28T15:57:29.052Z</time></trkpt><trkpt lat="45.8030318" lon="13.711431"><ele>199.0</ele><time>2026-03-28T15:57:30.051Z</time></trkpt><trkpt lat="45.8029404" lon="13.7113864"><ele>199.0</ele><time>2026-03-28T15:57:31.058Z</time></trkpt><trkpt lat="45.8028567" lon="13.7113203"><ele>199.0</ele><time>2026-03-28T15:57:32.047Z</time></trkpt><trkpt lat="45.8027681" lon="13.7112718"><ele>199.0</ele><time>2026-03-28T15:57:33.055Z</time></trkpt><trkpt lat="45.8026522" lon="13.7112417"><ele>198.39999999999998</ele><time>2026-03-28T15:57:34.057Z</time></trkpt><trkpt lat="45.8025291" lon="13.7112253"><ele>197.8</ele><time>2026-03-28T15:57:35.052Z</time></trkpt><trkpt lat="45.8024167" lon="13.7112251"><ele>197.2</ele><time>2026-03-28T15:57:36.059Z</time></trkpt><trkpt lat="45.8023155" lon="13.7112282"><ele>196.60000000000002</ele><time>2026-03-28T15:57:37.05Z</time></trkpt><trkpt lat="45.8022281" lon="13.7112321"><ele>196.0</ele><time>2026-03-28T15:57:38.073Z</time></trkpt><trkpt lat="45.8021501" lon="13.7112349"><ele>195.99999999999997</ele><time>2026-03-28T15:57:39.056Z</time></trkpt><trkpt lat="45.8020748" lon="13.7112271"><ele>196.0</ele><time>2026-03-28T15:57:40.06Z</time></trkpt><trkpt lat="45.8020012" lon="13.7112118"><ele>196.0</ele><time>2026-03-28T15:57:41.051Z</time></trkpt><trkpt lat="45.8019345" lon="13.711184"><ele>196.0</ele><time>2026-03-28T15:57:42.05Z</time></trkpt><trkpt lat="45.8018327" lon="13.7111594"><ele>195.99999999999997</ele><time>2026-03-28T15:57:44.052Z</time></trkpt><trkpt lat="45.8017648" lon="13.7111903"><ele>196.0</ele><time>2026-03-28T15:57:46.055Z</time></trkpt><trkpt lat="45.80166" lon="13.7112124"><ele>196.0</ele><time>2026-03-28T15:59:23.046Z</time></trkpt><trkpt lat="45.8015827" lon="13.7112012"><ele>196.0</ele><time>2026-03-28T15:59:24.06Z</time></trkpt><trkpt lat="45.8014734" lon="13.7111641"><ele>196.0</ele><time>2026-03-28T15:59:25.051Z</time></trkpt><trkpt lat="45.8013627" lon="13.7111182"><ele>196.0</ele><time>2026-03-28T15:59:26.052Z</time></trkpt><trkpt lat="45.8012414" lon="13.7110848"><ele>196.0</ele><time>2026-03-28T15:59:27.057Z</time></trkpt><trkpt lat="45.8011108" lon="13.7110735"><ele>195.25</ele><time>2026-03-28T15:59:28.06Z</time></trkpt><trkpt lat="45.8009712" lon="13.7110699"><ele>194.5</ele><time>2026-03-28T15:59:29.054Z</time></trkpt><trkpt lat="45.8008437" lon="13.7110766"><ele>193.75</ele><time>2026-03-28T15:59:30.059Z</time></trkpt><trkpt lat="45.8007162" lon="13.7110794"><ele>193.0</ele><time>2026-03-28T15:59:31.052Z</time></trkpt><trkpt lat="45.8005945" lon="13.7110705"><ele>191.5</ele><time>2026-03-28T15:59:32.052Z</time></trkpt><trkpt lat="45.800477" lon="13.711029"><ele>190.0</ele><time>2026-03-28T15:59:33.056Z</time></trkpt><trkpt lat="45.8003639" lon="13.7109662"><ele>188.5</ele><time>2026-03-28T15:59:34.048Z</time></trkpt><trkpt lat="45.8002476" lon="13.7108806"><ele>187.0</ele><time>2026-03-28T15:59:35.042Z</time></trkpt><trkpt lat="45.8001257" lon="13.7107757"><ele>186.75</ele><time>2026-03-28T15:59:36.078Z</time></trkpt><trkpt lat="45.8000117" lon="13.7106641"><ele>186.5</ele><time>2026-03-28T15:59:37.054Z</time></trkpt><trkpt lat="45.7999055" lon="13.7105419"><ele>186.25</ele><time>2026-03-28T15:59:38.055Z</time></trkpt><trkpt lat="45.7998068" lon="13.7104158"><ele>186.0</ele><time>2026-03-28T15:59:39.098Z</time></trkpt><trkpt lat="45.7997149" lon="13.7102927"><ele>184.0</ele><time>2026-03-28T15:59:40.048Z</time></trkpt><trkpt lat="45.7996246" lon="13.710183"><ele>182.0</ele><time>2026-03-28T15:59:41.068Z</time></trkpt><trkpt lat="45.7995259" lon="13.7101131"><ele>180.0</ele><time>2026-03-28T15:59:42.065Z</time></trkpt><trkpt lat="45.7994226" lon="13.7100799"><ele>178.0</ele><time>2026-03-28T15:59:43.05Z</time></trkpt><trkpt lat="45.7992969" lon="13.7100914"><ele>177.0</ele><time>2026-03-28T15:59:44.049Z</time></trkpt><trkpt lat="45.7991708" lon="13.7101385"><ele>176.0</ele><time>2026-03-28T15:59:45.048Z</time></trkpt><trkpt lat="45.7990567" lon="13.7101994"><ele>175.0</ele><time>2026-03-28T15:59:46.049Z</time></trkpt><trkpt lat="45.7989444" lon="13.7102698"><ele>174.0</ele><time>2026-03-28T15:59:47.052Z</time></trkpt><trkpt lat="45.7988231" lon="13.7103332"><ele>176.75</ele><time>2026-03-28T15:59:48.053Z</time></trkpt><trkpt lat="45.7986979" lon="13.7103932"><ele>179.5</ele><time>2026-03-28T15:59:49.054Z</time></trkpt><trkpt lat="45.7985766" lon="13.7104518"><ele>182.25</ele><time>2026-03-28T15:59:50.061Z</time></trkpt><trkpt lat="45.7984562" lon="13.7105143"><ele>185.0</ele><time>2026-03-28T15:59:51.051Z</time></trkpt><trkpt lat="45.7983394" lon="13.7105764"><ele>185.0</ele><time>2026-03-28T15:59:52.05Z</time></trkpt><trkpt lat="45.7982234" lon="13.7106317"><ele>185.0</ele><time>2026-03-28T15:59:53.055Z</time></trkpt><trkpt lat="45.7981117" lon="13.7106859"><ele>185.0</ele><time>2026-03-28T15:59:54.07Z</time></trkpt><trkpt lat="45.7980063" lon="13.7107263"><ele>185.0</ele><time>2026-03-28T15:59:55.051Z</time></trkpt><trkpt lat="45.7978981" lon="13.7107577"><ele>185.0</ele><time>2026-03-28T15:59:56.053Z</time></trkpt><trkpt lat="45.7977759" lon="13.7107607"><ele>185.0</ele><time>2026-03-28T15:59:57.048Z</time></trkpt><trkpt lat="45.7976488" lon="13.7107458"><ele>185.0</ele><time>2026-03-28T15:59:58.045Z</time></trkpt><trkpt lat="45.7975288" lon="13.7107233"><ele>185.0</ele><time>2026-03-28T15:59:59.085Z</time></trkpt><trkpt lat="45.7974444" lon="13.7106905"><ele>183.33333333333331</ele><time>2026-03-28T16:00:00.05Z</time></trkpt><trkpt lat="45.7973523" lon="13.710616"><ele>181.66666666666666</ele><time>2026-03-28T16:00:02.056Z</time></trkpt><trkpt lat="45.7973344" lon="13.7105213"><ele>180.0</ele><time>2026-03-28T16:00:04.048Z</time></trkpt><trkpt lat="45.7973489" lon="13.7104041"><ele>178.33333333333334</ele><time>2026-03-28T16:00:11.051Z</time></trkpt><trkpt lat="45.7973589" lon="13.7103058"><ele>176.66666666666669</ele><time>2026-03-28T16:00:12.052Z</time></trkpt><trkpt lat="45.7973602" lon="13.7101915"><ele>175.0</ele><time>2026-03-28T16:00:13.056Z</time></trkpt><trkpt lat="45.7973657" lon="13.7100654"><ele>174.5</ele><time>2026-03-28T16:00:14.057Z</time></trkpt><trkpt lat="45.7973697" lon="13.7099185"><ele>174.0</ele><time>2026-03-28T16:00:15.06Z</time></trkpt><trkpt lat="45.7973704" lon="13.7097449"><ele>173.5</ele><time>2026-03-28T16:00:16.055Z</time></trkpt><trkpt lat="45.7973735" lon="13.7095395"><ele>173.0</ele><time>2026-03-28T16:00:17.053Z</time></trkpt><trkpt lat="45.7973817" lon="13.7093035"><ele>173.0</ele><time>2026-03-28T16:00:18.069Z</time></trkpt><trkpt lat="45.7973795" lon="13.7090615"><ele>173.0</ele><time>2026-03-28T16:00:19.057Z</time></trkpt><trkpt lat="45.7973684" lon="13.7088423"><ele>173.0</ele><time>2026-03-28T16:00:20.054Z</time></trkpt><trkpt lat="45.7973543" lon="13.7086276"><ele>172.75</ele><time>2026-03-28T16:00:21.06Z</time></trkpt><trkpt lat="45.7973366" lon="13.70841"><ele>172.5</ele><time>2026-03-28T16:00:22.061Z</time></trkpt><trkpt lat="45.7973164" lon="13.7082041"><ele>172.25</ele><time>2026-03-28T16:00:23.059Z</time></trkpt><trkpt lat="45.7973062" lon="13.7080281"><ele>172.0</ele><time>2026-03-28T16:00:24.059Z</time></trkpt><trkpt lat="45.7973023" lon="13.7078806"><ele>172.25</ele><time>2026-03-28T16:00:25.071Z</time></trkpt><trkpt lat="45.797321" lon="13.7077333"><ele>172.5</ele><time>2026-03-28T16:00:26.07Z</time></trkpt><trkpt lat="45.797354" lon="13.7075681"><ele>172.75</ele><time>2026-03-28T16:00:27.07Z</time></trkpt><trkpt lat="45.797413" lon="13.7073844"><ele>173.0</ele><time>2026-03-28T16:00:28.081Z</time></trkpt><trkpt lat="45.7974826" lon="13.7071927"><ele>173.0</ele><time>2026-03-28T16:00:29.05Z</time></trkpt><trkpt lat="45.7975563" lon="13.7069941"><ele>173.0</ele><time>2026-03-28T16:00:30.061Z</time></trkpt><trkpt lat="45.7976234" lon="13.7068054"><ele>173.0</ele><time>2026-03-28T16:00:31.057Z</time></trkpt><trkpt lat="45.7976914" lon="13.7066466"><ele>173.0</ele><time>2026-03-28T16:00:32.055Z</time></trkpt><trkpt lat="45.7977653" lon="13.7064847"><ele>171.75</ele><time>2026-03-28T16:00:33.076Z</time></trkpt><trkpt lat="45.7978268" lon="13.7063169"><ele>170.5</ele><time>2026-03-28T16:00:34.054Z</time></trkpt><trkpt lat="45.7978802" lon="13.7061359"><ele>169.25</ele><time>2026-03-28T16:00:35.053Z</time></trkpt><trkpt lat="45.797916" lon="13.7059559"><ele>168.0</ele><time>2026-03-28T16:00:36.056Z</time></trkpt><trkpt lat="45.7979413" lon="13.705776"><ele>168.0</ele><time>2026-03-28T16:00:37.062Z</time></trkpt><trkpt lat="45.7979498" lon="13.7055847"><ele>168.0</ele><time>2026-03-28T16:00:38.069Z</time></trkpt><trkpt lat="45.7979539" lon="13.7053784"><ele>168.0</ele><time>2026-03-28T16:00:39.069Z</time></trkpt><trkpt lat="45.7979508" lon="13.7051585"><ele>168.0</ele><time>2026-03-28T16:00:40.069Z</time></trkpt><trkpt lat="45.7979462" lon="13.7049281"><ele>168.0</ele><time>2026-03-28T16:00:41.063Z</time></trkpt><trkpt lat="45.7979428" lon="13.7046994"><ele>168.0</ele><time>2026-03-28T16:00:42.055Z</time></trkpt><trkpt lat="45.7979361" lon="13.7044717"><ele>168.0</ele><time>2026-03-28T16:00:43.056Z</time></trkpt><trkpt lat="45.7979229" lon="13.7042503"><ele>167.25</ele><time>2026-03-28T16:00:44.058Z</time></trkpt><trkpt lat="45.7979119" lon="13.7040415"><ele>166.5</ele><time>2026-03-28T16:00:45.071Z</time></trkpt><trkpt lat="45.7979056" lon="13.703849"><ele>165.75</ele><time>2026-03-28T16:00:46.074Z</time></trkpt><trkpt lat="45.7978989" lon="13.7036553"><ele>165.0</ele><time>2026-03-28T16:00:47.052Z</time></trkpt><trkpt lat="45.7978968" lon="13.7034515"><ele>164.5</ele><time>2026-03-28T16:00:48.091Z</time></trkpt><trkpt lat="45.7978999" lon="13.7032578"><ele>164.0</ele><time>2026-03-28T16:00:49.059Z</time></trkpt><trkpt lat="45.7979058" lon="13.7030728"><ele>163.5</ele><time>2026-03-28T16:00:50.064Z</time></trkpt><trkpt lat="45.7979193" lon="13.7029031"><ele>163.0</ele><time>2026-03-28T16:00:51.06Z</time></trkpt><trkpt lat="45.7979334" lon="13.7027422"><ele>162.20000000000002</ele><time>2026-03-28T16:00:52.062Z</time></trkpt><trkpt lat="45.7979532" lon="13.7025921"><ele>161.4</ele><time>2026-03-28T16:00:53.071Z</time></trkpt><trkpt lat="45.7979777" lon="13.7024487"><ele>160.60000000000002</ele><time>2026-03-28T16:00:54.064Z</time></trkpt><trkpt lat="45.7980013" lon="13.7023064"><ele>159.8</ele><time>2026-03-28T16:00:55.071Z</time></trkpt><trkpt lat="45.7980262" lon="13.7021741"><ele>159.0</ele><time>2026-03-28T16:00:56.057Z</time></trkpt><trkpt lat="45.7980462" lon="13.7020479"><ele>159.0</ele><time>2026-03-28T16:00:57.049Z</time></trkpt><trkpt lat="45.7980684" lon="13.701925"><ele>159.0</ele><time>2026-03-28T16:00:58.062Z</time></trkpt><trkpt lat="45.7980891" lon="13.7018063"><ele>159.0</ele><time>2026-03-28T16:00:59.057Z</time></trkpt><trkpt lat="45.7981161" lon="13.7016882"><ele>159.0</ele><time>2026-03-28T16:01:00.051Z</time></trkpt><trkpt lat="45.7981456" lon="13.7015762"><ele>159.0</ele><time>2026-03-28T16:01:01.049Z</time></trkpt><trkpt lat="45.7981758" lon="13.7014595"><ele>159.0</ele><time>2026-03-28T16:01:02.06Z</time></trkpt><trkpt lat="45.7982082" lon="13.7013337"><ele>158.0</ele><time>2026-03-28T16:01:03.058Z</time></trkpt><trkpt lat="45.7982341" lon="13.7012009"><ele>157.0</ele><time>2026-03-28T16:01:04.064Z</time></trkpt><trkpt lat="45.7982395" lon="13.7010645"><ele>156.0</ele><time>2026-03-28T16:01:05.057Z</time></trkpt><trkpt lat="45.7982284" lon="13.7009182"><ele>155.0</ele><time>2026-03-28T16:01:06.052Z</time></trkpt><trkpt lat="45.7981963" lon="13.7007553"><ele>154.0</ele><time>2026-03-28T16:01:07.069Z</time></trkpt><trkpt lat="45.7981318" lon="13.7005875"><ele>153.2</ele><time>2026-03-28T16:01:08.055Z</time></trkpt><trkpt lat="45.7980801" lon="13.7004387"><ele>152.4</ele><time>2026-03-28T16:01:09.061Z</time></trkpt><trkpt lat="45.7980512" lon="13.7003048"><ele>151.6</ele><time>2026-03-28T16:01:10.07Z</time></trkpt><trkpt lat="45.7980591" lon="13.7001602"><ele>150.8</ele><time>2026-03-28T16:01:11.056Z</time></trkpt><trkpt lat="45.7980953" lon="13.6999904"><ele>150.0</ele><time>2026-03-28T16:01:12.075Z</time></trkpt><trkpt lat="45.7981467" lon="13.6998047"><ele>148.25</ele><time>2026-03-28T16:01:13.052Z</time></trkpt><trkpt lat="45.7982086" lon="13.6996257"><ele>146.5</ele><time>2026-03-28T16:01:14.06Z</time></trkpt><trkpt lat="45.7982794" lon="13.6994434"><ele>144.75</ele><time>2026-03-28T16:01:15.055Z</time></trkpt><trkpt lat="45.7983505" lon="13.6992657"><ele>143.0</ele><time>2026-03-28T16:01:16.057Z</time></trkpt><trkpt lat="45.7984137" lon="13.6990872"><ele>142.5</ele><time>2026-03-28T16:01:17.059Z</time></trkpt><trkpt lat="45.7984717" lon="13.6989161"><ele>142.0</ele><time>2026-03-28T16:01:18.055Z</time></trkpt><trkpt lat="45.7985357" lon="13.6987502"><ele>141.5</ele><time>2026-03-28T16:01:19.062Z</time></trkpt><trkpt lat="45.7986017" lon="13.6985977"><ele>141.0</ele><time>2026-03-28T16:01:20.061Z</time></trkpt><trkpt lat="45.7986819" lon="13.698465"><ele>139.25</ele><time>2026-03-28T16:01:21.054Z</time></trkpt><trkpt lat="45.7987826" lon="13.6983575"><ele>137.5</ele><time>2026-03-28T16:01:22.053Z</time></trkpt><trkpt lat="45.7988835" lon="13.6982517"><ele>135.75</ele><time>2026-03-28T16:01:23.059Z</time></trkpt><trkpt lat="45.7989798" lon="13.6981408"><ele>134.0</ele><time>2026-03-28T16:01:24.061Z</time></trkpt><trkpt lat="45.7990668" lon="13.6980444"><ele>134.0</ele><time>2026-03-28T16:01:25.056Z</time></trkpt><trkpt lat="45.7991372" lon="13.6979331"><ele>134.0</ele><time>2026-03-28T16:01:26.067Z</time></trkpt><trkpt lat="45.7991846" lon="13.6978144"><ele>134.0</ele><time>2026-03-28T16:01:27.052Z</time></trkpt><trkpt lat="45.7992075" lon="13.6977024"><ele>134.0</ele><time>2026-03-28T16:01:28.049Z</time></trkpt><trkpt lat="45.7992147" lon="13.697606"><ele>134.0</ele><time>2026-03-28T16:01:29.054Z</time></trkpt><trkpt lat="45.7992045" lon="13.6975078"><ele>134.0</ele><time>2026-03-28T16:01:30.053Z</time></trkpt><trkpt lat="45.7991803" lon="13.6974052"><ele>133.0</ele><time>2026-03-28T16:01:31.052Z</time></trkpt><trkpt lat="45.7991449" lon="13.6973088"><ele>132.0</ele><time>2026-03-28T16:01:32.067Z</time></trkpt><trkpt lat="45.7991006" lon="13.6972293"><ele>131.0</ele><time>2026-03-28T16:01:33.059Z</time></trkpt><trkpt lat="45.7990498" lon="13.6971671"><ele>130.0</ele><time>2026-03-28T16:01:34.062Z</time></trkpt><trkpt lat="45.7989967" lon="13.6971038"><ele>129.0</ele><time>2026-03-28T16:01:35.054Z</time></trkpt><trkpt lat="45.7989328" lon="13.697017"><ele>128.0</ele><time>2026-03-28T16:01:36.056Z</time></trkpt><trkpt lat="45.7988624" lon="13.696927"><ele>127.99999999999999</ele><time>2026-03-28T16:01:37.055Z</time></trkpt><trkpt lat="45.798796" lon="13.6968306"><ele>128.0</ele><time>2026-03-28T16:01:38.053Z</time></trkpt><trkpt lat="45.7987315" lon="13.696736"><ele>128.0</ele><time>2026-03-28T16:01:39.078Z</time></trkpt><trkpt lat="45.7986788" lon="13.6966433"><ele>128.0</ele><time>2026-03-28T16:01:40.059Z</time></trkpt><trkpt lat="45.7986399" lon="13.6965404"><ele>127.99999999999999</ele><time>2026-03-28T16:01:41.063Z</time></trkpt><trkpt lat="45.7986086" lon="13.6964112"><ele>128.0</ele><time>2026-03-28T16:01:42.051Z</time></trkpt><trkpt lat="45.7985788" lon="13.6962737"><ele>128.0</ele><time>2026-03-28T16:01:43.065Z</time></trkpt><trkpt lat="45.7985498" lon="13.6961326"><ele>128.0</ele><time>2026-03-28T16:01:44.064Z</time></trkpt><trkpt lat="45.7985153" lon="13.6959928"><ele>128.0</ele><time>2026-03-28T16:01:45.065Z</time></trkpt><trkpt lat="45.7984814" lon="13.6958538"><ele>128.0</ele><time>2026-03-28T16:01:46.083Z</time></trkpt><trkpt lat="45.79845" lon="13.6957143"><ele>128.0</ele><time>2026-03-28T16:01:47.068Z</time></trkpt><trkpt lat="45.7984148" lon="13.6955845"><ele>127.2</ele><time>2026-03-28T16:01:48.073Z</time></trkpt><trkpt lat="45.7983861" lon="13.695461"><ele>126.4</ele><time>2026-03-28T16:01:49.058Z</time></trkpt><trkpt lat="45.7983548" lon="13.695338"><ele>125.60000000000001</ele><time>2026-03-28T16:01:50.083Z</time></trkpt><trkpt lat="45.7983193" lon="13.6951919"><ele>124.80000000000001</ele><time>2026-03-28T16:01:51.073Z</time></trkpt><trkpt lat="45.7982782" lon="13.6950009"><ele>124.0</ele><time>2026-03-28T16:01:52.076Z</time></trkpt><trkpt lat="45.7982359" lon="13.6947929"><ele>123.33333333333334</ele><time>2026-03-28T16:01:53.061Z</time></trkpt><trkpt lat="45.7981851" lon="13.6945649"><ele>122.66666666666666</ele><time>2026-03-28T16:01:54.059Z</time></trkpt><trkpt lat="45.7981339" lon="13.6943547"><ele>122.0</ele><time>2026-03-28T16:01:55.057Z</time></trkpt><trkpt lat="45.7980776" lon="13.6941801"><ele>121.25</ele><time>2026-03-28T16:01:56.058Z</time></trkpt><trkpt lat="45.7980169" lon="13.6940207"><ele>120.5</ele><time>2026-03-28T16:01:57.058Z</time></trkpt><trkpt lat="45.797946" lon="13.6938821"><ele>119.75</ele><time>2026-03-28T16:01:58.056Z</time></trkpt><trkpt lat="45.7978638" lon="13.6937736"><ele>119.0</ele><time>2026-03-28T16:01:59.054Z</time></trkpt><trkpt lat="45.7977707" lon="13.6936842"><ele>120.5</ele><time>2026-03-28T16:02:00.086Z</time></trkpt><trkpt lat="45.7976608" lon="13.6936212"><ele>122.0</ele><time>2026-03-28T16:02:01.06Z</time></trkpt><trkpt lat="45.7975314" lon="13.6935793"><ele>123.5</ele><time>2026-03-28T16:02:02.064Z</time></trkpt><trkpt lat="45.7973921" lon="13.6935343"><ele>125.0</ele><time>2026-03-28T16:02:03.06Z</time></trkpt><trkpt lat="45.7972528" lon="13.6934756"><ele>125.0</ele><time>2026-03-28T16:02:04.054Z</time></trkpt><trkpt lat="45.7971099" lon="13.6933932"><ele>125.0</ele><time>2026-03-28T16:02:05.052Z</time></trkpt><trkpt lat="45.7969686" lon="13.6933125"><ele>125.0</ele><time>2026-03-28T16:02:06.059Z</time></trkpt><trkpt lat="45.7968349" lon="13.6932301"><ele>125.25</ele><time>2026-03-28T16:02:07.046Z</time></trkpt><trkpt lat="45.796722" lon="13.6931325"><ele>125.5</ele><time>2026-03-28T16:02:08.05Z</time></trkpt><trkpt lat="45.7966416" lon="13.6930005"><ele>125.75</ele><time>2026-03-28T16:02:09.051Z</time></trkpt><trkpt lat="45.7965586" lon="13.6928333"><ele>126.0</ele><time>2026-03-28T16:02:10.054Z</time></trkpt><trkpt lat="45.796477" lon="13.6926627"><ele>126.0</ele><time>2026-03-28T16:02:11.051Z</time></trkpt><trkpt lat="45.7964047" lon="13.6925022"><ele>126.0</ele><time>2026-03-28T16:02:12.049Z</time></trkpt><trkpt lat="45.7963636" lon="13.6923493"><ele>126.0</ele><time>2026-03-28T16:02:13.06Z</time></trkpt><trkpt lat="45.7963536" lon="13.6921927"><ele>126.0</ele><time>2026-03-28T16:02:14.046Z</time></trkpt><trkpt lat="45.7963553" lon="13.692015"><ele>125.5</ele><time>2026-03-28T16:02:15.059Z</time></trkpt><trkpt lat="45.7963771" lon="13.6918124"><ele>125.0</ele><time>2026-03-28T16:02:16.05Z</time></trkpt><trkpt lat="45.7964105" lon="13.6916109"><ele>124.5</ele><time>2026-03-28T16:02:17.055Z</time></trkpt><trkpt lat="45.7964601" lon="13.6914281"><ele>124.0</ele><time>2026-03-28T16:02:18.056Z</time></trkpt><trkpt lat="45.7964867" lon="13.6912675"><ele>124.0</ele><time>2026-03-28T16:02:19.055Z</time></trkpt><trkpt lat="45.7964876" lon="13.6911138"><ele>124.0</ele><time>2026-03-28T16:02:20.063Z</time></trkpt><trkpt lat="45.7964623" lon="13.6909576"><ele>124.0</ele><time>2026-03-28T16:02:21.051Z</time></trkpt><trkpt lat="45.7964303" lon="13.6907962"><ele>124.0</ele><time>2026-03-28T16:02:22.071Z</time></trkpt><trkpt lat="45.7964116" lon="13.6906428"><ele>124.0</ele><time>2026-03-28T16:02:23.056Z</time></trkpt><trkpt lat="45.7964266" lon="13.690479"><ele>125.0</ele><time>2026-03-28T16:02:24.053Z</time></trkpt><trkpt lat="45.7964673" lon="13.690304"><ele>126.0</ele><time>2026-03-28T16:02:25.042Z</time></trkpt><trkpt lat="45.7965248" lon="13.6901229"><ele>127.0</ele><time>2026-03-28T16:02:26.048Z</time></trkpt><trkpt lat="45.7965801" lon="13.6899314"><ele>128.0</ele><time>2026-03-28T16:02:27.053Z</time></trkpt><trkpt lat="45.7966112" lon="13.6897384"><ele>129.25</ele><time>2026-03-28T16:02:28.055Z</time></trkpt><trkpt lat="45.7966179" lon="13.6895519"><ele>130.5</ele><time>2026-03-28T16:02:29.07Z</time></trkpt><trkpt lat="45.7966134" lon="13.6893616"><ele>131.75</ele><time>2026-03-28T16:02:30.055Z</time></trkpt><trkpt lat="45.7965987" lon="13.6891642"><ele>133.0</ele><time>2026-03-28T16:02:31.05Z</time></trkpt><trkpt lat="45.7965663" lon="13.6889668"><ele>134.0</ele><time>2026-03-28T16:02:32.051Z</time></trkpt><trkpt lat="45.7965161" lon="13.6887694"><ele>135.0</ele><time>2026-03-28T16:02:33.054Z</time></trkpt><trkpt lat="45.7964425" lon="13.6885808"><ele>136.0</ele><time>2026-03-28T16:02:34.066Z</time></trkpt><trkpt lat="45.7963509" lon="13.6884118"><ele>137.0</ele><time>2026-03-28T16:02:35.053Z</time></trkpt><trkpt lat="45.7962402" lon="13.6882513"><ele>139.0</ele><time>2026-03-28T16:02:36.056Z</time></trkpt><trkpt lat="45.7961181" lon="13.6880948"><ele>141.0</ele><time>2026-03-28T16:02:37.056Z</time></trkpt><trkpt lat="45.7959959" lon="13.687938"><ele>143.0</ele><time>2026-03-28T16:02:38.057Z</time></trkpt><trkpt lat="45.7958872" lon="13.6877816"><ele>145.6</ele><time>2026-03-28T16:02:39.076Z</time></trkpt><trkpt lat="45.7957943" lon="13.6876422"><ele>148.20000000000002</ele><time>2026-03-28T16:02:40.049Z</time></trkpt><trkpt lat="45.795715" lon="13.6875209"><ele>150.8</ele><time>2026-03-28T16:02:41.051Z</time></trkpt><trkpt lat="45.7956658" lon="13.6874082"><ele>153.4</ele><time>2026-03-28T16:02:42.06Z</time></trkpt><trkpt lat="45.7956479" lon="13.6872826"><ele>156.0</ele><time>2026-03-28T16:02:43.049Z</time></trkpt><trkpt lat="45.7956415" lon="13.6871327"><ele>156.0</ele><time>2026-03-28T16:02:44.063Z</time></trkpt><trkpt lat="45.7956299" lon="13.6869697"><ele>156.0</ele><time>2026-03-28T16:02:45.058Z</time></trkpt><trkpt lat="45.7956025" lon="13.686791"><ele>156.0</ele><time>2026-03-28T16:02:46.057Z</time></trkpt><trkpt lat="45.7955548" lon="13.6866006"><ele>156.0</ele><time>2026-03-28T16:02:47.059Z</time></trkpt><trkpt lat="45.7955054" lon="13.6864054"><ele>157.66666666666666</ele><time>2026-03-28T16:02:48.063Z</time></trkpt><trkpt lat="45.7954354" lon="13.6861821"><ele>159.33333333333331</ele><time>2026-03-28T16:02:49.066Z</time></trkpt><trkpt lat="45.7953619" lon="13.6859599"><ele>161.0</ele><time>2026-03-28T16:02:50.071Z</time></trkpt><trkpt lat="45.7952874" lon="13.6857413"><ele>162.5</ele><time>2026-03-28T16:02:51.052Z</time></trkpt><trkpt lat="45.7952188" lon="13.6855284"><ele>164.0</ele><time>2026-03-28T16:02:52.058Z</time></trkpt><trkpt lat="45.7951661" lon="13.6853449"><ele>165.5</ele><time>2026-03-28T16:02:53.053Z</time></trkpt><trkpt lat="45.7951113" lon="13.685196"><ele>167.0</ele><time>2026-03-28T16:02:54.055Z</time></trkpt><trkpt lat="45.7950406" lon="13.6850884"><ele>169.33333333333331</ele><time>2026-03-28T16:02:55.063Z</time></trkpt><trkpt lat="45.7949726" lon="13.6850326"><ele>171.66666666666666</ele><time>2026-03-28T16:02:56.054Z</time></trkpt><trkpt lat="45.7948731" lon="13.6850267"><ele>174.0</ele><time>2026-03-28T16:02:58.069Z</time></trkpt><trkpt lat="45.7947716" lon="13.685054"><ele>176.33333333333334</ele><time>2026-03-28T16:03:04.048Z</time></trkpt><trkpt lat="45.7947077" lon="13.6850347"><ele>178.66666666666669</ele><time>2026-03-28T16:03:05.045Z</time></trkpt><trkpt lat="45.7946418" lon="13.6849786"><ele>181.0</ele><time>2026-03-28T16:03:06.051Z</time></trkpt><trkpt lat="45.7945798" lon="13.6849139"><ele>181.0</ele><time>2026-03-28T16:03:07.071Z</time></trkpt><trkpt lat="45.7945329" lon="13.6848181"><ele>181.0</ele><time>2026-03-28T16:03:08.054Z</time></trkpt><trkpt lat="45.7945158" lon="13.684714"><ele>181.0</ele><time>2026-03-28T16:03:09.053Z</time></trkpt><trkpt lat="45.7945211" lon="13.6845902"><ele>181.0</ele><time>2026-03-28T16:03:10.04Z</time></trkpt><trkpt lat="45.7945609" lon="13.6844467"><ele>181.0</ele><time>2026-03-28T16:03:11.051Z</time></trkpt><trkpt lat="45.794636" lon="13.6842893"><ele>182.20000000000002</ele><time>2026-03-28T16:03:12.045Z</time></trkpt><trkpt lat="45.7947109" lon="13.6841378"><ele>183.4</ele><time>2026-03-28T16:03:13.045Z</time></trkpt><trkpt lat="45.7947618" lon="13.6840047"><ele>184.6</ele><time>2026-03-28T16:03:14.054Z</time></trkpt><trkpt lat="45.7947873" lon="13.6838872"><ele>185.8</ele><time>2026-03-28T16:03:15.054Z</time></trkpt><trkpt lat="45.7947925" lon="13.6837615"><ele>187.0</ele><time>2026-03-28T16:03:16.058Z</time></trkpt><trkpt lat="45.7947735" lon="13.683637"><ele>188.5</ele><time>2026-03-28T16:03:17.056Z</time></trkpt><trkpt lat="45.7947524" lon="13.6834929"><ele>190.0</ele><time>2026-03-28T16:03:18.063Z</time></trkpt><trkpt lat="45.7947485" lon="13.6833235"><ele>191.5</ele><time>2026-03-28T16:03:19.046Z</time></trkpt><trkpt lat="45.7947535" lon="13.683142"><ele>193.0</ele><time>2026-03-28T16:03:20.056Z</time></trkpt><trkpt lat="45.7947614" lon="13.682974"><ele>193.0</ele><time>2026-03-28T16:03:21.056Z</time></trkpt><trkpt lat="45.7947514" lon="13.6828178"><ele>193.0</ele><time>2026-03-28T16:03:22.055Z</time></trkpt><trkpt lat="45.7947199" lon="13.6826376"><ele>193.0</ele><time>2026-03-28T16:03:23.055Z</time></trkpt><trkpt lat="45.7946786" lon="13.6824153"><ele>193.0</ele><time>2026-03-28T16:03:24.053Z</time></trkpt><trkpt lat="45.7946315" lon="13.6821784"><ele>194.66666666666666</ele><time>2026-03-28T16:03:25.067Z</time></trkpt><trkpt lat="45.7945886" lon="13.6819475"><ele>196.33333333333331</ele><time>2026-03-28T16:03:26.059Z</time></trkpt><trkpt lat="45.7945545" lon="13.6817298"><ele>198.0</ele><time>2026-03-28T16:03:27.052Z</time></trkpt><trkpt lat="45.7945374" lon="13.6815329"><ele>198.5</ele><time>2026-03-28T16:03:28.054Z</time></trkpt><trkpt lat="45.7945157" lon="13.6813542"><ele>199.0</ele><time>2026-03-28T16:03:29.05Z</time></trkpt><trkpt lat="45.7944768" lon="13.6811871"><ele>199.5</ele><time>2026-03-28T16:03:30.053Z</time></trkpt><trkpt lat="45.7944396" lon="13.6810272"><ele>200.0</ele><time>2026-03-28T16:03:31.057Z</time></trkpt><trkpt lat="45.7944189" lon="13.6808762"><ele>200.0</ele><time>2026-03-28T16:03:32.053Z</time></trkpt><trkpt lat="45.7944215" lon="13.6807307"><ele>200.0</ele><time>2026-03-28T16:03:33.058Z</time></trkpt><trkpt lat="45.7944445" lon="13.6806007"><ele>200.0</ele><time>2026-03-28T16:03:34.056Z</time></trkpt><trkpt lat="45.7944894" lon="13.6804731"><ele>200.0</ele><time>2026-03-28T16:03:35.053Z</time></trkpt><trkpt lat="45.7945408" lon="13.6803285"><ele>200.0</ele><time>2026-03-28T16:03:36.061Z</time></trkpt><trkpt lat="45.7945712" lon="13.6801741"><ele>199.25</ele><time>2026-03-28T16:03:37.055Z</time></trkpt><trkpt lat="45.7945611" lon="13.6800084"><ele>198.5</ele><time>2026-03-28T16:03:38.047Z</time></trkpt><trkpt lat="45.7945227" lon="13.6798636"><ele>197.75</ele><time>2026-03-28T16:03:39.046Z</time></trkpt><trkpt lat="45.7944631" lon="13.6797209"><ele>197.0</ele><time>2026-03-28T16:03:40.05Z</time></trkpt><trkpt lat="45.7943879" lon="13.679576"><ele>196.5</ele><time>2026-03-28T16:03:41.043Z</time></trkpt><trkpt lat="45.794298" lon="13.679438"><ele>196.0</ele><time>2026-03-28T16:03:42.056Z</time></trkpt><trkpt lat="45.7942" lon="13.6792879"><ele>195.5</ele><time>2026-03-28T16:03:43.056Z</time></trkpt><trkpt lat="45.7940935" lon="13.6791342"><ele>195.0</ele><time>2026-03-28T16:03:44.05Z</time></trkpt><trkpt lat="45.7939891" lon="13.6789933"><ele>194.75</ele><time>2026-03-28T16:03:45.051Z</time></trkpt><trkpt lat="45.7938892" lon="13.6788501"><ele>194.5</ele><time>2026-03-28T16:03:46.046Z</time></trkpt><trkpt lat="45.7938046" lon="13.678697"><ele>194.25</ele><time>2026-03-28T16:03:47.053Z</time></trkpt><trkpt lat="45.7937268" lon="13.6785325"><ele>194.0</ele><time>2026-03-28T16:03:48.056Z</time></trkpt><trkpt lat="45.7936465" lon="13.6783568"><ele>194.0</ele><time>2026-03-28T16:03:49.052Z</time></trkpt><trkpt lat="45.7935596" lon="13.6781874"><ele>194.0</ele><time>2026-03-28T16:03:50.059Z</time></trkpt><trkpt lat="45.7934769" lon="13.6780299"><ele>194.0</ele><time>2026-03-28T16:03:51.049Z</time></trkpt><trkpt lat="45.7933952" lon="13.6778709"><ele>194.0</ele><time>2026-03-28T16:03:52.056Z</time></trkpt><trkpt lat="45.7933198" lon="13.6777052"><ele>193.25</ele><time>2026-03-28T16:03:53.053Z</time></trkpt><trkpt lat="45.7932318" lon="13.6775417"><ele>192.5</ele><time>2026-03-28T16:03:54.052Z</time></trkpt><trkpt lat="45.7931375" lon="13.6773894"><ele>191.75</ele><time>2026-03-28T16:03:55.056Z</time></trkpt><trkpt lat="45.793051" lon="13.6772381"><ele>191.0</ele><time>2026-03-28T16:03:56.056Z</time></trkpt><trkpt lat="45.7929752" lon="13.6770917"><ele>191.0</ele><time>2026-03-28T16:03:57.058Z</time></trkpt><trkpt lat="45.7929052" lon="13.6769591"><ele>191.0</ele><time>2026-03-28T16:03:58.051Z</time></trkpt><trkpt lat="45.7928436" lon="13.6768465"><ele>191.0</ele><time>2026-03-28T16:03:59.082Z</time></trkpt><trkpt lat="45.7927905" lon="13.6767252"><ele>191.0</ele><time>2026-03-28T16:04:00.055Z</time></trkpt><trkpt lat="45.792757" lon="13.6765844"><ele>191.0</ele><time>2026-03-28T16:04:01.052Z</time></trkpt><trkpt lat="45.792733" lon="13.6764392"><ele>190.8</ele><time>2026-03-28T16:04:02.053Z</time></trkpt><trkpt lat="45.7927177" lon="13.6762949"><ele>190.60000000000002</ele><time>2026-03-28T16:04:03.053Z</time></trkpt><trkpt lat="45.7926897" lon="13.6761627"><ele>190.4</ele><time>2026-03-28T16:04:04.053Z</time></trkpt><trkpt lat="45.7926258" lon="13.6760483"><ele>190.2</ele><time>2026-03-28T16:04:05.056Z</time></trkpt><trkpt lat="45.7925299" lon="13.6759525"><ele>190.0</ele><time>2026-03-28T16:04:06.047Z</time></trkpt><trkpt lat="45.7924302" lon="13.6758721"><ele>189.6</ele><time>2026-03-28T16:04:07.046Z</time></trkpt><trkpt lat="45.7923244" lon="13.6758003"><ele>189.2</ele><time>2026-03-28T16:04:08.085Z</time></trkpt><trkpt lat="45.7922199" lon="13.6757571"><ele>188.8</ele><time>2026-03-28T16:04:09.052Z</time></trkpt><trkpt lat="45.7921108" lon="13.6757417"><ele>188.4</ele><time>2026-03-28T16:04:10.055Z</time></trkpt><trkpt lat="45.7920084" lon="13.6757632"><ele>188.0</ele><time>2026-03-28T16:04:11.048Z</time></trkpt><trkpt lat="45.791906" lon="13.6758032"><ele>187.4</ele><time>2026-03-28T16:04:12.044Z</time></trkpt><trkpt lat="45.7918028" lon="13.6758593"><ele>186.8</ele><time>2026-03-28T16:04:13.057Z</time></trkpt><trkpt lat="45.7916982" lon="13.6759208"><ele>186.2</ele><time>2026-03-28T16:04:14.048Z</time></trkpt><trkpt lat="45.7915885" lon="13.6759568"><ele>185.6</ele><time>2026-03-28T16:04:15.063Z</time></trkpt><trkpt lat="45.7914911" lon="13.6759638"><ele>185.0</ele><time>2026-03-28T16:04:16.05Z</time></trkpt><trkpt lat="45.7914165" lon="13.6759465"><ele>185.0</ele><time>2026-03-28T16:04:17.052Z</time></trkpt><trkpt lat="45.7913541" lon="13.6758901"><ele>185.0</ele><time>2026-03-28T16:04:18.059Z</time></trkpt><trkpt lat="45.7912847" lon="13.6757986"><ele>185.0</ele><time>2026-03-28T16:04:19.054Z</time></trkpt><trkpt lat="45.7912017" lon="13.6757017"><ele>185.0</ele><time>2026-03-28T16:04:20.053Z</time></trkpt><trkpt lat="45.7911271" lon="13.6755903"><ele>185.0</ele><time>2026-03-28T16:04:21.054Z</time></trkpt><trkpt lat="45.791055" lon="13.6754665"><ele>186.0</ele><time>2026-03-28T16:04:22.06Z</time></trkpt><trkpt lat="45.7909904" lon="13.67532"><ele>187.0</ele><time>2026-03-28T16:04:23.046Z</time></trkpt><trkpt lat="45.790918" lon="13.6751814"><ele>188.0</ele><time>2026-03-28T16:04:24.078Z</time></trkpt><trkpt lat="45.7908316" lon="13.6750605"><ele>189.0</ele><time>2026-03-28T16:04:25.056Z</time></trkpt><trkpt lat="45.7907484" lon="13.6749492"><ele>189.0</ele><time>2026-03-28T16:04:26.057Z</time></trkpt><trkpt lat="45.7906839" lon="13.6748291"><ele>189.0</ele><time>2026-03-28T16:04:27.058Z</time></trkpt><trkpt lat="45.7906323" lon="13.6747097"><ele>189.0</ele><time>2026-03-28T16:04:28.055Z</time></trkpt><trkpt lat="45.7905969" lon="13.6745814"><ele>189.0</ele><time>2026-03-28T16:04:29.051Z</time></trkpt><trkpt lat="45.7905543" lon="13.6744442"><ele>189.0</ele><time>2026-03-28T16:04:30.058Z</time></trkpt><trkpt lat="45.790498" lon="13.674331"><ele>189.2</ele><time>2026-03-28T16:04:31.054Z</time></trkpt><trkpt lat="45.7904212" lon="13.67423"><ele>189.39999999999998</ele><time>2026-03-28T16:04:32.055Z</time></trkpt><trkpt lat="45.790353" lon="13.6741461"><ele>189.6</ele><time>2026-03-28T16:04:33.059Z</time></trkpt><trkpt lat="45.7902934" lon="13.6740449"><ele>189.8</ele><time>2026-03-28T16:04:34.06Z</time></trkpt><trkpt lat="45.7902516" lon="13.6739208"><ele>190.0</ele><time>2026-03-28T16:04:35.065Z</time></trkpt><trkpt lat="45.79021" lon="13.6737772"><ele>188.5</ele><time>2026-03-28T16:04:36.049Z</time></trkpt><trkpt lat="45.7901708" lon="13.6736333"><ele>187.0</ele><time>2026-03-28T16:04:37.061Z</time></trkpt><trkpt lat="45.7901203" lon="13.6734673"><ele>185.5</ele><time>2026-03-28T16:04:38.055Z</time></trkpt><trkpt lat="45.7900638" lon="13.6733028"><ele>184.0</ele><time>2026-03-28T16:04:39.053Z</time></trkpt><trkpt lat="45.7900098" lon="13.6731377"><ele>183.5</ele><time>2026-03-28T16:04:40.058Z</time></trkpt><trkpt lat="45.789958" lon="13.6729648"><ele>183.0</ele><time>2026-03-28T16:04:41.049Z</time></trkpt><trkpt lat="45.7899113" lon="13.672801"><ele>182.5</ele><time>2026-03-28T16:04:42.07Z</time></trkpt><trkpt lat="45.7898672" lon="13.6726495"><ele>182.0</ele><time>2026-03-28T16:04:43.05Z</time></trkpt><trkpt lat="45.789826" lon="13.6725222"><ele>181.83333333333331</ele><time>2026-03-28T16:04:44.05Z</time></trkpt><trkpt lat="45.7897852" lon="13.6724181"><ele>181.66666666666666</ele><time>2026-03-28T16:04:45.065Z</time></trkpt><trkpt lat="45.7897316" lon="13.6723282"><ele>181.5</ele><time>2026-03-28T16:04:46.055Z</time></trkpt><trkpt lat="45.7896665" lon="13.6722777"><ele>181.33333333333334</ele><time>2026-03-28T16:04:47.048Z</time></trkpt><trkpt lat="45.7895847" lon="13.6722655"><ele>181.16666666666669</ele><time>2026-03-28T16:04:48.064Z</time></trkpt><trkpt lat="45.789489" lon="13.6722608"><ele>181.0</ele><time>2026-03-28T16:04:49.047Z</time></trkpt><trkpt lat="45.7893978" lon="13.6722529"><ele>181.60000000000002</ele><time>2026-03-28T16:04:50.058Z</time></trkpt><trkpt lat="45.7893097" lon="13.6722145"><ele>182.2</ele><time>2026-03-28T16:04:51.046Z</time></trkpt><trkpt lat="45.7892248" lon="13.6721408"><ele>182.8</ele><time>2026-03-28T16:04:52.06Z</time></trkpt><trkpt lat="45.7891471" lon="13.6720489"><ele>183.39999999999998</ele><time>2026-03-28T16:04:53.054Z</time></trkpt><trkpt lat="45.7890828" lon="13.6719383"><ele>184.0</ele><time>2026-03-28T16:04:54.053Z</time></trkpt><trkpt lat="45.7890326" lon="13.6718177"><ele>184.0</ele><time>2026-03-28T16:04:55.051Z</time></trkpt><trkpt lat="45.7889828" lon="13.6717"><ele>184.0</ele><time>2026-03-28T16:04:56.053Z</time></trkpt><trkpt lat="45.7889445" lon="13.6715749"><ele>184.0</ele><time>2026-03-28T16:04:57.056Z</time></trkpt><trkpt lat="45.7889117" lon="13.6714322"><ele>184.0</ele><time>2026-03-28T16:04:58.057Z</time></trkpt><trkpt lat="45.7888894" lon="13.6712828"><ele>184.0</ele><time>2026-03-28T16:04:59.045Z</time></trkpt><trkpt lat="45.7888695" lon="13.671124"><ele>183.75</ele><time>2026-03-28T16:05:00.051Z</time></trkpt><trkpt lat="45.7888371" lon="13.6709474"><ele>183.5</ele><time>2026-03-28T16:05:01.062Z</time></trkpt><trkpt lat="45.7888024" lon="13.6707649"><ele>183.25</ele><time>2026-03-28T16:05:02.057Z</time></trkpt><trkpt lat="45.7887661" lon="13.6705816"><ele>183.0</ele><time>2026-03-28T16:05:03.063Z</time></trkpt><trkpt lat="45.7887272" lon="13.6704038"><ele>183.4</ele><time>2026-03-28T16:05:04.062Z</time></trkpt><trkpt lat="45.7886936" lon="13.670243"><ele>183.8</ele><time>2026-03-28T16:05:05.055Z</time></trkpt><trkpt lat="45.7886611" lon="13.6700926"><ele>184.2</ele><time>2026-03-28T16:05:06.072Z</time></trkpt><trkpt lat="45.7886183" lon="13.6699499"><ele>184.6</ele><time>2026-03-28T16:05:07.063Z</time></trkpt><trkpt lat="45.7885626" lon="13.669828"><ele>185.0</ele><time>2026-03-28T16:05:08.057Z</time></trkpt><trkpt lat="45.7884837" lon="13.6697453"><ele>185.0</ele><time>2026-03-28T16:05:09.054Z</time></trkpt><trkpt lat="45.7883976" lon="13.6696767"><ele>185.0</ele><time>2026-03-28T16:05:10.045Z</time></trkpt><trkpt lat="45.7883044" lon="13.669625"><ele>185.0</ele><time>2026-03-28T16:05:11.058Z</time></trkpt><trkpt lat="45.7881969" lon="13.6696015"><ele>185.0</ele><time>2026-03-28T16:05:12.057Z</time></trkpt><trkpt lat="45.7880891" lon="13.669572"><ele>185.0</ele><time>2026-03-28T16:05:13.083Z</time></trkpt><trkpt lat="45.7879925" lon="13.6695232"><ele>185.0</ele><time>2026-03-28T16:05:14.058Z</time></trkpt><trkpt lat="45.7879031" lon="13.6694517"><ele>185.0</ele><time>2026-03-28T16:05:15.059Z</time></trkpt><trkpt lat="45.7878287" lon="13.6693566"><ele>185.0</ele><time>2026-03-28T16:05:16.047Z</time></trkpt><trkpt lat="45.7877557" lon="13.6692374"><ele>185.0</ele><time>2026-03-28T16:05:17.045Z</time></trkpt><trkpt lat="45.7876809" lon="13.6691018"><ele>185.0</ele><time>2026-03-28T16:05:18.05Z</time></trkpt><trkpt lat="45.7876083" lon="13.66896"><ele>184.75</ele><time>2026-03-28T16:05:19.044Z</time></trkpt><trkpt lat="45.7875315" lon="13.6688137"><ele>184.5</ele><time>2026-03-28T16:05:20.073Z</time></trkpt><trkpt lat="45.7874459" lon="13.6686948"><ele>184.25</ele><time>2026-03-28T16:05:21.053Z</time></trkpt><trkpt lat="45.7873684" lon="13.668591"><ele>184.0</ele><time>2026-03-28T16:05:22.055Z</time></trkpt><trkpt lat="45.7873057" lon="13.6684842"><ele>183.83333333333334</ele><time>2026-03-28T16:05:23.051Z</time></trkpt><trkpt lat="45.7872674" lon="13.6683769"><ele>183.66666666666669</ele><time>2026-03-28T16:05:24.064Z</time></trkpt><trkpt lat="45.787239" lon="13.6682719"><ele>183.5</ele><time>2026-03-28T16:05:25.061Z</time></trkpt><trkpt lat="45.7872252" lon="13.6681666"><ele>183.33333333333334</ele><time>2026-03-28T16:05:26.062Z</time></trkpt><trkpt lat="45.7872283" lon="13.6680387"><ele>183.16666666666666</ele><time>2026-03-28T16:05:27.061Z</time></trkpt><trkpt lat="45.7872473" lon="13.6678979"><ele>183.0</ele><time>2026-03-28T16:05:28.056Z</time></trkpt><trkpt lat="45.7872781" lon="13.6677446"><ele>182.25</ele><time>2026-03-28T16:05:29.053Z</time></trkpt><trkpt lat="45.787312" lon="13.667585"><ele>181.5</ele><time>2026-03-28T16:05:30.058Z</time></trkpt><trkpt lat="45.7873504" lon="13.6674291"><ele>180.75</ele><time>2026-03-28T16:05:31.064Z</time></trkpt><trkpt lat="45.7873912" lon="13.6672799"><ele>180.0</ele><time>2026-03-28T16:05:32.061Z</time></trkpt><trkpt lat="45.7874293" lon="13.6671269"><ele>180.0</ele><time>2026-03-28T16:05:33.054Z</time></trkpt><trkpt lat="45.7874591" lon="13.6669827"><ele>180.0</ele><time>2026-03-28T16:05:34.069Z</time></trkpt><trkpt lat="45.7874758" lon="13.6668508"><ele>180.0</ele><time>2026-03-28T16:05:35.059Z</time></trkpt><trkpt lat="45.7874682" lon="13.6667107"><ele>180.0</ele><time>2026-03-28T16:05:36.051Z</time></trkpt><trkpt lat="45.7874223" lon="13.6665697"><ele>180.0</ele><time>2026-03-28T16:05:37.061Z</time></trkpt><trkpt lat="45.78737" lon="13.6664159"><ele>180.16666666666666</ele><time>2026-03-28T16:05:38.049Z</time></trkpt><trkpt lat="45.7873178" lon="13.6662673"><ele>180.33333333333334</ele><time>2026-03-28T16:05:39.082Z</time></trkpt><trkpt lat="45.7872615" lon="13.6661333"><ele>180.5</ele><time>2026-03-28T16:05:40.044Z</time></trkpt><trkpt lat="45.787211" lon="13.6660249"><ele>180.66666666666669</ele><time>2026-03-28T16:05:41.048Z</time></trkpt><trkpt lat="45.7871685" lon="13.6659579"><ele>180.83333333333334</ele><time>2026-03-28T16:05:42.063Z</time></trkpt><trkpt lat="45.787133" lon="13.6658727"><ele>181.0</ele><time>2026-03-28T16:05:45.069Z</time></trkpt><trkpt lat="45.7872501" lon="13.6658271"><ele>181.16666666666669</ele><time>2026-03-28T16:05:49.042Z</time></trkpt><trkpt lat="45.7873184" lon="13.6657972"><ele>181.33333333333334</ele><time>2026-03-28T16:05:50.048Z</time></trkpt><trkpt lat="45.7873926" lon="13.6657704"><ele>181.5</ele><time>2026-03-28T16:05:51.058Z</time></trkpt><trkpt lat="45.7874726" lon="13.6657418"><ele>181.66666666666666</ele><time>2026-03-28T16:05:52.05Z</time></trkpt><trkpt lat="45.7875537" lon="13.6657091"><ele>181.83333333333331</ele><time>2026-03-28T16:05:53.046Z</time></trkpt><trkpt lat="45.7876279" lon="13.6656542"><ele>182.0</ele><time>2026-03-28T16:05:54.056Z</time></trkpt><trkpt lat="45.7876878" lon="13.6655721"><ele>182.16666666666666</ele><time>2026-03-28T16:05:55.056Z</time></trkpt><trkpt lat="45.7877337" lon="13.6654596"><ele>182.33333333333331</ele><time>2026-03-28T16:05:56.054Z</time></trkpt><trkpt lat="45.7877789" lon="13.6653468"><ele>182.5</ele><time>2026-03-28T16:05:57.048Z</time></trkpt><trkpt lat="45.7878301" lon="13.6652506"><ele>182.66666666666666</ele><time>2026-03-28T16:05:58.065Z</time></trkpt><trkpt lat="45.7878869" lon="13.6651732"><ele>182.83333333333334</ele><time>2026-03-28T16:05:59.069Z</time></trkpt><trkpt lat="45.7879419" lon="13.6651027"><ele>183.0</ele><time>2026-03-28T16:06:00.065Z</time></trkpt><trkpt lat="45.7879944" lon="13.6650399"><ele>183.0</ele><time>2026-03-28T16:06:01.06Z</time></trkpt><trkpt lat="45.7880466" lon="13.6649873"><ele>183.0</ele><time>2026-03-28T16:06:02.083Z</time></trkpt><trkpt lat="45.7881679" lon="13.6649001"><ele>183.0</ele><time>2026-03-28T16:06:04.074Z</time></trkpt><trkpt lat="45.7882392" lon="13.6648469"><ele>183.0</ele><time>2026-03-28T16:06:05.068Z</time></trkpt><trkpt lat="45.788306" lon="13.6647877"><ele>183.0</ele><time>2026-03-28T16:06:06.07Z</time></trkpt><trkpt lat="45.7883695" lon="13.6647308"><ele>183.0</ele><time>2026-03-28T16:06:07.067Z</time></trkpt><trkpt lat="45.7884311" lon="13.6646868"><ele>183.2</ele><time>2026-03-28T16:06:08.07Z</time></trkpt><trkpt lat="45.7885468" lon="13.6646292"><ele>183.4</ele><time>2026-03-28T16:06:10.064Z</time></trkpt><trkpt lat="45.788644" lon="13.6645406"><ele>183.6</ele><time>2026-03-28T16:06:12.059Z</time></trkpt><trkpt lat="45.7886947" lon="13.6644457"><ele>183.79999999999998</ele><time>2026-03-28T16:06:13.049Z</time></trkpt><trkpt lat="45.7887335" lon="13.664365"><ele>184.0</ele><time>2026-03-28T16:06:14.055Z</time></trkpt><trkpt lat="45.7887602" lon="13.6642539"><ele>183.6</ele><time>2026-03-28T16:06:16.06Z</time></trkpt><trkpt lat="45.7887176" lon="13.6641531"><ele>183.2</ele><time>2026-03-28T16:06:18.058Z</time></trkpt><trkpt lat="45.7886653" lon="13.6640682"><ele>182.79999999999998</ele><time>2026-03-28T16:06:19.049Z</time></trkpt><trkpt lat="45.7886115" lon="13.6639535"><ele>182.39999999999998</ele><time>2026-03-28T16:06:20.053Z</time></trkpt><trkpt lat="45.7885581" lon="13.663823"><ele>182.0</ele><time>2026-03-28T16:06:21.066Z</time></trkpt><trkpt lat="45.7885161" lon="13.6637056"><ele>182.0</ele><time>2026-03-28T16:06:22.065Z</time></trkpt><trkpt lat="45.7884852" lon="13.6636091"><ele>182.0</ele><time>2026-03-28T16:06:23.049Z</time></trkpt><trkpt lat="45.7884762" lon="13.6634909"><ele>182.0</ele><time>2026-03-28T16:06:24.058Z</time></trkpt><trkpt lat="45.7884747" lon="13.6633585"><ele>182.0</ele><time>2026-03-28T16:06:25.049Z</time></trkpt><trkpt lat="45.7884787" lon="13.6632215"><ele>182.0</ele><time>2026-03-28T16:06:26.071Z</time></trkpt><trkpt lat="45.7884718" lon="13.6631026"><ele>182.0</ele><time>2026-03-28T16:06:27.058Z</time></trkpt><trkpt lat="45.7884587" lon="13.6629938"><ele>182.0</ele><time>2026-03-28T16:06:28.059Z</time></trkpt><trkpt lat="45.7884246" lon="13.6628885"><ele>182.0</ele><time>2026-03-28T16:06:29.056Z</time></trkpt><trkpt lat="45.7883724" lon="13.6628032"><ele>182.0</ele><time>2026-03-28T16:06:30.06Z</time></trkpt><trkpt lat="45.7883076" lon="13.6627538"><ele>182.0</ele><time>2026-03-28T16:06:31.069Z</time></trkpt><trkpt lat="45.7881776" lon="13.6627605"><ele>182.0</ele><time>2026-03-28T16:06:33.047Z</time></trkpt><trkpt lat="45.7881148" lon="13.6627435"><ele>182.0</ele><time>2026-03-28T16:06:34.049Z</time></trkpt><trkpt lat="45.7880434" lon="13.6627247"><ele>182.0</ele><time>2026-03-28T16:06:35.07Z</time></trkpt><trkpt lat="45.7879659" lon="13.6627126"><ele>182.0</ele><time>2026-03-28T16:06:36.064Z</time></trkpt><trkpt lat="45.7878864" lon="13.6627431"><ele>182.0</ele><time>2026-03-28T16:06:37.063Z</time></trkpt><trkpt lat="45.7878172" lon="13.6627746"><ele>182.0</ele><time>2026-03-28T16:06:38.067Z</time></trkpt><trkpt lat="45.7877205" lon="13.6627561"><ele>182.0</ele><time>2026-03-28T16:06:40.058Z</time></trkpt><trkpt lat="45.7876757" lon="13.6626158"><ele>182.0</ele><time>2026-03-28T16:06:42.055Z</time></trkpt><trkpt lat="45.7876661" lon="13.6625095"><ele>182.0</ele><time>2026-03-28T16:06:43.048Z</time></trkpt><trkpt lat="45.7876546" lon="13.6623992"><ele>182.0</ele><time>2026-03-28T16:06:44.039Z</time></trkpt><trkpt lat="45.7876384" lon="13.6622914"><ele>182.0</ele><time>2026-03-28T16:06:45.053Z</time></trkpt><trkpt lat="45.7876255" lon="13.6621723"><ele>182.0</ele><time>2026-03-28T16:06:46.069Z</time></trkpt><trkpt lat="45.7876179" lon="13.6620582"><ele>182.0</ele><time>2026-03-28T16:06:47.06Z</time></trkpt><trkpt lat="45.7876109" lon="13.6619451"><ele>182.0</ele><time>2026-03-28T16:06:48.064Z</time></trkpt><trkpt lat="45.7875991" lon="13.6618278"><ele>182.0</ele><time>2026-03-28T16:06:49.054Z</time></trkpt><trkpt lat="45.7875806" lon="13.6616953"><ele>182.0</ele><time>2026-03-28T16:06:50.056Z</time></trkpt><trkpt lat="45.7875453" lon="13.6615595"><ele>182.0</ele><time>2026-03-28T16:06:51.049Z</time></trkpt><trkpt lat="45.7875208" lon="13.6614219"><ele>182.0</ele><time>2026-03-28T16:06:52.05Z</time></trkpt><trkpt lat="45.7874943" lon="13.6612964"><ele>182.0</ele><time>2026-03-28T16:06:53.052Z</time></trkpt><trkpt lat="45.7874745" lon="13.6611803"><ele>181.6</ele><time>2026-03-28T16:06:54.061Z</time></trkpt><trkpt lat="45.7874567" lon="13.6610643"><ele>181.2</ele><time>2026-03-28T16:06:55.057Z</time></trkpt><trkpt lat="45.7874373" lon="13.660933"><ele>180.8</ele><time>2026-03-28T16:06:56.053Z</time></trkpt><trkpt lat="45.7874086" lon="13.6607996"><ele>180.4</ele><time>2026-03-28T16:06:57.059Z</time></trkpt><trkpt lat="45.7873741" lon="13.6606621"><ele>180.0</ele><time>2026-03-28T16:06:58.05Z</time></trkpt><trkpt lat="45.7873333" lon="13.6605308"><ele>180.0</ele><time>2026-03-28T16:06:59.071Z</time></trkpt><trkpt lat="45.787302" lon="13.6603957"><ele>180.0</ele><time>2026-03-28T16:07:00.059Z</time></trkpt><trkpt lat="45.787269" lon="13.6602673"><ele>180.0</ele><time>2026-03-28T16:07:01.052Z</time></trkpt><trkpt lat="45.7872366" lon="13.6601516"><ele>180.0</ele><time>2026-03-28T16:07:02.064Z</time></trkpt><trkpt lat="45.7872046" lon="13.660042"><ele>180.0</ele><time>2026-03-28T16:07:03.059Z</time></trkpt><trkpt lat="45.7871799" lon="13.6599333"><ele>180.0</ele><time>2026-03-28T16:07:04.06Z</time></trkpt><trkpt lat="45.7871597" lon="13.6598402"><ele>180.0</ele><time>2026-03-28T16:07:05.059Z</time></trkpt><trkpt lat="45.7871402" lon="13.6597539"><ele>180.0</ele><time>2026-03-28T16:07:06.048Z</time></trkpt><trkpt lat="45.787121" lon="13.6596382"><ele>180.0</ele><time>2026-03-28T16:07:08.058Z</time></trkpt><trkpt lat="45.7871908" lon="13.6596203"><ele>180.0</ele><time>2026-03-28T16:07:11.052Z</time></trkpt><trkpt lat="45.7872433" lon="13.6596738"><ele>180.0</ele><time>2026-03-28T16:07:12.046Z</time></trkpt><trkpt lat="45.7873046" lon="13.6597143"><ele>180.0</ele><time>2026-03-28T16:07:13.048Z</time></trkpt><trkpt lat="45.7873885" lon="13.6597318"><ele>180.0</ele><time>2026-03-28T16:07:14.058Z</time></trkpt><trkpt lat="45.7874967" lon="13.6597368"><ele>180.0</ele><time>2026-03-28T16:07:15.05Z</time></trkpt><trkpt lat="45.7876073" lon="13.6597565"><ele>180.0</ele><time>2026-03-28T16:07:16.063Z</time></trkpt><trkpt lat="45.7876984" lon="13.6597666"><ele>180.0</ele><time>2026-03-28T16:07:17.052Z</time></trkpt><trkpt lat="45.7877687" lon="13.659762"><ele>180.0</ele><time>2026-03-28T16:07:18.054Z</time></trkpt><trkpt lat="45.7878682" lon="13.6596567"><ele>180.0</ele><time>2026-03-28T16:07:20.057Z</time></trkpt><trkpt lat="45.7879156" lon="13.6595637"><ele>179.16666666666666</ele><time>2026-03-28T16:07:21.048Z</time></trkpt><trkpt lat="45.7879627" lon="13.6594655"><ele>178.33333333333334</ele><time>2026-03-28T16:07:22.054Z</time></trkpt><trkpt lat="45.7880236" lon="13.6593814"><ele>177.5</ele><time>2026-03-28T16:07:23.058Z</time></trkpt><trkpt lat="45.7880998" lon="13.6593104"><ele>176.66666666666669</ele><time>2026-03-28T16:07:24.06Z</time></trkpt><trkpt lat="45.7881748" lon="13.6592537"><ele>175.83333333333334</ele><time>2026-03-28T16:07:25.054Z</time></trkpt><trkpt lat="45.7882493" lon="13.6591888"><ele>175.0</ele><time>2026-03-28T16:07:26.084Z</time></trkpt><trkpt lat="45.7883027" lon="13.6590968"><ele>174.83333333333334</ele><time>2026-03-28T16:07:27.053Z</time></trkpt><trkpt lat="45.788335" lon="13.6589879"><ele>174.66666666666669</ele><time>2026-03-28T16:07:28.057Z</time></trkpt><trkpt lat="45.7883692" lon="13.6588783"><ele>174.5</ele><time>2026-03-28T16:07:29.054Z</time></trkpt><trkpt lat="45.7884114" lon="13.6587769"><ele>174.33333333333334</ele><time>2026-03-28T16:07:30.059Z</time></trkpt><trkpt lat="45.7884577" lon="13.6586792"><ele>174.16666666666666</ele><time>2026-03-28T16:07:31.055Z</time></trkpt><trkpt lat="45.7885124" lon="13.6585898"><ele>174.0</ele><time>2026-03-28T16:07:32.061Z</time></trkpt><trkpt lat="45.788581" lon="13.6585293"><ele>174.0</ele><time>2026-03-28T16:07:33.055Z</time></trkpt><trkpt lat="45.7886565" lon="13.6584912"><ele>174.0</ele><time>2026-03-28T16:07:34.052Z</time></trkpt><trkpt lat="45.7887317" lon="13.6584768"><ele>174.0</ele><time>2026-03-28T16:07:35.052Z</time></trkpt><trkpt lat="45.7888145" lon="13.6584599"><ele>174.0</ele><time>2026-03-28T16:07:36.05Z</time></trkpt><trkpt lat="45.7888914" lon="13.6584293"><ele>174.0</ele><time>2026-03-28T16:07:37.065Z</time></trkpt><trkpt lat="45.7889614" lon="13.6583856"><ele>174.0</ele><time>2026-03-28T16:07:38.069Z</time></trkpt><trkpt lat="45.7890351" lon="13.6583342"><ele>174.0</ele><time>2026-03-28T16:07:39.052Z</time></trkpt><trkpt lat="45.7890991" lon="13.6582919"><ele>174.0</ele><time>2026-03-28T16:07:40.066Z</time></trkpt><trkpt lat="45.7891678" lon="13.6582437"><ele>174.0</ele><time>2026-03-28T16:07:41.057Z</time></trkpt><trkpt lat="45.7892348" lon="13.6581707"><ele>174.0</ele><time>2026-03-28T16:07:42.059Z</time></trkpt><trkpt lat="45.7892958" lon="13.6580822"><ele>174.0</ele><time>2026-03-28T16:07:43.044Z</time></trkpt><trkpt lat="45.7893529" lon="13.6579906"><ele>174.0</ele><time>2026-03-28T16:07:44.052Z</time></trkpt><trkpt lat="45.7894117" lon="13.657901"><ele>173.83333333333334</ele><time>2026-03-28T16:07:45.055Z</time></trkpt><trkpt lat="45.7894764" lon="13.6578304"><ele>173.66666666666666</ele><time>2026-03-28T16:07:46.064Z</time></trkpt><trkpt lat="45.7895527" lon="13.6577883"><ele>173.5</ele><time>2026-03-28T16:07:47.051Z</time></trkpt><trkpt lat="45.7896394" lon="13.6577725"><ele>173.33333333333331</ele><time>2026-03-28T16:07:48.067Z</time></trkpt><trkpt lat="45.7897448" lon="13.657774"><ele>173.16666666666666</ele><time>2026-03-28T16:07:49.046Z</time></trkpt><trkpt lat="45.7898368" lon="13.6577892"><ele>173.0</ele><time>2026-03-28T16:07:50.056Z</time></trkpt><trkpt lat="45.7899009" lon="13.6578169"><ele>173.4</ele><time>2026-03-28T16:07:51.061Z</time></trkpt><trkpt lat="45.78997" lon="13.6578619"><ele>173.8</ele><time>2026-03-28T16:07:52.051Z</time></trkpt><trkpt lat="45.7900459" lon="13.6579065"><ele>174.2</ele><time>2026-03-28T16:07:53.077Z</time></trkpt><trkpt lat="45.7901488" lon="13.6579241"><ele>174.6</ele><time>2026-03-28T16:07:54.057Z</time></trkpt><trkpt lat="45.7902597" lon="13.6579407"><ele>175.0</ele><time>2026-03-28T16:07:55.055Z</time></trkpt><trkpt lat="45.7903758" lon="13.6579569"><ele>175.0</ele><time>2026-03-28T16:07:56.059Z</time></trkpt><trkpt lat="45.7904741" lon="13.6579756"><ele>175.0</ele><time>2026-03-28T16:07:57.052Z</time></trkpt><trkpt lat="45.7905533" lon="13.6579821"><ele>175.0</ele><time>2026-03-28T16:07:58.067Z</time></trkpt><trkpt lat="45.7906274" lon="13.6579746"><ele>175.0</ele><time>2026-03-28T16:07:59.06Z</time></trkpt><trkpt lat="45.7907018" lon="13.6579521"><ele>175.0</ele><time>2026-03-28T16:08:00.06Z</time></trkpt><trkpt lat="45.7907751" lon="13.6579248"><ele>175.0</ele><time>2026-03-28T16:08:01.063Z</time></trkpt><trkpt lat="45.7908514" lon="13.6578837"><ele>175.0</ele><time>2026-03-28T16:08:02.053Z</time></trkpt><trkpt lat="45.7909333" lon="13.6578345"><ele>175.0</ele><time>2026-03-28T16:08:03.068Z</time></trkpt><trkpt lat="45.7910323" lon="13.6577565"><ele>175.0</ele><time>2026-03-28T16:08:04.056Z</time></trkpt><trkpt lat="45.791138" lon="13.6576531"><ele>175.0</ele><time>2026-03-28T16:08:05.057Z</time></trkpt><trkpt lat="45.7912419" lon="13.6575576"><ele>175.75</ele><time>2026-03-28T16:08:06.064Z</time></trkpt><trkpt lat="45.7913507" lon="13.6574807"><ele>176.5</ele><time>2026-03-28T16:08:07.056Z</time></trkpt><trkpt lat="45.7914661" lon="13.6574229"><ele>177.25</ele><time>2026-03-28T16:08:08.046Z</time></trkpt><trkpt lat="45.7915767" lon="13.6573599"><ele>178.0</ele><time>2026-03-28T16:08:09.051Z</time></trkpt><trkpt lat="45.7916831" lon="13.6572903"><ele>178.0</ele><time>2026-03-28T16:08:10.052Z</time></trkpt><trkpt lat="45.7917824" lon="13.6572293"><ele>178.0</ele><time>2026-03-28T16:08:11.05Z</time></trkpt><trkpt lat="45.7918789" lon="13.657181"><ele>178.0</ele><time>2026-03-28T16:08:12.075Z</time></trkpt><trkpt lat="45.7919927" lon="13.6571512"><ele>178.0</ele><time>2026-03-28T16:08:13.052Z</time></trkpt><trkpt lat="45.7921111" lon="13.6571253"><ele>178.0</ele><time>2026-03-28T16:08:14.049Z</time></trkpt><trkpt lat="45.7922346" lon="13.6571016"><ele>179.2</ele><time>2026-03-28T16:08:15.055Z</time></trkpt><trkpt lat="45.7923493" lon="13.6570783"><ele>180.4</ele><time>2026-03-28T16:08:16.056Z</time></trkpt><trkpt lat="45.7924553" lon="13.6570606"><ele>181.6</ele><time>2026-03-28T16:08:17.052Z</time></trkpt><trkpt lat="45.7925509" lon="13.6570309"><ele>182.79999999999998</ele><time>2026-03-28T16:08:18.046Z</time></trkpt><trkpt lat="45.7926468" lon="13.6569772"><ele>184.0</ele><time>2026-03-28T16:08:19.048Z</time></trkpt><trkpt lat="45.7927376" lon="13.6569296"><ele>184.83333333333334</ele><time>2026-03-28T16:08:20.056Z</time></trkpt><trkpt lat="45.7928125" lon="13.6568867"><ele>185.66666666666669</ele><time>2026-03-28T16:08:21.056Z</time></trkpt><trkpt lat="45.7928871" lon="13.6568529"><ele>186.5</ele><time>2026-03-28T16:08:22.053Z</time></trkpt><trkpt lat="45.7930023" lon="13.6568128"><ele>187.33333333333334</ele><time>2026-03-28T16:08:24.057Z</time></trkpt><trkpt lat="45.79307" lon="13.6567601"><ele>188.16666666666666</ele><time>2026-03-28T16:08:26.053Z</time></trkpt><trkpt lat="45.793128" lon="13.6566706"><ele>189.0</ele><time>2026-03-28T16:08:36.053Z</time></trkpt><trkpt lat="45.793185" lon="13.6565194"><ele>189.0</ele><time>2026-03-28T16:08:38.071Z</time></trkpt><trkpt lat="45.7932134" lon="13.6564145"><ele>189.0</ele><time>2026-03-28T16:08:39.075Z</time></trkpt><trkpt lat="45.7932471" lon="13.6562959"><ele>189.0</ele><time>2026-03-28T16:08:40.065Z</time></trkpt><trkpt lat="45.7932885" lon="13.6561628"><ele>189.0</ele><time>2026-03-28T16:08:41.065Z</time></trkpt><trkpt lat="45.7933341" lon="13.6560287"><ele>189.0</ele><time>2026-03-28T16:08:42.061Z</time></trkpt><trkpt lat="45.7933899" lon="13.6558795"><ele>189.5</ele><time>2026-03-28T16:08:43.053Z</time></trkpt><trkpt lat="45.793452" lon="13.6557086"><ele>190.0</ele><time>2026-03-28T16:08:44.042Z</time></trkpt><trkpt lat="45.7935138" lon="13.655527"><ele>190.5</ele><time>2026-03-28T16:08:45.051Z</time></trkpt><trkpt lat="45.793565" lon="13.6553552"><ele>191.0</ele><time>2026-03-28T16:08:46.056Z</time></trkpt><trkpt lat="45.7936092" lon="13.6551863"><ele>189.25</ele><time>2026-03-28T16:08:47.052Z</time></trkpt><trkpt lat="45.793651" lon="13.6550205"><ele>187.5</ele><time>2026-03-28T16:08:48.071Z</time></trkpt><trkpt lat="45.793692" lon="13.6548725"><ele>185.75</ele><time>2026-03-28T16:08:49.05Z</time></trkpt><trkpt lat="45.7937282" lon="13.6547254"><ele>184.0</ele><time>2026-03-28T16:08:50.051Z</time></trkpt><trkpt lat="45.7937576" lon="13.6545612"><ele>184.79999999999998</ele><time>2026-03-28T16:08:51.055Z</time></trkpt><trkpt lat="45.7937897" lon="13.6544106"><ele>185.6</ele><time>2026-03-28T16:08:52.055Z</time></trkpt><trkpt lat="45.793823" lon="13.6542623"><ele>186.4</ele><time>2026-03-28T16:08:53.041Z</time></trkpt><trkpt lat="45.7938516" lon="13.6541138"><ele>187.2</ele><time>2026-03-28T16:08:54.055Z</time></trkpt><trkpt lat="45.7938815" lon="13.6539681"><ele>188.0</ele><time>2026-03-28T16:08:55.053Z</time></trkpt><trkpt lat="45.793914" lon="13.6538308"><ele>188.0</ele><time>2026-03-28T16:08:56.058Z</time></trkpt><trkpt lat="45.7939561" lon="13.6536975"><ele>188.0</ele><time>2026-03-28T16:08:57.048Z</time></trkpt><trkpt lat="45.7940125" lon="13.6535666"><ele>188.0</ele><time>2026-03-28T16:08:58.052Z</time></trkpt><trkpt lat="45.7940643" lon="13.6534379"><ele>188.0</ele><time>2026-03-28T16:08:59.049Z</time></trkpt><trkpt lat="45.7941176" lon="13.6533192"><ele>188.0</ele><time>2026-03-28T16:09:00.053Z</time></trkpt><trkpt lat="45.7941731" lon="13.6532123"><ele>188.33333333333331</ele><time>2026-03-28T16:09:01.054Z</time></trkpt><trkpt lat="45.794231" lon="13.6531207"><ele>188.66666666666666</ele><time>2026-03-28T16:09:02.059Z</time></trkpt><trkpt lat="45.7942833" lon="13.6530382"><ele>189.0</ele><time>2026-03-28T16:09:03.052Z</time></trkpt><trkpt lat="45.7943273" lon="13.6529577"><ele>189.33333333333334</ele><time>2026-03-28T16:09:04.079Z</time></trkpt><trkpt lat="45.7943569" lon="13.6528375"><ele>189.66666666666669</ele><time>2026-03-28T16:09:05.056Z</time></trkpt><trkpt lat="45.7943721" lon="13.6526927"><ele>190.0</ele><time>2026-03-28T16:09:06.046Z</time></trkpt><trkpt lat="45.7943818" lon="13.6525577"><ele>188.66666666666669</ele><time>2026-03-28T16:09:07.042Z</time></trkpt><trkpt lat="45.7943897" lon="13.6524359"><ele>187.33333333333334</ele><time>2026-03-28T16:09:08.059Z</time></trkpt><trkpt lat="45.7943951" lon="13.6523151"><ele>186.0</ele><time>2026-03-28T16:09:09.056Z</time></trkpt><trkpt lat="45.7943905" lon="13.6521981"><ele>184.66666666666666</ele><time>2026-03-28T16:09:10.056Z</time></trkpt><trkpt lat="45.7943761" lon="13.6520868"><ele>183.33333333333331</ele><time>2026-03-28T16:09:11.058Z</time></trkpt><trkpt lat="45.7943547" lon="13.6519822"><ele>182.0</ele><time>2026-03-28T16:09:12.061Z</time></trkpt><trkpt lat="45.7943275" lon="13.6518882"><ele>182.0</ele><time>2026-03-28T16:09:13.07Z</time></trkpt><trkpt lat="45.7943091" lon="13.651717"><ele>182.0</ele><time>2026-03-28T16:09:15.047Z</time></trkpt><trkpt lat="45.7943184" lon="13.6516266"><ele>182.0</ele><time>2026-03-28T16:09:16.053Z</time></trkpt><trkpt lat="45.7943391" lon="13.6515256"><ele>182.0</ele><time>2026-03-28T16:09:17.049Z</time></trkpt><trkpt lat="45.7943568" lon="13.6514189"><ele>182.0</ele><time>2026-03-28T16:09:18.067Z</time></trkpt><trkpt lat="45.7943699" lon="13.6513045"><ele>182.0</ele><time>2026-03-28T16:09:19.056Z</time></trkpt><trkpt lat="45.79439" lon="13.6511786"><ele>179.5</ele><time>2026-03-28T16:09:20.047Z</time></trkpt><trkpt lat="45.794416" lon="13.6510506"><ele>177.0</ele><time>2026-03-28T16:09:21.047Z</time></trkpt><trkpt lat="45.7944468" lon="13.6509298"><ele>174.5</ele><time>2026-03-28T16:09:22.056Z</time></trkpt><trkpt lat="45.7944672" lon="13.6508167"><ele>172.0</ele><time>2026-03-28T16:09:23.049Z</time></trkpt><trkpt lat="45.7944729" lon="13.6507016"><ele>169.5</ele><time>2026-03-28T16:09:24.057Z</time></trkpt><trkpt lat="45.7944656" lon="13.6505872"><ele>167.0</ele><time>2026-03-28T16:09:25.056Z</time></trkpt><trkpt lat="45.7944423" lon="13.6504743"><ele>167.0</ele><time>2026-03-28T16:09:26.063Z</time></trkpt><trkpt lat="45.7944099" lon="13.6503626"><ele>167.0</ele><time>2026-03-28T16:09:27.05Z</time></trkpt><trkpt lat="45.7943753" lon="13.6502432"><ele>167.0</ele><time>2026-03-28T16:09:28.054Z</time></trkpt><trkpt lat="45.7943413" lon="13.6501275"><ele>167.0</ele><time>2026-03-28T16:09:29.058Z</time></trkpt><trkpt lat="45.7943137" lon="13.650033"><ele>167.0</ele><time>2026-03-28T16:09:30.049Z</time></trkpt><trkpt lat="45.7943025" lon="13.6498764"><ele>167.0</ele><time>2026-03-28T16:09:32.055Z</time></trkpt><trkpt lat="45.7943139" lon="13.649762"><ele>167.16666666666666</ele><time>2026-03-28T16:09:33.053Z</time></trkpt><trkpt lat="45.7943224" lon="13.6496359"><ele>167.33333333333331</ele><time>2026-03-28T16:09:34.051Z</time></trkpt><trkpt lat="45.7943239" lon="13.6495091"><ele>167.5</ele><time>2026-03-28T16:09:35.05Z</time></trkpt><trkpt lat="45.7943157" lon="13.6493899"><ele>167.66666666666666</ele><time>2026-03-28T16:09:36.054Z</time></trkpt><trkpt lat="45.794302" lon="13.6492656"><ele>167.83333333333334</ele><time>2026-03-28T16:09:37.057Z</time></trkpt><trkpt lat="45.7942751" lon="13.6491477"><ele>168.0</ele><time>2026-03-28T16:09:38.059Z</time></trkpt><trkpt lat="45.7942299" lon="13.6490028"><ele>168.0</ele><time>2026-03-28T16:09:39.059Z</time></trkpt><trkpt lat="45.7941845" lon="13.6488426"><ele>168.0</ele><time>2026-03-28T16:09:40.057Z</time></trkpt><trkpt lat="45.794133" lon="13.6486817"><ele>168.0</ele><time>2026-03-28T16:09:41.056Z</time></trkpt><trkpt lat="45.7940746" lon="13.6485396"><ele>168.0</ele><time>2026-03-28T16:09:42.053Z</time></trkpt><trkpt lat="45.7940338" lon="13.648401"><ele>168.0</ele><time>2026-03-28T16:09:43.053Z</time></trkpt><trkpt lat="45.7939983" lon="13.6482665"><ele>168.0</ele><time>2026-03-28T16:09:44.056Z</time></trkpt><trkpt lat="45.7939553" lon="13.6481171"><ele>168.0</ele><time>2026-03-28T16:09:45.055Z</time></trkpt><trkpt lat="45.7939035" lon="13.6479634"><ele>168.0</ele><time>2026-03-28T16:09:46.075Z</time></trkpt><trkpt lat="45.7938518" lon="13.6478183"><ele>168.0</ele><time>2026-03-28T16:09:47.06Z</time></trkpt><trkpt lat="45.7938046" lon="13.6476887"><ele>168.0</ele><time>2026-03-28T16:09:48.055Z</time></trkpt><trkpt lat="45.7937603" lon="13.6475703"><ele>168.0</ele><time>2026-03-28T16:09:49.043Z</time></trkpt><trkpt lat="45.7937211" lon="13.6474621"><ele>168.0</ele><time>2026-03-28T16:09:50.05Z</time></trkpt><trkpt lat="45.7936842" lon="13.647364"><ele>168.0</ele><time>2026-03-28T16:09:51.051Z</time></trkpt><trkpt lat="45.7936577" lon="13.6472682"><ele>168.0</ele><time>2026-03-28T16:09:52.051Z</time></trkpt><trkpt lat="45.7936524" lon="13.6471685"><ele>168.0</ele><time>2026-03-28T16:09:53.057Z</time></trkpt><trkpt lat="45.7936622" lon="13.6470618"><ele>168.4</ele><time>2026-03-28T16:09:54.062Z</time></trkpt><trkpt lat="45.79367" lon="13.6469534"><ele>168.8</ele><time>2026-03-28T16:09:55.046Z</time></trkpt><trkpt lat="45.7936724" lon="13.6468551"><ele>169.2</ele><time>2026-03-28T16:09:56.048Z</time></trkpt><trkpt lat="45.7936834" lon="13.6466907"><ele>169.6</ele><time>2026-03-28T16:09:58.052Z</time></trkpt><trkpt lat="45.7936719" lon="13.6465306"><ele>170.0</ele><time>2026-03-28T16:10:00.057Z</time></trkpt><trkpt lat="45.7936581" lon="13.6463712"><ele>170.0</ele><time>2026-03-28T16:10:02.077Z</time></trkpt><trkpt lat="45.7936529" lon="13.6462419"><ele>170.0</ele><time>2026-03-28T16:10:04.059Z</time></trkpt><trkpt lat="45.7936647" lon="13.6461135"><ele>170.0</ele><time>2026-03-28T16:10:07.056Z</time></trkpt><trkpt lat="45.7936827" lon="13.6459631"><ele>170.0</ele><time>2026-03-28T16:10:09.059Z</time></trkpt><trkpt lat="45.7937084" lon="13.6458662"><ele>170.0</ele><time>2026-03-28T16:10:10.054Z</time></trkpt><trkpt lat="45.7937431" lon="13.6457737"><ele>170.0</ele><time>2026-03-28T16:10:11.078Z</time></trkpt><trkpt lat="45.7937687" lon="13.645669"><ele>169.8</ele><time>2026-03-28T16:10:12.062Z</time></trkpt><trkpt lat="45.7937762" lon="13.6455499"><ele>169.6</ele><time>2026-03-28T16:10:13.061Z</time></trkpt><trkpt lat="45.7937617" lon="13.6454217"><ele>169.39999999999998</ele><time>2026-03-28T16:10:14.063Z</time></trkpt><trkpt lat="45.7937262" lon="13.6452897"><ele>169.2</ele><time>2026-03-28T16:10:15.051Z</time></trkpt><trkpt lat="45.7936704" lon="13.6451725"><ele>169.0</ele><time>2026-03-28T16:10:16.059Z</time></trkpt><trkpt lat="45.793597" lon="13.645061"><ele>169.0</ele><time>2026-03-28T16:10:17.052Z</time></trkpt><trkpt lat="45.7935277" lon="13.6449479"><ele>169.0</ele><time>2026-03-28T16:10:18.055Z</time></trkpt><trkpt lat="45.7934681" lon="13.6448374"><ele>169.0</ele><time>2026-03-28T16:10:19.055Z</time></trkpt><trkpt lat="45.7934097" lon="13.6447343"><ele>169.0</ele><time>2026-03-28T16:10:20.062Z</time></trkpt><trkpt lat="45.7933469" lon="13.64466"><ele>169.0</ele><time>2026-03-28T16:10:21.05Z</time></trkpt><trkpt lat="45.7932854" lon="13.6446032"><ele>169.0</ele><time>2026-03-28T16:10:22.054Z</time></trkpt><trkpt lat="45.7932263" lon="13.6445252"><ele>169.0</ele><time>2026-03-28T16:10:23.062Z</time></trkpt><trkpt lat="45.7931812" lon="13.6444284"><ele>169.0</ele><time>2026-03-28T16:10:24.064Z</time></trkpt><trkpt lat="45.7931388" lon="13.6443174"><ele>169.0</ele><time>2026-03-28T16:10:25.048Z</time></trkpt><trkpt lat="45.7930909" lon="13.6442083"><ele>169.0</ele><time>2026-03-28T16:10:26.07Z</time></trkpt><trkpt lat="45.7930408" lon="13.6440961"><ele>169.0</ele><time>2026-03-28T16:10:27.05Z</time></trkpt><trkpt lat="45.7929991" lon="13.6439865"><ele>168.39999999999998</ele><time>2026-03-28T16:10:28.063Z</time></trkpt><trkpt lat="45.792965" lon="13.6438728"><ele>167.8</ele><time>2026-03-28T16:10:29.056Z</time></trkpt><trkpt lat="45.7929368" lon="13.6437473"><ele>167.2</ele><time>2026-03-28T16:10:30.06Z</time></trkpt><trkpt lat="45.7929044" lon="13.6436037"><ele>166.60000000000002</ele><time>2026-03-28T16:10:31.052Z</time></trkpt><trkpt lat="45.7928554" lon="13.6434377"><ele>166.0</ele><time>2026-03-28T16:10:32.046Z</time></trkpt><trkpt lat="45.7928023" lon="13.6432812"><ele>166.0</ele><time>2026-03-28T16:10:33.05Z</time></trkpt><trkpt lat="45.7927585" lon="13.6431269"><ele>166.0</ele><time>2026-03-28T16:10:34.05Z</time></trkpt><trkpt lat="45.7927205" lon="13.642993"><ele>166.0</ele><time>2026-03-28T16:10:35.065Z</time></trkpt><trkpt lat="45.7926887" lon="13.6428725"><ele>166.0</ele><time>2026-03-28T16:10:36.047Z</time></trkpt><trkpt lat="45.7926635" lon="13.6427688"><ele>166.0</ele><time>2026-03-28T16:10:37.063Z</time></trkpt><trkpt lat="45.7926492" lon="13.6426723"><ele>167.0</ele><time>2026-03-28T16:10:38.055Z</time></trkpt><trkpt lat="45.7926433" lon="13.6425719"><ele>168.0</ele><time>2026-03-28T16:10:39.064Z</time></trkpt><trkpt lat="45.7926408" lon="13.6424478"><ele>169.0</ele><time>2026-03-28T16:10:40.052Z</time></trkpt><trkpt lat="45.7926238" lon="13.6423148"><ele>170.0</ele><time>2026-03-28T16:10:41.049Z</time></trkpt><trkpt lat="45.7926032" lon="13.6421859"><ele>171.0</ele><time>2026-03-28T16:10:42.059Z</time></trkpt><trkpt lat="45.7925795" lon="13.6420783"><ele>172.0</ele><time>2026-03-28T16:10:43.058Z</time></trkpt><trkpt lat="45.792575" lon="13.6419772"><ele>172.6</ele><time>2026-03-28T16:10:44.06Z</time></trkpt><trkpt lat="45.7925923" lon="13.6418781"><ele>173.2</ele><time>2026-03-28T16:10:45.06Z</time></trkpt><trkpt lat="45.7926193" lon="13.641793"><ele>173.8</ele><time>2026-03-28T16:10:46.07Z</time></trkpt><trkpt lat="45.7926982" lon="13.6416864"><ele>174.4</ele><time>2026-03-28T16:10:48.045Z</time></trkpt><trkpt lat="45.7927084" lon="13.6415527"><ele>175.0</ele><time>2026-03-28T16:10:50.047Z</time></trkpt><trkpt lat="45.7926463" lon="13.6413899"><ele>175.16666666666669</ele><time>2026-03-28T16:10:52.05Z</time></trkpt><trkpt lat="45.7925982" lon="13.6412934"><ele>175.33333333333334</ele><time>2026-03-28T16:10:53.048Z</time></trkpt><trkpt lat="45.7925517" lon="13.6411925"><ele>175.5</ele><time>2026-03-28T16:10:54.07Z</time></trkpt><trkpt lat="45.7925031" lon="13.6410866"><ele>175.66666666666666</ele><time>2026-03-28T16:10:55.049Z</time></trkpt><trkpt lat="45.7924539" lon="13.6410059"><ele>175.83333333333331</ele><time>2026-03-28T16:10:56.056Z</time></trkpt><trkpt lat="45.7923816" lon="13.640958"><ele>176.0</ele><time>2026-03-28T16:10:57.053Z</time></trkpt><trkpt lat="45.792308" lon="13.6409136"><ele>176.0</ele><time>2026-03-28T16:10:58.043Z</time></trkpt><trkpt lat="45.7922354" lon="13.6408506"><ele>176.0</ele><time>2026-03-28T16:10:59.055Z</time></trkpt><trkpt lat="45.7921808" lon="13.6407699"><ele>176.0</ele><time>2026-03-28T16:11:00.054Z</time></trkpt><trkpt lat="45.7921284" lon="13.6406806"><ele>176.0</ele><time>2026-03-28T16:11:01.067Z</time></trkpt><trkpt lat="45.7920735" lon="13.6405728"><ele>176.0</ele><time>2026-03-28T16:11:02.048Z</time></trkpt><trkpt lat="45.792007" lon="13.6404534"><ele>176.0</ele><time>2026-03-28T16:11:03.059Z</time></trkpt><trkpt lat="45.791945" lon="13.6403415"><ele>175.16666666666666</ele><time>2026-03-28T16:11:04.053Z</time></trkpt><trkpt lat="45.7918836" lon="13.6402372"><ele>174.33333333333331</ele><time>2026-03-28T16:11:05.051Z</time></trkpt><trkpt lat="45.7918291" lon="13.6401549"><ele>173.5</ele><time>2026-03-28T16:11:06.045Z</time></trkpt><trkpt lat="45.7917637" lon="13.6400594"><ele>172.66666666666666</ele><time>2026-03-28T16:11:08.053Z</time></trkpt><trkpt lat="45.791689" lon="13.6400515"><ele>171.83333333333334</ele><time>2026-03-28T16:11:10.071Z</time></trkpt><trkpt lat="45.7916226" lon="13.64009"><ele>171.0</ele><time>2026-03-28T16:11:11.043Z</time></trkpt><trkpt lat="45.7915492" lon="13.6401346"><ele>170.25</ele><time>2026-03-28T16:11:12.053Z</time></trkpt><trkpt lat="45.7914558" lon="13.6401807"><ele>169.5</ele><time>2026-03-28T16:11:13.048Z</time></trkpt><trkpt lat="45.7913558" lon="13.6402377"><ele>168.75</ele><time>2026-03-28T16:11:14.049Z</time></trkpt><trkpt lat="45.7912443" lon="13.6403071"><ele>168.0</ele><time>2026-03-28T16:11:15.044Z</time></trkpt><trkpt lat="45.7911305" lon="13.6403827"><ele>167.60000000000002</ele><time>2026-03-28T16:11:16.051Z</time></trkpt><trkpt lat="45.7910253" lon="13.6404527"><ele>167.20000000000002</ele><time>2026-03-28T16:11:17.048Z</time></trkpt><trkpt lat="45.790928" lon="13.6405209"><ele>166.8</ele><time>2026-03-28T16:11:18.05Z</time></trkpt><trkpt lat="45.7908403" lon="13.6405827"><ele>166.4</ele><time>2026-03-28T16:11:19.04Z</time></trkpt><trkpt lat="45.790756" lon="13.6406483"><ele>166.0</ele><time>2026-03-28T16:11:20.055Z</time></trkpt><trkpt lat="45.7906718" lon="13.6407117"><ele>166.0</ele><time>2026-03-28T16:11:21.05Z</time></trkpt><trkpt lat="45.7905943" lon="13.6407849"><ele>166.0</ele><time>2026-03-28T16:11:22.062Z</time></trkpt><trkpt lat="45.7905228" lon="13.640894"><ele>166.0</ele><time>2026-03-28T16:11:23.048Z</time></trkpt><trkpt lat="45.7904607" lon="13.6410185"><ele>166.0</ele><time>2026-03-28T16:11:24.052Z</time></trkpt><trkpt lat="45.7903946" lon="13.6411443"><ele>166.0</ele><time>2026-03-28T16:11:25.049Z</time></trkpt><trkpt lat="45.7903312" lon="13.6412514"><ele>167.4</ele><time>2026-03-28T16:11:26.051Z</time></trkpt><trkpt lat="45.7902747" lon="13.6413583"><ele>168.8</ele><time>2026-03-28T16:11:27.048Z</time></trkpt><trkpt lat="45.7902176" lon="13.6414775"><ele>170.20000000000002</ele><time>2026-03-28T16:11:28.05Z</time></trkpt><trkpt lat="45.7901705" lon="13.6415938"><ele>171.60000000000002</ele><time>2026-03-28T16:11:29.044Z</time></trkpt><trkpt lat="45.7901294" lon="13.6417012"><ele>173.0</ele><time>2026-03-28T16:11:30.061Z</time></trkpt><trkpt lat="45.7900637" lon="13.6418132"><ele>170.33333333333331</ele><time>2026-03-28T16:11:32.059Z</time></trkpt><trkpt lat="45.789973" lon="13.6418361"><ele>167.66666666666666</ele><time>2026-03-28T16:11:34.043Z</time></trkpt><trkpt lat="45.7899065" lon="13.6418406"><ele>165.0</ele><time>2026-03-28T16:11:35.049Z</time></trkpt><trkpt lat="45.7898304" lon="13.6418454"><ele>162.33333333333334</ele><time>2026-03-28T16:11:36.06Z</time></trkpt><trkpt lat="45.7897482" lon="13.6418601"><ele>159.66666666666669</ele><time>2026-03-28T16:11:37.054Z</time></trkpt><trkpt lat="45.789664" lon="13.6418794"><ele>157.0</ele><time>2026-03-28T16:11:38.06Z</time></trkpt><trkpt lat="45.789584" lon="13.6419066"><ele>156.99999999999997</ele><time>2026-03-28T16:11:39.058Z</time></trkpt><trkpt lat="45.7895144" lon="13.6419447"><ele>157.0</ele><time>2026-03-28T16:11:40.051Z</time></trkpt><trkpt lat="45.78945" lon="13.6419893"><ele>157.0</ele><time>2026-03-28T16:11:41.058Z</time></trkpt><trkpt lat="45.7893835" lon="13.6420194"><ele>157.0</ele><time>2026-03-28T16:11:42.053Z</time></trkpt><trkpt lat="45.7893189" lon="13.64201"><ele>157.0</ele><time>2026-03-28T16:11:43.055Z</time></trkpt><trkpt lat="45.7892535" lon="13.6419456"><ele>156.99999999999997</ele><time>2026-03-28T16:11:44.06Z</time></trkpt><trkpt lat="45.7892028" lon="13.6418741"><ele>157.0</ele><time>2026-03-28T16:11:45.051Z</time></trkpt><trkpt lat="45.7891348" lon="13.641728"><ele>154.66666666666669</ele><time>2026-03-28T16:11:47.07Z</time></trkpt><trkpt lat="45.7891005" lon="13.6416449"><ele>152.33333333333334</ele><time>2026-03-28T16:11:48.047Z</time></trkpt><trkpt lat="45.7890636" lon="13.6415652"><ele>150.0</ele><time>2026-03-28T16:11:49.047Z</time></trkpt><trkpt lat="45.7889916" lon="13.6414925"><ele>147.66666666666666</ele><time>2026-03-28T16:11:51.04Z</time></trkpt><trkpt lat="45.7889057" lon="13.6415214"><ele>145.33333333333331</ele><time>2026-03-28T16:11:55.047Z</time></trkpt><trkpt lat="45.7888648" lon="13.6415973"><ele>143.0</ele><time>2026-03-28T16:11:56.07Z</time></trkpt><trkpt lat="45.7888281" lon="13.6416978"><ele>143.0</ele><time>2026-03-28T16:11:57.044Z</time></trkpt><trkpt lat="45.7888047" lon="13.6418263"><ele>143.0</ele><time>2026-03-28T16:11:58.049Z</time></trkpt><trkpt lat="45.7887994" lon="13.6419511"><ele>143.0</ele><time>2026-03-28T16:11:59.045Z</time></trkpt><trkpt lat="45.7888049" lon="13.6420506"><ele>143.0</ele><time>2026-03-28T16:12:00.047Z</time></trkpt><trkpt lat="45.7888339" lon="13.6422055"><ele>143.0</ele><time>2026-03-28T16:12:02.058Z</time></trkpt><trkpt lat="45.7888497" lon="13.6423066"><ele>143.0</ele><time>2026-03-28T16:12:03.047Z</time></trkpt><trkpt lat="45.7888511" lon="13.6424201"><ele>143.6</ele><time>2026-03-28T16:12:04.064Z</time></trkpt><trkpt lat="45.7888288" lon="13.6425583"><ele>144.20000000000002</ele><time>2026-03-28T16:12:05.05Z</time></trkpt><trkpt lat="45.7887918" lon="13.6427097"><ele>144.8</ele><time>2026-03-28T16:12:06.053Z</time></trkpt><trkpt lat="45.7887404" lon="13.6428568"><ele>145.4</ele><time>2026-03-28T16:12:07.044Z</time></trkpt><trkpt lat="45.7886899" lon="13.6429975"><ele>146.0</ele><time>2026-03-28T16:12:08.053Z</time></trkpt><trkpt lat="45.7886255" lon="13.6431306"><ele>146.8</ele><time>2026-03-28T16:12:09.064Z</time></trkpt><trkpt lat="45.7885539" lon="13.6432456"><ele>147.6</ele><time>2026-03-28T16:12:10.058Z</time></trkpt><trkpt lat="45.7884822" lon="13.6433616"><ele>148.4</ele><time>2026-03-28T16:12:11.051Z</time></trkpt><trkpt lat="45.7884195" lon="13.6434815"><ele>149.2</ele><time>2026-03-28T16:12:12.054Z</time></trkpt><trkpt lat="45.7883842" lon="13.6436101"><ele>150.0</ele><time>2026-03-28T16:12:13.054Z</time></trkpt><trkpt lat="45.788354" lon="13.6437361"><ele>148.66666666666666</ele><time>2026-03-28T16:12:14.038Z</time></trkpt><trkpt lat="45.7883262" lon="13.6438264"><ele>147.33333333333334</ele><time>2026-03-28T16:12:15.049Z</time></trkpt><trkpt lat="45.78828" lon="13.6438937"><ele>146.0</ele><time>2026-03-28T16:12:16.058Z</time></trkpt><trkpt lat="45.7882064" lon="13.6439454"><ele>144.66666666666669</ele><time>2026-03-28T16:12:17.049Z</time></trkpt><trkpt lat="45.7881181" lon="13.6439917"><ele>143.33333333333334</ele><time>2026-03-28T16:12:18.074Z</time></trkpt><trkpt lat="45.7880053" lon="13.6440664"><ele>142.0</ele><time>2026-03-28T16:12:19.048Z</time></trkpt><trkpt lat="45.7878837" lon="13.6441767"><ele>142.0</ele><time>2026-03-28T16:12:20.051Z</time></trkpt><trkpt lat="45.7877578" lon="13.6442742"><ele>142.0</ele><time>2026-03-28T16:12:21.05Z</time></trkpt><trkpt lat="45.7876437" lon="13.6443698"><ele>142.0</ele><time>2026-03-28T16:12:22.059Z</time></trkpt><trkpt lat="45.7875277" lon="13.6444559"><ele>142.0</ele><time>2026-03-28T16:12:23.047Z</time></trkpt><trkpt lat="45.7874025" lon="13.6445257"><ele>141.0</ele><time>2026-03-28T16:12:24.08Z</time></trkpt><trkpt lat="45.78727" lon="13.6445823"><ele>140.0</ele><time>2026-03-28T16:12:25.054Z</time></trkpt><trkpt lat="45.7871359" lon="13.6446246"><ele>139.0</ele><time>2026-03-28T16:12:26.052Z</time></trkpt><trkpt lat="45.7870145" lon="13.6446436"><ele>138.0</ele><time>2026-03-28T16:12:27.051Z</time></trkpt><trkpt lat="45.7869029" lon="13.6446429"><ele>138.0</ele><time>2026-03-28T16:12:28.049Z</time></trkpt><trkpt lat="45.7867937" lon="13.6446366"><ele>138.0</ele><time>2026-03-28T16:12:29.054Z</time></trkpt><trkpt lat="45.7866814" lon="13.6446097"><ele>138.0</ele><time>2026-03-28T16:12:30.06Z</time></trkpt><trkpt lat="45.7865598" lon="13.6445563"><ele>138.0</ele><time>2026-03-28T16:12:31.061Z</time></trkpt><trkpt lat="45.786429" lon="13.6444765"><ele>138.33333333333334</ele><time>2026-03-28T16:12:32.058Z</time></trkpt><trkpt lat="45.7862787" lon="13.6443721"><ele>138.66666666666669</ele><time>2026-03-28T16:12:33.049Z</time></trkpt><trkpt lat="45.7861265" lon="13.6442599"><ele>139.0</ele><time>2026-03-28T16:12:34.048Z</time></trkpt><trkpt lat="45.7859775" lon="13.6441449"><ele>138.33333333333334</ele><time>2026-03-28T16:12:35.052Z</time></trkpt><trkpt lat="45.785841" lon="13.6440333"><ele>137.66666666666666</ele><time>2026-03-28T16:12:36.054Z</time></trkpt><trkpt lat="45.7857087" lon="13.6439166"><ele>137.0</ele><time>2026-03-28T16:12:37.052Z</time></trkpt><trkpt lat="45.7855984" lon="13.6437921"><ele>137.0</ele><time>2026-03-28T16:12:38.061Z</time></trkpt><trkpt lat="45.7854979" lon="13.6436771"><ele>137.0</ele><time>2026-03-28T16:12:39.052Z</time></trkpt><trkpt lat="45.7853852" lon="13.6435966"><ele>137.0</ele><time>2026-03-28T16:12:40.059Z</time></trkpt><trkpt lat="45.7852636" lon="13.6435474"><ele>137.0</ele><time>2026-03-28T16:12:41.051Z</time></trkpt><trkpt lat="45.7851495" lon="13.6435107"><ele>137.0</ele><time>2026-03-28T16:12:42.057Z</time></trkpt><trkpt lat="45.7850432" lon="13.6434699"><ele>137.0</ele><time>2026-03-28T16:12:43.065Z</time></trkpt><trkpt lat="45.7849532" lon="13.6434279"><ele>137.0</ele><time>2026-03-28T16:12:44.048Z</time></trkpt><trkpt lat="45.7848792" lon="13.6433843"><ele>137.0</ele><time>2026-03-28T16:12:45.053Z</time></trkpt><trkpt lat="45.78482" lon="13.6433248"><ele>137.0</ele><time>2026-03-28T16:12:46.053Z</time></trkpt><trkpt lat="45.7847643" lon="13.6432401"><ele>137.0</ele><time>2026-03-28T16:12:47.052Z</time></trkpt><trkpt lat="45.7847079" lon="13.6431278"><ele>137.0</ele><time>2026-03-28T16:12:48.05Z</time></trkpt><trkpt lat="45.7846482" lon="13.6429879"><ele>137.0</ele><time>2026-03-28T16:12:49.051Z</time></trkpt><trkpt lat="45.7845869" lon="13.6428277"><ele>137.0</ele><time>2026-03-28T16:12:50.05Z</time></trkpt><trkpt lat="45.7845202" lon="13.6426631"><ele>137.0</ele><time>2026-03-28T16:12:51.063Z</time></trkpt><trkpt lat="45.7844519" lon="13.6424869"><ele>137.0</ele><time>2026-03-28T16:12:52.055Z</time></trkpt><trkpt lat="45.7843823" lon="13.6423083"><ele>137.0</ele><time>2026-03-28T16:12:53.054Z</time></trkpt><trkpt lat="45.7843136" lon="13.6421353"><ele>137.0</ele><time>2026-03-28T16:12:54.048Z</time></trkpt><trkpt lat="45.7842485" lon="13.64197"><ele>137.0</ele><time>2026-03-28T16:12:55.056Z</time></trkpt><trkpt lat="45.7841828" lon="13.6417985"><ele>137.0</ele><time>2026-03-28T16:12:56.059Z</time></trkpt><trkpt lat="45.7841114" lon="13.6416322"><ele>137.0</ele><time>2026-03-28T16:12:57.057Z</time></trkpt><trkpt lat="45.7840338" lon="13.641463"><ele>137.0</ele><time>2026-03-28T16:12:58.059Z</time></trkpt><trkpt lat="45.7839574" lon="13.6412912"><ele>137.0</ele><time>2026-03-28T16:12:59.049Z</time></trkpt><trkpt lat="45.783894" lon="13.6411171"><ele>136.5</ele><time>2026-03-28T16:13:00.054Z</time></trkpt><trkpt lat="45.783835" lon="13.6409582"><ele>136.0</ele><time>2026-03-28T16:13:01.052Z</time></trkpt><trkpt lat="45.7837812" lon="13.6408127"><ele>135.5</ele><time>2026-03-28T16:13:02.07Z</time></trkpt><trkpt lat="45.7837289" lon="13.6406728"><ele>135.0</ele><time>2026-03-28T16:13:03.055Z</time></trkpt><trkpt lat="45.783672" lon="13.6405558"><ele>135.0</ele><time>2026-03-28T16:13:04.059Z</time></trkpt><trkpt lat="45.7836111" lon="13.6404642"><ele>135.0</ele><time>2026-03-28T16:13:05.054Z</time></trkpt><trkpt lat="45.7835393" lon="13.6403895"><ele>135.0</ele><time>2026-03-28T16:13:06.061Z</time></trkpt><trkpt lat="45.7834488" lon="13.6403148"><ele>135.0</ele><time>2026-03-28T16:13:07.057Z</time></trkpt><trkpt lat="45.7833412" lon="13.6402554"><ele>135.0</ele><time>2026-03-28T16:13:08.043Z</time></trkpt><trkpt lat="45.7832198" lon="13.6402033"><ele>135.75</ele><time>2026-03-28T16:13:09.061Z</time></trkpt><trkpt lat="45.7830928" lon="13.6401552"><ele>136.5</ele><time>2026-03-28T16:13:10.057Z</time></trkpt><trkpt lat="45.7829695" lon="13.6401035"><ele>137.25</ele><time>2026-03-28T16:13:11.05Z</time></trkpt><trkpt lat="45.7828544" lon="13.6400543"><ele>138.0</ele><time>2026-03-28T16:13:12.054Z</time></trkpt><trkpt lat="45.7827448" lon="13.6400114"><ele>137.0</ele><time>2026-03-28T16:13:13.064Z</time></trkpt><trkpt lat="45.7826305" lon="13.6399973"><ele>136.0</ele><time>2026-03-28T16:13:14.057Z</time></trkpt><trkpt lat="45.7825104" lon="13.6400071"><ele>135.0</ele><time>2026-03-28T16:13:15.054Z</time></trkpt><trkpt lat="45.7823889" lon="13.6400262"><ele>134.0</ele><time>2026-03-28T16:13:16.058Z</time></trkpt><trkpt lat="45.7822725" lon="13.6400352"><ele>134.0</ele><time>2026-03-28T16:13:17.051Z</time></trkpt><trkpt lat="45.7821573" lon="13.6400491"><ele>134.0</ele><time>2026-03-28T16:13:18.057Z</time></trkpt><trkpt lat="45.7820427" lon="13.6400848"><ele>134.0</ele><time>2026-03-28T16:13:19.057Z</time></trkpt><trkpt lat="45.7819338" lon="13.6401858"><ele>134.0</ele><time>2026-03-28T16:13:20.066Z</time></trkpt><trkpt lat="45.7818385" lon="13.6403165"><ele>132.0</ele><time>2026-03-28T16:13:21.051Z</time></trkpt><trkpt lat="45.7817483" lon="13.640433"><ele>130.0</ele><time>2026-03-28T16:13:22.066Z</time></trkpt><trkpt lat="45.7816477" lon="13.640523"><ele>128.0</ele><time>2026-03-28T16:13:23.055Z</time></trkpt><trkpt lat="45.7815341" lon="13.6405895"><ele>126.0</ele><time>2026-03-28T16:13:24.057Z</time></trkpt><trkpt lat="45.7814189" lon="13.6406218"><ele>126.0</ele><time>2026-03-28T16:13:25.061Z</time></trkpt><trkpt lat="45.7812872" lon="13.6405906"><ele>126.0</ele><time>2026-03-28T16:13:26.054Z</time></trkpt><trkpt lat="45.7811561" lon="13.6405088"><ele>126.0</ele><time>2026-03-28T16:13:27.067Z</time></trkpt><trkpt lat="45.781026" lon="13.6404043"><ele>126.0</ele><time>2026-03-28T16:13:28.057Z</time></trkpt><trkpt lat="45.7808925" lon="13.6402975"><ele>124.0</ele><time>2026-03-28T16:13:29.049Z</time></trkpt><trkpt lat="45.7807565" lon="13.6401952"><ele>122.0</ele><time>2026-03-28T16:13:30.059Z</time></trkpt><trkpt lat="45.7806299" lon="13.6401011"><ele>120.0</ele><time>2026-03-28T16:13:31.063Z</time></trkpt><trkpt lat="45.7805074" lon="13.6400149"><ele>118.0</ele><time>2026-03-28T16:13:32.058Z</time></trkpt><trkpt lat="45.7803828" lon="13.6399317"><ele>118.0</ele><time>2026-03-28T16:13:33.052Z</time></trkpt><trkpt lat="45.7802609" lon="13.6398487"><ele>118.0</ele><time>2026-03-28T16:13:34.066Z</time></trkpt><trkpt lat="45.7801428" lon="13.6397807"><ele>118.0</ele><time>2026-03-28T16:13:35.062Z</time></trkpt><trkpt lat="45.7800195" lon="13.6397445"><ele>118.0</ele><time>2026-03-28T16:13:36.064Z</time></trkpt><trkpt lat="45.7798809" lon="13.6397427"><ele>116.75</ele><time>2026-03-28T16:13:37.062Z</time></trkpt><trkpt lat="45.7797446" lon="13.6397525"><ele>115.5</ele><time>2026-03-28T16:13:38.049Z</time></trkpt><trkpt lat="45.7796112" lon="13.6397616"><ele>114.25</ele><time>2026-03-28T16:13:39.053Z</time></trkpt><trkpt lat="45.779468" lon="13.6397811"><ele>113.0</ele><time>2026-03-28T16:13:40.061Z</time></trkpt><trkpt lat="45.7793271" lon="13.6398167"><ele>112.25</ele><time>2026-03-28T16:13:41.056Z</time></trkpt><trkpt lat="45.7791947" lon="13.639858"><ele>111.5</ele><time>2026-03-28T16:13:42.051Z</time></trkpt><trkpt lat="45.779066" lon="13.6399184"><ele>110.75</ele><time>2026-03-28T16:13:43.049Z</time></trkpt><trkpt lat="45.778939" lon="13.6399992"><ele>110.0</ele><time>2026-03-28T16:13:44.058Z</time></trkpt><trkpt lat="45.7788111" lon="13.640092"><ele>110.0</ele><time>2026-03-28T16:13:45.055Z</time></trkpt><trkpt lat="45.7786879" lon="13.6401921"><ele>110.0</ele><time>2026-03-28T16:13:46.079Z</time></trkpt><trkpt lat="45.7785677" lon="13.6402904"><ele>110.0</ele><time>2026-03-28T16:13:47.05Z</time></trkpt><trkpt lat="45.7784503" lon="13.6403812"><ele>110.0</ele><time>2026-03-28T16:13:48.052Z</time></trkpt><trkpt lat="45.7783337" lon="13.6404563"><ele>108.5</ele><time>2026-03-28T16:13:49.054Z</time></trkpt><trkpt lat="45.77821" lon="13.6405042"><ele>107.0</ele><time>2026-03-28T16:13:50.049Z</time></trkpt><trkpt lat="45.7780862" lon="13.6405188"><ele>105.5</ele><time>2026-03-28T16:13:51.07Z</time></trkpt><trkpt lat="45.7779478" lon="13.6404902"><ele>104.0</ele><time>2026-03-28T16:13:52.052Z</time></trkpt><trkpt lat="45.7778028" lon="13.6404486"><ele>103.25</ele><time>2026-03-28T16:13:53.051Z</time></trkpt><trkpt lat="45.77767" lon="13.6404218"><ele>102.5</ele><time>2026-03-28T16:13:54.058Z</time></trkpt><trkpt lat="45.7775392" lon="13.6403921"><ele>101.75</ele><time>2026-03-28T16:13:55.061Z</time></trkpt><trkpt lat="45.7774073" lon="13.6403655"><ele>101.0</ele><time>2026-03-28T16:13:56.082Z</time></trkpt><trkpt lat="45.7772692" lon="13.6403268"><ele>101.25</ele><time>2026-03-28T16:13:57.055Z</time></trkpt><trkpt lat="45.7771351" lon="13.6402765"><ele>101.5</ele><time>2026-03-28T16:13:58.055Z</time></trkpt><trkpt lat="45.7770052" lon="13.6402355"><ele>101.75</ele><time>2026-03-28T16:13:59.055Z</time></trkpt><trkpt lat="45.7768811" lon="13.6401988"><ele>102.0</ele><time>2026-03-28T16:14:00.055Z</time></trkpt><trkpt lat="45.7767672" lon="13.6401615"><ele>101.19999999999999</ele><time>2026-03-28T16:14:01.054Z</time></trkpt><trkpt lat="45.7766541" lon="13.6401369"><ele>100.4</ele><time>2026-03-28T16:14:02.064Z</time></trkpt><trkpt lat="45.7765455" lon="13.6401165"><ele>99.6</ele><time>2026-03-28T16:14:03.048Z</time></trkpt><trkpt lat="45.7764399" lon="13.6401192"><ele>98.80000000000001</ele><time>2026-03-28T16:14:04.054Z</time></trkpt><trkpt lat="45.7763309" lon="13.6401633"><ele>98.0</ele><time>2026-03-28T16:14:05.073Z</time></trkpt><trkpt lat="45.776212" lon="13.6402178"><ele>98.0</ele><time>2026-03-28T16:14:06.053Z</time></trkpt><trkpt lat="45.7760914" lon="13.6402547"><ele>98.0</ele><time>2026-03-28T16:14:07.058Z</time></trkpt><trkpt lat="45.7759581" lon="13.6402685"><ele>98.0</ele><time>2026-03-28T16:14:08.054Z</time></trkpt><trkpt lat="45.7758268" lon="13.6402563"><ele>98.0</ele><time>2026-03-28T16:14:09.051Z</time></trkpt><trkpt lat="45.7757053" lon="13.6402342"><ele>97.5</ele><time>2026-03-28T16:14:10.075Z</time></trkpt><trkpt lat="45.7755923" lon="13.6402107"><ele>97.0</ele><time>2026-03-28T16:14:11.052Z</time></trkpt><trkpt lat="45.7754809" lon="13.6401641"><ele>96.5</ele><time>2026-03-28T16:14:12.069Z</time></trkpt><trkpt lat="45.775368" lon="13.6401019"><ele>96.0</ele><time>2026-03-28T16:14:13.056Z</time></trkpt><trkpt lat="45.7752704" lon="13.6400442"><ele>96.0</ele><time>2026-03-28T16:14:14.059Z</time></trkpt><trkpt lat="45.7751988" lon="13.6400255"><ele>96.0</ele><time>2026-03-28T16:14:15.063Z</time></trkpt><trkpt lat="45.7751322" lon="13.6400751"><ele>96.0</ele><time>2026-03-28T16:14:16.048Z</time></trkpt><trkpt lat="45.775058" lon="13.6401719"><ele>96.0</ele><time>2026-03-28T16:14:17.08Z</time></trkpt><trkpt lat="45.7749941" lon="13.6402876"><ele>96.0</ele><time>2026-03-28T16:14:18.049Z</time></trkpt><trkpt lat="45.7749202" lon="13.6404197"><ele>96.0</ele><time>2026-03-28T16:14:19.054Z</time></trkpt><trkpt lat="45.7748352" lon="13.6405555"><ele>96.0</ele><time>2026-03-28T16:14:20.058Z</time></trkpt><trkpt lat="45.7747448" lon="13.6406916"><ele>96.0</ele><time>2026-03-28T16:14:21.048Z</time></trkpt><trkpt lat="45.774657" lon="13.6408302"><ele>96.0</ele><time>2026-03-28T16:14:22.076Z</time></trkpt><trkpt lat="45.7745752" lon="13.6409657"><ele>96.0</ele><time>2026-03-28T16:14:23.056Z</time></trkpt><trkpt lat="45.7744957" lon="13.6410941"><ele>96.0</ele><time>2026-03-28T16:14:24.052Z</time></trkpt><trkpt lat="45.7744239" lon="13.6412141"><ele>96.0</ele><time>2026-03-28T16:14:25.051Z</time></trkpt><trkpt lat="45.7743599" lon="13.6413304"><ele>96.0</ele><time>2026-03-28T16:14:26.052Z</time></trkpt><trkpt lat="45.7742983" lon="13.6414435"><ele>96.0</ele><time>2026-03-28T16:14:27.05Z</time></trkpt><trkpt lat="45.7742364" lon="13.6415532"><ele>95.5</ele><time>2026-03-28T16:14:28.053Z</time></trkpt><trkpt lat="45.7741631" lon="13.64166"><ele>95.0</ele><time>2026-03-28T16:14:29.068Z</time></trkpt><trkpt lat="45.7740802" lon="13.6417748"><ele>94.5</ele><time>2026-03-28T16:14:30.057Z</time></trkpt><trkpt lat="45.7739898" lon="13.6419018"><ele>94.0</ele><time>2026-03-28T16:14:31.044Z</time></trkpt><trkpt lat="45.7738916" lon="13.6420349"><ele>94.0</ele><time>2026-03-28T16:14:32.057Z</time></trkpt><trkpt lat="45.7737872" lon="13.642157"><ele>94.0</ele><time>2026-03-28T16:14:33.045Z</time></trkpt><trkpt lat="45.7736957" lon="13.6422662"><ele>94.0</ele><time>2026-03-28T16:14:34.067Z</time></trkpt><trkpt lat="45.7736089" lon="13.6423576"><ele>94.0</ele><time>2026-03-28T16:14:35.05Z</time></trkpt><trkpt lat="45.7735412" lon="13.6424465"><ele>93.80000000000001</ele><time>2026-03-28T16:14:36.067Z</time></trkpt><trkpt lat="45.7734765" lon="13.6425163"><ele>93.60000000000001</ele><time>2026-03-28T16:14:37.056Z</time></trkpt><trkpt lat="45.773356" lon="13.6425385"><ele>93.4</ele><time>2026-03-28T16:14:39.048Z</time></trkpt><trkpt lat="45.7732866" lon="13.6424977"><ele>93.2</ele><time>2026-03-28T16:14:40.054Z</time></trkpt><trkpt lat="45.7732103" lon="13.6424352"><ele>93.0</ele><time>2026-03-28T16:14:41.048Z</time></trkpt><trkpt lat="45.7731178" lon="13.6423413"><ele>93.0</ele><time>2026-03-28T16:14:42.046Z</time></trkpt><trkpt lat="45.7730056" lon="13.642234"><ele>93.0</ele><time>2026-03-28T16:14:43.051Z</time></trkpt><trkpt lat="45.7728823" lon="13.6421118"><ele>93.0</ele><time>2026-03-28T16:14:44.051Z</time></trkpt><trkpt lat="45.7727588" lon="13.641986"><ele>93.0</ele><time>2026-03-28T16:14:45.061Z</time></trkpt><trkpt lat="45.7726441" lon="13.6418602"><ele>91.25</ele><time>2026-03-28T16:14:46.059Z</time></trkpt><trkpt lat="45.7725397" lon="13.6417503"><ele>89.5</ele><time>2026-03-28T16:14:47.053Z</time></trkpt><trkpt lat="45.7724392" lon="13.6416394"><ele>87.75</ele><time>2026-03-28T16:14:48.054Z</time></trkpt><trkpt lat="45.7723344" lon="13.6415187"><ele>86.0</ele><time>2026-03-28T16:14:49.06Z</time></trkpt><trkpt lat="45.7722334" lon="13.6413966"><ele>86.0</ele><time>2026-03-28T16:14:50.053Z</time></trkpt><trkpt lat="45.7721342" lon="13.6412623"><ele>86.0</ele><time>2026-03-28T16:14:51.053Z</time></trkpt><trkpt lat="45.7720325" lon="13.6411203"><ele>86.0</ele><time>2026-03-28T16:14:52.063Z</time></trkpt><trkpt lat="45.7719242" lon="13.6409758"><ele>86.0</ele><time>2026-03-28T16:14:53.052Z</time></trkpt><trkpt lat="45.7718146" lon="13.6408247"><ele>85.5</ele><time>2026-03-28T16:14:54.051Z</time></trkpt><trkpt lat="45.7717059" lon="13.6406665"><ele>85.0</ele><time>2026-03-28T16:14:55.055Z</time></trkpt><trkpt lat="45.7716036" lon="13.6405136"><ele>84.5</ele><time>2026-03-28T16:14:56.054Z</time></trkpt><trkpt lat="45.7715053" lon="13.6403719"><ele>84.0</ele><time>2026-03-28T16:14:57.077Z</time></trkpt><trkpt lat="45.7714106" lon="13.6402285"><ele>83.0</ele><time>2026-03-28T16:14:58.06Z</time></trkpt><trkpt lat="45.7713148" lon="13.6400861"><ele>82.0</ele><time>2026-03-28T16:14:59.056Z</time></trkpt><trkpt lat="45.7712161" lon="13.6399484"><ele>81.0</ele><time>2026-03-28T16:15:00.056Z</time></trkpt><trkpt lat="45.7711224" lon="13.6398154"><ele>80.0</ele><time>2026-03-28T16:15:01.052Z</time></trkpt><trkpt lat="45.771037" lon="13.6396901"><ele>79.6</ele><time>2026-03-28T16:15:02.066Z</time></trkpt><trkpt lat="45.7709563" lon="13.6395723"><ele>79.2</ele><time>2026-03-28T16:15:03.053Z</time></trkpt><trkpt lat="45.7708807" lon="13.6394616"><ele>78.8</ele><time>2026-03-28T16:15:04.05Z</time></trkpt><trkpt lat="45.7708058" lon="13.6393591"><ele>78.4</ele><time>2026-03-28T16:15:05.053Z</time></trkpt><trkpt lat="45.770735" lon="13.6392595"><ele>78.0</ele><time>2026-03-28T16:15:06.07Z</time></trkpt><trkpt lat="45.7706785" lon="13.6391717"><ele>78.0</ele><time>2026-03-28T16:15:07.067Z</time></trkpt><trkpt lat="45.7706363" lon="13.6390432"><ele>78.0</ele><time>2026-03-28T16:15:09.058Z</time></trkpt><trkpt lat="45.7706204" lon="13.6389353"><ele>78.0</ele><time>2026-03-28T16:15:12.059Z</time></trkpt><trkpt lat="45.7706188" lon="13.6388339"><ele>78.0</ele><time>2026-03-28T16:15:14.06Z</time></trkpt><trkpt lat="45.7706665" lon="13.6386838"><ele>78.0</ele><time>2026-03-28T16:15:16.056Z</time></trkpt><trkpt lat="45.7707023" lon="13.638605"><ele>78.0</ele><time>2026-03-28T16:15:17.061Z</time></trkpt><trkpt lat="45.7707357" lon="13.6385259"><ele>78.2</ele><time>2026-03-28T16:15:18.058Z</time></trkpt><trkpt lat="45.7707979" lon="13.6383663"><ele>78.4</ele><time>2026-03-28T16:15:20.064Z</time></trkpt><trkpt lat="45.7708433" lon="13.638298"><ele>78.60000000000001</ele><time>2026-03-28T16:15:21.059Z</time></trkpt><trkpt lat="45.7708915" lon="13.6382376"><ele>78.8</ele><time>2026-03-28T16:15:22.06Z</time></trkpt><trkpt lat="45.7709639" lon="13.6381394"><ele>79.0</ele><time>2026-03-28T16:15:24.059Z</time></trkpt><trkpt lat="45.771027" lon="13.6380313"><ele>78.33333333333333</ele><time>2026-03-28T16:15:26.052Z</time></trkpt><trkpt lat="45.7710937" lon="13.6379443"><ele>77.66666666666666</ele><time>2026-03-28T16:15:28.067Z</time></trkpt><trkpt lat="45.7711515" lon="13.637861"><ele>77.0</ele><time>2026-03-28T16:15:33.058Z</time></trkpt><trkpt lat="45.7711984" lon="13.6377996"><ele>76.33333333333333</ele><time>2026-03-28T16:15:36.067Z</time></trkpt><trkpt lat="45.7712459" lon="13.6377357"><ele>75.66666666666667</ele><time>2026-03-28T16:15:38.053Z</time></trkpt><trkpt lat="45.7713156" lon="13.6376463"><ele>75.0</ele><time>2026-03-28T16:15:40.056Z</time></trkpt><trkpt lat="45.771368" lon="13.6375499"><ele>75.0</ele><time>2026-03-28T16:15:42.051Z</time></trkpt><trkpt lat="45.7714245" lon="13.6374729"><ele>75.0</ele><time>2026-03-28T16:15:44.052Z</time></trkpt><trkpt lat="45.7714603" lon="13.6373973"><ele>75.0</ele><time>2026-03-28T16:15:49.059Z</time></trkpt><trkpt lat="45.7715191" lon="13.6373313"><ele>75.0</ele><time>2026-03-28T16:15:54.058Z</time></trkpt><trkpt lat="45.7715725" lon="13.6372809"><ele>75.0</ele><time>2026-03-28T16:15:59.065Z</time></trkpt><trkpt lat="45.7714964" lon="13.6372439"><ele>75.0</ele><time>2026-03-28T16:49:29.086Z</time></trkpt><trkpt lat="45.7714197" lon="13.6373461"><ele>75.0</ele><time>2026-03-28T16:49:31.05Z</time></trkpt><trkpt lat="45.7713781" lon="13.6374188"><ele>75.0</ele><time>2026-03-28T16:49:32.085Z</time></trkpt><trkpt lat="45.7713272" lon="13.6375069"><ele>75.0</ele><time>2026-03-28T16:49:33.06Z</time></trkpt><trkpt lat="45.7712703" lon="13.6376065"><ele>75.0</ele><time>2026-03-28T16:49:34.064Z</time></trkpt><trkpt lat="45.7712112" lon="13.6377058"><ele>75.0</ele><time>2026-03-28T16:49:35.065Z</time></trkpt><trkpt lat="45.7711465" lon="13.6378107"><ele>75.0</ele><time>2026-03-28T16:49:36.065Z</time></trkpt><trkpt lat="45.7710884" lon="13.6379076"><ele>74.83333333333333</ele><time>2026-03-28T16:49:37.063Z</time></trkpt><trkpt lat="45.7710364" lon="13.6379937"><ele>74.66666666666667</ele><time>2026-03-28T16:49:38.069Z</time></trkpt><trkpt lat="45.7709773" lon="13.6380769"><ele>74.5</ele><time>2026-03-28T16:49:39.065Z</time></trkpt><trkpt lat="45.770922" lon="13.6381547"><ele>74.33333333333334</ele><time>2026-03-28T16:49:40.066Z</time></trkpt><trkpt lat="45.7708736" lon="13.6382281"><ele>74.16666666666667</ele><time>2026-03-28T16:49:41.065Z</time></trkpt><trkpt lat="45.770818" lon="13.6382981"><ele>74.0</ele><time>2026-03-28T16:49:42.071Z</time></trkpt><trkpt lat="45.7707625" lon="13.6383682"><ele>74.83333333333334</ele><time>2026-03-28T16:49:43.061Z</time></trkpt><trkpt lat="45.7707051" lon="13.6384344"><ele>75.66666666666667</ele><time>2026-03-28T16:49:44.084Z</time></trkpt><trkpt lat="45.7706412" lon="13.6384829"><ele>76.5</ele><time>2026-03-28T16:49:45.072Z</time></trkpt><trkpt lat="45.7705699" lon="13.6385121"><ele>77.33333333333333</ele><time>2026-03-28T16:49:46.078Z</time></trkpt><trkpt lat="45.7704891" lon="13.6385273"><ele>78.16666666666666</ele><time>2026-03-28T16:49:47.069Z</time></trkpt><trkpt lat="45.7704075" lon="13.6385279"><ele>79.0</ele><time>2026-03-28T16:49:48.076Z</time></trkpt><trkpt lat="45.770331" lon="13.6385227"><ele>79.0</ele><time>2026-03-28T16:49:49.079Z</time></trkpt><trkpt lat="45.7702538" lon="13.6385443"><ele>79.0</ele><time>2026-03-28T16:49:50.076Z</time></trkpt><trkpt lat="45.7701946" lon="13.6386264"><ele>79.0</ele><time>2026-03-28T16:49:51.06Z</time></trkpt><trkpt lat="45.7701443" lon="13.6387494"><ele>79.0</ele><time>2026-03-28T16:49:52.07Z</time></trkpt><trkpt lat="45.7701254" lon="13.6388789"><ele>79.0</ele><time>2026-03-28T16:49:53.052Z</time></trkpt><trkpt lat="45.7701437" lon="13.6390264"><ele>79.2</ele><time>2026-03-28T16:49:54.059Z</time></trkpt><trkpt lat="45.770158" lon="13.6391602"><ele>79.4</ele><time>2026-03-28T16:49:55.065Z</time></trkpt><trkpt lat="45.7701376" lon="13.6392997"><ele>79.6</ele><time>2026-03-28T16:49:56.066Z</time></trkpt><trkpt lat="45.7700767" lon="13.6394386"><ele>79.8</ele><time>2026-03-28T16:49:57.065Z</time></trkpt><trkpt lat="45.7700014" lon="13.6395728"><ele>80.0</ele><time>2026-03-28T16:49:58.06Z</time></trkpt><trkpt lat="45.7699099" lon="13.6397054"><ele>80.25</ele><time>2026-03-28T16:49:59.061Z</time></trkpt><trkpt lat="45.7698118" lon="13.6398471"><ele>80.5</ele><time>2026-03-28T16:50:00.073Z</time></trkpt><trkpt lat="45.7697163" lon="13.6399899"><ele>80.75</ele><time>2026-03-28T16:50:01.064Z</time></trkpt><trkpt lat="45.769615" lon="13.6401387"><ele>81.0</ele><time>2026-03-28T16:50:02.062Z</time></trkpt><trkpt lat="45.7695062" lon="13.6402946"><ele>81.0</ele><time>2026-03-28T16:50:03.061Z</time></trkpt><trkpt lat="45.7693953" lon="13.6404641"><ele>81.0</ele><time>2026-03-28T16:50:04.088Z</time></trkpt><trkpt lat="45.769282" lon="13.640645"><ele>81.0</ele><time>2026-03-28T16:50:05.068Z</time></trkpt><trkpt lat="45.7691631" lon="13.6408278"><ele>82.0</ele><time>2026-03-28T16:50:06.064Z</time></trkpt><trkpt lat="45.7690467" lon="13.6410032"><ele>83.0</ele><time>2026-03-28T16:50:07.071Z</time></trkpt><trkpt lat="45.768934" lon="13.641175"><ele>84.0</ele><time>2026-03-28T16:50:08.063Z</time></trkpt><trkpt lat="45.7688224" lon="13.6413404"><ele>84.5</ele><time>2026-03-28T16:50:09.066Z</time></trkpt><trkpt lat="45.7687214" lon="13.6414952"><ele>85.0</ele><time>2026-03-28T16:50:10.066Z</time></trkpt><trkpt lat="45.768623" lon="13.6416422"><ele>85.5</ele><time>2026-03-28T16:50:11.058Z</time></trkpt><trkpt lat="45.7685258" lon="13.6417936"><ele>86.0</ele><time>2026-03-28T16:50:12.057Z</time></trkpt><trkpt lat="45.7684227" lon="13.6419497"><ele>87.33333333333334</ele><time>2026-03-28T16:50:13.051Z</time></trkpt><trkpt lat="45.7683168" lon="13.642105"><ele>88.66666666666667</ele><time>2026-03-28T16:50:14.058Z</time></trkpt><trkpt lat="45.7682117" lon="13.6422588"><ele>90.0</ele><time>2026-03-28T16:50:15.066Z</time></trkpt><trkpt lat="45.7681099" lon="13.6424131"><ele>90.0</ele><time>2026-03-28T16:50:16.066Z</time></trkpt><trkpt lat="45.7680053" lon="13.6425674"><ele>90.0</ele><time>2026-03-28T16:50:17.054Z</time></trkpt><trkpt lat="45.7678982" lon="13.6427225"><ele>90.0</ele><time>2026-03-28T16:50:18.055Z</time></trkpt><trkpt lat="45.7677983" lon="13.6428659"><ele>90.0</ele><time>2026-03-28T16:50:19.06Z</time></trkpt><trkpt lat="45.7677082" lon="13.6429994"><ele>89.5</ele><time>2026-03-28T16:50:20.064Z</time></trkpt><trkpt lat="45.7676201" lon="13.6431308"><ele>89.0</ele><time>2026-03-28T16:50:21.068Z</time></trkpt><trkpt lat="45.7675263" lon="13.6432589"><ele>88.5</ele><time>2026-03-28T16:50:22.074Z</time></trkpt><trkpt lat="45.7674338" lon="13.6434006"><ele>88.0</ele><time>2026-03-28T16:50:23.059Z</time></trkpt><trkpt lat="45.7673326" lon="13.643551"><ele>89.0</ele><time>2026-03-28T16:50:24.072Z</time></trkpt><trkpt lat="45.7672304" lon="13.643708"><ele>90.0</ele><time>2026-03-28T16:50:25.074Z</time></trkpt><trkpt lat="45.7671204" lon="13.6438716"><ele>91.0</ele><time>2026-03-28T16:50:26.054Z</time></trkpt><trkpt lat="45.7670101" lon="13.6440399"><ele>91.0</ele><time>2026-03-28T16:50:27.06Z</time></trkpt><trkpt lat="45.766901" lon="13.6442056"><ele>91.0</ele><time>2026-03-28T16:50:28.063Z</time></trkpt><trkpt lat="45.766792" lon="13.6443745"><ele>91.0</ele><time>2026-03-28T16:50:29.064Z</time></trkpt><trkpt lat="45.7666799" lon="13.6445458"><ele>91.66666666666666</ele><time>2026-03-28T16:50:30.064Z</time></trkpt><trkpt lat="45.7665705" lon="13.6447126"><ele>92.33333333333333</ele><time>2026-03-28T16:50:31.076Z</time></trkpt><trkpt lat="45.7664672" lon="13.6448743"><ele>93.0</ele><time>2026-03-28T16:50:32.069Z</time></trkpt><trkpt lat="45.7663574" lon="13.6450371"><ele>93.0</ele><time>2026-03-28T16:50:33.068Z</time></trkpt><trkpt lat="45.7662445" lon="13.645201"><ele>93.0</ele><time>2026-03-28T16:50:34.058Z</time></trkpt><trkpt lat="45.7661318" lon="13.6453637"><ele>93.0</ele><time>2026-03-28T16:50:35.056Z</time></trkpt><trkpt lat="45.7660261" lon="13.6455245"><ele>93.66666666666667</ele><time>2026-03-28T16:50:36.051Z</time></trkpt><trkpt lat="45.7659208" lon="13.6456838"><ele>94.33333333333334</ele><time>2026-03-28T16:50:37.053Z</time></trkpt><trkpt lat="45.7658153" lon="13.6458424"><ele>95.0</ele><time>2026-03-28T16:50:38.062Z</time></trkpt><trkpt lat="45.7657041" lon="13.6460042"><ele>96.33333333333334</ele><time>2026-03-28T16:50:39.048Z</time></trkpt><trkpt lat="45.7655988" lon="13.6461554"><ele>97.66666666666667</ele><time>2026-03-28T16:50:40.063Z</time></trkpt><trkpt lat="45.7654945" lon="13.6463133"><ele>99.0</ele><time>2026-03-28T16:50:41.062Z</time></trkpt><trkpt lat="45.7653889" lon="13.646482"><ele>99.0</ele><time>2026-03-28T16:50:42.063Z</time></trkpt><trkpt lat="45.765284" lon="13.6466496"><ele>99.0</ele><time>2026-03-28T16:50:43.061Z</time></trkpt><trkpt lat="45.7651773" lon="13.6468104"><ele>99.0</ele><time>2026-03-28T16:50:44.066Z</time></trkpt><trkpt lat="45.7650756" lon="13.6469683"><ele>99.66666666666666</ele><time>2026-03-28T16:50:45.074Z</time></trkpt><trkpt lat="45.7649718" lon="13.6471247"><ele>100.33333333333333</ele><time>2026-03-28T16:50:46.066Z</time></trkpt><trkpt lat="45.7648658" lon="13.6472831"><ele>101.0</ele><time>2026-03-28T16:50:47.068Z</time></trkpt><trkpt lat="45.764759" lon="13.6474421"><ele>101.0</ele><time>2026-03-28T16:50:48.074Z</time></trkpt><trkpt lat="45.7646529" lon="13.6475985"><ele>101.0</ele><time>2026-03-28T16:50:49.063Z</time></trkpt><trkpt lat="45.7645434" lon="13.6477516"><ele>101.0</ele><time>2026-03-28T16:50:50.061Z</time></trkpt><trkpt lat="45.7644313" lon="13.647908"><ele>101.66666666666666</ele><time>2026-03-28T16:50:51.081Z</time></trkpt><trkpt lat="45.7643208" lon="13.6480632"><ele>102.33333333333334</ele><time>2026-03-28T16:50:52.068Z</time></trkpt><trkpt lat="45.76421" lon="13.6482192"><ele>103.0</ele><time>2026-03-28T16:50:53.072Z</time></trkpt><trkpt lat="45.7640986" lon="13.648374"><ele>103.0</ele><time>2026-03-28T16:50:54.065Z</time></trkpt><trkpt lat="45.7639904" lon="13.6485279"><ele>103.0</ele><time>2026-03-28T16:50:55.067Z</time></trkpt><trkpt lat="45.763883" lon="13.6486863"><ele>103.0</ele><time>2026-03-28T16:50:56.061Z</time></trkpt><trkpt lat="45.763777" lon="13.6488484"><ele>103.66666666666667</ele><time>2026-03-28T16:50:57.059Z</time></trkpt><trkpt lat="45.7636687" lon="13.6490086"><ele>104.33333333333334</ele><time>2026-03-28T16:50:58.079Z</time></trkpt><trkpt lat="45.7635625" lon="13.6491744"><ele>105.0</ele><time>2026-03-28T16:50:59.064Z</time></trkpt><trkpt lat="45.7634559" lon="13.6493435"><ele>107.0</ele><time>2026-03-28T16:51:00.069Z</time></trkpt><trkpt lat="45.7633442" lon="13.6495137"><ele>109.0</ele><time>2026-03-28T16:51:01.06Z</time></trkpt><trkpt lat="45.7632329" lon="13.6496792"><ele>111.0</ele><time>2026-03-28T16:51:02.068Z</time></trkpt><trkpt lat="45.7631201" lon="13.6498415"><ele>111.0</ele><time>2026-03-28T16:51:03.056Z</time></trkpt><trkpt lat="45.7630101" lon="13.6500012"><ele>111.0</ele><time>2026-03-28T16:51:04.062Z</time></trkpt><trkpt lat="45.7629058" lon="13.6501565"><ele>111.0</ele><time>2026-03-28T16:51:05.053Z</time></trkpt><trkpt lat="45.7628088" lon="13.6503064"><ele>112.25</ele><time>2026-03-28T16:51:06.065Z</time></trkpt><trkpt lat="45.7627184" lon="13.6504486"><ele>113.5</ele><time>2026-03-28T16:51:07.061Z</time></trkpt><trkpt lat="45.7626321" lon="13.6505866"><ele>114.75</ele><time>2026-03-28T16:51:08.074Z</time></trkpt><trkpt lat="45.7625508" lon="13.6507207"><ele>116.0</ele><time>2026-03-28T16:51:09.059Z</time></trkpt><trkpt lat="45.7624717" lon="13.650851"><ele>116.0</ele><time>2026-03-28T16:51:10.059Z</time></trkpt><trkpt lat="45.7623969" lon="13.6509794"><ele>116.0</ele><time>2026-03-28T16:51:11.05Z</time></trkpt><trkpt lat="45.7623169" lon="13.6511092"><ele>116.0</ele><time>2026-03-28T16:51:12.052Z</time></trkpt><trkpt lat="45.7622361" lon="13.6512237"><ele>116.0</ele><time>2026-03-28T16:51:13.059Z</time></trkpt><trkpt lat="45.7621573" lon="13.6513307"><ele>115.99999999999999</ele><time>2026-03-28T16:51:14.055Z</time></trkpt><trkpt lat="45.7620891" lon="13.6514364"><ele>116.0</ele><time>2026-03-28T16:51:15.063Z</time></trkpt><trkpt lat="45.7620255" lon="13.6515359"><ele>116.0</ele><time>2026-03-28T16:51:16.045Z</time></trkpt><trkpt lat="45.7619647" lon="13.6516177"><ele>116.0</ele><time>2026-03-28T16:51:17.078Z</time></trkpt><trkpt lat="45.7619035" lon="13.6516951"><ele>115.99999999999999</ele><time>2026-03-28T16:51:18.065Z</time></trkpt><trkpt lat="45.7618405" lon="13.6517754"><ele>116.0</ele><time>2026-03-28T16:51:19.062Z</time></trkpt><trkpt lat="45.7617662" lon="13.6518843"><ele>116.0</ele><time>2026-03-28T16:51:20.056Z</time></trkpt><trkpt lat="45.7616754" lon="13.6520266"><ele>116.0</ele><time>2026-03-28T16:51:21.053Z</time></trkpt><trkpt lat="45.7615722" lon="13.6521849"><ele>116.0</ele><time>2026-03-28T16:51:22.049Z</time></trkpt><trkpt lat="45.7614697" lon="13.6523317"><ele>116.0</ele><time>2026-03-28T16:51:23.06Z</time></trkpt><trkpt lat="45.7613591" lon="13.6524886"><ele>116.0</ele><time>2026-03-28T16:51:24.059Z</time></trkpt><trkpt lat="45.761246" lon="13.6526564"><ele>116.0</ele><time>2026-03-28T16:51:25.049Z</time></trkpt><trkpt lat="45.7611326" lon="13.6528257"><ele>116.0</ele><time>2026-03-28T16:51:26.041Z</time></trkpt><trkpt lat="45.7610129" lon="13.6529971"><ele>116.0</ele><time>2026-03-28T16:51:27.045Z</time></trkpt><trkpt lat="45.7608899" lon="13.6531709"><ele>116.0</ele><time>2026-03-28T16:51:28.069Z</time></trkpt><trkpt lat="45.7607676" lon="13.6533425"><ele>116.0</ele><time>2026-03-28T16:51:29.05Z</time></trkpt><trkpt lat="45.7606527" lon="13.6535192"><ele>117.33333333333333</ele><time>2026-03-28T16:51:30.062Z</time></trkpt><trkpt lat="45.7605439" lon="13.6537051"><ele>118.66666666666666</ele><time>2026-03-28T16:51:31.07Z</time></trkpt><trkpt lat="45.7604433" lon="13.6539028"><ele>120.0</ele><time>2026-03-28T16:51:32.075Z</time></trkpt><trkpt lat="45.7603488" lon="13.6541068"><ele>120.0</ele><time>2026-03-28T16:51:33.065Z</time></trkpt><trkpt lat="45.7602631" lon="13.654312"><ele>120.0</ele><time>2026-03-28T16:51:34.075Z</time></trkpt><trkpt lat="45.7601773" lon="13.6545186"><ele>120.0</ele><time>2026-03-28T16:51:35.057Z</time></trkpt><trkpt lat="45.7601004" lon="13.6547269"><ele>118.33333333333334</ele><time>2026-03-28T16:51:36.058Z</time></trkpt><trkpt lat="45.7600222" lon="13.654938"><ele>116.66666666666667</ele><time>2026-03-28T16:51:37.065Z</time></trkpt><trkpt lat="45.759944" lon="13.6551505"><ele>115.0</ele><time>2026-03-28T16:51:38.058Z</time></trkpt><trkpt lat="45.7598642" lon="13.6553653"><ele>114.0</ele><time>2026-03-28T16:51:39.076Z</time></trkpt><trkpt lat="45.7597862" lon="13.6555828"><ele>113.0</ele><time>2026-03-28T16:51:40.063Z</time></trkpt><trkpt lat="45.759709" lon="13.6558014"><ele>112.0</ele><time>2026-03-28T16:51:41.063Z</time></trkpt><trkpt lat="45.7596317" lon="13.656023"><ele>114.33333333333334</ele><time>2026-03-28T16:51:42.06Z</time></trkpt><trkpt lat="45.7595499" lon="13.656245"><ele>116.66666666666666</ele><time>2026-03-28T16:51:43.063Z</time></trkpt><trkpt lat="45.7594708" lon="13.6564541"><ele>119.0</ele><time>2026-03-28T16:51:44.077Z</time></trkpt><trkpt lat="45.7593976" lon="13.6566567"><ele>119.0</ele><time>2026-03-28T16:51:45.061Z</time></trkpt><trkpt lat="45.7593246" lon="13.6568594"><ele>119.0</ele><time>2026-03-28T16:51:46.07Z</time></trkpt><trkpt lat="45.759241" lon="13.6570636"><ele>119.0</ele><time>2026-03-28T16:51:47.064Z</time></trkpt><trkpt lat="45.7591473" lon="13.6572595"><ele>119.0</ele><time>2026-03-28T16:51:48.069Z</time></trkpt><trkpt lat="45.7590397" lon="13.6574512"><ele>119.0</ele><time>2026-03-28T16:51:49.066Z</time></trkpt><trkpt lat="45.7589235" lon="13.6576269"><ele>119.0</ele><time>2026-03-28T16:51:50.073Z</time></trkpt><trkpt lat="45.7588012" lon="13.6577892"><ele>119.0</ele><time>2026-03-28T16:51:51.066Z</time></trkpt><trkpt lat="45.7586641" lon="13.6579341"><ele>119.0</ele><time>2026-03-28T16:51:52.074Z</time></trkpt><trkpt lat="45.7585221" lon="13.6580666"><ele>119.0</ele><time>2026-03-28T16:51:53.065Z</time></trkpt><trkpt lat="45.7583708" lon="13.6581891"><ele>119.0</ele><time>2026-03-28T16:51:54.069Z</time></trkpt><trkpt lat="45.7582216" lon="13.658302"><ele>119.0</ele><time>2026-03-28T16:51:55.069Z</time></trkpt><trkpt lat="45.758071" lon="13.6584165"><ele>119.0</ele><time>2026-03-28T16:51:56.071Z</time></trkpt><trkpt lat="45.7579217" lon="13.6585327"><ele>118.66666666666666</ele><time>2026-03-28T16:51:57.062Z</time></trkpt><trkpt lat="45.7577734" lon="13.6586515"><ele>118.33333333333334</ele><time>2026-03-28T16:51:58.087Z</time></trkpt><trkpt lat="45.7576259" lon="13.6587747"><ele>118.0</ele><time>2026-03-28T16:51:59.092Z</time></trkpt><trkpt lat="45.7574794" lon="13.6588882"><ele>118.66666666666667</ele><time>2026-03-28T16:52:00.069Z</time></trkpt><trkpt lat="45.757333" lon="13.6590073"><ele>119.33333333333334</ele><time>2026-03-28T16:52:01.075Z</time></trkpt><trkpt lat="45.7571914" lon="13.6591261"><ele>120.0</ele><time>2026-03-28T16:52:02.076Z</time></trkpt><trkpt lat="45.7570509" lon="13.6592435"><ele>120.0</ele><time>2026-03-28T16:52:03.069Z</time></trkpt><trkpt lat="45.7569037" lon="13.6593528"><ele>120.0</ele><time>2026-03-28T16:52:04.068Z</time></trkpt><trkpt lat="45.7567598" lon="13.6594606"><ele>120.0</ele><time>2026-03-28T16:52:05.067Z</time></trkpt><trkpt lat="45.7566108" lon="13.6595731"><ele>120.0</ele><time>2026-03-28T16:52:06.069Z</time></trkpt><trkpt lat="45.7564629" lon="13.6596879"><ele>120.0</ele><time>2026-03-28T16:52:07.08Z</time></trkpt><trkpt lat="45.7563181" lon="13.6598007"><ele>120.0</ele><time>2026-03-28T16:52:08.069Z</time></trkpt><trkpt lat="45.7561751" lon="13.6599158"><ele>120.66666666666666</ele><time>2026-03-28T16:52:09.071Z</time></trkpt><trkpt lat="45.756033" lon="13.6600381"><ele>121.33333333333333</ele><time>2026-03-28T16:52:10.069Z</time></trkpt><trkpt lat="45.7559038" lon="13.6601888"><ele>122.0</ele><time>2026-03-28T16:52:11.069Z</time></trkpt><trkpt lat="45.755785" lon="13.6603585"><ele>122.0</ele><time>2026-03-28T16:52:12.072Z</time></trkpt><trkpt lat="45.7556757" lon="13.6605364"><ele>122.0</ele><time>2026-03-28T16:52:13.06Z</time></trkpt><trkpt lat="45.7555646" lon="13.6607172"><ele>122.0</ele><time>2026-03-28T16:52:14.077Z</time></trkpt><trkpt lat="45.7554514" lon="13.6608978"><ele>122.0</ele><time>2026-03-28T16:52:15.049Z</time></trkpt><trkpt lat="45.755343" lon="13.6610824"><ele>122.0</ele><time>2026-03-28T16:52:16.066Z</time></trkpt><trkpt lat="45.7552332" lon="13.6612681"><ele>122.0</ele><time>2026-03-28T16:52:17.051Z</time></trkpt><trkpt lat="45.755122" lon="13.6614478"><ele>123.0</ele><time>2026-03-28T16:52:18.062Z</time></trkpt><trkpt lat="45.7550076" lon="13.6616248"><ele>124.0</ele><time>2026-03-28T16:52:19.06Z</time></trkpt><trkpt lat="45.7548962" lon="13.6617913"><ele>125.0</ele><time>2026-03-28T16:52:20.049Z</time></trkpt><trkpt lat="45.7547785" lon="13.661933"><ele>124.5</ele><time>2026-03-28T16:52:21.057Z</time></trkpt><trkpt lat="45.754658" lon="13.6620534"><ele>124.0</ele><time>2026-03-28T16:52:22.063Z</time></trkpt><trkpt lat="45.7545426" lon="13.662165"><ele>123.5</ele><time>2026-03-28T16:52:23.048Z</time></trkpt><trkpt lat="45.7544354" lon="13.662272"><ele>123.0</ele><time>2026-03-28T16:52:24.065Z</time></trkpt><trkpt lat="45.7543409" lon="13.6623756"><ele>124.4</ele><time>2026-03-28T16:52:25.055Z</time></trkpt><trkpt lat="45.7542602" lon="13.6624795"><ele>125.80000000000001</ele><time>2026-03-28T16:52:26.068Z</time></trkpt><trkpt lat="45.7541907" lon="13.6625742"><ele>127.2</ele><time>2026-03-28T16:52:27.069Z</time></trkpt><trkpt lat="45.75413" lon="13.662666"><ele>128.6</ele><time>2026-03-28T16:52:28.06Z</time></trkpt><trkpt lat="45.754085" lon="13.6627542"><ele>130.0</ele><time>2026-03-28T16:52:29.064Z</time></trkpt><trkpt lat="45.7540334" lon="13.6628694"><ele>130.0</ele><time>2026-03-28T16:52:31.058Z</time></trkpt><trkpt lat="45.7540199" lon="13.6630133"><ele>130.0</ele><time>2026-03-28T16:52:33.052Z</time></trkpt><trkpt lat="45.7540294" lon="13.6631117"><ele>130.0</ele><time>2026-03-28T16:52:34.055Z</time></trkpt><trkpt lat="45.7540416" lon="13.6632037"><ele>130.0</ele><time>2026-03-28T16:52:35.052Z</time></trkpt><trkpt lat="45.7540733" lon="13.6633717"><ele>130.0</ele><time>2026-03-28T16:52:37.064Z</time></trkpt><trkpt lat="45.7541083" lon="13.6635284"><ele>130.33333333333334</ele><time>2026-03-28T16:52:39.048Z</time></trkpt><trkpt lat="45.754129" lon="13.6636333"><ele>130.66666666666669</ele><time>2026-03-28T16:52:42.05Z</time></trkpt><trkpt lat="45.7541653" lon="13.6637478"><ele>131.0</ele><time>2026-03-28T16:53:52.074Z</time></trkpt><trkpt lat="45.7542055" lon="13.6638993"><ele>131.33333333333334</ele><time>2026-03-28T16:53:54.08Z</time></trkpt><trkpt lat="45.7542367" lon="13.6640004"><ele>131.66666666666666</ele><time>2026-03-28T16:53:55.076Z</time></trkpt><trkpt lat="45.754259" lon="13.6641236"><ele>132.0</ele><time>2026-03-28T16:53:56.069Z</time></trkpt><trkpt lat="45.7542778" lon="13.6642567"><ele>132.0</ele><time>2026-03-28T16:53:57.068Z</time></trkpt><trkpt lat="45.7543002" lon="13.6643925"><ele>132.0</ele><time>2026-03-28T16:53:58.071Z</time></trkpt><trkpt lat="45.7543164" lon="13.6645272"><ele>132.0</ele><time>2026-03-28T16:53:59.076Z</time></trkpt><trkpt lat="45.754325" lon="13.6646603"><ele>132.0</ele><time>2026-03-28T16:54:00.081Z</time></trkpt><trkpt lat="45.7543262" lon="13.6647918"><ele>132.0</ele><time>2026-03-28T16:54:01.074Z</time></trkpt><trkpt lat="45.7543225" lon="13.6649277"><ele>131.79999999999998</ele><time>2026-03-28T16:54:02.065Z</time></trkpt><trkpt lat="45.7543197" lon="13.6650667"><ele>131.6</ele><time>2026-03-28T16:54:03.063Z</time></trkpt><trkpt lat="45.7543143" lon="13.6652047"><ele>131.39999999999998</ele><time>2026-03-28T16:54:04.074Z</time></trkpt><trkpt lat="45.7543125" lon="13.6653461"><ele>131.2</ele><time>2026-03-28T16:54:05.072Z</time></trkpt><trkpt lat="45.7543053" lon="13.6655025"><ele>131.0</ele><time>2026-03-28T16:54:06.074Z</time></trkpt><trkpt lat="45.754288" lon="13.665666"><ele>131.0</ele><time>2026-03-28T16:54:07.088Z</time></trkpt><trkpt lat="45.754262" lon="13.6658402"><ele>131.0</ele><time>2026-03-28T16:54:08.087Z</time></trkpt><trkpt lat="45.7542306" lon="13.6660437"><ele>131.0</ele><time>2026-03-28T16:54:09.089Z</time></trkpt><trkpt lat="45.7541951" lon="13.6662712"><ele>131.0</ele><time>2026-03-28T16:54:10.086Z</time></trkpt><trkpt lat="45.7541481" lon="13.6665074"><ele>130.66666666666666</ele><time>2026-03-28T16:54:11.075Z</time></trkpt><trkpt lat="45.7540858" lon="13.666755"><ele>130.33333333333334</ele><time>2026-03-28T16:54:12.077Z</time></trkpt><trkpt lat="45.754017" lon="13.667003"><ele>130.0</ele><time>2026-03-28T16:54:13.082Z</time></trkpt><trkpt lat="45.7539605" lon="13.6672458"><ele>130.0</ele><time>2026-03-28T16:54:14.091Z</time></trkpt><trkpt lat="45.7539089" lon="13.6674729"><ele>130.0</ele><time>2026-03-28T16:54:15.08Z</time></trkpt><trkpt lat="45.7538608" lon="13.667688"><ele>130.0</ele><time>2026-03-28T16:54:16.087Z</time></trkpt><trkpt lat="45.7537983" lon="13.6678797"><ele>130.66666666666669</ele><time>2026-03-28T16:54:17.071Z</time></trkpt><trkpt lat="45.7536953" lon="13.6680407"><ele>131.33333333333334</ele><time>2026-03-28T16:54:18.072Z</time></trkpt><trkpt lat="45.7535692" lon="13.6681558"><ele>132.0</ele><time>2026-03-28T16:54:19.043Z</time></trkpt><trkpt lat="45.7534336" lon="13.6682864"><ele>134.33333333333334</ele><time>2026-03-28T16:54:20.06Z</time></trkpt><trkpt lat="45.7533242" lon="13.6684407"><ele>136.66666666666669</ele><time>2026-03-28T16:54:21.065Z</time></trkpt><trkpt lat="45.7532491" lon="13.6686333"><ele>139.0</ele><time>2026-03-28T16:54:22.066Z</time></trkpt><trkpt lat="45.7531909" lon="13.6688487"><ele>139.0</ele><time>2026-03-28T16:54:23.05Z</time></trkpt><trkpt lat="45.75312" lon="13.669069"><ele>139.0</ele><time>2026-03-28T16:54:24.061Z</time></trkpt><trkpt lat="45.7530519" lon="13.6692841"><ele>139.0</ele><time>2026-03-28T16:54:25.06Z</time></trkpt><trkpt lat="45.7529768" lon="13.6694654"><ele>138.75</ele><time>2026-03-28T16:54:26.071Z</time></trkpt><trkpt lat="45.7529003" lon="13.6695956"><ele>138.5</ele><time>2026-03-28T16:54:27.076Z</time></trkpt><trkpt lat="45.7528014" lon="13.6696687"><ele>138.25</ele><time>2026-03-28T16:54:28.061Z</time></trkpt><trkpt lat="45.7526759" lon="13.6697093"><ele>138.0</ele><time>2026-03-28T16:54:29.065Z</time></trkpt><trkpt lat="45.7525464" lon="13.6697019"><ele>138.0</ele><time>2026-03-28T16:54:30.052Z</time></trkpt><trkpt lat="45.7524091" lon="13.6696448"><ele>138.0</ele><time>2026-03-28T16:54:31.054Z</time></trkpt><trkpt lat="45.7522692" lon="13.6695527"><ele>138.0</ele><time>2026-03-28T16:54:32.059Z</time></trkpt><trkpt lat="45.7521306" lon="13.6694565"><ele>139.0</ele><time>2026-03-28T16:54:33.044Z</time></trkpt><trkpt lat="45.7519812" lon="13.6693612"><ele>140.0</ele><time>2026-03-28T16:54:34.069Z</time></trkpt><trkpt lat="45.7518336" lon="13.6692716"><ele>141.0</ele><time>2026-03-28T16:54:35.06Z</time></trkpt><trkpt lat="45.7516861" lon="13.6691978"><ele>141.0</ele><time>2026-03-28T16:54:36.056Z</time></trkpt><trkpt lat="45.75154" lon="13.6691376"><ele>141.0</ele><time>2026-03-28T16:54:37.065Z</time></trkpt><trkpt lat="45.7513699" lon="13.6691142"><ele>141.0</ele><time>2026-03-28T16:54:38.065Z</time></trkpt><trkpt lat="45.7512016" lon="13.6691191"><ele>141.0</ele><time>2026-03-28T16:54:39.071Z</time></trkpt><trkpt lat="45.7510438" lon="13.669142"><ele>141.0</ele><time>2026-03-28T16:54:40.065Z</time></trkpt><trkpt lat="45.7509046" lon="13.6692043"><ele>141.0</ele><time>2026-03-28T16:54:41.071Z</time></trkpt><trkpt lat="45.7507794" lon="13.6692986"><ele>141.0</ele><time>2026-03-28T16:54:42.065Z</time></trkpt><trkpt lat="45.7506819" lon="13.6694569"><ele>140.0</ele><time>2026-03-28T16:54:43.053Z</time></trkpt><trkpt lat="45.7505991" lon="13.6696473"><ele>139.0</ele><time>2026-03-28T16:54:44.05Z</time></trkpt><trkpt lat="45.7505369" lon="13.6698597"><ele>138.0</ele><time>2026-03-28T16:54:45.045Z</time></trkpt><trkpt lat="45.7504715" lon="13.6700784"><ele>138.33333333333334</ele><time>2026-03-28T16:54:46.063Z</time></trkpt><trkpt lat="45.750395" lon="13.6702983"><ele>138.66666666666669</ele><time>2026-03-28T16:54:47.056Z</time></trkpt><trkpt lat="45.7503168" lon="13.6705191"><ele>139.0</ele><time>2026-03-28T16:54:48.07Z</time></trkpt><trkpt lat="45.7502342" lon="13.670735"><ele>140.66666666666669</ele><time>2026-03-28T16:54:49.047Z</time></trkpt><trkpt lat="45.7501491" lon="13.6709521"><ele>142.33333333333334</ele><time>2026-03-28T16:54:50.06Z</time></trkpt><trkpt lat="45.750077" lon="13.6711771"><ele>144.0</ele><time>2026-03-28T16:54:51.05Z</time></trkpt><trkpt lat="45.7500147" lon="13.6714099"><ele>144.0</ele><time>2026-03-28T16:54:52.047Z</time></trkpt><trkpt lat="45.7499492" lon="13.671643"><ele>144.0</ele><time>2026-03-28T16:54:53.061Z</time></trkpt><trkpt lat="45.7498798" lon="13.671859"><ele>144.0</ele><time>2026-03-28T16:54:54.059Z</time></trkpt><trkpt lat="45.7498085" lon="13.6720531"><ele>144.0</ele><time>2026-03-28T16:54:55.067Z</time></trkpt><trkpt lat="45.7497264" lon="13.6722429"><ele>144.0</ele><time>2026-03-28T16:54:56.078Z</time></trkpt><trkpt lat="45.7496309" lon="13.6724272"><ele>144.0</ele><time>2026-03-28T16:54:57.058Z</time></trkpt><trkpt lat="45.7495206" lon="13.6726014"><ele>144.0</ele><time>2026-03-28T16:54:58.061Z</time></trkpt><trkpt lat="45.7493969" lon="13.6727724"><ele>144.0</ele><time>2026-03-28T16:54:59.06Z</time></trkpt><trkpt lat="45.7492659" lon="13.6729387"><ele>144.0</ele><time>2026-03-28T16:55:00.047Z</time></trkpt><trkpt lat="45.7491262" lon="13.6731045"><ele>144.33333333333334</ele><time>2026-03-28T16:55:01.053Z</time></trkpt><trkpt lat="45.7489873" lon="13.6732751"><ele>144.66666666666669</ele><time>2026-03-28T16:55:02.053Z</time></trkpt><trkpt lat="45.7488517" lon="13.6734485"><ele>145.0</ele><time>2026-03-28T16:55:03.065Z</time></trkpt><trkpt lat="45.7487167" lon="13.6736187"><ele>145.0</ele><time>2026-03-28T16:55:04.043Z</time></trkpt><trkpt lat="45.7485796" lon="13.6737922"><ele>145.0</ele><time>2026-03-28T16:55:05.045Z</time></trkpt><trkpt lat="45.7484482" lon="13.6739604"><ele>145.0</ele><time>2026-03-28T16:55:06.051Z</time></trkpt><trkpt lat="45.748317" lon="13.6741309"><ele>146.33333333333334</ele><time>2026-03-28T16:55:07.043Z</time></trkpt><trkpt lat="45.7481863" lon="13.6742976"><ele>147.66666666666666</ele><time>2026-03-28T16:55:08.058Z</time></trkpt><trkpt lat="45.748053" lon="13.6744619"><ele>149.0</ele><time>2026-03-28T16:55:09.052Z</time></trkpt><trkpt lat="45.7479199" lon="13.6746319"><ele>149.33333333333331</ele><time>2026-03-28T16:55:10.052Z</time></trkpt><trkpt lat="45.7477867" lon="13.6748023"><ele>149.66666666666666</ele><time>2026-03-28T16:55:11.055Z</time></trkpt><trkpt lat="45.7476587" lon="13.6749748"><ele>150.0</ele><time>2026-03-28T16:55:12.052Z</time></trkpt><trkpt lat="45.7475283" lon="13.6751484"><ele>150.33333333333334</ele><time>2026-03-28T16:55:13.057Z</time></trkpt><trkpt lat="45.7474003" lon="13.675317"><ele>150.66666666666669</ele><time>2026-03-28T16:55:14.078Z</time></trkpt><trkpt lat="45.7472724" lon="13.6754811"><ele>151.0</ele><time>2026-03-28T16:55:15.051Z</time></trkpt><trkpt lat="45.747145" lon="13.6756464"><ele>151.0</ele><time>2026-03-28T16:55:16.053Z</time></trkpt><trkpt lat="45.747016" lon="13.6758149"><ele>151.0</ele><time>2026-03-28T16:55:17.049Z</time></trkpt><trkpt lat="45.746883" lon="13.6759826"><ele>151.0</ele><time>2026-03-28T16:55:18.049Z</time></trkpt><trkpt lat="45.7467519" lon="13.676145"><ele>152.0</ele><time>2026-03-28T16:55:19.055Z</time></trkpt><trkpt lat="45.7466236" lon="13.6763119"><ele>153.0</ele><time>2026-03-28T16:55:20.046Z</time></trkpt><trkpt lat="45.7464964" lon="13.6764797"><ele>154.0</ele><time>2026-03-28T16:55:21.077Z</time></trkpt><trkpt lat="45.7463718" lon="13.6766431"><ele>154.0</ele><time>2026-03-28T16:55:22.059Z</time></trkpt><trkpt lat="45.7462482" lon="13.6768069"><ele>154.0</ele><time>2026-03-28T16:55:23.056Z</time></trkpt><trkpt lat="45.7461263" lon="13.6769741"><ele>154.0</ele><time>2026-03-28T16:55:24.045Z</time></trkpt><trkpt lat="45.7460041" lon="13.6771371"><ele>156.66666666666669</ele><time>2026-03-28T16:55:25.063Z</time></trkpt><trkpt lat="45.7458803" lon="13.6772978"><ele>159.33333333333334</ele><time>2026-03-28T16:55:26.052Z</time></trkpt><trkpt lat="45.745753" lon="13.6774607"><ele>162.0</ele><time>2026-03-28T16:55:27.058Z</time></trkpt><trkpt lat="45.7456232" lon="13.6776277"><ele>161.66666666666666</ele><time>2026-03-28T16:55:28.066Z</time></trkpt><trkpt lat="45.7454931" lon="13.6777954"><ele>161.33333333333331</ele><time>2026-03-28T16:55:29.062Z</time></trkpt><trkpt lat="45.7453665" lon="13.6779634"><ele>161.0</ele><time>2026-03-28T16:55:30.083Z</time></trkpt><trkpt lat="45.7452375" lon="13.6781293"><ele>163.0</ele><time>2026-03-28T16:55:31.046Z</time></trkpt><trkpt lat="45.7451089" lon="13.6782896"><ele>165.0</ele><time>2026-03-28T16:55:32.05Z</time></trkpt><trkpt lat="45.7449831" lon="13.6784521"><ele>167.0</ele><time>2026-03-28T16:55:33.04Z</time></trkpt><trkpt lat="45.7448603" lon="13.6786149"><ele>167.0</ele><time>2026-03-28T16:55:34.046Z</time></trkpt><trkpt lat="45.7447398" lon="13.6787718"><ele>167.0</ele><time>2026-03-28T16:55:35.045Z</time></trkpt><trkpt lat="45.7446171" lon="13.6789328"><ele>167.0</ele><time>2026-03-28T16:55:36.056Z</time></trkpt><trkpt lat="45.7444979" lon="13.6790918"><ele>169.0</ele><time>2026-03-28T16:55:37.053Z</time></trkpt><trkpt lat="45.7443794" lon="13.6792599"><ele>171.0</ele><time>2026-03-28T16:55:38.051Z</time></trkpt><trkpt lat="45.7442698" lon="13.6794376"><ele>173.0</ele><time>2026-03-28T16:55:39.063Z</time></trkpt><trkpt lat="45.74416" lon="13.6796122"><ele>173.0</ele><time>2026-03-28T16:55:40.051Z</time></trkpt><trkpt lat="45.7440546" lon="13.6797898"><ele>173.0</ele><time>2026-03-28T16:55:41.055Z</time></trkpt><trkpt lat="45.7439493" lon="13.6799715"><ele>173.0</ele><time>2026-03-28T16:55:42.07Z</time></trkpt><trkpt lat="45.7438427" lon="13.6801464"><ele>172.0</ele><time>2026-03-28T16:55:43.047Z</time></trkpt><trkpt lat="45.7437362" lon="13.6803232"><ele>171.0</ele><time>2026-03-28T16:55:44.077Z</time></trkpt><trkpt lat="45.7436291" lon="13.6805037"><ele>170.0</ele><time>2026-03-28T16:55:45.055Z</time></trkpt><trkpt lat="45.743521" lon="13.6806839"><ele>171.66666666666666</ele><time>2026-03-28T16:55:46.063Z</time></trkpt><trkpt lat="45.7434086" lon="13.6808705"><ele>173.33333333333334</ele><time>2026-03-28T16:55:47.045Z</time></trkpt><trkpt lat="45.743298" lon="13.681061"><ele>175.0</ele><time>2026-03-28T16:55:48.059Z</time></trkpt><trkpt lat="45.7431864" lon="13.6812511"><ele>175.0</ele><time>2026-03-28T16:55:49.05Z</time></trkpt><trkpt lat="45.7430726" lon="13.681441"><ele>175.0</ele><time>2026-03-28T16:55:50.047Z</time></trkpt><trkpt lat="45.7429625" lon="13.6816254"><ele>175.0</ele><time>2026-03-28T16:55:51.046Z</time></trkpt><trkpt lat="45.7428509" lon="13.6818079"><ele>175.66666666666669</ele><time>2026-03-28T16:55:52.055Z</time></trkpt><trkpt lat="45.7427371" lon="13.68199"><ele>176.33333333333334</ele><time>2026-03-28T16:55:53.043Z</time></trkpt><trkpt lat="45.7426232" lon="13.6821737"><ele>177.0</ele><time>2026-03-28T16:55:54.077Z</time></trkpt><trkpt lat="45.7425102" lon="13.682356"><ele>177.0</ele><time>2026-03-28T16:55:55.039Z</time></trkpt><trkpt lat="45.7423986" lon="13.6825365"><ele>177.0</ele><time>2026-03-28T16:55:56.045Z</time></trkpt><trkpt lat="45.7422883" lon="13.6827112"><ele>177.0</ele><time>2026-03-28T16:55:57.049Z</time></trkpt><trkpt lat="45.7421778" lon="13.6828852"><ele>176.25</ele><time>2026-03-28T16:55:58.043Z</time></trkpt><trkpt lat="45.7420738" lon="13.6830452"><ele>175.5</ele><time>2026-03-28T16:55:59.049Z</time></trkpt><trkpt lat="45.741976" lon="13.6831999"><ele>174.75</ele><time>2026-03-28T16:56:00.048Z</time></trkpt><trkpt lat="45.7418875" lon="13.6833474"><ele>174.0</ele><time>2026-03-28T16:56:01.06Z</time></trkpt><trkpt lat="45.7417986" lon="13.6834913"><ele>175.75</ele><time>2026-03-28T16:56:02.051Z</time></trkpt><trkpt lat="45.7417116" lon="13.6836436"><ele>177.5</ele><time>2026-03-28T16:56:03.046Z</time></trkpt><trkpt lat="45.7416238" lon="13.6837943"><ele>179.25</ele><time>2026-03-28T16:56:04.045Z</time></trkpt><trkpt lat="45.7415329" lon="13.6839542"><ele>181.0</ele><time>2026-03-28T16:56:05.048Z</time></trkpt><trkpt lat="45.7414378" lon="13.6841187"><ele>181.0</ele><time>2026-03-28T16:56:06.049Z</time></trkpt><trkpt lat="45.7413375" lon="13.6842841"><ele>181.0</ele><time>2026-03-28T16:56:07.04Z</time></trkpt><trkpt lat="45.7412332" lon="13.6844574"><ele>181.0</ele><time>2026-03-28T16:56:08.063Z</time></trkpt><trkpt lat="45.7411272" lon="13.6846361"><ele>181.66666666666669</ele><time>2026-03-28T16:56:09.044Z</time></trkpt><trkpt lat="45.741019" lon="13.6848132"><ele>182.33333333333334</ele><time>2026-03-28T16:56:10.043Z</time></trkpt><trkpt lat="45.7409055" lon="13.6849887"><ele>183.0</ele><time>2026-03-28T16:56:11.045Z</time></trkpt><trkpt lat="45.7407938" lon="13.6851555"><ele>183.0</ele><time>2026-03-28T16:56:12.046Z</time></trkpt><trkpt lat="45.7406859" lon="13.6853265"><ele>183.0</ele><time>2026-03-28T16:56:13.044Z</time></trkpt><trkpt lat="45.7405821" lon="13.6854939"><ele>183.0</ele><time>2026-03-28T16:56:14.045Z</time></trkpt><trkpt lat="45.7404778" lon="13.6856634"><ele>183.0</ele><time>2026-03-28T16:56:15.063Z</time></trkpt><trkpt lat="45.7403766" lon="13.6858413"><ele>183.0</ele><time>2026-03-28T16:56:16.044Z</time></trkpt><trkpt lat="45.7402692" lon="13.6860253"><ele>183.0</ele><time>2026-03-28T16:56:17.051Z</time></trkpt><trkpt lat="45.740157" lon="13.6862079"><ele>184.33333333333334</ele><time>2026-03-28T16:56:18.052Z</time></trkpt><trkpt lat="45.7400436" lon="13.6863908"><ele>185.66666666666669</ele><time>2026-03-28T16:56:19.052Z</time></trkpt><trkpt lat="45.7399281" lon="13.6865674"><ele>187.0</ele><time>2026-03-28T16:56:20.047Z</time></trkpt><trkpt lat="45.739816" lon="13.6867442"><ele>187.0</ele><time>2026-03-28T16:56:21.045Z</time></trkpt><trkpt lat="45.7397033" lon="13.6869223"><ele>187.0</ele><time>2026-03-28T16:56:22.042Z</time></trkpt><trkpt lat="45.7395903" lon="13.6871036"><ele>187.0</ele><time>2026-03-28T16:56:23.046Z</time></trkpt><trkpt lat="45.7394761" lon="13.6872835"><ele>186.66666666666669</ele><time>2026-03-28T16:56:24.054Z</time></trkpt><trkpt lat="45.7393616" lon="13.6874662"><ele>186.33333333333334</ele><time>2026-03-28T16:56:25.048Z</time></trkpt><trkpt lat="45.7392475" lon="13.6876478"><ele>186.0</ele><time>2026-03-28T16:56:26.049Z</time></trkpt><trkpt lat="45.7391348" lon="13.687828"><ele>186.0</ele><time>2026-03-28T16:56:27.045Z</time></trkpt><trkpt lat="45.7390309" lon="13.6879939"><ele>186.0</ele><time>2026-03-28T16:56:28.058Z</time></trkpt><trkpt lat="45.7389321" lon="13.6881562"><ele>186.0</ele><time>2026-03-28T16:56:29.044Z</time></trkpt><trkpt lat="45.738841" lon="13.6883095"><ele>186.0</ele><time>2026-03-28T16:56:30.05Z</time></trkpt><trkpt lat="45.7387523" lon="13.6884627"><ele>185.75</ele><time>2026-03-28T16:56:31.045Z</time></trkpt><trkpt lat="45.7386624" lon="13.6886129"><ele>185.5</ele><time>2026-03-28T16:56:32.047Z</time></trkpt><trkpt lat="45.7385723" lon="13.6887751"><ele>185.25</ele><time>2026-03-28T16:56:33.051Z</time></trkpt><trkpt lat="45.7384736" lon="13.6889394"><ele>185.0</ele><time>2026-03-28T16:56:34.052Z</time></trkpt><trkpt lat="45.7383702" lon="13.689098"><ele>187.33333333333331</ele><time>2026-03-28T16:56:35.047Z</time></trkpt><trkpt lat="45.7382566" lon="13.6892611"><ele>189.66666666666666</ele><time>2026-03-28T16:56:36.054Z</time></trkpt><trkpt lat="45.7381474" lon="13.6894308"><ele>192.0</ele><time>2026-03-28T16:56:37.05Z</time></trkpt><trkpt lat="45.7380397" lon="13.6896056"><ele>192.0</ele><time>2026-03-28T16:56:38.074Z</time></trkpt><trkpt lat="45.737934" lon="13.6897797"><ele>192.0</ele><time>2026-03-28T16:56:39.047Z</time></trkpt><trkpt lat="45.7378343" lon="13.6899466"><ele>192.0</ele><time>2026-03-28T16:56:40.064Z</time></trkpt><trkpt lat="45.7377353" lon="13.690107"><ele>192.75</ele><time>2026-03-28T16:56:41.05Z</time></trkpt><trkpt lat="45.7376394" lon="13.6902624"><ele>193.5</ele><time>2026-03-28T16:56:42.057Z</time></trkpt><trkpt lat="45.7375411" lon="13.6904181"><ele>194.25</ele><time>2026-03-28T16:56:43.063Z</time></trkpt><trkpt lat="45.7374454" lon="13.6905787"><ele>195.0</ele><time>2026-03-28T16:56:44.07Z</time></trkpt><trkpt lat="45.7373508" lon="13.6907457"><ele>195.0</ele><time>2026-03-28T16:56:45.083Z</time></trkpt><trkpt lat="45.7372583" lon="13.6909212"><ele>195.0</ele><time>2026-03-28T16:56:46.067Z</time></trkpt><trkpt lat="45.7371593" lon="13.6911065"><ele>195.0</ele><time>2026-03-28T16:56:47.063Z</time></trkpt><trkpt lat="45.7370588" lon="13.6913"><ele>194.0</ele><time>2026-03-28T16:56:48.065Z</time></trkpt><trkpt lat="45.7369603" lon="13.6914982"><ele>193.0</ele><time>2026-03-28T16:56:49.063Z</time></trkpt><trkpt lat="45.736864" lon="13.6917024"><ele>192.0</ele><time>2026-03-28T16:56:50.076Z</time></trkpt><trkpt lat="45.73676" lon="13.6919077"><ele>194.0</ele><time>2026-03-28T16:56:51.061Z</time></trkpt><trkpt lat="45.736666" lon="13.6921092"><ele>196.0</ele><time>2026-03-28T16:56:52.061Z</time></trkpt><trkpt lat="45.7365724" lon="13.6923153"><ele>198.0</ele><time>2026-03-28T16:56:53.063Z</time></trkpt><trkpt lat="45.7364732" lon="13.6925194"><ele>198.0</ele><time>2026-03-28T16:56:54.063Z</time></trkpt><trkpt lat="45.7363705" lon="13.692723"><ele>198.0</ele><time>2026-03-28T16:56:55.071Z</time></trkpt><trkpt lat="45.7362647" lon="13.6929271"><ele>198.0</ele><time>2026-03-28T16:56:56.075Z</time></trkpt><trkpt lat="45.7361538" lon="13.6931298"><ele>199.0</ele><time>2026-03-28T16:56:57.069Z</time></trkpt><trkpt lat="45.7360479" lon="13.6933269"><ele>200.0</ele><time>2026-03-28T16:56:58.084Z</time></trkpt><trkpt lat="45.7359463" lon="13.6935265"><ele>201.0</ele><time>2026-03-28T16:56:59.072Z</time></trkpt><trkpt lat="45.7358394" lon="13.6937274"><ele>201.0</ele><time>2026-03-28T16:57:00.061Z</time></trkpt><trkpt lat="45.7357391" lon="13.6939368"><ele>201.0</ele><time>2026-03-28T16:57:01.057Z</time></trkpt><trkpt lat="45.735637" lon="13.6941438"><ele>201.0</ele><time>2026-03-28T16:57:02.049Z</time></trkpt><trkpt lat="45.7355348" lon="13.694343"><ele>200.33333333333331</ele><time>2026-03-28T16:57:03.08Z</time></trkpt><trkpt lat="45.7354304" lon="13.6945392"><ele>199.66666666666666</ele><time>2026-03-28T16:57:04.047Z</time></trkpt><trkpt lat="45.7353273" lon="13.6947325"><ele>199.0</ele><time>2026-03-28T16:57:05.066Z</time></trkpt><trkpt lat="45.7352216" lon="13.6949203"><ele>200.33333333333331</ele><time>2026-03-28T16:57:06.056Z</time></trkpt><trkpt lat="45.7351168" lon="13.6951164"><ele>201.66666666666669</ele><time>2026-03-28T16:57:07.061Z</time></trkpt><trkpt lat="45.7350067" lon="13.6953176"><ele>203.0</ele><time>2026-03-28T16:57:08.058Z</time></trkpt><trkpt lat="45.7348968" lon="13.6955202"><ele>203.0</ele><time>2026-03-28T16:57:09.049Z</time></trkpt><trkpt lat="45.7347877" lon="13.6957185"><ele>203.0</ele><time>2026-03-28T16:57:10.09Z</time></trkpt><trkpt lat="45.7346824" lon="13.695915"><ele>203.0</ele><time>2026-03-28T16:57:11.061Z</time></trkpt><trkpt lat="45.7345753" lon="13.6961145"><ele>202.66666666666669</ele><time>2026-03-28T16:57:12.062Z</time></trkpt><trkpt lat="45.7344712" lon="13.6963147"><ele>202.33333333333331</ele><time>2026-03-28T16:57:13.073Z</time></trkpt><trkpt lat="45.73437" lon="13.6965119"><ele>202.0</ele><time>2026-03-28T16:57:14.05Z</time></trkpt><trkpt lat="45.7342687" lon="13.6967104"><ele>203.0</ele><time>2026-03-28T16:57:15.084Z</time></trkpt><trkpt lat="45.7341602" lon="13.6969058"><ele>204.0</ele><time>2026-03-28T16:57:16.059Z</time></trkpt><trkpt lat="45.734045" lon="13.6970972"><ele>205.0</ele><time>2026-03-28T16:57:17.063Z</time></trkpt><trkpt lat="45.7339327" lon="13.6972918"><ele>205.0</ele><time>2026-03-28T16:57:18.054Z</time></trkpt><trkpt lat="45.7338285" lon="13.697484"><ele>205.0</ele><time>2026-03-28T16:57:19.044Z</time></trkpt><trkpt lat="45.7337239" lon="13.6976767"><ele>205.0</ele><time>2026-03-28T16:57:20.063Z</time></trkpt><trkpt lat="45.7336269" lon="13.6978709"><ele>206.66666666666666</ele><time>2026-03-28T16:57:21.059Z</time></trkpt><trkpt lat="45.7335267" lon="13.6980581"><ele>208.33333333333331</ele><time>2026-03-28T16:57:22.091Z</time></trkpt><trkpt lat="45.7334287" lon="13.6982436"><ele>210.0</ele><time>2026-03-28T16:57:23.066Z</time></trkpt><trkpt lat="45.7333343" lon="13.6984317"><ele>210.0</ele><time>2026-03-28T16:57:24.055Z</time></trkpt><trkpt lat="45.7332452" lon="13.6986084"><ele>210.0</ele><time>2026-03-28T16:57:25.047Z</time></trkpt><trkpt lat="45.7331603" lon="13.6987833"><ele>210.0</ele><time>2026-03-28T16:57:26.045Z</time></trkpt><trkpt lat="45.733071" lon="13.698958"><ele>210.0</ele><time>2026-03-28T16:57:27.045Z</time></trkpt><trkpt lat="45.7329722" lon="13.699149"><ele>210.0</ele><time>2026-03-28T16:57:28.049Z</time></trkpt><trkpt lat="45.7328724" lon="13.6993406"><ele>210.0</ele><time>2026-03-28T16:57:29.057Z</time></trkpt><trkpt lat="45.7327699" lon="13.6995374"><ele>210.0</ele><time>2026-03-28T16:57:30.077Z</time></trkpt><trkpt lat="45.7326608" lon="13.6997382"><ele>210.0</ele><time>2026-03-28T16:57:31.058Z</time></trkpt><trkpt lat="45.7325482" lon="13.6999411"><ele>210.0</ele><time>2026-03-28T16:57:32.065Z</time></trkpt><trkpt lat="45.7324341" lon="13.7001445"><ele>210.0</ele><time>2026-03-28T16:57:33.069Z</time></trkpt><trkpt lat="45.7323254" lon="13.7003503"><ele>210.0</ele><time>2026-03-28T16:57:34.064Z</time></trkpt><trkpt lat="45.7322207" lon="13.7005633"><ele>210.0</ele><time>2026-03-28T16:57:35.055Z</time></trkpt><trkpt lat="45.7321157" lon="13.7007727"><ele>210.0</ele><time>2026-03-28T16:57:36.058Z</time></trkpt><trkpt lat="45.7320055" lon="13.700979"><ele>210.0</ele><time>2026-03-28T16:57:37.057Z</time></trkpt><trkpt lat="45.7318942" lon="13.7011819"><ele>210.0</ele><time>2026-03-28T16:57:38.072Z</time></trkpt><trkpt lat="45.7317818" lon="13.7013794"><ele>210.66666666666669</ele><time>2026-03-28T16:57:39.054Z</time></trkpt><trkpt lat="45.7316681" lon="13.7015773"><ele>211.33333333333334</ele><time>2026-03-28T16:57:40.087Z</time></trkpt><trkpt lat="45.7315569" lon="13.7017749"><ele>212.0</ele><time>2026-03-28T16:57:41.061Z</time></trkpt><trkpt lat="45.7314482" lon="13.7019733"><ele>212.0</ele><time>2026-03-28T16:57:42.064Z</time></trkpt><trkpt lat="45.7313376" lon="13.7021742"><ele>212.0</ele><time>2026-03-28T16:57:43.058Z</time></trkpt><trkpt lat="45.7312304" lon="13.7023757"><ele>212.0</ele><time>2026-03-28T16:57:44.06Z</time></trkpt><trkpt lat="45.7311214" lon="13.7025772"><ele>212.0</ele><time>2026-03-28T16:57:45.059Z</time></trkpt><trkpt lat="45.7310157" lon="13.7027743"><ele>212.0</ele><time>2026-03-28T16:57:46.059Z</time></trkpt><trkpt lat="45.73091" lon="13.7029699"><ele>212.0</ele><time>2026-03-28T16:57:47.056Z</time></trkpt><trkpt lat="45.7308044" lon="13.7031747"><ele>212.0</ele><time>2026-03-28T16:57:48.06Z</time></trkpt><trkpt lat="45.7306962" lon="13.7033729"><ele>212.0</ele><time>2026-03-28T16:57:49.061Z</time></trkpt><trkpt lat="45.7305887" lon="13.7035715"><ele>212.0</ele><time>2026-03-28T16:57:50.062Z</time></trkpt><trkpt lat="45.7304839" lon="13.7037701"><ele>212.0</ele><time>2026-03-28T16:57:51.067Z</time></trkpt><trkpt lat="45.7303777" lon="13.7039615"><ele>212.0</ele><time>2026-03-28T16:57:52.063Z</time></trkpt><trkpt lat="45.73027" lon="13.7041569"><ele>212.0</ele><time>2026-03-28T16:57:53.077Z</time></trkpt><trkpt lat="45.7301659" lon="13.7043503"><ele>213.33333333333334</ele><time>2026-03-28T16:57:54.059Z</time></trkpt><trkpt lat="45.7300647" lon="13.7045425"><ele>214.66666666666669</ele><time>2026-03-28T16:57:55.064Z</time></trkpt><trkpt lat="45.7299615" lon="13.7047336"><ele>216.0</ele><time>2026-03-28T16:57:56.063Z</time></trkpt><trkpt lat="45.7298581" lon="13.7049269"><ele>216.0</ele><time>2026-03-28T16:57:57.067Z</time></trkpt><trkpt lat="45.7297521" lon="13.7051244"><ele>216.0</ele><time>2026-03-28T16:57:58.058Z</time></trkpt><trkpt lat="45.7296481" lon="13.7053215"><ele>216.0</ele><time>2026-03-28T16:57:59.061Z</time></trkpt><trkpt lat="45.7295423" lon="13.7055189"><ele>215.66666666666669</ele><time>2026-03-28T16:58:00.056Z</time></trkpt><trkpt lat="45.7294383" lon="13.7057136"><ele>215.33333333333334</ele><time>2026-03-28T16:58:01.067Z</time></trkpt><trkpt lat="45.7293329" lon="13.7059054"><ele>215.0</ele><time>2026-03-28T16:58:02.061Z</time></trkpt><trkpt lat="45.7292284" lon="13.7060997"><ele>216.0</ele><time>2026-03-28T16:58:03.07Z</time></trkpt><trkpt lat="45.7291255" lon="13.7062942"><ele>217.0</ele><time>2026-03-28T16:58:04.068Z</time></trkpt><trkpt lat="45.7290217" lon="13.7064858"><ele>218.0</ele><time>2026-03-28T16:58:05.056Z</time></trkpt><trkpt lat="45.7289172" lon="13.7066761"><ele>218.0</ele><time>2026-03-28T16:58:06.071Z</time></trkpt><trkpt lat="45.7288122" lon="13.7068682"><ele>218.0</ele><time>2026-03-28T16:58:07.049Z</time></trkpt><trkpt lat="45.7287071" lon="13.7070652"><ele>218.0</ele><time>2026-03-28T16:58:08.06Z</time></trkpt><trkpt lat="45.7286014" lon="13.7072683"><ele>218.33333333333334</ele><time>2026-03-28T16:58:09.06Z</time></trkpt><trkpt lat="45.7284979" lon="13.7074655"><ele>218.66666666666669</ele><time>2026-03-28T16:58:10.071Z</time></trkpt><trkpt lat="45.728392" lon="13.7076584"><ele>219.0</ele><time>2026-03-28T16:58:11.052Z</time></trkpt><trkpt lat="45.7282842" lon="13.707858"><ele>218.33333333333331</ele><time>2026-03-28T16:58:12.073Z</time></trkpt><trkpt lat="45.7281783" lon="13.7080546"><ele>217.66666666666666</ele><time>2026-03-28T16:58:13.062Z</time></trkpt><trkpt lat="45.7280716" lon="13.7082519"><ele>217.0</ele><time>2026-03-28T16:58:14.059Z</time></trkpt><trkpt lat="45.7279687" lon="13.7084484"><ele>216.66666666666666</ele><time>2026-03-28T16:58:15.063Z</time></trkpt><trkpt lat="45.7278643" lon="13.708644"><ele>216.33333333333331</ele><time>2026-03-28T16:58:16.058Z</time></trkpt><trkpt lat="45.7277583" lon="13.7088415"><ele>216.0</ele><time>2026-03-28T16:58:17.065Z</time></trkpt><trkpt lat="45.7276523" lon="13.7090377"><ele>217.0</ele><time>2026-03-28T16:58:18.065Z</time></trkpt><trkpt lat="45.7275474" lon="13.7092334"><ele>218.0</ele><time>2026-03-28T16:58:19.073Z</time></trkpt><trkpt lat="45.7274428" lon="13.7094286"><ele>219.0</ele><time>2026-03-28T16:58:20.061Z</time></trkpt><trkpt lat="45.727339" lon="13.7096239"><ele>219.0</ele><time>2026-03-28T16:58:21.062Z</time></trkpt><trkpt lat="45.7272341" lon="13.7098161"><ele>219.0</ele><time>2026-03-28T16:58:22.055Z</time></trkpt><trkpt lat="45.7271309" lon="13.7100069"><ele>219.0</ele><time>2026-03-28T16:58:23.071Z</time></trkpt><trkpt lat="45.7270308" lon="13.7101953"><ele>218.66666666666669</ele><time>2026-03-28T16:58:24.058Z</time></trkpt><trkpt lat="45.7269281" lon="13.710382"><ele>218.33333333333334</ele><time>2026-03-28T16:58:25.062Z</time></trkpt><trkpt lat="45.7268289" lon="13.7105675"><ele>218.0</ele><time>2026-03-28T16:58:26.047Z</time></trkpt><trkpt lat="45.7267262" lon="13.7107572"><ele>219.66666666666669</ele><time>2026-03-28T16:58:27.063Z</time></trkpt><trkpt lat="45.7266235" lon="13.710946"><ele>221.33333333333331</ele><time>2026-03-28T16:58:28.055Z</time></trkpt><trkpt lat="45.7265203" lon="13.7111371"><ele>223.0</ele><time>2026-03-28T16:58:29.051Z</time></trkpt><trkpt lat="45.7264171" lon="13.7113252"><ele>223.0</ele><time>2026-03-28T16:58:30.055Z</time></trkpt><trkpt lat="45.7263113" lon="13.7115168"><ele>223.0</ele><time>2026-03-28T16:58:31.049Z</time></trkpt><trkpt lat="45.726209" lon="13.7117097"><ele>223.0</ele><time>2026-03-28T16:58:32.062Z</time></trkpt><trkpt lat="45.7261121" lon="13.7119023"><ele>224.66666666666666</ele><time>2026-03-28T16:58:33.048Z</time></trkpt><trkpt lat="45.7260117" lon="13.7120973"><ele>226.33333333333331</ele><time>2026-03-28T16:58:34.062Z</time></trkpt><trkpt lat="45.7259073" lon="13.7122906"><ele>228.0</ele><time>2026-03-28T16:58:35.058Z</time></trkpt><trkpt lat="45.7257997" lon="13.7124777"><ele>228.0</ele><time>2026-03-28T16:58:36.065Z</time></trkpt><trkpt lat="45.725686" lon="13.7126534"><ele>228.0</ele><time>2026-03-28T16:58:37.055Z</time></trkpt><trkpt lat="45.7255689" lon="13.7128232"><ele>228.0</ele><time>2026-03-28T16:58:38.053Z</time></trkpt><trkpt lat="45.7254553" lon="13.7129932"><ele>227.66666666666669</ele><time>2026-03-28T16:58:39.05Z</time></trkpt><trkpt lat="45.7253411" lon="13.7131625"><ele>227.33333333333334</ele><time>2026-03-28T16:58:40.064Z</time></trkpt><trkpt lat="45.7252243" lon="13.7133335"><ele>227.0</ele><time>2026-03-28T16:58:41.062Z</time></trkpt><trkpt lat="45.7251094" lon="13.7135062"><ele>228.33333333333334</ele><time>2026-03-28T16:58:42.05Z</time></trkpt><trkpt lat="45.7249947" lon="13.7136763"><ele>229.66666666666669</ele><time>2026-03-28T16:58:43.07Z</time></trkpt><trkpt lat="45.7248834" lon="13.7138485"><ele>231.0</ele><time>2026-03-28T16:58:44.055Z</time></trkpt><trkpt lat="45.724773" lon="13.7140149"><ele>231.0</ele><time>2026-03-28T16:58:45.051Z</time></trkpt><trkpt lat="45.7246591" lon="13.7141868"><ele>231.0</ele><time>2026-03-28T16:58:46.045Z</time></trkpt><trkpt lat="45.7245472" lon="13.7143595"><ele>231.0</ele><time>2026-03-28T16:58:47.044Z</time></trkpt><trkpt lat="45.724434" lon="13.7145323"><ele>233.0</ele><time>2026-03-28T16:58:48.06Z</time></trkpt><trkpt lat="45.7243207" lon="13.7146973"><ele>235.0</ele><time>2026-03-28T16:58:49.043Z</time></trkpt><trkpt lat="45.7242083" lon="13.7148646"><ele>237.0</ele><time>2026-03-28T16:58:50.043Z</time></trkpt><trkpt lat="45.7240957" lon="13.7150285"><ele>237.0</ele><time>2026-03-28T16:58:51.062Z</time></trkpt><trkpt lat="45.7239811" lon="13.7151922"><ele>237.0</ele><time>2026-03-28T16:58:52.059Z</time></trkpt><trkpt lat="45.7238704" lon="13.7153621"><ele>237.0</ele><time>2026-03-28T16:58:53.077Z</time></trkpt><trkpt lat="45.7237597" lon="13.7155341"><ele>236.33333333333331</ele><time>2026-03-28T16:58:54.049Z</time></trkpt><trkpt lat="45.7236497" lon="13.7157018"><ele>235.66666666666666</ele><time>2026-03-28T16:58:55.054Z</time></trkpt><trkpt lat="45.7235423" lon="13.7158699"><ele>235.0</ele><time>2026-03-28T16:58:56.067Z</time></trkpt><trkpt lat="45.7234351" lon="13.7160393"><ele>235.66666666666666</ele><time>2026-03-28T16:58:57.055Z</time></trkpt><trkpt lat="45.7233259" lon="13.7162071"><ele>236.33333333333331</ele><time>2026-03-28T16:58:58.083Z</time></trkpt><trkpt lat="45.7232186" lon="13.7163748"><ele>237.0</ele><time>2026-03-28T16:58:59.056Z</time></trkpt><trkpt lat="45.7231071" lon="13.7165481"><ele>237.0</ele><time>2026-03-28T16:59:00.05Z</time></trkpt><trkpt lat="45.7229927" lon="13.7167258"><ele>237.0</ele><time>2026-03-28T16:59:01.057Z</time></trkpt><trkpt lat="45.7228718" lon="13.7169057"><ele>237.0</ele><time>2026-03-28T16:59:02.067Z</time></trkpt><trkpt lat="45.7227512" lon="13.7170859"><ele>238.0</ele><time>2026-03-28T16:59:03.059Z</time></trkpt><trkpt lat="45.7226325" lon="13.7172633"><ele>239.0</ele><time>2026-03-28T16:59:04.077Z</time></trkpt><trkpt lat="45.7225169" lon="13.7174368"><ele>240.0</ele><time>2026-03-28T16:59:05.06Z</time></trkpt><trkpt lat="45.7223933" lon="13.7176222"><ele>239.0</ele><time>2026-03-28T16:59:06.055Z</time></trkpt><trkpt lat="45.7222732" lon="13.7178055"><ele>238.0</ele><time>2026-03-28T16:59:07.069Z</time></trkpt><trkpt lat="45.7221556" lon="13.7179844"><ele>237.0</ele><time>2026-03-28T16:59:08.059Z</time></trkpt><trkpt lat="45.7220376" lon="13.7181607"><ele>237.0</ele><time>2026-03-28T16:59:09.069Z</time></trkpt><trkpt lat="45.7219211" lon="13.7183397"><ele>237.0</ele><time>2026-03-28T16:59:10.061Z</time></trkpt><trkpt lat="45.7218021" lon="13.7185181"><ele>237.0</ele><time>2026-03-28T16:59:11.059Z</time></trkpt><trkpt lat="45.721688" lon="13.7186929"><ele>238.33333333333331</ele><time>2026-03-28T16:59:12.063Z</time></trkpt><trkpt lat="45.7215737" lon="13.7188649"><ele>239.66666666666666</ele><time>2026-03-28T16:59:13.058Z</time></trkpt><trkpt lat="45.7214653" lon="13.7190294"><ele>241.0</ele><time>2026-03-28T16:59:14.079Z</time></trkpt><trkpt lat="45.7213552" lon="13.7191962"><ele>241.0</ele><time>2026-03-28T16:59:15.064Z</time></trkpt><trkpt lat="45.7212375" lon="13.7193644"><ele>241.0</ele><time>2026-03-28T16:59:16.066Z</time></trkpt><trkpt lat="45.7211217" lon="13.7195395"><ele>241.0</ele><time>2026-03-28T16:59:17.06Z</time></trkpt><trkpt lat="45.7210012" lon="13.7197158"><ele>240.0</ele><time>2026-03-28T16:59:18.054Z</time></trkpt><trkpt lat="45.7208818" lon="13.7198999"><ele>239.0</ele><time>2026-03-28T16:59:19.063Z</time></trkpt><trkpt lat="45.7207598" lon="13.7200796"><ele>238.0</ele><time>2026-03-28T16:59:20.043Z</time></trkpt><trkpt lat="45.7206447" lon="13.7202609"><ele>237.33333333333331</ele><time>2026-03-28T16:59:21.075Z</time></trkpt><trkpt lat="45.720528" lon="13.7204396"><ele>236.66666666666669</ele><time>2026-03-28T16:59:22.057Z</time></trkpt><trkpt lat="45.7204118" lon="13.7206151"><ele>236.0</ele><time>2026-03-28T16:59:23.058Z</time></trkpt><trkpt lat="45.7202918" lon="13.7207924"><ele>236.0</ele><time>2026-03-28T16:59:24.065Z</time></trkpt><trkpt lat="45.7201753" lon="13.7209649"><ele>236.0</ele><time>2026-03-28T16:59:25.061Z</time></trkpt><trkpt lat="45.7200571" lon="13.7211353"><ele>236.0</ele><time>2026-03-28T16:59:26.077Z</time></trkpt><trkpt lat="45.7199373" lon="13.7213"><ele>236.0</ele><time>2026-03-28T16:59:27.057Z</time></trkpt><trkpt lat="45.7198121" lon="13.7214595"><ele>236.0</ele><time>2026-03-28T16:59:28.061Z</time></trkpt><trkpt lat="45.719685" lon="13.7216132"><ele>236.0</ele><time>2026-03-28T16:59:29.06Z</time></trkpt><trkpt lat="45.7195541" lon="13.7217706"><ele>235.33333333333334</ele><time>2026-03-28T16:59:30.062Z</time></trkpt><trkpt lat="45.719426" lon="13.7219277"><ele>234.66666666666669</ele><time>2026-03-28T16:59:31.061Z</time></trkpt><trkpt lat="45.7192973" lon="13.7220939"><ele>234.0</ele><time>2026-03-28T16:59:32.06Z</time></trkpt><trkpt lat="45.7191724" lon="13.7222583"><ele>234.66666666666669</ele><time>2026-03-28T16:59:33.056Z</time></trkpt><trkpt lat="45.7190489" lon="13.7224195"><ele>235.33333333333334</ele><time>2026-03-28T16:59:34.057Z</time></trkpt><trkpt lat="45.7189263" lon="13.7225756"><ele>236.0</ele><time>2026-03-28T16:59:35.049Z</time></trkpt><trkpt lat="45.7188023" lon="13.7227364"><ele>236.0</ele><time>2026-03-28T16:59:36.059Z</time></trkpt><trkpt lat="45.7186779" lon="13.7228934"><ele>236.0</ele><time>2026-03-28T16:59:37.068Z</time></trkpt><trkpt lat="45.7185531" lon="13.7230504"><ele>236.0</ele><time>2026-03-28T16:59:38.061Z</time></trkpt><trkpt lat="45.7184351" lon="13.7232078"><ele>236.33333333333334</ele><time>2026-03-28T16:59:39.057Z</time></trkpt><trkpt lat="45.7183134" lon="13.7233643"><ele>236.66666666666669</ele><time>2026-03-28T16:59:40.063Z</time></trkpt><trkpt lat="45.718193" lon="13.7235194"><ele>237.0</ele><time>2026-03-28T16:59:41.064Z</time></trkpt><trkpt lat="45.7180737" lon="13.7236745"><ele>237.0</ele><time>2026-03-28T16:59:42.071Z</time></trkpt><trkpt lat="45.7179513" lon="13.7238321"><ele>237.0</ele><time>2026-03-28T16:59:43.065Z</time></trkpt><trkpt lat="45.7178274" lon="13.7239895"><ele>237.0</ele><time>2026-03-28T16:59:44.074Z</time></trkpt><trkpt lat="45.7177036" lon="13.7241466"><ele>236.66666666666669</ele><time>2026-03-28T16:59:45.057Z</time></trkpt><trkpt lat="45.7175788" lon="13.7243076"><ele>236.33333333333334</ele><time>2026-03-28T16:59:46.063Z</time></trkpt><trkpt lat="45.717455" lon="13.7244677"><ele>236.0</ele><time>2026-03-28T16:59:47.071Z</time></trkpt><trkpt lat="45.7173286" lon="13.7246258"><ele>236.0</ele><time>2026-03-28T16:59:48.067Z</time></trkpt><trkpt lat="45.7172019" lon="13.7247843"><ele>236.0</ele><time>2026-03-28T16:59:49.076Z</time></trkpt><trkpt lat="45.7170804" lon="13.7249442"><ele>236.0</ele><time>2026-03-28T16:59:50.065Z</time></trkpt><trkpt lat="45.7169576" lon="13.7251025"><ele>236.66666666666669</ele><time>2026-03-28T16:59:51.067Z</time></trkpt><trkpt lat="45.7168347" lon="13.7252532"><ele>237.33333333333331</ele><time>2026-03-28T16:59:52.059Z</time></trkpt><trkpt lat="45.7167148" lon="13.7254043"><ele>238.0</ele><time>2026-03-28T16:59:53.057Z</time></trkpt><trkpt lat="45.7165978" lon="13.7255576"><ele>238.0</ele><time>2026-03-28T16:59:54.082Z</time></trkpt><trkpt lat="45.7164736" lon="13.7257089"><ele>238.0</ele><time>2026-03-28T16:59:55.057Z</time></trkpt><trkpt lat="45.7163505" lon="13.725859"><ele>238.0</ele><time>2026-03-28T16:59:56.058Z</time></trkpt><trkpt lat="45.7162297" lon="13.7260111"><ele>237.66666666666666</ele><time>2026-03-28T16:59:57.071Z</time></trkpt><trkpt lat="45.7161107" lon="13.7261703"><ele>237.33333333333331</ele><time>2026-03-28T16:59:58.08Z</time></trkpt><trkpt lat="45.7159926" lon="13.7263268"><ele>237.0</ele><time>2026-03-28T16:59:59.083Z</time></trkpt><trkpt lat="45.7158716" lon="13.7264778"><ele>237.0</ele><time>2026-03-28T17:00:00.079Z</time></trkpt><trkpt lat="45.7157504" lon="13.7266366"><ele>237.0</ele><time>2026-03-28T17:00:01.069Z</time></trkpt><trkpt lat="45.7156259" lon="13.7267894"><ele>237.0</ele><time>2026-03-28T17:00:02.086Z</time></trkpt><trkpt lat="45.7155027" lon="13.7269393"><ele>236.33333333333331</ele><time>2026-03-28T17:00:03.076Z</time></trkpt><trkpt lat="45.7153777" lon="13.7270901"><ele>235.66666666666666</ele><time>2026-03-28T17:00:04.077Z</time></trkpt><trkpt lat="45.7152544" lon="13.7272456"><ele>235.0</ele><time>2026-03-28T17:00:05.058Z</time></trkpt><trkpt lat="45.7151338" lon="13.7274019"><ele>236.33333333333331</ele><time>2026-03-28T17:00:06.075Z</time></trkpt><trkpt lat="45.7150142" lon="13.7275553"><ele>237.66666666666669</ele><time>2026-03-28T17:00:07.075Z</time></trkpt><trkpt lat="45.7148848" lon="13.7277041"><ele>239.0</ele><time>2026-03-28T17:00:08.082Z</time></trkpt><trkpt lat="45.7147497" lon="13.727839"><ele>239.0</ele><time>2026-03-28T17:00:09.074Z</time></trkpt><trkpt lat="45.7146069" lon="13.7279512"><ele>239.0</ele><time>2026-03-28T17:00:10.076Z</time></trkpt><trkpt lat="45.714455" lon="13.7280513"><ele>239.0</ele><time>2026-03-28T17:00:11.072Z</time></trkpt><trkpt lat="45.7142899" lon="13.7281271"><ele>239.0</ele><time>2026-03-28T17:00:12.076Z</time></trkpt><trkpt lat="45.7141254" lon="13.7281766"><ele>239.0</ele><time>2026-03-28T17:00:13.06Z</time></trkpt><trkpt lat="45.7139533" lon="13.7282153"><ele>239.0</ele><time>2026-03-28T17:00:14.065Z</time></trkpt><trkpt lat="45.713785" lon="13.7282574"><ele>239.0</ele><time>2026-03-28T17:00:15.067Z</time></trkpt><trkpt lat="45.7136164" lon="13.7282958"><ele>239.0</ele><time>2026-03-28T17:00:16.069Z</time></trkpt><trkpt lat="45.7134516" lon="13.7283431"><ele>239.0</ele><time>2026-03-28T17:00:17.071Z</time></trkpt><trkpt lat="45.7132837" lon="13.7283933"><ele>238.66666666666669</ele><time>2026-03-28T17:00:18.081Z</time></trkpt><trkpt lat="45.7131216" lon="13.7284452"><ele>238.33333333333331</ele><time>2026-03-28T17:00:19.069Z</time></trkpt><trkpt lat="45.7129641" lon="13.7284906"><ele>238.0</ele><time>2026-03-28T17:00:20.07Z</time></trkpt><trkpt lat="45.7128071" lon="13.7285403"><ele>238.66666666666666</ele><time>2026-03-28T17:00:21.077Z</time></trkpt><trkpt lat="45.7126466" lon="13.7285881"><ele>239.33333333333331</ele><time>2026-03-28T17:00:22.075Z</time></trkpt><trkpt lat="45.7124884" lon="13.7286366"><ele>240.0</ele><time>2026-03-28T17:00:23.082Z</time></trkpt><trkpt lat="45.7123222" lon="13.72869"><ele>240.0</ele><time>2026-03-28T17:00:24.063Z</time></trkpt><trkpt lat="45.7121576" lon="13.7287433"><ele>240.0</ele><time>2026-03-28T17:00:25.066Z</time></trkpt><trkpt lat="45.7119903" lon="13.7287997"><ele>240.0</ele><time>2026-03-28T17:00:26.069Z</time></trkpt><trkpt lat="45.7118238" lon="13.7288603"><ele>240.66666666666669</ele><time>2026-03-28T17:00:27.076Z</time></trkpt><trkpt lat="45.7116525" lon="13.7289217"><ele>241.33333333333334</ele><time>2026-03-28T17:00:28.08Z</time></trkpt><trkpt lat="45.7114834" lon="13.7289853"><ele>242.0</ele><time>2026-03-28T17:00:29.079Z</time></trkpt><trkpt lat="45.7113137" lon="13.7290472"><ele>242.0</ele><time>2026-03-28T17:00:30.071Z</time></trkpt><trkpt lat="45.7111447" lon="13.7291054"><ele>242.0</ele><time>2026-03-28T17:00:31.071Z</time></trkpt><trkpt lat="45.7109751" lon="13.729165"><ele>242.0</ele><time>2026-03-28T17:00:32.077Z</time></trkpt><trkpt lat="45.7108052" lon="13.7292263"><ele>242.0</ele><time>2026-03-28T17:00:33.072Z</time></trkpt><trkpt lat="45.7106323" lon="13.7292835"><ele>242.0</ele><time>2026-03-28T17:00:34.081Z</time></trkpt><trkpt lat="45.7104557" lon="13.7293504"><ele>242.0</ele><time>2026-03-28T17:00:35.072Z</time></trkpt><trkpt lat="45.7102863" lon="13.7294117"><ele>243.66666666666669</ele><time>2026-03-28T17:00:36.082Z</time></trkpt><trkpt lat="45.7101186" lon="13.7294707"><ele>245.33333333333331</ele><time>2026-03-28T17:00:37.071Z</time></trkpt><trkpt lat="45.7099567" lon="13.7295283"><ele>247.0</ele><time>2026-03-28T17:00:38.078Z</time></trkpt><trkpt lat="45.7097982" lon="13.7295855"><ele>247.0</ele><time>2026-03-28T17:00:39.077Z</time></trkpt><trkpt lat="45.7096377" lon="13.7296427"><ele>247.0</ele><time>2026-03-28T17:00:40.076Z</time></trkpt><trkpt lat="45.7094841" lon="13.7296972"><ele>247.0</ele><time>2026-03-28T17:00:41.073Z</time></trkpt><trkpt lat="45.7093344" lon="13.7297596"><ele>248.0</ele><time>2026-03-28T17:00:42.073Z</time></trkpt><trkpt lat="45.7091917" lon="13.7298433"><ele>249.0</ele><time>2026-03-28T17:00:43.075Z</time></trkpt><trkpt lat="45.7090723" lon="13.7299702"><ele>250.0</ele><time>2026-03-28T17:00:44.05Z</time></trkpt><trkpt lat="45.7089663" lon="13.7301183"><ele>250.25</ele><time>2026-03-28T17:00:45.06Z</time></trkpt><trkpt lat="45.7088669" lon="13.7302479"><ele>250.5</ele><time>2026-03-28T17:00:46.061Z</time></trkpt><trkpt lat="45.7087709" lon="13.7303582"><ele>250.75</ele><time>2026-03-28T17:00:47.066Z</time></trkpt><trkpt lat="45.7086876" lon="13.7304559"><ele>251.0</ele><time>2026-03-28T17:00:48.062Z</time></trkpt><trkpt lat="45.7086094" lon="13.7305497"><ele>251.60000000000002</ele><time>2026-03-28T17:00:49.065Z</time></trkpt><trkpt lat="45.708551" lon="13.7306102"><ele>252.20000000000002</ele><time>2026-03-28T17:00:50.071Z</time></trkpt><trkpt lat="45.7084832" lon="13.7306124"><ele>252.79999999999998</ele><time>2026-03-28T17:00:51.067Z</time></trkpt><trkpt lat="45.7083826" lon="13.7305029"><ele>253.39999999999998</ele><time>2026-03-28T17:00:53.06Z</time></trkpt><trkpt lat="45.70832" lon="13.7304262"><ele>254.0</ele><time>2026-03-28T17:00:54.06Z</time></trkpt><trkpt lat="45.7082282" lon="13.7303538"><ele>254.0</ele><time>2026-03-28T17:00:55.065Z</time></trkpt><trkpt lat="45.7081375" lon="13.7302956"><ele>253.99999999999997</ele><time>2026-03-28T17:00:56.072Z</time></trkpt><trkpt lat="45.7080441" lon="13.730267"><ele>253.99999999999997</ele><time>2026-03-28T17:00:57.078Z</time></trkpt><trkpt lat="45.7079552" lon="13.7302808"><ele>254.0</ele><time>2026-03-28T17:00:58.059Z</time></trkpt><trkpt lat="45.7078661" lon="13.7303471"><ele>254.0</ele><time>2026-03-28T17:00:59.056Z</time></trkpt><trkpt lat="45.7077598" lon="13.7304724"><ele>254.75</ele><time>2026-03-28T17:01:00.059Z</time></trkpt><trkpt lat="45.7076674" lon="13.730605"><ele>255.5</ele><time>2026-03-28T17:01:01.061Z</time></trkpt><trkpt lat="45.7075675" lon="13.730734"><ele>256.25</ele><time>2026-03-28T17:01:02.075Z</time></trkpt><trkpt lat="45.7074609" lon="13.7308594"><ele>257.0</ele><time>2026-03-28T17:01:03.067Z</time></trkpt><trkpt lat="45.7073553" lon="13.7309783"><ele>256.75</ele><time>2026-03-28T17:01:04.072Z</time></trkpt><trkpt lat="45.7072366" lon="13.7310985"><ele>256.5</ele><time>2026-03-28T17:01:05.071Z</time></trkpt><trkpt lat="45.7071134" lon="13.7311986"><ele>256.25</ele><time>2026-03-28T17:01:06.078Z</time></trkpt><trkpt lat="45.7069844" lon="13.7312765"><ele>256.0</ele><time>2026-03-28T17:01:07.066Z</time></trkpt><trkpt lat="45.7068637" lon="13.7313549"><ele>257.0</ele><time>2026-03-28T17:01:08.088Z</time></trkpt><trkpt lat="45.7067523" lon="13.7314422"><ele>258.0</ele><time>2026-03-28T17:01:09.067Z</time></trkpt><trkpt lat="45.706647" lon="13.7315302"><ele>259.0</ele><time>2026-03-28T17:01:10.068Z</time></trkpt><trkpt lat="45.7065387" lon="13.7316126"><ele>260.0</ele><time>2026-03-28T17:01:11.054Z</time></trkpt><trkpt lat="45.7064378" lon="13.7316907"><ele>260.0</ele><time>2026-03-28T17:01:12.062Z</time></trkpt><trkpt lat="45.7063415" lon="13.7317663"><ele>260.0</ele><time>2026-03-28T17:01:13.052Z</time></trkpt><trkpt lat="45.7062464" lon="13.7318322"><ele>260.0</ele><time>2026-03-28T17:01:14.07Z</time></trkpt><trkpt lat="45.706161" lon="13.7318957"><ele>260.0</ele><time>2026-03-28T17:01:15.06Z</time></trkpt><trkpt lat="45.7060735" lon="13.7319575"><ele>260.0</ele><time>2026-03-28T17:01:16.054Z</time></trkpt><trkpt lat="45.7059992" lon="13.7320026"><ele>259.2</ele><time>2026-03-28T17:01:17.05Z</time></trkpt><trkpt lat="45.7059385" lon="13.7320409"><ele>258.4</ele><time>2026-03-28T17:01:18.049Z</time></trkpt><trkpt lat="45.7058339" lon="13.7321081"><ele>257.6</ele><time>2026-03-28T17:01:20.057Z</time></trkpt><trkpt lat="45.7056969" lon="13.7321781"><ele>256.8</ele><time>2026-03-28T17:01:22.083Z</time></trkpt><trkpt lat="45.7055903" lon="13.7322099"><ele>256.0</ele><time>2026-03-28T17:01:23.063Z</time></trkpt><trkpt lat="45.7054736" lon="13.7322557"><ele>256.0</ele><time>2026-03-28T17:01:24.048Z</time></trkpt><trkpt lat="45.7053506" lon="13.732314"><ele>256.0</ele><time>2026-03-28T17:01:25.048Z</time></trkpt><trkpt lat="45.7052222" lon="13.7323746"><ele>256.0</ele><time>2026-03-28T17:01:26.056Z</time></trkpt><trkpt lat="45.7050835" lon="13.7324405"><ele>256.0</ele><time>2026-03-28T17:01:27.053Z</time></trkpt><trkpt lat="45.7049414" lon="13.7325001"><ele>254.0</ele><time>2026-03-28T17:01:28.068Z</time></trkpt><trkpt lat="45.7047972" lon="13.7325595"><ele>252.0</ele><time>2026-03-28T17:01:29.051Z</time></trkpt><trkpt lat="45.7046526" lon="13.732622"><ele>250.0</ele><time>2026-03-28T17:01:30.05Z</time></trkpt><trkpt lat="45.7045075" lon="13.7326869"><ele>249.66666666666666</ele><time>2026-03-28T17:01:31.052Z</time></trkpt><trkpt lat="45.7043623" lon="13.7327435"><ele>249.33333333333331</ele><time>2026-03-28T17:01:32.06Z</time></trkpt><trkpt lat="45.7042172" lon="13.7327911"><ele>249.0</ele><time>2026-03-28T17:01:33.053Z</time></trkpt><trkpt lat="45.7040717" lon="13.7328496"><ele>249.0</ele><time>2026-03-28T17:01:34.065Z</time></trkpt><trkpt lat="45.7039309" lon="13.7329127"><ele>249.0</ele><time>2026-03-28T17:01:35.045Z</time></trkpt><trkpt lat="45.7037926" lon="13.7329636"><ele>249.0</ele><time>2026-03-28T17:01:36.044Z</time></trkpt><trkpt lat="45.7036641" lon="13.7330177"><ele>249.0</ele><time>2026-03-28T17:01:37.061Z</time></trkpt><trkpt lat="45.7035433" lon="13.7330698"><ele>249.25</ele><time>2026-03-28T17:01:38.043Z</time></trkpt><trkpt lat="45.7034234" lon="13.7331231"><ele>249.5</ele><time>2026-03-28T17:01:39.053Z</time></trkpt><trkpt lat="45.7033033" lon="13.7331819"><ele>249.75</ele><time>2026-03-28T17:01:40.043Z</time></trkpt><trkpt lat="45.7031872" lon="13.733255"><ele>250.0</ele><time>2026-03-28T17:01:41.048Z</time></trkpt><trkpt lat="45.7030653" lon="13.7333474"><ele>250.0</ele><time>2026-03-28T17:01:42.039Z</time></trkpt><trkpt lat="45.7029411" lon="13.7334478"><ele>250.0</ele><time>2026-03-28T17:01:43.023Z</time></trkpt><trkpt lat="45.7028141" lon="13.7335421"><ele>250.0</ele><time>2026-03-28T17:01:44.031Z</time></trkpt><trkpt lat="45.7026934" lon="13.7336354"><ele>250.0</ele><time>2026-03-28T17:01:45.031Z</time></trkpt><trkpt lat="45.7025689" lon="13.7337343"><ele>249.25</ele><time>2026-03-28T17:01:46.035Z</time></trkpt><trkpt lat="45.7024485" lon="13.7338378"><ele>248.5</ele><time>2026-03-28T17:01:47.03Z</time></trkpt><trkpt lat="45.7023281" lon="13.7339375"><ele>247.75</ele><time>2026-03-28T17:01:48.034Z</time></trkpt><trkpt lat="45.7022123" lon="13.7340279"><ele>247.0</ele><time>2026-03-28T17:01:49.038Z</time></trkpt><trkpt lat="45.7020982" lon="13.7341124"><ele>247.0</ele><time>2026-03-28T17:01:50.029Z</time></trkpt><trkpt lat="45.7019823" lon="13.7341847"><ele>247.0</ele><time>2026-03-28T17:01:51.03Z</time></trkpt><trkpt lat="45.7018676" lon="13.7342453"><ele>247.0</ele><time>2026-03-28T17:01:52.038Z</time></trkpt><trkpt lat="45.7017502" lon="13.7342891"><ele>247.0</ele><time>2026-03-28T17:01:53.036Z</time></trkpt><trkpt lat="45.7016324" lon="13.7343062"><ele>245.25</ele><time>2026-03-28T17:01:54.046Z</time></trkpt><trkpt lat="45.7015137" lon="13.7343152"><ele>243.5</ele><time>2026-03-28T17:01:55.041Z</time></trkpt><trkpt lat="45.7013953" lon="13.7343227"><ele>241.75</ele><time>2026-03-28T17:01:56.059Z</time></trkpt><trkpt lat="45.7012695" lon="13.7343237"><ele>240.0</ele><time>2026-03-28T17:01:57.041Z</time></trkpt><trkpt lat="45.7011548" lon="13.7343034"><ele>236.6</ele><time>2026-03-28T17:01:58.057Z</time></trkpt><trkpt lat="45.7010476" lon="13.7342696"><ele>233.2</ele><time>2026-03-28T17:01:59.035Z</time></trkpt><trkpt lat="45.7009529" lon="13.7342311"><ele>229.8</ele><time>2026-03-28T17:02:00.064Z</time></trkpt><trkpt lat="45.7008807" lon="13.7341849"><ele>226.4</ele><time>2026-03-28T17:02:01.046Z</time></trkpt><trkpt lat="45.7008141" lon="13.7341142"><ele>223.0</ele><time>2026-03-28T17:02:02.063Z</time></trkpt><trkpt lat="45.7007594" lon="13.734022"><ele>223.0</ele><time>2026-03-28T17:02:03.047Z</time></trkpt><trkpt lat="45.7007359" lon="13.7339022"><ele>223.0</ele><time>2026-03-28T17:02:04.056Z</time></trkpt><trkpt lat="45.7007281" lon="13.7337782"><ele>223.0</ele><time>2026-03-28T17:02:05.062Z</time></trkpt><trkpt lat="45.7007477" lon="13.7336377"><ele>223.0</ele><time>2026-03-28T17:02:06.062Z</time></trkpt><trkpt lat="45.700782" lon="13.7335017"><ele>223.0</ele><time>2026-03-28T17:02:07.078Z</time></trkpt><trkpt lat="45.700822" lon="13.7333665"><ele>223.8</ele><time>2026-03-28T17:02:08.046Z</time></trkpt><trkpt lat="45.7008677" lon="13.7332368"><ele>224.60000000000002</ele><time>2026-03-28T17:02:09.047Z</time></trkpt><trkpt lat="45.7009101" lon="13.7331149"><ele>225.39999999999998</ele><time>2026-03-28T17:02:10.041Z</time></trkpt><trkpt lat="45.7009389" lon="13.7330083"><ele>226.2</ele><time>2026-03-28T17:02:11.058Z</time></trkpt><trkpt lat="45.7009434" lon="13.7328323"><ele>227.0</ele><time>2026-03-28T17:02:13.063Z</time></trkpt><trkpt lat="45.7008502" lon="13.7327613"><ele>227.0</ele><time>2026-03-28T17:02:15.05Z</time></trkpt><trkpt lat="45.7007613" lon="13.7328607"><ele>227.0</ele><time>2026-03-28T17:02:17.047Z</time></trkpt><trkpt lat="45.7007308" lon="13.732957"><ele>227.0</ele><time>2026-03-28T17:02:18.08Z</time></trkpt><trkpt lat="45.7007035" lon="13.733076"><ele>227.0</ele><time>2026-03-28T17:02:19.043Z</time></trkpt><trkpt lat="45.7006688" lon="13.7332088"><ele>227.0</ele><time>2026-03-28T17:02:20.049Z</time></trkpt><trkpt lat="45.7006308" lon="13.7333463"><ele>227.0</ele><time>2026-03-28T17:02:21.055Z</time></trkpt><trkpt lat="45.7005882" lon="13.7334878"><ele>227.0</ele><time>2026-03-28T17:02:22.063Z</time></trkpt><trkpt lat="45.7005412" lon="13.7336329"><ele>227.0</ele><time>2026-03-28T17:02:23.063Z</time></trkpt><trkpt lat="45.7004992" lon="13.7337833"><ele>227.0</ele><time>2026-03-28T17:02:24.073Z</time></trkpt><trkpt lat="45.700468" lon="13.7339227"><ele>227.0</ele><time>2026-03-28T17:02:25.061Z</time></trkpt><trkpt lat="45.7004493" lon="13.7340638"><ele>226.2</ele><time>2026-03-28T17:02:26.048Z</time></trkpt><trkpt lat="45.7004414" lon="13.7342016"><ele>225.39999999999998</ele><time>2026-03-28T17:02:27.048Z</time></trkpt><trkpt lat="45.7004448" lon="13.7343358"><ele>224.60000000000002</ele><time>2026-03-28T17:02:28.052Z</time></trkpt><trkpt lat="45.7004655" lon="13.734459"><ele>223.8</ele><time>2026-03-28T17:02:29.053Z</time></trkpt><trkpt lat="45.7005127" lon="13.7345668"><ele>223.0</ele><time>2026-03-28T17:02:30.056Z</time></trkpt><trkpt lat="45.700584" lon="13.7346546"><ele>220.4</ele><time>2026-03-28T17:02:31.049Z</time></trkpt><trkpt lat="45.7006655" lon="13.7347361"><ele>217.8</ele><time>2026-03-28T17:02:32.04Z</time></trkpt><trkpt lat="45.7007561" lon="13.73481"><ele>215.2</ele><time>2026-03-28T17:02:33.042Z</time></trkpt><trkpt lat="45.7008387" lon="13.7348771"><ele>212.6</ele><time>2026-03-28T17:02:34.043Z</time></trkpt><trkpt lat="45.7009144" lon="13.7349459"><ele>210.0</ele><time>2026-03-28T17:02:35.045Z</time></trkpt><trkpt lat="45.700962" lon="13.735031"><ele>210.0</ele><time>2026-03-28T17:02:36.039Z</time></trkpt><trkpt lat="45.700968" lon="13.735143"><ele>210.0</ele><time>2026-03-28T17:02:37.031Z</time></trkpt><trkpt lat="45.7009429" lon="13.7352623"><ele>210.0</ele><time>2026-03-28T17:02:38.033Z</time></trkpt><trkpt lat="45.7008851" lon="13.7353844"><ele>210.0</ele><time>2026-03-28T17:02:39.036Z</time></trkpt><trkpt lat="45.7007929" lon="13.7355029"><ele>210.0</ele><time>2026-03-28T17:02:40.03Z</time></trkpt><trkpt lat="45.7006838" lon="13.7356223"><ele>212.0</ele><time>2026-03-28T17:02:41.041Z</time></trkpt><trkpt lat="45.7005775" lon="13.735758"><ele>214.0</ele><time>2026-03-28T17:02:42.041Z</time></trkpt><trkpt lat="45.7004718" lon="13.7359131"><ele>216.0</ele><time>2026-03-28T17:02:43.03Z</time></trkpt><trkpt lat="45.7003651" lon="13.7360864"><ele>213.0</ele><time>2026-03-28T17:02:44.04Z</time></trkpt><trkpt lat="45.7002449" lon="13.736246"><ele>210.0</ele><time>2026-03-28T17:02:45.032Z</time></trkpt><trkpt lat="45.7001161" lon="13.7363812"><ele>207.0</ele><time>2026-03-28T17:02:46.048Z</time></trkpt><trkpt lat="45.6999833" lon="13.7365071"><ele>207.0</ele><time>2026-03-28T17:02:47.034Z</time></trkpt><trkpt lat="45.6998476" lon="13.7366386"><ele>207.0</ele><time>2026-03-28T17:02:48.038Z</time></trkpt><trkpt lat="45.699715" lon="13.7367637"><ele>207.0</ele><time>2026-03-28T17:02:49.038Z</time></trkpt><trkpt lat="45.6995844" lon="13.7368792"><ele>206.25</ele><time>2026-03-28T17:02:50.035Z</time></trkpt><trkpt lat="45.6994574" lon="13.7369884"><ele>205.5</ele><time>2026-03-28T17:02:51.035Z</time></trkpt><trkpt lat="45.6993319" lon="13.7370858"><ele>204.75</ele><time>2026-03-28T17:02:52.033Z</time></trkpt><trkpt lat="45.6992052" lon="13.7371657"><ele>204.0</ele><time>2026-03-28T17:02:53.057Z</time></trkpt><trkpt lat="45.6990811" lon="13.7372389"><ele>204.0</ele><time>2026-03-28T17:02:54.039Z</time></trkpt><trkpt lat="45.698961" lon="13.7373228"><ele>204.0</ele><time>2026-03-28T17:02:55.033Z</time></trkpt><trkpt lat="45.6988488" lon="13.7374158"><ele>204.0</ele><time>2026-03-28T17:02:56.041Z</time></trkpt><trkpt lat="45.6987457" lon="13.7375159"><ele>204.0</ele><time>2026-03-28T17:02:57.036Z</time></trkpt><trkpt lat="45.6986446" lon="13.7376163"><ele>201.0</ele><time>2026-03-28T17:02:58.036Z</time></trkpt><trkpt lat="45.6985585" lon="13.7377127"><ele>198.0</ele><time>2026-03-28T17:02:59.029Z</time></trkpt><trkpt lat="45.6984823" lon="13.7378082"><ele>195.0</ele><time>2026-03-28T17:03:00.033Z</time></trkpt><trkpt lat="45.6984153" lon="13.7379323"><ele>192.0</ele><time>2026-03-28T17:03:01.034Z</time></trkpt><trkpt lat="45.6983426" lon="13.7380922"><ele>192.0</ele><time>2026-03-28T17:03:02.051Z</time></trkpt><trkpt lat="45.6982581" lon="13.7382772"><ele>192.0</ele><time>2026-03-28T17:03:03.041Z</time></trkpt><trkpt lat="45.6981695" lon="13.7384774"><ele>192.0</ele><time>2026-03-28T17:03:04.035Z</time></trkpt><trkpt lat="45.6980792" lon="13.7386824"><ele>200.66666666666669</ele><time>2026-03-28T17:03:05.037Z</time></trkpt><trkpt lat="45.6979857" lon="13.7388935"><ele>209.33333333333334</ele><time>2026-03-28T17:03:06.038Z</time></trkpt><trkpt lat="45.6978794" lon="13.7390972"><ele>218.0</ele><time>2026-03-28T17:03:07.049Z</time></trkpt><trkpt lat="45.6977608" lon="13.739287"><ele>208.66666666666669</ele><time>2026-03-28T17:03:08.031Z</time></trkpt><trkpt lat="45.6976339" lon="13.7394623"><ele>199.33333333333334</ele><time>2026-03-28T17:03:09.041Z</time></trkpt><trkpt lat="45.6975089" lon="13.7396289"><ele>190.0</ele><time>2026-03-28T17:03:10.043Z</time></trkpt><trkpt lat="45.6973984" lon="13.7397903"><ele>190.0</ele><time>2026-03-28T17:03:11.029Z</time></trkpt><trkpt lat="45.6972805" lon="13.7399451"><ele>190.0</ele><time>2026-03-28T17:03:12.042Z</time></trkpt><trkpt lat="45.6971645" lon="13.7401009"><ele>190.0</ele><time>2026-03-28T17:03:13.037Z</time></trkpt><trkpt lat="45.6970604" lon="13.7402737"><ele>182.66666666666669</ele><time>2026-03-28T17:03:14.039Z</time></trkpt><trkpt lat="45.6969579" lon="13.7404659"><ele>175.33333333333334</ele><time>2026-03-28T17:03:15.032Z</time></trkpt><trkpt lat="45.6968603" lon="13.7406563"><ele>168.0</ele><time>2026-03-28T17:03:16.029Z</time></trkpt><trkpt lat="45.696762" lon="13.7408479"><ele>168.0</ele><time>2026-03-28T17:03:17.033Z</time></trkpt><trkpt lat="45.6966595" lon="13.7410346"><ele>168.0</ele><time>2026-03-28T17:03:18.032Z</time></trkpt><trkpt lat="45.6965542" lon="13.7412133"><ele>168.0</ele><time>2026-03-28T17:03:19.031Z</time></trkpt><trkpt lat="45.6964457" lon="13.7413873"><ele>162.66666666666666</ele><time>2026-03-28T17:03:20.05Z</time></trkpt><trkpt lat="45.696335" lon="13.7415602"><ele>157.33333333333331</ele><time>2026-03-28T17:03:21.027Z</time></trkpt><trkpt lat="45.696213" lon="13.7417153"><ele>152.0</ele><time>2026-03-28T17:03:22.037Z</time></trkpt><trkpt lat="45.6960844" lon="13.7418522"><ele>161.66666666666666</ele><time>2026-03-28T17:03:23.037Z</time></trkpt><trkpt lat="45.6959489" lon="13.7419826"><ele>171.33333333333334</ele><time>2026-03-28T17:03:24.039Z</time></trkpt><trkpt lat="45.6958003" lon="13.7421035"><ele>181.0</ele><time>2026-03-28T17:03:25.032Z</time></trkpt><trkpt lat="45.695653" lon="13.742224"><ele>181.0</ele><time>2026-03-28T17:03:26.036Z</time></trkpt><trkpt lat="45.695508" lon="13.7423497"><ele>181.0</ele><time>2026-03-28T17:03:27.037Z</time></trkpt><trkpt lat="45.6953664" lon="13.7424896"><ele>181.0</ele><time>2026-03-28T17:03:28.039Z</time></trkpt><trkpt lat="45.6952231" lon="13.7426354"><ele>180.66666666666669</ele><time>2026-03-28T17:03:29.033Z</time></trkpt><trkpt lat="45.6950829" lon="13.7427866"><ele>180.33333333333334</ele><time>2026-03-28T17:03:30.046Z</time></trkpt><trkpt lat="45.6949423" lon="13.7429369"><ele>180.0</ele><time>2026-03-28T17:03:31.031Z</time></trkpt><trkpt lat="45.6948047" lon="13.7430847"><ele>180.0</ele><time>2026-03-28T17:03:32.037Z</time></trkpt><trkpt lat="45.6946616" lon="13.7432246"><ele>180.0</ele><time>2026-03-28T17:03:33.04Z</time></trkpt><trkpt lat="45.6945153" lon="13.7433565"><ele>180.0</ele><time>2026-03-28T17:03:34.061Z</time></trkpt><trkpt lat="45.6943655" lon="13.7434907"><ele>181.0</ele><time>2026-03-28T17:03:35.036Z</time></trkpt><trkpt lat="45.6942173" lon="13.7436211"><ele>182.0</ele><time>2026-03-28T17:03:36.034Z</time></trkpt><trkpt lat="45.6940635" lon="13.7437352"><ele>183.0</ele><time>2026-03-28T17:03:37.035Z</time></trkpt><trkpt lat="45.6939143" lon="13.7438356"><ele>183.0</ele><time>2026-03-28T17:03:38.04Z</time></trkpt><trkpt lat="45.69377" lon="13.7439262"><ele>183.0</ele><time>2026-03-28T17:03:39.035Z</time></trkpt><trkpt lat="45.6936361" lon="13.7440083"><ele>183.0</ele><time>2026-03-28T17:03:40.057Z</time></trkpt><trkpt lat="45.69351" lon="13.7440906"><ele>183.0</ele><time>2026-03-28T17:03:41.038Z</time></trkpt><trkpt lat="45.693383" lon="13.7441755"><ele>176.5</ele><time>2026-03-28T17:03:42.048Z</time></trkpt><trkpt lat="45.6932387" lon="13.7442423"><ele>170.0</ele><time>2026-03-28T17:03:43.041Z</time></trkpt><trkpt lat="45.6930957" lon="13.744279"><ele>163.5</ele><time>2026-03-28T17:03:44.038Z</time></trkpt><trkpt lat="45.6929615" lon="13.7442859"><ele>157.0</ele><time>2026-03-28T17:03:45.035Z</time></trkpt><trkpt lat="45.6928373" lon="13.7442774"><ele>155.6</ele><time>2026-03-28T17:03:46.038Z</time></trkpt><trkpt lat="45.6927274" lon="13.7442608"><ele>154.2</ele><time>2026-03-28T17:03:47.035Z</time></trkpt><trkpt lat="45.6926234" lon="13.7442496"><ele>152.8</ele><time>2026-03-28T17:03:48.053Z</time></trkpt><trkpt lat="45.6925267" lon="13.7442547"><ele>151.4</ele><time>2026-03-28T17:03:49.034Z</time></trkpt><trkpt lat="45.6924356" lon="13.7442706"><ele>150.0</ele><time>2026-03-28T17:03:50.03Z</time></trkpt><trkpt lat="45.6923472" lon="13.7442856"><ele>150.0</ele><time>2026-03-28T17:03:51.047Z</time></trkpt><trkpt lat="45.6922558" lon="13.7443163"><ele>150.0</ele><time>2026-03-28T17:03:52.043Z</time></trkpt><trkpt lat="45.6921647" lon="13.7443507"><ele>150.0</ele><time>2026-03-28T17:03:53.068Z</time></trkpt><trkpt lat="45.6920753" lon="13.7443936"><ele>150.0</ele><time>2026-03-28T17:03:54.047Z</time></trkpt><trkpt lat="45.6919845" lon="13.7444377"><ele>150.0</ele><time>2026-03-28T17:03:55.041Z</time></trkpt><trkpt lat="45.6918922" lon="13.7444978"><ele>151.4</ele><time>2026-03-28T17:03:56.04Z</time></trkpt><trkpt lat="45.6918009" lon="13.7445564"><ele>152.8</ele><time>2026-03-28T17:03:57.043Z</time></trkpt><trkpt lat="45.6917138" lon="13.7446172"><ele>154.2</ele><time>2026-03-28T17:03:58.064Z</time></trkpt><trkpt lat="45.6916271" lon="13.7446867"><ele>155.6</ele><time>2026-03-28T17:03:59.049Z</time></trkpt><trkpt lat="45.6915412" lon="13.7447695"><ele>157.0</ele><time>2026-03-28T17:04:00.045Z</time></trkpt><trkpt lat="45.6914637" lon="13.7448904"><ele>157.0</ele><time>2026-03-28T17:04:01.045Z</time></trkpt><trkpt lat="45.6913834" lon="13.7450472"><ele>157.0</ele><time>2026-03-28T17:04:02.045Z</time></trkpt><trkpt lat="45.6913006" lon="13.7452163"><ele>157.0</ele><time>2026-03-28T17:04:03.065Z</time></trkpt><trkpt lat="45.6912082" lon="13.7453899"><ele>157.0</ele><time>2026-03-28T17:04:04.044Z</time></trkpt><trkpt lat="45.691112" lon="13.7455654"><ele>159.0</ele><time>2026-03-28T17:04:05.035Z</time></trkpt><trkpt lat="45.6910169" lon="13.745746"><ele>161.0</ele><time>2026-03-28T17:04:06.047Z</time></trkpt><trkpt lat="45.6909309" lon="13.7459319"><ele>163.0</ele><time>2026-03-28T17:04:07.041Z</time></trkpt><trkpt lat="45.6908482" lon="13.7461075"><ele>163.0</ele><time>2026-03-28T17:04:08.062Z</time></trkpt><trkpt lat="45.6907643" lon="13.746278"><ele>163.0</ele><time>2026-03-28T17:04:09.04Z</time></trkpt><trkpt lat="45.6906808" lon="13.7464572"><ele>163.0</ele><time>2026-03-28T17:04:10.035Z</time></trkpt><trkpt lat="45.6905975" lon="13.7466588"><ele>163.0</ele><time>2026-03-28T17:04:11.027Z</time></trkpt><trkpt lat="45.6905017" lon="13.7468535"><ele>163.0</ele><time>2026-03-28T17:04:12.036Z</time></trkpt><trkpt lat="45.6904057" lon="13.7470457"><ele>163.0</ele><time>2026-03-28T17:04:13.045Z</time></trkpt><trkpt lat="45.6903149" lon="13.7472364"><ele>159.0</ele><time>2026-03-28T17:04:14.031Z</time></trkpt><trkpt lat="45.6902335" lon="13.7474321"><ele>155.0</ele><time>2026-03-28T17:04:15.061Z</time></trkpt><trkpt lat="45.6901528" lon="13.7476403"><ele>151.0</ele><time>2026-03-28T17:04:16.047Z</time></trkpt><trkpt lat="45.6900743" lon="13.7478488"><ele>151.0</ele><time>2026-03-28T17:04:17.038Z</time></trkpt><trkpt lat="45.6899922" lon="13.7480562"><ele>151.0</ele><time>2026-03-28T17:04:18.037Z</time></trkpt><trkpt lat="45.6899102" lon="13.748265"><ele>151.0</ele><time>2026-03-28T17:04:19.037Z</time></trkpt><trkpt lat="45.6898247" lon="13.7484723"><ele>155.33333333333334</ele><time>2026-03-28T17:04:20.04Z</time></trkpt><trkpt lat="45.6897308" lon="13.7486717"><ele>159.66666666666666</ele><time>2026-03-28T17:04:21.066Z</time></trkpt><trkpt lat="45.6896335" lon="13.748864"><ele>164.0</ele><time>2026-03-28T17:04:22.04Z</time></trkpt><trkpt lat="45.6895284" lon="13.7490526"><ele>158.0</ele><time>2026-03-28T17:04:23.034Z</time></trkpt><trkpt lat="45.6894246" lon="13.7492344"><ele>152.0</ele><time>2026-03-28T17:04:24.042Z</time></trkpt><trkpt lat="45.6893192" lon="13.7494166"><ele>146.0</ele><time>2026-03-28T17:04:25.036Z</time></trkpt><trkpt lat="45.6892164" lon="13.749607"><ele>146.0</ele><time>2026-03-28T17:04:26.036Z</time></trkpt><trkpt lat="45.6891108" lon="13.7497953"><ele>146.0</ele><time>2026-03-28T17:04:27.047Z</time></trkpt><trkpt lat="45.6890188" lon="13.7499983"><ele>146.0</ele><time>2026-03-28T17:04:28.041Z</time></trkpt><trkpt lat="45.6889367" lon="13.7501979"><ele>149.0</ele><time>2026-03-28T17:04:29.039Z</time></trkpt><trkpt lat="45.6888628" lon="13.7503927"><ele>152.0</ele><time>2026-03-28T17:04:30.045Z</time></trkpt><trkpt lat="45.6887879" lon="13.7505873"><ele>155.0</ele><time>2026-03-28T17:04:31.041Z</time></trkpt><trkpt lat="45.6887055" lon="13.75078"><ele>155.0</ele><time>2026-03-28T17:04:32.046Z</time></trkpt><trkpt lat="45.6886153" lon="13.7509738"><ele>155.0</ele><time>2026-03-28T17:04:33.074Z</time></trkpt><trkpt lat="45.6885228" lon="13.7511638"><ele>155.0</ele><time>2026-03-28T17:04:34.042Z</time></trkpt><trkpt lat="45.6884189" lon="13.7513493"><ele>149.0</ele><time>2026-03-28T17:04:35.043Z</time></trkpt><trkpt lat="45.6883065" lon="13.7515198"><ele>143.0</ele><time>2026-03-28T17:04:36.032Z</time></trkpt><trkpt lat="45.6881996" lon="13.7516818"><ele>137.0</ele><time>2026-03-28T17:04:37.04Z</time></trkpt><trkpt lat="45.688098" lon="13.7518455"><ele>135.5</ele><time>2026-03-28T17:04:38.037Z</time></trkpt><trkpt lat="45.6880055" lon="13.7520122"><ele>134.0</ele><time>2026-03-28T17:04:39.042Z</time></trkpt><trkpt lat="45.6879163" lon="13.7521742"><ele>132.5</ele><time>2026-03-28T17:04:40.047Z</time></trkpt><trkpt lat="45.6878331" lon="13.7523288"><ele>131.0</ele><time>2026-03-28T17:04:41.036Z</time></trkpt><trkpt lat="45.6877552" lon="13.7524541"><ele>131.0</ele><time>2026-03-28T17:04:42.047Z</time></trkpt><trkpt lat="45.6876733" lon="13.7525201"><ele>131.0</ele><time>2026-03-28T17:04:43.041Z</time></trkpt><trkpt lat="45.687586" lon="13.7525243"><ele>131.0</ele><time>2026-03-28T17:04:44.041Z</time></trkpt><trkpt lat="45.6874975" lon="13.7524744"><ele>131.0</ele><time>2026-03-28T17:04:45.037Z</time></trkpt><trkpt lat="45.6874142" lon="13.7523998"><ele>131.0</ele><time>2026-03-28T17:04:46.031Z</time></trkpt><trkpt lat="45.687318" lon="13.752349"><ele>131.0</ele><time>2026-03-28T17:04:47.035Z</time></trkpt><trkpt lat="45.6872043" lon="13.7523361"><ele>131.0</ele><time>2026-03-28T17:04:48.041Z</time></trkpt><trkpt lat="45.6870794" lon="13.752359"><ele>131.0</ele><time>2026-03-28T17:04:49.034Z</time></trkpt><trkpt lat="45.6869615" lon="13.7524047"><ele>131.0</ele><time>2026-03-28T17:04:50.064Z</time></trkpt><trkpt lat="45.6868431" lon="13.7524831"><ele>130.75</ele><time>2026-03-28T17:04:51.031Z</time></trkpt><trkpt lat="45.6867336" lon="13.7525915"><ele>130.5</ele><time>2026-03-28T17:04:52.039Z</time></trkpt><trkpt lat="45.6866337" lon="13.7527339"><ele>130.25</ele><time>2026-03-28T17:04:53.037Z</time></trkpt><trkpt lat="45.6865297" lon="13.752894"><ele>130.0</ele><time>2026-03-28T17:04:54.039Z</time></trkpt><trkpt lat="45.6864233" lon="13.7530494"><ele>130.0</ele><time>2026-03-28T17:04:55.039Z</time></trkpt><trkpt lat="45.6863145" lon="13.7532164"><ele>130.0</ele><time>2026-03-28T17:04:56.036Z</time></trkpt><trkpt lat="45.6862098" lon="13.7533788"><ele>130.0</ele><time>2026-03-28T17:04:57.064Z</time></trkpt><trkpt lat="45.6861099" lon="13.7535394"><ele>124.75</ele><time>2026-03-28T17:04:58.033Z</time></trkpt><trkpt lat="45.6860208" lon="13.7537034"><ele>119.5</ele><time>2026-03-28T17:04:59.04Z</time></trkpt><trkpt lat="45.6859366" lon="13.7538761"><ele>114.25</ele><time>2026-03-28T17:05:00.038Z</time></trkpt><trkpt lat="45.6858649" lon="13.7540744"><ele>109.0</ele><time>2026-03-28T17:05:01.043Z</time></trkpt><trkpt lat="45.6858048" lon="13.7542807"><ele>110.33333333333334</ele><time>2026-03-28T17:05:02.071Z</time></trkpt><trkpt lat="45.6857574" lon="13.7544881"><ele>111.66666666666666</ele><time>2026-03-28T17:05:03.035Z</time></trkpt><trkpt lat="45.6857209" lon="13.7547085"><ele>113.0</ele><time>2026-03-28T17:05:04.037Z</time></trkpt><trkpt lat="45.6856989" lon="13.7549417"><ele>113.0</ele><time>2026-03-28T17:05:05.043Z</time></trkpt><trkpt lat="45.6856925" lon="13.7551603"><ele>113.0</ele><time>2026-03-28T17:05:06.043Z</time></trkpt><trkpt lat="45.68568" lon="13.7553736"><ele>113.0</ele><time>2026-03-28T17:05:07.045Z</time></trkpt><trkpt lat="45.6856679" lon="13.7555894"><ele>113.25</ele><time>2026-03-28T17:05:08.039Z</time></trkpt><trkpt lat="45.6856594" lon="13.7557979"><ele>113.5</ele><time>2026-03-28T17:05:09.056Z</time></trkpt><trkpt lat="45.6856517" lon="13.7559948"><ele>113.75</ele><time>2026-03-28T17:05:10.044Z</time></trkpt><trkpt lat="45.6856301" lon="13.7561553"><ele>114.0</ele><time>2026-03-28T17:05:11.033Z</time></trkpt><trkpt lat="45.6855811" lon="13.7562912"><ele>114.0</ele><time>2026-03-28T17:05:12.038Z</time></trkpt><trkpt lat="45.6855069" lon="13.7563971"><ele>114.0</ele><time>2026-03-28T17:05:13.037Z</time></trkpt><trkpt lat="45.6854137" lon="13.7564674"><ele>114.0</ele><time>2026-03-28T17:05:14.053Z</time></trkpt><trkpt lat="45.685305" lon="13.756491"><ele>114.0</ele><time>2026-03-28T17:05:15.033Z</time></trkpt><trkpt lat="45.6852019" lon="13.7564657"><ele>114.0</ele><time>2026-03-28T17:05:16.028Z</time></trkpt><trkpt lat="45.6850966" lon="13.7563935"><ele>113.0</ele><time>2026-03-28T17:05:17.029Z</time></trkpt><trkpt lat="45.6849908" lon="13.7562978"><ele>112.0</ele><time>2026-03-28T17:05:18.032Z</time></trkpt><trkpt lat="45.6848838" lon="13.7561885"><ele>111.0</ele><time>2026-03-28T17:05:19.037Z</time></trkpt><trkpt lat="45.6847695" lon="13.7560764"><ele>110.0</ele><time>2026-03-28T17:05:20.032Z</time></trkpt><trkpt lat="45.6846528" lon="13.7559746"><ele>106.75</ele><time>2026-03-28T17:05:21.05Z</time></trkpt><trkpt lat="45.6845297" lon="13.7558886"><ele>103.5</ele><time>2026-03-28T17:05:22.037Z</time></trkpt><trkpt lat="45.6844091" lon="13.7558045"><ele>100.25</ele><time>2026-03-28T17:05:23.033Z</time></trkpt><trkpt lat="45.6842899" lon="13.7557317"><ele>97.0</ele><time>2026-03-28T17:05:24.034Z</time></trkpt><trkpt lat="45.6841663" lon="13.7556726"><ele>96.25</ele><time>2026-03-28T17:05:25.035Z</time></trkpt><trkpt lat="45.6840277" lon="13.7556588"><ele>95.5</ele><time>2026-03-28T17:05:26.068Z</time></trkpt><trkpt lat="45.6838878" lon="13.755685"><ele>94.75</ele><time>2026-03-28T17:05:27.034Z</time></trkpt><trkpt lat="45.6837531" lon="13.7557358"><ele>94.0</ele><time>2026-03-28T17:05:28.038Z</time></trkpt><trkpt lat="45.6836204" lon="13.7558045"><ele>94.0</ele><time>2026-03-28T17:05:29.033Z</time></trkpt><trkpt lat="45.6834853" lon="13.7559086"><ele>94.0</ele><time>2026-03-28T17:05:30.032Z</time></trkpt><trkpt lat="45.6833539" lon="13.7560377"><ele>94.0</ele><time>2026-03-28T17:05:31.041Z</time></trkpt><trkpt lat="45.6832205" lon="13.7561739"><ele>94.0</ele><time>2026-03-28T17:05:32.034Z</time></trkpt><trkpt lat="45.6830933" lon="13.7563115"><ele>94.0</ele><time>2026-03-28T17:05:33.052Z</time></trkpt><trkpt lat="45.6829706" lon="13.7564505"><ele>94.0</ele><time>2026-03-28T17:05:34.036Z</time></trkpt><trkpt lat="45.6828505" lon="13.756588"><ele>89.0</ele><time>2026-03-28T17:05:35.039Z</time></trkpt><trkpt lat="45.6827277" lon="13.756735"><ele>84.0</ele><time>2026-03-28T17:05:36.044Z</time></trkpt><trkpt lat="45.6826139" lon="13.7569006"><ele>79.0</ele><time>2026-03-28T17:05:37.05Z</time></trkpt><trkpt lat="45.6825251" lon="13.7570956"><ele>79.0</ele><time>2026-03-28T17:05:38.045Z</time></trkpt><trkpt lat="45.6824623" lon="13.757325"><ele>79.0</ele><time>2026-03-28T17:05:39.042Z</time></trkpt><trkpt lat="45.6824012" lon="13.757546"><ele>79.0</ele><time>2026-03-28T17:05:40.045Z</time></trkpt><trkpt lat="45.6823389" lon="13.757765"><ele>81.33333333333333</ele><time>2026-03-28T17:05:41.048Z</time></trkpt><trkpt lat="45.6822732" lon="13.7579658"><ele>83.66666666666667</ele><time>2026-03-28T17:05:42.045Z</time></trkpt><trkpt lat="45.6821938" lon="13.7581466"><ele>86.0</ele><time>2026-03-28T17:05:43.065Z</time></trkpt><trkpt lat="45.6821051" lon="13.7583182"><ele>86.0</ele><time>2026-03-28T17:05:44.043Z</time></trkpt><trkpt lat="45.6820183" lon="13.7584799"><ele>86.0</ele><time>2026-03-28T17:05:45.035Z</time></trkpt><trkpt lat="45.6819322" lon="13.7586335"><ele>86.0</ele><time>2026-03-28T17:05:46.04Z</time></trkpt><trkpt lat="45.6818273" lon="13.7587633"><ele>86.0</ele><time>2026-03-28T17:05:47.032Z</time></trkpt><trkpt lat="45.6817058" lon="13.7588719"><ele>83.25</ele><time>2026-03-28T17:05:48.063Z</time></trkpt><trkpt lat="45.6815714" lon="13.7589515"><ele>80.5</ele><time>2026-03-28T17:05:49.037Z</time></trkpt><trkpt lat="45.6814351" lon="13.7590258"><ele>77.75</ele><time>2026-03-28T17:05:50.044Z</time></trkpt><trkpt lat="45.6813015" lon="13.7591221"><ele>75.0</ele><time>2026-03-28T17:05:51.039Z</time></trkpt><trkpt lat="45.6811732" lon="13.7592499"><ele>73.25</ele><time>2026-03-28T17:05:52.041Z</time></trkpt><trkpt lat="45.6810621" lon="13.7593932"><ele>71.5</ele><time>2026-03-28T17:05:53.049Z</time></trkpt><trkpt lat="45.680948" lon="13.7595345"><ele>69.75</ele><time>2026-03-28T17:05:54.047Z</time></trkpt><trkpt lat="45.6808405" lon="13.7596712"><ele>68.0</ele><time>2026-03-28T17:05:55.075Z</time></trkpt><trkpt lat="45.6807545" lon="13.7598428"><ele>68.0</ele><time>2026-03-28T17:05:56.04Z</time></trkpt><trkpt lat="45.6806798" lon="13.7600265"><ele>68.0</ele><time>2026-03-28T17:05:57.047Z</time></trkpt><trkpt lat="45.6806021" lon="13.7601996"><ele>68.0</ele><time>2026-03-28T17:05:58.046Z</time></trkpt><trkpt lat="45.6805273" lon="13.7603529"><ele>68.0</ele><time>2026-03-28T17:05:59.043Z</time></trkpt><trkpt lat="45.6804632" lon="13.7604573"><ele>67.6</ele><time>2026-03-28T17:06:00.048Z</time></trkpt><trkpt lat="45.6803739" lon="13.7605095"><ele>67.19999999999999</ele><time>2026-03-28T17:06:01.047Z</time></trkpt><trkpt lat="45.680278" lon="13.7605077"><ele>66.8</ele><time>2026-03-28T17:06:02.042Z</time></trkpt><trkpt lat="45.6801757" lon="13.7604847"><ele>66.39999999999999</ele><time>2026-03-28T17:06:03.039Z</time></trkpt><trkpt lat="45.6800596" lon="13.7604681"><ele>66.0</ele><time>2026-03-28T17:06:04.048Z</time></trkpt><trkpt lat="45.6799402" lon="13.7604538"><ele>66.0</ele><time>2026-03-28T17:06:05.04Z</time></trkpt><trkpt lat="45.6798276" lon="13.7604415"><ele>66.0</ele><time>2026-03-28T17:06:06.036Z</time></trkpt><trkpt lat="45.67972" lon="13.7604305"><ele>66.0</ele><time>2026-03-28T17:06:07.042Z</time></trkpt><trkpt lat="45.6796218" lon="13.7604573"><ele>66.0</ele><time>2026-03-28T17:06:08.041Z</time></trkpt><trkpt lat="45.6795321" lon="13.7605429"><ele>66.0</ele><time>2026-03-28T17:06:09.063Z</time></trkpt><trkpt lat="45.6794602" lon="13.760671"><ele>63.8</ele><time>2026-03-28T17:06:10.036Z</time></trkpt><trkpt lat="45.6794143" lon="13.7607988"><ele>61.599999999999994</ele><time>2026-03-28T17:06:11.038Z</time></trkpt><trkpt lat="45.6794034" lon="13.7609411"><ele>59.4</ele><time>2026-03-28T17:06:12.046Z</time></trkpt><trkpt lat="45.6794157" lon="13.7610935"><ele>57.2</ele><time>2026-03-28T17:06:13.039Z</time></trkpt><trkpt lat="45.6794372" lon="13.7612549"><ele>55.0</ele><time>2026-03-28T17:06:14.045Z</time></trkpt><trkpt lat="45.6794641" lon="13.7613975"><ele>55.0</ele><time>2026-03-28T17:06:15.038Z</time></trkpt><trkpt lat="45.6794665" lon="13.7615314"><ele>55.0</ele><time>2026-03-28T17:06:16.039Z</time></trkpt><trkpt lat="45.6794469" lon="13.7616621"><ele>55.0</ele><time>2026-03-28T17:06:17.026Z</time></trkpt><trkpt lat="45.6793981" lon="13.7617841"><ele>55.0</ele><time>2026-03-28T17:06:18.038Z</time></trkpt><trkpt lat="45.6793088" lon="13.7618701"><ele>55.0</ele><time>2026-03-28T17:06:19.035Z</time></trkpt><trkpt lat="45.6792033" lon="13.7619044"><ele>55.0</ele><time>2026-03-28T17:06:20.039Z</time></trkpt><trkpt lat="45.6790873" lon="13.7618773"><ele>55.0</ele><time>2026-03-28T17:06:21.041Z</time></trkpt><trkpt lat="45.6789648" lon="13.7618311"><ele>55.0</ele><time>2026-03-28T17:06:22.034Z</time></trkpt><trkpt lat="45.6788425" lon="13.7617749"><ele>55.0</ele><time>2026-03-28T17:06:23.036Z</time></trkpt><trkpt lat="45.6787132" lon="13.7617021"><ele>58.0</ele><time>2026-03-28T17:06:24.035Z</time></trkpt><trkpt lat="45.6785801" lon="13.7616111"><ele>61.0</ele><time>2026-03-28T17:06:25.036Z</time></trkpt><trkpt lat="45.67847" lon="13.7614733"><ele>64.0</ele><time>2026-03-28T17:06:26.054Z</time></trkpt><trkpt lat="45.6783793" lon="13.7613289"><ele>67.0</ele><time>2026-03-28T17:06:27.03Z</time></trkpt><trkpt lat="45.6782863" lon="13.7612187"><ele>67.0</ele><time>2026-03-28T17:06:28.037Z</time></trkpt><trkpt lat="45.6781802" lon="13.7611587"><ele>67.0</ele><time>2026-03-28T17:06:29.027Z</time></trkpt><trkpt lat="45.6780496" lon="13.7611402"><ele>67.0</ele><time>2026-03-28T17:06:30.034Z</time></trkpt><trkpt lat="45.6779169" lon="13.7611526"><ele>67.0</ele><time>2026-03-28T17:06:31.033Z</time></trkpt><trkpt lat="45.6777811" lon="13.7611955"><ele>67.8</ele><time>2026-03-28T17:06:32.033Z</time></trkpt><trkpt lat="45.6776708" lon="13.7612503"><ele>68.6</ele><time>2026-03-28T17:06:33.03Z</time></trkpt><trkpt lat="45.6775944" lon="13.7612833"><ele>69.39999999999999</ele><time>2026-03-28T17:06:34.038Z</time></trkpt><trkpt lat="45.6775236" lon="13.7613126"><ele>70.2</ele><time>2026-03-28T17:06:36.029Z</time></trkpt><trkpt lat="45.6774273" lon="13.7614138"><ele>71.0</ele><time>2026-03-28T17:08:20.034Z</time></trkpt><trkpt lat="45.6773344" lon="13.761437"><ele>71.0</ele><time>2026-03-28T17:08:21.037Z</time></trkpt><trkpt lat="45.677223" lon="13.7614161"><ele>71.0</ele><time>2026-03-28T17:08:22.027Z</time></trkpt><trkpt lat="45.6771301" lon="13.7613671"><ele>71.0</ele><time>2026-03-28T17:08:23.039Z</time></trkpt><trkpt lat="45.6770694" lon="13.7612709"><ele>71.0</ele><time>2026-03-28T17:08:24.015Z</time></trkpt><trkpt lat="45.6770349" lon="13.7611418"><ele>71.0</ele><time>2026-03-28T17:08:25.02Z</time></trkpt><trkpt lat="45.6770359" lon="13.761011"><ele>67.5</ele><time>2026-03-28T17:08:26.022Z</time></trkpt><trkpt lat="45.677073" lon="13.7608718"><ele>64.0</ele><time>2026-03-28T17:08:27.012Z</time></trkpt><trkpt lat="45.6771416" lon="13.7607224"><ele>60.5</ele><time>2026-03-28T17:08:28.054Z</time></trkpt><trkpt lat="45.6772164" lon="13.7605713"><ele>57.0</ele><time>2026-03-28T17:08:29.018Z</time></trkpt><trkpt lat="45.6773059" lon="13.7604413"><ele>57.0</ele><time>2026-03-28T17:08:30.008Z</time></trkpt><trkpt lat="45.6773848" lon="13.7603139"><ele>57.0</ele><time>2026-03-28T17:08:31.017Z</time></trkpt><trkpt lat="45.677431" lon="13.7601526"><ele>57.0</ele><time>2026-03-28T17:08:32.012Z</time></trkpt><trkpt lat="45.67744" lon="13.7599622"><ele>57.0</ele><time>2026-03-28T17:08:33.012Z</time></trkpt><trkpt lat="45.6774328" lon="13.7597733"><ele>56.0</ele><time>2026-03-28T17:08:34.033Z</time></trkpt><trkpt lat="45.6774017" lon="13.7595711"><ele>55.0</ele><time>2026-03-28T17:08:35.022Z</time></trkpt><trkpt lat="45.6773517" lon="13.759367"><ele>54.0</ele><time>2026-03-28T17:08:36.021Z</time></trkpt><trkpt lat="45.6772726" lon="13.7591676"><ele>53.0</ele><time>2026-03-28T17:08:37.029Z</time></trkpt><trkpt lat="45.6771838" lon="13.7589748"><ele>52.0</ele><time>2026-03-28T17:08:38.027Z</time></trkpt><trkpt lat="45.6770972" lon="13.7587771"><ele>51.0</ele><time>2026-03-28T17:08:39.046Z</time></trkpt><trkpt lat="45.6770305" lon="13.7585678"><ele>47.333333333333336</ele><time>2026-03-28T17:08:40.028Z</time></trkpt><trkpt lat="45.6769716" lon="13.7583512"><ele>43.66666666666667</ele><time>2026-03-28T17:08:41.023Z</time></trkpt><trkpt lat="45.6769018" lon="13.7581347"><ele>40.0</ele><time>2026-03-28T17:08:42.032Z</time></trkpt><trkpt lat="45.67682" lon="13.7579223"><ele>46.333333333333336</ele><time>2026-03-28T17:08:43.034Z</time></trkpt><trkpt lat="45.6767337" lon="13.7577098"><ele>52.66666666666667</ele><time>2026-03-28T17:08:44.029Z</time></trkpt><trkpt lat="45.6766483" lon="13.7575084"><ele>59.0</ele><time>2026-03-28T17:08:45.039Z</time></trkpt><trkpt lat="45.6765712" lon="13.7573258"><ele>59.0</ele><time>2026-03-28T17:08:46.048Z</time></trkpt><trkpt lat="45.6764992" lon="13.7571596"><ele>59.0</ele><time>2026-03-28T17:08:47.033Z</time></trkpt><trkpt lat="45.6764281" lon="13.7569966"><ele>59.0</ele><time>2026-03-28T17:08:48.045Z</time></trkpt><trkpt lat="45.6763556" lon="13.7568385"><ele>59.0</ele><time>2026-03-28T17:08:49.044Z</time></trkpt><trkpt lat="45.6762863" lon="13.7566984"><ele>58.833333333333336</ele><time>2026-03-28T17:08:50.033Z</time></trkpt><trkpt lat="45.676217" lon="13.7565983"><ele>58.66666666666667</ele><time>2026-03-28T17:08:51.034Z</time></trkpt><trkpt lat="45.6761417" lon="13.7565275"><ele>58.5</ele><time>2026-03-28T17:08:52.035Z</time></trkpt><trkpt lat="45.6760845" lon="13.756469"><ele>58.33333333333333</ele><time>2026-03-28T17:08:53.044Z</time></trkpt><trkpt lat="45.6760694" lon="13.7563548"><ele>58.166666666666664</ele><time>2026-03-28T17:08:55.042Z</time></trkpt><trkpt lat="45.6761619" lon="13.7563424"><ele>58.0</ele><time>2026-03-28T17:08:57.032Z</time></trkpt><trkpt lat="45.6762216" lon="13.756372"><ele>55.0</ele><time>2026-03-28T17:08:58.037Z</time></trkpt><trkpt lat="45.6762956" lon="13.7564264"><ele>52.0</ele><time>2026-03-28T17:08:59.043Z</time></trkpt><trkpt lat="45.676383" lon="13.7565117"><ele>49.0</ele><time>2026-03-28T17:09:00.035Z</time></trkpt><trkpt lat="45.6764806" lon="13.75664"><ele>46.0</ele><time>2026-03-28T17:09:01.033Z</time></trkpt><trkpt lat="45.6765839" lon="13.7567854"><ele>50.333333333333336</ele><time>2026-03-28T17:09:02.034Z</time></trkpt><trkpt lat="45.6767023" lon="13.7569387"><ele>54.66666666666667</ele><time>2026-03-28T17:09:03.031Z</time></trkpt><trkpt lat="45.6768329" lon="13.7571002"><ele>59.0</ele><time>2026-03-28T17:09:04.053Z</time></trkpt><trkpt lat="45.6769635" lon="13.7572663"><ele>52.66666666666667</ele><time>2026-03-28T17:09:05.029Z</time></trkpt><trkpt lat="45.6770815" lon="13.7574262"><ele>46.333333333333336</ele><time>2026-03-28T17:09:06.025Z</time></trkpt><trkpt lat="45.6771913" lon="13.7575776"><ele>40.0</ele><time>2026-03-28T17:09:07.026Z</time></trkpt><trkpt lat="45.6772905" lon="13.7577286"><ele>40.0</ele><time>2026-03-28T17:09:08.025Z</time></trkpt><trkpt lat="45.6773782" lon="13.7578778"><ele>40.0</ele><time>2026-03-28T17:09:09.027Z</time></trkpt><trkpt lat="45.6774494" lon="13.7580218"><ele>40.0</ele><time>2026-03-28T17:09:10.026Z</time></trkpt><trkpt lat="45.6775229" lon="13.7581505"><ele>40.0</ele><time>2026-03-28T17:09:11.026Z</time></trkpt><trkpt lat="45.6776119" lon="13.7582666"><ele>40.0</ele><time>2026-03-28T17:09:12.029Z</time></trkpt><trkpt lat="45.6776986" lon="13.7583907"><ele>40.0</ele><time>2026-03-28T17:09:13.044Z</time></trkpt><trkpt lat="45.6777723" lon="13.7585221"><ele>40.0</ele><time>2026-03-28T17:09:14.023Z</time></trkpt><trkpt lat="45.6778368" lon="13.7586536"><ele>40.0</ele><time>2026-03-28T17:09:15.049Z</time></trkpt><trkpt lat="45.6778852" lon="13.7587528"><ele>40.0</ele><time>2026-03-28T17:09:16.032Z</time></trkpt><trkpt lat="45.6779358" lon="13.7588549"><ele>26.0</ele><time>2026-03-28T17:09:18.034Z</time></trkpt><trkpt lat="45.6778785" lon="13.7589384"><ele>26.0</ele><time>2026-03-28T17:11:42.041Z</time></trkpt><trkpt lat="45.6779161" lon="13.7590438"><ele>26.0</ele><time>2026-03-28T17:11:44.034Z</time></trkpt><trkpt lat="45.6779487" lon="13.7591293"><ele>26.0</ele><time>2026-03-28T17:11:46.031Z</time></trkpt></trkseg></trk></gpx>